<?xml version="1.0" encoding="UTF-8"?>
<gpx version="1.0" creator="GPSBabel - http://www.gpsbabel.org" xmlns="http://www.topografix.com/GPX/1/0">
  <time>2014-06-07T11:59:19.979Z</time>
  <bounds minlat="37.671587100" minlon="-1.917768500" maxlat="37.850548800" maxlon="-1.699176100"/>
  <wpt lat="37.677652000" lon="-1.704510100">
    <ele>567.000000</ele>
    <time>2014-03-29T14:34:09Z</time>
    <name>LAP001</name>
    <cmt>LAP001</cmt>
    <desc>LAP001</desc>
  </wpt>
  <wpt lat="37.680549600" lon="-1.712205800">
    <ele>449.000000</ele>
    <time>2014-03-29T14:40:00Z</time>
    <name>LAP002</name>
    <cmt>LAP002</cmt>
    <desc>LAP002</desc>
  </wpt>
  <wpt lat="37.671667400" lon="-1.727684000">
    <ele>724.000000</ele>
    <time>2014-03-29T16:49:49Z</time>
    <name>LAP003</name>
    <cmt>LAP003</cmt>
    <desc>LAP003</desc>
  </wpt>
  <trk>
    <name>2014-03-29T14:34:09Z</name>
    <trkseg>
      <trkpt lat="37.677652000" lon="-1.704510100">
        <ele>567.000000</ele>
        <time>2014-03-29T14:34:09Z</time>
      </trkpt>
      <trkpt lat="37.677652000" lon="-1.704510100">
        <ele>567.000000</ele>
        <time>2014-03-29T14:34:10Z</time>
      </trkpt>
      <trkpt lat="37.677656600" lon="-1.704550500">
        <ele>567.000000</ele>
        <time>2014-03-29T14:34:11Z</time>
      </trkpt>
      <trkpt lat="37.677662100" lon="-1.704599700">
        <ele>567.000000</ele>
        <time>2014-03-29T14:34:12Z</time>
      </trkpt>
      <trkpt lat="37.677667000" lon="-1.704653900">
        <ele>567.000000</ele>
        <time>2014-03-29T14:34:13Z</time>
      </trkpt>
      <trkpt lat="37.677668800" lon="-1.704709600">
        <ele>566.000000</ele>
        <time>2014-03-29T14:34:14Z</time>
      </trkpt>
      <trkpt lat="37.677666900" lon="-1.704758900">
        <ele>566.000000</ele>
        <time>2014-03-29T14:34:15Z</time>
      </trkpt>
      <trkpt lat="37.677664400" lon="-1.704805000">
        <ele>566.000000</ele>
        <time>2014-03-29T14:34:16Z</time>
      </trkpt>
      <trkpt lat="37.677655400" lon="-1.704846900">
        <ele>566.000000</ele>
        <time>2014-03-29T14:34:17Z</time>
      </trkpt>
      <trkpt lat="37.677651700" lon="-1.704884400">
        <ele>566.000000</ele>
        <time>2014-03-29T14:34:18Z</time>
      </trkpt>
      <trkpt lat="37.677662200" lon="-1.704904100">
        <ele>566.000000</ele>
        <time>2014-03-29T14:34:19Z</time>
      </trkpt>
      <trkpt lat="37.677663500" lon="-1.704919100">
        <ele>565.000000</ele>
        <time>2014-03-29T14:34:20Z</time>
      </trkpt>
      <trkpt lat="37.677673400" lon="-1.704926500">
        <ele>565.000000</ele>
        <time>2014-03-29T14:34:21Z</time>
      </trkpt>
      <trkpt lat="37.677689300" lon="-1.704937600">
        <ele>565.000000</ele>
        <time>2014-03-29T14:34:22Z</time>
      </trkpt>
      <trkpt lat="37.677689300" lon="-1.704937600">
        <ele>565.000000</ele>
        <time>2014-03-29T14:34:23Z</time>
      </trkpt>
      <trkpt lat="37.677689300" lon="-1.704937600">
        <ele>565.000000</ele>
        <time>2014-03-29T14:34:24Z</time>
      </trkpt>
      <trkpt lat="37.677689300" lon="-1.704937600">
        <ele>565.000000</ele>
        <time>2014-03-29T14:34:25Z</time>
      </trkpt>
      <trkpt lat="37.677689300" lon="-1.704937600">
        <ele>564.000000</ele>
        <time>2014-03-29T14:34:26Z</time>
      </trkpt>
      <trkpt lat="37.677689300" lon="-1.704937600">
        <ele>564.000000</ele>
        <time>2014-03-29T14:34:27Z</time>
      </trkpt>
      <trkpt lat="37.677689300" lon="-1.704937600">
        <ele>563.000000</ele>
        <time>2014-03-29T14:34:28Z</time>
      </trkpt>
      <trkpt lat="37.677689300" lon="-1.704937600">
        <ele>563.000000</ele>
        <time>2014-03-29T14:34:29Z</time>
      </trkpt>
      <trkpt lat="37.677689300" lon="-1.704937600">
        <ele>563.000000</ele>
        <time>2014-03-29T14:34:30Z</time>
      </trkpt>
      <trkpt lat="37.677689300" lon="-1.704937600">
        <ele>563.000000</ele>
        <time>2014-03-29T14:34:31Z</time>
      </trkpt>
      <trkpt lat="37.677703200" lon="-1.705377000">
        <ele>562.000000</ele>
        <time>2014-03-29T14:34:32Z</time>
      </trkpt>
      <trkpt lat="37.677488900" lon="-1.705488400">
        <ele>562.000000</ele>
        <time>2014-03-29T14:34:33Z</time>
      </trkpt>
      <trkpt lat="37.677358200" lon="-1.705607100">
        <ele>562.000000</ele>
        <time>2014-03-29T14:34:34Z</time>
      </trkpt>
      <trkpt lat="37.677264300" lon="-1.705688800">
        <ele>561.000000</ele>
        <time>2014-03-29T14:34:35Z</time>
      </trkpt>
      <trkpt lat="37.677183700" lon="-1.705770900">
        <ele>561.000000</ele>
        <time>2014-03-29T14:34:36Z</time>
      </trkpt>
      <trkpt lat="37.677116300" lon="-1.705840900">
        <ele>561.000000</ele>
        <time>2014-03-29T14:34:37Z</time>
      </trkpt>
      <trkpt lat="37.677087100" lon="-1.705903200">
        <ele>561.000000</ele>
        <time>2014-03-29T14:34:38Z</time>
      </trkpt>
      <trkpt lat="37.677043800" lon="-1.705979300">
        <ele>560.000000</ele>
        <time>2014-03-29T14:34:39Z</time>
      </trkpt>
      <trkpt lat="37.677017000" lon="-1.706041200">
        <ele>560.000000</ele>
        <time>2014-03-29T14:34:40Z</time>
      </trkpt>
      <trkpt lat="37.677001700" lon="-1.706092800">
        <ele>560.000000</ele>
        <time>2014-03-29T14:34:41Z</time>
      </trkpt>
      <trkpt lat="37.676985700" lon="-1.706138400">
        <ele>559.000000</ele>
        <time>2014-03-29T14:34:42Z</time>
      </trkpt>
      <trkpt lat="37.676967300" lon="-1.706185000">
        <ele>559.000000</ele>
        <time>2014-03-29T14:34:43Z</time>
      </trkpt>
      <trkpt lat="37.676953700" lon="-1.706233800">
        <ele>559.000000</ele>
        <time>2014-03-29T14:34:44Z</time>
      </trkpt>
      <trkpt lat="37.676936900" lon="-1.706285200">
        <ele>559.000000</ele>
        <time>2014-03-29T14:34:45Z</time>
      </trkpt>
      <trkpt lat="37.676919700" lon="-1.706344900">
        <ele>559.000000</ele>
        <time>2014-03-29T14:34:46Z</time>
      </trkpt>
      <trkpt lat="37.676904300" lon="-1.706406700">
        <ele>559.000000</ele>
        <time>2014-03-29T14:34:47Z</time>
      </trkpt>
      <trkpt lat="37.676885400" lon="-1.706463200">
        <ele>558.000000</ele>
        <time>2014-03-29T14:34:48Z</time>
      </trkpt>
      <trkpt lat="37.676869900" lon="-1.706517100">
        <ele>558.000000</ele>
        <time>2014-03-29T14:34:49Z</time>
      </trkpt>
      <trkpt lat="37.676857100" lon="-1.706567500">
        <ele>558.000000</ele>
        <time>2014-03-29T14:34:50Z</time>
      </trkpt>
      <trkpt lat="37.676844400" lon="-1.706612800">
        <ele>558.000000</ele>
        <time>2014-03-29T14:34:51Z</time>
      </trkpt>
      <trkpt lat="37.676827200" lon="-1.706658100">
        <ele>558.000000</ele>
        <time>2014-03-29T14:34:52Z</time>
      </trkpt>
      <trkpt lat="37.676816900" lon="-1.706707600">
        <ele>558.000000</ele>
        <time>2014-03-29T14:34:53Z</time>
      </trkpt>
      <trkpt lat="37.676805800" lon="-1.706757100">
        <ele>558.000000</ele>
        <time>2014-03-29T14:34:54Z</time>
      </trkpt>
      <trkpt lat="37.676792500" lon="-1.706807700">
        <ele>557.000000</ele>
        <time>2014-03-29T14:34:55Z</time>
      </trkpt>
      <trkpt lat="37.676784100" lon="-1.706851900">
        <ele>557.000000</ele>
        <time>2014-03-29T14:34:56Z</time>
      </trkpt>
      <trkpt lat="37.676769900" lon="-1.706898900">
        <ele>557.000000</ele>
        <time>2014-03-29T14:34:57Z</time>
      </trkpt>
      <trkpt lat="37.676745700" lon="-1.706955500">
        <ele>557.000000</ele>
        <time>2014-03-29T14:34:58Z</time>
      </trkpt>
      <trkpt lat="37.676721400" lon="-1.707016100">
        <ele>557.000000</ele>
        <time>2014-03-29T14:34:59Z</time>
      </trkpt>
      <trkpt lat="37.676699000" lon="-1.707080200">
        <ele>557.000000</ele>
        <time>2014-03-29T14:35:00Z</time>
      </trkpt>
      <trkpt lat="37.676679700" lon="-1.707149200">
        <ele>557.000000</ele>
        <time>2014-03-29T14:35:01Z</time>
      </trkpt>
      <trkpt lat="37.676666600" lon="-1.707224700">
        <ele>556.000000</ele>
        <time>2014-03-29T14:35:02Z</time>
      </trkpt>
      <trkpt lat="37.676659700" lon="-1.707300300">
        <ele>556.000000</ele>
        <time>2014-03-29T14:35:03Z</time>
      </trkpt>
      <trkpt lat="37.676655400" lon="-1.707377100">
        <ele>556.000000</ele>
        <time>2014-03-29T14:35:04Z</time>
      </trkpt>
      <trkpt lat="37.676658900" lon="-1.707454200">
        <ele>556.000000</ele>
        <time>2014-03-29T14:35:05Z</time>
      </trkpt>
      <trkpt lat="37.676661100" lon="-1.707535800">
        <ele>556.000000</ele>
        <time>2014-03-29T14:35:06Z</time>
      </trkpt>
      <trkpt lat="37.676661200" lon="-1.707619300">
        <ele>556.000000</ele>
        <time>2014-03-29T14:35:07Z</time>
      </trkpt>
      <trkpt lat="37.676662800" lon="-1.707697500">
        <ele>555.000000</ele>
        <time>2014-03-29T14:35:08Z</time>
      </trkpt>
      <trkpt lat="37.676662100" lon="-1.707777400">
        <ele>555.000000</ele>
        <time>2014-03-29T14:35:09Z</time>
      </trkpt>
      <trkpt lat="37.676658800" lon="-1.707860000">
        <ele>555.000000</ele>
        <time>2014-03-29T14:35:10Z</time>
      </trkpt>
      <trkpt lat="37.676656200" lon="-1.707943200">
        <ele>555.000000</ele>
        <time>2014-03-29T14:35:11Z</time>
      </trkpt>
      <trkpt lat="37.676652200" lon="-1.708027000">
        <ele>554.000000</ele>
        <time>2014-03-29T14:35:12Z</time>
      </trkpt>
      <trkpt lat="37.676649500" lon="-1.708112800">
        <ele>554.000000</ele>
        <time>2014-03-29T14:35:13Z</time>
      </trkpt>
      <trkpt lat="37.676648700" lon="-1.708195800">
        <ele>554.000000</ele>
        <time>2014-03-29T14:35:14Z</time>
      </trkpt>
      <trkpt lat="37.676647700" lon="-1.708276700">
        <ele>553.000000</ele>
        <time>2014-03-29T14:35:15Z</time>
      </trkpt>
      <trkpt lat="37.676652000" lon="-1.708359400">
        <ele>553.000000</ele>
        <time>2014-03-29T14:35:16Z</time>
      </trkpt>
      <trkpt lat="37.676666900" lon="-1.708443600">
        <ele>553.000000</ele>
        <time>2014-03-29T14:35:17Z</time>
      </trkpt>
      <trkpt lat="37.676680800" lon="-1.708529900">
        <ele>552.000000</ele>
        <time>2014-03-29T14:35:18Z</time>
      </trkpt>
      <trkpt lat="37.676691800" lon="-1.708616500">
        <ele>552.000000</ele>
        <time>2014-03-29T14:35:19Z</time>
      </trkpt>
      <trkpt lat="37.676701200" lon="-1.708702300">
        <ele>551.000000</ele>
        <time>2014-03-29T14:35:20Z</time>
      </trkpt>
      <trkpt lat="37.676709100" lon="-1.708788000">
        <ele>551.000000</ele>
        <time>2014-03-29T14:35:21Z</time>
      </trkpt>
      <trkpt lat="37.676717600" lon="-1.708868400">
        <ele>550.000000</ele>
        <time>2014-03-29T14:35:22Z</time>
      </trkpt>
      <trkpt lat="37.676730200" lon="-1.708946500">
        <ele>550.000000</ele>
        <time>2014-03-29T14:35:23Z</time>
      </trkpt>
      <trkpt lat="37.676744800" lon="-1.709019900">
        <ele>549.000000</ele>
        <time>2014-03-29T14:35:24Z</time>
      </trkpt>
      <trkpt lat="37.676769200" lon="-1.709090400">
        <ele>549.000000</ele>
        <time>2014-03-29T14:35:25Z</time>
      </trkpt>
      <trkpt lat="37.676797800" lon="-1.709162800">
        <ele>549.000000</ele>
        <time>2014-03-29T14:35:26Z</time>
      </trkpt>
      <trkpt lat="37.676822400" lon="-1.709234900">
        <ele>548.000000</ele>
        <time>2014-03-29T14:35:27Z</time>
      </trkpt>
      <trkpt lat="37.676847800" lon="-1.709303400">
        <ele>548.000000</ele>
        <time>2014-03-29T14:35:28Z</time>
      </trkpt>
      <trkpt lat="37.676878300" lon="-1.709367900">
        <ele>548.000000</ele>
        <time>2014-03-29T14:35:29Z</time>
      </trkpt>
      <trkpt lat="37.676913300" lon="-1.709427900">
        <ele>547.000000</ele>
        <time>2014-03-29T14:35:30Z</time>
      </trkpt>
      <trkpt lat="37.676950200" lon="-1.709478500">
        <ele>547.000000</ele>
        <time>2014-03-29T14:35:31Z</time>
      </trkpt>
      <trkpt lat="37.676981400" lon="-1.709520500">
        <ele>546.000000</ele>
        <time>2014-03-29T14:35:32Z</time>
      </trkpt>
      <trkpt lat="37.677004800" lon="-1.709557000">
        <ele>546.000000</ele>
        <time>2014-03-29T14:35:33Z</time>
      </trkpt>
      <trkpt lat="37.677030700" lon="-1.709585600">
        <ele>546.000000</ele>
        <time>2014-03-29T14:35:34Z</time>
      </trkpt>
      <trkpt lat="37.677059500" lon="-1.709611800">
        <ele>546.000000</ele>
        <time>2014-03-29T14:35:35Z</time>
      </trkpt>
      <trkpt lat="37.677089200" lon="-1.709633500">
        <ele>545.000000</ele>
        <time>2014-03-29T14:35:36Z</time>
      </trkpt>
      <trkpt lat="37.677115100" lon="-1.709652300">
        <ele>545.000000</ele>
        <time>2014-03-29T14:35:37Z</time>
      </trkpt>
      <trkpt lat="37.677144000" lon="-1.709672700">
        <ele>544.000000</ele>
        <time>2014-03-29T14:35:38Z</time>
      </trkpt>
      <trkpt lat="37.677173200" lon="-1.709694100">
        <ele>544.000000</ele>
        <time>2014-03-29T14:35:39Z</time>
      </trkpt>
      <trkpt lat="37.677200900" lon="-1.709711800">
        <ele>544.000000</ele>
        <time>2014-03-29T14:35:40Z</time>
      </trkpt>
      <trkpt lat="37.677223500" lon="-1.709727600">
        <ele>544.000000</ele>
        <time>2014-03-29T14:35:41Z</time>
      </trkpt>
      <trkpt lat="37.677241500" lon="-1.709745000">
        <ele>543.000000</ele>
        <time>2014-03-29T14:35:42Z</time>
      </trkpt>
      <trkpt lat="37.677259900" lon="-1.709763700">
        <ele>543.000000</ele>
        <time>2014-03-29T14:35:43Z</time>
      </trkpt>
      <trkpt lat="37.677279000" lon="-1.709785000">
        <ele>542.000000</ele>
        <time>2014-03-29T14:35:44Z</time>
      </trkpt>
      <trkpt lat="37.677288000" lon="-1.709810400">
        <ele>542.000000</ele>
        <time>2014-03-29T14:35:45Z</time>
      </trkpt>
      <trkpt lat="37.677283300" lon="-1.709840800">
        <ele>542.000000</ele>
        <time>2014-03-29T14:35:46Z</time>
      </trkpt>
      <trkpt lat="37.677264600" lon="-1.709867800">
        <ele>541.000000</ele>
        <time>2014-03-29T14:35:47Z</time>
      </trkpt>
      <trkpt lat="37.677238800" lon="-1.709874600">
        <ele>541.000000</ele>
        <time>2014-03-29T14:35:48Z</time>
      </trkpt>
      <trkpt lat="37.677206000" lon="-1.709862500">
        <ele>540.000000</ele>
        <time>2014-03-29T14:35:49Z</time>
      </trkpt>
      <trkpt lat="37.677163400" lon="-1.709839100">
        <ele>540.000000</ele>
        <time>2014-03-29T14:35:50Z</time>
      </trkpt>
      <trkpt lat="37.677106700" lon="-1.709801500">
        <ele>540.000000</ele>
        <time>2014-03-29T14:35:51Z</time>
      </trkpt>
      <trkpt lat="37.677047100" lon="-1.709761300">
        <ele>539.000000</ele>
        <time>2014-03-29T14:35:52Z</time>
      </trkpt>
      <trkpt lat="37.676993200" lon="-1.709716600">
        <ele>539.000000</ele>
        <time>2014-03-29T14:35:53Z</time>
      </trkpt>
      <trkpt lat="37.676943300" lon="-1.709670600">
        <ele>539.000000</ele>
        <time>2014-03-29T14:35:54Z</time>
      </trkpt>
      <trkpt lat="37.676896600" lon="-1.709627700">
        <ele>539.000000</ele>
        <time>2014-03-29T14:35:55Z</time>
      </trkpt>
      <trkpt lat="37.676847200" lon="-1.709588300">
        <ele>538.000000</ele>
        <time>2014-03-29T14:35:56Z</time>
      </trkpt>
      <trkpt lat="37.676802200" lon="-1.709543800">
        <ele>538.000000</ele>
        <time>2014-03-29T14:35:57Z</time>
      </trkpt>
      <trkpt lat="37.676763500" lon="-1.709484200">
        <ele>538.000000</ele>
        <time>2014-03-29T14:35:58Z</time>
      </trkpt>
      <trkpt lat="37.676725900" lon="-1.709416900">
        <ele>538.000000</ele>
        <time>2014-03-29T14:35:59Z</time>
      </trkpt>
      <trkpt lat="37.676687400" lon="-1.709350200">
        <ele>538.000000</ele>
        <time>2014-03-29T14:36:00Z</time>
      </trkpt>
      <trkpt lat="37.676649000" lon="-1.709276900">
        <ele>538.000000</ele>
        <time>2014-03-29T14:36:01Z</time>
      </trkpt>
      <trkpt lat="37.676616300" lon="-1.709200400">
        <ele>537.000000</ele>
        <time>2014-03-29T14:36:02Z</time>
      </trkpt>
      <trkpt lat="37.676590200" lon="-1.709117600">
        <ele>537.000000</ele>
        <time>2014-03-29T14:36:03Z</time>
      </trkpt>
      <trkpt lat="37.676563200" lon="-1.709034400">
        <ele>537.000000</ele>
        <time>2014-03-29T14:36:04Z</time>
      </trkpt>
      <trkpt lat="37.676539500" lon="-1.708950800">
        <ele>537.000000</ele>
        <time>2014-03-29T14:36:05Z</time>
      </trkpt>
      <trkpt lat="37.676521100" lon="-1.708862500">
        <ele>537.000000</ele>
        <time>2014-03-29T14:36:06Z</time>
      </trkpt>
      <trkpt lat="37.676500600" lon="-1.708773200">
        <ele>537.000000</ele>
        <time>2014-03-29T14:36:07Z</time>
      </trkpt>
      <trkpt lat="37.676478000" lon="-1.708685500">
        <ele>537.000000</ele>
        <time>2014-03-29T14:36:08Z</time>
      </trkpt>
      <trkpt lat="37.676453700" lon="-1.708597300">
        <ele>537.000000</ele>
        <time>2014-03-29T14:36:09Z</time>
      </trkpt>
      <trkpt lat="37.676431400" lon="-1.708513800">
        <ele>537.000000</ele>
        <time>2014-03-29T14:36:10Z</time>
      </trkpt>
      <trkpt lat="37.676408200" lon="-1.708429200">
        <ele>537.000000</ele>
        <time>2014-03-29T14:36:11Z</time>
      </trkpt>
      <trkpt lat="37.676388100" lon="-1.708346700">
        <ele>536.000000</ele>
        <time>2014-03-29T14:36:12Z</time>
      </trkpt>
      <trkpt lat="37.676365900" lon="-1.708264900">
        <ele>536.000000</ele>
        <time>2014-03-29T14:36:13Z</time>
      </trkpt>
      <trkpt lat="37.676347000" lon="-1.708179500">
        <ele>536.000000</ele>
        <time>2014-03-29T14:36:14Z</time>
      </trkpt>
      <trkpt lat="37.676328400" lon="-1.708088400">
        <ele>536.000000</ele>
        <time>2014-03-29T14:36:15Z</time>
      </trkpt>
      <trkpt lat="37.676312000" lon="-1.707992100">
        <ele>536.000000</ele>
        <time>2014-03-29T14:36:16Z</time>
      </trkpt>
      <trkpt lat="37.676296200" lon="-1.707894700">
        <ele>535.000000</ele>
        <time>2014-03-29T14:36:17Z</time>
      </trkpt>
      <trkpt lat="37.676281300" lon="-1.707797700">
        <ele>535.000000</ele>
        <time>2014-03-29T14:36:18Z</time>
      </trkpt>
      <trkpt lat="37.676270100" lon="-1.707698800">
        <ele>535.000000</ele>
        <time>2014-03-29T14:36:19Z</time>
      </trkpt>
      <trkpt lat="37.676259400" lon="-1.707599500">
        <ele>535.000000</ele>
        <time>2014-03-29T14:36:20Z</time>
      </trkpt>
      <trkpt lat="37.676249800" lon="-1.707501600">
        <ele>534.000000</ele>
        <time>2014-03-29T14:36:21Z</time>
      </trkpt>
      <trkpt lat="37.676238400" lon="-1.707403300">
        <ele>534.000000</ele>
        <time>2014-03-29T14:36:22Z</time>
      </trkpt>
      <trkpt lat="37.676226600" lon="-1.707304500">
        <ele>534.000000</ele>
        <time>2014-03-29T14:36:23Z</time>
      </trkpt>
      <trkpt lat="37.676214500" lon="-1.707208000">
        <ele>534.000000</ele>
        <time>2014-03-29T14:36:24Z</time>
      </trkpt>
      <trkpt lat="37.676202700" lon="-1.707114200">
        <ele>534.000000</ele>
        <time>2014-03-29T14:36:25Z</time>
      </trkpt>
      <trkpt lat="37.676193400" lon="-1.707022400">
        <ele>533.000000</ele>
        <time>2014-03-29T14:36:26Z</time>
      </trkpt>
      <trkpt lat="37.676184300" lon="-1.706934000">
        <ele>533.000000</ele>
        <time>2014-03-29T14:36:27Z</time>
      </trkpt>
      <trkpt lat="37.676177300" lon="-1.706854400">
        <ele>533.000000</ele>
        <time>2014-03-29T14:36:28Z</time>
      </trkpt>
      <trkpt lat="37.676172500" lon="-1.706777900">
        <ele>533.000000</ele>
        <time>2014-03-29T14:36:29Z</time>
      </trkpt>
      <trkpt lat="37.676180200" lon="-1.706701800">
        <ele>533.000000</ele>
        <time>2014-03-29T14:36:30Z</time>
      </trkpt>
      <trkpt lat="37.676199000" lon="-1.706631100">
        <ele>533.000000</ele>
        <time>2014-03-29T14:36:31Z</time>
      </trkpt>
      <trkpt lat="37.676229000" lon="-1.706567900">
        <ele>532.000000</ele>
        <time>2014-03-29T14:36:32Z</time>
      </trkpt>
      <trkpt lat="37.676270500" lon="-1.706508900">
        <ele>532.000000</ele>
        <time>2014-03-29T14:36:33Z</time>
      </trkpt>
      <trkpt lat="37.676315300" lon="-1.706450000">
        <ele>532.000000</ele>
        <time>2014-03-29T14:36:34Z</time>
      </trkpt>
      <trkpt lat="37.676360000" lon="-1.706385200">
        <ele>532.000000</ele>
        <time>2014-03-29T14:36:35Z</time>
      </trkpt>
      <trkpt lat="37.676396300" lon="-1.706308300">
        <ele>532.000000</ele>
        <time>2014-03-29T14:36:36Z</time>
      </trkpt>
      <trkpt lat="37.676424500" lon="-1.706216200">
        <ele>532.000000</ele>
        <time>2014-03-29T14:36:37Z</time>
      </trkpt>
      <trkpt lat="37.676443100" lon="-1.706122700">
        <ele>531.000000</ele>
        <time>2014-03-29T14:36:38Z</time>
      </trkpt>
      <trkpt lat="37.676452500" lon="-1.706033400">
        <ele>531.000000</ele>
        <time>2014-03-29T14:36:39Z</time>
      </trkpt>
      <trkpt lat="37.676456300" lon="-1.705942800">
        <ele>530.000000</ele>
        <time>2014-03-29T14:36:40Z</time>
      </trkpt>
      <trkpt lat="37.676467000" lon="-1.705850500">
        <ele>530.000000</ele>
        <time>2014-03-29T14:36:41Z</time>
      </trkpt>
      <trkpt lat="37.676494000" lon="-1.705754400">
        <ele>529.000000</ele>
        <time>2014-03-29T14:36:42Z</time>
      </trkpt>
      <trkpt lat="37.676525400" lon="-1.705665500">
        <ele>529.000000</ele>
        <time>2014-03-29T14:36:43Z</time>
      </trkpt>
      <trkpt lat="37.676563500" lon="-1.705577100">
        <ele>529.000000</ele>
        <time>2014-03-29T14:36:44Z</time>
      </trkpt>
      <trkpt lat="37.676608700" lon="-1.705494600">
        <ele>528.000000</ele>
        <time>2014-03-29T14:36:45Z</time>
      </trkpt>
      <trkpt lat="37.676653700" lon="-1.705416000">
        <ele>528.000000</ele>
        <time>2014-03-29T14:36:46Z</time>
      </trkpt>
      <trkpt lat="37.676700800" lon="-1.705347800">
        <ele>527.000000</ele>
        <time>2014-03-29T14:36:47Z</time>
      </trkpt>
      <trkpt lat="37.676744600" lon="-1.705276400">
        <ele>527.000000</ele>
        <time>2014-03-29T14:36:48Z</time>
      </trkpt>
      <trkpt lat="37.676777400" lon="-1.705197300">
        <ele>526.000000</ele>
        <time>2014-03-29T14:36:49Z</time>
      </trkpt>
      <trkpt lat="37.676798600" lon="-1.705115700">
        <ele>526.000000</ele>
        <time>2014-03-29T14:36:50Z</time>
      </trkpt>
      <trkpt lat="37.676816700" lon="-1.705031800">
        <ele>525.000000</ele>
        <time>2014-03-29T14:36:51Z</time>
      </trkpt>
      <trkpt lat="37.676838800" lon="-1.704947400">
        <ele>525.000000</ele>
        <time>2014-03-29T14:36:52Z</time>
      </trkpt>
      <trkpt lat="37.676866500" lon="-1.704859700">
        <ele>524.000000</ele>
        <time>2014-03-29T14:36:53Z</time>
      </trkpt>
      <trkpt lat="37.676886300" lon="-1.704765300">
        <ele>524.000000</ele>
        <time>2014-03-29T14:36:54Z</time>
      </trkpt>
      <trkpt lat="37.676894500" lon="-1.704661700">
        <ele>523.000000</ele>
        <time>2014-03-29T14:36:55Z</time>
      </trkpt>
      <trkpt lat="37.676893400" lon="-1.704555900">
        <ele>523.000000</ele>
        <time>2014-03-29T14:36:56Z</time>
      </trkpt>
      <trkpt lat="37.676888100" lon="-1.704442700">
        <ele>522.000000</ele>
        <time>2014-03-29T14:36:57Z</time>
      </trkpt>
      <trkpt lat="37.676887800" lon="-1.704336800">
        <ele>522.000000</ele>
        <time>2014-03-29T14:36:58Z</time>
      </trkpt>
      <trkpt lat="37.676888800" lon="-1.704241800">
        <ele>521.000000</ele>
        <time>2014-03-29T14:36:59Z</time>
      </trkpt>
      <trkpt lat="37.676886500" lon="-1.704149000">
        <ele>521.000000</ele>
        <time>2014-03-29T14:37:00Z</time>
      </trkpt>
      <trkpt lat="37.676872900" lon="-1.704060300">
        <ele>520.000000</ele>
        <time>2014-03-29T14:37:01Z</time>
      </trkpt>
      <trkpt lat="37.676858800" lon="-1.703974900">
        <ele>519.000000</ele>
        <time>2014-03-29T14:37:02Z</time>
      </trkpt>
      <trkpt lat="37.676850300" lon="-1.703890300">
        <ele>519.000000</ele>
        <time>2014-03-29T14:37:03Z</time>
      </trkpt>
      <trkpt lat="37.676851500" lon="-1.703805400">
        <ele>518.000000</ele>
        <time>2014-03-29T14:37:04Z</time>
      </trkpt>
      <trkpt lat="37.676868700" lon="-1.703723500">
        <ele>518.000000</ele>
        <time>2014-03-29T14:37:05Z</time>
      </trkpt>
      <trkpt lat="37.676904300" lon="-1.703635400">
        <ele>517.000000</ele>
        <time>2014-03-29T14:37:06Z</time>
      </trkpt>
      <trkpt lat="37.676947600" lon="-1.703545600">
        <ele>516.000000</ele>
        <time>2014-03-29T14:37:07Z</time>
      </trkpt>
      <trkpt lat="37.676993800" lon="-1.703458800">
        <ele>516.000000</ele>
        <time>2014-03-29T14:37:08Z</time>
      </trkpt>
      <trkpt lat="37.677036100" lon="-1.703381100">
        <ele>515.000000</ele>
        <time>2014-03-29T14:37:09Z</time>
      </trkpt>
      <trkpt lat="37.677078000" lon="-1.703306500">
        <ele>515.000000</ele>
        <time>2014-03-29T14:37:10Z</time>
      </trkpt>
      <trkpt lat="37.677123100" lon="-1.703231900">
        <ele>514.000000</ele>
        <time>2014-03-29T14:37:11Z</time>
      </trkpt>
      <trkpt lat="37.677168300" lon="-1.703157900">
        <ele>514.000000</ele>
        <time>2014-03-29T14:37:12Z</time>
      </trkpt>
      <trkpt lat="37.677217400" lon="-1.703083700">
        <ele>514.000000</ele>
        <time>2014-03-29T14:37:13Z</time>
      </trkpt>
      <trkpt lat="37.677269600" lon="-1.703009400">
        <ele>513.000000</ele>
        <time>2014-03-29T14:37:14Z</time>
      </trkpt>
      <trkpt lat="37.677320100" lon="-1.702942300">
        <ele>513.000000</ele>
        <time>2014-03-29T14:37:15Z</time>
      </trkpt>
      <trkpt lat="37.677379900" lon="-1.702880600">
        <ele>513.000000</ele>
        <time>2014-03-29T14:37:16Z</time>
      </trkpt>
      <trkpt lat="37.677436100" lon="-1.702822100">
        <ele>513.000000</ele>
        <time>2014-03-29T14:37:17Z</time>
      </trkpt>
      <trkpt lat="37.677506600" lon="-1.702770300">
        <ele>513.000000</ele>
        <time>2014-03-29T14:37:18Z</time>
      </trkpt>
      <trkpt lat="37.677568100" lon="-1.702713900">
        <ele>513.000000</ele>
        <time>2014-03-29T14:37:19Z</time>
      </trkpt>
      <trkpt lat="37.677624500" lon="-1.702652700">
        <ele>513.000000</ele>
        <time>2014-03-29T14:37:20Z</time>
      </trkpt>
      <trkpt lat="37.677676500" lon="-1.702590000">
        <ele>513.000000</ele>
        <time>2014-03-29T14:37:21Z</time>
      </trkpt>
      <trkpt lat="37.677721200" lon="-1.702522700">
        <ele>513.000000</ele>
        <time>2014-03-29T14:37:22Z</time>
      </trkpt>
      <trkpt lat="37.677757800" lon="-1.702453300">
        <ele>513.000000</ele>
        <time>2014-03-29T14:37:23Z</time>
      </trkpt>
      <trkpt lat="37.677793400" lon="-1.702377400">
        <ele>513.000000</ele>
        <time>2014-03-29T14:37:24Z</time>
      </trkpt>
      <trkpt lat="37.677831100" lon="-1.702298400">
        <ele>513.000000</ele>
        <time>2014-03-29T14:37:25Z</time>
      </trkpt>
      <trkpt lat="37.677867700" lon="-1.702223500">
        <ele>513.000000</ele>
        <time>2014-03-29T14:37:26Z</time>
      </trkpt>
      <trkpt lat="37.677907400" lon="-1.702148800">
        <ele>513.000000</ele>
        <time>2014-03-29T14:37:27Z</time>
      </trkpt>
      <trkpt lat="37.677942800" lon="-1.702070400">
        <ele>513.000000</ele>
        <time>2014-03-29T14:37:28Z</time>
      </trkpt>
      <trkpt lat="37.677981000" lon="-1.701993700">
        <ele>513.000000</ele>
        <time>2014-03-29T14:37:29Z</time>
      </trkpt>
      <trkpt lat="37.678027500" lon="-1.701920900">
        <ele>513.000000</ele>
        <time>2014-03-29T14:37:30Z</time>
      </trkpt>
      <trkpt lat="37.678077000" lon="-1.701851400">
        <ele>512.000000</ele>
        <time>2014-03-29T14:37:31Z</time>
      </trkpt>
      <trkpt lat="37.678136600" lon="-1.701790300">
        <ele>512.000000</ele>
        <time>2014-03-29T14:37:32Z</time>
      </trkpt>
      <trkpt lat="37.678200000" lon="-1.701738300">
        <ele>512.000000</ele>
        <time>2014-03-29T14:37:33Z</time>
      </trkpt>
      <trkpt lat="37.678261500" lon="-1.701690600">
        <ele>511.000000</ele>
        <time>2014-03-29T14:37:34Z</time>
      </trkpt>
      <trkpt lat="37.678323400" lon="-1.701653000">
        <ele>511.000000</ele>
        <time>2014-03-29T14:37:35Z</time>
      </trkpt>
      <trkpt lat="37.678379600" lon="-1.701624200">
        <ele>510.000000</ele>
        <time>2014-03-29T14:37:36Z</time>
      </trkpt>
      <trkpt lat="37.678436000" lon="-1.701594400">
        <ele>510.000000</ele>
        <time>2014-03-29T14:37:37Z</time>
      </trkpt>
      <trkpt lat="37.678488000" lon="-1.701559100">
        <ele>509.000000</ele>
        <time>2014-03-29T14:37:38Z</time>
      </trkpt>
      <trkpt lat="37.678531100" lon="-1.701506100">
        <ele>509.000000</ele>
        <time>2014-03-29T14:37:39Z</time>
      </trkpt>
      <trkpt lat="37.678573400" lon="-1.701441400">
        <ele>508.000000</ele>
        <time>2014-03-29T14:37:40Z</time>
      </trkpt>
      <trkpt lat="37.678606500" lon="-1.701371500">
        <ele>508.000000</ele>
        <time>2014-03-29T14:37:41Z</time>
      </trkpt>
      <trkpt lat="37.678637100" lon="-1.701295000">
        <ele>507.000000</ele>
        <time>2014-03-29T14:37:42Z</time>
      </trkpt>
      <trkpt lat="37.678673500" lon="-1.701218200">
        <ele>507.000000</ele>
        <time>2014-03-29T14:37:43Z</time>
      </trkpt>
      <trkpt lat="37.678716100" lon="-1.701151700">
        <ele>506.000000</ele>
        <time>2014-03-29T14:37:44Z</time>
      </trkpt>
      <trkpt lat="37.678766200" lon="-1.701089700">
        <ele>505.000000</ele>
        <time>2014-03-29T14:37:45Z</time>
      </trkpt>
      <trkpt lat="37.678834900" lon="-1.701039400">
        <ele>505.000000</ele>
        <time>2014-03-29T14:37:46Z</time>
      </trkpt>
      <trkpt lat="37.678902700" lon="-1.700991900">
        <ele>504.000000</ele>
        <time>2014-03-29T14:37:47Z</time>
      </trkpt>
      <trkpt lat="37.678969000" lon="-1.700936100">
        <ele>503.000000</ele>
        <time>2014-03-29T14:37:48Z</time>
      </trkpt>
      <trkpt lat="37.679028400" lon="-1.700866000">
        <ele>503.000000</ele>
        <time>2014-03-29T14:37:49Z</time>
      </trkpt>
      <trkpt lat="37.679076800" lon="-1.700781100">
        <ele>502.000000</ele>
        <time>2014-03-29T14:37:50Z</time>
      </trkpt>
      <trkpt lat="37.679118400" lon="-1.700683500">
        <ele>501.000000</ele>
        <time>2014-03-29T14:37:51Z</time>
      </trkpt>
      <trkpt lat="37.679151700" lon="-1.700573100">
        <ele>501.000000</ele>
        <time>2014-03-29T14:37:52Z</time>
      </trkpt>
      <trkpt lat="37.679175700" lon="-1.700456500">
        <ele>500.000000</ele>
        <time>2014-03-29T14:37:53Z</time>
      </trkpt>
      <trkpt lat="37.679193600" lon="-1.700337900">
        <ele>499.000000</ele>
        <time>2014-03-29T14:37:54Z</time>
      </trkpt>
      <trkpt lat="37.679205600" lon="-1.700222700">
        <ele>498.000000</ele>
        <time>2014-03-29T14:37:55Z</time>
      </trkpt>
      <trkpt lat="37.679207000" lon="-1.700117500">
        <ele>497.000000</ele>
        <time>2014-03-29T14:37:56Z</time>
      </trkpt>
      <trkpt lat="37.679198900" lon="-1.700021600">
        <ele>497.000000</ele>
        <time>2014-03-29T14:37:57Z</time>
      </trkpt>
      <trkpt lat="37.679180200" lon="-1.699933600">
        <ele>496.000000</ele>
        <time>2014-03-29T14:37:58Z</time>
      </trkpt>
      <trkpt lat="37.679157700" lon="-1.699849800">
        <ele>495.000000</ele>
        <time>2014-03-29T14:37:59Z</time>
      </trkpt>
      <trkpt lat="37.679137200" lon="-1.699771900">
        <ele>494.000000</ele>
        <time>2014-03-29T14:38:00Z</time>
      </trkpt>
      <trkpt lat="37.679119200" lon="-1.699701500">
        <ele>493.000000</ele>
        <time>2014-03-29T14:38:01Z</time>
      </trkpt>
      <trkpt lat="37.679109100" lon="-1.699633800">
        <ele>493.000000</ele>
        <time>2014-03-29T14:38:02Z</time>
      </trkpt>
      <trkpt lat="37.679106200" lon="-1.699558700">
        <ele>492.000000</ele>
        <time>2014-03-29T14:38:03Z</time>
      </trkpt>
      <trkpt lat="37.679111100" lon="-1.699480200">
        <ele>491.000000</ele>
        <time>2014-03-29T14:38:04Z</time>
      </trkpt>
      <trkpt lat="37.679128300" lon="-1.699399500">
        <ele>491.000000</ele>
        <time>2014-03-29T14:38:05Z</time>
      </trkpt>
      <trkpt lat="37.679152600" lon="-1.699329200">
        <ele>490.000000</ele>
        <time>2014-03-29T14:38:06Z</time>
      </trkpt>
      <trkpt lat="37.679185600" lon="-1.699270500">
        <ele>489.000000</ele>
        <time>2014-03-29T14:38:07Z</time>
      </trkpt>
      <trkpt lat="37.679229700" lon="-1.699222600">
        <ele>489.000000</ele>
        <time>2014-03-29T14:38:08Z</time>
      </trkpt>
      <trkpt lat="37.679283000" lon="-1.699188300">
        <ele>488.000000</ele>
        <time>2014-03-29T14:38:09Z</time>
      </trkpt>
      <trkpt lat="37.679337900" lon="-1.699176100">
        <ele>487.000000</ele>
        <time>2014-03-29T14:38:10Z</time>
      </trkpt>
      <trkpt lat="37.679396100" lon="-1.699204900">
        <ele>487.000000</ele>
        <time>2014-03-29T14:38:11Z</time>
      </trkpt>
      <trkpt lat="37.679446600" lon="-1.699265500">
        <ele>486.000000</ele>
        <time>2014-03-29T14:38:12Z</time>
      </trkpt>
      <trkpt lat="37.679490300" lon="-1.699315600">
        <ele>486.000000</ele>
        <time>2014-03-29T14:38:13Z</time>
      </trkpt>
      <trkpt lat="37.679530300" lon="-1.699372100">
        <ele>485.000000</ele>
        <time>2014-03-29T14:38:14Z</time>
      </trkpt>
      <trkpt lat="37.679565200" lon="-1.699429600">
        <ele>485.000000</ele>
        <time>2014-03-29T14:38:15Z</time>
      </trkpt>
      <trkpt lat="37.679593700" lon="-1.699485200">
        <ele>484.000000</ele>
        <time>2014-03-29T14:38:16Z</time>
      </trkpt>
      <trkpt lat="37.679621600" lon="-1.699549100">
        <ele>483.000000</ele>
        <time>2014-03-29T14:38:17Z</time>
      </trkpt>
      <trkpt lat="37.679649900" lon="-1.699590500">
        <ele>482.000000</ele>
        <time>2014-03-29T14:38:18Z</time>
      </trkpt>
      <trkpt lat="37.679658800" lon="-1.699660800">
        <ele>482.000000</ele>
        <time>2014-03-29T14:38:19Z</time>
      </trkpt>
      <trkpt lat="37.679637900" lon="-1.699763200">
        <ele>481.000000</ele>
        <time>2014-03-29T14:38:20Z</time>
      </trkpt>
      <trkpt lat="37.679619100" lon="-1.699881800">
        <ele>480.000000</ele>
        <time>2014-03-29T14:38:21Z</time>
      </trkpt>
      <trkpt lat="37.679609800" lon="-1.700003000">
        <ele>479.000000</ele>
        <time>2014-03-29T14:38:22Z</time>
      </trkpt>
      <trkpt lat="37.679615000" lon="-1.700118500">
        <ele>478.000000</ele>
        <time>2014-03-29T14:38:23Z</time>
      </trkpt>
      <trkpt lat="37.679617000" lon="-1.700238200">
        <ele>478.000000</ele>
        <time>2014-03-29T14:38:24Z</time>
      </trkpt>
      <trkpt lat="37.679620000" lon="-1.700357600">
        <ele>477.000000</ele>
        <time>2014-03-29T14:38:25Z</time>
      </trkpt>
      <trkpt lat="37.679607000" lon="-1.700482600">
        <ele>476.000000</ele>
        <time>2014-03-29T14:38:26Z</time>
      </trkpt>
      <trkpt lat="37.679593000" lon="-1.700597600">
        <ele>475.000000</ele>
        <time>2014-03-29T14:38:27Z</time>
      </trkpt>
      <trkpt lat="37.679592500" lon="-1.700697700">
        <ele>474.000000</ele>
        <time>2014-03-29T14:38:28Z</time>
      </trkpt>
      <trkpt lat="37.679590000" lon="-1.700799400">
        <ele>473.000000</ele>
        <time>2014-03-29T14:38:29Z</time>
      </trkpt>
      <trkpt lat="37.679592100" lon="-1.700894100">
        <ele>472.000000</ele>
        <time>2014-03-29T14:38:30Z</time>
      </trkpt>
      <trkpt lat="37.679593300" lon="-1.700985900">
        <ele>471.000000</ele>
        <time>2014-03-29T14:38:31Z</time>
      </trkpt>
      <trkpt lat="37.679586900" lon="-1.701077700">
        <ele>470.000000</ele>
        <time>2014-03-29T14:38:32Z</time>
      </trkpt>
      <trkpt lat="37.679597100" lon="-1.701162000">
        <ele>469.000000</ele>
        <time>2014-03-29T14:38:33Z</time>
      </trkpt>
      <trkpt lat="37.679611300" lon="-1.701239200">
        <ele>468.000000</ele>
        <time>2014-03-29T14:38:34Z</time>
      </trkpt>
      <trkpt lat="37.679628800" lon="-1.701315500">
        <ele>467.000000</ele>
        <time>2014-03-29T14:38:35Z</time>
      </trkpt>
      <trkpt lat="37.679660200" lon="-1.701390400">
        <ele>466.000000</ele>
        <time>2014-03-29T14:38:36Z</time>
      </trkpt>
      <trkpt lat="37.679701100" lon="-1.701464200">
        <ele>466.000000</ele>
        <time>2014-03-29T14:38:37Z</time>
      </trkpt>
      <trkpt lat="37.679740600" lon="-1.701535000">
        <ele>465.000000</ele>
        <time>2014-03-29T14:38:38Z</time>
      </trkpt>
      <trkpt lat="37.679779500" lon="-1.701604500">
        <ele>464.000000</ele>
        <time>2014-03-29T14:38:39Z</time>
      </trkpt>
      <trkpt lat="37.679811500" lon="-1.701669900">
        <ele>463.000000</ele>
        <time>2014-03-29T14:38:40Z</time>
      </trkpt>
      <trkpt lat="37.679842200" lon="-1.701735200">
        <ele>462.000000</ele>
        <time>2014-03-29T14:38:41Z</time>
      </trkpt>
      <trkpt lat="37.679867900" lon="-1.701806200">
        <ele>461.000000</ele>
        <time>2014-03-29T14:38:42Z</time>
      </trkpt>
      <trkpt lat="37.679901600" lon="-1.701888600">
        <ele>460.000000</ele>
        <time>2014-03-29T14:38:43Z</time>
      </trkpt>
      <trkpt lat="37.679938400" lon="-1.701982500">
        <ele>459.000000</ele>
        <time>2014-03-29T14:38:44Z</time>
      </trkpt>
      <trkpt lat="37.679968300" lon="-1.702085500">
        <ele>458.000000</ele>
        <time>2014-03-29T14:38:45Z</time>
      </trkpt>
      <trkpt lat="37.679985800" lon="-1.702206300">
        <ele>457.000000</ele>
        <time>2014-03-29T14:38:46Z</time>
      </trkpt>
      <trkpt lat="37.680012400" lon="-1.702331600">
        <ele>456.000000</ele>
        <time>2014-03-29T14:38:47Z</time>
      </trkpt>
      <trkpt lat="37.680049200" lon="-1.702452500">
        <ele>455.000000</ele>
        <time>2014-03-29T14:38:48Z</time>
      </trkpt>
      <trkpt lat="37.680089100" lon="-1.702579000">
        <ele>455.000000</ele>
        <time>2014-03-29T14:38:49Z</time>
      </trkpt>
      <trkpt lat="37.680117800" lon="-1.702704300">
        <ele>454.000000</ele>
        <time>2014-03-29T14:38:50Z</time>
      </trkpt>
      <trkpt lat="37.680148900" lon="-1.702825000">
        <ele>453.000000</ele>
        <time>2014-03-29T14:38:51Z</time>
      </trkpt>
      <trkpt lat="37.680179500" lon="-1.702942000">
        <ele>453.000000</ele>
        <time>2014-03-29T14:38:52Z</time>
      </trkpt>
      <trkpt lat="37.680204800" lon="-1.703061900">
        <ele>452.000000</ele>
        <time>2014-03-29T14:38:53Z</time>
      </trkpt>
      <trkpt lat="37.680229000" lon="-1.703186500">
        <ele>452.000000</ele>
        <time>2014-03-29T14:38:54Z</time>
      </trkpt>
      <trkpt lat="37.680249600" lon="-1.703314200">
        <ele>451.000000</ele>
        <time>2014-03-29T14:38:55Z</time>
      </trkpt>
      <trkpt lat="37.680260700" lon="-1.703453800">
        <ele>451.000000</ele>
        <time>2014-03-29T14:38:56Z</time>
      </trkpt>
      <trkpt lat="37.680273000" lon="-1.703596800">
        <ele>450.000000</ele>
        <time>2014-03-29T14:38:57Z</time>
      </trkpt>
      <trkpt lat="37.680269900" lon="-1.703746000">
        <ele>450.000000</ele>
        <time>2014-03-29T14:38:58Z</time>
      </trkpt>
      <trkpt lat="37.680261900" lon="-1.703897100">
        <ele>450.000000</ele>
        <time>2014-03-29T14:38:59Z</time>
      </trkpt>
      <trkpt lat="37.680244900" lon="-1.704045600">
        <ele>450.000000</ele>
        <time>2014-03-29T14:39:00Z</time>
      </trkpt>
      <trkpt lat="37.680222700" lon="-1.704194100">
        <ele>449.000000</ele>
        <time>2014-03-29T14:39:01Z</time>
      </trkpt>
      <trkpt lat="37.680201200" lon="-1.704344500">
        <ele>449.000000</ele>
        <time>2014-03-29T14:39:02Z</time>
      </trkpt>
      <trkpt lat="37.680182600" lon="-1.704494200">
        <ele>449.000000</ele>
        <time>2014-03-29T14:39:03Z</time>
      </trkpt>
      <trkpt lat="37.680166200" lon="-1.704642600">
        <ele>449.000000</ele>
        <time>2014-03-29T14:39:04Z</time>
      </trkpt>
      <trkpt lat="37.680152000" lon="-1.704788600">
        <ele>449.000000</ele>
        <time>2014-03-29T14:39:05Z</time>
      </trkpt>
      <trkpt lat="37.680139800" lon="-1.704936800">
        <ele>448.000000</ele>
        <time>2014-03-29T14:39:06Z</time>
      </trkpt>
      <trkpt lat="37.680130200" lon="-1.705081600">
        <ele>448.000000</ele>
        <time>2014-03-29T14:39:07Z</time>
      </trkpt>
      <trkpt lat="37.680122800" lon="-1.705220400">
        <ele>448.000000</ele>
        <time>2014-03-29T14:39:08Z</time>
      </trkpt>
      <trkpt lat="37.680117400" lon="-1.705355500">
        <ele>448.000000</ele>
        <time>2014-03-29T14:39:09Z</time>
      </trkpt>
      <trkpt lat="37.680103600" lon="-1.705492000">
        <ele>447.000000</ele>
        <time>2014-03-29T14:39:10Z</time>
      </trkpt>
      <trkpt lat="37.680067900" lon="-1.705634600">
        <ele>447.000000</ele>
        <time>2014-03-29T14:39:11Z</time>
      </trkpt>
      <trkpt lat="37.680035000" lon="-1.705779800">
        <ele>447.000000</ele>
        <time>2014-03-29T14:39:12Z</time>
      </trkpt>
      <trkpt lat="37.680001400" lon="-1.705921700">
        <ele>447.000000</ele>
        <time>2014-03-29T14:39:13Z</time>
      </trkpt>
      <trkpt lat="37.679964700" lon="-1.706063400">
        <ele>447.000000</ele>
        <time>2014-03-29T14:39:14Z</time>
      </trkpt>
      <trkpt lat="37.679925000" lon="-1.706202300">
        <ele>447.000000</ele>
        <time>2014-03-29T14:39:15Z</time>
      </trkpt>
      <trkpt lat="37.679883500" lon="-1.706339000">
        <ele>447.000000</ele>
        <time>2014-03-29T14:39:16Z</time>
      </trkpt>
      <trkpt lat="37.679847200" lon="-1.706471000">
        <ele>447.000000</ele>
        <time>2014-03-29T14:39:17Z</time>
      </trkpt>
      <trkpt lat="37.679810000" lon="-1.706602000">
        <ele>447.000000</ele>
        <time>2014-03-29T14:39:18Z</time>
      </trkpt>
      <trkpt lat="37.679769000" lon="-1.706730400">
        <ele>447.000000</ele>
        <time>2014-03-29T14:39:19Z</time>
      </trkpt>
      <trkpt lat="37.679725500" lon="-1.706854700">
        <ele>447.000000</ele>
        <time>2014-03-29T14:39:20Z</time>
      </trkpt>
      <trkpt lat="37.679684400" lon="-1.706979200">
        <ele>447.000000</ele>
        <time>2014-03-29T14:39:21Z</time>
      </trkpt>
      <trkpt lat="37.679640200" lon="-1.707105300">
        <ele>447.000000</ele>
        <time>2014-03-29T14:39:22Z</time>
      </trkpt>
      <trkpt lat="37.679598600" lon="-1.707230300">
        <ele>447.000000</ele>
        <time>2014-03-29T14:39:23Z</time>
      </trkpt>
      <trkpt lat="37.679561600" lon="-1.707358200">
        <ele>447.000000</ele>
        <time>2014-03-29T14:39:24Z</time>
      </trkpt>
      <trkpt lat="37.679529300" lon="-1.707488000">
        <ele>448.000000</ele>
        <time>2014-03-29T14:39:25Z</time>
      </trkpt>
      <trkpt lat="37.679493300" lon="-1.707624300">
        <ele>448.000000</ele>
        <time>2014-03-29T14:39:26Z</time>
      </trkpt>
      <trkpt lat="37.679475300" lon="-1.707758000">
        <ele>448.000000</ele>
        <time>2014-03-29T14:39:27Z</time>
      </trkpt>
      <trkpt lat="37.679454100" lon="-1.707888300">
        <ele>449.000000</ele>
        <time>2014-03-29T14:39:28Z</time>
      </trkpt>
      <trkpt lat="37.679439300" lon="-1.708015600">
        <ele>449.000000</ele>
        <time>2014-03-29T14:39:29Z</time>
      </trkpt>
      <trkpt lat="37.679455500" lon="-1.708131300">
        <ele>449.000000</ele>
        <time>2014-03-29T14:39:30Z</time>
      </trkpt>
      <trkpt lat="37.679490700" lon="-1.708241500">
        <ele>450.000000</ele>
        <time>2014-03-29T14:39:31Z</time>
      </trkpt>
      <trkpt lat="37.679521300" lon="-1.708360900">
        <ele>450.000000</ele>
        <time>2014-03-29T14:39:32Z</time>
      </trkpt>
      <trkpt lat="37.679550800" lon="-1.708478000">
        <ele>450.000000</ele>
        <time>2014-03-29T14:39:33Z</time>
      </trkpt>
      <trkpt lat="37.679610700" lon="-1.708591900">
        <ele>451.000000</ele>
        <time>2014-03-29T14:39:34Z</time>
      </trkpt>
      <trkpt lat="37.679650200" lon="-1.708721000">
        <ele>451.000000</ele>
        <time>2014-03-29T14:39:35Z</time>
      </trkpt>
      <trkpt lat="37.679683000" lon="-1.708858600">
        <ele>451.000000</ele>
        <time>2014-03-29T14:39:36Z</time>
      </trkpt>
      <trkpt lat="37.679727400" lon="-1.708994700">
        <ele>452.000000</ele>
        <time>2014-03-29T14:39:37Z</time>
      </trkpt>
      <trkpt lat="37.679764700" lon="-1.709126000">
        <ele>452.000000</ele>
        <time>2014-03-29T14:39:38Z</time>
      </trkpt>
      <trkpt lat="37.679809400" lon="-1.709249000">
        <ele>452.000000</ele>
        <time>2014-03-29T14:39:39Z</time>
      </trkpt>
      <trkpt lat="37.679864800" lon="-1.709375000">
        <ele>452.000000</ele>
        <time>2014-03-29T14:39:40Z</time>
      </trkpt>
      <trkpt lat="37.679911900" lon="-1.709509800">
        <ele>452.000000</ele>
        <time>2014-03-29T14:39:41Z</time>
      </trkpt>
      <trkpt lat="37.679944200" lon="-1.709653900">
        <ele>452.000000</ele>
        <time>2014-03-29T14:39:42Z</time>
      </trkpt>
      <trkpt lat="37.679962700" lon="-1.709794200">
        <ele>452.000000</ele>
        <time>2014-03-29T14:39:43Z</time>
      </trkpt>
      <trkpt lat="37.679976900" lon="-1.709934000">
        <ele>452.000000</ele>
        <time>2014-03-29T14:39:44Z</time>
      </trkpt>
      <trkpt lat="37.680004000" lon="-1.710074500">
        <ele>452.000000</ele>
        <time>2014-03-29T14:39:45Z</time>
      </trkpt>
      <trkpt lat="37.680038900" lon="-1.710220400">
        <ele>452.000000</ele>
        <time>2014-03-29T14:39:46Z</time>
      </trkpt>
      <trkpt lat="37.680083900" lon="-1.710364000">
        <ele>452.000000</ele>
        <time>2014-03-29T14:39:47Z</time>
      </trkpt>
      <trkpt lat="37.680149000" lon="-1.710499800">
        <ele>452.000000</ele>
        <time>2014-03-29T14:39:48Z</time>
      </trkpt>
      <trkpt lat="37.680209500" lon="-1.710634900">
        <ele>452.000000</ele>
        <time>2014-03-29T14:39:49Z</time>
      </trkpt>
      <trkpt lat="37.680282800" lon="-1.710762700">
        <ele>451.000000</ele>
        <time>2014-03-29T14:39:50Z</time>
      </trkpt>
      <trkpt lat="37.680355000" lon="-1.710891400">
        <ele>451.000000</ele>
        <time>2014-03-29T14:39:51Z</time>
      </trkpt>
      <trkpt lat="37.680416000" lon="-1.711029400">
        <ele>451.000000</ele>
        <time>2014-03-29T14:39:52Z</time>
      </trkpt>
      <trkpt lat="37.680474900" lon="-1.711166400">
        <ele>450.000000</ele>
        <time>2014-03-29T14:39:53Z</time>
      </trkpt>
      <trkpt lat="37.680526200" lon="-1.711313700">
        <ele>450.000000</ele>
        <time>2014-03-29T14:39:54Z</time>
      </trkpt>
      <trkpt lat="37.680555600" lon="-1.711470300">
        <ele>450.000000</ele>
        <time>2014-03-29T14:39:55Z</time>
      </trkpt>
      <trkpt lat="37.680572100" lon="-1.711625300">
        <ele>450.000000</ele>
        <time>2014-03-29T14:39:56Z</time>
      </trkpt>
      <trkpt lat="37.680588500" lon="-1.711767800">
        <ele>449.000000</ele>
        <time>2014-03-29T14:39:57Z</time>
      </trkpt>
      <trkpt lat="37.680576400" lon="-1.711919700">
        <ele>449.000000</ele>
        <time>2014-03-29T14:39:58Z</time>
      </trkpt>
      <trkpt lat="37.680561500" lon="-1.712066000">
        <ele>449.000000</ele>
        <time>2014-03-29T14:39:59Z</time>
      </trkpt>
      <trkpt lat="37.680549600" lon="-1.712205800">
        <ele>449.000000</ele>
        <time>2014-03-29T14:40:00Z</time>
      </trkpt>
      <trkpt lat="37.680533800" lon="-1.712338500">
        <ele>449.000000</ele>
        <time>2014-03-29T14:40:01Z</time>
      </trkpt>
      <trkpt lat="37.680503200" lon="-1.712478000">
        <ele>448.000000</ele>
        <time>2014-03-29T14:40:02Z</time>
      </trkpt>
      <trkpt lat="37.680478700" lon="-1.712608100">
        <ele>448.000000</ele>
        <time>2014-03-29T14:40:03Z</time>
      </trkpt>
      <trkpt lat="37.680447000" lon="-1.712733500">
        <ele>448.000000</ele>
        <time>2014-03-29T14:40:04Z</time>
      </trkpt>
      <trkpt lat="37.680417500" lon="-1.712856400">
        <ele>448.000000</ele>
        <time>2014-03-29T14:40:05Z</time>
      </trkpt>
      <trkpt lat="37.680383200" lon="-1.712978400">
        <ele>449.000000</ele>
        <time>2014-03-29T14:40:06Z</time>
      </trkpt>
      <trkpt lat="37.680341600" lon="-1.713103400">
        <ele>449.000000</ele>
        <time>2014-03-29T14:40:07Z</time>
      </trkpt>
      <trkpt lat="37.680298700" lon="-1.713227300">
        <ele>449.000000</ele>
        <time>2014-03-29T14:40:08Z</time>
      </trkpt>
      <trkpt lat="37.680257100" lon="-1.713347500">
        <ele>449.000000</ele>
        <time>2014-03-29T14:40:09Z</time>
      </trkpt>
      <trkpt lat="37.680216100" lon="-1.713462000">
        <ele>450.000000</ele>
        <time>2014-03-29T14:40:10Z</time>
      </trkpt>
      <trkpt lat="37.680177800" lon="-1.713575500">
        <ele>450.000000</ele>
        <time>2014-03-29T14:40:11Z</time>
      </trkpt>
      <trkpt lat="37.680135900" lon="-1.713690000">
        <ele>450.000000</ele>
        <time>2014-03-29T14:40:12Z</time>
      </trkpt>
      <trkpt lat="37.680097400" lon="-1.713805300">
        <ele>450.000000</ele>
        <time>2014-03-29T14:40:13Z</time>
      </trkpt>
      <trkpt lat="37.680063700" lon="-1.713921500">
        <ele>450.000000</ele>
        <time>2014-03-29T14:40:14Z</time>
      </trkpt>
      <trkpt lat="37.680032600" lon="-1.714040600">
        <ele>450.000000</ele>
        <time>2014-03-29T14:40:15Z</time>
      </trkpt>
      <trkpt lat="37.680000500" lon="-1.714162800">
        <ele>450.000000</ele>
        <time>2014-03-29T14:40:16Z</time>
      </trkpt>
      <trkpt lat="37.679962000" lon="-1.714287700">
        <ele>450.000000</ele>
        <time>2014-03-29T14:40:17Z</time>
      </trkpt>
      <trkpt lat="37.679920000" lon="-1.714414400">
        <ele>451.000000</ele>
        <time>2014-03-29T14:40:18Z</time>
      </trkpt>
      <trkpt lat="37.679879200" lon="-1.714538700">
        <ele>451.000000</ele>
        <time>2014-03-29T14:40:19Z</time>
      </trkpt>
      <trkpt lat="37.679835800" lon="-1.714663100">
        <ele>450.000000</ele>
        <time>2014-03-29T14:40:20Z</time>
      </trkpt>
      <trkpt lat="37.679796200" lon="-1.714789600">
        <ele>450.000000</ele>
        <time>2014-03-29T14:40:21Z</time>
      </trkpt>
      <trkpt lat="37.679759700" lon="-1.714917300">
        <ele>450.000000</ele>
        <time>2014-03-29T14:40:22Z</time>
      </trkpt>
      <trkpt lat="37.679718700" lon="-1.715042200">
        <ele>450.000000</ele>
        <time>2014-03-29T14:40:23Z</time>
      </trkpt>
      <trkpt lat="37.679681200" lon="-1.715172300">
        <ele>450.000000</ele>
        <time>2014-03-29T14:40:24Z</time>
      </trkpt>
      <trkpt lat="37.679644500" lon="-1.715304800">
        <ele>450.000000</ele>
        <time>2014-03-29T14:40:25Z</time>
      </trkpt>
      <trkpt lat="37.679601600" lon="-1.715437600">
        <ele>450.000000</ele>
        <time>2014-03-29T14:40:26Z</time>
      </trkpt>
      <trkpt lat="37.679560000" lon="-1.715567400">
        <ele>449.000000</ele>
        <time>2014-03-29T14:40:27Z</time>
      </trkpt>
      <trkpt lat="37.679524000" lon="-1.715697400">
        <ele>449.000000</ele>
        <time>2014-03-29T14:40:28Z</time>
      </trkpt>
      <trkpt lat="37.679491700" lon="-1.715830100">
        <ele>449.000000</ele>
        <time>2014-03-29T14:40:29Z</time>
      </trkpt>
      <trkpt lat="37.679455700" lon="-1.715966600">
        <ele>449.000000</ele>
        <time>2014-03-29T14:40:30Z</time>
      </trkpt>
      <trkpt lat="37.679422600" lon="-1.716105700">
        <ele>449.000000</ele>
        <time>2014-03-29T14:40:31Z</time>
      </trkpt>
      <trkpt lat="37.679389700" lon="-1.716249300">
        <ele>449.000000</ele>
        <time>2014-03-29T14:40:32Z</time>
      </trkpt>
      <trkpt lat="37.679364000" lon="-1.716394700">
        <ele>449.000000</ele>
        <time>2014-03-29T14:40:33Z</time>
      </trkpt>
      <trkpt lat="37.679345700" lon="-1.716544400">
        <ele>448.000000</ele>
        <time>2014-03-29T14:40:34Z</time>
      </trkpt>
      <trkpt lat="37.679337800" lon="-1.716692700">
        <ele>448.000000</ele>
        <time>2014-03-29T14:40:35Z</time>
      </trkpt>
      <trkpt lat="37.679328700" lon="-1.716841600">
        <ele>448.000000</ele>
        <time>2014-03-29T14:40:36Z</time>
      </trkpt>
      <trkpt lat="37.679323800" lon="-1.716986300">
        <ele>448.000000</ele>
        <time>2014-03-29T14:40:37Z</time>
      </trkpt>
      <trkpt lat="37.679313200" lon="-1.717131500">
        <ele>448.000000</ele>
        <time>2014-03-29T14:40:38Z</time>
      </trkpt>
      <trkpt lat="37.679314300" lon="-1.717269200">
        <ele>448.000000</ele>
        <time>2014-03-29T14:40:39Z</time>
      </trkpt>
      <trkpt lat="37.679331200" lon="-1.717399000">
        <ele>448.000000</ele>
        <time>2014-03-29T14:40:40Z</time>
      </trkpt>
      <trkpt lat="37.679352800" lon="-1.717530100">
        <ele>448.000000</ele>
        <time>2014-03-29T14:40:41Z</time>
      </trkpt>
      <trkpt lat="37.679371400" lon="-1.717659300">
        <ele>448.000000</ele>
        <time>2014-03-29T14:40:42Z</time>
      </trkpt>
      <trkpt lat="37.679390100" lon="-1.717788000">
        <ele>448.000000</ele>
        <time>2014-03-29T14:40:43Z</time>
      </trkpt>
      <trkpt lat="37.679409200" lon="-1.717920200">
        <ele>448.000000</ele>
        <time>2014-03-29T14:40:44Z</time>
      </trkpt>
      <trkpt lat="37.679425200" lon="-1.718058200">
        <ele>448.000000</ele>
        <time>2014-03-29T14:40:45Z</time>
      </trkpt>
      <trkpt lat="37.679449400" lon="-1.718197400">
        <ele>448.000000</ele>
        <time>2014-03-29T14:40:46Z</time>
      </trkpt>
      <trkpt lat="37.679474900" lon="-1.718342400">
        <ele>447.000000</ele>
        <time>2014-03-29T14:40:47Z</time>
      </trkpt>
      <trkpt lat="37.679501700" lon="-1.718494600">
        <ele>447.000000</ele>
        <time>2014-03-29T14:40:48Z</time>
      </trkpt>
      <trkpt lat="37.679524900" lon="-1.718655600">
        <ele>447.000000</ele>
        <time>2014-03-29T14:40:49Z</time>
      </trkpt>
      <trkpt lat="37.679547300" lon="-1.718818200">
        <ele>447.000000</ele>
        <time>2014-03-29T14:40:50Z</time>
      </trkpt>
      <trkpt lat="37.679574300" lon="-1.718977500">
        <ele>447.000000</ele>
        <time>2014-03-29T14:40:51Z</time>
      </trkpt>
      <trkpt lat="37.679595300" lon="-1.719136300">
        <ele>447.000000</ele>
        <time>2014-03-29T14:40:52Z</time>
      </trkpt>
      <trkpt lat="37.679619800" lon="-1.719296700">
        <ele>447.000000</ele>
        <time>2014-03-29T14:40:53Z</time>
      </trkpt>
      <trkpt lat="37.679645000" lon="-1.719460600">
        <ele>447.000000</ele>
        <time>2014-03-29T14:40:54Z</time>
      </trkpt>
      <trkpt lat="37.679673800" lon="-1.719627600">
        <ele>447.000000</ele>
        <time>2014-03-29T14:40:55Z</time>
      </trkpt>
      <trkpt lat="37.679715500" lon="-1.719786900">
        <ele>447.000000</ele>
        <time>2014-03-29T14:40:56Z</time>
      </trkpt>
      <trkpt lat="37.679760500" lon="-1.719945800">
        <ele>447.000000</ele>
        <time>2014-03-29T14:40:57Z</time>
      </trkpt>
      <trkpt lat="37.679810700" lon="-1.720100900">
        <ele>447.000000</ele>
        <time>2014-03-29T14:40:58Z</time>
      </trkpt>
      <trkpt lat="37.679864300" lon="-1.720256500">
        <ele>447.000000</ele>
        <time>2014-03-29T14:40:59Z</time>
      </trkpt>
      <trkpt lat="37.679910000" lon="-1.720413400">
        <ele>447.000000</ele>
        <time>2014-03-29T14:41:00Z</time>
      </trkpt>
      <trkpt lat="37.679956600" lon="-1.720567500">
        <ele>446.000000</ele>
        <time>2014-03-29T14:41:01Z</time>
      </trkpt>
      <trkpt lat="37.680007500" lon="-1.720719500">
        <ele>446.000000</ele>
        <time>2014-03-29T14:41:02Z</time>
      </trkpt>
      <trkpt lat="37.680069500" lon="-1.720868400">
        <ele>446.000000</ele>
        <time>2014-03-29T14:41:03Z</time>
      </trkpt>
      <trkpt lat="37.680129800" lon="-1.721020400">
        <ele>446.000000</ele>
        <time>2014-03-29T14:41:04Z</time>
      </trkpt>
      <trkpt lat="37.680185000" lon="-1.721179800">
        <ele>446.000000</ele>
        <time>2014-03-29T14:41:05Z</time>
      </trkpt>
      <trkpt lat="37.680232800" lon="-1.721342000">
        <ele>446.000000</ele>
        <time>2014-03-29T14:41:06Z</time>
      </trkpt>
      <trkpt lat="37.680273700" lon="-1.721506700">
        <ele>446.000000</ele>
        <time>2014-03-29T14:41:07Z</time>
      </trkpt>
      <trkpt lat="37.680314200" lon="-1.721675100">
        <ele>446.000000</ele>
        <time>2014-03-29T14:41:08Z</time>
      </trkpt>
      <trkpt lat="37.680342600" lon="-1.721850800">
        <ele>446.000000</ele>
        <time>2014-03-29T14:41:09Z</time>
      </trkpt>
      <trkpt lat="37.680365600" lon="-1.722026000">
        <ele>446.000000</ele>
        <time>2014-03-29T14:41:10Z</time>
      </trkpt>
      <trkpt lat="37.680378900" lon="-1.722198000">
        <ele>445.000000</ele>
        <time>2014-03-29T14:41:11Z</time>
      </trkpt>
      <trkpt lat="37.680382200" lon="-1.722376300">
        <ele>445.000000</ele>
        <time>2014-03-29T14:41:12Z</time>
      </trkpt>
      <trkpt lat="37.680377900" lon="-1.722556900">
        <ele>445.000000</ele>
        <time>2014-03-29T14:41:13Z</time>
      </trkpt>
      <trkpt lat="37.680390100" lon="-1.722731500">
        <ele>445.000000</ele>
        <time>2014-03-29T14:41:14Z</time>
      </trkpt>
      <trkpt lat="37.680408500" lon="-1.722902900">
        <ele>444.000000</ele>
        <time>2014-03-29T14:41:15Z</time>
      </trkpt>
      <trkpt lat="37.680432900" lon="-1.723071100">
        <ele>444.000000</ele>
        <time>2014-03-29T14:41:16Z</time>
      </trkpt>
      <trkpt lat="37.680467600" lon="-1.723232800">
        <ele>444.000000</ele>
        <time>2014-03-29T14:41:17Z</time>
      </trkpt>
      <trkpt lat="37.680499600" lon="-1.723382400">
        <ele>444.000000</ele>
        <time>2014-03-29T14:41:18Z</time>
      </trkpt>
      <trkpt lat="37.680556500" lon="-1.723513600">
        <ele>443.000000</ele>
        <time>2014-03-29T14:41:19Z</time>
      </trkpt>
      <trkpt lat="37.680618700" lon="-1.723635800">
        <ele>443.000000</ele>
        <time>2014-03-29T14:41:20Z</time>
      </trkpt>
      <trkpt lat="37.680684700" lon="-1.723757900">
        <ele>443.000000</ele>
        <time>2014-03-29T14:41:21Z</time>
      </trkpt>
      <trkpt lat="37.680757900" lon="-1.723874800">
        <ele>443.000000</ele>
        <time>2014-03-29T14:41:22Z</time>
      </trkpt>
      <trkpt lat="37.680815800" lon="-1.723999100">
        <ele>443.000000</ele>
        <time>2014-03-29T14:41:23Z</time>
      </trkpt>
      <trkpt lat="37.680880200" lon="-1.724121500">
        <ele>443.000000</ele>
        <time>2014-03-29T14:41:24Z</time>
      </trkpt>
      <trkpt lat="37.680943200" lon="-1.724248000">
        <ele>443.000000</ele>
        <time>2014-03-29T14:41:25Z</time>
      </trkpt>
      <trkpt lat="37.681005500" lon="-1.724372000">
        <ele>443.000000</ele>
        <time>2014-03-29T14:41:26Z</time>
      </trkpt>
      <trkpt lat="37.681063000" lon="-1.724492300">
        <ele>443.000000</ele>
        <time>2014-03-29T14:41:27Z</time>
      </trkpt>
      <trkpt lat="37.681116600" lon="-1.724616900">
        <ele>443.000000</ele>
        <time>2014-03-29T14:41:28Z</time>
      </trkpt>
      <trkpt lat="37.681171300" lon="-1.724740400">
        <ele>443.000000</ele>
        <time>2014-03-29T14:41:29Z</time>
      </trkpt>
      <trkpt lat="37.681227100" lon="-1.724861800">
        <ele>443.000000</ele>
        <time>2014-03-29T14:41:30Z</time>
      </trkpt>
      <trkpt lat="37.681278100" lon="-1.724979500">
        <ele>443.000000</ele>
        <time>2014-03-29T14:41:31Z</time>
      </trkpt>
      <trkpt lat="37.681335200" lon="-1.725089900">
        <ele>444.000000</ele>
        <time>2014-03-29T14:41:32Z</time>
      </trkpt>
      <trkpt lat="37.681375300" lon="-1.725201600">
        <ele>444.000000</ele>
        <time>2014-03-29T14:41:33Z</time>
      </trkpt>
      <trkpt lat="37.681430500" lon="-1.725306500">
        <ele>444.000000</ele>
        <time>2014-03-29T14:41:34Z</time>
      </trkpt>
      <trkpt lat="37.681496000" lon="-1.725412100">
        <ele>444.000000</ele>
        <time>2014-03-29T14:41:35Z</time>
      </trkpt>
      <trkpt lat="37.681564100" lon="-1.725520900">
        <ele>445.000000</ele>
        <time>2014-03-29T14:41:36Z</time>
      </trkpt>
      <trkpt lat="37.681625300" lon="-1.725631200">
        <ele>445.000000</ele>
        <time>2014-03-29T14:41:37Z</time>
      </trkpt>
      <trkpt lat="37.681688400" lon="-1.725741100">
        <ele>445.000000</ele>
        <time>2014-03-29T14:41:38Z</time>
      </trkpt>
      <trkpt lat="37.681757900" lon="-1.725849500">
        <ele>446.000000</ele>
        <time>2014-03-29T14:41:39Z</time>
      </trkpt>
      <trkpt lat="37.681839200" lon="-1.725949800">
        <ele>446.000000</ele>
        <time>2014-03-29T14:41:40Z</time>
      </trkpt>
      <trkpt lat="37.681911500" lon="-1.726054800">
        <ele>446.000000</ele>
        <time>2014-03-29T14:41:41Z</time>
      </trkpt>
      <trkpt lat="37.681970000" lon="-1.726162000">
        <ele>447.000000</ele>
        <time>2014-03-29T14:41:42Z</time>
      </trkpt>
      <trkpt lat="37.682025700" lon="-1.726267700">
        <ele>447.000000</ele>
        <time>2014-03-29T14:41:43Z</time>
      </trkpt>
      <trkpt lat="37.682079500" lon="-1.726375900">
        <ele>447.000000</ele>
        <time>2014-03-29T14:41:44Z</time>
      </trkpt>
      <trkpt lat="37.682126900" lon="-1.726482000">
        <ele>448.000000</ele>
        <time>2014-03-29T14:41:45Z</time>
      </trkpt>
      <trkpt lat="37.682166800" lon="-1.726591000">
        <ele>448.000000</ele>
        <time>2014-03-29T14:41:46Z</time>
      </trkpt>
      <trkpt lat="37.682198200" lon="-1.726702700">
        <ele>449.000000</ele>
        <time>2014-03-29T14:41:47Z</time>
      </trkpt>
      <trkpt lat="37.682224600" lon="-1.726812800">
        <ele>449.000000</ele>
        <time>2014-03-29T14:41:48Z</time>
      </trkpt>
      <trkpt lat="37.682245600" lon="-1.726922900">
        <ele>449.000000</ele>
        <time>2014-03-29T14:41:49Z</time>
      </trkpt>
      <trkpt lat="37.682262100" lon="-1.727036900">
        <ele>450.000000</ele>
        <time>2014-03-29T14:41:50Z</time>
      </trkpt>
      <trkpt lat="37.682271000" lon="-1.727152800">
        <ele>450.000000</ele>
        <time>2014-03-29T14:41:51Z</time>
      </trkpt>
      <trkpt lat="37.682272500" lon="-1.727268600">
        <ele>451.000000</ele>
        <time>2014-03-29T14:41:52Z</time>
      </trkpt>
      <trkpt lat="37.682277200" lon="-1.727381300">
        <ele>451.000000</ele>
        <time>2014-03-29T14:41:53Z</time>
      </trkpt>
      <trkpt lat="37.682280700" lon="-1.727489800">
        <ele>452.000000</ele>
        <time>2014-03-29T14:41:54Z</time>
      </trkpt>
      <trkpt lat="37.682282100" lon="-1.727593100">
        <ele>452.000000</ele>
        <time>2014-03-29T14:41:55Z</time>
      </trkpt>
      <trkpt lat="37.682284400" lon="-1.727694000">
        <ele>453.000000</ele>
        <time>2014-03-29T14:41:56Z</time>
      </trkpt>
      <trkpt lat="37.682280700" lon="-1.727791800">
        <ele>453.000000</ele>
        <time>2014-03-29T14:41:57Z</time>
      </trkpt>
      <trkpt lat="37.682277400" lon="-1.727890600">
        <ele>453.000000</ele>
        <time>2014-03-29T14:41:58Z</time>
      </trkpt>
      <trkpt lat="37.682279300" lon="-1.727990700">
        <ele>454.000000</ele>
        <time>2014-03-29T14:41:59Z</time>
      </trkpt>
      <trkpt lat="37.682285100" lon="-1.728089200">
        <ele>454.000000</ele>
        <time>2014-03-29T14:42:00Z</time>
      </trkpt>
      <trkpt lat="37.682297200" lon="-1.728187000">
        <ele>455.000000</ele>
        <time>2014-03-29T14:42:01Z</time>
      </trkpt>
      <trkpt lat="37.682306800" lon="-1.728287600">
        <ele>455.000000</ele>
        <time>2014-03-29T14:42:02Z</time>
      </trkpt>
      <trkpt lat="37.682322600" lon="-1.728384600">
        <ele>455.000000</ele>
        <time>2014-03-29T14:42:03Z</time>
      </trkpt>
      <trkpt lat="37.682349400" lon="-1.728474900">
        <ele>456.000000</ele>
        <time>2014-03-29T14:42:04Z</time>
      </trkpt>
      <trkpt lat="37.682386500" lon="-1.728560900">
        <ele>456.000000</ele>
        <time>2014-03-29T14:42:05Z</time>
      </trkpt>
      <trkpt lat="37.682425500" lon="-1.728643100">
        <ele>457.000000</ele>
        <time>2014-03-29T14:42:06Z</time>
      </trkpt>
      <trkpt lat="37.682466400" lon="-1.728724400">
        <ele>457.000000</ele>
        <time>2014-03-29T14:42:07Z</time>
      </trkpt>
      <trkpt lat="37.682505600" lon="-1.728806400">
        <ele>457.000000</ele>
        <time>2014-03-29T14:42:08Z</time>
      </trkpt>
      <trkpt lat="37.682543300" lon="-1.728890800">
        <ele>458.000000</ele>
        <time>2014-03-29T14:42:09Z</time>
      </trkpt>
      <trkpt lat="37.682573700" lon="-1.728977300">
        <ele>458.000000</ele>
        <time>2014-03-29T14:42:10Z</time>
      </trkpt>
      <trkpt lat="37.682609300" lon="-1.729060900">
        <ele>458.000000</ele>
        <time>2014-03-29T14:42:11Z</time>
      </trkpt>
      <trkpt lat="37.682650300" lon="-1.729140500">
        <ele>458.000000</ele>
        <time>2014-03-29T14:42:12Z</time>
      </trkpt>
      <trkpt lat="37.682690900" lon="-1.729218700">
        <ele>459.000000</ele>
        <time>2014-03-29T14:42:13Z</time>
      </trkpt>
      <trkpt lat="37.682728900" lon="-1.729302900">
        <ele>459.000000</ele>
        <time>2014-03-29T14:42:14Z</time>
      </trkpt>
      <trkpt lat="37.682768700" lon="-1.729393300">
        <ele>459.000000</ele>
        <time>2014-03-29T14:42:15Z</time>
      </trkpt>
      <trkpt lat="37.682809900" lon="-1.729486800">
        <ele>459.000000</ele>
        <time>2014-03-29T14:42:16Z</time>
      </trkpt>
      <trkpt lat="37.682849400" lon="-1.729581900">
        <ele>460.000000</ele>
        <time>2014-03-29T14:42:17Z</time>
      </trkpt>
      <trkpt lat="37.682887300" lon="-1.729678900">
        <ele>460.000000</ele>
        <time>2014-03-29T14:42:18Z</time>
      </trkpt>
      <trkpt lat="37.682924900" lon="-1.729774800">
        <ele>460.000000</ele>
        <time>2014-03-29T14:42:19Z</time>
      </trkpt>
      <trkpt lat="37.682960100" lon="-1.729872300">
        <ele>460.000000</ele>
        <time>2014-03-29T14:42:20Z</time>
      </trkpt>
      <trkpt lat="37.682996200" lon="-1.729972400">
        <ele>460.000000</ele>
        <time>2014-03-29T14:42:21Z</time>
      </trkpt>
      <trkpt lat="37.683028700" lon="-1.730069200">
        <ele>461.000000</ele>
        <time>2014-03-29T14:42:22Z</time>
      </trkpt>
      <trkpt lat="37.683062400" lon="-1.730167100">
        <ele>461.000000</ele>
        <time>2014-03-29T14:42:23Z</time>
      </trkpt>
      <trkpt lat="37.683096800" lon="-1.730265600">
        <ele>461.000000</ele>
        <time>2014-03-29T14:42:24Z</time>
      </trkpt>
      <trkpt lat="37.683129500" lon="-1.730366800">
        <ele>461.000000</ele>
        <time>2014-03-29T14:42:25Z</time>
      </trkpt>
      <trkpt lat="37.683159500" lon="-1.730469600">
        <ele>461.000000</ele>
        <time>2014-03-29T14:42:26Z</time>
      </trkpt>
      <trkpt lat="37.683186100" lon="-1.730571500">
        <ele>461.000000</ele>
        <time>2014-03-29T14:42:27Z</time>
      </trkpt>
      <trkpt lat="37.683210100" lon="-1.730673100">
        <ele>461.000000</ele>
        <time>2014-03-29T14:42:28Z</time>
      </trkpt>
      <trkpt lat="37.683235100" lon="-1.730772600">
        <ele>462.000000</ele>
        <time>2014-03-29T14:42:29Z</time>
      </trkpt>
      <trkpt lat="37.683261800" lon="-1.730872800">
        <ele>462.000000</ele>
        <time>2014-03-29T14:42:30Z</time>
      </trkpt>
      <trkpt lat="37.683290000" lon="-1.730970900">
        <ele>462.000000</ele>
        <time>2014-03-29T14:42:31Z</time>
      </trkpt>
      <trkpt lat="37.683315000" lon="-1.731070100">
        <ele>462.000000</ele>
        <time>2014-03-29T14:42:32Z</time>
      </trkpt>
      <trkpt lat="37.683334500" lon="-1.731171800">
        <ele>462.000000</ele>
        <time>2014-03-29T14:42:33Z</time>
      </trkpt>
      <trkpt lat="37.683351200" lon="-1.731273100">
        <ele>463.000000</ele>
        <time>2014-03-29T14:42:34Z</time>
      </trkpt>
      <trkpt lat="37.683370500" lon="-1.731374500">
        <ele>463.000000</ele>
        <time>2014-03-29T14:42:35Z</time>
      </trkpt>
      <trkpt lat="37.683389300" lon="-1.731477700">
        <ele>463.000000</ele>
        <time>2014-03-29T14:42:36Z</time>
      </trkpt>
      <trkpt lat="37.683400600" lon="-1.731585300">
        <ele>463.000000</ele>
        <time>2014-03-29T14:42:37Z</time>
      </trkpt>
      <trkpt lat="37.683415500" lon="-1.731694000">
        <ele>463.000000</ele>
        <time>2014-03-29T14:42:38Z</time>
      </trkpt>
      <trkpt lat="37.683432300" lon="-1.731807700">
        <ele>463.000000</ele>
        <time>2014-03-29T14:42:39Z</time>
      </trkpt>
      <trkpt lat="37.683443600" lon="-1.731924300">
        <ele>464.000000</ele>
        <time>2014-03-29T14:42:40Z</time>
      </trkpt>
      <trkpt lat="37.683449800" lon="-1.732038300">
        <ele>464.000000</ele>
        <time>2014-03-29T14:42:41Z</time>
      </trkpt>
      <trkpt lat="37.683453800" lon="-1.732154500">
        <ele>464.000000</ele>
        <time>2014-03-29T14:42:42Z</time>
      </trkpt>
      <trkpt lat="37.683454200" lon="-1.732272100">
        <ele>464.000000</ele>
        <time>2014-03-29T14:42:43Z</time>
      </trkpt>
      <trkpt lat="37.683449300" lon="-1.732394400">
        <ele>464.000000</ele>
        <time>2014-03-29T14:42:44Z</time>
      </trkpt>
      <trkpt lat="37.683440200" lon="-1.732520700">
        <ele>464.000000</ele>
        <time>2014-03-29T14:42:45Z</time>
      </trkpt>
      <trkpt lat="37.683435300" lon="-1.732649700">
        <ele>464.000000</ele>
        <time>2014-03-29T14:42:46Z</time>
      </trkpt>
      <trkpt lat="37.683432200" lon="-1.732781600">
        <ele>464.000000</ele>
        <time>2014-03-29T14:42:47Z</time>
      </trkpt>
      <trkpt lat="37.683427800" lon="-1.732915100">
        <ele>464.000000</ele>
        <time>2014-03-29T14:42:48Z</time>
      </trkpt>
      <trkpt lat="37.683422100" lon="-1.733049200">
        <ele>464.000000</ele>
        <time>2014-03-29T14:42:49Z</time>
      </trkpt>
      <trkpt lat="37.683415400" lon="-1.733185700">
        <ele>464.000000</ele>
        <time>2014-03-29T14:42:50Z</time>
      </trkpt>
      <trkpt lat="37.683409500" lon="-1.733326100">
        <ele>464.000000</ele>
        <time>2014-03-29T14:42:51Z</time>
      </trkpt>
      <trkpt lat="37.683403600" lon="-1.733465600">
        <ele>464.000000</ele>
        <time>2014-03-29T14:42:52Z</time>
      </trkpt>
      <trkpt lat="37.683400200" lon="-1.733609100">
        <ele>464.000000</ele>
        <time>2014-03-29T14:42:53Z</time>
      </trkpt>
      <trkpt lat="37.683402100" lon="-1.733754600">
        <ele>464.000000</ele>
        <time>2014-03-29T14:42:54Z</time>
      </trkpt>
      <trkpt lat="37.683413200" lon="-1.733897900">
        <ele>464.000000</ele>
        <time>2014-03-29T14:42:55Z</time>
      </trkpt>
      <trkpt lat="37.683432900" lon="-1.734045600">
        <ele>463.000000</ele>
        <time>2014-03-29T14:42:56Z</time>
      </trkpt>
      <trkpt lat="37.683460100" lon="-1.734191200">
        <ele>463.000000</ele>
        <time>2014-03-29T14:42:57Z</time>
      </trkpt>
      <trkpt lat="37.683486400" lon="-1.734339200">
        <ele>463.000000</ele>
        <time>2014-03-29T14:42:58Z</time>
      </trkpt>
      <trkpt lat="37.683522100" lon="-1.734480400">
        <ele>463.000000</ele>
        <time>2014-03-29T14:42:59Z</time>
      </trkpt>
      <trkpt lat="37.683586700" lon="-1.734607700">
        <ele>463.000000</ele>
        <time>2014-03-29T14:43:00Z</time>
      </trkpt>
      <trkpt lat="37.683666300" lon="-1.734733400">
        <ele>462.000000</ele>
        <time>2014-03-29T14:43:01Z</time>
      </trkpt>
      <trkpt lat="37.683742400" lon="-1.734859200">
        <ele>462.000000</ele>
        <time>2014-03-29T14:43:02Z</time>
      </trkpt>
      <trkpt lat="37.683822200" lon="-1.734986400">
        <ele>462.000000</ele>
        <time>2014-03-29T14:43:03Z</time>
      </trkpt>
      <trkpt lat="37.683898400" lon="-1.735114700">
        <ele>461.000000</ele>
        <time>2014-03-29T14:43:04Z</time>
      </trkpt>
      <trkpt lat="37.683976300" lon="-1.735242600">
        <ele>461.000000</ele>
        <time>2014-03-29T14:43:05Z</time>
      </trkpt>
      <trkpt lat="37.684053400" lon="-1.735374500">
        <ele>461.000000</ele>
        <time>2014-03-29T14:43:06Z</time>
      </trkpt>
      <trkpt lat="37.684130500" lon="-1.735504300">
        <ele>460.000000</ele>
        <time>2014-03-29T14:43:07Z</time>
      </trkpt>
      <trkpt lat="37.684203400" lon="-1.735639100">
        <ele>460.000000</ele>
        <time>2014-03-29T14:43:08Z</time>
      </trkpt>
      <trkpt lat="37.684268000" lon="-1.735781500">
        <ele>460.000000</ele>
        <time>2014-03-29T14:43:09Z</time>
      </trkpt>
      <trkpt lat="37.684322500" lon="-1.735931900">
        <ele>459.000000</ele>
        <time>2014-03-29T14:43:10Z</time>
      </trkpt>
      <trkpt lat="37.684347900" lon="-1.736094100">
        <ele>459.000000</ele>
        <time>2014-03-29T14:43:11Z</time>
      </trkpt>
      <trkpt lat="37.684349100" lon="-1.736258200">
        <ele>459.000000</ele>
        <time>2014-03-29T14:43:12Z</time>
      </trkpt>
      <trkpt lat="37.684338700" lon="-1.736425700">
        <ele>458.000000</ele>
        <time>2014-03-29T14:43:13Z</time>
      </trkpt>
      <trkpt lat="37.684318800" lon="-1.736597000">
        <ele>458.000000</ele>
        <time>2014-03-29T14:43:14Z</time>
      </trkpt>
      <trkpt lat="37.684298600" lon="-1.736764700">
        <ele>458.000000</ele>
        <time>2014-03-29T14:43:15Z</time>
      </trkpt>
      <trkpt lat="37.684276700" lon="-1.736933400">
        <ele>457.000000</ele>
        <time>2014-03-29T14:43:16Z</time>
      </trkpt>
      <trkpt lat="37.684254400" lon="-1.737099000">
        <ele>457.000000</ele>
        <time>2014-03-29T14:43:17Z</time>
      </trkpt>
      <trkpt lat="37.684233600" lon="-1.737258700">
        <ele>456.000000</ele>
        <time>2014-03-29T14:43:18Z</time>
      </trkpt>
      <trkpt lat="37.684217600" lon="-1.737411800">
        <ele>456.000000</ele>
        <time>2014-03-29T14:43:19Z</time>
      </trkpt>
      <trkpt lat="37.684204200" lon="-1.737561900">
        <ele>456.000000</ele>
        <time>2014-03-29T14:43:20Z</time>
      </trkpt>
      <trkpt lat="37.684193800" lon="-1.737709500">
        <ele>455.000000</ele>
        <time>2014-03-29T14:43:21Z</time>
      </trkpt>
      <trkpt lat="37.684189100" lon="-1.737857800">
        <ele>455.000000</ele>
        <time>2014-03-29T14:43:22Z</time>
      </trkpt>
      <trkpt lat="37.684192000" lon="-1.738003300">
        <ele>455.000000</ele>
        <time>2014-03-29T14:43:23Z</time>
      </trkpt>
      <trkpt lat="37.684197700" lon="-1.738150000">
        <ele>454.000000</ele>
        <time>2014-03-29T14:43:24Z</time>
      </trkpt>
      <trkpt lat="37.684204900" lon="-1.738300300">
        <ele>454.000000</ele>
        <time>2014-03-29T14:43:25Z</time>
      </trkpt>
      <trkpt lat="37.684212700" lon="-1.738450500">
        <ele>454.000000</ele>
        <time>2014-03-29T14:43:26Z</time>
      </trkpt>
      <trkpt lat="37.684222500" lon="-1.738596900">
        <ele>454.000000</ele>
        <time>2014-03-29T14:43:27Z</time>
      </trkpt>
      <trkpt lat="37.684229000" lon="-1.738743400">
        <ele>453.000000</ele>
        <time>2014-03-29T14:43:28Z</time>
      </trkpt>
      <trkpt lat="37.684231600" lon="-1.738889100">
        <ele>453.000000</ele>
        <time>2014-03-29T14:43:29Z</time>
      </trkpt>
      <trkpt lat="37.684232100" lon="-1.739038400">
        <ele>453.000000</ele>
        <time>2014-03-29T14:43:30Z</time>
      </trkpt>
      <trkpt lat="37.684236500" lon="-1.739184400">
        <ele>453.000000</ele>
        <time>2014-03-29T14:43:31Z</time>
      </trkpt>
      <trkpt lat="37.684240500" lon="-1.739331400">
        <ele>453.000000</ele>
        <time>2014-03-29T14:43:32Z</time>
      </trkpt>
      <trkpt lat="37.684250400" lon="-1.739477100">
        <ele>453.000000</ele>
        <time>2014-03-29T14:43:33Z</time>
      </trkpt>
      <trkpt lat="37.684261600" lon="-1.739620200">
        <ele>453.000000</ele>
        <time>2014-03-29T14:43:34Z</time>
      </trkpt>
      <trkpt lat="37.684281900" lon="-1.739765400">
        <ele>453.000000</ele>
        <time>2014-03-29T14:43:35Z</time>
      </trkpt>
      <trkpt lat="37.684316500" lon="-1.739912700">
        <ele>453.000000</ele>
        <time>2014-03-29T14:43:36Z</time>
      </trkpt>
      <trkpt lat="37.684352100" lon="-1.740055000">
        <ele>453.000000</ele>
        <time>2014-03-29T14:43:37Z</time>
      </trkpt>
      <trkpt lat="37.684390800" lon="-1.740196600">
        <ele>453.000000</ele>
        <time>2014-03-29T14:43:38Z</time>
      </trkpt>
      <trkpt lat="37.684451100" lon="-1.740333500">
        <ele>453.000000</ele>
        <time>2014-03-29T14:43:39Z</time>
      </trkpt>
      <trkpt lat="37.684505000" lon="-1.740461000">
        <ele>453.000000</ele>
        <time>2014-03-29T14:43:40Z</time>
      </trkpt>
      <trkpt lat="37.684565400" lon="-1.740587000">
        <ele>453.000000</ele>
        <time>2014-03-29T14:43:41Z</time>
      </trkpt>
      <trkpt lat="37.684623100" lon="-1.740711500">
        <ele>453.000000</ele>
        <time>2014-03-29T14:43:42Z</time>
      </trkpt>
      <trkpt lat="37.684678600" lon="-1.740834600">
        <ele>453.000000</ele>
        <time>2014-03-29T14:43:43Z</time>
      </trkpt>
      <trkpt lat="37.684736200" lon="-1.740955900">
        <ele>453.000000</ele>
        <time>2014-03-29T14:43:44Z</time>
      </trkpt>
      <trkpt lat="37.684795700" lon="-1.741072100">
        <ele>453.000000</ele>
        <time>2014-03-29T14:43:45Z</time>
      </trkpt>
      <trkpt lat="37.684855300" lon="-1.741187300">
        <ele>453.000000</ele>
        <time>2014-03-29T14:43:46Z</time>
      </trkpt>
      <trkpt lat="37.684907000" lon="-1.741310500">
        <ele>453.000000</ele>
        <time>2014-03-29T14:43:47Z</time>
      </trkpt>
      <trkpt lat="37.684955500" lon="-1.741441900">
        <ele>453.000000</ele>
        <time>2014-03-29T14:43:48Z</time>
      </trkpt>
      <trkpt lat="37.684993500" lon="-1.741577100">
        <ele>453.000000</ele>
        <time>2014-03-29T14:43:49Z</time>
      </trkpt>
      <trkpt lat="37.685028600" lon="-1.741710000">
        <ele>453.000000</ele>
        <time>2014-03-29T14:43:50Z</time>
      </trkpt>
      <trkpt lat="37.685069100" lon="-1.741839700">
        <ele>453.000000</ele>
        <time>2014-03-29T14:43:51Z</time>
      </trkpt>
      <trkpt lat="37.685101300" lon="-1.741972900">
        <ele>453.000000</ele>
        <time>2014-03-29T14:43:52Z</time>
      </trkpt>
      <trkpt lat="37.685128300" lon="-1.742107800">
        <ele>453.000000</ele>
        <time>2014-03-29T14:43:53Z</time>
      </trkpt>
      <trkpt lat="37.685152800" lon="-1.742240500">
        <ele>453.000000</ele>
        <time>2014-03-29T14:43:54Z</time>
      </trkpt>
      <trkpt lat="37.685176600" lon="-1.742371500">
        <ele>453.000000</ele>
        <time>2014-03-29T14:43:55Z</time>
      </trkpt>
      <trkpt lat="37.685207300" lon="-1.742495000">
        <ele>453.000000</ele>
        <time>2014-03-29T14:43:56Z</time>
      </trkpt>
      <trkpt lat="37.685235900" lon="-1.742623300">
        <ele>453.000000</ele>
        <time>2014-03-29T14:43:57Z</time>
      </trkpt>
      <trkpt lat="37.685262700" lon="-1.742747700">
        <ele>454.000000</ele>
        <time>2014-03-29T14:43:58Z</time>
      </trkpt>
      <trkpt lat="37.685289400" lon="-1.742867300">
        <ele>454.000000</ele>
        <time>2014-03-29T14:43:59Z</time>
      </trkpt>
      <trkpt lat="37.685320900" lon="-1.742986900">
        <ele>454.000000</ele>
        <time>2014-03-29T14:44:00Z</time>
      </trkpt>
      <trkpt lat="37.685354000" lon="-1.743102200">
        <ele>455.000000</ele>
        <time>2014-03-29T14:44:01Z</time>
      </trkpt>
      <trkpt lat="37.685389300" lon="-1.743215400">
        <ele>455.000000</ele>
        <time>2014-03-29T14:44:02Z</time>
      </trkpt>
      <trkpt lat="37.685428700" lon="-1.743329200">
        <ele>455.000000</ele>
        <time>2014-03-29T14:44:03Z</time>
      </trkpt>
      <trkpt lat="37.685470600" lon="-1.743442800">
        <ele>456.000000</ele>
        <time>2014-03-29T14:44:04Z</time>
      </trkpt>
      <trkpt lat="37.685518600" lon="-1.743553000">
        <ele>456.000000</ele>
        <time>2014-03-29T14:44:05Z</time>
      </trkpt>
      <trkpt lat="37.685570500" lon="-1.743660800">
        <ele>457.000000</ele>
        <time>2014-03-29T14:44:06Z</time>
      </trkpt>
      <trkpt lat="37.685627800" lon="-1.743764800">
        <ele>457.000000</ele>
        <time>2014-03-29T14:44:07Z</time>
      </trkpt>
      <trkpt lat="37.685685100" lon="-1.743866500">
        <ele>458.000000</ele>
        <time>2014-03-29T14:44:08Z</time>
      </trkpt>
      <trkpt lat="37.685741900" lon="-1.743972200">
        <ele>458.000000</ele>
        <time>2014-03-29T14:44:09Z</time>
      </trkpt>
      <trkpt lat="37.685800500" lon="-1.744081100">
        <ele>459.000000</ele>
        <time>2014-03-29T14:44:10Z</time>
      </trkpt>
      <trkpt lat="37.685865400" lon="-1.744185200">
        <ele>459.000000</ele>
        <time>2014-03-29T14:44:11Z</time>
      </trkpt>
      <trkpt lat="37.685925300" lon="-1.744287300">
        <ele>460.000000</ele>
        <time>2014-03-29T14:44:12Z</time>
      </trkpt>
      <trkpt lat="37.685987800" lon="-1.744389000">
        <ele>460.000000</ele>
        <time>2014-03-29T14:44:13Z</time>
      </trkpt>
      <trkpt lat="37.686050500" lon="-1.744491600">
        <ele>461.000000</ele>
        <time>2014-03-29T14:44:14Z</time>
      </trkpt>
      <trkpt lat="37.686112200" lon="-1.744596200">
        <ele>461.000000</ele>
        <time>2014-03-29T14:44:15Z</time>
      </trkpt>
      <trkpt lat="37.686169500" lon="-1.744700000">
        <ele>461.000000</ele>
        <time>2014-03-29T14:44:16Z</time>
      </trkpt>
      <trkpt lat="37.686228100" lon="-1.744811500">
        <ele>461.000000</ele>
        <time>2014-03-29T14:44:17Z</time>
      </trkpt>
      <trkpt lat="37.686283400" lon="-1.744925300">
        <ele>462.000000</ele>
        <time>2014-03-29T14:44:18Z</time>
      </trkpt>
      <trkpt lat="37.686335100" lon="-1.745048200">
        <ele>462.000000</ele>
        <time>2014-03-29T14:44:19Z</time>
      </trkpt>
      <trkpt lat="37.686385000" lon="-1.745176200">
        <ele>462.000000</ele>
        <time>2014-03-29T14:44:20Z</time>
      </trkpt>
      <trkpt lat="37.686428100" lon="-1.745311200">
        <ele>462.000000</ele>
        <time>2014-03-29T14:44:21Z</time>
      </trkpt>
      <trkpt lat="37.686464500" lon="-1.745449900">
        <ele>462.000000</ele>
        <time>2014-03-29T14:44:22Z</time>
      </trkpt>
      <trkpt lat="37.686498200" lon="-1.745593800">
        <ele>462.000000</ele>
        <time>2014-03-29T14:44:23Z</time>
      </trkpt>
      <trkpt lat="37.686530400" lon="-1.745742000">
        <ele>462.000000</ele>
        <time>2014-03-29T14:44:24Z</time>
      </trkpt>
      <trkpt lat="37.686565200" lon="-1.745889000">
        <ele>462.000000</ele>
        <time>2014-03-29T14:44:25Z</time>
      </trkpt>
      <trkpt lat="37.686601000" lon="-1.746039900">
        <ele>462.000000</ele>
        <time>2014-03-29T14:44:26Z</time>
      </trkpt>
      <trkpt lat="37.686633700" lon="-1.746196500">
        <ele>462.000000</ele>
        <time>2014-03-29T14:44:27Z</time>
      </trkpt>
      <trkpt lat="37.686666700" lon="-1.746353200">
        <ele>461.000000</ele>
        <time>2014-03-29T14:44:28Z</time>
      </trkpt>
      <trkpt lat="37.686704400" lon="-1.746510600">
        <ele>461.000000</ele>
        <time>2014-03-29T14:44:29Z</time>
      </trkpt>
      <trkpt lat="37.686741200" lon="-1.746668400">
        <ele>461.000000</ele>
        <time>2014-03-29T14:44:30Z</time>
      </trkpt>
      <trkpt lat="37.686786000" lon="-1.746825600">
        <ele>461.000000</ele>
        <time>2014-03-29T14:44:31Z</time>
      </trkpt>
      <trkpt lat="37.686839500" lon="-1.746981300">
        <ele>460.000000</ele>
        <time>2014-03-29T14:44:32Z</time>
      </trkpt>
      <trkpt lat="37.686894400" lon="-1.747135400">
        <ele>460.000000</ele>
        <time>2014-03-29T14:44:33Z</time>
      </trkpt>
      <trkpt lat="37.686955400" lon="-1.747285100">
        <ele>460.000000</ele>
        <time>2014-03-29T14:44:34Z</time>
      </trkpt>
      <trkpt lat="37.687022600" lon="-1.747427200">
        <ele>459.000000</ele>
        <time>2014-03-29T14:44:35Z</time>
      </trkpt>
      <trkpt lat="37.687089200" lon="-1.747563300">
        <ele>459.000000</ele>
        <time>2014-03-29T14:44:36Z</time>
      </trkpt>
      <trkpt lat="37.687160900" lon="-1.747694500">
        <ele>458.000000</ele>
        <time>2014-03-29T14:44:37Z</time>
      </trkpt>
      <trkpt lat="37.687240000" lon="-1.747816800">
        <ele>458.000000</ele>
        <time>2014-03-29T14:44:38Z</time>
      </trkpt>
      <trkpt lat="37.687321000" lon="-1.747935800">
        <ele>458.000000</ele>
        <time>2014-03-29T14:44:39Z</time>
      </trkpt>
      <trkpt lat="37.687399600" lon="-1.748051800">
        <ele>457.000000</ele>
        <time>2014-03-29T14:44:40Z</time>
      </trkpt>
      <trkpt lat="37.687481000" lon="-1.748164000">
        <ele>457.000000</ele>
        <time>2014-03-29T14:44:41Z</time>
      </trkpt>
      <trkpt lat="37.687566500" lon="-1.748276400">
        <ele>456.000000</ele>
        <time>2014-03-29T14:44:42Z</time>
      </trkpt>
      <trkpt lat="37.687649400" lon="-1.748389800">
        <ele>456.000000</ele>
        <time>2014-03-29T14:44:43Z</time>
      </trkpt>
      <trkpt lat="37.687723700" lon="-1.748503900">
        <ele>456.000000</ele>
        <time>2014-03-29T14:44:44Z</time>
      </trkpt>
      <trkpt lat="37.687789400" lon="-1.748621100">
        <ele>456.000000</ele>
        <time>2014-03-29T14:44:45Z</time>
      </trkpt>
      <trkpt lat="37.687840200" lon="-1.748745300">
        <ele>456.000000</ele>
        <time>2014-03-29T14:44:46Z</time>
      </trkpt>
      <trkpt lat="37.687878100" lon="-1.748876600">
        <ele>455.000000</ele>
        <time>2014-03-29T14:44:47Z</time>
      </trkpt>
      <trkpt lat="37.687905200" lon="-1.749015700">
        <ele>455.000000</ele>
        <time>2014-03-29T14:44:48Z</time>
      </trkpt>
      <trkpt lat="37.687924800" lon="-1.749155000">
        <ele>455.000000</ele>
        <time>2014-03-29T14:44:49Z</time>
      </trkpt>
      <trkpt lat="37.687939500" lon="-1.749292800">
        <ele>455.000000</ele>
        <time>2014-03-29T14:44:50Z</time>
      </trkpt>
      <trkpt lat="37.687953300" lon="-1.749427800">
        <ele>455.000000</ele>
        <time>2014-03-29T14:44:51Z</time>
      </trkpt>
      <trkpt lat="37.687966000" lon="-1.749560200">
        <ele>455.000000</ele>
        <time>2014-03-29T14:44:52Z</time>
      </trkpt>
      <trkpt lat="37.687984700" lon="-1.749691200">
        <ele>455.000000</ele>
        <time>2014-03-29T14:44:53Z</time>
      </trkpt>
      <trkpt lat="37.688002700" lon="-1.749819900">
        <ele>456.000000</ele>
        <time>2014-03-29T14:44:54Z</time>
      </trkpt>
      <trkpt lat="37.688017700" lon="-1.749946600">
        <ele>456.000000</ele>
        <time>2014-03-29T14:44:55Z</time>
      </trkpt>
      <trkpt lat="37.688032400" lon="-1.750072600">
        <ele>456.000000</ele>
        <time>2014-03-29T14:44:56Z</time>
      </trkpt>
      <trkpt lat="37.688044500" lon="-1.750198900">
        <ele>456.000000</ele>
        <time>2014-03-29T14:44:57Z</time>
      </trkpt>
      <trkpt lat="37.688056600" lon="-1.750322300">
        <ele>456.000000</ele>
        <time>2014-03-29T14:44:58Z</time>
      </trkpt>
      <trkpt lat="37.688070000" lon="-1.750448000">
        <ele>457.000000</ele>
        <time>2014-03-29T14:44:59Z</time>
      </trkpt>
      <trkpt lat="37.688082400" lon="-1.750573900">
        <ele>457.000000</ele>
        <time>2014-03-29T14:45:00Z</time>
      </trkpt>
      <trkpt lat="37.688092100" lon="-1.750693600">
        <ele>457.000000</ele>
        <time>2014-03-29T14:45:01Z</time>
      </trkpt>
      <trkpt lat="37.688103300" lon="-1.750815000">
        <ele>458.000000</ele>
        <time>2014-03-29T14:45:02Z</time>
      </trkpt>
      <trkpt lat="37.688123300" lon="-1.750934300">
        <ele>458.000000</ele>
        <time>2014-03-29T14:45:03Z</time>
      </trkpt>
      <trkpt lat="37.688148400" lon="-1.751050900">
        <ele>458.000000</ele>
        <time>2014-03-29T14:45:04Z</time>
      </trkpt>
      <trkpt lat="37.688178800" lon="-1.751165000">
        <ele>459.000000</ele>
        <time>2014-03-29T14:45:05Z</time>
      </trkpt>
      <trkpt lat="37.688214900" lon="-1.751275400">
        <ele>459.000000</ele>
        <time>2014-03-29T14:45:06Z</time>
      </trkpt>
      <trkpt lat="37.688253700" lon="-1.751378900">
        <ele>460.000000</ele>
        <time>2014-03-29T14:45:07Z</time>
      </trkpt>
      <trkpt lat="37.688300400" lon="-1.751483600">
        <ele>460.000000</ele>
        <time>2014-03-29T14:45:08Z</time>
      </trkpt>
      <trkpt lat="37.688357600" lon="-1.751592500">
        <ele>460.000000</ele>
        <time>2014-03-29T14:45:09Z</time>
      </trkpt>
      <trkpt lat="37.688417100" lon="-1.751690100">
        <ele>461.000000</ele>
        <time>2014-03-29T14:45:10Z</time>
      </trkpt>
      <trkpt lat="37.688482800" lon="-1.751784600">
        <ele>461.000000</ele>
        <time>2014-03-29T14:45:11Z</time>
      </trkpt>
      <trkpt lat="37.688551000" lon="-1.751876600">
        <ele>462.000000</ele>
        <time>2014-03-29T14:45:12Z</time>
      </trkpt>
      <trkpt lat="37.688626200" lon="-1.751971600">
        <ele>462.000000</ele>
        <time>2014-03-29T14:45:13Z</time>
      </trkpt>
      <trkpt lat="37.688699500" lon="-1.752066100">
        <ele>462.000000</ele>
        <time>2014-03-29T14:45:14Z</time>
      </trkpt>
      <trkpt lat="37.688771100" lon="-1.752161300">
        <ele>463.000000</ele>
        <time>2014-03-29T14:45:15Z</time>
      </trkpt>
      <trkpt lat="37.688845700" lon="-1.752256300">
        <ele>463.000000</ele>
        <time>2014-03-29T14:45:16Z</time>
      </trkpt>
      <trkpt lat="37.688927200" lon="-1.752352600">
        <ele>463.000000</ele>
        <time>2014-03-29T14:45:17Z</time>
      </trkpt>
      <trkpt lat="37.689006800" lon="-1.752449900">
        <ele>463.000000</ele>
        <time>2014-03-29T14:45:18Z</time>
      </trkpt>
      <trkpt lat="37.689085600" lon="-1.752546100">
        <ele>464.000000</ele>
        <time>2014-03-29T14:45:19Z</time>
      </trkpt>
      <trkpt lat="37.689162800" lon="-1.752637500">
        <ele>464.000000</ele>
        <time>2014-03-29T14:45:20Z</time>
      </trkpt>
      <trkpt lat="37.689239400" lon="-1.752729800">
        <ele>464.000000</ele>
        <time>2014-03-29T14:45:21Z</time>
      </trkpt>
      <trkpt lat="37.689313900" lon="-1.752824800">
        <ele>464.000000</ele>
        <time>2014-03-29T14:45:22Z</time>
      </trkpt>
      <trkpt lat="37.689388200" lon="-1.752918100">
        <ele>464.000000</ele>
        <time>2014-03-29T14:45:23Z</time>
      </trkpt>
      <trkpt lat="37.689462700" lon="-1.753014100">
        <ele>464.000000</ele>
        <time>2014-03-29T14:45:24Z</time>
      </trkpt>
      <trkpt lat="37.689537500" lon="-1.753110300">
        <ele>464.000000</ele>
        <time>2014-03-29T14:45:25Z</time>
      </trkpt>
      <trkpt lat="37.689613900" lon="-1.753204500">
        <ele>464.000000</ele>
        <time>2014-03-29T14:45:26Z</time>
      </trkpt>
      <trkpt lat="37.689690200" lon="-1.753299200">
        <ele>464.000000</ele>
        <time>2014-03-29T14:45:27Z</time>
      </trkpt>
      <trkpt lat="37.689767700" lon="-1.753391100">
        <ele>464.000000</ele>
        <time>2014-03-29T14:45:28Z</time>
      </trkpt>
      <trkpt lat="37.689839200" lon="-1.753481900">
        <ele>464.000000</ele>
        <time>2014-03-29T14:45:29Z</time>
      </trkpt>
      <trkpt lat="37.689909400" lon="-1.753575100">
        <ele>464.000000</ele>
        <time>2014-03-29T14:45:30Z</time>
      </trkpt>
      <trkpt lat="37.689979100" lon="-1.753665700">
        <ele>464.000000</ele>
        <time>2014-03-29T14:45:31Z</time>
      </trkpt>
      <trkpt lat="37.690047100" lon="-1.753754500">
        <ele>464.000000</ele>
        <time>2014-03-29T14:45:32Z</time>
      </trkpt>
      <trkpt lat="37.690121300" lon="-1.753842900">
        <ele>465.000000</ele>
        <time>2014-03-29T14:45:33Z</time>
      </trkpt>
      <trkpt lat="37.690192400" lon="-1.753931500">
        <ele>465.000000</ele>
        <time>2014-03-29T14:45:34Z</time>
      </trkpt>
      <trkpt lat="37.690260200" lon="-1.754020300">
        <ele>465.000000</ele>
        <time>2014-03-29T14:45:35Z</time>
      </trkpt>
      <trkpt lat="37.690329500" lon="-1.754114800">
        <ele>465.000000</ele>
        <time>2014-03-29T14:45:36Z</time>
      </trkpt>
      <trkpt lat="37.690399100" lon="-1.754210500">
        <ele>465.000000</ele>
        <time>2014-03-29T14:45:37Z</time>
      </trkpt>
      <trkpt lat="37.690472300" lon="-1.754308300">
        <ele>466.000000</ele>
        <time>2014-03-29T14:45:38Z</time>
      </trkpt>
      <trkpt lat="37.690550900" lon="-1.754404900">
        <ele>466.000000</ele>
        <time>2014-03-29T14:45:39Z</time>
      </trkpt>
      <trkpt lat="37.690630800" lon="-1.754505200">
        <ele>466.000000</ele>
        <time>2014-03-29T14:45:40Z</time>
      </trkpt>
      <trkpt lat="37.690706900" lon="-1.754602600">
        <ele>466.000000</ele>
        <time>2014-03-29T14:45:41Z</time>
      </trkpt>
      <trkpt lat="37.690787100" lon="-1.754696800">
        <ele>466.000000</ele>
        <time>2014-03-29T14:45:42Z</time>
      </trkpt>
      <trkpt lat="37.690874200" lon="-1.754786400">
        <ele>466.000000</ele>
        <time>2014-03-29T14:45:43Z</time>
      </trkpt>
      <trkpt lat="37.690970500" lon="-1.754865800">
        <ele>466.000000</ele>
        <time>2014-03-29T14:45:44Z</time>
      </trkpt>
      <trkpt lat="37.691072100" lon="-1.754940700">
        <ele>466.000000</ele>
        <time>2014-03-29T14:45:45Z</time>
      </trkpt>
      <trkpt lat="37.691173000" lon="-1.755012200">
        <ele>467.000000</ele>
        <time>2014-03-29T14:45:46Z</time>
      </trkpt>
      <trkpt lat="37.691278100" lon="-1.755078000">
        <ele>467.000000</ele>
        <time>2014-03-29T14:45:47Z</time>
      </trkpt>
      <trkpt lat="37.691385700" lon="-1.755141200">
        <ele>467.000000</ele>
        <time>2014-03-29T14:45:48Z</time>
      </trkpt>
      <trkpt lat="37.691491700" lon="-1.755208100">
        <ele>467.000000</ele>
        <time>2014-03-29T14:45:49Z</time>
      </trkpt>
      <trkpt lat="37.691594200" lon="-1.755277200">
        <ele>467.000000</ele>
        <time>2014-03-29T14:45:50Z</time>
      </trkpt>
      <trkpt lat="37.691696600" lon="-1.755346200">
        <ele>466.000000</ele>
        <time>2014-03-29T14:45:51Z</time>
      </trkpt>
      <trkpt lat="37.691798000" lon="-1.755415200">
        <ele>466.000000</ele>
        <time>2014-03-29T14:45:52Z</time>
      </trkpt>
      <trkpt lat="37.691895200" lon="-1.755481100">
        <ele>466.000000</ele>
        <time>2014-03-29T14:45:53Z</time>
      </trkpt>
      <trkpt lat="37.691989900" lon="-1.755548900">
        <ele>466.000000</ele>
        <time>2014-03-29T14:45:54Z</time>
      </trkpt>
      <trkpt lat="37.692072000" lon="-1.755628800">
        <ele>466.000000</ele>
        <time>2014-03-29T14:45:55Z</time>
      </trkpt>
      <trkpt lat="37.692141500" lon="-1.755722300">
        <ele>466.000000</ele>
        <time>2014-03-29T14:45:56Z</time>
      </trkpt>
      <trkpt lat="37.692200000" lon="-1.755820500">
        <ele>466.000000</ele>
        <time>2014-03-29T14:45:57Z</time>
      </trkpt>
      <trkpt lat="37.692243500" lon="-1.755922200">
        <ele>466.000000</ele>
        <time>2014-03-29T14:45:58Z</time>
      </trkpt>
      <trkpt lat="37.692287500" lon="-1.756023400">
        <ele>466.000000</ele>
        <time>2014-03-29T14:45:59Z</time>
      </trkpt>
      <trkpt lat="37.692319800" lon="-1.756132200">
        <ele>466.000000</ele>
        <time>2014-03-29T14:46:00Z</time>
      </trkpt>
      <trkpt lat="37.692334400" lon="-1.756251900">
        <ele>466.000000</ele>
        <time>2014-03-29T14:46:01Z</time>
      </trkpt>
      <trkpt lat="37.692353900" lon="-1.756369700">
        <ele>466.000000</ele>
        <time>2014-03-29T14:46:02Z</time>
      </trkpt>
      <trkpt lat="37.692374600" lon="-1.756493700">
        <ele>466.000000</ele>
        <time>2014-03-29T14:46:03Z</time>
      </trkpt>
      <trkpt lat="37.692394900" lon="-1.756619000">
        <ele>466.000000</ele>
        <time>2014-03-29T14:46:04Z</time>
      </trkpt>
      <trkpt lat="37.692421100" lon="-1.756745000">
        <ele>466.000000</ele>
        <time>2014-03-29T14:46:05Z</time>
      </trkpt>
      <trkpt lat="37.692449600" lon="-1.756874400">
        <ele>466.000000</ele>
        <time>2014-03-29T14:46:06Z</time>
      </trkpt>
      <trkpt lat="37.692471900" lon="-1.757010000">
        <ele>466.000000</ele>
        <time>2014-03-29T14:46:07Z</time>
      </trkpt>
      <trkpt lat="37.692498400" lon="-1.757146800">
        <ele>466.000000</ele>
        <time>2014-03-29T14:46:08Z</time>
      </trkpt>
      <trkpt lat="37.692521100" lon="-1.757281700">
        <ele>466.000000</ele>
        <time>2014-03-29T14:46:09Z</time>
      </trkpt>
      <trkpt lat="37.692550600" lon="-1.757413700">
        <ele>466.000000</ele>
        <time>2014-03-29T14:46:10Z</time>
      </trkpt>
      <trkpt lat="37.692579700" lon="-1.757543900">
        <ele>466.000000</ele>
        <time>2014-03-29T14:46:11Z</time>
      </trkpt>
      <trkpt lat="37.692611100" lon="-1.757675200">
        <ele>466.000000</ele>
        <time>2014-03-29T14:46:12Z</time>
      </trkpt>
      <trkpt lat="37.692644900" lon="-1.757805200">
        <ele>467.000000</ele>
        <time>2014-03-29T14:46:13Z</time>
      </trkpt>
      <trkpt lat="37.692682900" lon="-1.757937400">
        <ele>467.000000</ele>
        <time>2014-03-29T14:46:14Z</time>
      </trkpt>
      <trkpt lat="37.692724700" lon="-1.758068900">
        <ele>467.000000</ele>
        <time>2014-03-29T14:46:15Z</time>
      </trkpt>
      <trkpt lat="37.692763700" lon="-1.758204000">
        <ele>467.000000</ele>
        <time>2014-03-29T14:46:16Z</time>
      </trkpt>
      <trkpt lat="37.692799100" lon="-1.758340400">
        <ele>467.000000</ele>
        <time>2014-03-29T14:46:17Z</time>
      </trkpt>
      <trkpt lat="37.692831900" lon="-1.758475200">
        <ele>467.000000</ele>
        <time>2014-03-29T14:46:18Z</time>
      </trkpt>
      <trkpt lat="37.692866400" lon="-1.758609300">
        <ele>467.000000</ele>
        <time>2014-03-29T14:46:19Z</time>
      </trkpt>
      <trkpt lat="37.692901000" lon="-1.758743200">
        <ele>467.000000</ele>
        <time>2014-03-29T14:46:20Z</time>
      </trkpt>
      <trkpt lat="37.692937500" lon="-1.758871900">
        <ele>467.000000</ele>
        <time>2014-03-29T14:46:21Z</time>
      </trkpt>
      <trkpt lat="37.692973500" lon="-1.758996200">
        <ele>468.000000</ele>
        <time>2014-03-29T14:46:22Z</time>
      </trkpt>
      <trkpt lat="37.693010800" lon="-1.759122400">
        <ele>468.000000</ele>
        <time>2014-03-29T14:46:23Z</time>
      </trkpt>
      <trkpt lat="37.693050100" lon="-1.759251600">
        <ele>468.000000</ele>
        <time>2014-03-29T14:46:24Z</time>
      </trkpt>
      <trkpt lat="37.693086300" lon="-1.759379900">
        <ele>468.000000</ele>
        <time>2014-03-29T14:46:25Z</time>
      </trkpt>
      <trkpt lat="37.693121500" lon="-1.759507200">
        <ele>468.000000</ele>
        <time>2014-03-29T14:46:26Z</time>
      </trkpt>
      <trkpt lat="37.693154700" lon="-1.759632100">
        <ele>468.000000</ele>
        <time>2014-03-29T14:46:27Z</time>
      </trkpt>
      <trkpt lat="37.693189000" lon="-1.759759900">
        <ele>468.000000</ele>
        <time>2014-03-29T14:46:28Z</time>
      </trkpt>
      <trkpt lat="37.693223800" lon="-1.759886800">
        <ele>469.000000</ele>
        <time>2014-03-29T14:46:29Z</time>
      </trkpt>
      <trkpt lat="37.693257700" lon="-1.760012600">
        <ele>469.000000</ele>
        <time>2014-03-29T14:46:30Z</time>
      </trkpt>
      <trkpt lat="37.693289200" lon="-1.760138100">
        <ele>469.000000</ele>
        <time>2014-03-29T14:46:31Z</time>
      </trkpt>
      <trkpt lat="37.693322000" lon="-1.760260900">
        <ele>469.000000</ele>
        <time>2014-03-29T14:46:32Z</time>
      </trkpt>
      <trkpt lat="37.693359000" lon="-1.760381900">
        <ele>469.000000</ele>
        <time>2014-03-29T14:46:33Z</time>
      </trkpt>
      <trkpt lat="37.693390800" lon="-1.760507800">
        <ele>469.000000</ele>
        <time>2014-03-29T14:46:34Z</time>
      </trkpt>
      <trkpt lat="37.693420900" lon="-1.760635700">
        <ele>469.000000</ele>
        <time>2014-03-29T14:46:35Z</time>
      </trkpt>
      <trkpt lat="37.693450900" lon="-1.760761800">
        <ele>470.000000</ele>
        <time>2014-03-29T14:46:36Z</time>
      </trkpt>
      <trkpt lat="37.693478000" lon="-1.760891200">
        <ele>470.000000</ele>
        <time>2014-03-29T14:46:37Z</time>
      </trkpt>
      <trkpt lat="37.693503700" lon="-1.761015700">
        <ele>470.000000</ele>
        <time>2014-03-29T14:46:38Z</time>
      </trkpt>
      <trkpt lat="37.693531800" lon="-1.761134900">
        <ele>470.000000</ele>
        <time>2014-03-29T14:46:39Z</time>
      </trkpt>
      <trkpt lat="37.693565300" lon="-1.761258300">
        <ele>470.000000</ele>
        <time>2014-03-29T14:46:40Z</time>
      </trkpt>
      <trkpt lat="37.693599200" lon="-1.761387900">
        <ele>470.000000</ele>
        <time>2014-03-29T14:46:41Z</time>
      </trkpt>
      <trkpt lat="37.693635000" lon="-1.761522700">
        <ele>471.000000</ele>
        <time>2014-03-29T14:46:42Z</time>
      </trkpt>
      <trkpt lat="37.693667400" lon="-1.761656200">
        <ele>471.000000</ele>
        <time>2014-03-29T14:46:43Z</time>
      </trkpt>
      <trkpt lat="37.693701000" lon="-1.761786000">
        <ele>471.000000</ele>
        <time>2014-03-29T14:46:44Z</time>
      </trkpt>
      <trkpt lat="37.693736700" lon="-1.761913100">
        <ele>471.000000</ele>
        <time>2014-03-29T14:46:45Z</time>
      </trkpt>
      <trkpt lat="37.693775800" lon="-1.762038600">
        <ele>471.000000</ele>
        <time>2014-03-29T14:46:46Z</time>
      </trkpt>
      <trkpt lat="37.693818700" lon="-1.762163700">
        <ele>471.000000</ele>
        <time>2014-03-29T14:46:47Z</time>
      </trkpt>
      <trkpt lat="37.693866600" lon="-1.762287000">
        <ele>472.000000</ele>
        <time>2014-03-29T14:46:48Z</time>
      </trkpt>
      <trkpt lat="37.693917800" lon="-1.762411000">
        <ele>472.000000</ele>
        <time>2014-03-29T14:46:49Z</time>
      </trkpt>
      <trkpt lat="37.693970800" lon="-1.762536500">
        <ele>472.000000</ele>
        <time>2014-03-29T14:46:50Z</time>
      </trkpt>
      <trkpt lat="37.694022600" lon="-1.762661600">
        <ele>472.000000</ele>
        <time>2014-03-29T14:46:51Z</time>
      </trkpt>
      <trkpt lat="37.694074500" lon="-1.762784400">
        <ele>472.000000</ele>
        <time>2014-03-29T14:46:52Z</time>
      </trkpt>
      <trkpt lat="37.694124700" lon="-1.762903900">
        <ele>473.000000</ele>
        <time>2014-03-29T14:46:53Z</time>
      </trkpt>
      <trkpt lat="37.694174700" lon="-1.763020900">
        <ele>473.000000</ele>
        <time>2014-03-29T14:46:54Z</time>
      </trkpt>
      <trkpt lat="37.694226200" lon="-1.763138900">
        <ele>473.000000</ele>
        <time>2014-03-29T14:46:55Z</time>
      </trkpt>
      <trkpt lat="37.694279300" lon="-1.763256900">
        <ele>473.000000</ele>
        <time>2014-03-29T14:46:56Z</time>
      </trkpt>
      <trkpt lat="37.694331700" lon="-1.763376700">
        <ele>474.000000</ele>
        <time>2014-03-29T14:46:57Z</time>
      </trkpt>
      <trkpt lat="37.694389900" lon="-1.763500200">
        <ele>474.000000</ele>
        <time>2014-03-29T14:46:58Z</time>
      </trkpt>
      <trkpt lat="37.694447400" lon="-1.763622400">
        <ele>474.000000</ele>
        <time>2014-03-29T14:46:59Z</time>
      </trkpt>
      <trkpt lat="37.694501900" lon="-1.763743800">
        <ele>474.000000</ele>
        <time>2014-03-29T14:47:00Z</time>
      </trkpt>
      <trkpt lat="37.694556800" lon="-1.763863400">
        <ele>474.000000</ele>
        <time>2014-03-29T14:47:01Z</time>
      </trkpt>
      <trkpt lat="37.694612800" lon="-1.763985900">
        <ele>475.000000</ele>
        <time>2014-03-29T14:47:02Z</time>
      </trkpt>
      <trkpt lat="37.694670000" lon="-1.764104000">
        <ele>475.000000</ele>
        <time>2014-03-29T14:47:03Z</time>
      </trkpt>
      <trkpt lat="37.694732000" lon="-1.764220200">
        <ele>475.000000</ele>
        <time>2014-03-29T14:47:04Z</time>
      </trkpt>
      <trkpt lat="37.694796300" lon="-1.764339300">
        <ele>475.000000</ele>
        <time>2014-03-29T14:47:05Z</time>
      </trkpt>
      <trkpt lat="37.694865300" lon="-1.764456400">
        <ele>475.000000</ele>
        <time>2014-03-29T14:47:06Z</time>
      </trkpt>
      <trkpt lat="37.694936600" lon="-1.764569900">
        <ele>476.000000</ele>
        <time>2014-03-29T14:47:07Z</time>
      </trkpt>
      <trkpt lat="37.695010300" lon="-1.764679900">
        <ele>476.000000</ele>
        <time>2014-03-29T14:47:08Z</time>
      </trkpt>
      <trkpt lat="37.695091700" lon="-1.764791000">
        <ele>476.000000</ele>
        <time>2014-03-29T14:47:09Z</time>
      </trkpt>
      <trkpt lat="37.695173600" lon="-1.764897600">
        <ele>476.000000</ele>
        <time>2014-03-29T14:47:10Z</time>
      </trkpt>
      <trkpt lat="37.695255400" lon="-1.765001600">
        <ele>476.000000</ele>
        <time>2014-03-29T14:47:11Z</time>
      </trkpt>
      <trkpt lat="37.695341300" lon="-1.765103800">
        <ele>476.000000</ele>
        <time>2014-03-29T14:47:12Z</time>
      </trkpt>
      <trkpt lat="37.695427600" lon="-1.765205900">
        <ele>476.000000</ele>
        <time>2014-03-29T14:47:13Z</time>
      </trkpt>
      <trkpt lat="37.695511700" lon="-1.765311000">
        <ele>476.000000</ele>
        <time>2014-03-29T14:47:14Z</time>
      </trkpt>
      <trkpt lat="37.695597700" lon="-1.765418400">
        <ele>476.000000</ele>
        <time>2014-03-29T14:47:15Z</time>
      </trkpt>
      <trkpt lat="37.695680900" lon="-1.765522000">
        <ele>476.000000</ele>
        <time>2014-03-29T14:47:16Z</time>
      </trkpt>
      <trkpt lat="37.695769000" lon="-1.765625400">
        <ele>476.000000</ele>
        <time>2014-03-29T14:47:17Z</time>
      </trkpt>
      <trkpt lat="37.695855800" lon="-1.765728200">
        <ele>476.000000</ele>
        <time>2014-03-29T14:47:18Z</time>
      </trkpt>
      <trkpt lat="37.695941400" lon="-1.765834200">
        <ele>476.000000</ele>
        <time>2014-03-29T14:47:19Z</time>
      </trkpt>
      <trkpt lat="37.696027800" lon="-1.765940200">
        <ele>476.000000</ele>
        <time>2014-03-29T14:47:20Z</time>
      </trkpt>
      <trkpt lat="37.696116900" lon="-1.766044100">
        <ele>476.000000</ele>
        <time>2014-03-29T14:47:21Z</time>
      </trkpt>
      <trkpt lat="37.696204800" lon="-1.766145900">
        <ele>476.000000</ele>
        <time>2014-03-29T14:47:22Z</time>
      </trkpt>
      <trkpt lat="37.696290400" lon="-1.766247600">
        <ele>476.000000</ele>
        <time>2014-03-29T14:47:23Z</time>
      </trkpt>
      <trkpt lat="37.696373300" lon="-1.766351200">
        <ele>476.000000</ele>
        <time>2014-03-29T14:47:24Z</time>
      </trkpt>
      <trkpt lat="37.696456700" lon="-1.766454600">
        <ele>476.000000</ele>
        <time>2014-03-29T14:47:25Z</time>
      </trkpt>
      <trkpt lat="37.696540000" lon="-1.766555300">
        <ele>476.000000</ele>
        <time>2014-03-29T14:47:26Z</time>
      </trkpt>
      <trkpt lat="37.696622100" lon="-1.766652600">
        <ele>476.000000</ele>
        <time>2014-03-29T14:47:27Z</time>
      </trkpt>
      <trkpt lat="37.696702800" lon="-1.766748300">
        <ele>476.000000</ele>
        <time>2014-03-29T14:47:28Z</time>
      </trkpt>
      <trkpt lat="37.696783900" lon="-1.766841900">
        <ele>476.000000</ele>
        <time>2014-03-29T14:47:29Z</time>
      </trkpt>
      <trkpt lat="37.696864500" lon="-1.766935800">
        <ele>476.000000</ele>
        <time>2014-03-29T14:47:30Z</time>
      </trkpt>
      <trkpt lat="37.696943400" lon="-1.767030100">
        <ele>476.000000</ele>
        <time>2014-03-29T14:47:31Z</time>
      </trkpt>
      <trkpt lat="37.697022400" lon="-1.767124500">
        <ele>476.000000</ele>
        <time>2014-03-29T14:47:32Z</time>
      </trkpt>
      <trkpt lat="37.697102100" lon="-1.767220000">
        <ele>476.000000</ele>
        <time>2014-03-29T14:47:33Z</time>
      </trkpt>
      <trkpt lat="37.697180700" lon="-1.767313200">
        <ele>476.000000</ele>
        <time>2014-03-29T14:47:34Z</time>
      </trkpt>
      <trkpt lat="37.697259500" lon="-1.767407600">
        <ele>476.000000</ele>
        <time>2014-03-29T14:47:35Z</time>
      </trkpt>
      <trkpt lat="37.697338700" lon="-1.767503900">
        <ele>476.000000</ele>
        <time>2014-03-29T14:47:36Z</time>
      </trkpt>
      <trkpt lat="37.697418000" lon="-1.767598600">
        <ele>475.000000</ele>
        <time>2014-03-29T14:47:37Z</time>
      </trkpt>
      <trkpt lat="37.697499600" lon="-1.767693500">
        <ele>475.000000</ele>
        <time>2014-03-29T14:47:38Z</time>
      </trkpt>
      <trkpt lat="37.697584800" lon="-1.767789300">
        <ele>475.000000</ele>
        <time>2014-03-29T14:47:39Z</time>
      </trkpt>
      <trkpt lat="37.697672900" lon="-1.767884900">
        <ele>475.000000</ele>
        <time>2014-03-29T14:47:40Z</time>
      </trkpt>
      <trkpt lat="37.697759200" lon="-1.767985500">
        <ele>475.000000</ele>
        <time>2014-03-29T14:47:41Z</time>
      </trkpt>
      <trkpt lat="37.697844100" lon="-1.768089800">
        <ele>475.000000</ele>
        <time>2014-03-29T14:47:42Z</time>
      </trkpt>
      <trkpt lat="37.697932500" lon="-1.768194300">
        <ele>475.000000</ele>
        <time>2014-03-29T14:47:43Z</time>
      </trkpt>
      <trkpt lat="37.698018400" lon="-1.768299700">
        <ele>474.000000</ele>
        <time>2014-03-29T14:47:44Z</time>
      </trkpt>
      <trkpt lat="37.698105000" lon="-1.768403200">
        <ele>474.000000</ele>
        <time>2014-03-29T14:47:45Z</time>
      </trkpt>
      <trkpt lat="37.698192600" lon="-1.768505100">
        <ele>474.000000</ele>
        <time>2014-03-29T14:47:46Z</time>
      </trkpt>
      <trkpt lat="37.698279000" lon="-1.768608000">
        <ele>474.000000</ele>
        <time>2014-03-29T14:47:47Z</time>
      </trkpt>
      <trkpt lat="37.698364200" lon="-1.768711800">
        <ele>474.000000</ele>
        <time>2014-03-29T14:47:48Z</time>
      </trkpt>
      <trkpt lat="37.698450100" lon="-1.768817900">
        <ele>474.000000</ele>
        <time>2014-03-29T14:47:49Z</time>
      </trkpt>
      <trkpt lat="37.698538400" lon="-1.768925700">
        <ele>474.000000</ele>
        <time>2014-03-29T14:47:50Z</time>
      </trkpt>
      <trkpt lat="37.698628700" lon="-1.769030900">
        <ele>474.000000</ele>
        <time>2014-03-29T14:47:51Z</time>
      </trkpt>
      <trkpt lat="37.698720300" lon="-1.769139600">
        <ele>474.000000</ele>
        <time>2014-03-29T14:47:52Z</time>
      </trkpt>
      <trkpt lat="37.698811400" lon="-1.769252200">
        <ele>474.000000</ele>
        <time>2014-03-29T14:47:53Z</time>
      </trkpt>
      <trkpt lat="37.698900800" lon="-1.769359900">
        <ele>474.000000</ele>
        <time>2014-03-29T14:47:54Z</time>
      </trkpt>
      <trkpt lat="37.698990800" lon="-1.769466300">
        <ele>474.000000</ele>
        <time>2014-03-29T14:47:55Z</time>
      </trkpt>
      <trkpt lat="37.699079000" lon="-1.769571600">
        <ele>474.000000</ele>
        <time>2014-03-29T14:47:56Z</time>
      </trkpt>
      <trkpt lat="37.699164700" lon="-1.769676100">
        <ele>474.000000</ele>
        <time>2014-03-29T14:47:57Z</time>
      </trkpt>
      <trkpt lat="37.699250100" lon="-1.769778700">
        <ele>475.000000</ele>
        <time>2014-03-29T14:47:58Z</time>
      </trkpt>
      <trkpt lat="37.699336700" lon="-1.769877300">
        <ele>475.000000</ele>
        <time>2014-03-29T14:47:59Z</time>
      </trkpt>
      <trkpt lat="37.699421300" lon="-1.769975500">
        <ele>475.000000</ele>
        <time>2014-03-29T14:48:00Z</time>
      </trkpt>
      <trkpt lat="37.699505000" lon="-1.770075600">
        <ele>475.000000</ele>
        <time>2014-03-29T14:48:01Z</time>
      </trkpt>
      <trkpt lat="37.699591000" lon="-1.770174900">
        <ele>475.000000</ele>
        <time>2014-03-29T14:48:02Z</time>
      </trkpt>
      <trkpt lat="37.699672900" lon="-1.770274300">
        <ele>475.000000</ele>
        <time>2014-03-29T14:48:03Z</time>
      </trkpt>
      <trkpt lat="37.699752600" lon="-1.770369700">
        <ele>475.000000</ele>
        <time>2014-03-29T14:48:04Z</time>
      </trkpt>
      <trkpt lat="37.699831100" lon="-1.770465200">
        <ele>475.000000</ele>
        <time>2014-03-29T14:48:05Z</time>
      </trkpt>
      <trkpt lat="37.699910600" lon="-1.770560000">
        <ele>475.000000</ele>
        <time>2014-03-29T14:48:06Z</time>
      </trkpt>
      <trkpt lat="37.699989600" lon="-1.770655800">
        <ele>476.000000</ele>
        <time>2014-03-29T14:48:07Z</time>
      </trkpt>
      <trkpt lat="37.700067200" lon="-1.770753800">
        <ele>476.000000</ele>
        <time>2014-03-29T14:48:08Z</time>
      </trkpt>
      <trkpt lat="37.700143500" lon="-1.770856000">
        <ele>476.000000</ele>
        <time>2014-03-29T14:48:09Z</time>
      </trkpt>
      <trkpt lat="37.700215500" lon="-1.770959300">
        <ele>476.000000</ele>
        <time>2014-03-29T14:48:10Z</time>
      </trkpt>
      <trkpt lat="37.700283400" lon="-1.771064700">
        <ele>476.000000</ele>
        <time>2014-03-29T14:48:11Z</time>
      </trkpt>
      <trkpt lat="37.700350200" lon="-1.771171300">
        <ele>476.000000</ele>
        <time>2014-03-29T14:48:12Z</time>
      </trkpt>
      <trkpt lat="37.700413800" lon="-1.771275300">
        <ele>476.000000</ele>
        <time>2014-03-29T14:48:13Z</time>
      </trkpt>
      <trkpt lat="37.700477900" lon="-1.771380600">
        <ele>476.000000</ele>
        <time>2014-03-29T14:48:14Z</time>
      </trkpt>
      <trkpt lat="37.700541100" lon="-1.771491200">
        <ele>476.000000</ele>
        <time>2014-03-29T14:48:15Z</time>
      </trkpt>
      <trkpt lat="37.700605500" lon="-1.771605300">
        <ele>476.000000</ele>
        <time>2014-03-29T14:48:16Z</time>
      </trkpt>
      <trkpt lat="37.700668800" lon="-1.771720400">
        <ele>476.000000</ele>
        <time>2014-03-29T14:48:17Z</time>
      </trkpt>
      <trkpt lat="37.700732200" lon="-1.771836600">
        <ele>476.000000</ele>
        <time>2014-03-29T14:48:18Z</time>
      </trkpt>
      <trkpt lat="37.700796900" lon="-1.771947300">
        <ele>476.000000</ele>
        <time>2014-03-29T14:48:19Z</time>
      </trkpt>
      <trkpt lat="37.700862800" lon="-1.772056200">
        <ele>476.000000</ele>
        <time>2014-03-29T14:48:20Z</time>
      </trkpt>
      <trkpt lat="37.700925300" lon="-1.772167000">
        <ele>476.000000</ele>
        <time>2014-03-29T14:48:21Z</time>
      </trkpt>
      <trkpt lat="37.700987100" lon="-1.772279100">
        <ele>476.000000</ele>
        <time>2014-03-29T14:48:22Z</time>
      </trkpt>
      <trkpt lat="37.701051000" lon="-1.772393000">
        <ele>476.000000</ele>
        <time>2014-03-29T14:48:23Z</time>
      </trkpt>
      <trkpt lat="37.701115000" lon="-1.772506300">
        <ele>476.000000</ele>
        <time>2014-03-29T14:48:24Z</time>
      </trkpt>
      <trkpt lat="37.701179800" lon="-1.772618300">
        <ele>476.000000</ele>
        <time>2014-03-29T14:48:25Z</time>
      </trkpt>
      <trkpt lat="37.701245200" lon="-1.772732500">
        <ele>476.000000</ele>
        <time>2014-03-29T14:48:26Z</time>
      </trkpt>
      <trkpt lat="37.701309400" lon="-1.772845700">
        <ele>476.000000</ele>
        <time>2014-03-29T14:48:27Z</time>
      </trkpt>
      <trkpt lat="37.701371400" lon="-1.772954300">
        <ele>476.000000</ele>
        <time>2014-03-29T14:48:28Z</time>
      </trkpt>
      <trkpt lat="37.701428600" lon="-1.773058000">
        <ele>476.000000</ele>
        <time>2014-03-29T14:48:29Z</time>
      </trkpt>
      <trkpt lat="37.701490300" lon="-1.773160500">
        <ele>476.000000</ele>
        <time>2014-03-29T14:48:30Z</time>
      </trkpt>
      <trkpt lat="37.701552200" lon="-1.773262900">
        <ele>476.000000</ele>
        <time>2014-03-29T14:48:31Z</time>
      </trkpt>
      <trkpt lat="37.701619000" lon="-1.773367700">
        <ele>476.000000</ele>
        <time>2014-03-29T14:48:32Z</time>
      </trkpt>
      <trkpt lat="37.701681700" lon="-1.773474600">
        <ele>476.000000</ele>
        <time>2014-03-29T14:48:33Z</time>
      </trkpt>
      <trkpt lat="37.701744200" lon="-1.773581100">
        <ele>476.000000</ele>
        <time>2014-03-29T14:48:34Z</time>
      </trkpt>
      <trkpt lat="37.701808700" lon="-1.773689500">
        <ele>476.000000</ele>
        <time>2014-03-29T14:48:35Z</time>
      </trkpt>
      <trkpt lat="37.701873600" lon="-1.773801700">
        <ele>476.000000</ele>
        <time>2014-03-29T14:48:36Z</time>
      </trkpt>
      <trkpt lat="37.701938800" lon="-1.773916500">
        <ele>476.000000</ele>
        <time>2014-03-29T14:48:37Z</time>
      </trkpt>
      <trkpt lat="37.702003400" lon="-1.774034100">
        <ele>476.000000</ele>
        <time>2014-03-29T14:48:38Z</time>
      </trkpt>
      <trkpt lat="37.702067500" lon="-1.774151300">
        <ele>476.000000</ele>
        <time>2014-03-29T14:48:39Z</time>
      </trkpt>
      <trkpt lat="37.702132200" lon="-1.774270300">
        <ele>476.000000</ele>
        <time>2014-03-29T14:48:40Z</time>
      </trkpt>
      <trkpt lat="37.702192300" lon="-1.774390500">
        <ele>476.000000</ele>
        <time>2014-03-29T14:48:41Z</time>
      </trkpt>
      <trkpt lat="37.702244100" lon="-1.774510300">
        <ele>476.000000</ele>
        <time>2014-03-29T14:48:42Z</time>
      </trkpt>
      <trkpt lat="37.702294700" lon="-1.774628000">
        <ele>476.000000</ele>
        <time>2014-03-29T14:48:43Z</time>
      </trkpt>
      <trkpt lat="37.702340200" lon="-1.774748100">
        <ele>476.000000</ele>
        <time>2014-03-29T14:48:44Z</time>
      </trkpt>
      <trkpt lat="37.702385500" lon="-1.774874500">
        <ele>477.000000</ele>
        <time>2014-03-29T14:48:45Z</time>
      </trkpt>
      <trkpt lat="37.702428200" lon="-1.775002300">
        <ele>477.000000</ele>
        <time>2014-03-29T14:48:46Z</time>
      </trkpt>
      <trkpt lat="37.702477000" lon="-1.775127200">
        <ele>477.000000</ele>
        <time>2014-03-29T14:48:47Z</time>
      </trkpt>
      <trkpt lat="37.702526300" lon="-1.775252100">
        <ele>477.000000</ele>
        <time>2014-03-29T14:48:48Z</time>
      </trkpt>
      <trkpt lat="37.702569000" lon="-1.775378000">
        <ele>477.000000</ele>
        <time>2014-03-29T14:48:49Z</time>
      </trkpt>
      <trkpt lat="37.702615600" lon="-1.775500800">
        <ele>477.000000</ele>
        <time>2014-03-29T14:48:50Z</time>
      </trkpt>
      <trkpt lat="37.702662600" lon="-1.775623800">
        <ele>477.000000</ele>
        <time>2014-03-29T14:48:51Z</time>
      </trkpt>
      <trkpt lat="37.702712400" lon="-1.775746100">
        <ele>477.000000</ele>
        <time>2014-03-29T14:48:52Z</time>
      </trkpt>
      <trkpt lat="37.702761400" lon="-1.775868000">
        <ele>477.000000</ele>
        <time>2014-03-29T14:48:53Z</time>
      </trkpt>
      <trkpt lat="37.702810000" lon="-1.775988800">
        <ele>477.000000</ele>
        <time>2014-03-29T14:48:54Z</time>
      </trkpt>
      <trkpt lat="37.702858100" lon="-1.776112600">
        <ele>477.000000</ele>
        <time>2014-03-29T14:48:55Z</time>
      </trkpt>
      <trkpt lat="37.702904700" lon="-1.776236000">
        <ele>478.000000</ele>
        <time>2014-03-29T14:48:56Z</time>
      </trkpt>
      <trkpt lat="37.702954300" lon="-1.776357200">
        <ele>478.000000</ele>
        <time>2014-03-29T14:48:57Z</time>
      </trkpt>
      <trkpt lat="37.703003600" lon="-1.776477800">
        <ele>478.000000</ele>
        <time>2014-03-29T14:48:58Z</time>
      </trkpt>
      <trkpt lat="37.703056700" lon="-1.776600600">
        <ele>478.000000</ele>
        <time>2014-03-29T14:48:59Z</time>
      </trkpt>
      <trkpt lat="37.703105800" lon="-1.776725100">
        <ele>478.000000</ele>
        <time>2014-03-29T14:49:00Z</time>
      </trkpt>
      <trkpt lat="37.703155100" lon="-1.776850600">
        <ele>478.000000</ele>
        <time>2014-03-29T14:49:01Z</time>
      </trkpt>
      <trkpt lat="37.703206500" lon="-1.776976100">
        <ele>478.000000</ele>
        <time>2014-03-29T14:49:02Z</time>
      </trkpt>
      <trkpt lat="37.703253000" lon="-1.777102800">
        <ele>478.000000</ele>
        <time>2014-03-29T14:49:03Z</time>
      </trkpt>
      <trkpt lat="37.703297200" lon="-1.777228800">
        <ele>478.000000</ele>
        <time>2014-03-29T14:49:04Z</time>
      </trkpt>
      <trkpt lat="37.703346100" lon="-1.777351800">
        <ele>478.000000</ele>
        <time>2014-03-29T14:49:05Z</time>
      </trkpt>
      <trkpt lat="37.703397800" lon="-1.777472000">
        <ele>478.000000</ele>
        <time>2014-03-29T14:49:06Z</time>
      </trkpt>
      <trkpt lat="37.703448700" lon="-1.777593700">
        <ele>479.000000</ele>
        <time>2014-03-29T14:49:07Z</time>
      </trkpt>
      <trkpt lat="37.703498600" lon="-1.777715800">
        <ele>479.000000</ele>
        <time>2014-03-29T14:49:08Z</time>
      </trkpt>
      <trkpt lat="37.703546800" lon="-1.777838100">
        <ele>479.000000</ele>
        <time>2014-03-29T14:49:09Z</time>
      </trkpt>
      <trkpt lat="37.703595100" lon="-1.777961200">
        <ele>479.000000</ele>
        <time>2014-03-29T14:49:10Z</time>
      </trkpt>
      <trkpt lat="37.703643400" lon="-1.778082800">
        <ele>479.000000</ele>
        <time>2014-03-29T14:49:11Z</time>
      </trkpt>
      <trkpt lat="37.703690500" lon="-1.778205700">
        <ele>479.000000</ele>
        <time>2014-03-29T14:49:12Z</time>
      </trkpt>
      <trkpt lat="37.703732400" lon="-1.778333100">
        <ele>479.000000</ele>
        <time>2014-03-29T14:49:13Z</time>
      </trkpt>
      <trkpt lat="37.703766700" lon="-1.778464100">
        <ele>479.000000</ele>
        <time>2014-03-29T14:49:14Z</time>
      </trkpt>
      <trkpt lat="37.703788800" lon="-1.778600000">
        <ele>479.000000</ele>
        <time>2014-03-29T14:49:15Z</time>
      </trkpt>
      <trkpt lat="37.703800800" lon="-1.778738100">
        <ele>479.000000</ele>
        <time>2014-03-29T14:49:16Z</time>
      </trkpt>
      <trkpt lat="37.703804000" lon="-1.778877500">
        <ele>480.000000</ele>
        <time>2014-03-29T14:49:17Z</time>
      </trkpt>
      <trkpt lat="37.703790500" lon="-1.779012600">
        <ele>480.000000</ele>
        <time>2014-03-29T14:49:18Z</time>
      </trkpt>
      <trkpt lat="37.703748500" lon="-1.779143800">
        <ele>480.000000</ele>
        <time>2014-03-29T14:49:19Z</time>
      </trkpt>
      <trkpt lat="37.703691100" lon="-1.779275000">
        <ele>480.000000</ele>
        <time>2014-03-29T14:49:20Z</time>
      </trkpt>
      <trkpt lat="37.703637300" lon="-1.779401800">
        <ele>480.000000</ele>
        <time>2014-03-29T14:49:21Z</time>
      </trkpt>
      <trkpt lat="37.703578200" lon="-1.779533000">
        <ele>480.000000</ele>
        <time>2014-03-29T14:49:22Z</time>
      </trkpt>
      <trkpt lat="37.703525300" lon="-1.779668400">
        <ele>481.000000</ele>
        <time>2014-03-29T14:49:23Z</time>
      </trkpt>
      <trkpt lat="37.703481000" lon="-1.779803000">
        <ele>481.000000</ele>
        <time>2014-03-29T14:49:24Z</time>
      </trkpt>
      <trkpt lat="37.703446100" lon="-1.779937800">
        <ele>481.000000</ele>
        <time>2014-03-29T14:49:25Z</time>
      </trkpt>
      <trkpt lat="37.703415500" lon="-1.780074000">
        <ele>481.000000</ele>
        <time>2014-03-29T14:49:26Z</time>
      </trkpt>
      <trkpt lat="37.703398600" lon="-1.780210600">
        <ele>481.000000</ele>
        <time>2014-03-29T14:49:27Z</time>
      </trkpt>
      <trkpt lat="37.703394200" lon="-1.780345800">
        <ele>481.000000</ele>
        <time>2014-03-29T14:49:28Z</time>
      </trkpt>
      <trkpt lat="37.703393700" lon="-1.780481800">
        <ele>481.000000</ele>
        <time>2014-03-29T14:49:29Z</time>
      </trkpt>
      <trkpt lat="37.703401200" lon="-1.780616800">
        <ele>481.000000</ele>
        <time>2014-03-29T14:49:30Z</time>
      </trkpt>
      <trkpt lat="37.703416700" lon="-1.780745300">
        <ele>482.000000</ele>
        <time>2014-03-29T14:49:31Z</time>
      </trkpt>
      <trkpt lat="37.703438200" lon="-1.780867000">
        <ele>482.000000</ele>
        <time>2014-03-29T14:49:32Z</time>
      </trkpt>
      <trkpt lat="37.703468800" lon="-1.780981400">
        <ele>482.000000</ele>
        <time>2014-03-29T14:49:33Z</time>
      </trkpt>
      <trkpt lat="37.703506800" lon="-1.781091400">
        <ele>482.000000</ele>
        <time>2014-03-29T14:49:34Z</time>
      </trkpt>
      <trkpt lat="37.703548500" lon="-1.781194800">
        <ele>482.000000</ele>
        <time>2014-03-29T14:49:35Z</time>
      </trkpt>
      <trkpt lat="37.703592100" lon="-1.781296700">
        <ele>482.000000</ele>
        <time>2014-03-29T14:49:36Z</time>
      </trkpt>
      <trkpt lat="37.703634300" lon="-1.781397500">
        <ele>482.000000</ele>
        <time>2014-03-29T14:49:37Z</time>
      </trkpt>
      <trkpt lat="37.703670000" lon="-1.781500000">
        <ele>482.000000</ele>
        <time>2014-03-29T14:49:38Z</time>
      </trkpt>
      <trkpt lat="37.703696500" lon="-1.781607200">
        <ele>482.000000</ele>
        <time>2014-03-29T14:49:39Z</time>
      </trkpt>
      <trkpt lat="37.703717700" lon="-1.781714800">
        <ele>483.000000</ele>
        <time>2014-03-29T14:49:40Z</time>
      </trkpt>
      <trkpt lat="37.703737000" lon="-1.781823600">
        <ele>483.000000</ele>
        <time>2014-03-29T14:49:41Z</time>
      </trkpt>
      <trkpt lat="37.703758000" lon="-1.781932100">
        <ele>483.000000</ele>
        <time>2014-03-29T14:49:42Z</time>
      </trkpt>
      <trkpt lat="37.703784500" lon="-1.782037800">
        <ele>483.000000</ele>
        <time>2014-03-29T14:49:43Z</time>
      </trkpt>
      <trkpt lat="37.703813600" lon="-1.782145900">
        <ele>484.000000</ele>
        <time>2014-03-29T14:49:44Z</time>
      </trkpt>
      <trkpt lat="37.703845600" lon="-1.782252200">
        <ele>484.000000</ele>
        <time>2014-03-29T14:49:45Z</time>
      </trkpt>
      <trkpt lat="37.703874700" lon="-1.782357900">
        <ele>484.000000</ele>
        <time>2014-03-29T14:49:46Z</time>
      </trkpt>
      <trkpt lat="37.703904300" lon="-1.782460900">
        <ele>485.000000</ele>
        <time>2014-03-29T14:49:47Z</time>
      </trkpt>
      <trkpt lat="37.703934600" lon="-1.782569400">
        <ele>485.000000</ele>
        <time>2014-03-29T14:49:48Z</time>
      </trkpt>
      <trkpt lat="37.703966100" lon="-1.782675200">
        <ele>485.000000</ele>
        <time>2014-03-29T14:49:49Z</time>
      </trkpt>
      <trkpt lat="37.703994300" lon="-1.782778000">
        <ele>485.000000</ele>
        <time>2014-03-29T14:49:50Z</time>
      </trkpt>
      <trkpt lat="37.704028500" lon="-1.782881300">
        <ele>486.000000</ele>
        <time>2014-03-29T14:49:51Z</time>
      </trkpt>
      <trkpt lat="37.704065600" lon="-1.782983400">
        <ele>486.000000</ele>
        <time>2014-03-29T14:49:52Z</time>
      </trkpt>
      <trkpt lat="37.704103700" lon="-1.783084400">
        <ele>487.000000</ele>
        <time>2014-03-29T14:49:53Z</time>
      </trkpt>
      <trkpt lat="37.704142800" lon="-1.783186200">
        <ele>487.000000</ele>
        <time>2014-03-29T14:49:54Z</time>
      </trkpt>
      <trkpt lat="37.704182200" lon="-1.783286400">
        <ele>487.000000</ele>
        <time>2014-03-29T14:49:55Z</time>
      </trkpt>
      <trkpt lat="37.704223200" lon="-1.783387300">
        <ele>488.000000</ele>
        <time>2014-03-29T14:49:56Z</time>
      </trkpt>
      <trkpt lat="37.704264000" lon="-1.783488800">
        <ele>488.000000</ele>
        <time>2014-03-29T14:49:57Z</time>
      </trkpt>
      <trkpt lat="37.704301100" lon="-1.783589200">
        <ele>488.000000</ele>
        <time>2014-03-29T14:49:58Z</time>
      </trkpt>
      <trkpt lat="37.704340600" lon="-1.783690500">
        <ele>488.000000</ele>
        <time>2014-03-29T14:49:59Z</time>
      </trkpt>
      <trkpt lat="37.704377900" lon="-1.783794400">
        <ele>489.000000</ele>
        <time>2014-03-29T14:50:00Z</time>
      </trkpt>
      <trkpt lat="37.704420200" lon="-1.783893800">
        <ele>489.000000</ele>
        <time>2014-03-29T14:50:01Z</time>
      </trkpt>
      <trkpt lat="37.704465800" lon="-1.783991200">
        <ele>489.000000</ele>
        <time>2014-03-29T14:50:02Z</time>
      </trkpt>
      <trkpt lat="37.704521000" lon="-1.784083800">
        <ele>489.000000</ele>
        <time>2014-03-29T14:50:03Z</time>
      </trkpt>
      <trkpt lat="37.704575100" lon="-1.784173500">
        <ele>490.000000</ele>
        <time>2014-03-29T14:50:04Z</time>
      </trkpt>
      <trkpt lat="37.704635200" lon="-1.784260100">
        <ele>490.000000</ele>
        <time>2014-03-29T14:50:05Z</time>
      </trkpt>
      <trkpt lat="37.704696400" lon="-1.784347600">
        <ele>490.000000</ele>
        <time>2014-03-29T14:50:06Z</time>
      </trkpt>
      <trkpt lat="37.704759200" lon="-1.784429000">
        <ele>490.000000</ele>
        <time>2014-03-29T14:50:07Z</time>
      </trkpt>
      <trkpt lat="37.704822000" lon="-1.784509900">
        <ele>490.000000</ele>
        <time>2014-03-29T14:50:08Z</time>
      </trkpt>
      <trkpt lat="37.704886500" lon="-1.784589900">
        <ele>490.000000</ele>
        <time>2014-03-29T14:50:09Z</time>
      </trkpt>
      <trkpt lat="37.704963100" lon="-1.784662800">
        <ele>491.000000</ele>
        <time>2014-03-29T14:50:10Z</time>
      </trkpt>
      <trkpt lat="37.705032600" lon="-1.784736000">
        <ele>491.000000</ele>
        <time>2014-03-29T14:50:11Z</time>
      </trkpt>
      <trkpt lat="37.705099100" lon="-1.784809100">
        <ele>491.000000</ele>
        <time>2014-03-29T14:50:12Z</time>
      </trkpt>
      <trkpt lat="37.705175200" lon="-1.784876600">
        <ele>491.000000</ele>
        <time>2014-03-29T14:50:13Z</time>
      </trkpt>
      <trkpt lat="37.705241000" lon="-1.784947500">
        <ele>491.000000</ele>
        <time>2014-03-29T14:50:14Z</time>
      </trkpt>
      <trkpt lat="37.705311000" lon="-1.785015100">
        <ele>491.000000</ele>
        <time>2014-03-29T14:50:15Z</time>
      </trkpt>
      <trkpt lat="37.705379000" lon="-1.785081500">
        <ele>491.000000</ele>
        <time>2014-03-29T14:50:16Z</time>
      </trkpt>
      <trkpt lat="37.705444500" lon="-1.785145900">
        <ele>492.000000</ele>
        <time>2014-03-29T14:50:17Z</time>
      </trkpt>
      <trkpt lat="37.705508800" lon="-1.785207700">
        <ele>492.000000</ele>
        <time>2014-03-29T14:50:18Z</time>
      </trkpt>
      <trkpt lat="37.705567600" lon="-1.785272200">
        <ele>492.000000</ele>
        <time>2014-03-29T14:50:19Z</time>
      </trkpt>
      <trkpt lat="37.705615400" lon="-1.785343800">
        <ele>493.000000</ele>
        <time>2014-03-29T14:50:20Z</time>
      </trkpt>
      <trkpt lat="37.705653900" lon="-1.785418200">
        <ele>493.000000</ele>
        <time>2014-03-29T14:50:21Z</time>
      </trkpt>
      <trkpt lat="37.705689600" lon="-1.785492900">
        <ele>493.000000</ele>
        <time>2014-03-29T14:50:22Z</time>
      </trkpt>
      <trkpt lat="37.705716300" lon="-1.785569800">
        <ele>494.000000</ele>
        <time>2014-03-29T14:50:23Z</time>
      </trkpt>
      <trkpt lat="37.705737200" lon="-1.785650900">
        <ele>494.000000</ele>
        <time>2014-03-29T14:50:24Z</time>
      </trkpt>
      <trkpt lat="37.705749900" lon="-1.785735700">
        <ele>495.000000</ele>
        <time>2014-03-29T14:50:25Z</time>
      </trkpt>
      <trkpt lat="37.705757700" lon="-1.785825700">
        <ele>495.000000</ele>
        <time>2014-03-29T14:50:26Z</time>
      </trkpt>
      <trkpt lat="37.705757400" lon="-1.785918400">
        <ele>496.000000</ele>
        <time>2014-03-29T14:50:27Z</time>
      </trkpt>
      <trkpt lat="37.705759200" lon="-1.786011800">
        <ele>496.000000</ele>
        <time>2014-03-29T14:50:28Z</time>
      </trkpt>
      <trkpt lat="37.705760000" lon="-1.786104700">
        <ele>497.000000</ele>
        <time>2014-03-29T14:50:29Z</time>
      </trkpt>
      <trkpt lat="37.705759600" lon="-1.786195800">
        <ele>497.000000</ele>
        <time>2014-03-29T14:50:30Z</time>
      </trkpt>
      <trkpt lat="37.705757600" lon="-1.786287400">
        <ele>498.000000</ele>
        <time>2014-03-29T14:50:31Z</time>
      </trkpt>
      <trkpt lat="37.705753400" lon="-1.786381500">
        <ele>499.000000</ele>
        <time>2014-03-29T14:50:32Z</time>
      </trkpt>
      <trkpt lat="37.705749800" lon="-1.786475000">
        <ele>499.000000</ele>
        <time>2014-03-29T14:50:33Z</time>
      </trkpt>
      <trkpt lat="37.705747500" lon="-1.786567500">
        <ele>500.000000</ele>
        <time>2014-03-29T14:50:34Z</time>
      </trkpt>
      <trkpt lat="37.705746500" lon="-1.786661400">
        <ele>500.000000</ele>
        <time>2014-03-29T14:50:35Z</time>
      </trkpt>
      <trkpt lat="37.705747800" lon="-1.786752000">
        <ele>501.000000</ele>
        <time>2014-03-29T14:50:36Z</time>
      </trkpt>
      <trkpt lat="37.705751000" lon="-1.786842400">
        <ele>501.000000</ele>
        <time>2014-03-29T14:50:37Z</time>
      </trkpt>
      <trkpt lat="37.705754800" lon="-1.786931700">
        <ele>502.000000</ele>
        <time>2014-03-29T14:50:38Z</time>
      </trkpt>
      <trkpt lat="37.705760200" lon="-1.787020100">
        <ele>502.000000</ele>
        <time>2014-03-29T14:50:39Z</time>
      </trkpt>
      <trkpt lat="37.705767800" lon="-1.787111400">
        <ele>503.000000</ele>
        <time>2014-03-29T14:50:40Z</time>
      </trkpt>
      <trkpt lat="37.705780400" lon="-1.787201800">
        <ele>503.000000</ele>
        <time>2014-03-29T14:50:41Z</time>
      </trkpt>
      <trkpt lat="37.705795500" lon="-1.787288800">
        <ele>504.000000</ele>
        <time>2014-03-29T14:50:42Z</time>
      </trkpt>
      <trkpt lat="37.705811500" lon="-1.787380600">
        <ele>504.000000</ele>
        <time>2014-03-29T14:50:43Z</time>
      </trkpt>
      <trkpt lat="37.705827100" lon="-1.787474300">
        <ele>505.000000</ele>
        <time>2014-03-29T14:50:44Z</time>
      </trkpt>
      <trkpt lat="37.705837500" lon="-1.787558700">
        <ele>505.000000</ele>
        <time>2014-03-29T14:50:45Z</time>
      </trkpt>
      <trkpt lat="37.705853500" lon="-1.787647000">
        <ele>506.000000</ele>
        <time>2014-03-29T14:50:46Z</time>
      </trkpt>
      <trkpt lat="37.705869700" lon="-1.787736400">
        <ele>506.000000</ele>
        <time>2014-03-29T14:50:47Z</time>
      </trkpt>
      <trkpt lat="37.705881500" lon="-1.787826100">
        <ele>507.000000</ele>
        <time>2014-03-29T14:50:48Z</time>
      </trkpt>
      <trkpt lat="37.705891500" lon="-1.787916300">
        <ele>507.000000</ele>
        <time>2014-03-29T14:50:49Z</time>
      </trkpt>
      <trkpt lat="37.705902800" lon="-1.788006100">
        <ele>508.000000</ele>
        <time>2014-03-29T14:50:50Z</time>
      </trkpt>
      <trkpt lat="37.705910800" lon="-1.788093700">
        <ele>508.000000</ele>
        <time>2014-03-29T14:50:51Z</time>
      </trkpt>
      <trkpt lat="37.705913900" lon="-1.788177800">
        <ele>509.000000</ele>
        <time>2014-03-29T14:50:52Z</time>
      </trkpt>
      <trkpt lat="37.705911600" lon="-1.788260300">
        <ele>509.000000</ele>
        <time>2014-03-29T14:50:53Z</time>
      </trkpt>
      <trkpt lat="37.705906000" lon="-1.788342900">
        <ele>510.000000</ele>
        <time>2014-03-29T14:50:54Z</time>
      </trkpt>
      <trkpt lat="37.705892700" lon="-1.788424700">
        <ele>510.000000</ele>
        <time>2014-03-29T14:50:55Z</time>
      </trkpt>
      <trkpt lat="37.705873100" lon="-1.788503700">
        <ele>510.000000</ele>
        <time>2014-03-29T14:50:56Z</time>
      </trkpt>
      <trkpt lat="37.705851900" lon="-1.788583900">
        <ele>511.000000</ele>
        <time>2014-03-29T14:50:57Z</time>
      </trkpt>
      <trkpt lat="37.705830700" lon="-1.788663300">
        <ele>511.000000</ele>
        <time>2014-03-29T14:50:58Z</time>
      </trkpt>
      <trkpt lat="37.705803300" lon="-1.788738600">
        <ele>512.000000</ele>
        <time>2014-03-29T14:50:59Z</time>
      </trkpt>
      <trkpt lat="37.705769500" lon="-1.788809600">
        <ele>512.000000</ele>
        <time>2014-03-29T14:51:00Z</time>
      </trkpt>
      <trkpt lat="37.705733200" lon="-1.788876500">
        <ele>513.000000</ele>
        <time>2014-03-29T14:51:01Z</time>
      </trkpt>
      <trkpt lat="37.705696100" lon="-1.788944300">
        <ele>513.000000</ele>
        <time>2014-03-29T14:51:02Z</time>
      </trkpt>
      <trkpt lat="37.705654400" lon="-1.789010100">
        <ele>514.000000</ele>
        <time>2014-03-29T14:51:03Z</time>
      </trkpt>
      <trkpt lat="37.705609800" lon="-1.789077000">
        <ele>514.000000</ele>
        <time>2014-03-29T14:51:04Z</time>
      </trkpt>
      <trkpt lat="37.705563900" lon="-1.789146200">
        <ele>515.000000</ele>
        <time>2014-03-29T14:51:05Z</time>
      </trkpt>
      <trkpt lat="37.705516300" lon="-1.789215700">
        <ele>515.000000</ele>
        <time>2014-03-29T14:51:06Z</time>
      </trkpt>
      <trkpt lat="37.705468200" lon="-1.789284600">
        <ele>516.000000</ele>
        <time>2014-03-29T14:51:07Z</time>
      </trkpt>
      <trkpt lat="37.705422400" lon="-1.789354100">
        <ele>516.000000</ele>
        <time>2014-03-29T14:51:08Z</time>
      </trkpt>
      <trkpt lat="37.705376100" lon="-1.789427400">
        <ele>517.000000</ele>
        <time>2014-03-29T14:51:09Z</time>
      </trkpt>
      <trkpt lat="37.705331800" lon="-1.789506900">
        <ele>517.000000</ele>
        <time>2014-03-29T14:51:10Z</time>
      </trkpt>
      <trkpt lat="37.705294300" lon="-1.789589400">
        <ele>518.000000</ele>
        <time>2014-03-29T14:51:11Z</time>
      </trkpt>
      <trkpt lat="37.705266200" lon="-1.789670700">
        <ele>518.000000</ele>
        <time>2014-03-29T14:51:12Z</time>
      </trkpt>
      <trkpt lat="37.705240300" lon="-1.789756300">
        <ele>519.000000</ele>
        <time>2014-03-29T14:51:13Z</time>
      </trkpt>
      <trkpt lat="37.705217000" lon="-1.789844500">
        <ele>519.000000</ele>
        <time>2014-03-29T14:51:14Z</time>
      </trkpt>
      <trkpt lat="37.705196200" lon="-1.789938300">
        <ele>520.000000</ele>
        <time>2014-03-29T14:51:15Z</time>
      </trkpt>
      <trkpt lat="37.705179500" lon="-1.790031900">
        <ele>520.000000</ele>
        <time>2014-03-29T14:51:16Z</time>
      </trkpt>
      <trkpt lat="37.705165900" lon="-1.790124500">
        <ele>521.000000</ele>
        <time>2014-03-29T14:51:17Z</time>
      </trkpt>
      <trkpt lat="37.705153800" lon="-1.790216000">
        <ele>521.000000</ele>
        <time>2014-03-29T14:51:18Z</time>
      </trkpt>
      <trkpt lat="37.705153500" lon="-1.790306700">
        <ele>521.000000</ele>
        <time>2014-03-29T14:51:19Z</time>
      </trkpt>
      <trkpt lat="37.705154700" lon="-1.790399500">
        <ele>522.000000</ele>
        <time>2014-03-29T14:51:20Z</time>
      </trkpt>
      <trkpt lat="37.705161700" lon="-1.790494200">
        <ele>522.000000</ele>
        <time>2014-03-29T14:51:21Z</time>
      </trkpt>
      <trkpt lat="37.705170700" lon="-1.790587900">
        <ele>523.000000</ele>
        <time>2014-03-29T14:51:22Z</time>
      </trkpt>
      <trkpt lat="37.705188900" lon="-1.790676200">
        <ele>523.000000</ele>
        <time>2014-03-29T14:51:23Z</time>
      </trkpt>
      <trkpt lat="37.705217600" lon="-1.790764500">
        <ele>523.000000</ele>
        <time>2014-03-29T14:51:24Z</time>
      </trkpt>
      <trkpt lat="37.705248700" lon="-1.790851800">
        <ele>524.000000</ele>
        <time>2014-03-29T14:51:25Z</time>
      </trkpt>
      <trkpt lat="37.705285800" lon="-1.790942700">
        <ele>524.000000</ele>
        <time>2014-03-29T14:51:26Z</time>
      </trkpt>
      <trkpt lat="37.705328000" lon="-1.791034500">
        <ele>524.000000</ele>
        <time>2014-03-29T14:51:27Z</time>
      </trkpt>
      <trkpt lat="37.705371100" lon="-1.791124400">
        <ele>525.000000</ele>
        <time>2014-03-29T14:51:28Z</time>
      </trkpt>
      <trkpt lat="37.705418100" lon="-1.791216000">
        <ele>525.000000</ele>
        <time>2014-03-29T14:51:29Z</time>
      </trkpt>
      <trkpt lat="37.705460200" lon="-1.791311300">
        <ele>525.000000</ele>
        <time>2014-03-29T14:51:30Z</time>
      </trkpt>
      <trkpt lat="37.705505500" lon="-1.791414300">
        <ele>525.000000</ele>
        <time>2014-03-29T14:51:31Z</time>
      </trkpt>
      <trkpt lat="37.705553000" lon="-1.791518400">
        <ele>526.000000</ele>
        <time>2014-03-29T14:51:32Z</time>
      </trkpt>
      <trkpt lat="37.705608200" lon="-1.791625800">
        <ele>526.000000</ele>
        <time>2014-03-29T14:51:33Z</time>
      </trkpt>
      <trkpt lat="37.705665800" lon="-1.791736800">
        <ele>526.000000</ele>
        <time>2014-03-29T14:51:34Z</time>
      </trkpt>
      <trkpt lat="37.705720400" lon="-1.791850400">
        <ele>526.000000</ele>
        <time>2014-03-29T14:51:35Z</time>
      </trkpt>
      <trkpt lat="37.705779500" lon="-1.791966400">
        <ele>527.000000</ele>
        <time>2014-03-29T14:51:36Z</time>
      </trkpt>
      <trkpt lat="37.705845500" lon="-1.792079700">
        <ele>527.000000</ele>
        <time>2014-03-29T14:51:37Z</time>
      </trkpt>
      <trkpt lat="37.705919000" lon="-1.792191800">
        <ele>527.000000</ele>
        <time>2014-03-29T14:51:38Z</time>
      </trkpt>
      <trkpt lat="37.706006200" lon="-1.792306400">
        <ele>527.000000</ele>
        <time>2014-03-29T14:51:39Z</time>
      </trkpt>
      <trkpt lat="37.706100500" lon="-1.792419900">
        <ele>527.000000</ele>
        <time>2014-03-29T14:51:40Z</time>
      </trkpt>
      <trkpt lat="37.706209800" lon="-1.792524200">
        <ele>527.000000</ele>
        <time>2014-03-29T14:51:41Z</time>
      </trkpt>
      <trkpt lat="37.706337400" lon="-1.792625000">
        <ele>527.000000</ele>
        <time>2014-03-29T14:51:42Z</time>
      </trkpt>
      <trkpt lat="37.706472800" lon="-1.792713600">
        <ele>526.000000</ele>
        <time>2014-03-29T14:51:43Z</time>
      </trkpt>
      <trkpt lat="37.706622100" lon="-1.792780400">
        <ele>526.000000</ele>
        <time>2014-03-29T14:51:44Z</time>
      </trkpt>
      <trkpt lat="37.706776700" lon="-1.792841100">
        <ele>526.000000</ele>
        <time>2014-03-29T14:51:45Z</time>
      </trkpt>
      <trkpt lat="37.706933300" lon="-1.792903300">
        <ele>525.000000</ele>
        <time>2014-03-29T14:51:46Z</time>
      </trkpt>
      <trkpt lat="37.707087900" lon="-1.792960800">
        <ele>524.000000</ele>
        <time>2014-03-29T14:51:47Z</time>
      </trkpt>
      <trkpt lat="37.707234500" lon="-1.793026900">
        <ele>524.000000</ele>
        <time>2014-03-29T14:51:48Z</time>
      </trkpt>
      <trkpt lat="37.707376000" lon="-1.793117000">
        <ele>523.000000</ele>
        <time>2014-03-29T14:51:49Z</time>
      </trkpt>
      <trkpt lat="37.707497800" lon="-1.793239000">
        <ele>522.000000</ele>
        <time>2014-03-29T14:51:50Z</time>
      </trkpt>
      <trkpt lat="37.707608300" lon="-1.793386100">
        <ele>521.000000</ele>
        <time>2014-03-29T14:51:51Z</time>
      </trkpt>
      <trkpt lat="37.707711300" lon="-1.793545900">
        <ele>520.000000</ele>
        <time>2014-03-29T14:51:52Z</time>
      </trkpt>
      <trkpt lat="37.707812600" lon="-1.793708800">
        <ele>519.000000</ele>
        <time>2014-03-29T14:51:53Z</time>
      </trkpt>
      <trkpt lat="37.707909700" lon="-1.793882400">
        <ele>518.000000</ele>
        <time>2014-03-29T14:51:54Z</time>
      </trkpt>
      <trkpt lat="37.708003500" lon="-1.794052800">
        <ele>517.000000</ele>
        <time>2014-03-29T14:51:55Z</time>
      </trkpt>
      <trkpt lat="37.708099300" lon="-1.794219200">
        <ele>516.000000</ele>
        <time>2014-03-29T14:51:56Z</time>
      </trkpt>
      <trkpt lat="37.708207800" lon="-1.794375900">
        <ele>515.000000</ele>
        <time>2014-03-29T14:51:57Z</time>
      </trkpt>
      <trkpt lat="37.708323400" lon="-1.794517400">
        <ele>514.000000</ele>
        <time>2014-03-29T14:51:58Z</time>
      </trkpt>
      <trkpt lat="37.708446400" lon="-1.794646500">
        <ele>512.000000</ele>
        <time>2014-03-29T14:51:59Z</time>
      </trkpt>
      <trkpt lat="37.708599500" lon="-1.794738800">
        <ele>511.000000</ele>
        <time>2014-03-29T14:52:00Z</time>
      </trkpt>
      <trkpt lat="37.708766300" lon="-1.794779200">
        <ele>510.000000</ele>
        <time>2014-03-29T14:52:01Z</time>
      </trkpt>
      <trkpt lat="37.708924700" lon="-1.794755700">
        <ele>509.000000</ele>
        <time>2014-03-29T14:52:02Z</time>
      </trkpt>
      <trkpt lat="37.709091500" lon="-1.794712600">
        <ele>508.000000</ele>
        <time>2014-03-29T14:52:03Z</time>
      </trkpt>
      <trkpt lat="37.709257500" lon="-1.794668600">
        <ele>507.000000</ele>
        <time>2014-03-29T14:52:04Z</time>
      </trkpt>
      <trkpt lat="37.709415200" lon="-1.794618300">
        <ele>506.000000</ele>
        <time>2014-03-29T14:52:05Z</time>
      </trkpt>
      <trkpt lat="37.709575200" lon="-1.794568200">
        <ele>505.000000</ele>
        <time>2014-03-29T14:52:06Z</time>
      </trkpt>
      <trkpt lat="37.709729300" lon="-1.794518100">
        <ele>505.000000</ele>
        <time>2014-03-29T14:52:07Z</time>
      </trkpt>
      <trkpt lat="37.709880200" lon="-1.794459900">
        <ele>504.000000</ele>
        <time>2014-03-29T14:52:08Z</time>
      </trkpt>
      <trkpt lat="37.710031800" lon="-1.794395600">
        <ele>503.000000</ele>
        <time>2014-03-29T14:52:09Z</time>
      </trkpt>
      <trkpt lat="37.710181700" lon="-1.794336300">
        <ele>503.000000</ele>
        <time>2014-03-29T14:52:10Z</time>
      </trkpt>
      <trkpt lat="37.710335800" lon="-1.794287500">
        <ele>502.000000</ele>
        <time>2014-03-29T14:52:11Z</time>
      </trkpt>
      <trkpt lat="37.710494700" lon="-1.794255400">
        <ele>501.000000</ele>
        <time>2014-03-29T14:52:12Z</time>
      </trkpt>
      <trkpt lat="37.710650800" lon="-1.794245900">
        <ele>501.000000</ele>
        <time>2014-03-29T14:52:13Z</time>
      </trkpt>
      <trkpt lat="37.710811200" lon="-1.794255400">
        <ele>500.000000</ele>
        <time>2014-03-29T14:52:14Z</time>
      </trkpt>
      <trkpt lat="37.710974600" lon="-1.794285400">
        <ele>500.000000</ele>
        <time>2014-03-29T14:52:15Z</time>
      </trkpt>
      <trkpt lat="37.711125000" lon="-1.794335200">
        <ele>499.000000</ele>
        <time>2014-03-29T14:52:16Z</time>
      </trkpt>
      <trkpt lat="37.711277800" lon="-1.794401600">
        <ele>499.000000</ele>
        <time>2014-03-29T14:52:17Z</time>
      </trkpt>
      <trkpt lat="37.711424600" lon="-1.794482000">
        <ele>498.000000</ele>
        <time>2014-03-29T14:52:18Z</time>
      </trkpt>
      <trkpt lat="37.711567200" lon="-1.794570200">
        <ele>498.000000</ele>
        <time>2014-03-29T14:52:19Z</time>
      </trkpt>
      <trkpt lat="37.711696600" lon="-1.794662400">
        <ele>498.000000</ele>
        <time>2014-03-29T14:52:20Z</time>
      </trkpt>
      <trkpt lat="37.711832600" lon="-1.794746600">
        <ele>497.000000</ele>
        <time>2014-03-29T14:52:21Z</time>
      </trkpt>
      <trkpt lat="37.711970700" lon="-1.794828200">
        <ele>497.000000</ele>
        <time>2014-03-29T14:52:22Z</time>
      </trkpt>
      <trkpt lat="37.712107900" lon="-1.794907300">
        <ele>497.000000</ele>
        <time>2014-03-29T14:52:23Z</time>
      </trkpt>
      <trkpt lat="37.712240600" lon="-1.794983500">
        <ele>497.000000</ele>
        <time>2014-03-29T14:52:24Z</time>
      </trkpt>
      <trkpt lat="37.712370400" lon="-1.795059800">
        <ele>497.000000</ele>
        <time>2014-03-29T14:52:25Z</time>
      </trkpt>
      <trkpt lat="37.712497900" lon="-1.795134200">
        <ele>496.000000</ele>
        <time>2014-03-29T14:52:26Z</time>
      </trkpt>
      <trkpt lat="37.712625200" lon="-1.795208200">
        <ele>496.000000</ele>
        <time>2014-03-29T14:52:27Z</time>
      </trkpt>
      <trkpt lat="37.712749800" lon="-1.795285400">
        <ele>496.000000</ele>
        <time>2014-03-29T14:52:28Z</time>
      </trkpt>
      <trkpt lat="37.712864900" lon="-1.795365800">
        <ele>496.000000</ele>
        <time>2014-03-29T14:52:29Z</time>
      </trkpt>
      <trkpt lat="37.712982200" lon="-1.795442100">
        <ele>496.000000</ele>
        <time>2014-03-29T14:52:30Z</time>
      </trkpt>
      <trkpt lat="37.713096900" lon="-1.795519700">
        <ele>496.000000</ele>
        <time>2014-03-29T14:52:31Z</time>
      </trkpt>
      <trkpt lat="37.713205700" lon="-1.795599800">
        <ele>496.000000</ele>
        <time>2014-03-29T14:52:32Z</time>
      </trkpt>
      <trkpt lat="37.713314100" lon="-1.795679500">
        <ele>496.000000</ele>
        <time>2014-03-29T14:52:33Z</time>
      </trkpt>
      <trkpt lat="37.713423800" lon="-1.795759000">
        <ele>496.000000</ele>
        <time>2014-03-29T14:52:34Z</time>
      </trkpt>
      <trkpt lat="37.713536100" lon="-1.795836800">
        <ele>496.000000</ele>
        <time>2014-03-29T14:52:35Z</time>
      </trkpt>
      <trkpt lat="37.713646600" lon="-1.795912400">
        <ele>496.000000</ele>
        <time>2014-03-29T14:52:36Z</time>
      </trkpt>
      <trkpt lat="37.713759100" lon="-1.795984900">
        <ele>496.000000</ele>
        <time>2014-03-29T14:52:37Z</time>
      </trkpt>
      <trkpt lat="37.713865600" lon="-1.796058800">
        <ele>497.000000</ele>
        <time>2014-03-29T14:52:38Z</time>
      </trkpt>
      <trkpt lat="37.713970200" lon="-1.796133600">
        <ele>497.000000</ele>
        <time>2014-03-29T14:52:39Z</time>
      </trkpt>
      <trkpt lat="37.714077500" lon="-1.796206700">
        <ele>497.000000</ele>
        <time>2014-03-29T14:52:40Z</time>
      </trkpt>
      <trkpt lat="37.714185900" lon="-1.796278100">
        <ele>497.000000</ele>
        <time>2014-03-29T14:52:41Z</time>
      </trkpt>
      <trkpt lat="37.714287700" lon="-1.796350400">
        <ele>497.000000</ele>
        <time>2014-03-29T14:52:42Z</time>
      </trkpt>
      <trkpt lat="37.714385800" lon="-1.796424500">
        <ele>497.000000</ele>
        <time>2014-03-29T14:52:43Z</time>
      </trkpt>
      <trkpt lat="37.714478300" lon="-1.796505300">
        <ele>497.000000</ele>
        <time>2014-03-29T14:52:44Z</time>
      </trkpt>
      <trkpt lat="37.714565500" lon="-1.796592300">
        <ele>497.000000</ele>
        <time>2014-03-29T14:52:45Z</time>
      </trkpt>
      <trkpt lat="37.714650700" lon="-1.796683600">
        <ele>497.000000</ele>
        <time>2014-03-29T14:52:46Z</time>
      </trkpt>
      <trkpt lat="37.714730100" lon="-1.796780800">
        <ele>497.000000</ele>
        <time>2014-03-29T14:52:47Z</time>
      </trkpt>
      <trkpt lat="37.714809300" lon="-1.796880300">
        <ele>498.000000</ele>
        <time>2014-03-29T14:52:48Z</time>
      </trkpt>
      <trkpt lat="37.714885100" lon="-1.796978300">
        <ele>498.000000</ele>
        <time>2014-03-29T14:52:49Z</time>
      </trkpt>
      <trkpt lat="37.714960200" lon="-1.797076500">
        <ele>498.000000</ele>
        <time>2014-03-29T14:52:50Z</time>
      </trkpt>
      <trkpt lat="37.715032600" lon="-1.797173200">
        <ele>498.000000</ele>
        <time>2014-03-29T14:52:51Z</time>
      </trkpt>
      <trkpt lat="37.715105200" lon="-1.797270100">
        <ele>498.000000</ele>
        <time>2014-03-29T14:52:52Z</time>
      </trkpt>
      <trkpt lat="37.715176700" lon="-1.797367700">
        <ele>498.000000</ele>
        <time>2014-03-29T14:52:53Z</time>
      </trkpt>
      <trkpt lat="37.715241100" lon="-1.797467900">
        <ele>498.000000</ele>
        <time>2014-03-29T14:52:54Z</time>
      </trkpt>
      <trkpt lat="37.715304100" lon="-1.797575200">
        <ele>498.000000</ele>
        <time>2014-03-29T14:52:55Z</time>
      </trkpt>
      <trkpt lat="37.715357400" lon="-1.797682600">
        <ele>499.000000</ele>
        <time>2014-03-29T14:52:56Z</time>
      </trkpt>
      <trkpt lat="37.715405300" lon="-1.797788600">
        <ele>499.000000</ele>
        <time>2014-03-29T14:52:57Z</time>
      </trkpt>
      <trkpt lat="37.715445300" lon="-1.797897200">
        <ele>499.000000</ele>
        <time>2014-03-29T14:52:58Z</time>
      </trkpt>
      <trkpt lat="37.715479200" lon="-1.798004700">
        <ele>499.000000</ele>
        <time>2014-03-29T14:52:59Z</time>
      </trkpt>
      <trkpt lat="37.715509500" lon="-1.798111500">
        <ele>500.000000</ele>
        <time>2014-03-29T14:53:00Z</time>
      </trkpt>
      <trkpt lat="37.715533500" lon="-1.798217400">
        <ele>500.000000</ele>
        <time>2014-03-29T14:53:01Z</time>
      </trkpt>
      <trkpt lat="37.715556400" lon="-1.798322800">
        <ele>500.000000</ele>
        <time>2014-03-29T14:53:02Z</time>
      </trkpt>
      <trkpt lat="37.715575000" lon="-1.798428900">
        <ele>501.000000</ele>
        <time>2014-03-29T14:53:03Z</time>
      </trkpt>
      <trkpt lat="37.715588100" lon="-1.798534200">
        <ele>501.000000</ele>
        <time>2014-03-29T14:53:04Z</time>
      </trkpt>
      <trkpt lat="37.715600700" lon="-1.798638000">
        <ele>501.000000</ele>
        <time>2014-03-29T14:53:05Z</time>
      </trkpt>
      <trkpt lat="37.715612100" lon="-1.798741200">
        <ele>502.000000</ele>
        <time>2014-03-29T14:53:06Z</time>
      </trkpt>
      <trkpt lat="37.715625900" lon="-1.798842700">
        <ele>502.000000</ele>
        <time>2014-03-29T14:53:07Z</time>
      </trkpt>
      <trkpt lat="37.715634400" lon="-1.798945000">
        <ele>503.000000</ele>
        <time>2014-03-29T14:53:08Z</time>
      </trkpt>
      <trkpt lat="37.715642400" lon="-1.799041900">
        <ele>503.000000</ele>
        <time>2014-03-29T14:53:09Z</time>
      </trkpt>
      <trkpt lat="37.715654900" lon="-1.799136600">
        <ele>503.000000</ele>
        <time>2014-03-29T14:53:10Z</time>
      </trkpt>
      <trkpt lat="37.715670300" lon="-1.799230600">
        <ele>504.000000</ele>
        <time>2014-03-29T14:53:11Z</time>
      </trkpt>
      <trkpt lat="37.715684900" lon="-1.799323900">
        <ele>504.000000</ele>
        <time>2014-03-29T14:53:12Z</time>
      </trkpt>
      <trkpt lat="37.715700400" lon="-1.799415800">
        <ele>505.000000</ele>
        <time>2014-03-29T14:53:13Z</time>
      </trkpt>
      <trkpt lat="37.715717300" lon="-1.799508400">
        <ele>505.000000</ele>
        <time>2014-03-29T14:53:14Z</time>
      </trkpt>
      <trkpt lat="37.715733900" lon="-1.799601500">
        <ele>506.000000</ele>
        <time>2014-03-29T14:53:15Z</time>
      </trkpt>
      <trkpt lat="37.715742800" lon="-1.799690500">
        <ele>506.000000</ele>
        <time>2014-03-29T14:53:16Z</time>
      </trkpt>
      <trkpt lat="37.715752400" lon="-1.799774900">
        <ele>507.000000</ele>
        <time>2014-03-29T14:53:17Z</time>
      </trkpt>
      <trkpt lat="37.715762300" lon="-1.799857100">
        <ele>507.000000</ele>
        <time>2014-03-29T14:53:18Z</time>
      </trkpt>
      <trkpt lat="37.715778900" lon="-1.799939100">
        <ele>508.000000</ele>
        <time>2014-03-29T14:53:19Z</time>
      </trkpt>
      <trkpt lat="37.715796500" lon="-1.800023200">
        <ele>508.000000</ele>
        <time>2014-03-29T14:53:20Z</time>
      </trkpt>
      <trkpt lat="37.715809400" lon="-1.800112300">
        <ele>509.000000</ele>
        <time>2014-03-29T14:53:21Z</time>
      </trkpt>
      <trkpt lat="37.715821700" lon="-1.800205200">
        <ele>509.000000</ele>
        <time>2014-03-29T14:53:22Z</time>
      </trkpt>
      <trkpt lat="37.715832900" lon="-1.800298800">
        <ele>510.000000</ele>
        <time>2014-03-29T14:53:23Z</time>
      </trkpt>
      <trkpt lat="37.715844000" lon="-1.800388900">
        <ele>510.000000</ele>
        <time>2014-03-29T14:53:24Z</time>
      </trkpt>
      <trkpt lat="37.715854700" lon="-1.800475800">
        <ele>511.000000</ele>
        <time>2014-03-29T14:53:25Z</time>
      </trkpt>
      <trkpt lat="37.715866900" lon="-1.800561600">
        <ele>511.000000</ele>
        <time>2014-03-29T14:53:26Z</time>
      </trkpt>
      <trkpt lat="37.715877700" lon="-1.800648700">
        <ele>512.000000</ele>
        <time>2014-03-29T14:53:27Z</time>
      </trkpt>
      <trkpt lat="37.715890000" lon="-1.800730500">
        <ele>512.000000</ele>
        <time>2014-03-29T14:53:28Z</time>
      </trkpt>
      <trkpt lat="37.715904700" lon="-1.800811200">
        <ele>513.000000</ele>
        <time>2014-03-29T14:53:29Z</time>
      </trkpt>
      <trkpt lat="37.715918800" lon="-1.800892700">
        <ele>513.000000</ele>
        <time>2014-03-29T14:53:30Z</time>
      </trkpt>
      <trkpt lat="37.715930100" lon="-1.800977900">
        <ele>514.000000</ele>
        <time>2014-03-29T14:53:31Z</time>
      </trkpt>
      <trkpt lat="37.715941000" lon="-1.801061900">
        <ele>514.000000</ele>
        <time>2014-03-29T14:53:32Z</time>
      </trkpt>
      <trkpt lat="37.715949700" lon="-1.801145300">
        <ele>515.000000</ele>
        <time>2014-03-29T14:53:33Z</time>
      </trkpt>
      <trkpt lat="37.715957700" lon="-1.801230800">
        <ele>515.000000</ele>
        <time>2014-03-29T14:53:34Z</time>
      </trkpt>
      <trkpt lat="37.715963800" lon="-1.801316400">
        <ele>515.000000</ele>
        <time>2014-03-29T14:53:35Z</time>
      </trkpt>
      <trkpt lat="37.715968800" lon="-1.801398000">
        <ele>516.000000</ele>
        <time>2014-03-29T14:53:36Z</time>
      </trkpt>
      <trkpt lat="37.715975900" lon="-1.801480400">
        <ele>516.000000</ele>
        <time>2014-03-29T14:53:37Z</time>
      </trkpt>
      <trkpt lat="37.715979100" lon="-1.801560600">
        <ele>516.000000</ele>
        <time>2014-03-29T14:53:38Z</time>
      </trkpt>
      <trkpt lat="37.715984000" lon="-1.801637200">
        <ele>517.000000</ele>
        <time>2014-03-29T14:53:39Z</time>
      </trkpt>
      <trkpt lat="37.715988900" lon="-1.801711800">
        <ele>517.000000</ele>
        <time>2014-03-29T14:53:40Z</time>
      </trkpt>
      <trkpt lat="37.715997100" lon="-1.801789200">
        <ele>518.000000</ele>
        <time>2014-03-29T14:53:41Z</time>
      </trkpt>
      <trkpt lat="37.716005700" lon="-1.801871100">
        <ele>518.000000</ele>
        <time>2014-03-29T14:53:42Z</time>
      </trkpt>
      <trkpt lat="37.716011100" lon="-1.801955200">
        <ele>518.000000</ele>
        <time>2014-03-29T14:53:43Z</time>
      </trkpt>
      <trkpt lat="37.716016200" lon="-1.802042400">
        <ele>519.000000</ele>
        <time>2014-03-29T14:53:44Z</time>
      </trkpt>
      <trkpt lat="37.716018800" lon="-1.802128400">
        <ele>519.000000</ele>
        <time>2014-03-29T14:53:45Z</time>
      </trkpt>
      <trkpt lat="37.716020100" lon="-1.802217200">
        <ele>519.000000</ele>
        <time>2014-03-29T14:53:46Z</time>
      </trkpt>
      <trkpt lat="37.716022500" lon="-1.802307400">
        <ele>520.000000</ele>
        <time>2014-03-29T14:53:47Z</time>
      </trkpt>
      <trkpt lat="37.716024200" lon="-1.802399400">
        <ele>520.000000</ele>
        <time>2014-03-29T14:53:48Z</time>
      </trkpt>
      <trkpt lat="37.716022200" lon="-1.802491700">
        <ele>520.000000</ele>
        <time>2014-03-29T14:53:49Z</time>
      </trkpt>
      <trkpt lat="37.716016500" lon="-1.802582800">
        <ele>520.000000</ele>
        <time>2014-03-29T14:53:50Z</time>
      </trkpt>
      <trkpt lat="37.716010700" lon="-1.802675000">
        <ele>520.000000</ele>
        <time>2014-03-29T14:53:51Z</time>
      </trkpt>
      <trkpt lat="37.716007200" lon="-1.802767600">
        <ele>520.000000</ele>
        <time>2014-03-29T14:53:52Z</time>
      </trkpt>
      <trkpt lat="37.716005400" lon="-1.802863000">
        <ele>521.000000</ele>
        <time>2014-03-29T14:53:53Z</time>
      </trkpt>
      <trkpt lat="37.716006800" lon="-1.802966200">
        <ele>521.000000</ele>
        <time>2014-03-29T14:53:54Z</time>
      </trkpt>
      <trkpt lat="37.716007500" lon="-1.803070500">
        <ele>521.000000</ele>
        <time>2014-03-29T14:53:55Z</time>
      </trkpt>
      <trkpt lat="37.716003700" lon="-1.803173100">
        <ele>521.000000</ele>
        <time>2014-03-29T14:53:56Z</time>
      </trkpt>
      <trkpt lat="37.716001700" lon="-1.803274800">
        <ele>521.000000</ele>
        <time>2014-03-29T14:53:57Z</time>
      </trkpt>
      <trkpt lat="37.715998300" lon="-1.803375700">
        <ele>521.000000</ele>
        <time>2014-03-29T14:53:58Z</time>
      </trkpt>
      <trkpt lat="37.715992000" lon="-1.803481700">
        <ele>521.000000</ele>
        <time>2014-03-29T14:53:59Z</time>
      </trkpt>
      <trkpt lat="37.715980600" lon="-1.803592600">
        <ele>522.000000</ele>
        <time>2014-03-29T14:54:00Z</time>
      </trkpt>
      <trkpt lat="37.715965900" lon="-1.803707600">
        <ele>522.000000</ele>
        <time>2014-03-29T14:54:01Z</time>
      </trkpt>
      <trkpt lat="37.715951600" lon="-1.803826900">
        <ele>522.000000</ele>
        <time>2014-03-29T14:54:02Z</time>
      </trkpt>
      <trkpt lat="37.715934600" lon="-1.803946200">
        <ele>522.000000</ele>
        <time>2014-03-29T14:54:03Z</time>
      </trkpt>
      <trkpt lat="37.715918400" lon="-1.804069200">
        <ele>522.000000</ele>
        <time>2014-03-29T14:54:04Z</time>
      </trkpt>
      <trkpt lat="37.715910500" lon="-1.804199000">
        <ele>522.000000</ele>
        <time>2014-03-29T14:54:05Z</time>
      </trkpt>
      <trkpt lat="37.715907000" lon="-1.804332800">
        <ele>522.000000</ele>
        <time>2014-03-29T14:54:06Z</time>
      </trkpt>
      <trkpt lat="37.715906000" lon="-1.804469100">
        <ele>522.000000</ele>
        <time>2014-03-29T14:54:07Z</time>
      </trkpt>
      <trkpt lat="37.715908100" lon="-1.804601300">
        <ele>523.000000</ele>
        <time>2014-03-29T14:54:08Z</time>
      </trkpt>
      <trkpt lat="37.715914100" lon="-1.804734900">
        <ele>523.000000</ele>
        <time>2014-03-29T14:54:09Z</time>
      </trkpt>
      <trkpt lat="37.715926200" lon="-1.804864900">
        <ele>523.000000</ele>
        <time>2014-03-29T14:54:10Z</time>
      </trkpt>
      <trkpt lat="37.715943300" lon="-1.804993900">
        <ele>523.000000</ele>
        <time>2014-03-29T14:54:11Z</time>
      </trkpt>
      <trkpt lat="37.715960800" lon="-1.805119300">
        <ele>523.000000</ele>
        <time>2014-03-29T14:54:12Z</time>
      </trkpt>
      <trkpt lat="37.715985900" lon="-1.805242400">
        <ele>523.000000</ele>
        <time>2014-03-29T14:54:13Z</time>
      </trkpt>
      <trkpt lat="37.716015000" lon="-1.805367700">
        <ele>523.000000</ele>
        <time>2014-03-29T14:54:14Z</time>
      </trkpt>
      <trkpt lat="37.716045700" lon="-1.805493600">
        <ele>523.000000</ele>
        <time>2014-03-29T14:54:15Z</time>
      </trkpt>
      <trkpt lat="37.716080800" lon="-1.805618700">
        <ele>522.000000</ele>
        <time>2014-03-29T14:54:16Z</time>
      </trkpt>
      <trkpt lat="37.716125100" lon="-1.805747600">
        <ele>522.000000</ele>
        <time>2014-03-29T14:54:17Z</time>
      </trkpt>
      <trkpt lat="37.716172100" lon="-1.805875500">
        <ele>522.000000</ele>
        <time>2014-03-29T14:54:18Z</time>
      </trkpt>
      <trkpt lat="37.716219300" lon="-1.805999200">
        <ele>522.000000</ele>
        <time>2014-03-29T14:54:19Z</time>
      </trkpt>
      <trkpt lat="37.716271200" lon="-1.806124700">
        <ele>522.000000</ele>
        <time>2014-03-29T14:54:20Z</time>
      </trkpt>
      <trkpt lat="37.716324700" lon="-1.806244800">
        <ele>522.000000</ele>
        <time>2014-03-29T14:54:21Z</time>
      </trkpt>
      <trkpt lat="37.716376200" lon="-1.806362400">
        <ele>522.000000</ele>
        <time>2014-03-29T14:54:22Z</time>
      </trkpt>
      <trkpt lat="37.716424600" lon="-1.806480000">
        <ele>522.000000</ele>
        <time>2014-03-29T14:54:23Z</time>
      </trkpt>
      <trkpt lat="37.716468100" lon="-1.806597600">
        <ele>522.000000</ele>
        <time>2014-03-29T14:54:24Z</time>
      </trkpt>
      <trkpt lat="37.716510000" lon="-1.806711600">
        <ele>522.000000</ele>
        <time>2014-03-29T14:54:25Z</time>
      </trkpt>
      <trkpt lat="37.716542100" lon="-1.806824800">
        <ele>522.000000</ele>
        <time>2014-03-29T14:54:26Z</time>
      </trkpt>
      <trkpt lat="37.716569100" lon="-1.806939500">
        <ele>522.000000</ele>
        <time>2014-03-29T14:54:27Z</time>
      </trkpt>
      <trkpt lat="37.716594600" lon="-1.807051400">
        <ele>522.000000</ele>
        <time>2014-03-29T14:54:28Z</time>
      </trkpt>
      <trkpt lat="37.716620300" lon="-1.807168800">
        <ele>522.000000</ele>
        <time>2014-03-29T14:54:29Z</time>
      </trkpt>
      <trkpt lat="37.716642200" lon="-1.807285200">
        <ele>522.000000</ele>
        <time>2014-03-29T14:54:30Z</time>
      </trkpt>
      <trkpt lat="37.716662100" lon="-1.807403400">
        <ele>522.000000</ele>
        <time>2014-03-29T14:54:31Z</time>
      </trkpt>
      <trkpt lat="37.716680200" lon="-1.807519700">
        <ele>522.000000</ele>
        <time>2014-03-29T14:54:32Z</time>
      </trkpt>
      <trkpt lat="37.716699000" lon="-1.807636200">
        <ele>522.000000</ele>
        <time>2014-03-29T14:54:33Z</time>
      </trkpt>
      <trkpt lat="37.716713800" lon="-1.807753400">
        <ele>522.000000</ele>
        <time>2014-03-29T14:54:34Z</time>
      </trkpt>
      <trkpt lat="37.716726600" lon="-1.807874200">
        <ele>522.000000</ele>
        <time>2014-03-29T14:54:35Z</time>
      </trkpt>
      <trkpt lat="37.716736100" lon="-1.807998800">
        <ele>522.000000</ele>
        <time>2014-03-29T14:54:36Z</time>
      </trkpt>
      <trkpt lat="37.716736800" lon="-1.808120400">
        <ele>522.000000</ele>
        <time>2014-03-29T14:54:37Z</time>
      </trkpt>
      <trkpt lat="37.716734400" lon="-1.808239400">
        <ele>523.000000</ele>
        <time>2014-03-29T14:54:38Z</time>
      </trkpt>
      <trkpt lat="37.716725700" lon="-1.808359200">
        <ele>523.000000</ele>
        <time>2014-03-29T14:54:39Z</time>
      </trkpt>
      <trkpt lat="37.716715300" lon="-1.808479100">
        <ele>523.000000</ele>
        <time>2014-03-29T14:54:40Z</time>
      </trkpt>
      <trkpt lat="37.716700300" lon="-1.808598900">
        <ele>523.000000</ele>
        <time>2014-03-29T14:54:41Z</time>
      </trkpt>
      <trkpt lat="37.716680700" lon="-1.808717500">
        <ele>523.000000</ele>
        <time>2014-03-29T14:54:42Z</time>
      </trkpt>
      <trkpt lat="37.716657000" lon="-1.808835500">
        <ele>524.000000</ele>
        <time>2014-03-29T14:54:43Z</time>
      </trkpt>
      <trkpt lat="37.716635100" lon="-1.808954700">
        <ele>524.000000</ele>
        <time>2014-03-29T14:54:44Z</time>
      </trkpt>
      <trkpt lat="37.716611100" lon="-1.809075200">
        <ele>524.000000</ele>
        <time>2014-03-29T14:54:45Z</time>
      </trkpt>
      <trkpt lat="37.716588300" lon="-1.809197000">
        <ele>524.000000</ele>
        <time>2014-03-29T14:54:46Z</time>
      </trkpt>
      <trkpt lat="37.716570600" lon="-1.809321600">
        <ele>525.000000</ele>
        <time>2014-03-29T14:54:47Z</time>
      </trkpt>
      <trkpt lat="37.716551600" lon="-1.809443000">
        <ele>525.000000</ele>
        <time>2014-03-29T14:54:48Z</time>
      </trkpt>
      <trkpt lat="37.716530900" lon="-1.809564200">
        <ele>525.000000</ele>
        <time>2014-03-29T14:54:49Z</time>
      </trkpt>
      <trkpt lat="37.716512400" lon="-1.809683500">
        <ele>525.000000</ele>
        <time>2014-03-29T14:54:50Z</time>
      </trkpt>
      <trkpt lat="37.716488000" lon="-1.809800900">
        <ele>526.000000</ele>
        <time>2014-03-29T14:54:51Z</time>
      </trkpt>
      <trkpt lat="37.716465700" lon="-1.809920600">
        <ele>526.000000</ele>
        <time>2014-03-29T14:54:52Z</time>
      </trkpt>
      <trkpt lat="37.716446100" lon="-1.810038500">
        <ele>526.000000</ele>
        <time>2014-03-29T14:54:53Z</time>
      </trkpt>
      <trkpt lat="37.716423100" lon="-1.810156400">
        <ele>526.000000</ele>
        <time>2014-03-29T14:54:54Z</time>
      </trkpt>
      <trkpt lat="37.716398700" lon="-1.810274200">
        <ele>526.000000</ele>
        <time>2014-03-29T14:54:55Z</time>
      </trkpt>
      <trkpt lat="37.716372500" lon="-1.810393000">
        <ele>526.000000</ele>
        <time>2014-03-29T14:54:56Z</time>
      </trkpt>
      <trkpt lat="37.716343900" lon="-1.810508900">
        <ele>527.000000</ele>
        <time>2014-03-29T14:54:57Z</time>
      </trkpt>
      <trkpt lat="37.716315700" lon="-1.810625300">
        <ele>527.000000</ele>
        <time>2014-03-29T14:54:58Z</time>
      </trkpt>
      <trkpt lat="37.716290100" lon="-1.810743200">
        <ele>527.000000</ele>
        <time>2014-03-29T14:54:59Z</time>
      </trkpt>
      <trkpt lat="37.716267800" lon="-1.810860500">
        <ele>527.000000</ele>
        <time>2014-03-29T14:55:00Z</time>
      </trkpt>
      <trkpt lat="37.716247900" lon="-1.810979500">
        <ele>527.000000</ele>
        <time>2014-03-29T14:55:01Z</time>
      </trkpt>
      <trkpt lat="37.716226500" lon="-1.811098400">
        <ele>527.000000</ele>
        <time>2014-03-29T14:55:02Z</time>
      </trkpt>
      <trkpt lat="37.716206900" lon="-1.811218400">
        <ele>527.000000</ele>
        <time>2014-03-29T14:55:03Z</time>
      </trkpt>
      <trkpt lat="37.716190900" lon="-1.811341500">
        <ele>527.000000</ele>
        <time>2014-03-29T14:55:04Z</time>
      </trkpt>
      <trkpt lat="37.716178900" lon="-1.811462600">
        <ele>527.000000</ele>
        <time>2014-03-29T14:55:05Z</time>
      </trkpt>
      <trkpt lat="37.716171200" lon="-1.811582600">
        <ele>527.000000</ele>
        <time>2014-03-29T14:55:06Z</time>
      </trkpt>
      <trkpt lat="37.716168900" lon="-1.811704100">
        <ele>527.000000</ele>
        <time>2014-03-29T14:55:07Z</time>
      </trkpt>
      <trkpt lat="37.716172100" lon="-1.811826300">
        <ele>527.000000</ele>
        <time>2014-03-29T14:55:08Z</time>
      </trkpt>
      <trkpt lat="37.716180200" lon="-1.811950400">
        <ele>527.000000</ele>
        <time>2014-03-29T14:55:09Z</time>
      </trkpt>
      <trkpt lat="37.716194500" lon="-1.812075700">
        <ele>527.000000</ele>
        <time>2014-03-29T14:55:10Z</time>
      </trkpt>
      <trkpt lat="37.716214200" lon="-1.812201100">
        <ele>527.000000</ele>
        <time>2014-03-29T14:55:11Z</time>
      </trkpt>
      <trkpt lat="37.716239200" lon="-1.812327900">
        <ele>527.000000</ele>
        <time>2014-03-29T14:55:12Z</time>
      </trkpt>
      <trkpt lat="37.716269000" lon="-1.812453900">
        <ele>527.000000</ele>
        <time>2014-03-29T14:55:13Z</time>
      </trkpt>
      <trkpt lat="37.716303500" lon="-1.812575700">
        <ele>527.000000</ele>
        <time>2014-03-29T14:55:14Z</time>
      </trkpt>
      <trkpt lat="37.716343400" lon="-1.812698000">
        <ele>527.000000</ele>
        <time>2014-03-29T14:55:15Z</time>
      </trkpt>
      <trkpt lat="37.716387800" lon="-1.812816900">
        <ele>527.000000</ele>
        <time>2014-03-29T14:55:16Z</time>
      </trkpt>
      <trkpt lat="37.716429700" lon="-1.812936700">
        <ele>527.000000</ele>
        <time>2014-03-29T14:55:17Z</time>
      </trkpt>
      <trkpt lat="37.716467700" lon="-1.813056100">
        <ele>527.000000</ele>
        <time>2014-03-29T14:55:18Z</time>
      </trkpt>
      <trkpt lat="37.716507900" lon="-1.813174000">
        <ele>527.000000</ele>
        <time>2014-03-29T14:55:19Z</time>
      </trkpt>
      <trkpt lat="37.716543200" lon="-1.813291500">
        <ele>527.000000</ele>
        <time>2014-03-29T14:55:20Z</time>
      </trkpt>
      <trkpt lat="37.716579100" lon="-1.813414200">
        <ele>527.000000</ele>
        <time>2014-03-29T14:55:21Z</time>
      </trkpt>
      <trkpt lat="37.716617600" lon="-1.813534300">
        <ele>527.000000</ele>
        <time>2014-03-29T14:55:22Z</time>
      </trkpt>
      <trkpt lat="37.716654100" lon="-1.813652100">
        <ele>527.000000</ele>
        <time>2014-03-29T14:55:23Z</time>
      </trkpt>
      <trkpt lat="37.716691700" lon="-1.813769000">
        <ele>527.000000</ele>
        <time>2014-03-29T14:55:24Z</time>
      </trkpt>
      <trkpt lat="37.716727200" lon="-1.813882100">
        <ele>527.000000</ele>
        <time>2014-03-29T14:55:25Z</time>
      </trkpt>
      <trkpt lat="37.716758700" lon="-1.813989500">
        <ele>527.000000</ele>
        <time>2014-03-29T14:55:26Z</time>
      </trkpt>
      <trkpt lat="37.716790000" lon="-1.814094600">
        <ele>527.000000</ele>
        <time>2014-03-29T14:55:27Z</time>
      </trkpt>
      <trkpt lat="37.716824100" lon="-1.814202700">
        <ele>527.000000</ele>
        <time>2014-03-29T14:55:28Z</time>
      </trkpt>
      <trkpt lat="37.716859600" lon="-1.814308900">
        <ele>527.000000</ele>
        <time>2014-03-29T14:55:29Z</time>
      </trkpt>
      <trkpt lat="37.716892200" lon="-1.814415900">
        <ele>527.000000</ele>
        <time>2014-03-29T14:55:30Z</time>
      </trkpt>
      <trkpt lat="37.716925400" lon="-1.814521800">
        <ele>528.000000</ele>
        <time>2014-03-29T14:55:31Z</time>
      </trkpt>
      <trkpt lat="37.716958100" lon="-1.814622600">
        <ele>528.000000</ele>
        <time>2014-03-29T14:55:32Z</time>
      </trkpt>
      <trkpt lat="37.716989200" lon="-1.814720900">
        <ele>528.000000</ele>
        <time>2014-03-29T14:55:33Z</time>
      </trkpt>
      <trkpt lat="37.717019700" lon="-1.814819200">
        <ele>528.000000</ele>
        <time>2014-03-29T14:55:34Z</time>
      </trkpt>
      <trkpt lat="37.717050200" lon="-1.814916500">
        <ele>529.000000</ele>
        <time>2014-03-29T14:55:35Z</time>
      </trkpt>
      <trkpt lat="37.717085800" lon="-1.815010400">
        <ele>529.000000</ele>
        <time>2014-03-29T14:55:36Z</time>
      </trkpt>
      <trkpt lat="37.717123700" lon="-1.815107500">
        <ele>529.000000</ele>
        <time>2014-03-29T14:55:37Z</time>
      </trkpt>
      <trkpt lat="37.717158500" lon="-1.815205500">
        <ele>530.000000</ele>
        <time>2014-03-29T14:55:38Z</time>
      </trkpt>
      <trkpt lat="37.717191900" lon="-1.815302800">
        <ele>530.000000</ele>
        <time>2014-03-29T14:55:39Z</time>
      </trkpt>
      <trkpt lat="37.717224900" lon="-1.815398400">
        <ele>531.000000</ele>
        <time>2014-03-29T14:55:40Z</time>
      </trkpt>
      <trkpt lat="37.717254700" lon="-1.815498700">
        <ele>531.000000</ele>
        <time>2014-03-29T14:55:41Z</time>
      </trkpt>
      <trkpt lat="37.717279900" lon="-1.815607300">
        <ele>532.000000</ele>
        <time>2014-03-29T14:55:42Z</time>
      </trkpt>
      <trkpt lat="37.717299000" lon="-1.815714700">
        <ele>532.000000</ele>
        <time>2014-03-29T14:55:43Z</time>
      </trkpt>
      <trkpt lat="37.717317900" lon="-1.815814300">
        <ele>533.000000</ele>
        <time>2014-03-29T14:55:44Z</time>
      </trkpt>
      <trkpt lat="37.717336500" lon="-1.815912000">
        <ele>533.000000</ele>
        <time>2014-03-29T14:55:45Z</time>
      </trkpt>
      <trkpt lat="37.717362300" lon="-1.816008800">
        <ele>534.000000</ele>
        <time>2014-03-29T14:55:46Z</time>
      </trkpt>
      <trkpt lat="37.717373100" lon="-1.816102600">
        <ele>534.000000</ele>
        <time>2014-03-29T14:55:47Z</time>
      </trkpt>
      <trkpt lat="37.717385100" lon="-1.816191600">
        <ele>535.000000</ele>
        <time>2014-03-29T14:55:48Z</time>
      </trkpt>
      <trkpt lat="37.717399500" lon="-1.816283700">
        <ele>536.000000</ele>
        <time>2014-03-29T14:55:49Z</time>
      </trkpt>
      <trkpt lat="37.717413600" lon="-1.816375100">
        <ele>536.000000</ele>
        <time>2014-03-29T14:55:50Z</time>
      </trkpt>
      <trkpt lat="37.717421800" lon="-1.816465400">
        <ele>537.000000</ele>
        <time>2014-03-29T14:55:51Z</time>
      </trkpt>
      <trkpt lat="37.717432900" lon="-1.816558800">
        <ele>537.000000</ele>
        <time>2014-03-29T14:55:52Z</time>
      </trkpt>
      <trkpt lat="37.717445600" lon="-1.816651900">
        <ele>538.000000</ele>
        <time>2014-03-29T14:55:53Z</time>
      </trkpt>
      <trkpt lat="37.717460100" lon="-1.816750000">
        <ele>538.000000</ele>
        <time>2014-03-29T14:55:54Z</time>
      </trkpt>
      <trkpt lat="37.717473800" lon="-1.816851800">
        <ele>539.000000</ele>
        <time>2014-03-29T14:55:55Z</time>
      </trkpt>
      <trkpt lat="37.717488100" lon="-1.816958200">
        <ele>539.000000</ele>
        <time>2014-03-29T14:55:56Z</time>
      </trkpt>
      <trkpt lat="37.717505400" lon="-1.817062900">
        <ele>540.000000</ele>
        <time>2014-03-29T14:55:57Z</time>
      </trkpt>
      <trkpt lat="37.717516900" lon="-1.817162500">
        <ele>540.000000</ele>
        <time>2014-03-29T14:55:58Z</time>
      </trkpt>
      <trkpt lat="37.717519500" lon="-1.817269700">
        <ele>541.000000</ele>
        <time>2014-03-29T14:55:59Z</time>
      </trkpt>
      <trkpt lat="37.717527800" lon="-1.817372800">
        <ele>541.000000</ele>
        <time>2014-03-29T14:56:00Z</time>
      </trkpt>
      <trkpt lat="37.717536500" lon="-1.817474100">
        <ele>542.000000</ele>
        <time>2014-03-29T14:56:01Z</time>
      </trkpt>
      <trkpt lat="37.717550400" lon="-1.817577400">
        <ele>542.000000</ele>
        <time>2014-03-29T14:56:02Z</time>
      </trkpt>
      <trkpt lat="37.717564000" lon="-1.817678100">
        <ele>543.000000</ele>
        <time>2014-03-29T14:56:03Z</time>
      </trkpt>
      <trkpt lat="37.717577900" lon="-1.817779000">
        <ele>543.000000</ele>
        <time>2014-03-29T14:56:04Z</time>
      </trkpt>
      <trkpt lat="37.717594400" lon="-1.817880500">
        <ele>544.000000</ele>
        <time>2014-03-29T14:56:05Z</time>
      </trkpt>
      <trkpt lat="37.717613600" lon="-1.817987100">
        <ele>544.000000</ele>
        <time>2014-03-29T14:56:06Z</time>
      </trkpt>
      <trkpt lat="37.717628100" lon="-1.818092300">
        <ele>544.000000</ele>
        <time>2014-03-29T14:56:07Z</time>
      </trkpt>
      <trkpt lat="37.717646600" lon="-1.818190800">
        <ele>545.000000</ele>
        <time>2014-03-29T14:56:08Z</time>
      </trkpt>
      <trkpt lat="37.717664300" lon="-1.818289500">
        <ele>545.000000</ele>
        <time>2014-03-29T14:56:09Z</time>
      </trkpt>
      <trkpt lat="37.717679300" lon="-1.818388500">
        <ele>546.000000</ele>
        <time>2014-03-29T14:56:10Z</time>
      </trkpt>
      <trkpt lat="37.717690600" lon="-1.818489000">
        <ele>546.000000</ele>
        <time>2014-03-29T14:56:11Z</time>
      </trkpt>
      <trkpt lat="37.717699200" lon="-1.818591300">
        <ele>546.000000</ele>
        <time>2014-03-29T14:56:12Z</time>
      </trkpt>
      <trkpt lat="37.717710400" lon="-1.818697100">
        <ele>546.000000</ele>
        <time>2014-03-29T14:56:13Z</time>
      </trkpt>
      <trkpt lat="37.717725500" lon="-1.818801500">
        <ele>547.000000</ele>
        <time>2014-03-29T14:56:14Z</time>
      </trkpt>
      <trkpt lat="37.717740700" lon="-1.818910000">
        <ele>547.000000</ele>
        <time>2014-03-29T14:56:15Z</time>
      </trkpt>
      <trkpt lat="37.717755500" lon="-1.819018500">
        <ele>548.000000</ele>
        <time>2014-03-29T14:56:16Z</time>
      </trkpt>
      <trkpt lat="37.717770400" lon="-1.819125400">
        <ele>548.000000</ele>
        <time>2014-03-29T14:56:17Z</time>
      </trkpt>
      <trkpt lat="37.717784500" lon="-1.819236900">
        <ele>548.000000</ele>
        <time>2014-03-29T14:56:18Z</time>
      </trkpt>
      <trkpt lat="37.717798700" lon="-1.819348000">
        <ele>548.000000</ele>
        <time>2014-03-29T14:56:19Z</time>
      </trkpt>
      <trkpt lat="37.717809700" lon="-1.819460200">
        <ele>548.000000</ele>
        <time>2014-03-29T14:56:20Z</time>
      </trkpt>
      <trkpt lat="37.717825500" lon="-1.819577000">
        <ele>548.000000</ele>
        <time>2014-03-29T14:56:21Z</time>
      </trkpt>
      <trkpt lat="37.717841600" lon="-1.819698600">
        <ele>549.000000</ele>
        <time>2014-03-29T14:56:22Z</time>
      </trkpt>
      <trkpt lat="37.717856800" lon="-1.819824500">
        <ele>549.000000</ele>
        <time>2014-03-29T14:56:23Z</time>
      </trkpt>
      <trkpt lat="37.717871600" lon="-1.819949700">
        <ele>549.000000</ele>
        <time>2014-03-29T14:56:24Z</time>
      </trkpt>
      <trkpt lat="37.717882600" lon="-1.820075300">
        <ele>549.000000</ele>
        <time>2014-03-29T14:56:25Z</time>
      </trkpt>
      <trkpt lat="37.717891300" lon="-1.820204600">
        <ele>549.000000</ele>
        <time>2014-03-29T14:56:26Z</time>
      </trkpt>
      <trkpt lat="37.717895600" lon="-1.820338000">
        <ele>549.000000</ele>
        <time>2014-03-29T14:56:27Z</time>
      </trkpt>
      <trkpt lat="37.717895100" lon="-1.820471900">
        <ele>549.000000</ele>
        <time>2014-03-29T14:56:28Z</time>
      </trkpt>
      <trkpt lat="37.717889100" lon="-1.820607500">
        <ele>548.000000</ele>
        <time>2014-03-29T14:56:29Z</time>
      </trkpt>
      <trkpt lat="37.717876200" lon="-1.820743200">
        <ele>548.000000</ele>
        <time>2014-03-29T14:56:30Z</time>
      </trkpt>
      <trkpt lat="37.717859800" lon="-1.820878300">
        <ele>548.000000</ele>
        <time>2014-03-29T14:56:31Z</time>
      </trkpt>
      <trkpt lat="37.717842600" lon="-1.821010400">
        <ele>548.000000</ele>
        <time>2014-03-29T14:56:32Z</time>
      </trkpt>
      <trkpt lat="37.717823500" lon="-1.821143600">
        <ele>548.000000</ele>
        <time>2014-03-29T14:56:33Z</time>
      </trkpt>
      <trkpt lat="37.717804900" lon="-1.821273600">
        <ele>548.000000</ele>
        <time>2014-03-29T14:56:34Z</time>
      </trkpt>
      <trkpt lat="37.717786500" lon="-1.821403200">
        <ele>547.000000</ele>
        <time>2014-03-29T14:56:35Z</time>
      </trkpt>
      <trkpt lat="37.717773000" lon="-1.821533500">
        <ele>547.000000</ele>
        <time>2014-03-29T14:56:36Z</time>
      </trkpt>
      <trkpt lat="37.717765700" lon="-1.821665200">
        <ele>547.000000</ele>
        <time>2014-03-29T14:56:37Z</time>
      </trkpt>
      <trkpt lat="37.717761600" lon="-1.821795400">
        <ele>547.000000</ele>
        <time>2014-03-29T14:56:38Z</time>
      </trkpt>
      <trkpt lat="37.717761700" lon="-1.821925300">
        <ele>547.000000</ele>
        <time>2014-03-29T14:56:39Z</time>
      </trkpt>
      <trkpt lat="37.717767000" lon="-1.822053500">
        <ele>547.000000</ele>
        <time>2014-03-29T14:56:40Z</time>
      </trkpt>
      <trkpt lat="37.717769900" lon="-1.822181500">
        <ele>547.000000</ele>
        <time>2014-03-29T14:56:41Z</time>
      </trkpt>
      <trkpt lat="37.717775800" lon="-1.822306900">
        <ele>547.000000</ele>
        <time>2014-03-29T14:56:42Z</time>
      </trkpt>
      <trkpt lat="37.717786500" lon="-1.822432400">
        <ele>547.000000</ele>
        <time>2014-03-29T14:56:43Z</time>
      </trkpt>
      <trkpt lat="37.717797000" lon="-1.822556400">
        <ele>547.000000</ele>
        <time>2014-03-29T14:56:44Z</time>
      </trkpt>
      <trkpt lat="37.717808800" lon="-1.822679300">
        <ele>547.000000</ele>
        <time>2014-03-29T14:56:45Z</time>
      </trkpt>
      <trkpt lat="37.717817500" lon="-1.822804500">
        <ele>547.000000</ele>
        <time>2014-03-29T14:56:46Z</time>
      </trkpt>
      <trkpt lat="37.717824700" lon="-1.822927300">
        <ele>547.000000</ele>
        <time>2014-03-29T14:56:47Z</time>
      </trkpt>
      <trkpt lat="37.717834900" lon="-1.823049200">
        <ele>547.000000</ele>
        <time>2014-03-29T14:56:48Z</time>
      </trkpt>
      <trkpt lat="37.717846300" lon="-1.823171500">
        <ele>548.000000</ele>
        <time>2014-03-29T14:56:49Z</time>
      </trkpt>
      <trkpt lat="37.717858500" lon="-1.823295500">
        <ele>548.000000</ele>
        <time>2014-03-29T14:56:50Z</time>
      </trkpt>
      <trkpt lat="37.717871000" lon="-1.823420200">
        <ele>548.000000</ele>
        <time>2014-03-29T14:56:51Z</time>
      </trkpt>
      <trkpt lat="37.717880000" lon="-1.823543400">
        <ele>548.000000</ele>
        <time>2014-03-29T14:56:52Z</time>
      </trkpt>
      <trkpt lat="37.717891400" lon="-1.823665900">
        <ele>548.000000</ele>
        <time>2014-03-29T14:56:53Z</time>
      </trkpt>
      <trkpt lat="37.717901300" lon="-1.823786300">
        <ele>548.000000</ele>
        <time>2014-03-29T14:56:54Z</time>
      </trkpt>
      <trkpt lat="37.717911500" lon="-1.823903700">
        <ele>549.000000</ele>
        <time>2014-03-29T14:56:55Z</time>
      </trkpt>
      <trkpt lat="37.717922800" lon="-1.824024400">
        <ele>549.000000</ele>
        <time>2014-03-29T14:56:56Z</time>
      </trkpt>
      <trkpt lat="37.717933800" lon="-1.824145900">
        <ele>549.000000</ele>
        <time>2014-03-29T14:56:57Z</time>
      </trkpt>
      <trkpt lat="37.717947100" lon="-1.824269800">
        <ele>549.000000</ele>
        <time>2014-03-29T14:56:58Z</time>
      </trkpt>
      <trkpt lat="37.717960800" lon="-1.824395400">
        <ele>549.000000</ele>
        <time>2014-03-29T14:56:59Z</time>
      </trkpt>
      <trkpt lat="37.717971900" lon="-1.824522100">
        <ele>550.000000</ele>
        <time>2014-03-29T14:57:00Z</time>
      </trkpt>
      <trkpt lat="37.717981200" lon="-1.824644900">
        <ele>550.000000</ele>
        <time>2014-03-29T14:57:01Z</time>
      </trkpt>
      <trkpt lat="37.717993400" lon="-1.824771000">
        <ele>550.000000</ele>
        <time>2014-03-29T14:57:02Z</time>
      </trkpt>
      <trkpt lat="37.718004700" lon="-1.824897500">
        <ele>550.000000</ele>
        <time>2014-03-29T14:57:03Z</time>
      </trkpt>
      <trkpt lat="37.718011100" lon="-1.825019300">
        <ele>550.000000</ele>
        <time>2014-03-29T14:57:04Z</time>
      </trkpt>
      <trkpt lat="37.718020400" lon="-1.825138600">
        <ele>551.000000</ele>
        <time>2014-03-29T14:57:05Z</time>
      </trkpt>
      <trkpt lat="37.718027500" lon="-1.825260000">
        <ele>551.000000</ele>
        <time>2014-03-29T14:57:06Z</time>
      </trkpt>
      <trkpt lat="37.718036300" lon="-1.825383200">
        <ele>551.000000</ele>
        <time>2014-03-29T14:57:07Z</time>
      </trkpt>
      <trkpt lat="37.718044200" lon="-1.825505900">
        <ele>551.000000</ele>
        <time>2014-03-29T14:57:08Z</time>
      </trkpt>
      <trkpt lat="37.718057400" lon="-1.825630000">
        <ele>552.000000</ele>
        <time>2014-03-29T14:57:09Z</time>
      </trkpt>
      <trkpt lat="37.718073900" lon="-1.825753800">
        <ele>552.000000</ele>
        <time>2014-03-29T14:57:10Z</time>
      </trkpt>
      <trkpt lat="37.718094100" lon="-1.825876900">
        <ele>552.000000</ele>
        <time>2014-03-29T14:57:11Z</time>
      </trkpt>
      <trkpt lat="37.718120100" lon="-1.825998100">
        <ele>552.000000</ele>
        <time>2014-03-29T14:57:12Z</time>
      </trkpt>
      <trkpt lat="37.718151600" lon="-1.826119000">
        <ele>552.000000</ele>
        <time>2014-03-29T14:57:13Z</time>
      </trkpt>
      <trkpt lat="37.718189500" lon="-1.826237400">
        <ele>552.000000</ele>
        <time>2014-03-29T14:57:14Z</time>
      </trkpt>
      <trkpt lat="37.718234000" lon="-1.826354000">
        <ele>552.000000</ele>
        <time>2014-03-29T14:57:15Z</time>
      </trkpt>
      <trkpt lat="37.718283200" lon="-1.826471200">
        <ele>552.000000</ele>
        <time>2014-03-29T14:57:16Z</time>
      </trkpt>
      <trkpt lat="37.718334600" lon="-1.826583600">
        <ele>553.000000</ele>
        <time>2014-03-29T14:57:17Z</time>
      </trkpt>
      <trkpt lat="37.718388500" lon="-1.826692000">
        <ele>553.000000</ele>
        <time>2014-03-29T14:57:18Z</time>
      </trkpt>
      <trkpt lat="37.718446100" lon="-1.826798900">
        <ele>553.000000</ele>
        <time>2014-03-29T14:57:19Z</time>
      </trkpt>
      <trkpt lat="37.718506800" lon="-1.826905300">
        <ele>553.000000</ele>
        <time>2014-03-29T14:57:20Z</time>
      </trkpt>
      <trkpt lat="37.718577700" lon="-1.827008000">
        <ele>553.000000</ele>
        <time>2014-03-29T14:57:21Z</time>
      </trkpt>
      <trkpt lat="37.718648300" lon="-1.827112300">
        <ele>553.000000</ele>
        <time>2014-03-29T14:57:22Z</time>
      </trkpt>
      <trkpt lat="37.718719000" lon="-1.827216200">
        <ele>553.000000</ele>
        <time>2014-03-29T14:57:23Z</time>
      </trkpt>
      <trkpt lat="37.718790000" lon="-1.827322000">
        <ele>553.000000</ele>
        <time>2014-03-29T14:57:24Z</time>
      </trkpt>
      <trkpt lat="37.718862200" lon="-1.827427700">
        <ele>553.000000</ele>
        <time>2014-03-29T14:57:25Z</time>
      </trkpt>
      <trkpt lat="37.718935700" lon="-1.827534300">
        <ele>553.000000</ele>
        <time>2014-03-29T14:57:26Z</time>
      </trkpt>
      <trkpt lat="37.719005900" lon="-1.827642700">
        <ele>553.000000</ele>
        <time>2014-03-29T14:57:27Z</time>
      </trkpt>
      <trkpt lat="37.719074900" lon="-1.827755200">
        <ele>553.000000</ele>
        <time>2014-03-29T14:57:28Z</time>
      </trkpt>
      <trkpt lat="37.719137000" lon="-1.827870800">
        <ele>554.000000</ele>
        <time>2014-03-29T14:57:29Z</time>
      </trkpt>
      <trkpt lat="37.719195200" lon="-1.827983100">
        <ele>554.000000</ele>
        <time>2014-03-29T14:57:30Z</time>
      </trkpt>
      <trkpt lat="37.719250800" lon="-1.828095100">
        <ele>554.000000</ele>
        <time>2014-03-29T14:57:31Z</time>
      </trkpt>
      <trkpt lat="37.719303400" lon="-1.828209300">
        <ele>554.000000</ele>
        <time>2014-03-29T14:57:32Z</time>
      </trkpt>
      <trkpt lat="37.719359500" lon="-1.828326800">
        <ele>554.000000</ele>
        <time>2014-03-29T14:57:33Z</time>
      </trkpt>
      <trkpt lat="37.719414500" lon="-1.828441800">
        <ele>554.000000</ele>
        <time>2014-03-29T14:57:34Z</time>
      </trkpt>
      <trkpt lat="37.719469000" lon="-1.828557100">
        <ele>555.000000</ele>
        <time>2014-03-29T14:57:35Z</time>
      </trkpt>
      <trkpt lat="37.719517600" lon="-1.828673300">
        <ele>555.000000</ele>
        <time>2014-03-29T14:57:36Z</time>
      </trkpt>
      <trkpt lat="37.719566500" lon="-1.828793000">
        <ele>555.000000</ele>
        <time>2014-03-29T14:57:37Z</time>
      </trkpt>
      <trkpt lat="37.719614200" lon="-1.828911000">
        <ele>555.000000</ele>
        <time>2014-03-29T14:57:38Z</time>
      </trkpt>
      <trkpt lat="37.719663700" lon="-1.829028000">
        <ele>555.000000</ele>
        <time>2014-03-29T14:57:39Z</time>
      </trkpt>
      <trkpt lat="37.719713000" lon="-1.829145000">
        <ele>555.000000</ele>
        <time>2014-03-29T14:57:40Z</time>
      </trkpt>
      <trkpt lat="37.719759000" lon="-1.829257800">
        <ele>555.000000</ele>
        <time>2014-03-29T14:57:41Z</time>
      </trkpt>
      <trkpt lat="37.719803800" lon="-1.829370800">
        <ele>556.000000</ele>
        <time>2014-03-29T14:57:42Z</time>
      </trkpt>
      <trkpt lat="37.719835700" lon="-1.829489300">
        <ele>556.000000</ele>
        <time>2014-03-29T14:57:43Z</time>
      </trkpt>
      <trkpt lat="37.719860900" lon="-1.829609800">
        <ele>556.000000</ele>
        <time>2014-03-29T14:57:44Z</time>
      </trkpt>
      <trkpt lat="37.719883400" lon="-1.829730300">
        <ele>556.000000</ele>
        <time>2014-03-29T14:57:45Z</time>
      </trkpt>
      <trkpt lat="37.719900300" lon="-1.829852200">
        <ele>556.000000</ele>
        <time>2014-03-29T14:57:46Z</time>
      </trkpt>
      <trkpt lat="37.719914000" lon="-1.829972800">
        <ele>556.000000</ele>
        <time>2014-03-29T14:57:47Z</time>
      </trkpt>
      <trkpt lat="37.719922400" lon="-1.830093100">
        <ele>556.000000</ele>
        <time>2014-03-29T14:57:48Z</time>
      </trkpt>
      <trkpt lat="37.719925900" lon="-1.830213400">
        <ele>557.000000</ele>
        <time>2014-03-29T14:57:49Z</time>
      </trkpt>
      <trkpt lat="37.719925700" lon="-1.830335400">
        <ele>557.000000</ele>
        <time>2014-03-29T14:57:50Z</time>
      </trkpt>
      <trkpt lat="37.719928000" lon="-1.830452700">
        <ele>557.000000</ele>
        <time>2014-03-29T14:57:51Z</time>
      </trkpt>
      <trkpt lat="37.719934900" lon="-1.830573600">
        <ele>557.000000</ele>
        <time>2014-03-29T14:57:52Z</time>
      </trkpt>
      <trkpt lat="37.719947200" lon="-1.830695500">
        <ele>558.000000</ele>
        <time>2014-03-29T14:57:53Z</time>
      </trkpt>
      <trkpt lat="37.719968600" lon="-1.830816100">
        <ele>558.000000</ele>
        <time>2014-03-29T14:57:54Z</time>
      </trkpt>
      <trkpt lat="37.719995600" lon="-1.830937200">
        <ele>558.000000</ele>
        <time>2014-03-29T14:57:55Z</time>
      </trkpt>
      <trkpt lat="37.720028000" lon="-1.831054700">
        <ele>559.000000</ele>
        <time>2014-03-29T14:57:56Z</time>
      </trkpt>
      <trkpt lat="37.720062800" lon="-1.831168100">
        <ele>559.000000</ele>
        <time>2014-03-29T14:57:57Z</time>
      </trkpt>
      <trkpt lat="37.720095500" lon="-1.831275700">
        <ele>559.000000</ele>
        <time>2014-03-29T14:57:58Z</time>
      </trkpt>
      <trkpt lat="37.720130300" lon="-1.831380800">
        <ele>559.000000</ele>
        <time>2014-03-29T14:57:59Z</time>
      </trkpt>
      <trkpt lat="37.720169200" lon="-1.831485700">
        <ele>560.000000</ele>
        <time>2014-03-29T14:58:00Z</time>
      </trkpt>
      <trkpt lat="37.720204700" lon="-1.831592700">
        <ele>560.000000</ele>
        <time>2014-03-29T14:58:01Z</time>
      </trkpt>
      <trkpt lat="37.720237100" lon="-1.831698400">
        <ele>560.000000</ele>
        <time>2014-03-29T14:58:02Z</time>
      </trkpt>
      <trkpt lat="37.720268800" lon="-1.831808400">
        <ele>561.000000</ele>
        <time>2014-03-29T14:58:03Z</time>
      </trkpt>
      <trkpt lat="37.720293400" lon="-1.831922100">
        <ele>561.000000</ele>
        <time>2014-03-29T14:58:04Z</time>
      </trkpt>
      <trkpt lat="37.720314200" lon="-1.832039100">
        <ele>561.000000</ele>
        <time>2014-03-29T14:58:05Z</time>
      </trkpt>
      <trkpt lat="37.720330400" lon="-1.832155800">
        <ele>561.000000</ele>
        <time>2014-03-29T14:58:06Z</time>
      </trkpt>
      <trkpt lat="37.720342400" lon="-1.832272200">
        <ele>562.000000</ele>
        <time>2014-03-29T14:58:07Z</time>
      </trkpt>
      <trkpt lat="37.720354900" lon="-1.832390800">
        <ele>562.000000</ele>
        <time>2014-03-29T14:58:08Z</time>
      </trkpt>
      <trkpt lat="37.720367100" lon="-1.832509300">
        <ele>562.000000</ele>
        <time>2014-03-29T14:58:09Z</time>
      </trkpt>
      <trkpt lat="37.720377000" lon="-1.832629700">
        <ele>562.000000</ele>
        <time>2014-03-29T14:58:10Z</time>
      </trkpt>
      <trkpt lat="37.720387300" lon="-1.832748500">
        <ele>563.000000</ele>
        <time>2014-03-29T14:58:11Z</time>
      </trkpt>
      <trkpt lat="37.720396200" lon="-1.832866600">
        <ele>563.000000</ele>
        <time>2014-03-29T14:58:12Z</time>
      </trkpt>
      <trkpt lat="37.720405500" lon="-1.832988000">
        <ele>563.000000</ele>
        <time>2014-03-29T14:58:13Z</time>
      </trkpt>
      <trkpt lat="37.720410900" lon="-1.833111700">
        <ele>563.000000</ele>
        <time>2014-03-29T14:58:14Z</time>
      </trkpt>
      <trkpt lat="37.720418100" lon="-1.833235600">
        <ele>564.000000</ele>
        <time>2014-03-29T14:58:15Z</time>
      </trkpt>
      <trkpt lat="37.720427500" lon="-1.833359100">
        <ele>564.000000</ele>
        <time>2014-03-29T14:58:16Z</time>
      </trkpt>
      <trkpt lat="37.720438200" lon="-1.833486200">
        <ele>564.000000</ele>
        <time>2014-03-29T14:58:17Z</time>
      </trkpt>
      <trkpt lat="37.720453200" lon="-1.833612700">
        <ele>564.000000</ele>
        <time>2014-03-29T14:58:18Z</time>
      </trkpt>
      <trkpt lat="37.720470100" lon="-1.833739000">
        <ele>564.000000</ele>
        <time>2014-03-29T14:58:19Z</time>
      </trkpt>
      <trkpt lat="37.720481100" lon="-1.833867700">
        <ele>564.000000</ele>
        <time>2014-03-29T14:58:20Z</time>
      </trkpt>
      <trkpt lat="37.720490300" lon="-1.833993700">
        <ele>565.000000</ele>
        <time>2014-03-29T14:58:21Z</time>
      </trkpt>
      <trkpt lat="37.720497800" lon="-1.834117800">
        <ele>565.000000</ele>
        <time>2014-03-29T14:58:22Z</time>
      </trkpt>
      <trkpt lat="37.720503000" lon="-1.834238100">
        <ele>565.000000</ele>
        <time>2014-03-29T14:58:23Z</time>
      </trkpt>
      <trkpt lat="37.720510500" lon="-1.834361900">
        <ele>565.000000</ele>
        <time>2014-03-29T14:58:24Z</time>
      </trkpt>
      <trkpt lat="37.720518800" lon="-1.834482300">
        <ele>565.000000</ele>
        <time>2014-03-29T14:58:25Z</time>
      </trkpt>
      <trkpt lat="37.720527000" lon="-1.834597500">
        <ele>565.000000</ele>
        <time>2014-03-29T14:58:26Z</time>
      </trkpt>
      <trkpt lat="37.720536900" lon="-1.834715800">
        <ele>565.000000</ele>
        <time>2014-03-29T14:58:27Z</time>
      </trkpt>
      <trkpt lat="37.720544800" lon="-1.834836000">
        <ele>565.000000</ele>
        <time>2014-03-29T14:58:28Z</time>
      </trkpt>
      <trkpt lat="37.720551600" lon="-1.834953000">
        <ele>566.000000</ele>
        <time>2014-03-29T14:58:29Z</time>
      </trkpt>
      <trkpt lat="37.720557500" lon="-1.835068700">
        <ele>566.000000</ele>
        <time>2014-03-29T14:58:30Z</time>
      </trkpt>
      <trkpt lat="37.720564300" lon="-1.835181700">
        <ele>566.000000</ele>
        <time>2014-03-29T14:58:31Z</time>
      </trkpt>
      <trkpt lat="37.720572300" lon="-1.835291300">
        <ele>566.000000</ele>
        <time>2014-03-29T14:58:32Z</time>
      </trkpt>
      <trkpt lat="37.720579000" lon="-1.835404000">
        <ele>567.000000</ele>
        <time>2014-03-29T14:58:33Z</time>
      </trkpt>
      <trkpt lat="37.720587600" lon="-1.835514900">
        <ele>567.000000</ele>
        <time>2014-03-29T14:58:34Z</time>
      </trkpt>
      <trkpt lat="37.720594000" lon="-1.835621800">
        <ele>567.000000</ele>
        <time>2014-03-29T14:58:35Z</time>
      </trkpt>
      <trkpt lat="37.720600500" lon="-1.835725200">
        <ele>568.000000</ele>
        <time>2014-03-29T14:58:36Z</time>
      </trkpt>
      <trkpt lat="37.720609000" lon="-1.835827000">
        <ele>568.000000</ele>
        <time>2014-03-29T14:58:37Z</time>
      </trkpt>
      <trkpt lat="37.720617600" lon="-1.835929400">
        <ele>569.000000</ele>
        <time>2014-03-29T14:58:38Z</time>
      </trkpt>
      <trkpt lat="37.720623600" lon="-1.836031500">
        <ele>569.000000</ele>
        <time>2014-03-29T14:58:39Z</time>
      </trkpt>
      <trkpt lat="37.720631500" lon="-1.836136800">
        <ele>570.000000</ele>
        <time>2014-03-29T14:58:40Z</time>
      </trkpt>
      <trkpt lat="37.720642700" lon="-1.836243900">
        <ele>570.000000</ele>
        <time>2014-03-29T14:58:41Z</time>
      </trkpt>
      <trkpt lat="37.720652700" lon="-1.836353300">
        <ele>571.000000</ele>
        <time>2014-03-29T14:58:42Z</time>
      </trkpt>
      <trkpt lat="37.720661600" lon="-1.836465600">
        <ele>571.000000</ele>
        <time>2014-03-29T14:58:43Z</time>
      </trkpt>
      <trkpt lat="37.720672500" lon="-1.836575900">
        <ele>572.000000</ele>
        <time>2014-03-29T14:58:44Z</time>
      </trkpt>
      <trkpt lat="37.720681400" lon="-1.836688800">
        <ele>572.000000</ele>
        <time>2014-03-29T14:58:45Z</time>
      </trkpt>
      <trkpt lat="37.720689300" lon="-1.836803300">
        <ele>572.000000</ele>
        <time>2014-03-29T14:58:46Z</time>
      </trkpt>
      <trkpt lat="37.720697500" lon="-1.836916900">
        <ele>573.000000</ele>
        <time>2014-03-29T14:58:47Z</time>
      </trkpt>
      <trkpt lat="37.720705800" lon="-1.837027900">
        <ele>573.000000</ele>
        <time>2014-03-29T14:58:48Z</time>
      </trkpt>
      <trkpt lat="37.720714900" lon="-1.837139100">
        <ele>573.000000</ele>
        <time>2014-03-29T14:58:49Z</time>
      </trkpt>
      <trkpt lat="37.720722300" lon="-1.837249200">
        <ele>574.000000</ele>
        <time>2014-03-29T14:58:50Z</time>
      </trkpt>
      <trkpt lat="37.720731300" lon="-1.837358500">
        <ele>574.000000</ele>
        <time>2014-03-29T14:58:51Z</time>
      </trkpt>
      <trkpt lat="37.720739200" lon="-1.837465000">
        <ele>574.000000</ele>
        <time>2014-03-29T14:58:52Z</time>
      </trkpt>
      <trkpt lat="37.720748700" lon="-1.837572700">
        <ele>575.000000</ele>
        <time>2014-03-29T14:58:53Z</time>
      </trkpt>
      <trkpt lat="37.720766200" lon="-1.837679900">
        <ele>575.000000</ele>
        <time>2014-03-29T14:58:54Z</time>
      </trkpt>
      <trkpt lat="37.720782800" lon="-1.837793800">
        <ele>575.000000</ele>
        <time>2014-03-29T14:58:55Z</time>
      </trkpt>
      <trkpt lat="37.720794500" lon="-1.837891300">
        <ele>575.000000</ele>
        <time>2014-03-29T14:58:56Z</time>
      </trkpt>
      <trkpt lat="37.720803500" lon="-1.837992200">
        <ele>575.000000</ele>
        <time>2014-03-29T14:58:57Z</time>
      </trkpt>
      <trkpt lat="37.720810300" lon="-1.838095600">
        <ele>575.000000</ele>
        <time>2014-03-29T14:58:58Z</time>
      </trkpt>
      <trkpt lat="37.720819200" lon="-1.838204900">
        <ele>575.000000</ele>
        <time>2014-03-29T14:58:59Z</time>
      </trkpt>
      <trkpt lat="37.720827400" lon="-1.838320900">
        <ele>576.000000</ele>
        <time>2014-03-29T14:59:00Z</time>
      </trkpt>
      <trkpt lat="37.720831400" lon="-1.838433800">
        <ele>576.000000</ele>
        <time>2014-03-29T14:59:01Z</time>
      </trkpt>
      <trkpt lat="37.720831400" lon="-1.838550400">
        <ele>576.000000</ele>
        <time>2014-03-29T14:59:02Z</time>
      </trkpt>
      <trkpt lat="37.720828400" lon="-1.838663000">
        <ele>576.000000</ele>
        <time>2014-03-29T14:59:03Z</time>
      </trkpt>
      <trkpt lat="37.720823500" lon="-1.838773700">
        <ele>576.000000</ele>
        <time>2014-03-29T14:59:04Z</time>
      </trkpt>
      <trkpt lat="37.720814800" lon="-1.838880800">
        <ele>576.000000</ele>
        <time>2014-03-29T14:59:05Z</time>
      </trkpt>
      <trkpt lat="37.720806000" lon="-1.838988400">
        <ele>577.000000</ele>
        <time>2014-03-29T14:59:06Z</time>
      </trkpt>
      <trkpt lat="37.720795500" lon="-1.839090200">
        <ele>577.000000</ele>
        <time>2014-03-29T14:59:07Z</time>
      </trkpt>
      <trkpt lat="37.720782000" lon="-1.839192400">
        <ele>577.000000</ele>
        <time>2014-03-29T14:59:08Z</time>
      </trkpt>
      <trkpt lat="37.720765500" lon="-1.839300100">
        <ele>578.000000</ele>
        <time>2014-03-29T14:59:09Z</time>
      </trkpt>
      <trkpt lat="37.720752000" lon="-1.839413100">
        <ele>578.000000</ele>
        <time>2014-03-29T14:59:10Z</time>
      </trkpt>
      <trkpt lat="37.720732000" lon="-1.839511400">
        <ele>578.000000</ele>
        <time>2014-03-29T14:59:11Z</time>
      </trkpt>
      <trkpt lat="37.720707200" lon="-1.839606200">
        <ele>579.000000</ele>
        <time>2014-03-29T14:59:12Z</time>
      </trkpt>
      <trkpt lat="37.720680900" lon="-1.839698200">
        <ele>579.000000</ele>
        <time>2014-03-29T14:59:13Z</time>
      </trkpt>
      <trkpt lat="37.720653400" lon="-1.839787900">
        <ele>579.000000</ele>
        <time>2014-03-29T14:59:14Z</time>
      </trkpt>
      <trkpt lat="37.720619600" lon="-1.839875000">
        <ele>580.000000</ele>
        <time>2014-03-29T14:59:15Z</time>
      </trkpt>
      <trkpt lat="37.720586200" lon="-1.839966000">
        <ele>580.000000</ele>
        <time>2014-03-29T14:59:16Z</time>
      </trkpt>
      <trkpt lat="37.720555600" lon="-1.840054800">
        <ele>580.000000</ele>
        <time>2014-03-29T14:59:17Z</time>
      </trkpt>
      <trkpt lat="37.720524800" lon="-1.840145800">
        <ele>581.000000</ele>
        <time>2014-03-29T14:59:18Z</time>
      </trkpt>
      <trkpt lat="37.720493200" lon="-1.840233900">
        <ele>581.000000</ele>
        <time>2014-03-29T14:59:19Z</time>
      </trkpt>
      <trkpt lat="37.720460200" lon="-1.840323700">
        <ele>582.000000</ele>
        <time>2014-03-29T14:59:20Z</time>
      </trkpt>
      <trkpt lat="37.720428300" lon="-1.840412300">
        <ele>582.000000</ele>
        <time>2014-03-29T14:59:21Z</time>
      </trkpt>
      <trkpt lat="37.720396400" lon="-1.840502800">
        <ele>582.000000</ele>
        <time>2014-03-29T14:59:22Z</time>
      </trkpt>
      <trkpt lat="37.720364500" lon="-1.840595100">
        <ele>583.000000</ele>
        <time>2014-03-29T14:59:23Z</time>
      </trkpt>
      <trkpt lat="37.720333100" lon="-1.840688700">
        <ele>583.000000</ele>
        <time>2014-03-29T14:59:24Z</time>
      </trkpt>
      <trkpt lat="37.720299400" lon="-1.840782100">
        <ele>583.000000</ele>
        <time>2014-03-29T14:59:25Z</time>
      </trkpt>
      <trkpt lat="37.720268300" lon="-1.840870200">
        <ele>584.000000</ele>
        <time>2014-03-29T14:59:26Z</time>
      </trkpt>
      <trkpt lat="37.720230100" lon="-1.840957900">
        <ele>584.000000</ele>
        <time>2014-03-29T14:59:27Z</time>
      </trkpt>
      <trkpt lat="37.720189400" lon="-1.841044800">
        <ele>585.000000</ele>
        <time>2014-03-29T14:59:28Z</time>
      </trkpt>
      <trkpt lat="37.720149300" lon="-1.841131700">
        <ele>585.000000</ele>
        <time>2014-03-29T14:59:29Z</time>
      </trkpt>
      <trkpt lat="37.720110700" lon="-1.841224000">
        <ele>585.000000</ele>
        <time>2014-03-29T14:59:30Z</time>
      </trkpt>
      <trkpt lat="37.720074600" lon="-1.841315000">
        <ele>586.000000</ele>
        <time>2014-03-29T14:59:31Z</time>
      </trkpt>
      <trkpt lat="37.720036100" lon="-1.841408100">
        <ele>586.000000</ele>
        <time>2014-03-29T14:59:32Z</time>
      </trkpt>
      <trkpt lat="37.720005000" lon="-1.841504400">
        <ele>587.000000</ele>
        <time>2014-03-29T14:59:33Z</time>
      </trkpt>
      <trkpt lat="37.719975900" lon="-1.841597600">
        <ele>587.000000</ele>
        <time>2014-03-29T14:59:34Z</time>
      </trkpt>
      <trkpt lat="37.719951200" lon="-1.841688600">
        <ele>588.000000</ele>
        <time>2014-03-29T14:59:35Z</time>
      </trkpt>
      <trkpt lat="37.719927900" lon="-1.841782700">
        <ele>588.000000</ele>
        <time>2014-03-29T14:59:36Z</time>
      </trkpt>
      <trkpt lat="37.719907600" lon="-1.841877200">
        <ele>588.000000</ele>
        <time>2014-03-29T14:59:37Z</time>
      </trkpt>
      <trkpt lat="37.719890100" lon="-1.841969600">
        <ele>589.000000</ele>
        <time>2014-03-29T14:59:38Z</time>
      </trkpt>
      <trkpt lat="37.719875300" lon="-1.842060400">
        <ele>589.000000</ele>
        <time>2014-03-29T14:59:39Z</time>
      </trkpt>
      <trkpt lat="37.719862500" lon="-1.842153100">
        <ele>590.000000</ele>
        <time>2014-03-29T14:59:40Z</time>
      </trkpt>
      <trkpt lat="37.719854500" lon="-1.842245500">
        <ele>590.000000</ele>
        <time>2014-03-29T14:59:41Z</time>
      </trkpt>
      <trkpt lat="37.719847000" lon="-1.842338300">
        <ele>590.000000</ele>
        <time>2014-03-29T14:59:42Z</time>
      </trkpt>
      <trkpt lat="37.719840100" lon="-1.842430000">
        <ele>591.000000</ele>
        <time>2014-03-29T14:59:43Z</time>
      </trkpt>
      <trkpt lat="37.719834100" lon="-1.842523800">
        <ele>591.000000</ele>
        <time>2014-03-29T14:59:44Z</time>
      </trkpt>
      <trkpt lat="37.719831400" lon="-1.842617800">
        <ele>592.000000</ele>
        <time>2014-03-29T14:59:45Z</time>
      </trkpt>
      <trkpt lat="37.719828800" lon="-1.842710500">
        <ele>592.000000</ele>
        <time>2014-03-29T14:59:46Z</time>
      </trkpt>
      <trkpt lat="37.719824400" lon="-1.842799300">
        <ele>593.000000</ele>
        <time>2014-03-29T14:59:47Z</time>
      </trkpt>
      <trkpt lat="37.719816600" lon="-1.842890700">
        <ele>593.000000</ele>
        <time>2014-03-29T14:59:48Z</time>
      </trkpt>
      <trkpt lat="37.719808900" lon="-1.842984600">
        <ele>593.000000</ele>
        <time>2014-03-29T14:59:49Z</time>
      </trkpt>
      <trkpt lat="37.719802100" lon="-1.843078700">
        <ele>594.000000</ele>
        <time>2014-03-29T14:59:50Z</time>
      </trkpt>
      <trkpt lat="37.719798700" lon="-1.843175500">
        <ele>594.000000</ele>
        <time>2014-03-29T14:59:51Z</time>
      </trkpt>
      <trkpt lat="37.719796600" lon="-1.843275300">
        <ele>594.000000</ele>
        <time>2014-03-29T14:59:52Z</time>
      </trkpt>
      <trkpt lat="37.719795400" lon="-1.843374700">
        <ele>595.000000</ele>
        <time>2014-03-29T14:59:53Z</time>
      </trkpt>
      <trkpt lat="37.719793100" lon="-1.843473600">
        <ele>595.000000</ele>
        <time>2014-03-29T14:59:54Z</time>
      </trkpt>
      <trkpt lat="37.719791600" lon="-1.843571400">
        <ele>596.000000</ele>
        <time>2014-03-29T14:59:55Z</time>
      </trkpt>
      <trkpt lat="37.719785400" lon="-1.843669000">
        <ele>596.000000</ele>
        <time>2014-03-29T14:59:56Z</time>
      </trkpt>
      <trkpt lat="37.719777500" lon="-1.843768800">
        <ele>596.000000</ele>
        <time>2014-03-29T14:59:57Z</time>
      </trkpt>
      <trkpt lat="37.719772900" lon="-1.843871900">
        <ele>596.000000</ele>
        <time>2014-03-29T14:59:58Z</time>
      </trkpt>
      <trkpt lat="37.719767500" lon="-1.843973200">
        <ele>597.000000</ele>
        <time>2014-03-29T14:59:59Z</time>
      </trkpt>
      <trkpt lat="37.719760100" lon="-1.844075000">
        <ele>597.000000</ele>
        <time>2014-03-29T15:00:00Z</time>
      </trkpt>
      <trkpt lat="37.719755000" lon="-1.844177900">
        <ele>597.000000</ele>
        <time>2014-03-29T15:00:01Z</time>
      </trkpt>
      <trkpt lat="37.719749200" lon="-1.844281000">
        <ele>597.000000</ele>
        <time>2014-03-29T15:00:02Z</time>
      </trkpt>
      <trkpt lat="37.719742500" lon="-1.844382700">
        <ele>598.000000</ele>
        <time>2014-03-29T15:00:03Z</time>
      </trkpt>
      <trkpt lat="37.719735300" lon="-1.844485400">
        <ele>598.000000</ele>
        <time>2014-03-29T15:00:04Z</time>
      </trkpt>
      <trkpt lat="37.719730200" lon="-1.844588300">
        <ele>598.000000</ele>
        <time>2014-03-29T15:00:05Z</time>
      </trkpt>
      <trkpt lat="37.719723800" lon="-1.844689100">
        <ele>598.000000</ele>
        <time>2014-03-29T15:00:06Z</time>
      </trkpt>
      <trkpt lat="37.719718200" lon="-1.844787300">
        <ele>598.000000</ele>
        <time>2014-03-29T15:00:07Z</time>
      </trkpt>
      <trkpt lat="37.719713200" lon="-1.844887200">
        <ele>598.000000</ele>
        <time>2014-03-29T15:00:08Z</time>
      </trkpt>
      <trkpt lat="37.719706600" lon="-1.844984800">
        <ele>599.000000</ele>
        <time>2014-03-29T15:00:09Z</time>
      </trkpt>
      <trkpt lat="37.719699100" lon="-1.845084500">
        <ele>599.000000</ele>
        <time>2014-03-29T15:00:10Z</time>
      </trkpt>
      <trkpt lat="37.719696100" lon="-1.845184100">
        <ele>599.000000</ele>
        <time>2014-03-29T15:00:11Z</time>
      </trkpt>
      <trkpt lat="37.719691800" lon="-1.845281300">
        <ele>599.000000</ele>
        <time>2014-03-29T15:00:12Z</time>
      </trkpt>
      <trkpt lat="37.719686700" lon="-1.845377200">
        <ele>599.000000</ele>
        <time>2014-03-29T15:00:13Z</time>
      </trkpt>
      <trkpt lat="37.719682000" lon="-1.845473700">
        <ele>599.000000</ele>
        <time>2014-03-29T15:00:14Z</time>
      </trkpt>
      <trkpt lat="37.719674700" lon="-1.845568300">
        <ele>600.000000</ele>
        <time>2014-03-29T15:00:15Z</time>
      </trkpt>
      <trkpt lat="37.719668700" lon="-1.845663600">
        <ele>600.000000</ele>
        <time>2014-03-29T15:00:16Z</time>
      </trkpt>
      <trkpt lat="37.719663900" lon="-1.845756800">
        <ele>600.000000</ele>
        <time>2014-03-29T15:00:17Z</time>
      </trkpt>
      <trkpt lat="37.719659700" lon="-1.845847800">
        <ele>600.000000</ele>
        <time>2014-03-29T15:00:18Z</time>
      </trkpt>
      <trkpt lat="37.719655300" lon="-1.845938700">
        <ele>601.000000</ele>
        <time>2014-03-29T15:00:19Z</time>
      </trkpt>
      <trkpt lat="37.719652000" lon="-1.846030100">
        <ele>601.000000</ele>
        <time>2014-03-29T15:00:20Z</time>
      </trkpt>
      <trkpt lat="37.719650000" lon="-1.846124700">
        <ele>602.000000</ele>
        <time>2014-03-29T15:00:21Z</time>
      </trkpt>
      <trkpt lat="37.719650700" lon="-1.846222400">
        <ele>602.000000</ele>
        <time>2014-03-29T15:00:22Z</time>
      </trkpt>
      <trkpt lat="37.719656500" lon="-1.846317300">
        <ele>603.000000</ele>
        <time>2014-03-29T15:00:23Z</time>
      </trkpt>
      <trkpt lat="37.719666000" lon="-1.846411400">
        <ele>603.000000</ele>
        <time>2014-03-29T15:00:24Z</time>
      </trkpt>
      <trkpt lat="37.719679100" lon="-1.846505900">
        <ele>603.000000</ele>
        <time>2014-03-29T15:00:25Z</time>
      </trkpt>
      <trkpt lat="37.719698100" lon="-1.846598200">
        <ele>604.000000</ele>
        <time>2014-03-29T15:00:26Z</time>
      </trkpt>
      <trkpt lat="37.719726600" lon="-1.846694100">
        <ele>604.000000</ele>
        <time>2014-03-29T15:00:27Z</time>
      </trkpt>
      <trkpt lat="37.719763400" lon="-1.846784900">
        <ele>605.000000</ele>
        <time>2014-03-29T15:00:28Z</time>
      </trkpt>
      <trkpt lat="37.719803400" lon="-1.846873300">
        <ele>605.000000</ele>
        <time>2014-03-29T15:00:29Z</time>
      </trkpt>
      <trkpt lat="37.719847200" lon="-1.846959900">
        <ele>606.000000</ele>
        <time>2014-03-29T15:00:30Z</time>
      </trkpt>
      <trkpt lat="37.719891800" lon="-1.847043300">
        <ele>606.000000</ele>
        <time>2014-03-29T15:00:31Z</time>
      </trkpt>
      <trkpt lat="37.719938800" lon="-1.847124700">
        <ele>606.000000</ele>
        <time>2014-03-29T15:00:32Z</time>
      </trkpt>
      <trkpt lat="37.719989900" lon="-1.847209600">
        <ele>607.000000</ele>
        <time>2014-03-29T15:00:33Z</time>
      </trkpt>
      <trkpt lat="37.720043800" lon="-1.847295600">
        <ele>607.000000</ele>
        <time>2014-03-29T15:00:34Z</time>
      </trkpt>
      <trkpt lat="37.720099700" lon="-1.847382200">
        <ele>607.000000</ele>
        <time>2014-03-29T15:00:35Z</time>
      </trkpt>
      <trkpt lat="37.720155100" lon="-1.847464600">
        <ele>608.000000</ele>
        <time>2014-03-29T15:00:36Z</time>
      </trkpt>
      <trkpt lat="37.720209400" lon="-1.847548800">
        <ele>608.000000</ele>
        <time>2014-03-29T15:00:37Z</time>
      </trkpt>
      <trkpt lat="37.720264100" lon="-1.847630400">
        <ele>608.000000</ele>
        <time>2014-03-29T15:00:38Z</time>
      </trkpt>
      <trkpt lat="37.720318600" lon="-1.847710900">
        <ele>608.000000</ele>
        <time>2014-03-29T15:00:39Z</time>
      </trkpt>
      <trkpt lat="37.720374000" lon="-1.847787700">
        <ele>609.000000</ele>
        <time>2014-03-29T15:00:40Z</time>
      </trkpt>
      <trkpt lat="37.720426500" lon="-1.847864200">
        <ele>609.000000</ele>
        <time>2014-03-29T15:00:41Z</time>
      </trkpt>
      <trkpt lat="37.720474900" lon="-1.847942600">
        <ele>609.000000</ele>
        <time>2014-03-29T15:00:42Z</time>
      </trkpt>
      <trkpt lat="37.720515700" lon="-1.848021500">
        <ele>609.000000</ele>
        <time>2014-03-29T15:00:43Z</time>
      </trkpt>
      <trkpt lat="37.720552000" lon="-1.848102300">
        <ele>610.000000</ele>
        <time>2014-03-29T15:00:44Z</time>
      </trkpt>
      <trkpt lat="37.720581700" lon="-1.848182900">
        <ele>610.000000</ele>
        <time>2014-03-29T15:00:45Z</time>
      </trkpt>
      <trkpt lat="37.720604500" lon="-1.848267000">
        <ele>610.000000</ele>
        <time>2014-03-29T15:00:46Z</time>
      </trkpt>
      <trkpt lat="37.720622700" lon="-1.848353300">
        <ele>611.000000</ele>
        <time>2014-03-29T15:00:47Z</time>
      </trkpt>
      <trkpt lat="37.720638000" lon="-1.848440100">
        <ele>611.000000</ele>
        <time>2014-03-29T15:00:48Z</time>
      </trkpt>
      <trkpt lat="37.720647200" lon="-1.848530600">
        <ele>611.000000</ele>
        <time>2014-03-29T15:00:49Z</time>
      </trkpt>
      <trkpt lat="37.720649400" lon="-1.848622400">
        <ele>612.000000</ele>
        <time>2014-03-29T15:00:50Z</time>
      </trkpt>
      <trkpt lat="37.720643100" lon="-1.848713600">
        <ele>612.000000</ele>
        <time>2014-03-29T15:00:51Z</time>
      </trkpt>
      <trkpt lat="37.720634300" lon="-1.848806800">
        <ele>612.000000</ele>
        <time>2014-03-29T15:00:52Z</time>
      </trkpt>
      <trkpt lat="37.720628300" lon="-1.848901200">
        <ele>612.000000</ele>
        <time>2014-03-29T15:00:53Z</time>
      </trkpt>
      <trkpt lat="37.720621700" lon="-1.848991600">
        <ele>613.000000</ele>
        <time>2014-03-29T15:00:54Z</time>
      </trkpt>
      <trkpt lat="37.720610300" lon="-1.849082600">
        <ele>613.000000</ele>
        <time>2014-03-29T15:00:55Z</time>
      </trkpt>
      <trkpt lat="37.720598200" lon="-1.849173900">
        <ele>614.000000</ele>
        <time>2014-03-29T15:00:56Z</time>
      </trkpt>
      <trkpt lat="37.720588200" lon="-1.849264600">
        <ele>614.000000</ele>
        <time>2014-03-29T15:00:57Z</time>
      </trkpt>
      <trkpt lat="37.720576200" lon="-1.849358800">
        <ele>615.000000</ele>
        <time>2014-03-29T15:00:58Z</time>
      </trkpt>
      <trkpt lat="37.720565600" lon="-1.849454300">
        <ele>615.000000</ele>
        <time>2014-03-29T15:00:59Z</time>
      </trkpt>
      <trkpt lat="37.720555400" lon="-1.849549900">
        <ele>616.000000</ele>
        <time>2014-03-29T15:01:00Z</time>
      </trkpt>
      <trkpt lat="37.720541200" lon="-1.849643500">
        <ele>616.000000</ele>
        <time>2014-03-29T15:01:01Z</time>
      </trkpt>
      <trkpt lat="37.720532200" lon="-1.849739200">
        <ele>616.000000</ele>
        <time>2014-03-29T15:01:02Z</time>
      </trkpt>
      <trkpt lat="37.720527100" lon="-1.849837900">
        <ele>617.000000</ele>
        <time>2014-03-29T15:01:03Z</time>
      </trkpt>
      <trkpt lat="37.720526500" lon="-1.849932800">
        <ele>617.000000</ele>
        <time>2014-03-29T15:01:04Z</time>
      </trkpt>
      <trkpt lat="37.720532000" lon="-1.850029600">
        <ele>618.000000</ele>
        <time>2014-03-29T15:01:05Z</time>
      </trkpt>
      <trkpt lat="37.720541700" lon="-1.850124300">
        <ele>618.000000</ele>
        <time>2014-03-29T15:01:06Z</time>
      </trkpt>
      <trkpt lat="37.720555500" lon="-1.850217600">
        <ele>619.000000</ele>
        <time>2014-03-29T15:01:07Z</time>
      </trkpt>
      <trkpt lat="37.720572400" lon="-1.850314700">
        <ele>619.000000</ele>
        <time>2014-03-29T15:01:08Z</time>
      </trkpt>
      <trkpt lat="37.720600600" lon="-1.850410000">
        <ele>620.000000</ele>
        <time>2014-03-29T15:01:09Z</time>
      </trkpt>
      <trkpt lat="37.720634800" lon="-1.850507600">
        <ele>620.000000</ele>
        <time>2014-03-29T15:01:10Z</time>
      </trkpt>
      <trkpt lat="37.720665300" lon="-1.850609700">
        <ele>620.000000</ele>
        <time>2014-03-29T15:01:11Z</time>
      </trkpt>
      <trkpt lat="37.720688000" lon="-1.850706600">
        <ele>621.000000</ele>
        <time>2014-03-29T15:01:12Z</time>
      </trkpt>
      <trkpt lat="37.720709400" lon="-1.850802500">
        <ele>621.000000</ele>
        <time>2014-03-29T15:01:13Z</time>
      </trkpt>
      <trkpt lat="37.720735600" lon="-1.850900500">
        <ele>621.000000</ele>
        <time>2014-03-29T15:01:14Z</time>
      </trkpt>
      <trkpt lat="37.720765300" lon="-1.851001900">
        <ele>621.000000</ele>
        <time>2014-03-29T15:01:15Z</time>
      </trkpt>
      <trkpt lat="37.720789700" lon="-1.851105200">
        <ele>622.000000</ele>
        <time>2014-03-29T15:01:16Z</time>
      </trkpt>
      <trkpt lat="37.720813100" lon="-1.851209800">
        <ele>622.000000</ele>
        <time>2014-03-29T15:01:17Z</time>
      </trkpt>
      <trkpt lat="37.720834000" lon="-1.851317100">
        <ele>622.000000</ele>
        <time>2014-03-29T15:01:18Z</time>
      </trkpt>
      <trkpt lat="37.720852900" lon="-1.851422900">
        <ele>622.000000</ele>
        <time>2014-03-29T15:01:19Z</time>
      </trkpt>
      <trkpt lat="37.720872100" lon="-1.851533000">
        <ele>623.000000</ele>
        <time>2014-03-29T15:01:20Z</time>
      </trkpt>
      <trkpt lat="37.720884000" lon="-1.851647300">
        <ele>623.000000</ele>
        <time>2014-03-29T15:01:21Z</time>
      </trkpt>
      <trkpt lat="37.720893600" lon="-1.851763400">
        <ele>623.000000</ele>
        <time>2014-03-29T15:01:22Z</time>
      </trkpt>
      <trkpt lat="37.720893500" lon="-1.851887200">
        <ele>623.000000</ele>
        <time>2014-03-29T15:01:23Z</time>
      </trkpt>
      <trkpt lat="37.720891400" lon="-1.852012600">
        <ele>623.000000</ele>
        <time>2014-03-29T15:01:24Z</time>
      </trkpt>
      <trkpt lat="37.720893400" lon="-1.852137900">
        <ele>623.000000</ele>
        <time>2014-03-29T15:01:25Z</time>
      </trkpt>
      <trkpt lat="37.720894900" lon="-1.852267900">
        <ele>623.000000</ele>
        <time>2014-03-29T15:01:26Z</time>
      </trkpt>
      <trkpt lat="37.720900100" lon="-1.852399900">
        <ele>623.000000</ele>
        <time>2014-03-29T15:01:27Z</time>
      </trkpt>
      <trkpt lat="37.720912500" lon="-1.852535500">
        <ele>623.000000</ele>
        <time>2014-03-29T15:01:28Z</time>
      </trkpt>
      <trkpt lat="37.720931200" lon="-1.852672800">
        <ele>623.000000</ele>
        <time>2014-03-29T15:01:29Z</time>
      </trkpt>
      <trkpt lat="37.720963700" lon="-1.852811900">
        <ele>623.000000</ele>
        <time>2014-03-29T15:01:30Z</time>
      </trkpt>
      <trkpt lat="37.721008200" lon="-1.852954800">
        <ele>623.000000</ele>
        <time>2014-03-29T15:01:31Z</time>
      </trkpt>
      <trkpt lat="37.721059300" lon="-1.853100500">
        <ele>622.000000</ele>
        <time>2014-03-29T15:01:32Z</time>
      </trkpt>
      <trkpt lat="37.721119200" lon="-1.853246500">
        <ele>622.000000</ele>
        <time>2014-03-29T15:01:33Z</time>
      </trkpt>
      <trkpt lat="37.721186000" lon="-1.853399800">
        <ele>622.000000</ele>
        <time>2014-03-29T15:01:34Z</time>
      </trkpt>
      <trkpt lat="37.721264500" lon="-1.853553900">
        <ele>621.000000</ele>
        <time>2014-03-29T15:01:35Z</time>
      </trkpt>
      <trkpt lat="37.721356800" lon="-1.853702600">
        <ele>621.000000</ele>
        <time>2014-03-29T15:01:36Z</time>
      </trkpt>
      <trkpt lat="37.721454000" lon="-1.853841900">
        <ele>620.000000</ele>
        <time>2014-03-29T15:01:37Z</time>
      </trkpt>
      <trkpt lat="37.721559800" lon="-1.853979700">
        <ele>619.000000</ele>
        <time>2014-03-29T15:01:38Z</time>
      </trkpt>
      <trkpt lat="37.721678800" lon="-1.854108200">
        <ele>618.000000</ele>
        <time>2014-03-29T15:01:39Z</time>
      </trkpt>
      <trkpt lat="37.721810000" lon="-1.854233900">
        <ele>617.000000</ele>
        <time>2014-03-29T15:01:40Z</time>
      </trkpt>
      <trkpt lat="37.721943100" lon="-1.854341200">
        <ele>617.000000</ele>
        <time>2014-03-29T15:01:41Z</time>
      </trkpt>
      <trkpt lat="37.722085500" lon="-1.854427300">
        <ele>616.000000</ele>
        <time>2014-03-29T15:01:42Z</time>
      </trkpt>
      <trkpt lat="37.722232100" lon="-1.854496100">
        <ele>615.000000</ele>
        <time>2014-03-29T15:01:43Z</time>
      </trkpt>
      <trkpt lat="37.722380800" lon="-1.854558100">
        <ele>614.000000</ele>
        <time>2014-03-29T15:01:44Z</time>
      </trkpt>
      <trkpt lat="37.722531900" lon="-1.854619700">
        <ele>613.000000</ele>
        <time>2014-03-29T15:01:45Z</time>
      </trkpt>
      <trkpt lat="37.722681400" lon="-1.854682300">
        <ele>612.000000</ele>
        <time>2014-03-29T15:01:46Z</time>
      </trkpt>
      <trkpt lat="37.722832000" lon="-1.854744600">
        <ele>611.000000</ele>
        <time>2014-03-29T15:01:47Z</time>
      </trkpt>
      <trkpt lat="37.722981300" lon="-1.854817500">
        <ele>610.000000</ele>
        <time>2014-03-29T15:01:48Z</time>
      </trkpt>
      <trkpt lat="37.723126100" lon="-1.854889900">
        <ele>608.000000</ele>
        <time>2014-03-29T15:01:49Z</time>
      </trkpt>
      <trkpt lat="37.723273300" lon="-1.854970700">
        <ele>607.000000</ele>
        <time>2014-03-29T15:01:50Z</time>
      </trkpt>
      <trkpt lat="37.723405400" lon="-1.855071400">
        <ele>606.000000</ele>
        <time>2014-03-29T15:01:51Z</time>
      </trkpt>
      <trkpt lat="37.723522700" lon="-1.855190400">
        <ele>605.000000</ele>
        <time>2014-03-29T15:01:52Z</time>
      </trkpt>
      <trkpt lat="37.723635000" lon="-1.855316500">
        <ele>604.000000</ele>
        <time>2014-03-29T15:01:53Z</time>
      </trkpt>
      <trkpt lat="37.723742900" lon="-1.855441500">
        <ele>603.000000</ele>
        <time>2014-03-29T15:01:54Z</time>
      </trkpt>
      <trkpt lat="37.723852600" lon="-1.855563300">
        <ele>602.000000</ele>
        <time>2014-03-29T15:01:55Z</time>
      </trkpt>
      <trkpt lat="37.723960800" lon="-1.855686000">
        <ele>602.000000</ele>
        <time>2014-03-29T15:01:56Z</time>
      </trkpt>
      <trkpt lat="37.724071500" lon="-1.855808200">
        <ele>601.000000</ele>
        <time>2014-03-29T15:01:57Z</time>
      </trkpt>
      <trkpt lat="37.724185000" lon="-1.855924500">
        <ele>600.000000</ele>
        <time>2014-03-29T15:01:58Z</time>
      </trkpt>
      <trkpt lat="37.724302200" lon="-1.856036900">
        <ele>599.000000</ele>
        <time>2014-03-29T15:01:59Z</time>
      </trkpt>
      <trkpt lat="37.724420500" lon="-1.856153400">
        <ele>599.000000</ele>
        <time>2014-03-29T15:02:00Z</time>
      </trkpt>
      <trkpt lat="37.724538500" lon="-1.856273000">
        <ele>598.000000</ele>
        <time>2014-03-29T15:02:01Z</time>
      </trkpt>
      <trkpt lat="37.724662700" lon="-1.856390600">
        <ele>597.000000</ele>
        <time>2014-03-29T15:02:02Z</time>
      </trkpt>
      <trkpt lat="37.724800700" lon="-1.856508200">
        <ele>596.000000</ele>
        <time>2014-03-29T15:02:03Z</time>
      </trkpt>
      <trkpt lat="37.724933700" lon="-1.856627000">
        <ele>596.000000</ele>
        <time>2014-03-29T15:02:04Z</time>
      </trkpt>
      <trkpt lat="37.725069600" lon="-1.856745700">
        <ele>595.000000</ele>
        <time>2014-03-29T15:02:05Z</time>
      </trkpt>
      <trkpt lat="37.725204400" lon="-1.856865300">
        <ele>595.000000</ele>
        <time>2014-03-29T15:02:06Z</time>
      </trkpt>
      <trkpt lat="37.725337900" lon="-1.856982900">
        <ele>594.000000</ele>
        <time>2014-03-29T15:02:07Z</time>
      </trkpt>
      <trkpt lat="37.725461500" lon="-1.857099100">
        <ele>594.000000</ele>
        <time>2014-03-29T15:02:08Z</time>
      </trkpt>
      <trkpt lat="37.725583600" lon="-1.857217900">
        <ele>593.000000</ele>
        <time>2014-03-29T15:02:09Z</time>
      </trkpt>
      <trkpt lat="37.725702700" lon="-1.857333300">
        <ele>593.000000</ele>
        <time>2014-03-29T15:02:10Z</time>
      </trkpt>
      <trkpt lat="37.725815900" lon="-1.857443900">
        <ele>592.000000</ele>
        <time>2014-03-29T15:02:11Z</time>
      </trkpt>
      <trkpt lat="37.725928200" lon="-1.857550700">
        <ele>592.000000</ele>
        <time>2014-03-29T15:02:12Z</time>
      </trkpt>
      <trkpt lat="37.726037700" lon="-1.857659400">
        <ele>591.000000</ele>
        <time>2014-03-29T15:02:13Z</time>
      </trkpt>
      <trkpt lat="37.726148400" lon="-1.857765100">
        <ele>591.000000</ele>
        <time>2014-03-29T15:02:14Z</time>
      </trkpt>
      <trkpt lat="37.726260300" lon="-1.857866600">
        <ele>590.000000</ele>
        <time>2014-03-29T15:02:15Z</time>
      </trkpt>
      <trkpt lat="37.726368100" lon="-1.857964100">
        <ele>590.000000</ele>
        <time>2014-03-29T15:02:16Z</time>
      </trkpt>
      <trkpt lat="37.726477400" lon="-1.858063900">
        <ele>590.000000</ele>
        <time>2014-03-29T15:02:17Z</time>
      </trkpt>
      <trkpt lat="37.726585500" lon="-1.858162900">
        <ele>589.000000</ele>
        <time>2014-03-29T15:02:18Z</time>
      </trkpt>
      <trkpt lat="37.726691100" lon="-1.858261000">
        <ele>589.000000</ele>
        <time>2014-03-29T15:02:19Z</time>
      </trkpt>
      <trkpt lat="37.726799000" lon="-1.858357500">
        <ele>589.000000</ele>
        <time>2014-03-29T15:02:20Z</time>
      </trkpt>
      <trkpt lat="37.726911300" lon="-1.858450900">
        <ele>588.000000</ele>
        <time>2014-03-29T15:02:21Z</time>
      </trkpt>
      <trkpt lat="37.727025200" lon="-1.858538700">
        <ele>588.000000</ele>
        <time>2014-03-29T15:02:22Z</time>
      </trkpt>
      <trkpt lat="37.727141400" lon="-1.858620900">
        <ele>588.000000</ele>
        <time>2014-03-29T15:02:23Z</time>
      </trkpt>
      <trkpt lat="37.727261100" lon="-1.858692000">
        <ele>587.000000</ele>
        <time>2014-03-29T15:02:24Z</time>
      </trkpt>
      <trkpt lat="37.727382500" lon="-1.858754000">
        <ele>587.000000</ele>
        <time>2014-03-29T15:02:25Z</time>
      </trkpt>
      <trkpt lat="37.727501700" lon="-1.858808300">
        <ele>587.000000</ele>
        <time>2014-03-29T15:02:26Z</time>
      </trkpt>
      <trkpt lat="37.727623300" lon="-1.858856600">
        <ele>586.000000</ele>
        <time>2014-03-29T15:02:27Z</time>
      </trkpt>
      <trkpt lat="37.727746600" lon="-1.858902700">
        <ele>586.000000</ele>
        <time>2014-03-29T15:02:28Z</time>
      </trkpt>
      <trkpt lat="37.727869000" lon="-1.858946700">
        <ele>586.000000</ele>
        <time>2014-03-29T15:02:29Z</time>
      </trkpt>
      <trkpt lat="37.727993300" lon="-1.858987900">
        <ele>585.000000</ele>
        <time>2014-03-29T15:02:30Z</time>
      </trkpt>
      <trkpt lat="37.728116500" lon="-1.859032900">
        <ele>585.000000</ele>
        <time>2014-03-29T15:02:31Z</time>
      </trkpt>
      <trkpt lat="37.728239400" lon="-1.859077300">
        <ele>585.000000</ele>
        <time>2014-03-29T15:02:32Z</time>
      </trkpt>
      <trkpt lat="37.728359900" lon="-1.859125600">
        <ele>584.000000</ele>
        <time>2014-03-29T15:02:33Z</time>
      </trkpt>
      <trkpt lat="37.728477700" lon="-1.859179700">
        <ele>584.000000</ele>
        <time>2014-03-29T15:02:34Z</time>
      </trkpt>
      <trkpt lat="37.728597400" lon="-1.859229800">
        <ele>584.000000</ele>
        <time>2014-03-29T15:02:35Z</time>
      </trkpt>
      <trkpt lat="37.728716700" lon="-1.859278200">
        <ele>583.000000</ele>
        <time>2014-03-29T15:02:36Z</time>
      </trkpt>
      <trkpt lat="37.728834600" lon="-1.859327300">
        <ele>583.000000</ele>
        <time>2014-03-29T15:02:37Z</time>
      </trkpt>
      <trkpt lat="37.728953000" lon="-1.859377100">
        <ele>583.000000</ele>
        <time>2014-03-29T15:02:38Z</time>
      </trkpt>
      <trkpt lat="37.729070800" lon="-1.859425700">
        <ele>582.000000</ele>
        <time>2014-03-29T15:02:39Z</time>
      </trkpt>
      <trkpt lat="37.729190100" lon="-1.859471700">
        <ele>582.000000</ele>
        <time>2014-03-29T15:02:40Z</time>
      </trkpt>
      <trkpt lat="37.729302400" lon="-1.859521100">
        <ele>582.000000</ele>
        <time>2014-03-29T15:02:41Z</time>
      </trkpt>
      <trkpt lat="37.729413100" lon="-1.859571300">
        <ele>582.000000</ele>
        <time>2014-03-29T15:02:42Z</time>
      </trkpt>
      <trkpt lat="37.729519600" lon="-1.859617700">
        <ele>581.000000</ele>
        <time>2014-03-29T15:02:43Z</time>
      </trkpt>
      <trkpt lat="37.729621200" lon="-1.859663100">
        <ele>581.000000</ele>
        <time>2014-03-29T15:02:44Z</time>
      </trkpt>
      <trkpt lat="37.729717700" lon="-1.859707300">
        <ele>581.000000</ele>
        <time>2014-03-29T15:02:45Z</time>
      </trkpt>
      <trkpt lat="37.729814900" lon="-1.859759600">
        <ele>581.000000</ele>
        <time>2014-03-29T15:02:46Z</time>
      </trkpt>
      <trkpt lat="37.729906900" lon="-1.859833200">
        <ele>581.000000</ele>
        <time>2014-03-29T15:02:47Z</time>
      </trkpt>
      <trkpt lat="37.729991800" lon="-1.859925900">
        <ele>581.000000</ele>
        <time>2014-03-29T15:02:48Z</time>
      </trkpt>
      <trkpt lat="37.730008800" lon="-1.860063300">
        <ele>581.000000</ele>
        <time>2014-03-29T15:02:49Z</time>
      </trkpt>
      <trkpt lat="37.729993200" lon="-1.860209900">
        <ele>581.000000</ele>
        <time>2014-03-29T15:02:50Z</time>
      </trkpt>
      <trkpt lat="37.729984600" lon="-1.860338700">
        <ele>581.000000</ele>
        <time>2014-03-29T15:02:51Z</time>
      </trkpt>
      <trkpt lat="37.729953500" lon="-1.860471700">
        <ele>581.000000</ele>
        <time>2014-03-29T15:02:52Z</time>
      </trkpt>
      <trkpt lat="37.729898300" lon="-1.860616800">
        <ele>581.000000</ele>
        <time>2014-03-29T15:02:53Z</time>
      </trkpt>
      <trkpt lat="37.729847300" lon="-1.860764500">
        <ele>580.000000</ele>
        <time>2014-03-29T15:02:54Z</time>
      </trkpt>
      <trkpt lat="37.729809100" lon="-1.860912400">
        <ele>580.000000</ele>
        <time>2014-03-29T15:02:55Z</time>
      </trkpt>
      <trkpt lat="37.729771800" lon="-1.861056000">
        <ele>580.000000</ele>
        <time>2014-03-29T15:02:56Z</time>
      </trkpt>
      <trkpt lat="37.729733400" lon="-1.861197000">
        <ele>580.000000</ele>
        <time>2014-03-29T15:02:57Z</time>
      </trkpt>
      <trkpt lat="37.729689500" lon="-1.861336400">
        <ele>580.000000</ele>
        <time>2014-03-29T15:02:58Z</time>
      </trkpt>
      <trkpt lat="37.729651800" lon="-1.861473700">
        <ele>580.000000</ele>
        <time>2014-03-29T15:02:59Z</time>
      </trkpt>
      <trkpt lat="37.729613800" lon="-1.861611500">
        <ele>580.000000</ele>
        <time>2014-03-29T15:03:00Z</time>
      </trkpt>
      <trkpt lat="37.729585700" lon="-1.861752200">
        <ele>580.000000</ele>
        <time>2014-03-29T15:03:01Z</time>
      </trkpt>
      <trkpt lat="37.729554400" lon="-1.861897600">
        <ele>580.000000</ele>
        <time>2014-03-29T15:03:02Z</time>
      </trkpt>
      <trkpt lat="37.729523700" lon="-1.862045000">
        <ele>580.000000</ele>
        <time>2014-03-29T15:03:03Z</time>
      </trkpt>
      <trkpt lat="37.729492700" lon="-1.862190600">
        <ele>580.000000</ele>
        <time>2014-03-29T15:03:04Z</time>
      </trkpt>
      <trkpt lat="37.729459600" lon="-1.862328900">
        <ele>580.000000</ele>
        <time>2014-03-29T15:03:05Z</time>
      </trkpt>
      <trkpt lat="37.729425600" lon="-1.862464200">
        <ele>580.000000</ele>
        <time>2014-03-29T15:03:06Z</time>
      </trkpt>
      <trkpt lat="37.729395800" lon="-1.862599800">
        <ele>580.000000</ele>
        <time>2014-03-29T15:03:07Z</time>
      </trkpt>
      <trkpt lat="37.729368700" lon="-1.862736300">
        <ele>580.000000</ele>
        <time>2014-03-29T15:03:08Z</time>
      </trkpt>
      <trkpt lat="37.729344600" lon="-1.862872400">
        <ele>580.000000</ele>
        <time>2014-03-29T15:03:09Z</time>
      </trkpt>
      <trkpt lat="37.729319300" lon="-1.863006600">
        <ele>580.000000</ele>
        <time>2014-03-29T15:03:10Z</time>
      </trkpt>
      <trkpt lat="37.729294100" lon="-1.863140400">
        <ele>580.000000</ele>
        <time>2014-03-29T15:03:11Z</time>
      </trkpt>
      <trkpt lat="37.729264700" lon="-1.863272300">
        <ele>580.000000</ele>
        <time>2014-03-29T15:03:12Z</time>
      </trkpt>
      <trkpt lat="37.729231200" lon="-1.863405800">
        <ele>580.000000</ele>
        <time>2014-03-29T15:03:13Z</time>
      </trkpt>
      <trkpt lat="37.729198300" lon="-1.863541700">
        <ele>581.000000</ele>
        <time>2014-03-29T15:03:14Z</time>
      </trkpt>
      <trkpt lat="37.729164700" lon="-1.863676000">
        <ele>581.000000</ele>
        <time>2014-03-29T15:03:15Z</time>
      </trkpt>
      <trkpt lat="37.729123900" lon="-1.863809500">
        <ele>581.000000</ele>
        <time>2014-03-29T15:03:16Z</time>
      </trkpt>
      <trkpt lat="37.729081800" lon="-1.863941000">
        <ele>581.000000</ele>
        <time>2014-03-29T15:03:17Z</time>
      </trkpt>
      <trkpt lat="37.729038600" lon="-1.864070100">
        <ele>581.000000</ele>
        <time>2014-03-29T15:03:18Z</time>
      </trkpt>
      <trkpt lat="37.728991900" lon="-1.864199900">
        <ele>582.000000</ele>
        <time>2014-03-29T15:03:19Z</time>
      </trkpt>
      <trkpt lat="37.728946400" lon="-1.864323900">
        <ele>582.000000</ele>
        <time>2014-03-29T15:03:20Z</time>
      </trkpt>
      <trkpt lat="37.728900600" lon="-1.864448800">
        <ele>582.000000</ele>
        <time>2014-03-29T15:03:21Z</time>
      </trkpt>
      <trkpt lat="37.728852800" lon="-1.864572500">
        <ele>582.000000</ele>
        <time>2014-03-29T15:03:22Z</time>
      </trkpt>
      <trkpt lat="37.728803500" lon="-1.864695200">
        <ele>582.000000</ele>
        <time>2014-03-29T15:03:23Z</time>
      </trkpt>
      <trkpt lat="37.728756600" lon="-1.864817200">
        <ele>582.000000</ele>
        <time>2014-03-29T15:03:24Z</time>
      </trkpt>
      <trkpt lat="37.728711400" lon="-1.864938600">
        <ele>582.000000</ele>
        <time>2014-03-29T15:03:25Z</time>
      </trkpt>
      <trkpt lat="37.728666100" lon="-1.865059700">
        <ele>583.000000</ele>
        <time>2014-03-29T15:03:26Z</time>
      </trkpt>
      <trkpt lat="37.728622800" lon="-1.865178100">
        <ele>583.000000</ele>
        <time>2014-03-29T15:03:27Z</time>
      </trkpt>
      <trkpt lat="37.728581100" lon="-1.865296300">
        <ele>583.000000</ele>
        <time>2014-03-29T15:03:28Z</time>
      </trkpt>
      <trkpt lat="37.728538800" lon="-1.865414000">
        <ele>583.000000</ele>
        <time>2014-03-29T15:03:29Z</time>
      </trkpt>
      <trkpt lat="37.728492500" lon="-1.865531200">
        <ele>583.000000</ele>
        <time>2014-03-29T15:03:30Z</time>
      </trkpt>
      <trkpt lat="37.728445500" lon="-1.865648300">
        <ele>583.000000</ele>
        <time>2014-03-29T15:03:31Z</time>
      </trkpt>
      <trkpt lat="37.728395700" lon="-1.865770100">
        <ele>583.000000</ele>
        <time>2014-03-29T15:03:32Z</time>
      </trkpt>
      <trkpt lat="37.728351000" lon="-1.865887200">
        <ele>583.000000</ele>
        <time>2014-03-29T15:03:33Z</time>
      </trkpt>
      <trkpt lat="37.728309000" lon="-1.866002600">
        <ele>583.000000</ele>
        <time>2014-03-29T15:03:34Z</time>
      </trkpt>
      <trkpt lat="37.728268400" lon="-1.866118300">
        <ele>583.000000</ele>
        <time>2014-03-29T15:03:35Z</time>
      </trkpt>
      <trkpt lat="37.728228700" lon="-1.866232600">
        <ele>584.000000</ele>
        <time>2014-03-29T15:03:36Z</time>
      </trkpt>
      <trkpt lat="37.728192500" lon="-1.866347900">
        <ele>584.000000</ele>
        <time>2014-03-29T15:03:37Z</time>
      </trkpt>
      <trkpt lat="37.728162400" lon="-1.866463700">
        <ele>584.000000</ele>
        <time>2014-03-29T15:03:38Z</time>
      </trkpt>
      <trkpt lat="37.728136300" lon="-1.866582600">
        <ele>584.000000</ele>
        <time>2014-03-29T15:03:39Z</time>
      </trkpt>
      <trkpt lat="37.728117600" lon="-1.866704500">
        <ele>584.000000</ele>
        <time>2014-03-29T15:03:40Z</time>
      </trkpt>
      <trkpt lat="37.728104700" lon="-1.866830200">
        <ele>584.000000</ele>
        <time>2014-03-29T15:03:41Z</time>
      </trkpt>
      <trkpt lat="37.728092600" lon="-1.866956700">
        <ele>584.000000</ele>
        <time>2014-03-29T15:03:42Z</time>
      </trkpt>
      <trkpt lat="37.728082300" lon="-1.867085500">
        <ele>585.000000</ele>
        <time>2014-03-29T15:03:43Z</time>
      </trkpt>
      <trkpt lat="37.728071200" lon="-1.867213200">
        <ele>585.000000</ele>
        <time>2014-03-29T15:03:44Z</time>
      </trkpt>
      <trkpt lat="37.728059900" lon="-1.867343000">
        <ele>585.000000</ele>
        <time>2014-03-29T15:03:45Z</time>
      </trkpt>
      <trkpt lat="37.728048200" lon="-1.867471300">
        <ele>585.000000</ele>
        <time>2014-03-29T15:03:46Z</time>
      </trkpt>
      <trkpt lat="37.728036800" lon="-1.867599900">
        <ele>585.000000</ele>
        <time>2014-03-29T15:03:47Z</time>
      </trkpt>
      <trkpt lat="37.728025700" lon="-1.867731800">
        <ele>586.000000</ele>
        <time>2014-03-29T15:03:48Z</time>
      </trkpt>
      <trkpt lat="37.728014900" lon="-1.867862900">
        <ele>586.000000</ele>
        <time>2014-03-29T15:03:49Z</time>
      </trkpt>
      <trkpt lat="37.728005100" lon="-1.867991400">
        <ele>586.000000</ele>
        <time>2014-03-29T15:03:50Z</time>
      </trkpt>
      <trkpt lat="37.727994500" lon="-1.868119600">
        <ele>586.000000</ele>
        <time>2014-03-29T15:03:51Z</time>
      </trkpt>
      <trkpt lat="37.727984900" lon="-1.868248900">
        <ele>587.000000</ele>
        <time>2014-03-29T15:03:52Z</time>
      </trkpt>
      <trkpt lat="37.727974100" lon="-1.868379100">
        <ele>587.000000</ele>
        <time>2014-03-29T15:03:53Z</time>
      </trkpt>
      <trkpt lat="37.727964200" lon="-1.868506200">
        <ele>587.000000</ele>
        <time>2014-03-29T15:03:54Z</time>
      </trkpt>
      <trkpt lat="37.727956800" lon="-1.868633200">
        <ele>587.000000</ele>
        <time>2014-03-29T15:03:55Z</time>
      </trkpt>
      <trkpt lat="37.727947200" lon="-1.868759500">
        <ele>587.000000</ele>
        <time>2014-03-29T15:03:56Z</time>
      </trkpt>
      <trkpt lat="37.727939400" lon="-1.868886200">
        <ele>587.000000</ele>
        <time>2014-03-29T15:03:57Z</time>
      </trkpt>
      <trkpt lat="37.727931600" lon="-1.869012300">
        <ele>587.000000</ele>
        <time>2014-03-29T15:03:58Z</time>
      </trkpt>
      <trkpt lat="37.727922700" lon="-1.869136900">
        <ele>588.000000</ele>
        <time>2014-03-29T15:03:59Z</time>
      </trkpt>
      <trkpt lat="37.727915600" lon="-1.869260600">
        <ele>588.000000</ele>
        <time>2014-03-29T15:04:00Z</time>
      </trkpt>
      <trkpt lat="37.727907000" lon="-1.869384600">
        <ele>588.000000</ele>
        <time>2014-03-29T15:04:01Z</time>
      </trkpt>
      <trkpt lat="37.727898400" lon="-1.869507500">
        <ele>588.000000</ele>
        <time>2014-03-29T15:04:02Z</time>
      </trkpt>
      <trkpt lat="37.727888800" lon="-1.869630600">
        <ele>588.000000</ele>
        <time>2014-03-29T15:04:03Z</time>
      </trkpt>
      <trkpt lat="37.727878200" lon="-1.869754300">
        <ele>588.000000</ele>
        <time>2014-03-29T15:04:04Z</time>
      </trkpt>
      <trkpt lat="37.727869900" lon="-1.869881600">
        <ele>588.000000</ele>
        <time>2014-03-29T15:04:05Z</time>
      </trkpt>
      <trkpt lat="37.727860900" lon="-1.870010100">
        <ele>588.000000</ele>
        <time>2014-03-29T15:04:06Z</time>
      </trkpt>
      <trkpt lat="37.727852900" lon="-1.870141700">
        <ele>589.000000</ele>
        <time>2014-03-29T15:04:07Z</time>
      </trkpt>
      <trkpt lat="37.727845100" lon="-1.870275500">
        <ele>589.000000</ele>
        <time>2014-03-29T15:04:08Z</time>
      </trkpt>
      <trkpt lat="37.727836600" lon="-1.870409800">
        <ele>589.000000</ele>
        <time>2014-03-29T15:04:09Z</time>
      </trkpt>
      <trkpt lat="37.727828600" lon="-1.870544200">
        <ele>589.000000</ele>
        <time>2014-03-29T15:04:10Z</time>
      </trkpt>
      <trkpt lat="37.727819800" lon="-1.870680900">
        <ele>589.000000</ele>
        <time>2014-03-29T15:04:11Z</time>
      </trkpt>
      <trkpt lat="37.727811900" lon="-1.870815200">
        <ele>589.000000</ele>
        <time>2014-03-29T15:04:12Z</time>
      </trkpt>
      <trkpt lat="37.727810400" lon="-1.870950800">
        <ele>589.000000</ele>
        <time>2014-03-29T15:04:13Z</time>
      </trkpt>
      <trkpt lat="37.727812800" lon="-1.871084700">
        <ele>589.000000</ele>
        <time>2014-03-29T15:04:14Z</time>
      </trkpt>
      <trkpt lat="37.727818500" lon="-1.871220900">
        <ele>589.000000</ele>
        <time>2014-03-29T15:04:15Z</time>
      </trkpt>
      <trkpt lat="37.727827900" lon="-1.871357300">
        <ele>589.000000</ele>
        <time>2014-03-29T15:04:16Z</time>
      </trkpt>
      <trkpt lat="37.727839600" lon="-1.871491000">
        <ele>590.000000</ele>
        <time>2014-03-29T15:04:17Z</time>
      </trkpt>
      <trkpt lat="37.727857600" lon="-1.871626900">
        <ele>590.000000</ele>
        <time>2014-03-29T15:04:18Z</time>
      </trkpt>
      <trkpt lat="37.727877000" lon="-1.871762500">
        <ele>590.000000</ele>
        <time>2014-03-29T15:04:19Z</time>
      </trkpt>
      <trkpt lat="37.727895700" lon="-1.871895800">
        <ele>590.000000</ele>
        <time>2014-03-29T15:04:20Z</time>
      </trkpt>
      <trkpt lat="37.727916200" lon="-1.872028400">
        <ele>590.000000</ele>
        <time>2014-03-29T15:04:21Z</time>
      </trkpt>
      <trkpt lat="37.727936500" lon="-1.872161200">
        <ele>590.000000</ele>
        <time>2014-03-29T15:04:22Z</time>
      </trkpt>
      <trkpt lat="37.727959200" lon="-1.872294000">
        <ele>590.000000</ele>
        <time>2014-03-29T15:04:23Z</time>
      </trkpt>
      <trkpt lat="37.727983000" lon="-1.872422100">
        <ele>590.000000</ele>
        <time>2014-03-29T15:04:24Z</time>
      </trkpt>
      <trkpt lat="37.728002900" lon="-1.872544700">
        <ele>590.000000</ele>
        <time>2014-03-29T15:04:25Z</time>
      </trkpt>
      <trkpt lat="37.728022200" lon="-1.872670300">
        <ele>590.000000</ele>
        <time>2014-03-29T15:04:26Z</time>
      </trkpt>
      <trkpt lat="37.728040800" lon="-1.872799400">
        <ele>590.000000</ele>
        <time>2014-03-29T15:04:27Z</time>
      </trkpt>
      <trkpt lat="37.728056700" lon="-1.872930200">
        <ele>591.000000</ele>
        <time>2014-03-29T15:04:28Z</time>
      </trkpt>
      <trkpt lat="37.728071800" lon="-1.873060300">
        <ele>591.000000</ele>
        <time>2014-03-29T15:04:29Z</time>
      </trkpt>
      <trkpt lat="37.728089200" lon="-1.873189400">
        <ele>591.000000</ele>
        <time>2014-03-29T15:04:30Z</time>
      </trkpt>
      <trkpt lat="37.728108800" lon="-1.873316100">
        <ele>591.000000</ele>
        <time>2014-03-29T15:04:31Z</time>
      </trkpt>
      <trkpt lat="37.728135800" lon="-1.873442200">
        <ele>591.000000</ele>
        <time>2014-03-29T15:04:32Z</time>
      </trkpt>
      <trkpt lat="37.728157500" lon="-1.873562500">
        <ele>592.000000</ele>
        <time>2014-03-29T15:04:33Z</time>
      </trkpt>
      <trkpt lat="37.728174600" lon="-1.873682300">
        <ele>592.000000</ele>
        <time>2014-03-29T15:04:34Z</time>
      </trkpt>
      <trkpt lat="37.728191400" lon="-1.873801300">
        <ele>592.000000</ele>
        <time>2014-03-29T15:04:35Z</time>
      </trkpt>
      <trkpt lat="37.728207000" lon="-1.873925000">
        <ele>592.000000</ele>
        <time>2014-03-29T15:04:36Z</time>
      </trkpt>
      <trkpt lat="37.728222200" lon="-1.874050800">
        <ele>592.000000</ele>
        <time>2014-03-29T15:04:37Z</time>
      </trkpt>
      <trkpt lat="37.728238400" lon="-1.874177400">
        <ele>593.000000</ele>
        <time>2014-03-29T15:04:38Z</time>
      </trkpt>
      <trkpt lat="37.728254500" lon="-1.874302900">
        <ele>593.000000</ele>
        <time>2014-03-29T15:04:39Z</time>
      </trkpt>
      <trkpt lat="37.728269100" lon="-1.874428800">
        <ele>593.000000</ele>
        <time>2014-03-29T15:04:40Z</time>
      </trkpt>
      <trkpt lat="37.728284400" lon="-1.874557000">
        <ele>594.000000</ele>
        <time>2014-03-29T15:04:41Z</time>
      </trkpt>
      <trkpt lat="37.728300900" lon="-1.874685600">
        <ele>594.000000</ele>
        <time>2014-03-29T15:04:42Z</time>
      </trkpt>
      <trkpt lat="37.728317200" lon="-1.874813600">
        <ele>594.000000</ele>
        <time>2014-03-29T15:04:43Z</time>
      </trkpt>
      <trkpt lat="37.728332900" lon="-1.874944500">
        <ele>594.000000</ele>
        <time>2014-03-29T15:04:44Z</time>
      </trkpt>
      <trkpt lat="37.728350700" lon="-1.875075900">
        <ele>595.000000</ele>
        <time>2014-03-29T15:04:45Z</time>
      </trkpt>
      <trkpt lat="37.728372700" lon="-1.875206900">
        <ele>595.000000</ele>
        <time>2014-03-29T15:04:46Z</time>
      </trkpt>
      <trkpt lat="37.728396800" lon="-1.875339800">
        <ele>595.000000</ele>
        <time>2014-03-29T15:04:47Z</time>
      </trkpt>
      <trkpt lat="37.728421500" lon="-1.875477300">
        <ele>595.000000</ele>
        <time>2014-03-29T15:04:48Z</time>
      </trkpt>
      <trkpt lat="37.728446700" lon="-1.875616600">
        <ele>596.000000</ele>
        <time>2014-03-29T15:04:49Z</time>
      </trkpt>
      <trkpt lat="37.728476000" lon="-1.875749600">
        <ele>596.000000</ele>
        <time>2014-03-29T15:04:50Z</time>
      </trkpt>
      <trkpt lat="37.728508200" lon="-1.875874100">
        <ele>596.000000</ele>
        <time>2014-03-29T15:04:51Z</time>
      </trkpt>
      <trkpt lat="37.728544900" lon="-1.875995100">
        <ele>597.000000</ele>
        <time>2014-03-29T15:04:52Z</time>
      </trkpt>
      <trkpt lat="37.728584900" lon="-1.876108100">
        <ele>597.000000</ele>
        <time>2014-03-29T15:04:53Z</time>
      </trkpt>
      <trkpt lat="37.728625900" lon="-1.876219500">
        <ele>597.000000</ele>
        <time>2014-03-29T15:04:54Z</time>
      </trkpt>
      <trkpt lat="37.728665500" lon="-1.876334500">
        <ele>597.000000</ele>
        <time>2014-03-29T15:04:55Z</time>
      </trkpt>
      <trkpt lat="37.728703000" lon="-1.876453100">
        <ele>598.000000</ele>
        <time>2014-03-29T15:04:56Z</time>
      </trkpt>
      <trkpt lat="37.728737000" lon="-1.876575900">
        <ele>598.000000</ele>
        <time>2014-03-29T15:04:57Z</time>
      </trkpt>
      <trkpt lat="37.728767800" lon="-1.876702300">
        <ele>598.000000</ele>
        <time>2014-03-29T15:04:58Z</time>
      </trkpt>
      <trkpt lat="37.728797400" lon="-1.876829400">
        <ele>598.000000</ele>
        <time>2014-03-29T15:04:59Z</time>
      </trkpt>
      <trkpt lat="37.728827400" lon="-1.876957000">
        <ele>598.000000</ele>
        <time>2014-03-29T15:05:00Z</time>
      </trkpt>
      <trkpt lat="37.728856600" lon="-1.877085800">
        <ele>598.000000</ele>
        <time>2014-03-29T15:05:01Z</time>
      </trkpt>
      <trkpt lat="37.728886000" lon="-1.877215500">
        <ele>598.000000</ele>
        <time>2014-03-29T15:05:02Z</time>
      </trkpt>
      <trkpt lat="37.728915900" lon="-1.877344600">
        <ele>598.000000</ele>
        <time>2014-03-29T15:05:03Z</time>
      </trkpt>
      <trkpt lat="37.728946600" lon="-1.877476200">
        <ele>599.000000</ele>
        <time>2014-03-29T15:05:04Z</time>
      </trkpt>
      <trkpt lat="37.728980200" lon="-1.877609400">
        <ele>599.000000</ele>
        <time>2014-03-29T15:05:05Z</time>
      </trkpt>
      <trkpt lat="37.729014900" lon="-1.877739600">
        <ele>599.000000</ele>
        <time>2014-03-29T15:05:06Z</time>
      </trkpt>
      <trkpt lat="37.729050600" lon="-1.877869900">
        <ele>599.000000</ele>
        <time>2014-03-29T15:05:07Z</time>
      </trkpt>
      <trkpt lat="37.729090300" lon="-1.878003500">
        <ele>599.000000</ele>
        <time>2014-03-29T15:05:08Z</time>
      </trkpt>
      <trkpt lat="37.729132000" lon="-1.878134300">
        <ele>599.000000</ele>
        <time>2014-03-29T15:05:09Z</time>
      </trkpt>
      <trkpt lat="37.729177400" lon="-1.878266500">
        <ele>599.000000</ele>
        <time>2014-03-29T15:05:10Z</time>
      </trkpt>
      <trkpt lat="37.729224000" lon="-1.878397500">
        <ele>599.000000</ele>
        <time>2014-03-29T15:05:11Z</time>
      </trkpt>
      <trkpt lat="37.729271000" lon="-1.878529300">
        <ele>599.000000</ele>
        <time>2014-03-29T15:05:12Z</time>
      </trkpt>
      <trkpt lat="37.729318900" lon="-1.878656100">
        <ele>599.000000</ele>
        <time>2014-03-29T15:05:13Z</time>
      </trkpt>
      <trkpt lat="37.729366800" lon="-1.878782300">
        <ele>599.000000</ele>
        <time>2014-03-29T15:05:14Z</time>
      </trkpt>
      <trkpt lat="37.729415100" lon="-1.878911500">
        <ele>599.000000</ele>
        <time>2014-03-29T15:05:15Z</time>
      </trkpt>
      <trkpt lat="37.729465500" lon="-1.879041100">
        <ele>599.000000</ele>
        <time>2014-03-29T15:05:16Z</time>
      </trkpt>
      <trkpt lat="37.729512800" lon="-1.879168500">
        <ele>599.000000</ele>
        <time>2014-03-29T15:05:17Z</time>
      </trkpt>
      <trkpt lat="37.729551200" lon="-1.879294100">
        <ele>599.000000</ele>
        <time>2014-03-29T15:05:18Z</time>
      </trkpt>
      <trkpt lat="37.729586700" lon="-1.879419600">
        <ele>599.000000</ele>
        <time>2014-03-29T15:05:19Z</time>
      </trkpt>
      <trkpt lat="37.729624700" lon="-1.879545700">
        <ele>599.000000</ele>
        <time>2014-03-29T15:05:20Z</time>
      </trkpt>
      <trkpt lat="37.729657400" lon="-1.879671200">
        <ele>599.000000</ele>
        <time>2014-03-29T15:05:21Z</time>
      </trkpt>
      <trkpt lat="37.729686300" lon="-1.879800000">
        <ele>599.000000</ele>
        <time>2014-03-29T15:05:22Z</time>
      </trkpt>
      <trkpt lat="37.729709200" lon="-1.879927900">
        <ele>599.000000</ele>
        <time>2014-03-29T15:05:23Z</time>
      </trkpt>
      <trkpt lat="37.729726200" lon="-1.880056600">
        <ele>599.000000</ele>
        <time>2014-03-29T15:05:24Z</time>
      </trkpt>
      <trkpt lat="37.729733900" lon="-1.880188200">
        <ele>599.000000</ele>
        <time>2014-03-29T15:05:25Z</time>
      </trkpt>
      <trkpt lat="37.729732700" lon="-1.880318500">
        <ele>599.000000</ele>
        <time>2014-03-29T15:05:26Z</time>
      </trkpt>
      <trkpt lat="37.729724000" lon="-1.880450100">
        <ele>599.000000</ele>
        <time>2014-03-29T15:05:27Z</time>
      </trkpt>
      <trkpt lat="37.729713600" lon="-1.880581100">
        <ele>599.000000</ele>
        <time>2014-03-29T15:05:28Z</time>
      </trkpt>
      <trkpt lat="37.729699900" lon="-1.880713600">
        <ele>599.000000</ele>
        <time>2014-03-29T15:05:29Z</time>
      </trkpt>
      <trkpt lat="37.729683600" lon="-1.880846800">
        <ele>599.000000</ele>
        <time>2014-03-29T15:05:30Z</time>
      </trkpt>
      <trkpt lat="37.729666400" lon="-1.880977700">
        <ele>599.000000</ele>
        <time>2014-03-29T15:05:31Z</time>
      </trkpt>
      <trkpt lat="37.729647500" lon="-1.881107600">
        <ele>599.000000</ele>
        <time>2014-03-29T15:05:32Z</time>
      </trkpt>
      <trkpt lat="37.729627800" lon="-1.881237300">
        <ele>599.000000</ele>
        <time>2014-03-29T15:05:33Z</time>
      </trkpt>
      <trkpt lat="37.729605600" lon="-1.881366300">
        <ele>600.000000</ele>
        <time>2014-03-29T15:05:34Z</time>
      </trkpt>
      <trkpt lat="37.729584900" lon="-1.881496600">
        <ele>600.000000</ele>
        <time>2014-03-29T15:05:35Z</time>
      </trkpt>
      <trkpt lat="37.729563000" lon="-1.881622900">
        <ele>600.000000</ele>
        <time>2014-03-29T15:05:36Z</time>
      </trkpt>
      <trkpt lat="37.729539500" lon="-1.881751600">
        <ele>600.000000</ele>
        <time>2014-03-29T15:05:37Z</time>
      </trkpt>
      <trkpt lat="37.729519400" lon="-1.881881100">
        <ele>601.000000</ele>
        <time>2014-03-29T15:05:38Z</time>
      </trkpt>
      <trkpt lat="37.729501700" lon="-1.882013700">
        <ele>601.000000</ele>
        <time>2014-03-29T15:05:39Z</time>
      </trkpt>
      <trkpt lat="37.729484100" lon="-1.882146400">
        <ele>601.000000</ele>
        <time>2014-03-29T15:05:40Z</time>
      </trkpt>
      <trkpt lat="37.729463600" lon="-1.882277600">
        <ele>601.000000</ele>
        <time>2014-03-29T15:05:41Z</time>
      </trkpt>
      <trkpt lat="37.729439900" lon="-1.882407400">
        <ele>601.000000</ele>
        <time>2014-03-29T15:05:42Z</time>
      </trkpt>
      <trkpt lat="37.729419600" lon="-1.882536100">
        <ele>602.000000</ele>
        <time>2014-03-29T15:05:43Z</time>
      </trkpt>
      <trkpt lat="37.729397800" lon="-1.882662700">
        <ele>602.000000</ele>
        <time>2014-03-29T15:05:44Z</time>
      </trkpt>
      <trkpt lat="37.729377700" lon="-1.882789700">
        <ele>602.000000</ele>
        <time>2014-03-29T15:05:45Z</time>
      </trkpt>
      <trkpt lat="37.729355100" lon="-1.882916700">
        <ele>602.000000</ele>
        <time>2014-03-29T15:05:46Z</time>
      </trkpt>
      <trkpt lat="37.729331300" lon="-1.883039200">
        <ele>602.000000</ele>
        <time>2014-03-29T15:05:47Z</time>
      </trkpt>
      <trkpt lat="37.729310300" lon="-1.883161600">
        <ele>603.000000</ele>
        <time>2014-03-29T15:05:48Z</time>
      </trkpt>
      <trkpt lat="37.729291800" lon="-1.883285000">
        <ele>603.000000</ele>
        <time>2014-03-29T15:05:49Z</time>
      </trkpt>
      <trkpt lat="37.729273300" lon="-1.883408600">
        <ele>603.000000</ele>
        <time>2014-03-29T15:05:50Z</time>
      </trkpt>
      <trkpt lat="37.729254900" lon="-1.883533100">
        <ele>603.000000</ele>
        <time>2014-03-29T15:05:51Z</time>
      </trkpt>
      <trkpt lat="37.729235200" lon="-1.883657000">
        <ele>603.000000</ele>
        <time>2014-03-29T15:05:52Z</time>
      </trkpt>
      <trkpt lat="37.729215400" lon="-1.883779900">
        <ele>603.000000</ele>
        <time>2014-03-29T15:05:53Z</time>
      </trkpt>
      <trkpt lat="37.729194300" lon="-1.883901200">
        <ele>603.000000</ele>
        <time>2014-03-29T15:05:54Z</time>
      </trkpt>
      <trkpt lat="37.729174000" lon="-1.884022700">
        <ele>603.000000</ele>
        <time>2014-03-29T15:05:55Z</time>
      </trkpt>
      <trkpt lat="37.729155100" lon="-1.884144600">
        <ele>603.000000</ele>
        <time>2014-03-29T15:05:56Z</time>
      </trkpt>
      <trkpt lat="37.729135700" lon="-1.884266100">
        <ele>603.000000</ele>
        <time>2014-03-29T15:05:57Z</time>
      </trkpt>
      <trkpt lat="37.729119300" lon="-1.884389300">
        <ele>604.000000</ele>
        <time>2014-03-29T15:05:58Z</time>
      </trkpt>
      <trkpt lat="37.729101200" lon="-1.884512900">
        <ele>604.000000</ele>
        <time>2014-03-29T15:05:59Z</time>
      </trkpt>
      <trkpt lat="37.729083900" lon="-1.884635800">
        <ele>604.000000</ele>
        <time>2014-03-29T15:06:00Z</time>
      </trkpt>
      <trkpt lat="37.729068900" lon="-1.884759900">
        <ele>604.000000</ele>
        <time>2014-03-29T15:06:01Z</time>
      </trkpt>
      <trkpt lat="37.729052600" lon="-1.884884800">
        <ele>604.000000</ele>
        <time>2014-03-29T15:06:02Z</time>
      </trkpt>
      <trkpt lat="37.729032900" lon="-1.885007200">
        <ele>604.000000</ele>
        <time>2014-03-29T15:06:03Z</time>
      </trkpt>
      <trkpt lat="37.729012500" lon="-1.885127800">
        <ele>604.000000</ele>
        <time>2014-03-29T15:06:04Z</time>
      </trkpt>
      <trkpt lat="37.728992600" lon="-1.885250500">
        <ele>605.000000</ele>
        <time>2014-03-29T15:06:05Z</time>
      </trkpt>
      <trkpt lat="37.728971400" lon="-1.885372900">
        <ele>605.000000</ele>
        <time>2014-03-29T15:06:06Z</time>
      </trkpt>
      <trkpt lat="37.728950100" lon="-1.885493700">
        <ele>605.000000</ele>
        <time>2014-03-29T15:06:07Z</time>
      </trkpt>
      <trkpt lat="37.728929500" lon="-1.885615700">
        <ele>605.000000</ele>
        <time>2014-03-29T15:06:08Z</time>
      </trkpt>
      <trkpt lat="37.728909000" lon="-1.885738400">
        <ele>605.000000</ele>
        <time>2014-03-29T15:06:09Z</time>
      </trkpt>
      <trkpt lat="37.728889100" lon="-1.885859200">
        <ele>606.000000</ele>
        <time>2014-03-29T15:06:10Z</time>
      </trkpt>
      <trkpt lat="37.728867100" lon="-1.885977500">
        <ele>606.000000</ele>
        <time>2014-03-29T15:06:11Z</time>
      </trkpt>
      <trkpt lat="37.728844600" lon="-1.886093500">
        <ele>606.000000</ele>
        <time>2014-03-29T15:06:12Z</time>
      </trkpt>
      <trkpt lat="37.728823500" lon="-1.886209700">
        <ele>606.000000</ele>
        <time>2014-03-29T15:06:13Z</time>
      </trkpt>
      <trkpt lat="37.728806200" lon="-1.886325600">
        <ele>606.000000</ele>
        <time>2014-03-29T15:06:14Z</time>
      </trkpt>
      <trkpt lat="37.728790100" lon="-1.886441100">
        <ele>606.000000</ele>
        <time>2014-03-29T15:06:15Z</time>
      </trkpt>
      <trkpt lat="37.728771300" lon="-1.886558400">
        <ele>606.000000</ele>
        <time>2014-03-29T15:06:16Z</time>
      </trkpt>
      <trkpt lat="37.728753000" lon="-1.886673600">
        <ele>607.000000</ele>
        <time>2014-03-29T15:06:17Z</time>
      </trkpt>
      <trkpt lat="37.728737400" lon="-1.886790700">
        <ele>607.000000</ele>
        <time>2014-03-29T15:06:18Z</time>
      </trkpt>
      <trkpt lat="37.728722300" lon="-1.886909000">
        <ele>607.000000</ele>
        <time>2014-03-29T15:06:19Z</time>
      </trkpt>
      <trkpt lat="37.728703400" lon="-1.887032200">
        <ele>607.000000</ele>
        <time>2014-03-29T15:06:20Z</time>
      </trkpt>
      <trkpt lat="37.728684000" lon="-1.887158200">
        <ele>607.000000</ele>
        <time>2014-03-29T15:06:21Z</time>
      </trkpt>
      <trkpt lat="37.728666000" lon="-1.887280400">
        <ele>607.000000</ele>
        <time>2014-03-29T15:06:22Z</time>
      </trkpt>
      <trkpt lat="37.728647600" lon="-1.887400400">
        <ele>608.000000</ele>
        <time>2014-03-29T15:06:23Z</time>
      </trkpt>
      <trkpt lat="37.728628000" lon="-1.887518500">
        <ele>608.000000</ele>
        <time>2014-03-29T15:06:24Z</time>
      </trkpt>
      <trkpt lat="37.728609900" lon="-1.887635100">
        <ele>608.000000</ele>
        <time>2014-03-29T15:06:25Z</time>
      </trkpt>
      <trkpt lat="37.728596400" lon="-1.887750200">
        <ele>608.000000</ele>
        <time>2014-03-29T15:06:26Z</time>
      </trkpt>
      <trkpt lat="37.728587800" lon="-1.887868700">
        <ele>608.000000</ele>
        <time>2014-03-29T15:06:27Z</time>
      </trkpt>
      <trkpt lat="37.728581800" lon="-1.887988300">
        <ele>609.000000</ele>
        <time>2014-03-29T15:06:28Z</time>
      </trkpt>
      <trkpt lat="37.728579400" lon="-1.888106900">
        <ele>609.000000</ele>
        <time>2014-03-29T15:06:29Z</time>
      </trkpt>
      <trkpt lat="37.728581300" lon="-1.888224500">
        <ele>609.000000</ele>
        <time>2014-03-29T15:06:30Z</time>
      </trkpt>
      <trkpt lat="37.728584100" lon="-1.888342800">
        <ele>609.000000</ele>
        <time>2014-03-29T15:06:31Z</time>
      </trkpt>
      <trkpt lat="37.728587300" lon="-1.888460700">
        <ele>610.000000</ele>
        <time>2014-03-29T15:06:32Z</time>
      </trkpt>
      <trkpt lat="37.728592200" lon="-1.888578800">
        <ele>610.000000</ele>
        <time>2014-03-29T15:06:33Z</time>
      </trkpt>
      <trkpt lat="37.728596500" lon="-1.888696800">
        <ele>610.000000</ele>
        <time>2014-03-29T15:06:34Z</time>
      </trkpt>
      <trkpt lat="37.728601100" lon="-1.888816800">
        <ele>610.000000</ele>
        <time>2014-03-29T15:06:35Z</time>
      </trkpt>
      <trkpt lat="37.728606500" lon="-1.888937400">
        <ele>610.000000</ele>
        <time>2014-03-29T15:06:36Z</time>
      </trkpt>
      <trkpt lat="37.728615300" lon="-1.889057500">
        <ele>611.000000</ele>
        <time>2014-03-29T15:06:37Z</time>
      </trkpt>
      <trkpt lat="37.728625300" lon="-1.889177800">
        <ele>611.000000</ele>
        <time>2014-03-29T15:06:38Z</time>
      </trkpt>
      <trkpt lat="37.728633300" lon="-1.889299600">
        <ele>611.000000</ele>
        <time>2014-03-29T15:06:39Z</time>
      </trkpt>
      <trkpt lat="37.728638900" lon="-1.889421800">
        <ele>611.000000</ele>
        <time>2014-03-29T15:06:40Z</time>
      </trkpt>
      <trkpt lat="37.728644400" lon="-1.889540900">
        <ele>611.000000</ele>
        <time>2014-03-29T15:06:41Z</time>
      </trkpt>
      <trkpt lat="37.728646000" lon="-1.889663800">
        <ele>612.000000</ele>
        <time>2014-03-29T15:06:42Z</time>
      </trkpt>
      <trkpt lat="37.728649100" lon="-1.889786400">
        <ele>612.000000</ele>
        <time>2014-03-29T15:06:43Z</time>
      </trkpt>
      <trkpt lat="37.728648500" lon="-1.889906400">
        <ele>612.000000</ele>
        <time>2014-03-29T15:06:44Z</time>
      </trkpt>
      <trkpt lat="37.728645900" lon="-1.890026000">
        <ele>612.000000</ele>
        <time>2014-03-29T15:06:45Z</time>
      </trkpt>
      <trkpt lat="37.728637800" lon="-1.890145500">
        <ele>612.000000</ele>
        <time>2014-03-29T15:06:46Z</time>
      </trkpt>
      <trkpt lat="37.728627800" lon="-1.890266800">
        <ele>612.000000</ele>
        <time>2014-03-29T15:06:47Z</time>
      </trkpt>
      <trkpt lat="37.728617100" lon="-1.890389800">
        <ele>612.000000</ele>
        <time>2014-03-29T15:06:48Z</time>
      </trkpt>
      <trkpt lat="37.728604300" lon="-1.890512500">
        <ele>612.000000</ele>
        <time>2014-03-29T15:06:49Z</time>
      </trkpt>
      <trkpt lat="37.728587800" lon="-1.890636300">
        <ele>612.000000</ele>
        <time>2014-03-29T15:06:50Z</time>
      </trkpt>
      <trkpt lat="37.728571300" lon="-1.890761300">
        <ele>612.000000</ele>
        <time>2014-03-29T15:06:51Z</time>
      </trkpt>
      <trkpt lat="37.728554500" lon="-1.890885300">
        <ele>612.000000</ele>
        <time>2014-03-29T15:06:52Z</time>
      </trkpt>
      <trkpt lat="37.728533700" lon="-1.891009300">
        <ele>613.000000</ele>
        <time>2014-03-29T15:06:53Z</time>
      </trkpt>
      <trkpt lat="37.728510900" lon="-1.891132800">
        <ele>613.000000</ele>
        <time>2014-03-29T15:06:54Z</time>
      </trkpt>
      <trkpt lat="37.728488200" lon="-1.891256600">
        <ele>613.000000</ele>
        <time>2014-03-29T15:06:55Z</time>
      </trkpt>
      <trkpt lat="37.728467000" lon="-1.891382300">
        <ele>613.000000</ele>
        <time>2014-03-29T15:06:56Z</time>
      </trkpt>
      <trkpt lat="37.728445600" lon="-1.891505600">
        <ele>613.000000</ele>
        <time>2014-03-29T15:06:57Z</time>
      </trkpt>
      <trkpt lat="37.728425800" lon="-1.891627800">
        <ele>613.000000</ele>
        <time>2014-03-29T15:06:58Z</time>
      </trkpt>
      <trkpt lat="37.728408900" lon="-1.891749700">
        <ele>613.000000</ele>
        <time>2014-03-29T15:06:59Z</time>
      </trkpt>
      <trkpt lat="37.728393300" lon="-1.891872900">
        <ele>613.000000</ele>
        <time>2014-03-29T15:07:00Z</time>
      </trkpt>
      <trkpt lat="37.728375400" lon="-1.891990900">
        <ele>613.000000</ele>
        <time>2014-03-29T15:07:01Z</time>
      </trkpt>
      <trkpt lat="37.728356600" lon="-1.892105200">
        <ele>613.000000</ele>
        <time>2014-03-29T15:07:02Z</time>
      </trkpt>
      <trkpt lat="37.728338400" lon="-1.892219500">
        <ele>613.000000</ele>
        <time>2014-03-29T15:07:03Z</time>
      </trkpt>
      <trkpt lat="37.728319800" lon="-1.892329900">
        <ele>613.000000</ele>
        <time>2014-03-29T15:07:04Z</time>
      </trkpt>
      <trkpt lat="37.728300500" lon="-1.892440200">
        <ele>613.000000</ele>
        <time>2014-03-29T15:07:05Z</time>
      </trkpt>
      <trkpt lat="37.728283000" lon="-1.892554100">
        <ele>614.000000</ele>
        <time>2014-03-29T15:07:06Z</time>
      </trkpt>
      <trkpt lat="37.728268000" lon="-1.892669000">
        <ele>614.000000</ele>
        <time>2014-03-29T15:07:07Z</time>
      </trkpt>
      <trkpt lat="37.728250700" lon="-1.892780700">
        <ele>614.000000</ele>
        <time>2014-03-29T15:07:08Z</time>
      </trkpt>
      <trkpt lat="37.728230400" lon="-1.892890400">
        <ele>614.000000</ele>
        <time>2014-03-29T15:07:09Z</time>
      </trkpt>
      <trkpt lat="37.728211400" lon="-1.893001200">
        <ele>614.000000</ele>
        <time>2014-03-29T15:07:10Z</time>
      </trkpt>
      <trkpt lat="37.728193500" lon="-1.893110200">
        <ele>614.000000</ele>
        <time>2014-03-29T15:07:11Z</time>
      </trkpt>
      <trkpt lat="37.728175900" lon="-1.893217800">
        <ele>614.000000</ele>
        <time>2014-03-29T15:07:12Z</time>
      </trkpt>
      <trkpt lat="37.728163500" lon="-1.893324900">
        <ele>614.000000</ele>
        <time>2014-03-29T15:07:13Z</time>
      </trkpt>
      <trkpt lat="37.728164300" lon="-1.893438600">
        <ele>615.000000</ele>
        <time>2014-03-29T15:07:14Z</time>
      </trkpt>
      <trkpt lat="37.728178200" lon="-1.893555900">
        <ele>615.000000</ele>
        <time>2014-03-29T15:07:15Z</time>
      </trkpt>
      <trkpt lat="37.728201600" lon="-1.893673500">
        <ele>615.000000</ele>
        <time>2014-03-29T15:07:16Z</time>
      </trkpt>
      <trkpt lat="37.728239100" lon="-1.893777700">
        <ele>615.000000</ele>
        <time>2014-03-29T15:07:17Z</time>
      </trkpt>
      <trkpt lat="37.728289300" lon="-1.893871500">
        <ele>615.000000</ele>
        <time>2014-03-29T15:07:18Z</time>
      </trkpt>
      <trkpt lat="37.728345300" lon="-1.893963000">
        <ele>615.000000</ele>
        <time>2014-03-29T15:07:19Z</time>
      </trkpt>
      <trkpt lat="37.728411700" lon="-1.894047000">
        <ele>615.000000</ele>
        <time>2014-03-29T15:07:20Z</time>
      </trkpt>
      <trkpt lat="37.728464500" lon="-1.894131700">
        <ele>616.000000</ele>
        <time>2014-03-29T15:07:21Z</time>
      </trkpt>
      <trkpt lat="37.728516900" lon="-1.894212600">
        <ele>616.000000</ele>
        <time>2014-03-29T15:07:22Z</time>
      </trkpt>
      <trkpt lat="37.728570600" lon="-1.894288400">
        <ele>616.000000</ele>
        <time>2014-03-29T15:07:23Z</time>
      </trkpt>
      <trkpt lat="37.728620000" lon="-1.894363600">
        <ele>616.000000</ele>
        <time>2014-03-29T15:07:24Z</time>
      </trkpt>
      <trkpt lat="37.728665900" lon="-1.894439600">
        <ele>617.000000</ele>
        <time>2014-03-29T15:07:25Z</time>
      </trkpt>
      <trkpt lat="37.728712100" lon="-1.894513000">
        <ele>617.000000</ele>
        <time>2014-03-29T15:07:26Z</time>
      </trkpt>
      <trkpt lat="37.728749400" lon="-1.894586200">
        <ele>617.000000</ele>
        <time>2014-03-29T15:07:27Z</time>
      </trkpt>
      <trkpt lat="37.728787000" lon="-1.894656000">
        <ele>617.000000</ele>
        <time>2014-03-29T15:07:28Z</time>
      </trkpt>
      <trkpt lat="37.728824800" lon="-1.894728700">
        <ele>618.000000</ele>
        <time>2014-03-29T15:07:29Z</time>
      </trkpt>
      <trkpt lat="37.728863000" lon="-1.894801200">
        <ele>618.000000</ele>
        <time>2014-03-29T15:07:30Z</time>
      </trkpt>
      <trkpt lat="37.728903700" lon="-1.894870100">
        <ele>618.000000</ele>
        <time>2014-03-29T15:07:31Z</time>
      </trkpt>
      <trkpt lat="37.728948200" lon="-1.894935000">
        <ele>619.000000</ele>
        <time>2014-03-29T15:07:32Z</time>
      </trkpt>
      <trkpt lat="37.728989300" lon="-1.895005000">
        <ele>619.000000</ele>
        <time>2014-03-29T15:07:33Z</time>
      </trkpt>
      <trkpt lat="37.729026900" lon="-1.895075500">
        <ele>620.000000</ele>
        <time>2014-03-29T15:07:34Z</time>
      </trkpt>
      <trkpt lat="37.729063400" lon="-1.895144400">
        <ele>620.000000</ele>
        <time>2014-03-29T15:07:35Z</time>
      </trkpt>
      <trkpt lat="37.729101000" lon="-1.895213200">
        <ele>620.000000</ele>
        <time>2014-03-29T15:07:36Z</time>
      </trkpt>
      <trkpt lat="37.729142100" lon="-1.895276900">
        <ele>621.000000</ele>
        <time>2014-03-29T15:07:37Z</time>
      </trkpt>
      <trkpt lat="37.729181800" lon="-1.895338400">
        <ele>621.000000</ele>
        <time>2014-03-29T15:07:38Z</time>
      </trkpt>
      <trkpt lat="37.729220500" lon="-1.895401300">
        <ele>622.000000</ele>
        <time>2014-03-29T15:07:39Z</time>
      </trkpt>
      <trkpt lat="37.729255400" lon="-1.895465500">
        <ele>623.000000</ele>
        <time>2014-03-29T15:07:40Z</time>
      </trkpt>
      <trkpt lat="37.729289300" lon="-1.895529600">
        <ele>623.000000</ele>
        <time>2014-03-29T15:07:41Z</time>
      </trkpt>
      <trkpt lat="37.729324700" lon="-1.895598500">
        <ele>624.000000</ele>
        <time>2014-03-29T15:07:42Z</time>
      </trkpt>
      <trkpt lat="37.729351800" lon="-1.895671200">
        <ele>624.000000</ele>
        <time>2014-03-29T15:07:43Z</time>
      </trkpt>
      <trkpt lat="37.729369300" lon="-1.895740600">
        <ele>625.000000</ele>
        <time>2014-03-29T15:07:44Z</time>
      </trkpt>
      <trkpt lat="37.729377700" lon="-1.895810400">
        <ele>625.000000</ele>
        <time>2014-03-29T15:07:45Z</time>
      </trkpt>
      <trkpt lat="37.729376700" lon="-1.895886300">
        <ele>626.000000</ele>
        <time>2014-03-29T15:07:46Z</time>
      </trkpt>
      <trkpt lat="37.729372800" lon="-1.895966700">
        <ele>626.000000</ele>
        <time>2014-03-29T15:07:47Z</time>
      </trkpt>
      <trkpt lat="37.729367800" lon="-1.896049200">
        <ele>627.000000</ele>
        <time>2014-03-29T15:07:48Z</time>
      </trkpt>
      <trkpt lat="37.729370400" lon="-1.896129400">
        <ele>628.000000</ele>
        <time>2014-03-29T15:07:49Z</time>
      </trkpt>
      <trkpt lat="37.729374900" lon="-1.896208000">
        <ele>628.000000</ele>
        <time>2014-03-29T15:07:50Z</time>
      </trkpt>
      <trkpt lat="37.729375700" lon="-1.896285700">
        <ele>629.000000</ele>
        <time>2014-03-29T15:07:51Z</time>
      </trkpt>
      <trkpt lat="37.729375400" lon="-1.896365100">
        <ele>629.000000</ele>
        <time>2014-03-29T15:07:52Z</time>
      </trkpt>
      <trkpt lat="37.729377800" lon="-1.896441100">
        <ele>629.000000</ele>
        <time>2014-03-29T15:07:53Z</time>
      </trkpt>
      <trkpt lat="37.729379700" lon="-1.896515900">
        <ele>630.000000</ele>
        <time>2014-03-29T15:07:54Z</time>
      </trkpt>
      <trkpt lat="37.729379700" lon="-1.896591600">
        <ele>630.000000</ele>
        <time>2014-03-29T15:07:55Z</time>
      </trkpt>
      <trkpt lat="37.729376300" lon="-1.896665600">
        <ele>631.000000</ele>
        <time>2014-03-29T15:07:56Z</time>
      </trkpt>
      <trkpt lat="37.729368900" lon="-1.896744000">
        <ele>631.000000</ele>
        <time>2014-03-29T15:07:57Z</time>
      </trkpt>
      <trkpt lat="37.729356200" lon="-1.896825800">
        <ele>632.000000</ele>
        <time>2014-03-29T15:07:58Z</time>
      </trkpt>
      <trkpt lat="37.729330000" lon="-1.896913300">
        <ele>632.000000</ele>
        <time>2014-03-29T15:07:59Z</time>
      </trkpt>
      <trkpt lat="37.729311900" lon="-1.896996200">
        <ele>633.000000</ele>
        <time>2014-03-29T15:08:00Z</time>
      </trkpt>
      <trkpt lat="37.729296100" lon="-1.897082700">
        <ele>633.000000</ele>
        <time>2014-03-29T15:08:01Z</time>
      </trkpt>
      <trkpt lat="37.729283300" lon="-1.897161600">
        <ele>633.000000</ele>
        <time>2014-03-29T15:08:02Z</time>
      </trkpt>
      <trkpt lat="37.729273900" lon="-1.897238500">
        <ele>634.000000</ele>
        <time>2014-03-29T15:08:03Z</time>
      </trkpt>
      <trkpt lat="37.729262900" lon="-1.897320600">
        <ele>634.000000</ele>
        <time>2014-03-29T15:08:04Z</time>
      </trkpt>
      <trkpt lat="37.729247400" lon="-1.897407500">
        <ele>635.000000</ele>
        <time>2014-03-29T15:08:05Z</time>
      </trkpt>
      <trkpt lat="37.729233800" lon="-1.897490400">
        <ele>635.000000</ele>
        <time>2014-03-29T15:08:06Z</time>
      </trkpt>
      <trkpt lat="37.729222400" lon="-1.897574600">
        <ele>636.000000</ele>
        <time>2014-03-29T15:08:07Z</time>
      </trkpt>
      <trkpt lat="37.729218100" lon="-1.897658600">
        <ele>636.000000</ele>
        <time>2014-03-29T15:08:08Z</time>
      </trkpt>
      <trkpt lat="37.729219000" lon="-1.897742500">
        <ele>637.000000</ele>
        <time>2014-03-29T15:08:09Z</time>
      </trkpt>
      <trkpt lat="37.729220200" lon="-1.897825700">
        <ele>637.000000</ele>
        <time>2014-03-29T15:08:10Z</time>
      </trkpt>
      <trkpt lat="37.729226500" lon="-1.897906000">
        <ele>638.000000</ele>
        <time>2014-03-29T15:08:11Z</time>
      </trkpt>
      <trkpt lat="37.729227000" lon="-1.897985000">
        <ele>639.000000</ele>
        <time>2014-03-29T15:08:12Z</time>
      </trkpt>
      <trkpt lat="37.729229700" lon="-1.898059700">
        <ele>639.000000</ele>
        <time>2014-03-29T15:08:13Z</time>
      </trkpt>
      <trkpt lat="37.729233100" lon="-1.898132800">
        <ele>640.000000</ele>
        <time>2014-03-29T15:08:14Z</time>
      </trkpt>
      <trkpt lat="37.729236300" lon="-1.898207000">
        <ele>640.000000</ele>
        <time>2014-03-29T15:08:15Z</time>
      </trkpt>
      <trkpt lat="37.729241600" lon="-1.898282500">
        <ele>641.000000</ele>
        <time>2014-03-29T15:08:16Z</time>
      </trkpt>
      <trkpt lat="37.729245000" lon="-1.898355800">
        <ele>641.000000</ele>
        <time>2014-03-29T15:08:17Z</time>
      </trkpt>
      <trkpt lat="37.729248700" lon="-1.898429200">
        <ele>642.000000</ele>
        <time>2014-03-29T15:08:18Z</time>
      </trkpt>
      <trkpt lat="37.729254900" lon="-1.898502400">
        <ele>642.000000</ele>
        <time>2014-03-29T15:08:19Z</time>
      </trkpt>
      <trkpt lat="37.729256900" lon="-1.898579800">
        <ele>643.000000</ele>
        <time>2014-03-29T15:08:20Z</time>
      </trkpt>
      <trkpt lat="37.729265200" lon="-1.898656600">
        <ele>643.000000</ele>
        <time>2014-03-29T15:08:21Z</time>
      </trkpt>
      <trkpt lat="37.729277500" lon="-1.898730000">
        <ele>644.000000</ele>
        <time>2014-03-29T15:08:22Z</time>
      </trkpt>
      <trkpt lat="37.729295600" lon="-1.898806400">
        <ele>644.000000</ele>
        <time>2014-03-29T15:08:23Z</time>
      </trkpt>
      <trkpt lat="37.729313700" lon="-1.898882500">
        <ele>645.000000</ele>
        <time>2014-03-29T15:08:24Z</time>
      </trkpt>
      <trkpt lat="37.729325200" lon="-1.898954100">
        <ele>645.000000</ele>
        <time>2014-03-29T15:08:25Z</time>
      </trkpt>
      <trkpt lat="37.729346000" lon="-1.899025000">
        <ele>646.000000</ele>
        <time>2014-03-29T15:08:26Z</time>
      </trkpt>
      <trkpt lat="37.729368800" lon="-1.899103000">
        <ele>646.000000</ele>
        <time>2014-03-29T15:08:27Z</time>
      </trkpt>
      <trkpt lat="37.729395000" lon="-1.899179600">
        <ele>647.000000</ele>
        <time>2014-03-29T15:08:28Z</time>
      </trkpt>
      <trkpt lat="37.729418800" lon="-1.899256400">
        <ele>648.000000</ele>
        <time>2014-03-29T15:08:29Z</time>
      </trkpt>
      <trkpt lat="37.729435200" lon="-1.899336600">
        <ele>648.000000</ele>
        <time>2014-03-29T15:08:30Z</time>
      </trkpt>
      <trkpt lat="37.729461000" lon="-1.899417000">
        <ele>648.000000</ele>
        <time>2014-03-29T15:08:31Z</time>
      </trkpt>
      <trkpt lat="37.729488200" lon="-1.899492700">
        <ele>649.000000</ele>
        <time>2014-03-29T15:08:32Z</time>
      </trkpt>
      <trkpt lat="37.729507600" lon="-1.899572500">
        <ele>649.000000</ele>
        <time>2014-03-29T15:08:33Z</time>
      </trkpt>
      <trkpt lat="37.729526100" lon="-1.899652000">
        <ele>650.000000</ele>
        <time>2014-03-29T15:08:34Z</time>
      </trkpt>
      <trkpt lat="37.729554300" lon="-1.899726400">
        <ele>650.000000</ele>
        <time>2014-03-29T15:08:35Z</time>
      </trkpt>
      <trkpt lat="37.729576000" lon="-1.899805800">
        <ele>651.000000</ele>
        <time>2014-03-29T15:08:36Z</time>
      </trkpt>
      <trkpt lat="37.729592200" lon="-1.899884600">
        <ele>652.000000</ele>
        <time>2014-03-29T15:08:37Z</time>
      </trkpt>
      <trkpt lat="37.729613200" lon="-1.899964200">
        <ele>652.000000</ele>
        <time>2014-03-29T15:08:38Z</time>
      </trkpt>
      <trkpt lat="37.729632300" lon="-1.900046900">
        <ele>653.000000</ele>
        <time>2014-03-29T15:08:39Z</time>
      </trkpt>
      <trkpt lat="37.729648700" lon="-1.900135600">
        <ele>653.000000</ele>
        <time>2014-03-29T15:08:40Z</time>
      </trkpt>
      <trkpt lat="37.729669800" lon="-1.900220800">
        <ele>654.000000</ele>
        <time>2014-03-29T15:08:41Z</time>
      </trkpt>
      <trkpt lat="37.729686000" lon="-1.900306200">
        <ele>654.000000</ele>
        <time>2014-03-29T15:08:42Z</time>
      </trkpt>
      <trkpt lat="37.729711800" lon="-1.900392100">
        <ele>655.000000</ele>
        <time>2014-03-29T15:08:43Z</time>
      </trkpt>
      <trkpt lat="37.729732900" lon="-1.900475500">
        <ele>655.000000</ele>
        <time>2014-03-29T15:08:44Z</time>
      </trkpt>
      <trkpt lat="37.729757600" lon="-1.900562500">
        <ele>656.000000</ele>
        <time>2014-03-29T15:08:45Z</time>
      </trkpt>
      <trkpt lat="37.729781500" lon="-1.900653400">
        <ele>656.000000</ele>
        <time>2014-03-29T15:08:46Z</time>
      </trkpt>
      <trkpt lat="37.729803600" lon="-1.900750700">
        <ele>657.000000</ele>
        <time>2014-03-29T15:08:47Z</time>
      </trkpt>
      <trkpt lat="37.729828500" lon="-1.900851200">
        <ele>657.000000</ele>
        <time>2014-03-29T15:08:48Z</time>
      </trkpt>
      <trkpt lat="37.729852600" lon="-1.900950600">
        <ele>658.000000</ele>
        <time>2014-03-29T15:08:49Z</time>
      </trkpt>
      <trkpt lat="37.729873400" lon="-1.901050500">
        <ele>658.000000</ele>
        <time>2014-03-29T15:08:50Z</time>
      </trkpt>
      <trkpt lat="37.729890500" lon="-1.901150600">
        <ele>659.000000</ele>
        <time>2014-03-29T15:08:51Z</time>
      </trkpt>
      <trkpt lat="37.729911400" lon="-1.901252300">
        <ele>659.000000</ele>
        <time>2014-03-29T15:08:52Z</time>
      </trkpt>
      <trkpt lat="37.729937200" lon="-1.901358200">
        <ele>659.000000</ele>
        <time>2014-03-29T15:08:53Z</time>
      </trkpt>
      <trkpt lat="37.729969200" lon="-1.901464800">
        <ele>660.000000</ele>
        <time>2014-03-29T15:08:54Z</time>
      </trkpt>
      <trkpt lat="37.729999300" lon="-1.901573100">
        <ele>660.000000</ele>
        <time>2014-03-29T15:08:55Z</time>
      </trkpt>
      <trkpt lat="37.730028900" lon="-1.901683700">
        <ele>661.000000</ele>
        <time>2014-03-29T15:08:56Z</time>
      </trkpt>
      <trkpt lat="37.730059900" lon="-1.901791100">
        <ele>661.000000</ele>
        <time>2014-03-29T15:08:57Z</time>
      </trkpt>
      <trkpt lat="37.730091400" lon="-1.901900300">
        <ele>661.000000</ele>
        <time>2014-03-29T15:08:58Z</time>
      </trkpt>
      <trkpt lat="37.730120200" lon="-1.902012300">
        <ele>661.000000</ele>
        <time>2014-03-29T15:08:59Z</time>
      </trkpt>
      <trkpt lat="37.730153000" lon="-1.902126100">
        <ele>662.000000</ele>
        <time>2014-03-29T15:09:00Z</time>
      </trkpt>
      <trkpt lat="37.730181800" lon="-1.902240500">
        <ele>662.000000</ele>
        <time>2014-03-29T15:09:01Z</time>
      </trkpt>
      <trkpt lat="37.730207800" lon="-1.902353900">
        <ele>662.000000</ele>
        <time>2014-03-29T15:09:02Z</time>
      </trkpt>
      <trkpt lat="37.730231600" lon="-1.902469400">
        <ele>663.000000</ele>
        <time>2014-03-29T15:09:03Z</time>
      </trkpt>
      <trkpt lat="37.730257300" lon="-1.902581500">
        <ele>663.000000</ele>
        <time>2014-03-29T15:09:04Z</time>
      </trkpt>
      <trkpt lat="37.730283700" lon="-1.902696200">
        <ele>663.000000</ele>
        <time>2014-03-29T15:09:05Z</time>
      </trkpt>
      <trkpt lat="37.730312900" lon="-1.902815900">
        <ele>664.000000</ele>
        <time>2014-03-29T15:09:06Z</time>
      </trkpt>
      <trkpt lat="37.730338700" lon="-1.902936500">
        <ele>664.000000</ele>
        <time>2014-03-29T15:09:07Z</time>
      </trkpt>
      <trkpt lat="37.730363000" lon="-1.903056700">
        <ele>664.000000</ele>
        <time>2014-03-29T15:09:08Z</time>
      </trkpt>
      <trkpt lat="37.730385500" lon="-1.903174600">
        <ele>664.000000</ele>
        <time>2014-03-29T15:09:09Z</time>
      </trkpt>
      <trkpt lat="37.730404500" lon="-1.903293500">
        <ele>665.000000</ele>
        <time>2014-03-29T15:09:10Z</time>
      </trkpt>
      <trkpt lat="37.730424800" lon="-1.903402800">
        <ele>665.000000</ele>
        <time>2014-03-29T15:09:11Z</time>
      </trkpt>
      <trkpt lat="37.730448700" lon="-1.903508500">
        <ele>665.000000</ele>
        <time>2014-03-29T15:09:12Z</time>
      </trkpt>
      <trkpt lat="37.730474600" lon="-1.903617200">
        <ele>666.000000</ele>
        <time>2014-03-29T15:09:13Z</time>
      </trkpt>
      <trkpt lat="37.730497700" lon="-1.903722900">
        <ele>666.000000</ele>
        <time>2014-03-29T15:09:14Z</time>
      </trkpt>
      <trkpt lat="37.730518500" lon="-1.903823500">
        <ele>666.000000</ele>
        <time>2014-03-29T15:09:15Z</time>
      </trkpt>
      <trkpt lat="37.730543700" lon="-1.903922900">
        <ele>666.000000</ele>
        <time>2014-03-29T15:09:16Z</time>
      </trkpt>
      <trkpt lat="37.730567400" lon="-1.904022100">
        <ele>667.000000</ele>
        <time>2014-03-29T15:09:17Z</time>
      </trkpt>
      <trkpt lat="37.730590200" lon="-1.904116500">
        <ele>667.000000</ele>
        <time>2014-03-29T15:09:18Z</time>
      </trkpt>
      <trkpt lat="37.730611100" lon="-1.904211300">
        <ele>667.000000</ele>
        <time>2014-03-29T15:09:19Z</time>
      </trkpt>
      <trkpt lat="37.730634800" lon="-1.904304900">
        <ele>667.000000</ele>
        <time>2014-03-29T15:09:20Z</time>
      </trkpt>
      <trkpt lat="37.730655600" lon="-1.904396800">
        <ele>668.000000</ele>
        <time>2014-03-29T15:09:21Z</time>
      </trkpt>
      <trkpt lat="37.730674500" lon="-1.904487000">
        <ele>668.000000</ele>
        <time>2014-03-29T15:09:22Z</time>
      </trkpt>
      <trkpt lat="37.730696600" lon="-1.904574100">
        <ele>668.000000</ele>
        <time>2014-03-29T15:09:23Z</time>
      </trkpt>
      <trkpt lat="37.730715400" lon="-1.904663700">
        <ele>668.000000</ele>
        <time>2014-03-29T15:09:24Z</time>
      </trkpt>
      <trkpt lat="37.730737400" lon="-1.904752200">
        <ele>668.000000</ele>
        <time>2014-03-29T15:09:25Z</time>
      </trkpt>
      <trkpt lat="37.730762300" lon="-1.904840500">
        <ele>669.000000</ele>
        <time>2014-03-29T15:09:26Z</time>
      </trkpt>
      <trkpt lat="37.730788800" lon="-1.904930800">
        <ele>669.000000</ele>
        <time>2014-03-29T15:09:27Z</time>
      </trkpt>
      <trkpt lat="37.730810900" lon="-1.905016900">
        <ele>669.000000</ele>
        <time>2014-03-29T15:09:28Z</time>
      </trkpt>
      <trkpt lat="37.730833600" lon="-1.905103600">
        <ele>669.000000</ele>
        <time>2014-03-29T15:09:29Z</time>
      </trkpt>
      <trkpt lat="37.730856900" lon="-1.905188900">
        <ele>669.000000</ele>
        <time>2014-03-29T15:09:30Z</time>
      </trkpt>
      <trkpt lat="37.730880000" lon="-1.905278900">
        <ele>670.000000</ele>
        <time>2014-03-29T15:09:31Z</time>
      </trkpt>
      <trkpt lat="37.730903200" lon="-1.905371400">
        <ele>670.000000</ele>
        <time>2014-03-29T15:09:32Z</time>
      </trkpt>
      <trkpt lat="37.730927300" lon="-1.905461700">
        <ele>670.000000</ele>
        <time>2014-03-29T15:09:33Z</time>
      </trkpt>
      <trkpt lat="37.730953100" lon="-1.905552400">
        <ele>671.000000</ele>
        <time>2014-03-29T15:09:34Z</time>
      </trkpt>
      <trkpt lat="37.730982400" lon="-1.905641600">
        <ele>671.000000</ele>
        <time>2014-03-29T15:09:35Z</time>
      </trkpt>
      <trkpt lat="37.731010300" lon="-1.905731200">
        <ele>671.000000</ele>
        <time>2014-03-29T15:09:36Z</time>
      </trkpt>
      <trkpt lat="37.731039400" lon="-1.905825200">
        <ele>672.000000</ele>
        <time>2014-03-29T15:09:37Z</time>
      </trkpt>
      <trkpt lat="37.731063600" lon="-1.905920100">
        <ele>672.000000</ele>
        <time>2014-03-29T15:09:38Z</time>
      </trkpt>
      <trkpt lat="37.731090700" lon="-1.906017800">
        <ele>672.000000</ele>
        <time>2014-03-29T15:09:39Z</time>
      </trkpt>
      <trkpt lat="37.731115500" lon="-1.906115300">
        <ele>672.000000</ele>
        <time>2014-03-29T15:09:40Z</time>
      </trkpt>
      <trkpt lat="37.731139600" lon="-1.906215700">
        <ele>673.000000</ele>
        <time>2014-03-29T15:09:41Z</time>
      </trkpt>
      <trkpt lat="37.731169300" lon="-1.906318200">
        <ele>673.000000</ele>
        <time>2014-03-29T15:09:42Z</time>
      </trkpt>
      <trkpt lat="37.731200700" lon="-1.906419600">
        <ele>673.000000</ele>
        <time>2014-03-29T15:09:43Z</time>
      </trkpt>
      <trkpt lat="37.731226000" lon="-1.906520800">
        <ele>673.000000</ele>
        <time>2014-03-29T15:09:44Z</time>
      </trkpt>
      <trkpt lat="37.731251100" lon="-1.906622700">
        <ele>673.000000</ele>
        <time>2014-03-29T15:09:45Z</time>
      </trkpt>
      <trkpt lat="37.731275800" lon="-1.906722700">
        <ele>674.000000</ele>
        <time>2014-03-29T15:09:46Z</time>
      </trkpt>
      <trkpt lat="37.731300700" lon="-1.906821000">
        <ele>674.000000</ele>
        <time>2014-03-29T15:09:47Z</time>
      </trkpt>
      <trkpt lat="37.731323000" lon="-1.906916400">
        <ele>674.000000</ele>
        <time>2014-03-29T15:09:48Z</time>
      </trkpt>
      <trkpt lat="37.731345300" lon="-1.907011600">
        <ele>674.000000</ele>
        <time>2014-03-29T15:09:49Z</time>
      </trkpt>
      <trkpt lat="37.731369600" lon="-1.907110200">
        <ele>674.000000</ele>
        <time>2014-03-29T15:09:50Z</time>
      </trkpt>
      <trkpt lat="37.731396200" lon="-1.907211400">
        <ele>674.000000</ele>
        <time>2014-03-29T15:09:51Z</time>
      </trkpt>
      <trkpt lat="37.731422000" lon="-1.907315800">
        <ele>674.000000</ele>
        <time>2014-03-29T15:09:52Z</time>
      </trkpt>
      <trkpt lat="37.731446200" lon="-1.907423100">
        <ele>674.000000</ele>
        <time>2014-03-29T15:09:53Z</time>
      </trkpt>
      <trkpt lat="37.731469300" lon="-1.907534000">
        <ele>675.000000</ele>
        <time>2014-03-29T15:09:54Z</time>
      </trkpt>
      <trkpt lat="37.731491600" lon="-1.907645300">
        <ele>675.000000</ele>
        <time>2014-03-29T15:09:55Z</time>
      </trkpt>
      <trkpt lat="37.731515700" lon="-1.907754800">
        <ele>675.000000</ele>
        <time>2014-03-29T15:09:56Z</time>
      </trkpt>
      <trkpt lat="37.731541400" lon="-1.907861800">
        <ele>675.000000</ele>
        <time>2014-03-29T15:09:57Z</time>
      </trkpt>
      <trkpt lat="37.731564900" lon="-1.907969100">
        <ele>675.000000</ele>
        <time>2014-03-29T15:09:58Z</time>
      </trkpt>
      <trkpt lat="37.731581100" lon="-1.908078000">
        <ele>675.000000</ele>
        <time>2014-03-29T15:09:59Z</time>
      </trkpt>
      <trkpt lat="37.731594400" lon="-1.908187500">
        <ele>675.000000</ele>
        <time>2014-03-29T15:10:00Z</time>
      </trkpt>
      <trkpt lat="37.731607700" lon="-1.908295000">
        <ele>675.000000</ele>
        <time>2014-03-29T15:10:01Z</time>
      </trkpt>
      <trkpt lat="37.731618800" lon="-1.908403400">
        <ele>675.000000</ele>
        <time>2014-03-29T15:10:02Z</time>
      </trkpt>
      <trkpt lat="37.731625700" lon="-1.908514400">
        <ele>676.000000</ele>
        <time>2014-03-29T15:10:03Z</time>
      </trkpt>
      <trkpt lat="37.731629800" lon="-1.908626600">
        <ele>676.000000</ele>
        <time>2014-03-29T15:10:04Z</time>
      </trkpt>
      <trkpt lat="37.731634200" lon="-1.908734900">
        <ele>676.000000</ele>
        <time>2014-03-29T15:10:05Z</time>
      </trkpt>
      <trkpt lat="37.731636400" lon="-1.908838900">
        <ele>676.000000</ele>
        <time>2014-03-29T15:10:06Z</time>
      </trkpt>
      <trkpt lat="37.731632300" lon="-1.908947400">
        <ele>676.000000</ele>
        <time>2014-03-29T15:10:07Z</time>
      </trkpt>
      <trkpt lat="37.731627300" lon="-1.909058100">
        <ele>676.000000</ele>
        <time>2014-03-29T15:10:08Z</time>
      </trkpt>
      <trkpt lat="37.731627500" lon="-1.909165600">
        <ele>677.000000</ele>
        <time>2014-03-29T15:10:09Z</time>
      </trkpt>
      <trkpt lat="37.731638900" lon="-1.909268300">
        <ele>677.000000</ele>
        <time>2014-03-29T15:10:10Z</time>
      </trkpt>
      <trkpt lat="37.731662800" lon="-1.909369800">
        <ele>677.000000</ele>
        <time>2014-03-29T15:10:11Z</time>
      </trkpt>
      <trkpt lat="37.731692300" lon="-1.909468000">
        <ele>677.000000</ele>
        <time>2014-03-29T15:10:12Z</time>
      </trkpt>
      <trkpt lat="37.731730500" lon="-1.909562000">
        <ele>678.000000</ele>
        <time>2014-03-29T15:10:13Z</time>
      </trkpt>
      <trkpt lat="37.731773000" lon="-1.909654700">
        <ele>678.000000</ele>
        <time>2014-03-29T15:10:14Z</time>
      </trkpt>
      <trkpt lat="37.731818100" lon="-1.909743300">
        <ele>678.000000</ele>
        <time>2014-03-29T15:10:15Z</time>
      </trkpt>
      <trkpt lat="37.731870500" lon="-1.909828600">
        <ele>678.000000</ele>
        <time>2014-03-29T15:10:16Z</time>
      </trkpt>
      <trkpt lat="37.731921600" lon="-1.909911600">
        <ele>678.000000</ele>
        <time>2014-03-29T15:10:17Z</time>
      </trkpt>
      <trkpt lat="37.731969800" lon="-1.909993900">
        <ele>679.000000</ele>
        <time>2014-03-29T15:10:18Z</time>
      </trkpt>
      <trkpt lat="37.732019900" lon="-1.910074200">
        <ele>679.000000</ele>
        <time>2014-03-29T15:10:19Z</time>
      </trkpt>
      <trkpt lat="37.732066400" lon="-1.910153700">
        <ele>679.000000</ele>
        <time>2014-03-29T15:10:20Z</time>
      </trkpt>
      <trkpt lat="37.732113400" lon="-1.910232600">
        <ele>680.000000</ele>
        <time>2014-03-29T15:10:21Z</time>
      </trkpt>
      <trkpt lat="37.732156100" lon="-1.910311200">
        <ele>680.000000</ele>
        <time>2014-03-29T15:10:22Z</time>
      </trkpt>
      <trkpt lat="37.732192100" lon="-1.910391000">
        <ele>680.000000</ele>
        <time>2014-03-29T15:10:23Z</time>
      </trkpt>
      <trkpt lat="37.732227700" lon="-1.910477700">
        <ele>681.000000</ele>
        <time>2014-03-29T15:10:24Z</time>
      </trkpt>
      <trkpt lat="37.732262800" lon="-1.910564600">
        <ele>681.000000</ele>
        <time>2014-03-29T15:10:25Z</time>
      </trkpt>
      <trkpt lat="37.732298400" lon="-1.910652000">
        <ele>681.000000</ele>
        <time>2014-03-29T15:10:26Z</time>
      </trkpt>
      <trkpt lat="37.732334400" lon="-1.910744800">
        <ele>681.000000</ele>
        <time>2014-03-29T15:10:27Z</time>
      </trkpt>
      <trkpt lat="37.732370500" lon="-1.910842300">
        <ele>682.000000</ele>
        <time>2014-03-29T15:10:28Z</time>
      </trkpt>
      <trkpt lat="37.732404600" lon="-1.910938100">
        <ele>682.000000</ele>
        <time>2014-03-29T15:10:29Z</time>
      </trkpt>
      <trkpt lat="37.732440600" lon="-1.911032800">
        <ele>682.000000</ele>
        <time>2014-03-29T15:10:30Z</time>
      </trkpt>
      <trkpt lat="37.732476300" lon="-1.911129500">
        <ele>683.000000</ele>
        <time>2014-03-29T15:10:31Z</time>
      </trkpt>
      <trkpt lat="37.732506800" lon="-1.911227400">
        <ele>683.000000</ele>
        <time>2014-03-29T15:10:32Z</time>
      </trkpt>
      <trkpt lat="37.732534700" lon="-1.911325600">
        <ele>683.000000</ele>
        <time>2014-03-29T15:10:33Z</time>
      </trkpt>
      <trkpt lat="37.732562300" lon="-1.911423300">
        <ele>683.000000</ele>
        <time>2014-03-29T15:10:34Z</time>
      </trkpt>
      <trkpt lat="37.732594500" lon="-1.911519400">
        <ele>684.000000</ele>
        <time>2014-03-29T15:10:35Z</time>
      </trkpt>
      <trkpt lat="37.732626100" lon="-1.911613100">
        <ele>684.000000</ele>
        <time>2014-03-29T15:10:36Z</time>
      </trkpt>
      <trkpt lat="37.732658000" lon="-1.911708200">
        <ele>684.000000</ele>
        <time>2014-03-29T15:10:37Z</time>
      </trkpt>
      <trkpt lat="37.732685100" lon="-1.911804400">
        <ele>684.000000</ele>
        <time>2014-03-29T15:10:38Z</time>
      </trkpt>
      <trkpt lat="37.732711300" lon="-1.911904600">
        <ele>684.000000</ele>
        <time>2014-03-29T15:10:39Z</time>
      </trkpt>
      <trkpt lat="37.732743500" lon="-1.912006500">
        <ele>685.000000</ele>
        <time>2014-03-29T15:10:40Z</time>
      </trkpt>
      <trkpt lat="37.732776000" lon="-1.912106900">
        <ele>685.000000</ele>
        <time>2014-03-29T15:10:41Z</time>
      </trkpt>
      <trkpt lat="37.732809800" lon="-1.912207900">
        <ele>685.000000</ele>
        <time>2014-03-29T15:10:42Z</time>
      </trkpt>
      <trkpt lat="37.732845400" lon="-1.912307600">
        <ele>685.000000</ele>
        <time>2014-03-29T15:10:43Z</time>
      </trkpt>
      <trkpt lat="37.732878900" lon="-1.912412700">
        <ele>685.000000</ele>
        <time>2014-03-29T15:10:44Z</time>
      </trkpt>
      <trkpt lat="37.732912100" lon="-1.912515500">
        <ele>685.000000</ele>
        <time>2014-03-29T15:10:45Z</time>
      </trkpt>
      <trkpt lat="37.732949100" lon="-1.912620700">
        <ele>686.000000</ele>
        <time>2014-03-29T15:10:46Z</time>
      </trkpt>
      <trkpt lat="37.732987600" lon="-1.912725600">
        <ele>686.000000</ele>
        <time>2014-03-29T15:10:47Z</time>
      </trkpt>
      <trkpt lat="37.733023200" lon="-1.912830800">
        <ele>686.000000</ele>
        <time>2014-03-29T15:10:48Z</time>
      </trkpt>
      <trkpt lat="37.733056600" lon="-1.912938200">
        <ele>686.000000</ele>
        <time>2014-03-29T15:10:49Z</time>
      </trkpt>
      <trkpt lat="37.733093800" lon="-1.913046000">
        <ele>686.000000</ele>
        <time>2014-03-29T15:10:50Z</time>
      </trkpt>
      <trkpt lat="37.733130500" lon="-1.913155100">
        <ele>687.000000</ele>
        <time>2014-03-29T15:10:51Z</time>
      </trkpt>
      <trkpt lat="37.733168300" lon="-1.913264700">
        <ele>687.000000</ele>
        <time>2014-03-29T15:10:52Z</time>
      </trkpt>
      <trkpt lat="37.733207000" lon="-1.913375700">
        <ele>687.000000</ele>
        <time>2014-03-29T15:10:53Z</time>
      </trkpt>
      <trkpt lat="37.733243800" lon="-1.913487900">
        <ele>687.000000</ele>
        <time>2014-03-29T15:10:54Z</time>
      </trkpt>
      <trkpt lat="37.733280100" lon="-1.913608000">
        <ele>687.000000</ele>
        <time>2014-03-29T15:10:55Z</time>
      </trkpt>
      <trkpt lat="37.733320100" lon="-1.913726000">
        <ele>688.000000</ele>
        <time>2014-03-29T15:10:56Z</time>
      </trkpt>
      <trkpt lat="37.733357900" lon="-1.913844400">
        <ele>688.000000</ele>
        <time>2014-03-29T15:10:57Z</time>
      </trkpt>
      <trkpt lat="37.733398300" lon="-1.913961700">
        <ele>688.000000</ele>
        <time>2014-03-29T15:10:58Z</time>
      </trkpt>
      <trkpt lat="37.733438300" lon="-1.914077400">
        <ele>688.000000</ele>
        <time>2014-03-29T15:10:59Z</time>
      </trkpt>
      <trkpt lat="37.733479600" lon="-1.914195600">
        <ele>689.000000</ele>
        <time>2014-03-29T15:11:00Z</time>
      </trkpt>
      <trkpt lat="37.733520400" lon="-1.914314800">
        <ele>689.000000</ele>
        <time>2014-03-29T15:11:01Z</time>
      </trkpt>
      <trkpt lat="37.733561500" lon="-1.914433100">
        <ele>689.000000</ele>
        <time>2014-03-29T15:11:02Z</time>
      </trkpt>
      <trkpt lat="37.733603400" lon="-1.914551200">
        <ele>689.000000</ele>
        <time>2014-03-29T15:11:03Z</time>
      </trkpt>
      <trkpt lat="37.733650200" lon="-1.914664400">
        <ele>690.000000</ele>
        <time>2014-03-29T15:11:04Z</time>
      </trkpt>
      <trkpt lat="37.733697000" lon="-1.914778200">
        <ele>690.000000</ele>
        <time>2014-03-29T15:11:05Z</time>
      </trkpt>
      <trkpt lat="37.733739200" lon="-1.914891100">
        <ele>690.000000</ele>
        <time>2014-03-29T15:11:06Z</time>
      </trkpt>
      <trkpt lat="37.733778400" lon="-1.915004500">
        <ele>691.000000</ele>
        <time>2014-03-29T15:11:07Z</time>
      </trkpt>
      <trkpt lat="37.733815500" lon="-1.915121300">
        <ele>691.000000</ele>
        <time>2014-03-29T15:11:08Z</time>
      </trkpt>
      <trkpt lat="37.733849300" lon="-1.915240200">
        <ele>691.000000</ele>
        <time>2014-03-29T15:11:09Z</time>
      </trkpt>
      <trkpt lat="37.733886700" lon="-1.915358700">
        <ele>692.000000</ele>
        <time>2014-03-29T15:11:10Z</time>
      </trkpt>
      <trkpt lat="37.733924400" lon="-1.915476400">
        <ele>692.000000</ele>
        <time>2014-03-29T15:11:11Z</time>
      </trkpt>
      <trkpt lat="37.733962900" lon="-1.915595500">
        <ele>692.000000</ele>
        <time>2014-03-29T15:11:12Z</time>
      </trkpt>
      <trkpt lat="37.733999500" lon="-1.915713400">
        <ele>693.000000</ele>
        <time>2014-03-29T15:11:13Z</time>
      </trkpt>
      <trkpt lat="37.734033100" lon="-1.915831300">
        <ele>693.000000</ele>
        <time>2014-03-29T15:11:14Z</time>
      </trkpt>
      <trkpt lat="37.734064000" lon="-1.915943000">
        <ele>693.000000</ele>
        <time>2014-03-29T15:11:15Z</time>
      </trkpt>
      <trkpt lat="37.734095000" lon="-1.916050300">
        <ele>694.000000</ele>
        <time>2014-03-29T15:11:16Z</time>
      </trkpt>
      <trkpt lat="37.734129000" lon="-1.916159700">
        <ele>694.000000</ele>
        <time>2014-03-29T15:11:17Z</time>
      </trkpt>
      <trkpt lat="37.734159000" lon="-1.916269600">
        <ele>694.000000</ele>
        <time>2014-03-29T15:11:18Z</time>
      </trkpt>
      <trkpt lat="37.734187800" lon="-1.916376200">
        <ele>695.000000</ele>
        <time>2014-03-29T15:11:19Z</time>
      </trkpt>
      <trkpt lat="37.734215400" lon="-1.916475600">
        <ele>695.000000</ele>
        <time>2014-03-29T15:11:20Z</time>
      </trkpt>
      <trkpt lat="37.734250000" lon="-1.916576800">
        <ele>696.000000</ele>
        <time>2014-03-29T15:11:21Z</time>
      </trkpt>
      <trkpt lat="37.734283200" lon="-1.916672600">
        <ele>696.000000</ele>
        <time>2014-03-29T15:11:22Z</time>
      </trkpt>
      <trkpt lat="37.734319200" lon="-1.916770300">
        <ele>696.000000</ele>
        <time>2014-03-29T15:11:23Z</time>
      </trkpt>
      <trkpt lat="37.734356600" lon="-1.916873000">
        <ele>697.000000</ele>
        <time>2014-03-29T15:11:24Z</time>
      </trkpt>
      <trkpt lat="37.734395100" lon="-1.916975600">
        <ele>697.000000</ele>
        <time>2014-03-29T15:11:25Z</time>
      </trkpt>
      <trkpt lat="37.734439900" lon="-1.917075200">
        <ele>697.000000</ele>
        <time>2014-03-29T15:11:26Z</time>
      </trkpt>
      <trkpt lat="37.734493800" lon="-1.917173000">
        <ele>697.000000</ele>
        <time>2014-03-29T15:11:27Z</time>
      </trkpt>
      <trkpt lat="37.734552800" lon="-1.917263400">
        <ele>698.000000</ele>
        <time>2014-03-29T15:11:28Z</time>
      </trkpt>
      <trkpt lat="37.734617800" lon="-1.917352000">
        <ele>698.000000</ele>
        <time>2014-03-29T15:11:29Z</time>
      </trkpt>
      <trkpt lat="37.734685000" lon="-1.917438400">
        <ele>698.000000</ele>
        <time>2014-03-29T15:11:30Z</time>
      </trkpt>
      <trkpt lat="37.734756900" lon="-1.917523800">
        <ele>699.000000</ele>
        <time>2014-03-29T15:11:31Z</time>
      </trkpt>
      <trkpt lat="37.734830000" lon="-1.917606200">
        <ele>699.000000</ele>
        <time>2014-03-29T15:11:32Z</time>
      </trkpt>
      <trkpt lat="37.734906800" lon="-1.917682300">
        <ele>699.000000</ele>
        <time>2014-03-29T15:11:33Z</time>
      </trkpt>
      <trkpt lat="37.734987400" lon="-1.917739300">
        <ele>699.000000</ele>
        <time>2014-03-29T15:11:34Z</time>
      </trkpt>
      <trkpt lat="37.735068300" lon="-1.917768500">
        <ele>699.000000</ele>
        <time>2014-03-29T15:11:35Z</time>
      </trkpt>
      <trkpt lat="37.735153400" lon="-1.917764700">
        <ele>699.000000</ele>
        <time>2014-03-29T15:11:36Z</time>
      </trkpt>
      <trkpt lat="37.735236700" lon="-1.917736600">
        <ele>700.000000</ele>
        <time>2014-03-29T15:11:37Z</time>
      </trkpt>
      <trkpt lat="37.735319400" lon="-1.917687500">
        <ele>700.000000</ele>
        <time>2014-03-29T15:11:38Z</time>
      </trkpt>
      <trkpt lat="37.735404200" lon="-1.917624600">
        <ele>700.000000</ele>
        <time>2014-03-29T15:11:39Z</time>
      </trkpt>
      <trkpt lat="37.735486200" lon="-1.917554700">
        <ele>700.000000</ele>
        <time>2014-03-29T15:11:40Z</time>
      </trkpt>
      <trkpt lat="37.735572300" lon="-1.917476400">
        <ele>700.000000</ele>
        <time>2014-03-29T15:11:41Z</time>
      </trkpt>
      <trkpt lat="37.735667900" lon="-1.917402400">
        <ele>700.000000</ele>
        <time>2014-03-29T15:11:42Z</time>
      </trkpt>
      <trkpt lat="37.735764100" lon="-1.917316800">
        <ele>700.000000</ele>
        <time>2014-03-29T15:11:43Z</time>
      </trkpt>
      <trkpt lat="37.735860900" lon="-1.917232600">
        <ele>700.000000</ele>
        <time>2014-03-29T15:11:44Z</time>
      </trkpt>
      <trkpt lat="37.735961400" lon="-1.917152500">
        <ele>700.000000</ele>
        <time>2014-03-29T15:11:45Z</time>
      </trkpt>
      <trkpt lat="37.736057000" lon="-1.917072800">
        <ele>700.000000</ele>
        <time>2014-03-29T15:11:46Z</time>
      </trkpt>
      <trkpt lat="37.736151500" lon="-1.916993300">
        <ele>700.000000</ele>
        <time>2014-03-29T15:11:47Z</time>
      </trkpt>
      <trkpt lat="37.736250700" lon="-1.916909300">
        <ele>699.000000</ele>
        <time>2014-03-29T15:11:48Z</time>
      </trkpt>
      <trkpt lat="37.736347000" lon="-1.916823400">
        <ele>699.000000</ele>
        <time>2014-03-29T15:11:49Z</time>
      </trkpt>
      <trkpt lat="37.736443600" lon="-1.916739100">
        <ele>699.000000</ele>
        <time>2014-03-29T15:11:50Z</time>
      </trkpt>
      <trkpt lat="37.736537700" lon="-1.916658300">
        <ele>699.000000</ele>
        <time>2014-03-29T15:11:51Z</time>
      </trkpt>
      <trkpt lat="37.736629700" lon="-1.916577100">
        <ele>699.000000</ele>
        <time>2014-03-29T15:11:52Z</time>
      </trkpt>
      <trkpt lat="37.736721500" lon="-1.916495400">
        <ele>699.000000</ele>
        <time>2014-03-29T15:11:53Z</time>
      </trkpt>
      <trkpt lat="37.736813700" lon="-1.916414600">
        <ele>699.000000</ele>
        <time>2014-03-29T15:11:54Z</time>
      </trkpt>
      <trkpt lat="37.736911400" lon="-1.916331800">
        <ele>699.000000</ele>
        <time>2014-03-29T15:11:55Z</time>
      </trkpt>
      <trkpt lat="37.737005900" lon="-1.916249400">
        <ele>699.000000</ele>
        <time>2014-03-29T15:11:56Z</time>
      </trkpt>
      <trkpt lat="37.737098700" lon="-1.916165000">
        <ele>699.000000</ele>
        <time>2014-03-29T15:11:57Z</time>
      </trkpt>
      <trkpt lat="37.737193100" lon="-1.916081200">
        <ele>699.000000</ele>
        <time>2014-03-29T15:11:58Z</time>
      </trkpt>
      <trkpt lat="37.737289300" lon="-1.915998000">
        <ele>699.000000</ele>
        <time>2014-03-29T15:11:59Z</time>
      </trkpt>
      <trkpt lat="37.737384000" lon="-1.915910500">
        <ele>699.000000</ele>
        <time>2014-03-29T15:12:00Z</time>
      </trkpt>
      <trkpt lat="37.737474000" lon="-1.915816600">
        <ele>699.000000</ele>
        <time>2014-03-29T15:12:01Z</time>
      </trkpt>
      <trkpt lat="37.737564700" lon="-1.915723500">
        <ele>699.000000</ele>
        <time>2014-03-29T15:12:02Z</time>
      </trkpt>
      <trkpt lat="37.737657100" lon="-1.915632000">
        <ele>699.000000</ele>
        <time>2014-03-29T15:12:03Z</time>
      </trkpt>
      <trkpt lat="37.737748700" lon="-1.915540800">
        <ele>699.000000</ele>
        <time>2014-03-29T15:12:04Z</time>
      </trkpt>
      <trkpt lat="37.737843200" lon="-1.915446700">
        <ele>699.000000</ele>
        <time>2014-03-29T15:12:05Z</time>
      </trkpt>
      <trkpt lat="37.737932800" lon="-1.915353900">
        <ele>699.000000</ele>
        <time>2014-03-29T15:12:06Z</time>
      </trkpt>
      <trkpt lat="37.738023000" lon="-1.915261100">
        <ele>699.000000</ele>
        <time>2014-03-29T15:12:07Z</time>
      </trkpt>
      <trkpt lat="37.738114200" lon="-1.915169200">
        <ele>699.000000</ele>
        <time>2014-03-29T15:12:08Z</time>
      </trkpt>
      <trkpt lat="37.738204900" lon="-1.915074600">
        <ele>699.000000</ele>
        <time>2014-03-29T15:12:09Z</time>
      </trkpt>
      <trkpt lat="37.738303100" lon="-1.914979400">
        <ele>699.000000</ele>
        <time>2014-03-29T15:12:10Z</time>
      </trkpt>
      <trkpt lat="37.738409400" lon="-1.914880100">
        <ele>699.000000</ele>
        <time>2014-03-29T15:12:11Z</time>
      </trkpt>
      <trkpt lat="37.738505000" lon="-1.914788200">
        <ele>699.000000</ele>
        <time>2014-03-29T15:12:12Z</time>
      </trkpt>
      <trkpt lat="37.738596500" lon="-1.914693600">
        <ele>699.000000</ele>
        <time>2014-03-29T15:12:13Z</time>
      </trkpt>
      <trkpt lat="37.738690500" lon="-1.914597000">
        <ele>699.000000</ele>
        <time>2014-03-29T15:12:14Z</time>
      </trkpt>
      <trkpt lat="37.738782400" lon="-1.914502100">
        <ele>699.000000</ele>
        <time>2014-03-29T15:12:15Z</time>
      </trkpt>
      <trkpt lat="37.738869100" lon="-1.914409600">
        <ele>699.000000</ele>
        <time>2014-03-29T15:12:16Z</time>
      </trkpt>
      <trkpt lat="37.738960700" lon="-1.914317900">
        <ele>698.000000</ele>
        <time>2014-03-29T15:12:17Z</time>
      </trkpt>
      <trkpt lat="37.739047900" lon="-1.914228300">
        <ele>698.000000</ele>
        <time>2014-03-29T15:12:18Z</time>
      </trkpt>
      <trkpt lat="37.739138700" lon="-1.914137900">
        <ele>698.000000</ele>
        <time>2014-03-29T15:12:19Z</time>
      </trkpt>
      <trkpt lat="37.739232500" lon="-1.914045800">
        <ele>698.000000</ele>
        <time>2014-03-29T15:12:20Z</time>
      </trkpt>
      <trkpt lat="37.739325900" lon="-1.913958400">
        <ele>698.000000</ele>
        <time>2014-03-29T15:12:21Z</time>
      </trkpt>
      <trkpt lat="37.739421100" lon="-1.913878500">
        <ele>698.000000</ele>
        <time>2014-03-29T15:12:22Z</time>
      </trkpt>
      <trkpt lat="37.739522000" lon="-1.913812600">
        <ele>698.000000</ele>
        <time>2014-03-29T15:12:23Z</time>
      </trkpt>
      <trkpt lat="37.739628200" lon="-1.913753300">
        <ele>698.000000</ele>
        <time>2014-03-29T15:12:24Z</time>
      </trkpt>
      <trkpt lat="37.739737800" lon="-1.913703700">
        <ele>698.000000</ele>
        <time>2014-03-29T15:12:25Z</time>
      </trkpt>
      <trkpt lat="37.739851300" lon="-1.913662700">
        <ele>698.000000</ele>
        <time>2014-03-29T15:12:26Z</time>
      </trkpt>
      <trkpt lat="37.739973000" lon="-1.913626900">
        <ele>698.000000</ele>
        <time>2014-03-29T15:12:27Z</time>
      </trkpt>
      <trkpt lat="37.740093800" lon="-1.913589500">
        <ele>698.000000</ele>
        <time>2014-03-29T15:12:28Z</time>
      </trkpt>
      <trkpt lat="37.740214400" lon="-1.913544700">
        <ele>698.000000</ele>
        <time>2014-03-29T15:12:29Z</time>
      </trkpt>
      <trkpt lat="37.740334000" lon="-1.913488400">
        <ele>697.000000</ele>
        <time>2014-03-29T15:12:30Z</time>
      </trkpt>
      <trkpt lat="37.740449700" lon="-1.913422300">
        <ele>697.000000</ele>
        <time>2014-03-29T15:12:31Z</time>
      </trkpt>
      <trkpt lat="37.740560500" lon="-1.913348600">
        <ele>697.000000</ele>
        <time>2014-03-29T15:12:32Z</time>
      </trkpt>
      <trkpt lat="37.740668900" lon="-1.913269600">
        <ele>697.000000</ele>
        <time>2014-03-29T15:12:33Z</time>
      </trkpt>
      <trkpt lat="37.740772400" lon="-1.913188000">
        <ele>697.000000</ele>
        <time>2014-03-29T15:12:34Z</time>
      </trkpt>
      <trkpt lat="37.740872100" lon="-1.913104900">
        <ele>697.000000</ele>
        <time>2014-03-29T15:12:35Z</time>
      </trkpt>
      <trkpt lat="37.740971800" lon="-1.913021400">
        <ele>697.000000</ele>
        <time>2014-03-29T15:12:36Z</time>
      </trkpt>
      <trkpt lat="37.741075400" lon="-1.912935400">
        <ele>697.000000</ele>
        <time>2014-03-29T15:12:37Z</time>
      </trkpt>
      <trkpt lat="37.741183700" lon="-1.912846900">
        <ele>697.000000</ele>
        <time>2014-03-29T15:12:38Z</time>
      </trkpt>
      <trkpt lat="37.741290700" lon="-1.912759900">
        <ele>697.000000</ele>
        <time>2014-03-29T15:12:39Z</time>
      </trkpt>
      <trkpt lat="37.741399500" lon="-1.912673400">
        <ele>697.000000</ele>
        <time>2014-03-29T15:12:40Z</time>
      </trkpt>
      <trkpt lat="37.741508300" lon="-1.912589600">
        <ele>697.000000</ele>
        <time>2014-03-29T15:12:41Z</time>
      </trkpt>
      <trkpt lat="37.741621800" lon="-1.912509800">
        <ele>697.000000</ele>
        <time>2014-03-29T15:12:42Z</time>
      </trkpt>
      <trkpt lat="37.741733800" lon="-1.912434100">
        <ele>697.000000</ele>
        <time>2014-03-29T15:12:43Z</time>
      </trkpt>
      <trkpt lat="37.741850800" lon="-1.912362000">
        <ele>696.000000</ele>
        <time>2014-03-29T15:12:44Z</time>
      </trkpt>
      <trkpt lat="37.741966500" lon="-1.912292400">
        <ele>696.000000</ele>
        <time>2014-03-29T15:12:45Z</time>
      </trkpt>
      <trkpt lat="37.742079400" lon="-1.912218700">
        <ele>696.000000</ele>
        <time>2014-03-29T15:12:46Z</time>
      </trkpt>
      <trkpt lat="37.742186500" lon="-1.912140700">
        <ele>696.000000</ele>
        <time>2014-03-29T15:12:47Z</time>
      </trkpt>
      <trkpt lat="37.742289400" lon="-1.912055700">
        <ele>696.000000</ele>
        <time>2014-03-29T15:12:48Z</time>
      </trkpt>
      <trkpt lat="37.742390700" lon="-1.911966100">
        <ele>695.000000</ele>
        <time>2014-03-29T15:12:49Z</time>
      </trkpt>
      <trkpt lat="37.742493400" lon="-1.911875600">
        <ele>695.000000</ele>
        <time>2014-03-29T15:12:50Z</time>
      </trkpt>
      <trkpt lat="37.742593500" lon="-1.911788900">
        <ele>695.000000</ele>
        <time>2014-03-29T15:12:51Z</time>
      </trkpt>
      <trkpt lat="37.742693100" lon="-1.911701700">
        <ele>695.000000</ele>
        <time>2014-03-29T15:12:52Z</time>
      </trkpt>
      <trkpt lat="37.742794200" lon="-1.911615300">
        <ele>695.000000</ele>
        <time>2014-03-29T15:12:53Z</time>
      </trkpt>
      <trkpt lat="37.742900100" lon="-1.911527500">
        <ele>694.000000</ele>
        <time>2014-03-29T15:12:54Z</time>
      </trkpt>
      <trkpt lat="37.743001900" lon="-1.911440700">
        <ele>694.000000</ele>
        <time>2014-03-29T15:12:55Z</time>
      </trkpt>
      <trkpt lat="37.743106600" lon="-1.911353600">
        <ele>694.000000</ele>
        <time>2014-03-29T15:12:56Z</time>
      </trkpt>
      <trkpt lat="37.743207500" lon="-1.911266900">
        <ele>693.000000</ele>
        <time>2014-03-29T15:12:57Z</time>
      </trkpt>
      <trkpt lat="37.743317400" lon="-1.911176500">
        <ele>693.000000</ele>
        <time>2014-03-29T15:12:58Z</time>
      </trkpt>
      <trkpt lat="37.743427800" lon="-1.911089000">
        <ele>693.000000</ele>
        <time>2014-03-29T15:12:59Z</time>
      </trkpt>
      <trkpt lat="37.743535700" lon="-1.911001900">
        <ele>693.000000</ele>
        <time>2014-03-29T15:13:00Z</time>
      </trkpt>
      <trkpt lat="37.743643900" lon="-1.910913100">
        <ele>692.000000</ele>
        <time>2014-03-29T15:13:01Z</time>
      </trkpt>
      <trkpt lat="37.743749700" lon="-1.910824000">
        <ele>692.000000</ele>
        <time>2014-03-29T15:13:02Z</time>
      </trkpt>
      <trkpt lat="37.743855700" lon="-1.910732700">
        <ele>692.000000</ele>
        <time>2014-03-29T15:13:03Z</time>
      </trkpt>
      <trkpt lat="37.743965500" lon="-1.910641700">
        <ele>692.000000</ele>
        <time>2014-03-29T15:13:04Z</time>
      </trkpt>
      <trkpt lat="37.744075000" lon="-1.910551200">
        <ele>692.000000</ele>
        <time>2014-03-29T15:13:05Z</time>
      </trkpt>
      <trkpt lat="37.744185000" lon="-1.910458700">
        <ele>691.000000</ele>
        <time>2014-03-29T15:13:06Z</time>
      </trkpt>
      <trkpt lat="37.744298100" lon="-1.910363300">
        <ele>691.000000</ele>
        <time>2014-03-29T15:13:07Z</time>
      </trkpt>
      <trkpt lat="37.744408000" lon="-1.910268100">
        <ele>691.000000</ele>
        <time>2014-03-29T15:13:08Z</time>
      </trkpt>
      <trkpt lat="37.744522000" lon="-1.910173100">
        <ele>691.000000</ele>
        <time>2014-03-29T15:13:09Z</time>
      </trkpt>
      <trkpt lat="37.744625900" lon="-1.910080600">
        <ele>691.000000</ele>
        <time>2014-03-29T15:13:10Z</time>
      </trkpt>
      <trkpt lat="37.744733100" lon="-1.909988700">
        <ele>690.000000</ele>
        <time>2014-03-29T15:13:11Z</time>
      </trkpt>
      <trkpt lat="37.744838200" lon="-1.909897900">
        <ele>690.000000</ele>
        <time>2014-03-29T15:13:12Z</time>
      </trkpt>
      <trkpt lat="37.744945800" lon="-1.909805800">
        <ele>690.000000</ele>
        <time>2014-03-29T15:13:13Z</time>
      </trkpt>
      <trkpt lat="37.745049000" lon="-1.909714700">
        <ele>690.000000</ele>
        <time>2014-03-29T15:13:14Z</time>
      </trkpt>
      <trkpt lat="37.745155700" lon="-1.909623300">
        <ele>689.000000</ele>
        <time>2014-03-29T15:13:15Z</time>
      </trkpt>
      <trkpt lat="37.745261800" lon="-1.909531500">
        <ele>689.000000</ele>
        <time>2014-03-29T15:13:16Z</time>
      </trkpt>
      <trkpt lat="37.745365800" lon="-1.909444900">
        <ele>689.000000</ele>
        <time>2014-03-29T15:13:17Z</time>
      </trkpt>
      <trkpt lat="37.745472700" lon="-1.909362000">
        <ele>689.000000</ele>
        <time>2014-03-29T15:13:18Z</time>
      </trkpt>
      <trkpt lat="37.745582400" lon="-1.909283500">
        <ele>689.000000</ele>
        <time>2014-03-29T15:13:19Z</time>
      </trkpt>
      <trkpt lat="37.745694500" lon="-1.909210100">
        <ele>689.000000</ele>
        <time>2014-03-29T15:13:20Z</time>
      </trkpt>
      <trkpt lat="37.745810200" lon="-1.909142600">
        <ele>688.000000</ele>
        <time>2014-03-29T15:13:21Z</time>
      </trkpt>
      <trkpt lat="37.745927900" lon="-1.909080100">
        <ele>688.000000</ele>
        <time>2014-03-29T15:13:22Z</time>
      </trkpt>
      <trkpt lat="37.746052600" lon="-1.909016900">
        <ele>688.000000</ele>
        <time>2014-03-29T15:13:23Z</time>
      </trkpt>
      <trkpt lat="37.746178300" lon="-1.908951900">
        <ele>688.000000</ele>
        <time>2014-03-29T15:13:24Z</time>
      </trkpt>
      <trkpt lat="37.746304200" lon="-1.908888200">
        <ele>688.000000</ele>
        <time>2014-03-29T15:13:25Z</time>
      </trkpt>
      <trkpt lat="37.746429100" lon="-1.908826800">
        <ele>687.000000</ele>
        <time>2014-03-29T15:13:26Z</time>
      </trkpt>
      <trkpt lat="37.746556800" lon="-1.908766000">
        <ele>687.000000</ele>
        <time>2014-03-29T15:13:27Z</time>
      </trkpt>
      <trkpt lat="37.746684400" lon="-1.908703200">
        <ele>687.000000</ele>
        <time>2014-03-29T15:13:28Z</time>
      </trkpt>
      <trkpt lat="37.746815100" lon="-1.908640300">
        <ele>687.000000</ele>
        <time>2014-03-29T15:13:29Z</time>
      </trkpt>
      <trkpt lat="37.746948600" lon="-1.908576900">
        <ele>687.000000</ele>
        <time>2014-03-29T15:13:30Z</time>
      </trkpt>
      <trkpt lat="37.747082000" lon="-1.908514000">
        <ele>687.000000</ele>
        <time>2014-03-29T15:13:31Z</time>
      </trkpt>
      <trkpt lat="37.747220700" lon="-1.908452900">
        <ele>686.000000</ele>
        <time>2014-03-29T15:13:32Z</time>
      </trkpt>
      <trkpt lat="37.747360700" lon="-1.908393100">
        <ele>686.000000</ele>
        <time>2014-03-29T15:13:33Z</time>
      </trkpt>
      <trkpt lat="37.747502200" lon="-1.908333200">
        <ele>686.000000</ele>
        <time>2014-03-29T15:13:34Z</time>
      </trkpt>
      <trkpt lat="37.747640200" lon="-1.908267400">
        <ele>685.000000</ele>
        <time>2014-03-29T15:13:35Z</time>
      </trkpt>
      <trkpt lat="37.747769200" lon="-1.908188200">
        <ele>685.000000</ele>
        <time>2014-03-29T15:13:36Z</time>
      </trkpt>
      <trkpt lat="37.747897100" lon="-1.908092000">
        <ele>685.000000</ele>
        <time>2014-03-29T15:13:37Z</time>
      </trkpt>
      <trkpt lat="37.748020700" lon="-1.907984200">
        <ele>684.000000</ele>
        <time>2014-03-29T15:13:38Z</time>
      </trkpt>
      <trkpt lat="37.748142200" lon="-1.907870300">
        <ele>684.000000</ele>
        <time>2014-03-29T15:13:39Z</time>
      </trkpt>
      <trkpt lat="37.748256600" lon="-1.907758100">
        <ele>683.000000</ele>
        <time>2014-03-29T15:13:40Z</time>
      </trkpt>
      <trkpt lat="37.748371300" lon="-1.907641400">
        <ele>683.000000</ele>
        <time>2014-03-29T15:13:41Z</time>
      </trkpt>
      <trkpt lat="37.748475200" lon="-1.907528500">
        <ele>683.000000</ele>
        <time>2014-03-29T15:13:42Z</time>
      </trkpt>
      <trkpt lat="37.748573100" lon="-1.907416900">
        <ele>682.000000</ele>
        <time>2014-03-29T15:13:43Z</time>
      </trkpt>
      <trkpt lat="37.748671500" lon="-1.907307400">
        <ele>682.000000</ele>
        <time>2014-03-29T15:13:44Z</time>
      </trkpt>
      <trkpt lat="37.748768300" lon="-1.907201100">
        <ele>682.000000</ele>
        <time>2014-03-29T15:13:45Z</time>
      </trkpt>
      <trkpt lat="37.748860900" lon="-1.907091200">
        <ele>682.000000</ele>
        <time>2014-03-29T15:13:46Z</time>
      </trkpt>
      <trkpt lat="37.748946200" lon="-1.906971400">
        <ele>681.000000</ele>
        <time>2014-03-29T15:13:47Z</time>
      </trkpt>
      <trkpt lat="37.749017500" lon="-1.906838900">
        <ele>681.000000</ele>
        <time>2014-03-29T15:13:48Z</time>
      </trkpt>
      <trkpt lat="37.749075400" lon="-1.906699800">
        <ele>681.000000</ele>
        <time>2014-03-29T15:13:49Z</time>
      </trkpt>
      <trkpt lat="37.749129000" lon="-1.906555500">
        <ele>680.000000</ele>
        <time>2014-03-29T15:13:50Z</time>
      </trkpt>
      <trkpt lat="37.749177500" lon="-1.906415400">
        <ele>680.000000</ele>
        <time>2014-03-29T15:13:51Z</time>
      </trkpt>
      <trkpt lat="37.749231200" lon="-1.906277100">
        <ele>680.000000</ele>
        <time>2014-03-29T15:13:52Z</time>
      </trkpt>
      <trkpt lat="37.749283200" lon="-1.906140300">
        <ele>679.000000</ele>
        <time>2014-03-29T15:13:53Z</time>
      </trkpt>
      <trkpt lat="37.749331500" lon="-1.906003300">
        <ele>679.000000</ele>
        <time>2014-03-29T15:13:54Z</time>
      </trkpt>
      <trkpt lat="37.749380200" lon="-1.905866300">
        <ele>679.000000</ele>
        <time>2014-03-29T15:13:55Z</time>
      </trkpt>
      <trkpt lat="37.749425100" lon="-1.905725100">
        <ele>679.000000</ele>
        <time>2014-03-29T15:13:56Z</time>
      </trkpt>
      <trkpt lat="37.749466200" lon="-1.905582800">
        <ele>678.000000</ele>
        <time>2014-03-29T15:13:57Z</time>
      </trkpt>
      <trkpt lat="37.749502900" lon="-1.905437300">
        <ele>678.000000</ele>
        <time>2014-03-29T15:13:58Z</time>
      </trkpt>
      <trkpt lat="37.749533100" lon="-1.905291600">
        <ele>678.000000</ele>
        <time>2014-03-29T15:13:59Z</time>
      </trkpt>
      <trkpt lat="37.749558600" lon="-1.905148600">
        <ele>678.000000</ele>
        <time>2014-03-29T15:14:00Z</time>
      </trkpt>
      <trkpt lat="37.749579500" lon="-1.905005000">
        <ele>677.000000</ele>
        <time>2014-03-29T15:14:01Z</time>
      </trkpt>
      <trkpt lat="37.749601200" lon="-1.904862100">
        <ele>677.000000</ele>
        <time>2014-03-29T15:14:02Z</time>
      </trkpt>
      <trkpt lat="37.749619600" lon="-1.904719100">
        <ele>677.000000</ele>
        <time>2014-03-29T15:14:03Z</time>
      </trkpt>
      <trkpt lat="37.749636300" lon="-1.904576600">
        <ele>676.000000</ele>
        <time>2014-03-29T15:14:04Z</time>
      </trkpt>
      <trkpt lat="37.749659900" lon="-1.904435900">
        <ele>676.000000</ele>
        <time>2014-03-29T15:14:05Z</time>
      </trkpt>
      <trkpt lat="37.749680900" lon="-1.904294400">
        <ele>676.000000</ele>
        <time>2014-03-29T15:14:06Z</time>
      </trkpt>
      <trkpt lat="37.749697000" lon="-1.904154000">
        <ele>676.000000</ele>
        <time>2014-03-29T15:14:07Z</time>
      </trkpt>
      <trkpt lat="37.749717800" lon="-1.904012000">
        <ele>675.000000</ele>
        <time>2014-03-29T15:14:08Z</time>
      </trkpt>
      <trkpt lat="37.749741600" lon="-1.903867600">
        <ele>675.000000</ele>
        <time>2014-03-29T15:14:09Z</time>
      </trkpt>
      <trkpt lat="37.749766600" lon="-1.903723300">
        <ele>675.000000</ele>
        <time>2014-03-29T15:14:10Z</time>
      </trkpt>
      <trkpt lat="37.749789900" lon="-1.903573700">
        <ele>675.000000</ele>
        <time>2014-03-29T15:14:11Z</time>
      </trkpt>
      <trkpt lat="37.749817200" lon="-1.903415500">
        <ele>674.000000</ele>
        <time>2014-03-29T15:14:12Z</time>
      </trkpt>
      <trkpt lat="37.749851500" lon="-1.903257400">
        <ele>674.000000</ele>
        <time>2014-03-29T15:14:13Z</time>
      </trkpt>
      <trkpt lat="37.749889400" lon="-1.903101100">
        <ele>674.000000</ele>
        <time>2014-03-29T15:14:14Z</time>
      </trkpt>
      <trkpt lat="37.749931400" lon="-1.902944300">
        <ele>673.000000</ele>
        <time>2014-03-29T15:14:15Z</time>
      </trkpt>
      <trkpt lat="37.749972000" lon="-1.902790500">
        <ele>673.000000</ele>
        <time>2014-03-29T15:14:16Z</time>
      </trkpt>
      <trkpt lat="37.750013800" lon="-1.902639300">
        <ele>672.000000</ele>
        <time>2014-03-29T15:14:17Z</time>
      </trkpt>
      <trkpt lat="37.750055300" lon="-1.902492700">
        <ele>672.000000</ele>
        <time>2014-03-29T15:14:18Z</time>
      </trkpt>
      <trkpt lat="37.750099600" lon="-1.902346600">
        <ele>671.000000</ele>
        <time>2014-03-29T15:14:19Z</time>
      </trkpt>
      <trkpt lat="37.750137000" lon="-1.902204500">
        <ele>671.000000</ele>
        <time>2014-03-29T15:14:20Z</time>
      </trkpt>
      <trkpt lat="37.750170400" lon="-1.902063300">
        <ele>671.000000</ele>
        <time>2014-03-29T15:14:21Z</time>
      </trkpt>
      <trkpt lat="37.750205300" lon="-1.901923700">
        <ele>670.000000</ele>
        <time>2014-03-29T15:14:22Z</time>
      </trkpt>
      <trkpt lat="37.750242800" lon="-1.901788700">
        <ele>670.000000</ele>
        <time>2014-03-29T15:14:23Z</time>
      </trkpt>
      <trkpt lat="37.750278900" lon="-1.901656200">
        <ele>670.000000</ele>
        <time>2014-03-29T15:14:24Z</time>
      </trkpt>
      <trkpt lat="37.750311900" lon="-1.901525900">
        <ele>670.000000</ele>
        <time>2014-03-29T15:14:25Z</time>
      </trkpt>
      <trkpt lat="37.750342400" lon="-1.901399700">
        <ele>670.000000</ele>
        <time>2014-03-29T15:14:26Z</time>
      </trkpt>
      <trkpt lat="37.750375000" lon="-1.901271900">
        <ele>669.000000</ele>
        <time>2014-03-29T15:14:27Z</time>
      </trkpt>
      <trkpt lat="37.750407100" lon="-1.901145400">
        <ele>669.000000</ele>
        <time>2014-03-29T15:14:28Z</time>
      </trkpt>
      <trkpt lat="37.750436500" lon="-1.901017900">
        <ele>669.000000</ele>
        <time>2014-03-29T15:14:29Z</time>
      </trkpt>
      <trkpt lat="37.750461700" lon="-1.900890800">
        <ele>669.000000</ele>
        <time>2014-03-29T15:14:30Z</time>
      </trkpt>
      <trkpt lat="37.750488300" lon="-1.900766700">
        <ele>669.000000</ele>
        <time>2014-03-29T15:14:31Z</time>
      </trkpt>
      <trkpt lat="37.750521100" lon="-1.900642300">
        <ele>668.000000</ele>
        <time>2014-03-29T15:14:32Z</time>
      </trkpt>
      <trkpt lat="37.750554400" lon="-1.900521800">
        <ele>668.000000</ele>
        <time>2014-03-29T15:14:33Z</time>
      </trkpt>
      <trkpt lat="37.750587300" lon="-1.900405500">
        <ele>668.000000</ele>
        <time>2014-03-29T15:14:34Z</time>
      </trkpt>
      <trkpt lat="37.750628100" lon="-1.900292000">
        <ele>668.000000</ele>
        <time>2014-03-29T15:14:35Z</time>
      </trkpt>
      <trkpt lat="37.750677600" lon="-1.900185700">
        <ele>667.000000</ele>
        <time>2014-03-29T15:14:36Z</time>
      </trkpt>
      <trkpt lat="37.750730800" lon="-1.900088000">
        <ele>667.000000</ele>
        <time>2014-03-29T15:14:37Z</time>
      </trkpt>
      <trkpt lat="37.750788500" lon="-1.900000800">
        <ele>667.000000</ele>
        <time>2014-03-29T15:14:38Z</time>
      </trkpt>
      <trkpt lat="37.750852000" lon="-1.899914800">
        <ele>666.000000</ele>
        <time>2014-03-29T15:14:39Z</time>
      </trkpt>
      <trkpt lat="37.750913800" lon="-1.899829000">
        <ele>666.000000</ele>
        <time>2014-03-29T15:14:40Z</time>
      </trkpt>
      <trkpt lat="37.750975200" lon="-1.899749400">
        <ele>666.000000</ele>
        <time>2014-03-29T15:14:41Z</time>
      </trkpt>
      <trkpt lat="37.751038500" lon="-1.899667900">
        <ele>665.000000</ele>
        <time>2014-03-29T15:14:42Z</time>
      </trkpt>
      <trkpt lat="37.751101400" lon="-1.899585800">
        <ele>665.000000</ele>
        <time>2014-03-29T15:14:43Z</time>
      </trkpt>
      <trkpt lat="37.751160300" lon="-1.899501700">
        <ele>665.000000</ele>
        <time>2014-03-29T15:14:44Z</time>
      </trkpt>
      <trkpt lat="37.751221500" lon="-1.899417700">
        <ele>665.000000</ele>
        <time>2014-03-29T15:14:45Z</time>
      </trkpt>
      <trkpt lat="37.751283700" lon="-1.899332100">
        <ele>665.000000</ele>
        <time>2014-03-29T15:14:46Z</time>
      </trkpt>
      <trkpt lat="37.751344000" lon="-1.899244100">
        <ele>665.000000</ele>
        <time>2014-03-29T15:14:47Z</time>
      </trkpt>
      <trkpt lat="37.751407800" lon="-1.899153600">
        <ele>665.000000</ele>
        <time>2014-03-29T15:14:48Z</time>
      </trkpt>
      <trkpt lat="37.751470300" lon="-1.899062000">
        <ele>665.000000</ele>
        <time>2014-03-29T15:14:49Z</time>
      </trkpt>
      <trkpt lat="37.751535100" lon="-1.898969100">
        <ele>665.000000</ele>
        <time>2014-03-29T15:14:50Z</time>
      </trkpt>
      <trkpt lat="37.751598200" lon="-1.898873800">
        <ele>665.000000</ele>
        <time>2014-03-29T15:14:51Z</time>
      </trkpt>
      <trkpt lat="37.751663400" lon="-1.898777300">
        <ele>665.000000</ele>
        <time>2014-03-29T15:14:52Z</time>
      </trkpt>
      <trkpt lat="37.751727600" lon="-1.898677100">
        <ele>665.000000</ele>
        <time>2014-03-29T15:14:53Z</time>
      </trkpt>
      <trkpt lat="37.751787200" lon="-1.898571700">
        <ele>666.000000</ele>
        <time>2014-03-29T15:14:54Z</time>
      </trkpt>
      <trkpt lat="37.751839900" lon="-1.898459300">
        <ele>666.000000</ele>
        <time>2014-03-29T15:14:55Z</time>
      </trkpt>
      <trkpt lat="37.751889300" lon="-1.898343100">
        <ele>666.000000</ele>
        <time>2014-03-29T15:14:56Z</time>
      </trkpt>
      <trkpt lat="37.751935500" lon="-1.898220800">
        <ele>666.000000</ele>
        <time>2014-03-29T15:14:57Z</time>
      </trkpt>
      <trkpt lat="37.751972800" lon="-1.898093700">
        <ele>667.000000</ele>
        <time>2014-03-29T15:14:58Z</time>
      </trkpt>
      <trkpt lat="37.752011200" lon="-1.897965800">
        <ele>667.000000</ele>
        <time>2014-03-29T15:14:59Z</time>
      </trkpt>
      <trkpt lat="37.752046200" lon="-1.897835000">
        <ele>667.000000</ele>
        <time>2014-03-29T15:15:00Z</time>
      </trkpt>
      <trkpt lat="37.752085800" lon="-1.897700500">
        <ele>667.000000</ele>
        <time>2014-03-29T15:15:01Z</time>
      </trkpt>
      <trkpt lat="37.752125300" lon="-1.897564600">
        <ele>667.000000</ele>
        <time>2014-03-29T15:15:02Z</time>
      </trkpt>
      <trkpt lat="37.752164500" lon="-1.897430000">
        <ele>667.000000</ele>
        <time>2014-03-29T15:15:03Z</time>
      </trkpt>
      <trkpt lat="37.752204800" lon="-1.897292100">
        <ele>667.000000</ele>
        <time>2014-03-29T15:15:04Z</time>
      </trkpt>
      <trkpt lat="37.752245200" lon="-1.897154100">
        <ele>668.000000</ele>
        <time>2014-03-29T15:15:05Z</time>
      </trkpt>
      <trkpt lat="37.752284900" lon="-1.897012700">
        <ele>668.000000</ele>
        <time>2014-03-29T15:15:06Z</time>
      </trkpt>
      <trkpt lat="37.752324000" lon="-1.896867400">
        <ele>668.000000</ele>
        <time>2014-03-29T15:15:07Z</time>
      </trkpt>
      <trkpt lat="37.752364500" lon="-1.896722600">
        <ele>668.000000</ele>
        <time>2014-03-29T15:15:08Z</time>
      </trkpt>
      <trkpt lat="37.752402700" lon="-1.896573600">
        <ele>667.000000</ele>
        <time>2014-03-29T15:15:09Z</time>
      </trkpt>
      <trkpt lat="37.752543500" lon="-1.896133700">
        <ele>667.000000</ele>
        <time>2014-03-29T15:15:12Z</time>
      </trkpt>
      <trkpt lat="37.752543500" lon="-1.896133700">
        <ele>667.000000</ele>
        <time>2014-03-29T15:15:13Z</time>
      </trkpt>
      <trkpt lat="37.752608900" lon="-1.895992400">
        <ele>666.000000</ele>
        <time>2014-03-29T15:15:14Z</time>
      </trkpt>
      <trkpt lat="37.752685100" lon="-1.895857400">
        <ele>666.000000</ele>
        <time>2014-03-29T15:15:15Z</time>
      </trkpt>
      <trkpt lat="37.752764900" lon="-1.895731200">
        <ele>666.000000</ele>
        <time>2014-03-29T15:15:16Z</time>
      </trkpt>
      <trkpt lat="37.752850100" lon="-1.895607300">
        <ele>665.000000</ele>
        <time>2014-03-29T15:15:17Z</time>
      </trkpt>
      <trkpt lat="37.752936700" lon="-1.895488200">
        <ele>665.000000</ele>
        <time>2014-03-29T15:15:18Z</time>
      </trkpt>
      <trkpt lat="37.753024800" lon="-1.895371000">
        <ele>665.000000</ele>
        <time>2014-03-29T15:15:19Z</time>
      </trkpt>
      <trkpt lat="37.753116200" lon="-1.895255000">
        <ele>664.000000</ele>
        <time>2014-03-29T15:15:20Z</time>
      </trkpt>
      <trkpt lat="37.753210000" lon="-1.895144400">
        <ele>664.000000</ele>
        <time>2014-03-29T15:15:21Z</time>
      </trkpt>
      <trkpt lat="37.753306500" lon="-1.895040400">
        <ele>663.000000</ele>
        <time>2014-03-29T15:15:22Z</time>
      </trkpt>
      <trkpt lat="37.753403400" lon="-1.894939200">
        <ele>663.000000</ele>
        <time>2014-03-29T15:15:23Z</time>
      </trkpt>
      <trkpt lat="37.753497200" lon="-1.894837200">
        <ele>662.000000</ele>
        <time>2014-03-29T15:15:24Z</time>
      </trkpt>
      <trkpt lat="37.753592400" lon="-1.894733200">
        <ele>662.000000</ele>
        <time>2014-03-29T15:15:25Z</time>
      </trkpt>
      <trkpt lat="37.753687900" lon="-1.894633000">
        <ele>661.000000</ele>
        <time>2014-03-29T15:15:26Z</time>
      </trkpt>
      <trkpt lat="37.753785600" lon="-1.894535000">
        <ele>661.000000</ele>
        <time>2014-03-29T15:15:27Z</time>
      </trkpt>
      <trkpt lat="37.753882200" lon="-1.894437200">
        <ele>660.000000</ele>
        <time>2014-03-29T15:15:28Z</time>
      </trkpt>
      <trkpt lat="37.753978000" lon="-1.894337700">
        <ele>660.000000</ele>
        <time>2014-03-29T15:15:29Z</time>
      </trkpt>
      <trkpt lat="37.754076600" lon="-1.894241700">
        <ele>660.000000</ele>
        <time>2014-03-29T15:15:30Z</time>
      </trkpt>
      <trkpt lat="37.754177600" lon="-1.894151400">
        <ele>659.000000</ele>
        <time>2014-03-29T15:15:31Z</time>
      </trkpt>
      <trkpt lat="37.754285100" lon="-1.894074900">
        <ele>659.000000</ele>
        <time>2014-03-29T15:15:32Z</time>
      </trkpt>
      <trkpt lat="37.754396200" lon="-1.894011500">
        <ele>659.000000</ele>
        <time>2014-03-29T15:15:33Z</time>
      </trkpt>
      <trkpt lat="37.754512000" lon="-1.893955100">
        <ele>659.000000</ele>
        <time>2014-03-29T15:15:34Z</time>
      </trkpt>
      <trkpt lat="37.754622700" lon="-1.893897900">
        <ele>658.000000</ele>
        <time>2014-03-29T15:15:35Z</time>
      </trkpt>
      <trkpt lat="37.754737400" lon="-1.893848500">
        <ele>658.000000</ele>
        <time>2014-03-29T15:15:36Z</time>
      </trkpt>
      <trkpt lat="37.754854400" lon="-1.893808700">
        <ele>658.000000</ele>
        <time>2014-03-29T15:15:37Z</time>
      </trkpt>
      <trkpt lat="37.754970600" lon="-1.893773600">
        <ele>657.000000</ele>
        <time>2014-03-29T15:15:38Z</time>
      </trkpt>
      <trkpt lat="37.755094100" lon="-1.893744900">
        <ele>657.000000</ele>
        <time>2014-03-29T15:15:39Z</time>
      </trkpt>
      <trkpt lat="37.755213800" lon="-1.893719200">
        <ele>657.000000</ele>
        <time>2014-03-29T15:15:40Z</time>
      </trkpt>
      <trkpt lat="37.755337800" lon="-1.893692900">
        <ele>656.000000</ele>
        <time>2014-03-29T15:15:41Z</time>
      </trkpt>
      <trkpt lat="37.755466800" lon="-1.893667000">
        <ele>656.000000</ele>
        <time>2014-03-29T15:15:42Z</time>
      </trkpt>
      <trkpt lat="37.755590600" lon="-1.893642000">
        <ele>656.000000</ele>
        <time>2014-03-29T15:15:43Z</time>
      </trkpt>
      <trkpt lat="37.755718500" lon="-1.893614300">
        <ele>655.000000</ele>
        <time>2014-03-29T15:15:44Z</time>
      </trkpt>
      <trkpt lat="37.755850300" lon="-1.893584600">
        <ele>655.000000</ele>
        <time>2014-03-29T15:15:45Z</time>
      </trkpt>
      <trkpt lat="37.755982800" lon="-1.893553600">
        <ele>655.000000</ele>
        <time>2014-03-29T15:15:46Z</time>
      </trkpt>
      <trkpt lat="37.756113900" lon="-1.893523700">
        <ele>654.000000</ele>
        <time>2014-03-29T15:15:47Z</time>
      </trkpt>
      <trkpt lat="37.756246000" lon="-1.893493100">
        <ele>654.000000</ele>
        <time>2014-03-29T15:15:48Z</time>
      </trkpt>
      <trkpt lat="37.756378500" lon="-1.893458300">
        <ele>654.000000</ele>
        <time>2014-03-29T15:15:49Z</time>
      </trkpt>
      <trkpt lat="37.756509200" lon="-1.893414300">
        <ele>653.000000</ele>
        <time>2014-03-29T15:15:50Z</time>
      </trkpt>
      <trkpt lat="37.756637600" lon="-1.893360400">
        <ele>653.000000</ele>
        <time>2014-03-29T15:15:51Z</time>
      </trkpt>
      <trkpt lat="37.756768700" lon="-1.893302000">
        <ele>653.000000</ele>
        <time>2014-03-29T15:15:52Z</time>
      </trkpt>
      <trkpt lat="37.756901500" lon="-1.893243100">
        <ele>652.000000</ele>
        <time>2014-03-29T15:15:53Z</time>
      </trkpt>
      <trkpt lat="37.757031600" lon="-1.893182700">
        <ele>652.000000</ele>
        <time>2014-03-29T15:15:54Z</time>
      </trkpt>
      <trkpt lat="37.757161000" lon="-1.893121100">
        <ele>652.000000</ele>
        <time>2014-03-29T15:15:55Z</time>
      </trkpt>
      <trkpt lat="37.757292500" lon="-1.893057700">
        <ele>651.000000</ele>
        <time>2014-03-29T15:15:56Z</time>
      </trkpt>
      <trkpt lat="37.757427400" lon="-1.892995800">
        <ele>651.000000</ele>
        <time>2014-03-29T15:15:57Z</time>
      </trkpt>
      <trkpt lat="37.757558000" lon="-1.892939800">
        <ele>651.000000</ele>
        <time>2014-03-29T15:15:58Z</time>
      </trkpt>
      <trkpt lat="37.757687200" lon="-1.892883100">
        <ele>650.000000</ele>
        <time>2014-03-29T15:15:59Z</time>
      </trkpt>
      <trkpt lat="37.757815000" lon="-1.892824400">
        <ele>650.000000</ele>
        <time>2014-03-29T15:16:00Z</time>
      </trkpt>
      <trkpt lat="37.757940500" lon="-1.892764200">
        <ele>649.000000</ele>
        <time>2014-03-29T15:16:01Z</time>
      </trkpt>
      <trkpt lat="37.758064400" lon="-1.892704300">
        <ele>649.000000</ele>
        <time>2014-03-29T15:16:02Z</time>
      </trkpt>
      <trkpt lat="37.758188300" lon="-1.892642700">
        <ele>648.000000</ele>
        <time>2014-03-29T15:16:03Z</time>
      </trkpt>
      <trkpt lat="37.758309600" lon="-1.892579300">
        <ele>648.000000</ele>
        <time>2014-03-29T15:16:04Z</time>
      </trkpt>
      <trkpt lat="37.758429700" lon="-1.892513200">
        <ele>648.000000</ele>
        <time>2014-03-29T15:16:05Z</time>
      </trkpt>
      <trkpt lat="37.758547400" lon="-1.892444900">
        <ele>647.000000</ele>
        <time>2014-03-29T15:16:06Z</time>
      </trkpt>
      <trkpt lat="37.758658900" lon="-1.892374500">
        <ele>647.000000</ele>
        <time>2014-03-29T15:16:07Z</time>
      </trkpt>
      <trkpt lat="37.758766900" lon="-1.892298200">
        <ele>647.000000</ele>
        <time>2014-03-29T15:16:08Z</time>
      </trkpt>
      <trkpt lat="37.758873400" lon="-1.892218200">
        <ele>647.000000</ele>
        <time>2014-03-29T15:16:09Z</time>
      </trkpt>
      <trkpt lat="37.758979100" lon="-1.892137900">
        <ele>646.000000</ele>
        <time>2014-03-29T15:16:10Z</time>
      </trkpt>
      <trkpt lat="37.759080700" lon="-1.892056000">
        <ele>646.000000</ele>
        <time>2014-03-29T15:16:11Z</time>
      </trkpt>
      <trkpt lat="37.759180800" lon="-1.891972400">
        <ele>646.000000</ele>
        <time>2014-03-29T15:16:12Z</time>
      </trkpt>
      <trkpt lat="37.759279400" lon="-1.891887200">
        <ele>646.000000</ele>
        <time>2014-03-29T15:16:13Z</time>
      </trkpt>
      <trkpt lat="37.759375700" lon="-1.891801600">
        <ele>646.000000</ele>
        <time>2014-03-29T15:16:14Z</time>
      </trkpt>
      <trkpt lat="37.759468700" lon="-1.891715900">
        <ele>646.000000</ele>
        <time>2014-03-29T15:16:15Z</time>
      </trkpt>
      <trkpt lat="37.759559000" lon="-1.891633100">
        <ele>646.000000</ele>
        <time>2014-03-29T15:16:16Z</time>
      </trkpt>
      <trkpt lat="37.759650500" lon="-1.891547300">
        <ele>646.000000</ele>
        <time>2014-03-29T15:16:17Z</time>
      </trkpt>
      <trkpt lat="37.759737400" lon="-1.891457500">
        <ele>646.000000</ele>
        <time>2014-03-29T15:16:18Z</time>
      </trkpt>
      <trkpt lat="37.759820800" lon="-1.891367200">
        <ele>646.000000</ele>
        <time>2014-03-29T15:16:19Z</time>
      </trkpt>
      <trkpt lat="37.759905800" lon="-1.891274300">
        <ele>646.000000</ele>
        <time>2014-03-29T15:16:20Z</time>
      </trkpt>
      <trkpt lat="37.759985600" lon="-1.891179700">
        <ele>646.000000</ele>
        <time>2014-03-29T15:16:21Z</time>
      </trkpt>
      <trkpt lat="37.760066200" lon="-1.891085300">
        <ele>646.000000</ele>
        <time>2014-03-29T15:16:22Z</time>
      </trkpt>
      <trkpt lat="37.760146900" lon="-1.890990600">
        <ele>646.000000</ele>
        <time>2014-03-29T15:16:23Z</time>
      </trkpt>
      <trkpt lat="37.760225500" lon="-1.890903200">
        <ele>645.000000</ele>
        <time>2014-03-29T15:16:24Z</time>
      </trkpt>
      <trkpt lat="37.760310300" lon="-1.890824300">
        <ele>645.000000</ele>
        <time>2014-03-29T15:16:25Z</time>
      </trkpt>
      <trkpt lat="37.760402000" lon="-1.890751500">
        <ele>645.000000</ele>
        <time>2014-03-29T15:16:26Z</time>
      </trkpt>
      <trkpt lat="37.760495500" lon="-1.890685900">
        <ele>645.000000</ele>
        <time>2014-03-29T15:16:27Z</time>
      </trkpt>
      <trkpt lat="37.760601000" lon="-1.890629200">
        <ele>645.000000</ele>
        <time>2014-03-29T15:16:28Z</time>
      </trkpt>
      <trkpt lat="37.760713900" lon="-1.890573900">
        <ele>645.000000</ele>
        <time>2014-03-29T15:16:29Z</time>
      </trkpt>
      <trkpt lat="37.760828200" lon="-1.890515000">
        <ele>645.000000</ele>
        <time>2014-03-29T15:16:30Z</time>
      </trkpt>
      <trkpt lat="37.760942700" lon="-1.890455700">
        <ele>644.000000</ele>
        <time>2014-03-29T15:16:31Z</time>
      </trkpt>
      <trkpt lat="37.761058500" lon="-1.890394300">
        <ele>644.000000</ele>
        <time>2014-03-29T15:16:32Z</time>
      </trkpt>
      <trkpt lat="37.761174400" lon="-1.890334200">
        <ele>644.000000</ele>
        <time>2014-03-29T15:16:33Z</time>
      </trkpt>
      <trkpt lat="37.761289900" lon="-1.890275100">
        <ele>644.000000</ele>
        <time>2014-03-29T15:16:34Z</time>
      </trkpt>
      <trkpt lat="37.761405800" lon="-1.890216600">
        <ele>643.000000</ele>
        <time>2014-03-29T15:16:35Z</time>
      </trkpt>
      <trkpt lat="37.761524000" lon="-1.890158100">
        <ele>643.000000</ele>
        <time>2014-03-29T15:16:36Z</time>
      </trkpt>
      <trkpt lat="37.761645800" lon="-1.890100000">
        <ele>643.000000</ele>
        <time>2014-03-29T15:16:37Z</time>
      </trkpt>
      <trkpt lat="37.761771900" lon="-1.890043900">
        <ele>643.000000</ele>
        <time>2014-03-29T15:16:38Z</time>
      </trkpt>
      <trkpt lat="37.761893300" lon="-1.889990600">
        <ele>642.000000</ele>
        <time>2014-03-29T15:16:39Z</time>
      </trkpt>
      <trkpt lat="37.762018700" lon="-1.889943800">
        <ele>642.000000</ele>
        <time>2014-03-29T15:16:40Z</time>
      </trkpt>
      <trkpt lat="37.762152500" lon="-1.889912100">
        <ele>641.000000</ele>
        <time>2014-03-29T15:16:41Z</time>
      </trkpt>
      <trkpt lat="37.762292500" lon="-1.889906900">
        <ele>641.000000</ele>
        <time>2014-03-29T15:16:42Z</time>
      </trkpt>
      <trkpt lat="37.762426200" lon="-1.889938400">
        <ele>640.000000</ele>
        <time>2014-03-29T15:16:43Z</time>
      </trkpt>
      <trkpt lat="37.762543100" lon="-1.890014300">
        <ele>640.000000</ele>
        <time>2014-03-29T15:16:44Z</time>
      </trkpt>
      <trkpt lat="37.762653500" lon="-1.890114100">
        <ele>639.000000</ele>
        <time>2014-03-29T15:16:45Z</time>
      </trkpt>
      <trkpt lat="37.762762100" lon="-1.890219700">
        <ele>639.000000</ele>
        <time>2014-03-29T15:16:46Z</time>
      </trkpt>
      <trkpt lat="37.762877600" lon="-1.890304700">
        <ele>638.000000</ele>
        <time>2014-03-29T15:16:47Z</time>
      </trkpt>
      <trkpt lat="37.763008000" lon="-1.890365000">
        <ele>638.000000</ele>
        <time>2014-03-29T15:16:48Z</time>
      </trkpt>
      <trkpt lat="37.763140000" lon="-1.890409900">
        <ele>637.000000</ele>
        <time>2014-03-29T15:16:49Z</time>
      </trkpt>
      <trkpt lat="37.763275800" lon="-1.890444400">
        <ele>637.000000</ele>
        <time>2014-03-29T15:16:50Z</time>
      </trkpt>
      <trkpt lat="37.763412300" lon="-1.890477900">
        <ele>636.000000</ele>
        <time>2014-03-29T15:16:51Z</time>
      </trkpt>
      <trkpt lat="37.763550300" lon="-1.890509900">
        <ele>636.000000</ele>
        <time>2014-03-29T15:16:52Z</time>
      </trkpt>
      <trkpt lat="37.763687800" lon="-1.890546400">
        <ele>635.000000</ele>
        <time>2014-03-29T15:16:53Z</time>
      </trkpt>
      <trkpt lat="37.763830400" lon="-1.890586100">
        <ele>635.000000</ele>
        <time>2014-03-29T15:16:54Z</time>
      </trkpt>
      <trkpt lat="37.763969000" lon="-1.890635300">
        <ele>635.000000</ele>
        <time>2014-03-29T15:16:55Z</time>
      </trkpt>
      <trkpt lat="37.764111200" lon="-1.890680000">
        <ele>634.000000</ele>
        <time>2014-03-29T15:16:56Z</time>
      </trkpt>
      <trkpt lat="37.764253300" lon="-1.890714200">
        <ele>634.000000</ele>
        <time>2014-03-29T15:16:57Z</time>
      </trkpt>
      <trkpt lat="37.764393500" lon="-1.890722000">
        <ele>633.000000</ele>
        <time>2014-03-29T15:16:58Z</time>
      </trkpt>
      <trkpt lat="37.764535100" lon="-1.890700500">
        <ele>633.000000</ele>
        <time>2014-03-29T15:16:59Z</time>
      </trkpt>
      <trkpt lat="37.764671300" lon="-1.890645200">
        <ele>633.000000</ele>
        <time>2014-03-29T15:17:00Z</time>
      </trkpt>
      <trkpt lat="37.764784800" lon="-1.890558800">
        <ele>632.000000</ele>
        <time>2014-03-29T15:17:01Z</time>
      </trkpt>
      <trkpt lat="37.764862800" lon="-1.890437600">
        <ele>632.000000</ele>
        <time>2014-03-29T15:17:02Z</time>
      </trkpt>
      <trkpt lat="37.764921300" lon="-1.890316800">
        <ele>632.000000</ele>
        <time>2014-03-29T15:17:03Z</time>
      </trkpt>
      <trkpt lat="37.764986400" lon="-1.890206300">
        <ele>631.000000</ele>
        <time>2014-03-29T15:17:04Z</time>
      </trkpt>
      <trkpt lat="37.765054600" lon="-1.890101000">
        <ele>631.000000</ele>
        <time>2014-03-29T15:17:05Z</time>
      </trkpt>
      <trkpt lat="37.765129300" lon="-1.890003700">
        <ele>631.000000</ele>
        <time>2014-03-29T15:17:06Z</time>
      </trkpt>
      <trkpt lat="37.765210500" lon="-1.889914300">
        <ele>631.000000</ele>
        <time>2014-03-29T15:17:07Z</time>
      </trkpt>
      <trkpt lat="37.765297000" lon="-1.889825100">
        <ele>631.000000</ele>
        <time>2014-03-29T15:17:08Z</time>
      </trkpt>
      <trkpt lat="37.765388500" lon="-1.889744500">
        <ele>631.000000</ele>
        <time>2014-03-29T15:17:09Z</time>
      </trkpt>
      <trkpt lat="37.765477800" lon="-1.889664800">
        <ele>630.000000</ele>
        <time>2014-03-29T15:17:10Z</time>
      </trkpt>
      <trkpt lat="37.765574600" lon="-1.889584800">
        <ele>630.000000</ele>
        <time>2014-03-29T15:17:11Z</time>
      </trkpt>
      <trkpt lat="37.765674300" lon="-1.889505200">
        <ele>630.000000</ele>
        <time>2014-03-29T15:17:12Z</time>
      </trkpt>
      <trkpt lat="37.765779000" lon="-1.889426100">
        <ele>630.000000</ele>
        <time>2014-03-29T15:17:13Z</time>
      </trkpt>
      <trkpt lat="37.765886100" lon="-1.889345900">
        <ele>630.000000</ele>
        <time>2014-03-29T15:17:14Z</time>
      </trkpt>
      <trkpt lat="37.765994000" lon="-1.889267200">
        <ele>630.000000</ele>
        <time>2014-03-29T15:17:15Z</time>
      </trkpt>
      <trkpt lat="37.766102200" lon="-1.889196600">
        <ele>630.000000</ele>
        <time>2014-03-29T15:17:16Z</time>
      </trkpt>
      <trkpt lat="37.766214500" lon="-1.889131600">
        <ele>630.000000</ele>
        <time>2014-03-29T15:17:17Z</time>
      </trkpt>
      <trkpt lat="37.766334600" lon="-1.889075700">
        <ele>630.000000</ele>
        <time>2014-03-29T15:17:18Z</time>
      </trkpt>
      <trkpt lat="37.766459700" lon="-1.889032800">
        <ele>630.000000</ele>
        <time>2014-03-29T15:17:19Z</time>
      </trkpt>
      <trkpt lat="37.766586200" lon="-1.888998600">
        <ele>630.000000</ele>
        <time>2014-03-29T15:17:20Z</time>
      </trkpt>
      <trkpt lat="37.766709500" lon="-1.888975200">
        <ele>630.000000</ele>
        <time>2014-03-29T15:17:21Z</time>
      </trkpt>
      <trkpt lat="37.766834500" lon="-1.888965200">
        <ele>630.000000</ele>
        <time>2014-03-29T15:17:22Z</time>
      </trkpt>
      <trkpt lat="37.766963800" lon="-1.888967000">
        <ele>630.000000</ele>
        <time>2014-03-29T15:17:23Z</time>
      </trkpt>
      <trkpt lat="37.767084500" lon="-1.888981700">
        <ele>630.000000</ele>
        <time>2014-03-29T15:17:24Z</time>
      </trkpt>
      <trkpt lat="37.767203000" lon="-1.889011300">
        <ele>630.000000</ele>
        <time>2014-03-29T15:17:25Z</time>
      </trkpt>
      <trkpt lat="37.767318900" lon="-1.889053700">
        <ele>630.000000</ele>
        <time>2014-03-29T15:17:26Z</time>
      </trkpt>
      <trkpt lat="37.767428100" lon="-1.889115900">
        <ele>630.000000</ele>
        <time>2014-03-29T15:17:27Z</time>
      </trkpt>
      <trkpt lat="37.767534500" lon="-1.889182000">
        <ele>630.000000</ele>
        <time>2014-03-29T15:17:28Z</time>
      </trkpt>
      <trkpt lat="37.767645300" lon="-1.889242300">
        <ele>630.000000</ele>
        <time>2014-03-29T15:17:29Z</time>
      </trkpt>
      <trkpt lat="37.767760900" lon="-1.889300600">
        <ele>630.000000</ele>
        <time>2014-03-29T15:17:30Z</time>
      </trkpt>
      <trkpt lat="37.767878400" lon="-1.889357200">
        <ele>630.000000</ele>
        <time>2014-03-29T15:17:31Z</time>
      </trkpt>
      <trkpt lat="37.768000300" lon="-1.889406400">
        <ele>630.000000</ele>
        <time>2014-03-29T15:17:32Z</time>
      </trkpt>
      <trkpt lat="37.768124900" lon="-1.889452900">
        <ele>630.000000</ele>
        <time>2014-03-29T15:17:33Z</time>
      </trkpt>
      <trkpt lat="37.768248900" lon="-1.889494200">
        <ele>630.000000</ele>
        <time>2014-03-29T15:17:34Z</time>
      </trkpt>
      <trkpt lat="37.768383600" lon="-1.889528500">
        <ele>630.000000</ele>
        <time>2014-03-29T15:17:35Z</time>
      </trkpt>
      <trkpt lat="37.768520500" lon="-1.889547200">
        <ele>630.000000</ele>
        <time>2014-03-29T15:17:36Z</time>
      </trkpt>
      <trkpt lat="37.768661100" lon="-1.889545800">
        <ele>630.000000</ele>
        <time>2014-03-29T15:17:37Z</time>
      </trkpt>
      <trkpt lat="37.768799900" lon="-1.889521100">
        <ele>630.000000</ele>
        <time>2014-03-29T15:17:38Z</time>
      </trkpt>
      <trkpt lat="37.768934800" lon="-1.889489400">
        <ele>630.000000</ele>
        <time>2014-03-29T15:17:39Z</time>
      </trkpt>
      <trkpt lat="37.769067900" lon="-1.889456900">
        <ele>630.000000</ele>
        <time>2014-03-29T15:17:40Z</time>
      </trkpt>
      <trkpt lat="37.769200200" lon="-1.889423200">
        <ele>630.000000</ele>
        <time>2014-03-29T15:17:41Z</time>
      </trkpt>
      <trkpt lat="37.769329800" lon="-1.889393300">
        <ele>630.000000</ele>
        <time>2014-03-29T15:17:42Z</time>
      </trkpt>
      <trkpt lat="37.769461200" lon="-1.889362200">
        <ele>630.000000</ele>
        <time>2014-03-29T15:17:43Z</time>
      </trkpt>
      <trkpt lat="37.769584900" lon="-1.889333300">
        <ele>630.000000</ele>
        <time>2014-03-29T15:17:44Z</time>
      </trkpt>
      <trkpt lat="37.769718800" lon="-1.889302700">
        <ele>630.000000</ele>
        <time>2014-03-29T15:17:45Z</time>
      </trkpt>
      <trkpt lat="37.769841200" lon="-1.889275400">
        <ele>630.000000</ele>
        <time>2014-03-29T15:17:46Z</time>
      </trkpt>
      <trkpt lat="37.769957200" lon="-1.889248000">
        <ele>630.000000</ele>
        <time>2014-03-29T15:17:47Z</time>
      </trkpt>
      <trkpt lat="37.770069400" lon="-1.889218200">
        <ele>630.000000</ele>
        <time>2014-03-29T15:17:48Z</time>
      </trkpt>
      <trkpt lat="37.770178600" lon="-1.889182000">
        <ele>630.000000</ele>
        <time>2014-03-29T15:17:49Z</time>
      </trkpt>
      <trkpt lat="37.770286000" lon="-1.889138100">
        <ele>630.000000</ele>
        <time>2014-03-29T15:17:50Z</time>
      </trkpt>
      <trkpt lat="37.770391500" lon="-1.889079500">
        <ele>630.000000</ele>
        <time>2014-03-29T15:17:51Z</time>
      </trkpt>
      <trkpt lat="37.770493000" lon="-1.889000700">
        <ele>630.000000</ele>
        <time>2014-03-29T15:17:52Z</time>
      </trkpt>
      <trkpt lat="37.770583300" lon="-1.888899300">
        <ele>629.000000</ele>
        <time>2014-03-29T15:17:53Z</time>
      </trkpt>
      <trkpt lat="37.770662100" lon="-1.888779400">
        <ele>629.000000</ele>
        <time>2014-03-29T15:17:54Z</time>
      </trkpt>
      <trkpt lat="37.770734400" lon="-1.888648700">
        <ele>629.000000</ele>
        <time>2014-03-29T15:17:55Z</time>
      </trkpt>
      <trkpt lat="37.770803600" lon="-1.888503900">
        <ele>629.000000</ele>
        <time>2014-03-29T15:17:56Z</time>
      </trkpt>
      <trkpt lat="37.770876500" lon="-1.888347500">
        <ele>628.000000</ele>
        <time>2014-03-29T15:17:57Z</time>
      </trkpt>
      <trkpt lat="37.770945800" lon="-1.888181600">
        <ele>628.000000</ele>
        <time>2014-03-29T15:17:58Z</time>
      </trkpt>
      <trkpt lat="37.771016500" lon="-1.888011000">
        <ele>627.000000</ele>
        <time>2014-03-29T15:17:59Z</time>
      </trkpt>
      <trkpt lat="37.771078400" lon="-1.887843200">
        <ele>627.000000</ele>
        <time>2014-03-29T15:18:00Z</time>
      </trkpt>
      <trkpt lat="37.771139600" lon="-1.887680500">
        <ele>626.000000</ele>
        <time>2014-03-29T15:18:01Z</time>
      </trkpt>
      <trkpt lat="37.771199400" lon="-1.887526800">
        <ele>625.000000</ele>
        <time>2014-03-29T15:18:02Z</time>
      </trkpt>
      <trkpt lat="37.771258400" lon="-1.887386600">
        <ele>624.000000</ele>
        <time>2014-03-29T15:18:03Z</time>
      </trkpt>
      <trkpt lat="37.771316900" lon="-1.887260300">
        <ele>623.000000</ele>
        <time>2014-03-29T15:18:04Z</time>
      </trkpt>
      <trkpt lat="37.771389600" lon="-1.887153100">
        <ele>622.000000</ele>
        <time>2014-03-29T15:18:05Z</time>
      </trkpt>
      <trkpt lat="37.771496800" lon="-1.887092800">
        <ele>620.000000</ele>
        <time>2014-03-29T15:18:06Z</time>
      </trkpt>
      <trkpt lat="37.771614700" lon="-1.887042400">
        <ele>619.000000</ele>
        <time>2014-03-29T15:18:07Z</time>
      </trkpt>
      <trkpt lat="37.771739900" lon="-1.887001900">
        <ele>618.000000</ele>
        <time>2014-03-29T15:18:08Z</time>
      </trkpt>
      <trkpt lat="37.771882600" lon="-1.886981300">
        <ele>616.000000</ele>
        <time>2014-03-29T15:18:09Z</time>
      </trkpt>
      <trkpt lat="37.772026000" lon="-1.886967600">
        <ele>615.000000</ele>
        <time>2014-03-29T15:18:10Z</time>
      </trkpt>
      <trkpt lat="37.772179500" lon="-1.886953600">
        <ele>613.000000</ele>
        <time>2014-03-29T15:18:11Z</time>
      </trkpt>
      <trkpt lat="37.772335400" lon="-1.886941700">
        <ele>612.000000</ele>
        <time>2014-03-29T15:18:12Z</time>
      </trkpt>
      <trkpt lat="37.772487700" lon="-1.886919500">
        <ele>610.000000</ele>
        <time>2014-03-29T15:18:13Z</time>
      </trkpt>
      <trkpt lat="37.772642000" lon="-1.886892000">
        <ele>609.000000</ele>
        <time>2014-03-29T15:18:14Z</time>
      </trkpt>
      <trkpt lat="37.772786600" lon="-1.886850400">
        <ele>608.000000</ele>
        <time>2014-03-29T15:18:15Z</time>
      </trkpt>
      <trkpt lat="37.772926000" lon="-1.886808800">
        <ele>606.000000</ele>
        <time>2014-03-29T15:18:16Z</time>
      </trkpt>
      <trkpt lat="37.773064800" lon="-1.886773200">
        <ele>605.000000</ele>
        <time>2014-03-29T15:18:17Z</time>
      </trkpt>
      <trkpt lat="37.773196900" lon="-1.886745500">
        <ele>604.000000</ele>
        <time>2014-03-29T15:18:18Z</time>
      </trkpt>
      <trkpt lat="37.773325700" lon="-1.886727000">
        <ele>604.000000</ele>
        <time>2014-03-29T15:18:19Z</time>
      </trkpt>
      <trkpt lat="37.773450500" lon="-1.886732700">
        <ele>603.000000</ele>
        <time>2014-03-29T15:18:20Z</time>
      </trkpt>
      <trkpt lat="37.773556200" lon="-1.886792600">
        <ele>602.000000</ele>
        <time>2014-03-29T15:18:21Z</time>
      </trkpt>
      <trkpt lat="37.773622400" lon="-1.886882900">
        <ele>601.000000</ele>
        <time>2014-03-29T15:18:22Z</time>
      </trkpt>
      <trkpt lat="37.773649800" lon="-1.887026100">
        <ele>601.000000</ele>
        <time>2014-03-29T15:18:23Z</time>
      </trkpt>
      <trkpt lat="37.773661000" lon="-1.887185700">
        <ele>600.000000</ele>
        <time>2014-03-29T15:18:24Z</time>
      </trkpt>
      <trkpt lat="37.773626700" lon="-1.887388300">
        <ele>600.000000</ele>
        <time>2014-03-29T15:18:25Z</time>
      </trkpt>
      <trkpt lat="37.773654400" lon="-1.887538000">
        <ele>599.000000</ele>
        <time>2014-03-29T15:18:26Z</time>
      </trkpt>
      <trkpt lat="37.773698800" lon="-1.887677600">
        <ele>599.000000</ele>
        <time>2014-03-29T15:18:27Z</time>
      </trkpt>
      <trkpt lat="37.773753600" lon="-1.887798500">
        <ele>598.000000</ele>
        <time>2014-03-29T15:18:28Z</time>
      </trkpt>
      <trkpt lat="37.773851500" lon="-1.887838900">
        <ele>598.000000</ele>
        <time>2014-03-29T15:18:29Z</time>
      </trkpt>
      <trkpt lat="37.773993800" lon="-1.887782400">
        <ele>598.000000</ele>
        <time>2014-03-29T15:18:30Z</time>
      </trkpt>
      <trkpt lat="37.774109800" lon="-1.887713000">
        <ele>597.000000</ele>
        <time>2014-03-29T15:18:31Z</time>
      </trkpt>
      <trkpt lat="37.774206300" lon="-1.887664700">
        <ele>597.000000</ele>
        <time>2014-03-29T15:18:32Z</time>
      </trkpt>
      <trkpt lat="37.774302100" lon="-1.887610900">
        <ele>597.000000</ele>
        <time>2014-03-29T15:18:33Z</time>
      </trkpt>
      <trkpt lat="37.774398700" lon="-1.887561900">
        <ele>597.000000</ele>
        <time>2014-03-29T15:18:34Z</time>
      </trkpt>
      <trkpt lat="37.774490400" lon="-1.887520500">
        <ele>597.000000</ele>
        <time>2014-03-29T15:18:35Z</time>
      </trkpt>
      <trkpt lat="37.774573700" lon="-1.887481800">
        <ele>597.000000</ele>
        <time>2014-03-29T15:18:36Z</time>
      </trkpt>
      <trkpt lat="37.774679600" lon="-1.887456200">
        <ele>597.000000</ele>
        <time>2014-03-29T15:18:37Z</time>
      </trkpt>
      <trkpt lat="37.774778000" lon="-1.887447800">
        <ele>597.000000</ele>
        <time>2014-03-29T15:18:38Z</time>
      </trkpt>
      <trkpt lat="37.774864100" lon="-1.887445400">
        <ele>597.000000</ele>
        <time>2014-03-29T15:18:39Z</time>
      </trkpt>
      <trkpt lat="37.774953800" lon="-1.887451900">
        <ele>597.000000</ele>
        <time>2014-03-29T15:18:40Z</time>
      </trkpt>
      <trkpt lat="37.775035600" lon="-1.887459500">
        <ele>597.000000</ele>
        <time>2014-03-29T15:18:41Z</time>
      </trkpt>
      <trkpt lat="37.775117400" lon="-1.887463600">
        <ele>598.000000</ele>
        <time>2014-03-29T15:18:42Z</time>
      </trkpt>
      <trkpt lat="37.775200600" lon="-1.887475800">
        <ele>598.000000</ele>
        <time>2014-03-29T15:18:43Z</time>
      </trkpt>
      <trkpt lat="37.775278300" lon="-1.887485000">
        <ele>599.000000</ele>
        <time>2014-03-29T15:18:44Z</time>
      </trkpt>
      <trkpt lat="37.775357500" lon="-1.887494600">
        <ele>599.000000</ele>
        <time>2014-03-29T15:18:45Z</time>
      </trkpt>
      <trkpt lat="37.775433700" lon="-1.887509700">
        <ele>600.000000</ele>
        <time>2014-03-29T15:18:46Z</time>
      </trkpt>
      <trkpt lat="37.775508400" lon="-1.887520100">
        <ele>601.000000</ele>
        <time>2014-03-29T15:18:47Z</time>
      </trkpt>
      <trkpt lat="37.775582400" lon="-1.887526700">
        <ele>601.000000</ele>
        <time>2014-03-29T15:18:48Z</time>
      </trkpt>
      <trkpt lat="37.775657100" lon="-1.887537300">
        <ele>602.000000</ele>
        <time>2014-03-29T15:18:49Z</time>
      </trkpt>
      <trkpt lat="37.775727100" lon="-1.887553600">
        <ele>603.000000</ele>
        <time>2014-03-29T15:18:50Z</time>
      </trkpt>
      <trkpt lat="37.775797600" lon="-1.887568500">
        <ele>603.000000</ele>
        <time>2014-03-29T15:18:51Z</time>
      </trkpt>
      <trkpt lat="37.775867200" lon="-1.887576100">
        <ele>604.000000</ele>
        <time>2014-03-29T15:18:52Z</time>
      </trkpt>
      <trkpt lat="37.775936100" lon="-1.887582800">
        <ele>605.000000</ele>
        <time>2014-03-29T15:18:53Z</time>
      </trkpt>
      <trkpt lat="37.776004500" lon="-1.887597200">
        <ele>605.000000</ele>
        <time>2014-03-29T15:18:54Z</time>
      </trkpt>
      <trkpt lat="37.776073600" lon="-1.887619600">
        <ele>606.000000</ele>
        <time>2014-03-29T15:18:55Z</time>
      </trkpt>
      <trkpt lat="37.776139600" lon="-1.887647800">
        <ele>607.000000</ele>
        <time>2014-03-29T15:18:56Z</time>
      </trkpt>
      <trkpt lat="37.776198100" lon="-1.887688600">
        <ele>608.000000</ele>
        <time>2014-03-29T15:18:57Z</time>
      </trkpt>
      <trkpt lat="37.776251500" lon="-1.887735400">
        <ele>608.000000</ele>
        <time>2014-03-29T15:18:58Z</time>
      </trkpt>
      <trkpt lat="37.776304800" lon="-1.887781400">
        <ele>609.000000</ele>
        <time>2014-03-29T15:18:59Z</time>
      </trkpt>
      <trkpt lat="37.776351200" lon="-1.887831500">
        <ele>609.000000</ele>
        <time>2014-03-29T15:19:00Z</time>
      </trkpt>
      <trkpt lat="37.776398300" lon="-1.887881100">
        <ele>610.000000</ele>
        <time>2014-03-29T15:19:01Z</time>
      </trkpt>
      <trkpt lat="37.776441300" lon="-1.887932300">
        <ele>610.000000</ele>
        <time>2014-03-29T15:19:02Z</time>
      </trkpt>
      <trkpt lat="37.776484100" lon="-1.887982800">
        <ele>611.000000</ele>
        <time>2014-03-29T15:19:03Z</time>
      </trkpt>
      <trkpt lat="37.776530600" lon="-1.888031400">
        <ele>611.000000</ele>
        <time>2014-03-29T15:19:04Z</time>
      </trkpt>
      <trkpt lat="37.776578500" lon="-1.888079400">
        <ele>612.000000</ele>
        <time>2014-03-29T15:19:05Z</time>
      </trkpt>
      <trkpt lat="37.776632700" lon="-1.888130500">
        <ele>612.000000</ele>
        <time>2014-03-29T15:19:06Z</time>
      </trkpt>
      <trkpt lat="37.776683600" lon="-1.888185800">
        <ele>613.000000</ele>
        <time>2014-03-29T15:19:07Z</time>
      </trkpt>
      <trkpt lat="37.776733500" lon="-1.888237800">
        <ele>613.000000</ele>
        <time>2014-03-29T15:19:08Z</time>
      </trkpt>
      <trkpt lat="37.776783600" lon="-1.888289800">
        <ele>613.000000</ele>
        <time>2014-03-29T15:19:09Z</time>
      </trkpt>
      <trkpt lat="37.776833100" lon="-1.888342100">
        <ele>614.000000</ele>
        <time>2014-03-29T15:19:10Z</time>
      </trkpt>
      <trkpt lat="37.776880000" lon="-1.888393700">
        <ele>614.000000</ele>
        <time>2014-03-29T15:19:11Z</time>
      </trkpt>
      <trkpt lat="37.776929100" lon="-1.888446800">
        <ele>615.000000</ele>
        <time>2014-03-29T15:19:12Z</time>
      </trkpt>
      <trkpt lat="37.776977200" lon="-1.888501300">
        <ele>615.000000</ele>
        <time>2014-03-29T15:19:13Z</time>
      </trkpt>
      <trkpt lat="37.777024200" lon="-1.888557800">
        <ele>616.000000</ele>
        <time>2014-03-29T15:19:14Z</time>
      </trkpt>
      <trkpt lat="37.777070100" lon="-1.888614900">
        <ele>616.000000</ele>
        <time>2014-03-29T15:19:15Z</time>
      </trkpt>
      <trkpt lat="37.777113900" lon="-1.888670700">
        <ele>616.000000</ele>
        <time>2014-03-29T15:19:16Z</time>
      </trkpt>
      <trkpt lat="37.777156000" lon="-1.888725200">
        <ele>617.000000</ele>
        <time>2014-03-29T15:19:17Z</time>
      </trkpt>
      <trkpt lat="37.777195900" lon="-1.888780900">
        <ele>617.000000</ele>
        <time>2014-03-29T15:19:18Z</time>
      </trkpt>
      <trkpt lat="37.777229900" lon="-1.888834300">
        <ele>618.000000</ele>
        <time>2014-03-29T15:19:19Z</time>
      </trkpt>
      <trkpt lat="37.777267000" lon="-1.888882400">
        <ele>618.000000</ele>
        <time>2014-03-29T15:19:20Z</time>
      </trkpt>
      <trkpt lat="37.777307700" lon="-1.888927100">
        <ele>619.000000</ele>
        <time>2014-03-29T15:19:21Z</time>
      </trkpt>
      <trkpt lat="37.777347000" lon="-1.888974000">
        <ele>619.000000</ele>
        <time>2014-03-29T15:19:22Z</time>
      </trkpt>
      <trkpt lat="37.777384900" lon="-1.889025800">
        <ele>619.000000</ele>
        <time>2014-03-29T15:19:23Z</time>
      </trkpt>
      <trkpt lat="37.777417100" lon="-1.889080100">
        <ele>620.000000</ele>
        <time>2014-03-29T15:19:24Z</time>
      </trkpt>
      <trkpt lat="37.777454400" lon="-1.889130200">
        <ele>620.000000</ele>
        <time>2014-03-29T15:19:25Z</time>
      </trkpt>
      <trkpt lat="37.777489900" lon="-1.889178900">
        <ele>621.000000</ele>
        <time>2014-03-29T15:19:26Z</time>
      </trkpt>
      <trkpt lat="37.777525700" lon="-1.889230100">
        <ele>621.000000</ele>
        <time>2014-03-29T15:19:27Z</time>
      </trkpt>
      <trkpt lat="37.777558500" lon="-1.889282500">
        <ele>621.000000</ele>
        <time>2014-03-29T15:19:28Z</time>
      </trkpt>
      <trkpt lat="37.777591100" lon="-1.889337000">
        <ele>622.000000</ele>
        <time>2014-03-29T15:19:29Z</time>
      </trkpt>
      <trkpt lat="37.777625700" lon="-1.889393500">
        <ele>622.000000</ele>
        <time>2014-03-29T15:19:30Z</time>
      </trkpt>
      <trkpt lat="37.777660900" lon="-1.889446400">
        <ele>623.000000</ele>
        <time>2014-03-29T15:19:31Z</time>
      </trkpt>
      <trkpt lat="37.777695900" lon="-1.889496000">
        <ele>623.000000</ele>
        <time>2014-03-29T15:19:32Z</time>
      </trkpt>
      <trkpt lat="37.777728700" lon="-1.889548700">
        <ele>624.000000</ele>
        <time>2014-03-29T15:19:33Z</time>
      </trkpt>
      <trkpt lat="37.777761800" lon="-1.889605700">
        <ele>624.000000</ele>
        <time>2014-03-29T15:19:34Z</time>
      </trkpt>
      <trkpt lat="37.777799200" lon="-1.889661400">
        <ele>625.000000</ele>
        <time>2014-03-29T15:19:35Z</time>
      </trkpt>
      <trkpt lat="37.777842100" lon="-1.889712200">
        <ele>625.000000</ele>
        <time>2014-03-29T15:19:36Z</time>
      </trkpt>
      <trkpt lat="37.777886600" lon="-1.889763100">
        <ele>625.000000</ele>
        <time>2014-03-29T15:19:37Z</time>
      </trkpt>
      <trkpt lat="37.777930900" lon="-1.889815100">
        <ele>626.000000</ele>
        <time>2014-03-29T15:19:38Z</time>
      </trkpt>
      <trkpt lat="37.777974700" lon="-1.889864500">
        <ele>626.000000</ele>
        <time>2014-03-29T15:19:39Z</time>
      </trkpt>
      <trkpt lat="37.778015800" lon="-1.889919900">
        <ele>627.000000</ele>
        <time>2014-03-29T15:19:40Z</time>
      </trkpt>
      <trkpt lat="37.778058500" lon="-1.889974500">
        <ele>627.000000</ele>
        <time>2014-03-29T15:19:41Z</time>
      </trkpt>
      <trkpt lat="37.778099800" lon="-1.890033400">
        <ele>628.000000</ele>
        <time>2014-03-29T15:19:42Z</time>
      </trkpt>
      <trkpt lat="37.778146400" lon="-1.890091600">
        <ele>628.000000</ele>
        <time>2014-03-29T15:19:43Z</time>
      </trkpt>
      <trkpt lat="37.778195200" lon="-1.890153100">
        <ele>629.000000</ele>
        <time>2014-03-29T15:19:44Z</time>
      </trkpt>
      <trkpt lat="37.778242400" lon="-1.890216500">
        <ele>629.000000</ele>
        <time>2014-03-29T15:19:45Z</time>
      </trkpt>
      <trkpt lat="37.778288800" lon="-1.890281000">
        <ele>630.000000</ele>
        <time>2014-03-29T15:19:46Z</time>
      </trkpt>
      <trkpt lat="37.778337900" lon="-1.890344700">
        <ele>630.000000</ele>
        <time>2014-03-29T15:19:47Z</time>
      </trkpt>
      <trkpt lat="37.778385600" lon="-1.890405900">
        <ele>630.000000</ele>
        <time>2014-03-29T15:19:48Z</time>
      </trkpt>
      <trkpt lat="37.778430700" lon="-1.890470900">
        <ele>631.000000</ele>
        <time>2014-03-29T15:19:49Z</time>
      </trkpt>
      <trkpt lat="37.778479200" lon="-1.890540500">
        <ele>631.000000</ele>
        <time>2014-03-29T15:19:50Z</time>
      </trkpt>
      <trkpt lat="37.778532400" lon="-1.890607700">
        <ele>631.000000</ele>
        <time>2014-03-29T15:19:51Z</time>
      </trkpt>
      <trkpt lat="37.778587100" lon="-1.890678500">
        <ele>632.000000</ele>
        <time>2014-03-29T15:19:52Z</time>
      </trkpt>
      <trkpt lat="37.778644600" lon="-1.890755400">
        <ele>632.000000</ele>
        <time>2014-03-29T15:19:53Z</time>
      </trkpt>
      <trkpt lat="37.778703500" lon="-1.890832700">
        <ele>632.000000</ele>
        <time>2014-03-29T15:19:54Z</time>
      </trkpt>
      <trkpt lat="37.778759600" lon="-1.890909800">
        <ele>632.000000</ele>
        <time>2014-03-29T15:19:55Z</time>
      </trkpt>
      <trkpt lat="37.778819500" lon="-1.890986100">
        <ele>633.000000</ele>
        <time>2014-03-29T15:19:56Z</time>
      </trkpt>
      <trkpt lat="37.778882800" lon="-1.891062000">
        <ele>633.000000</ele>
        <time>2014-03-29T15:19:57Z</time>
      </trkpt>
      <trkpt lat="37.778947100" lon="-1.891135600">
        <ele>633.000000</ele>
        <time>2014-03-29T15:19:58Z</time>
      </trkpt>
      <trkpt lat="37.779011500" lon="-1.891210600">
        <ele>633.000000</ele>
        <time>2014-03-29T15:19:59Z</time>
      </trkpt>
      <trkpt lat="37.779076800" lon="-1.891283900">
        <ele>634.000000</ele>
        <time>2014-03-29T15:20:00Z</time>
      </trkpt>
      <trkpt lat="37.779144700" lon="-1.891349600">
        <ele>634.000000</ele>
        <time>2014-03-29T15:20:01Z</time>
      </trkpt>
      <trkpt lat="37.779215100" lon="-1.891413200">
        <ele>634.000000</ele>
        <time>2014-03-29T15:20:02Z</time>
      </trkpt>
      <trkpt lat="37.779285200" lon="-1.891477700">
        <ele>634.000000</ele>
        <time>2014-03-29T15:20:03Z</time>
      </trkpt>
      <trkpt lat="37.779356600" lon="-1.891543400">
        <ele>634.000000</ele>
        <time>2014-03-29T15:20:04Z</time>
      </trkpt>
      <trkpt lat="37.779427800" lon="-1.891606700">
        <ele>635.000000</ele>
        <time>2014-03-29T15:20:05Z</time>
      </trkpt>
      <trkpt lat="37.779502600" lon="-1.891672000">
        <ele>635.000000</ele>
        <time>2014-03-29T15:20:06Z</time>
      </trkpt>
      <trkpt lat="37.779575700" lon="-1.891736200">
        <ele>635.000000</ele>
        <time>2014-03-29T15:20:07Z</time>
      </trkpt>
      <trkpt lat="37.779648800" lon="-1.891801400">
        <ele>635.000000</ele>
        <time>2014-03-29T15:20:08Z</time>
      </trkpt>
      <trkpt lat="37.779719600" lon="-1.891865100">
        <ele>636.000000</ele>
        <time>2014-03-29T15:20:09Z</time>
      </trkpt>
      <trkpt lat="37.779787800" lon="-1.891924200">
        <ele>636.000000</ele>
        <time>2014-03-29T15:20:10Z</time>
      </trkpt>
      <trkpt lat="37.779854000" lon="-1.891986000">
        <ele>636.000000</ele>
        <time>2014-03-29T15:20:11Z</time>
      </trkpt>
      <trkpt lat="37.779919300" lon="-1.892048700">
        <ele>636.000000</ele>
        <time>2014-03-29T15:20:12Z</time>
      </trkpt>
      <trkpt lat="37.779987200" lon="-1.892110900">
        <ele>636.000000</ele>
        <time>2014-03-29T15:20:13Z</time>
      </trkpt>
      <trkpt lat="37.780055400" lon="-1.892171400">
        <ele>636.000000</ele>
        <time>2014-03-29T15:20:14Z</time>
      </trkpt>
      <trkpt lat="37.780123300" lon="-1.892232100">
        <ele>636.000000</ele>
        <time>2014-03-29T15:20:15Z</time>
      </trkpt>
      <trkpt lat="37.780191600" lon="-1.892291800">
        <ele>637.000000</ele>
        <time>2014-03-29T15:20:16Z</time>
      </trkpt>
      <trkpt lat="37.780257500" lon="-1.892353100">
        <ele>637.000000</ele>
        <time>2014-03-29T15:20:17Z</time>
      </trkpt>
      <trkpt lat="37.780325300" lon="-1.892411400">
        <ele>637.000000</ele>
        <time>2014-03-29T15:20:18Z</time>
      </trkpt>
      <trkpt lat="37.780391500" lon="-1.892468500">
        <ele>637.000000</ele>
        <time>2014-03-29T15:20:19Z</time>
      </trkpt>
      <trkpt lat="37.780456600" lon="-1.892522500">
        <ele>637.000000</ele>
        <time>2014-03-29T15:20:20Z</time>
      </trkpt>
      <trkpt lat="37.780521700" lon="-1.892575400">
        <ele>637.000000</ele>
        <time>2014-03-29T15:20:21Z</time>
      </trkpt>
      <trkpt lat="37.780587200" lon="-1.892628000">
        <ele>637.000000</ele>
        <time>2014-03-29T15:20:22Z</time>
      </trkpt>
      <trkpt lat="37.780653400" lon="-1.892682700">
        <ele>637.000000</ele>
        <time>2014-03-29T15:20:23Z</time>
      </trkpt>
      <trkpt lat="37.780717300" lon="-1.892740200">
        <ele>637.000000</ele>
        <time>2014-03-29T15:20:24Z</time>
      </trkpt>
      <trkpt lat="37.780779600" lon="-1.892798500">
        <ele>637.000000</ele>
        <time>2014-03-29T15:20:25Z</time>
      </trkpt>
      <trkpt lat="37.780840400" lon="-1.892857100">
        <ele>637.000000</ele>
        <time>2014-03-29T15:20:26Z</time>
      </trkpt>
      <trkpt lat="37.780902500" lon="-1.892916900">
        <ele>637.000000</ele>
        <time>2014-03-29T15:20:27Z</time>
      </trkpt>
      <trkpt lat="37.780967100" lon="-1.892978100">
        <ele>638.000000</ele>
        <time>2014-03-29T15:20:28Z</time>
      </trkpt>
      <trkpt lat="37.781034300" lon="-1.893035500">
        <ele>638.000000</ele>
        <time>2014-03-29T15:20:29Z</time>
      </trkpt>
      <trkpt lat="37.781102100" lon="-1.893092500">
        <ele>638.000000</ele>
        <time>2014-03-29T15:20:30Z</time>
      </trkpt>
      <trkpt lat="37.781167300" lon="-1.893148900">
        <ele>638.000000</ele>
        <time>2014-03-29T15:20:31Z</time>
      </trkpt>
      <trkpt lat="37.781233200" lon="-1.893205300">
        <ele>638.000000</ele>
        <time>2014-03-29T15:20:32Z</time>
      </trkpt>
      <trkpt lat="37.781297500" lon="-1.893262200">
        <ele>639.000000</ele>
        <time>2014-03-29T15:20:33Z</time>
      </trkpt>
      <trkpt lat="37.781359900" lon="-1.893319000">
        <ele>639.000000</ele>
        <time>2014-03-29T15:20:34Z</time>
      </trkpt>
      <trkpt lat="37.781422700" lon="-1.893375300">
        <ele>639.000000</ele>
        <time>2014-03-29T15:20:35Z</time>
      </trkpt>
      <trkpt lat="37.781485500" lon="-1.893433300">
        <ele>639.000000</ele>
        <time>2014-03-29T15:20:36Z</time>
      </trkpt>
      <trkpt lat="37.781551400" lon="-1.893487600">
        <ele>640.000000</ele>
        <time>2014-03-29T15:20:37Z</time>
      </trkpt>
      <trkpt lat="37.781616100" lon="-1.893547500">
        <ele>640.000000</ele>
        <time>2014-03-29T15:20:38Z</time>
      </trkpt>
      <trkpt lat="37.781678800" lon="-1.893615300">
        <ele>640.000000</ele>
        <time>2014-03-29T15:20:39Z</time>
      </trkpt>
      <trkpt lat="37.781737300" lon="-1.893688500">
        <ele>640.000000</ele>
        <time>2014-03-29T15:20:40Z</time>
      </trkpt>
      <trkpt lat="37.781789900" lon="-1.893766500">
        <ele>641.000000</ele>
        <time>2014-03-29T15:20:41Z</time>
      </trkpt>
      <trkpt lat="37.781843500" lon="-1.893852700">
        <ele>641.000000</ele>
        <time>2014-03-29T15:20:42Z</time>
      </trkpt>
      <trkpt lat="37.781898900" lon="-1.893932900">
        <ele>641.000000</ele>
        <time>2014-03-29T15:20:43Z</time>
      </trkpt>
      <trkpt lat="37.781951000" lon="-1.894013400">
        <ele>641.000000</ele>
        <time>2014-03-29T15:20:44Z</time>
      </trkpt>
      <trkpt lat="37.781998900" lon="-1.894096100">
        <ele>641.000000</ele>
        <time>2014-03-29T15:20:45Z</time>
      </trkpt>
      <trkpt lat="37.782049400" lon="-1.894181800">
        <ele>642.000000</ele>
        <time>2014-03-29T15:20:46Z</time>
      </trkpt>
      <trkpt lat="37.782101000" lon="-1.894265400">
        <ele>642.000000</ele>
        <time>2014-03-29T15:20:47Z</time>
      </trkpt>
      <trkpt lat="37.782156100" lon="-1.894345400">
        <ele>642.000000</ele>
        <time>2014-03-29T15:20:48Z</time>
      </trkpt>
      <trkpt lat="37.782215600" lon="-1.894425000">
        <ele>642.000000</ele>
        <time>2014-03-29T15:20:49Z</time>
      </trkpt>
      <trkpt lat="37.782276300" lon="-1.894507000">
        <ele>642.000000</ele>
        <time>2014-03-29T15:20:50Z</time>
      </trkpt>
      <trkpt lat="37.782340100" lon="-1.894591300">
        <ele>642.000000</ele>
        <time>2014-03-29T15:20:51Z</time>
      </trkpt>
      <trkpt lat="37.782403500" lon="-1.894675800">
        <ele>643.000000</ele>
        <time>2014-03-29T15:20:52Z</time>
      </trkpt>
      <trkpt lat="37.782471500" lon="-1.894763700">
        <ele>643.000000</ele>
        <time>2014-03-29T15:20:53Z</time>
      </trkpt>
      <trkpt lat="37.782543600" lon="-1.894856100">
        <ele>643.000000</ele>
        <time>2014-03-29T15:20:54Z</time>
      </trkpt>
      <trkpt lat="37.782614700" lon="-1.894950900">
        <ele>643.000000</ele>
        <time>2014-03-29T15:20:55Z</time>
      </trkpt>
      <trkpt lat="37.782690200" lon="-1.895045100">
        <ele>643.000000</ele>
        <time>2014-03-29T15:20:56Z</time>
      </trkpt>
      <trkpt lat="37.782767600" lon="-1.895144500">
        <ele>644.000000</ele>
        <time>2014-03-29T15:20:57Z</time>
      </trkpt>
      <trkpt lat="37.782849900" lon="-1.895247800">
        <ele>644.000000</ele>
        <time>2014-03-29T15:20:58Z</time>
      </trkpt>
      <trkpt lat="37.782932600" lon="-1.895354800">
        <ele>644.000000</ele>
        <time>2014-03-29T15:20:59Z</time>
      </trkpt>
      <trkpt lat="37.783021200" lon="-1.895461500">
        <ele>644.000000</ele>
        <time>2014-03-29T15:21:00Z</time>
      </trkpt>
      <trkpt lat="37.783108100" lon="-1.895569400">
        <ele>644.000000</ele>
        <time>2014-03-29T15:21:01Z</time>
      </trkpt>
      <trkpt lat="37.783195900" lon="-1.895676100">
        <ele>645.000000</ele>
        <time>2014-03-29T15:21:02Z</time>
      </trkpt>
      <trkpt lat="37.783282700" lon="-1.895781500">
        <ele>645.000000</ele>
        <time>2014-03-29T15:21:03Z</time>
      </trkpt>
      <trkpt lat="37.783373500" lon="-1.895890300">
        <ele>645.000000</ele>
        <time>2014-03-29T15:21:04Z</time>
      </trkpt>
      <trkpt lat="37.783465400" lon="-1.895995500">
        <ele>645.000000</ele>
        <time>2014-03-29T15:21:05Z</time>
      </trkpt>
      <trkpt lat="37.783562600" lon="-1.896097400">
        <ele>645.000000</ele>
        <time>2014-03-29T15:21:06Z</time>
      </trkpt>
      <trkpt lat="37.783660500" lon="-1.896195900">
        <ele>645.000000</ele>
        <time>2014-03-29T15:21:07Z</time>
      </trkpt>
      <trkpt lat="37.783755600" lon="-1.896290400">
        <ele>645.000000</ele>
        <time>2014-03-29T15:21:08Z</time>
      </trkpt>
      <trkpt lat="37.783851900" lon="-1.896386800">
        <ele>645.000000</ele>
        <time>2014-03-29T15:21:09Z</time>
      </trkpt>
      <trkpt lat="37.783949900" lon="-1.896483900">
        <ele>645.000000</ele>
        <time>2014-03-29T15:21:10Z</time>
      </trkpt>
      <trkpt lat="37.784051000" lon="-1.896583700">
        <ele>646.000000</ele>
        <time>2014-03-29T15:21:11Z</time>
      </trkpt>
      <trkpt lat="37.784149800" lon="-1.896688000">
        <ele>646.000000</ele>
        <time>2014-03-29T15:21:12Z</time>
      </trkpt>
      <trkpt lat="37.784244200" lon="-1.896803500">
        <ele>646.000000</ele>
        <time>2014-03-29T15:21:13Z</time>
      </trkpt>
      <trkpt lat="37.784327400" lon="-1.896928800">
        <ele>646.000000</ele>
        <time>2014-03-29T15:21:14Z</time>
      </trkpt>
      <trkpt lat="37.784397600" lon="-1.897058600">
        <ele>646.000000</ele>
        <time>2014-03-29T15:21:15Z</time>
      </trkpt>
      <trkpt lat="37.784458700" lon="-1.897195200">
        <ele>646.000000</ele>
        <time>2014-03-29T15:21:16Z</time>
      </trkpt>
      <trkpt lat="37.784512400" lon="-1.897332900">
        <ele>646.000000</ele>
        <time>2014-03-29T15:21:17Z</time>
      </trkpt>
      <trkpt lat="37.784559700" lon="-1.897471200">
        <ele>647.000000</ele>
        <time>2014-03-29T15:21:18Z</time>
      </trkpt>
      <trkpt lat="37.784605000" lon="-1.897610600">
        <ele>647.000000</ele>
        <time>2014-03-29T15:21:19Z</time>
      </trkpt>
      <trkpt lat="37.784647400" lon="-1.897749300">
        <ele>647.000000</ele>
        <time>2014-03-29T15:21:20Z</time>
      </trkpt>
      <trkpt lat="37.784686500" lon="-1.897888000">
        <ele>647.000000</ele>
        <time>2014-03-29T15:21:21Z</time>
      </trkpt>
      <trkpt lat="37.784720200" lon="-1.898028100">
        <ele>647.000000</ele>
        <time>2014-03-29T15:21:22Z</time>
      </trkpt>
      <trkpt lat="37.784746300" lon="-1.898167300">
        <ele>647.000000</ele>
        <time>2014-03-29T15:21:23Z</time>
      </trkpt>
      <trkpt lat="37.784770800" lon="-1.898304500">
        <ele>647.000000</ele>
        <time>2014-03-29T15:21:24Z</time>
      </trkpt>
      <trkpt lat="37.784796900" lon="-1.898444300">
        <ele>648.000000</ele>
        <time>2014-03-29T15:21:25Z</time>
      </trkpt>
      <trkpt lat="37.784825100" lon="-1.898585800">
        <ele>648.000000</ele>
        <time>2014-03-29T15:21:26Z</time>
      </trkpt>
      <trkpt lat="37.784854300" lon="-1.898731700">
        <ele>648.000000</ele>
        <time>2014-03-29T15:21:27Z</time>
      </trkpt>
      <trkpt lat="37.784886300" lon="-1.898883400">
        <ele>647.000000</ele>
        <time>2014-03-29T15:21:28Z</time>
      </trkpt>
      <trkpt lat="37.784923200" lon="-1.899038400">
        <ele>647.000000</ele>
        <time>2014-03-29T15:21:29Z</time>
      </trkpt>
      <trkpt lat="37.784974600" lon="-1.899195500">
        <ele>647.000000</ele>
        <time>2014-03-29T15:21:30Z</time>
      </trkpt>
      <trkpt lat="37.785045200" lon="-1.899342300">
        <ele>647.000000</ele>
        <time>2014-03-29T15:21:31Z</time>
      </trkpt>
      <trkpt lat="37.785132200" lon="-1.899472200">
        <ele>646.000000</ele>
        <time>2014-03-29T15:21:32Z</time>
      </trkpt>
      <trkpt lat="37.785249000" lon="-1.899567000">
        <ele>646.000000</ele>
        <time>2014-03-29T15:21:33Z</time>
      </trkpt>
      <trkpt lat="37.785383800" lon="-1.899618100">
        <ele>646.000000</ele>
        <time>2014-03-29T15:21:34Z</time>
      </trkpt>
      <trkpt lat="37.785522500" lon="-1.899634300">
        <ele>645.000000</ele>
        <time>2014-03-29T15:21:35Z</time>
      </trkpt>
      <trkpt lat="37.785657500" lon="-1.899633200">
        <ele>645.000000</ele>
        <time>2014-03-29T15:21:36Z</time>
      </trkpt>
      <trkpt lat="37.785792500" lon="-1.899622000">
        <ele>644.000000</ele>
        <time>2014-03-29T15:21:37Z</time>
      </trkpt>
      <trkpt lat="37.785922300" lon="-1.899607600">
        <ele>644.000000</ele>
        <time>2014-03-29T15:21:38Z</time>
      </trkpt>
      <trkpt lat="37.786054100" lon="-1.899604500">
        <ele>644.000000</ele>
        <time>2014-03-29T15:21:39Z</time>
      </trkpt>
      <trkpt lat="37.786176100" lon="-1.899604400">
        <ele>643.000000</ele>
        <time>2014-03-29T15:21:40Z</time>
      </trkpt>
      <trkpt lat="37.786289900" lon="-1.899604500">
        <ele>643.000000</ele>
        <time>2014-03-29T15:21:41Z</time>
      </trkpt>
      <trkpt lat="37.786399000" lon="-1.899605300">
        <ele>643.000000</ele>
        <time>2014-03-29T15:21:42Z</time>
      </trkpt>
      <trkpt lat="37.786504900" lon="-1.899606700">
        <ele>643.000000</ele>
        <time>2014-03-29T15:21:43Z</time>
      </trkpt>
      <trkpt lat="37.786609100" lon="-1.899604700">
        <ele>642.000000</ele>
        <time>2014-03-29T15:21:44Z</time>
      </trkpt>
      <trkpt lat="37.786717000" lon="-1.899603500">
        <ele>642.000000</ele>
        <time>2014-03-29T15:21:45Z</time>
      </trkpt>
      <trkpt lat="37.786820000" lon="-1.899594700">
        <ele>642.000000</ele>
        <time>2014-03-29T15:21:46Z</time>
      </trkpt>
      <trkpt lat="37.786917400" lon="-1.899576700">
        <ele>642.000000</ele>
        <time>2014-03-29T15:21:47Z</time>
      </trkpt>
      <trkpt lat="37.787013500" lon="-1.899546500">
        <ele>643.000000</ele>
        <time>2014-03-29T15:21:48Z</time>
      </trkpt>
      <trkpt lat="37.787110200" lon="-1.899504000">
        <ele>643.000000</ele>
        <time>2014-03-29T15:21:49Z</time>
      </trkpt>
      <trkpt lat="37.787206400" lon="-1.899445800">
        <ele>643.000000</ele>
        <time>2014-03-29T15:21:50Z</time>
      </trkpt>
      <trkpt lat="37.787303300" lon="-1.899375700">
        <ele>643.000000</ele>
        <time>2014-03-29T15:21:51Z</time>
      </trkpt>
      <trkpt lat="37.787406900" lon="-1.899299400">
        <ele>644.000000</ele>
        <time>2014-03-29T15:21:52Z</time>
      </trkpt>
      <trkpt lat="37.787516800" lon="-1.899216800">
        <ele>644.000000</ele>
        <time>2014-03-29T15:21:53Z</time>
      </trkpt>
      <trkpt lat="37.787625700" lon="-1.899131400">
        <ele>644.000000</ele>
        <time>2014-03-29T15:21:54Z</time>
      </trkpt>
      <trkpt lat="37.787736800" lon="-1.899042600">
        <ele>644.000000</ele>
        <time>2014-03-29T15:21:55Z</time>
      </trkpt>
      <trkpt lat="37.787845200" lon="-1.898954800">
        <ele>644.000000</ele>
        <time>2014-03-29T15:21:56Z</time>
      </trkpt>
      <trkpt lat="37.787953600" lon="-1.898867200">
        <ele>644.000000</ele>
        <time>2014-03-29T15:21:57Z</time>
      </trkpt>
      <trkpt lat="37.788067800" lon="-1.898783000">
        <ele>644.000000</ele>
        <time>2014-03-29T15:21:58Z</time>
      </trkpt>
      <trkpt lat="37.788182100" lon="-1.898700800">
        <ele>644.000000</ele>
        <time>2014-03-29T15:21:59Z</time>
      </trkpt>
      <trkpt lat="37.788294900" lon="-1.898614500">
        <ele>644.000000</ele>
        <time>2014-03-29T15:22:00Z</time>
      </trkpt>
      <trkpt lat="37.788403800" lon="-1.898529300">
        <ele>643.000000</ele>
        <time>2014-03-29T15:22:01Z</time>
      </trkpt>
      <trkpt lat="37.788509400" lon="-1.898451000">
        <ele>643.000000</ele>
        <time>2014-03-29T15:22:02Z</time>
      </trkpt>
      <trkpt lat="37.788612700" lon="-1.898375500">
        <ele>642.000000</ele>
        <time>2014-03-29T15:22:03Z</time>
      </trkpt>
      <trkpt lat="37.788712000" lon="-1.898300600">
        <ele>642.000000</ele>
        <time>2014-03-29T15:22:04Z</time>
      </trkpt>
      <trkpt lat="37.788805700" lon="-1.898229800">
        <ele>642.000000</ele>
        <time>2014-03-29T15:22:05Z</time>
      </trkpt>
      <trkpt lat="37.788896700" lon="-1.898156900">
        <ele>641.000000</ele>
        <time>2014-03-29T15:22:06Z</time>
      </trkpt>
      <trkpt lat="37.788989000" lon="-1.898086600">
        <ele>641.000000</ele>
        <time>2014-03-29T15:22:07Z</time>
      </trkpt>
      <trkpt lat="37.789080000" lon="-1.898017800">
        <ele>640.000000</ele>
        <time>2014-03-29T15:22:08Z</time>
      </trkpt>
      <trkpt lat="37.789171200" lon="-1.897949800">
        <ele>640.000000</ele>
        <time>2014-03-29T15:22:09Z</time>
      </trkpt>
      <trkpt lat="37.789261100" lon="-1.897882600">
        <ele>639.000000</ele>
        <time>2014-03-29T15:22:10Z</time>
      </trkpt>
      <trkpt lat="37.789350500" lon="-1.897815500">
        <ele>639.000000</ele>
        <time>2014-03-29T15:22:11Z</time>
      </trkpt>
      <trkpt lat="37.789439400" lon="-1.897748000">
        <ele>639.000000</ele>
        <time>2014-03-29T15:22:12Z</time>
      </trkpt>
      <trkpt lat="37.789528300" lon="-1.897680900">
        <ele>639.000000</ele>
        <time>2014-03-29T15:22:13Z</time>
      </trkpt>
      <trkpt lat="37.789616600" lon="-1.897614400">
        <ele>638.000000</ele>
        <time>2014-03-29T15:22:14Z</time>
      </trkpt>
      <trkpt lat="37.789703400" lon="-1.897547700">
        <ele>638.000000</ele>
        <time>2014-03-29T15:22:15Z</time>
      </trkpt>
      <trkpt lat="37.789790200" lon="-1.897479700">
        <ele>638.000000</ele>
        <time>2014-03-29T15:22:16Z</time>
      </trkpt>
      <trkpt lat="37.789879300" lon="-1.897410500">
        <ele>638.000000</ele>
        <time>2014-03-29T15:22:17Z</time>
      </trkpt>
      <trkpt lat="37.789965800" lon="-1.897332400">
        <ele>638.000000</ele>
        <time>2014-03-29T15:22:18Z</time>
      </trkpt>
      <trkpt lat="37.790043000" lon="-1.897236100">
        <ele>638.000000</ele>
        <time>2014-03-29T15:22:19Z</time>
      </trkpt>
      <trkpt lat="37.790099100" lon="-1.897114800">
        <ele>638.000000</ele>
        <time>2014-03-29T15:22:20Z</time>
      </trkpt>
      <trkpt lat="37.790120200" lon="-1.896977000">
        <ele>638.000000</ele>
        <time>2014-03-29T15:22:21Z</time>
      </trkpt>
      <trkpt lat="37.790111400" lon="-1.896827600">
        <ele>638.000000</ele>
        <time>2014-03-29T15:22:22Z</time>
      </trkpt>
      <trkpt lat="37.790081600" lon="-1.896679400">
        <ele>638.000000</ele>
        <time>2014-03-29T15:22:23Z</time>
      </trkpt>
      <trkpt lat="37.790053100" lon="-1.896530800">
        <ele>638.000000</ele>
        <time>2014-03-29T15:22:24Z</time>
      </trkpt>
      <trkpt lat="37.790043500" lon="-1.896384300">
        <ele>638.000000</ele>
        <time>2014-03-29T15:22:25Z</time>
      </trkpt>
      <trkpt lat="37.790054700" lon="-1.896239800">
        <ele>638.000000</ele>
        <time>2014-03-29T15:22:26Z</time>
      </trkpt>
      <trkpt lat="37.790085700" lon="-1.896106300">
        <ele>638.000000</ele>
        <time>2014-03-29T15:22:27Z</time>
      </trkpt>
      <trkpt lat="37.790144900" lon="-1.896005800">
        <ele>637.000000</ele>
        <time>2014-03-29T15:22:28Z</time>
      </trkpt>
      <trkpt lat="37.790236700" lon="-1.895967200">
        <ele>637.000000</ele>
        <time>2014-03-29T15:22:29Z</time>
      </trkpt>
      <trkpt lat="37.790331600" lon="-1.895958800">
        <ele>637.000000</ele>
        <time>2014-03-29T15:22:30Z</time>
      </trkpt>
      <trkpt lat="37.790423700" lon="-1.895944600">
        <ele>637.000000</ele>
        <time>2014-03-29T15:22:31Z</time>
      </trkpt>
      <trkpt lat="37.790519800" lon="-1.895931300">
        <ele>637.000000</ele>
        <time>2014-03-29T15:22:32Z</time>
      </trkpt>
      <trkpt lat="37.790619400" lon="-1.895912200">
        <ele>637.000000</ele>
        <time>2014-03-29T15:22:33Z</time>
      </trkpt>
      <trkpt lat="37.790712200" lon="-1.895882900">
        <ele>637.000000</ele>
        <time>2014-03-29T15:22:34Z</time>
      </trkpt>
      <trkpt lat="37.790803800" lon="-1.895849700">
        <ele>637.000000</ele>
        <time>2014-03-29T15:22:35Z</time>
      </trkpt>
      <trkpt lat="37.790883700" lon="-1.895813400">
        <ele>638.000000</ele>
        <time>2014-03-29T15:22:36Z</time>
      </trkpt>
      <trkpt lat="37.790963900" lon="-1.895774000">
        <ele>638.000000</ele>
        <time>2014-03-29T15:22:37Z</time>
      </trkpt>
      <trkpt lat="37.791039800" lon="-1.895735100">
        <ele>638.000000</ele>
        <time>2014-03-29T15:22:38Z</time>
      </trkpt>
      <trkpt lat="37.791115900" lon="-1.895698300">
        <ele>638.000000</ele>
        <time>2014-03-29T15:22:39Z</time>
      </trkpt>
      <trkpt lat="37.791189300" lon="-1.895663000">
        <ele>639.000000</ele>
        <time>2014-03-29T15:22:40Z</time>
      </trkpt>
      <trkpt lat="37.791263600" lon="-1.895626400">
        <ele>639.000000</ele>
        <time>2014-03-29T15:22:41Z</time>
      </trkpt>
      <trkpt lat="37.791338700" lon="-1.895586000">
        <ele>639.000000</ele>
        <time>2014-03-29T15:22:42Z</time>
      </trkpt>
      <trkpt lat="37.791410000" lon="-1.895542300">
        <ele>640.000000</ele>
        <time>2014-03-29T15:22:43Z</time>
      </trkpt>
      <trkpt lat="37.791477200" lon="-1.895490700">
        <ele>640.000000</ele>
        <time>2014-03-29T15:22:44Z</time>
      </trkpt>
      <trkpt lat="37.791539600" lon="-1.895431000">
        <ele>640.000000</ele>
        <time>2014-03-29T15:22:45Z</time>
      </trkpt>
      <trkpt lat="37.791593000" lon="-1.895360600">
        <ele>641.000000</ele>
        <time>2014-03-29T15:22:46Z</time>
      </trkpt>
      <trkpt lat="37.791637300" lon="-1.895284300">
        <ele>641.000000</ele>
        <time>2014-03-29T15:22:47Z</time>
      </trkpt>
      <trkpt lat="37.791673700" lon="-1.895200000">
        <ele>642.000000</ele>
        <time>2014-03-29T15:22:48Z</time>
      </trkpt>
      <trkpt lat="37.791704600" lon="-1.895107900">
        <ele>642.000000</ele>
        <time>2014-03-29T15:22:49Z</time>
      </trkpt>
      <trkpt lat="37.791734400" lon="-1.895018900">
        <ele>643.000000</ele>
        <time>2014-03-29T15:22:50Z</time>
      </trkpt>
      <trkpt lat="37.791764600" lon="-1.894931600">
        <ele>643.000000</ele>
        <time>2014-03-29T15:22:51Z</time>
      </trkpt>
      <trkpt lat="37.791791900" lon="-1.894844000">
        <ele>643.000000</ele>
        <time>2014-03-29T15:22:52Z</time>
      </trkpt>
      <trkpt lat="37.791814800" lon="-1.894759400">
        <ele>644.000000</ele>
        <time>2014-03-29T15:22:53Z</time>
      </trkpt>
      <trkpt lat="37.791834400" lon="-1.894675400">
        <ele>644.000000</ele>
        <time>2014-03-29T15:22:54Z</time>
      </trkpt>
      <trkpt lat="37.791858200" lon="-1.894589800">
        <ele>645.000000</ele>
        <time>2014-03-29T15:22:55Z</time>
      </trkpt>
      <trkpt lat="37.791876000" lon="-1.894505200">
        <ele>645.000000</ele>
        <time>2014-03-29T15:22:56Z</time>
      </trkpt>
      <trkpt lat="37.791894500" lon="-1.894417000">
        <ele>646.000000</ele>
        <time>2014-03-29T15:22:57Z</time>
      </trkpt>
      <trkpt lat="37.791917100" lon="-1.894331200">
        <ele>647.000000</ele>
        <time>2014-03-29T15:22:58Z</time>
      </trkpt>
      <trkpt lat="37.791945300" lon="-1.894246100">
        <ele>647.000000</ele>
        <time>2014-03-29T15:22:59Z</time>
      </trkpt>
      <trkpt lat="37.791967000" lon="-1.894158500">
        <ele>648.000000</ele>
        <time>2014-03-29T15:23:00Z</time>
      </trkpt>
      <trkpt lat="37.791985800" lon="-1.894071700">
        <ele>648.000000</ele>
        <time>2014-03-29T15:23:01Z</time>
      </trkpt>
      <trkpt lat="37.792010600" lon="-1.893989600">
        <ele>649.000000</ele>
        <time>2014-03-29T15:23:02Z</time>
      </trkpt>
      <trkpt lat="37.792043300" lon="-1.893911100">
        <ele>649.000000</ele>
        <time>2014-03-29T15:23:03Z</time>
      </trkpt>
      <trkpt lat="37.792081200" lon="-1.893835800">
        <ele>650.000000</ele>
        <time>2014-03-29T15:23:04Z</time>
      </trkpt>
      <trkpt lat="37.792128500" lon="-1.893765900">
        <ele>650.000000</ele>
        <time>2014-03-29T15:23:05Z</time>
      </trkpt>
      <trkpt lat="37.792176800" lon="-1.893706800">
        <ele>651.000000</ele>
        <time>2014-03-29T15:23:06Z</time>
      </trkpt>
      <trkpt lat="37.792230300" lon="-1.893653900">
        <ele>652.000000</ele>
        <time>2014-03-29T15:23:07Z</time>
      </trkpt>
      <trkpt lat="37.792293500" lon="-1.893605400">
        <ele>652.000000</ele>
        <time>2014-03-29T15:23:08Z</time>
      </trkpt>
      <trkpt lat="37.792361000" lon="-1.893558700">
        <ele>653.000000</ele>
        <time>2014-03-29T15:23:09Z</time>
      </trkpt>
      <trkpt lat="37.792427600" lon="-1.893516500">
        <ele>653.000000</ele>
        <time>2014-03-29T15:23:10Z</time>
      </trkpt>
      <trkpt lat="37.792490800" lon="-1.893477000">
        <ele>654.000000</ele>
        <time>2014-03-29T15:23:11Z</time>
      </trkpt>
      <trkpt lat="37.792558900" lon="-1.893433700">
        <ele>654.000000</ele>
        <time>2014-03-29T15:23:12Z</time>
      </trkpt>
      <trkpt lat="37.792621100" lon="-1.893389200">
        <ele>654.000000</ele>
        <time>2014-03-29T15:23:13Z</time>
      </trkpt>
      <trkpt lat="37.792684300" lon="-1.893343200">
        <ele>655.000000</ele>
        <time>2014-03-29T15:23:14Z</time>
      </trkpt>
      <trkpt lat="37.792752900" lon="-1.893299200">
        <ele>655.000000</ele>
        <time>2014-03-29T15:23:15Z</time>
      </trkpt>
      <trkpt lat="37.792822700" lon="-1.893255900">
        <ele>655.000000</ele>
        <time>2014-03-29T15:23:16Z</time>
      </trkpt>
      <trkpt lat="37.792891500" lon="-1.893210700">
        <ele>656.000000</ele>
        <time>2014-03-29T15:23:17Z</time>
      </trkpt>
      <trkpt lat="37.792960400" lon="-1.893165100">
        <ele>656.000000</ele>
        <time>2014-03-29T15:23:18Z</time>
      </trkpt>
      <trkpt lat="37.793028800" lon="-1.893118900">
        <ele>656.000000</ele>
        <time>2014-03-29T15:23:19Z</time>
      </trkpt>
      <trkpt lat="37.793096800" lon="-1.893072500">
        <ele>657.000000</ele>
        <time>2014-03-29T15:23:20Z</time>
      </trkpt>
      <trkpt lat="37.793164100" lon="-1.893027400">
        <ele>657.000000</ele>
        <time>2014-03-29T15:23:21Z</time>
      </trkpt>
      <trkpt lat="37.793233000" lon="-1.892983000">
        <ele>657.000000</ele>
        <time>2014-03-29T15:23:22Z</time>
      </trkpt>
      <trkpt lat="37.793299700" lon="-1.892938100">
        <ele>657.000000</ele>
        <time>2014-03-29T15:23:23Z</time>
      </trkpt>
      <trkpt lat="37.793365300" lon="-1.892891700">
        <ele>658.000000</ele>
        <time>2014-03-29T15:23:24Z</time>
      </trkpt>
      <trkpt lat="37.793433200" lon="-1.892846600">
        <ele>658.000000</ele>
        <time>2014-03-29T15:23:25Z</time>
      </trkpt>
      <trkpt lat="37.793500700" lon="-1.892803100">
        <ele>658.000000</ele>
        <time>2014-03-29T15:23:26Z</time>
      </trkpt>
      <trkpt lat="37.793570700" lon="-1.892760000">
        <ele>658.000000</ele>
        <time>2014-03-29T15:23:27Z</time>
      </trkpt>
      <trkpt lat="37.793643400" lon="-1.892716000">
        <ele>658.000000</ele>
        <time>2014-03-29T15:23:28Z</time>
      </trkpt>
      <trkpt lat="37.793714400" lon="-1.892671400">
        <ele>658.000000</ele>
        <time>2014-03-29T15:23:29Z</time>
      </trkpt>
      <trkpt lat="37.793784000" lon="-1.892626600">
        <ele>658.000000</ele>
        <time>2014-03-29T15:23:30Z</time>
      </trkpt>
      <trkpt lat="37.793852800" lon="-1.892581100">
        <ele>659.000000</ele>
        <time>2014-03-29T15:23:31Z</time>
      </trkpt>
      <trkpt lat="37.793920000" lon="-1.892531600">
        <ele>659.000000</ele>
        <time>2014-03-29T15:23:32Z</time>
      </trkpt>
      <trkpt lat="37.793991700" lon="-1.892480600">
        <ele>659.000000</ele>
        <time>2014-03-29T15:23:33Z</time>
      </trkpt>
      <trkpt lat="37.794066500" lon="-1.892425700">
        <ele>659.000000</ele>
        <time>2014-03-29T15:23:34Z</time>
      </trkpt>
      <trkpt lat="37.794142600" lon="-1.892371200">
        <ele>659.000000</ele>
        <time>2014-03-29T15:23:35Z</time>
      </trkpt>
      <trkpt lat="37.794217300" lon="-1.892314600">
        <ele>659.000000</ele>
        <time>2014-03-29T15:23:36Z</time>
      </trkpt>
      <trkpt lat="37.794291200" lon="-1.892256800">
        <ele>659.000000</ele>
        <time>2014-03-29T15:23:37Z</time>
      </trkpt>
      <trkpt lat="37.794367600" lon="-1.892197900">
        <ele>659.000000</ele>
        <time>2014-03-29T15:23:38Z</time>
      </trkpt>
      <trkpt lat="37.794444700" lon="-1.892140000">
        <ele>659.000000</ele>
        <time>2014-03-29T15:23:39Z</time>
      </trkpt>
      <trkpt lat="37.794525800" lon="-1.892084700">
        <ele>659.000000</ele>
        <time>2014-03-29T15:23:40Z</time>
      </trkpt>
      <trkpt lat="37.794609900" lon="-1.892024600">
        <ele>659.000000</ele>
        <time>2014-03-29T15:23:41Z</time>
      </trkpt>
      <trkpt lat="37.794692900" lon="-1.891963900">
        <ele>659.000000</ele>
        <time>2014-03-29T15:23:42Z</time>
      </trkpt>
      <trkpt lat="37.794777900" lon="-1.891907800">
        <ele>659.000000</ele>
        <time>2014-03-29T15:23:43Z</time>
      </trkpt>
      <trkpt lat="37.794862400" lon="-1.891854500">
        <ele>659.000000</ele>
        <time>2014-03-29T15:23:44Z</time>
      </trkpt>
      <trkpt lat="37.794949400" lon="-1.891802300">
        <ele>659.000000</ele>
        <time>2014-03-29T15:23:45Z</time>
      </trkpt>
      <trkpt lat="37.795039800" lon="-1.891751600">
        <ele>659.000000</ele>
        <time>2014-03-29T15:23:46Z</time>
      </trkpt>
      <trkpt lat="37.795132700" lon="-1.891699400">
        <ele>659.000000</ele>
        <time>2014-03-29T15:23:47Z</time>
      </trkpt>
      <trkpt lat="37.795225400" lon="-1.891644900">
        <ele>659.000000</ele>
        <time>2014-03-29T15:23:48Z</time>
      </trkpt>
      <trkpt lat="37.795317300" lon="-1.891590800">
        <ele>659.000000</ele>
        <time>2014-03-29T15:23:49Z</time>
      </trkpt>
      <trkpt lat="37.795408600" lon="-1.891537600">
        <ele>659.000000</ele>
        <time>2014-03-29T15:23:50Z</time>
      </trkpt>
      <trkpt lat="37.795498600" lon="-1.891488100">
        <ele>659.000000</ele>
        <time>2014-03-29T15:23:51Z</time>
      </trkpt>
      <trkpt lat="37.795586800" lon="-1.891440000">
        <ele>659.000000</ele>
        <time>2014-03-29T15:23:52Z</time>
      </trkpt>
      <trkpt lat="37.795675300" lon="-1.891392200">
        <ele>659.000000</ele>
        <time>2014-03-29T15:23:53Z</time>
      </trkpt>
      <trkpt lat="37.795759300" lon="-1.891347500">
        <ele>659.000000</ele>
        <time>2014-03-29T15:23:54Z</time>
      </trkpt>
      <trkpt lat="37.795837500" lon="-1.891306200">
        <ele>659.000000</ele>
        <time>2014-03-29T15:23:55Z</time>
      </trkpt>
      <trkpt lat="37.795912500" lon="-1.891265400">
        <ele>659.000000</ele>
        <time>2014-03-29T15:23:56Z</time>
      </trkpt>
      <trkpt lat="37.795987500" lon="-1.891226600">
        <ele>659.000000</ele>
        <time>2014-03-29T15:23:57Z</time>
      </trkpt>
      <trkpt lat="37.796058300" lon="-1.891185900">
        <ele>659.000000</ele>
        <time>2014-03-29T15:23:58Z</time>
      </trkpt>
      <trkpt lat="37.796130900" lon="-1.891143700">
        <ele>659.000000</ele>
        <time>2014-03-29T15:23:59Z</time>
      </trkpt>
      <trkpt lat="37.796202000" lon="-1.891102800">
        <ele>659.000000</ele>
        <time>2014-03-29T15:24:00Z</time>
      </trkpt>
      <trkpt lat="37.796275100" lon="-1.891064600">
        <ele>659.000000</ele>
        <time>2014-03-29T15:24:01Z</time>
      </trkpt>
      <trkpt lat="37.796348200" lon="-1.891026600">
        <ele>659.000000</ele>
        <time>2014-03-29T15:24:02Z</time>
      </trkpt>
      <trkpt lat="37.796419500" lon="-1.890988500">
        <ele>660.000000</ele>
        <time>2014-03-29T15:24:03Z</time>
      </trkpt>
      <trkpt lat="37.796492600" lon="-1.890944600">
        <ele>660.000000</ele>
        <time>2014-03-29T15:24:04Z</time>
      </trkpt>
      <trkpt lat="37.796563800" lon="-1.890899300">
        <ele>660.000000</ele>
        <time>2014-03-29T15:24:05Z</time>
      </trkpt>
      <trkpt lat="37.796635100" lon="-1.890856400">
        <ele>661.000000</ele>
        <time>2014-03-29T15:24:06Z</time>
      </trkpt>
      <trkpt lat="37.796704800" lon="-1.890812700">
        <ele>661.000000</ele>
        <time>2014-03-29T15:24:07Z</time>
      </trkpt>
      <trkpt lat="37.796781000" lon="-1.890770300">
        <ele>661.000000</ele>
        <time>2014-03-29T15:24:08Z</time>
      </trkpt>
      <trkpt lat="37.796856300" lon="-1.890725300">
        <ele>662.000000</ele>
        <time>2014-03-29T15:24:09Z</time>
      </trkpt>
      <trkpt lat="37.796931700" lon="-1.890678600">
        <ele>662.000000</ele>
        <time>2014-03-29T15:24:10Z</time>
      </trkpt>
      <trkpt lat="37.797008800" lon="-1.890630900">
        <ele>663.000000</ele>
        <time>2014-03-29T15:24:11Z</time>
      </trkpt>
      <trkpt lat="37.797086800" lon="-1.890581700">
        <ele>663.000000</ele>
        <time>2014-03-29T15:24:12Z</time>
      </trkpt>
      <trkpt lat="37.797163600" lon="-1.890534300">
        <ele>664.000000</ele>
        <time>2014-03-29T15:24:13Z</time>
      </trkpt>
      <trkpt lat="37.797239500" lon="-1.890488800">
        <ele>664.000000</ele>
        <time>2014-03-29T15:24:14Z</time>
      </trkpt>
      <trkpt lat="37.797315300" lon="-1.890441900">
        <ele>665.000000</ele>
        <time>2014-03-29T15:24:15Z</time>
      </trkpt>
      <trkpt lat="37.797391200" lon="-1.890395400">
        <ele>665.000000</ele>
        <time>2014-03-29T15:24:16Z</time>
      </trkpt>
      <trkpt lat="37.797467800" lon="-1.890347900">
        <ele>665.000000</ele>
        <time>2014-03-29T15:24:17Z</time>
      </trkpt>
      <trkpt lat="37.797543400" lon="-1.890298800">
        <ele>666.000000</ele>
        <time>2014-03-29T15:24:18Z</time>
      </trkpt>
      <trkpt lat="37.797618200" lon="-1.890250300">
        <ele>666.000000</ele>
        <time>2014-03-29T15:24:19Z</time>
      </trkpt>
      <trkpt lat="37.797692600" lon="-1.890200100">
        <ele>666.000000</ele>
        <time>2014-03-29T15:24:20Z</time>
      </trkpt>
      <trkpt lat="37.797767700" lon="-1.890152400">
        <ele>666.000000</ele>
        <time>2014-03-29T15:24:21Z</time>
      </trkpt>
      <trkpt lat="37.797840500" lon="-1.890102600">
        <ele>666.000000</ele>
        <time>2014-03-29T15:24:22Z</time>
      </trkpt>
      <trkpt lat="37.797912500" lon="-1.890052300">
        <ele>667.000000</ele>
        <time>2014-03-29T15:24:23Z</time>
      </trkpt>
      <trkpt lat="37.797984500" lon="-1.890003300">
        <ele>667.000000</ele>
        <time>2014-03-29T15:24:24Z</time>
      </trkpt>
      <trkpt lat="37.798058600" lon="-1.889955800">
        <ele>667.000000</ele>
        <time>2014-03-29T15:24:25Z</time>
      </trkpt>
      <trkpt lat="37.798130200" lon="-1.889911100">
        <ele>667.000000</ele>
        <time>2014-03-29T15:24:26Z</time>
      </trkpt>
      <trkpt lat="37.798201900" lon="-1.889865000">
        <ele>667.000000</ele>
        <time>2014-03-29T15:24:27Z</time>
      </trkpt>
      <trkpt lat="37.798270500" lon="-1.889816000">
        <ele>667.000000</ele>
        <time>2014-03-29T15:24:28Z</time>
      </trkpt>
      <trkpt lat="37.798342200" lon="-1.889766500">
        <ele>667.000000</ele>
        <time>2014-03-29T15:24:29Z</time>
      </trkpt>
      <trkpt lat="37.798417700" lon="-1.889718200">
        <ele>667.000000</ele>
        <time>2014-03-29T15:24:30Z</time>
      </trkpt>
      <trkpt lat="37.798493600" lon="-1.889670200">
        <ele>667.000000</ele>
        <time>2014-03-29T15:24:31Z</time>
      </trkpt>
      <trkpt lat="37.798570800" lon="-1.889624100">
        <ele>667.000000</ele>
        <time>2014-03-29T15:24:32Z</time>
      </trkpt>
      <trkpt lat="37.798645100" lon="-1.889579900">
        <ele>668.000000</ele>
        <time>2014-03-29T15:24:33Z</time>
      </trkpt>
      <trkpt lat="37.798718700" lon="-1.889535100">
        <ele>668.000000</ele>
        <time>2014-03-29T15:24:34Z</time>
      </trkpt>
      <trkpt lat="37.798790300" lon="-1.889490400">
        <ele>668.000000</ele>
        <time>2014-03-29T15:24:35Z</time>
      </trkpt>
      <trkpt lat="37.798857800" lon="-1.889445100">
        <ele>668.000000</ele>
        <time>2014-03-29T15:24:36Z</time>
      </trkpt>
      <trkpt lat="37.798926800" lon="-1.889400500">
        <ele>668.000000</ele>
        <time>2014-03-29T15:24:37Z</time>
      </trkpt>
      <trkpt lat="37.798997700" lon="-1.889356800">
        <ele>668.000000</ele>
        <time>2014-03-29T15:24:38Z</time>
      </trkpt>
      <trkpt lat="37.799069500" lon="-1.889311800">
        <ele>669.000000</ele>
        <time>2014-03-29T15:24:39Z</time>
      </trkpt>
      <trkpt lat="37.799140400" lon="-1.889269600">
        <ele>669.000000</ele>
        <time>2014-03-29T15:24:40Z</time>
      </trkpt>
      <trkpt lat="37.799213800" lon="-1.889223900">
        <ele>669.000000</ele>
        <time>2014-03-29T15:24:41Z</time>
      </trkpt>
      <trkpt lat="37.799285100" lon="-1.889177700">
        <ele>669.000000</ele>
        <time>2014-03-29T15:24:42Z</time>
      </trkpt>
      <trkpt lat="37.799356900" lon="-1.889133100">
        <ele>669.000000</ele>
        <time>2014-03-29T15:24:43Z</time>
      </trkpt>
      <trkpt lat="37.799429900" lon="-1.889084900">
        <ele>670.000000</ele>
        <time>2014-03-29T15:24:44Z</time>
      </trkpt>
      <trkpt lat="37.799502400" lon="-1.889037000">
        <ele>670.000000</ele>
        <time>2014-03-29T15:24:45Z</time>
      </trkpt>
      <trkpt lat="37.799575700" lon="-1.888989900">
        <ele>670.000000</ele>
        <time>2014-03-29T15:24:46Z</time>
      </trkpt>
      <trkpt lat="37.799647300" lon="-1.888941200">
        <ele>670.000000</ele>
        <time>2014-03-29T15:24:47Z</time>
      </trkpt>
      <trkpt lat="37.799721200" lon="-1.888893300">
        <ele>671.000000</ele>
        <time>2014-03-29T15:24:48Z</time>
      </trkpt>
      <trkpt lat="37.799795200" lon="-1.888848600">
        <ele>671.000000</ele>
        <time>2014-03-29T15:24:49Z</time>
      </trkpt>
      <trkpt lat="37.799869100" lon="-1.888803000">
        <ele>671.000000</ele>
        <time>2014-03-29T15:24:50Z</time>
      </trkpt>
      <trkpt lat="37.799943600" lon="-1.888756800">
        <ele>671.000000</ele>
        <time>2014-03-29T15:24:51Z</time>
      </trkpt>
      <trkpt lat="37.800018200" lon="-1.888710100">
        <ele>671.000000</ele>
        <time>2014-03-29T15:24:52Z</time>
      </trkpt>
      <trkpt lat="37.800096000" lon="-1.888665400">
        <ele>672.000000</ele>
        <time>2014-03-29T15:24:53Z</time>
      </trkpt>
      <trkpt lat="37.800174800" lon="-1.888622200">
        <ele>672.000000</ele>
        <time>2014-03-29T15:24:54Z</time>
      </trkpt>
      <trkpt lat="37.800255700" lon="-1.888578000">
        <ele>672.000000</ele>
        <time>2014-03-29T15:24:55Z</time>
      </trkpt>
      <trkpt lat="37.800334000" lon="-1.888533200">
        <ele>672.000000</ele>
        <time>2014-03-29T15:24:56Z</time>
      </trkpt>
      <trkpt lat="37.800411900" lon="-1.888489600">
        <ele>672.000000</ele>
        <time>2014-03-29T15:24:57Z</time>
      </trkpt>
      <trkpt lat="37.800491000" lon="-1.888445200">
        <ele>672.000000</ele>
        <time>2014-03-29T15:24:58Z</time>
      </trkpt>
      <trkpt lat="37.800567800" lon="-1.888400800">
        <ele>672.000000</ele>
        <time>2014-03-29T15:24:59Z</time>
      </trkpt>
      <trkpt lat="37.800645700" lon="-1.888359700">
        <ele>672.000000</ele>
        <time>2014-03-29T15:25:00Z</time>
      </trkpt>
      <trkpt lat="37.800723800" lon="-1.888319800">
        <ele>672.000000</ele>
        <time>2014-03-29T15:25:01Z</time>
      </trkpt>
      <trkpt lat="37.800803100" lon="-1.888279100">
        <ele>673.000000</ele>
        <time>2014-03-29T15:25:02Z</time>
      </trkpt>
      <trkpt lat="37.800882000" lon="-1.888237100">
        <ele>673.000000</ele>
        <time>2014-03-29T15:25:03Z</time>
      </trkpt>
      <trkpt lat="37.800958300" lon="-1.888195300">
        <ele>673.000000</ele>
        <time>2014-03-29T15:25:04Z</time>
      </trkpt>
      <trkpt lat="37.801032900" lon="-1.888153600">
        <ele>673.000000</ele>
        <time>2014-03-29T15:25:05Z</time>
      </trkpt>
      <trkpt lat="37.801106100" lon="-1.888114500">
        <ele>673.000000</ele>
        <time>2014-03-29T15:25:06Z</time>
      </trkpt>
      <trkpt lat="37.801183900" lon="-1.888076700">
        <ele>673.000000</ele>
        <time>2014-03-29T15:25:07Z</time>
      </trkpt>
      <trkpt lat="37.801262100" lon="-1.888038300">
        <ele>673.000000</ele>
        <time>2014-03-29T15:25:08Z</time>
      </trkpt>
      <trkpt lat="37.801337000" lon="-1.887999500">
        <ele>673.000000</ele>
        <time>2014-03-29T15:25:09Z</time>
      </trkpt>
      <trkpt lat="37.801410000" lon="-1.887964700">
        <ele>673.000000</ele>
        <time>2014-03-29T15:25:10Z</time>
      </trkpt>
      <trkpt lat="37.801486000" lon="-1.887929100">
        <ele>673.000000</ele>
        <time>2014-03-29T15:25:11Z</time>
      </trkpt>
      <trkpt lat="37.801561300" lon="-1.887893900">
        <ele>674.000000</ele>
        <time>2014-03-29T15:25:12Z</time>
      </trkpt>
      <trkpt lat="37.801636800" lon="-1.887860200">
        <ele>674.000000</ele>
        <time>2014-03-29T15:25:13Z</time>
      </trkpt>
      <trkpt lat="37.801712900" lon="-1.887829100">
        <ele>674.000000</ele>
        <time>2014-03-29T15:25:14Z</time>
      </trkpt>
      <trkpt lat="37.801792800" lon="-1.887805300">
        <ele>674.000000</ele>
        <time>2014-03-29T15:25:15Z</time>
      </trkpt>
      <trkpt lat="37.801872700" lon="-1.887786300">
        <ele>674.000000</ele>
        <time>2014-03-29T15:25:16Z</time>
      </trkpt>
      <trkpt lat="37.801950500" lon="-1.887770200">
        <ele>674.000000</ele>
        <time>2014-03-29T15:25:17Z</time>
      </trkpt>
      <trkpt lat="37.802025200" lon="-1.887756900">
        <ele>674.000000</ele>
        <time>2014-03-29T15:25:18Z</time>
      </trkpt>
      <trkpt lat="37.802102100" lon="-1.887745100">
        <ele>674.000000</ele>
        <time>2014-03-29T15:25:19Z</time>
      </trkpt>
      <trkpt lat="37.802177400" lon="-1.887731200">
        <ele>675.000000</ele>
        <time>2014-03-29T15:25:20Z</time>
      </trkpt>
      <trkpt lat="37.802249100" lon="-1.887719900">
        <ele>675.000000</ele>
        <time>2014-03-29T15:25:21Z</time>
      </trkpt>
      <trkpt lat="37.802323900" lon="-1.887715200">
        <ele>675.000000</ele>
        <time>2014-03-29T15:25:22Z</time>
      </trkpt>
      <trkpt lat="37.802398600" lon="-1.887711800">
        <ele>675.000000</ele>
        <time>2014-03-29T15:25:23Z</time>
      </trkpt>
      <trkpt lat="37.802475300" lon="-1.887703100">
        <ele>676.000000</ele>
        <time>2014-03-29T15:25:24Z</time>
      </trkpt>
      <trkpt lat="37.802552100" lon="-1.887695400">
        <ele>676.000000</ele>
        <time>2014-03-29T15:25:25Z</time>
      </trkpt>
      <trkpt lat="37.802627500" lon="-1.887691000">
        <ele>676.000000</ele>
        <time>2014-03-29T15:25:26Z</time>
      </trkpt>
      <trkpt lat="37.802706500" lon="-1.887682600">
        <ele>677.000000</ele>
        <time>2014-03-29T15:25:27Z</time>
      </trkpt>
      <trkpt lat="37.802788500" lon="-1.887674800">
        <ele>677.000000</ele>
        <time>2014-03-29T15:25:28Z</time>
      </trkpt>
      <trkpt lat="37.802873500" lon="-1.887662600">
        <ele>677.000000</ele>
        <time>2014-03-29T15:25:29Z</time>
      </trkpt>
      <trkpt lat="37.802965100" lon="-1.887652300">
        <ele>678.000000</ele>
        <time>2014-03-29T15:25:30Z</time>
      </trkpt>
      <trkpt lat="37.803064200" lon="-1.887646100">
        <ele>678.000000</ele>
        <time>2014-03-29T15:25:31Z</time>
      </trkpt>
      <trkpt lat="37.803156400" lon="-1.887636700">
        <ele>679.000000</ele>
        <time>2014-03-29T15:25:32Z</time>
      </trkpt>
      <trkpt lat="37.803254400" lon="-1.887624800">
        <ele>679.000000</ele>
        <time>2014-03-29T15:25:33Z</time>
      </trkpt>
      <trkpt lat="37.803351500" lon="-1.887620400">
        <ele>680.000000</ele>
        <time>2014-03-29T15:25:34Z</time>
      </trkpt>
      <trkpt lat="37.803452600" lon="-1.887620600">
        <ele>680.000000</ele>
        <time>2014-03-29T15:25:35Z</time>
      </trkpt>
      <trkpt lat="37.803559600" lon="-1.887614000">
        <ele>680.000000</ele>
        <time>2014-03-29T15:25:36Z</time>
      </trkpt>
      <trkpt lat="37.803669900" lon="-1.887605200">
        <ele>681.000000</ele>
        <time>2014-03-29T15:25:37Z</time>
      </trkpt>
      <trkpt lat="37.803776000" lon="-1.887593800">
        <ele>681.000000</ele>
        <time>2014-03-29T15:25:38Z</time>
      </trkpt>
      <trkpt lat="37.803882400" lon="-1.887584500">
        <ele>681.000000</ele>
        <time>2014-03-29T15:25:39Z</time>
      </trkpt>
      <trkpt lat="37.803986900" lon="-1.887575500">
        <ele>682.000000</ele>
        <time>2014-03-29T15:25:40Z</time>
      </trkpt>
      <trkpt lat="37.804092600" lon="-1.887568000">
        <ele>682.000000</ele>
        <time>2014-03-29T15:25:41Z</time>
      </trkpt>
      <trkpt lat="37.804201800" lon="-1.887557900">
        <ele>682.000000</ele>
        <time>2014-03-29T15:25:42Z</time>
      </trkpt>
      <trkpt lat="37.804317800" lon="-1.887540100">
        <ele>682.000000</ele>
        <time>2014-03-29T15:25:43Z</time>
      </trkpt>
      <trkpt lat="37.804430600" lon="-1.887526000">
        <ele>682.000000</ele>
        <time>2014-03-29T15:25:44Z</time>
      </trkpt>
      <trkpt lat="37.804533900" lon="-1.887513700">
        <ele>683.000000</ele>
        <time>2014-03-29T15:25:45Z</time>
      </trkpt>
      <trkpt lat="37.804635800" lon="-1.887504800">
        <ele>683.000000</ele>
        <time>2014-03-29T15:25:46Z</time>
      </trkpt>
      <trkpt lat="37.804737300" lon="-1.887493900">
        <ele>683.000000</ele>
        <time>2014-03-29T15:25:47Z</time>
      </trkpt>
      <trkpt lat="37.804835400" lon="-1.887481800">
        <ele>683.000000</ele>
        <time>2014-03-29T15:25:48Z</time>
      </trkpt>
      <trkpt lat="37.804929700" lon="-1.887473400">
        <ele>683.000000</ele>
        <time>2014-03-29T15:25:49Z</time>
      </trkpt>
      <trkpt lat="37.805028300" lon="-1.887463800">
        <ele>684.000000</ele>
        <time>2014-03-29T15:25:50Z</time>
      </trkpt>
      <trkpt lat="37.805125400" lon="-1.887454500">
        <ele>684.000000</ele>
        <time>2014-03-29T15:25:51Z</time>
      </trkpt>
      <trkpt lat="37.805220100" lon="-1.887444800">
        <ele>684.000000</ele>
        <time>2014-03-29T15:25:52Z</time>
      </trkpt>
      <trkpt lat="37.805314100" lon="-1.887434600">
        <ele>684.000000</ele>
        <time>2014-03-29T15:25:53Z</time>
      </trkpt>
      <trkpt lat="37.805408300" lon="-1.887426800">
        <ele>685.000000</ele>
        <time>2014-03-29T15:25:54Z</time>
      </trkpt>
      <trkpt lat="37.805502900" lon="-1.887424600">
        <ele>685.000000</ele>
        <time>2014-03-29T15:25:55Z</time>
      </trkpt>
      <trkpt lat="37.805595500" lon="-1.887425900">
        <ele>685.000000</ele>
        <time>2014-03-29T15:25:56Z</time>
      </trkpt>
      <trkpt lat="37.805686000" lon="-1.887426500">
        <ele>686.000000</ele>
        <time>2014-03-29T15:25:57Z</time>
      </trkpt>
      <trkpt lat="37.805774700" lon="-1.887429200">
        <ele>686.000000</ele>
        <time>2014-03-29T15:25:58Z</time>
      </trkpt>
      <trkpt lat="37.805862100" lon="-1.887436200">
        <ele>687.000000</ele>
        <time>2014-03-29T15:25:59Z</time>
      </trkpt>
      <trkpt lat="37.805947500" lon="-1.887447200">
        <ele>687.000000</ele>
        <time>2014-03-29T15:26:00Z</time>
      </trkpt>
      <trkpt lat="37.806030200" lon="-1.887460600">
        <ele>687.000000</ele>
        <time>2014-03-29T15:26:01Z</time>
      </trkpt>
      <trkpt lat="37.806111500" lon="-1.887473000">
        <ele>688.000000</ele>
        <time>2014-03-29T15:26:02Z</time>
      </trkpt>
      <trkpt lat="37.806193300" lon="-1.887482800">
        <ele>688.000000</ele>
        <time>2014-03-29T15:26:03Z</time>
      </trkpt>
      <trkpt lat="37.806271300" lon="-1.887495700">
        <ele>689.000000</ele>
        <time>2014-03-29T15:26:04Z</time>
      </trkpt>
      <trkpt lat="37.806345700" lon="-1.887503500">
        <ele>689.000000</ele>
        <time>2014-03-29T15:26:05Z</time>
      </trkpt>
      <trkpt lat="37.806420500" lon="-1.887513800">
        <ele>689.000000</ele>
        <time>2014-03-29T15:26:06Z</time>
      </trkpt>
      <trkpt lat="37.806498500" lon="-1.887529800">
        <ele>690.000000</ele>
        <time>2014-03-29T15:26:07Z</time>
      </trkpt>
      <trkpt lat="37.806579500" lon="-1.887546900">
        <ele>690.000000</ele>
        <time>2014-03-29T15:26:08Z</time>
      </trkpt>
      <trkpt lat="37.806662900" lon="-1.887563200">
        <ele>690.000000</ele>
        <time>2014-03-29T15:26:09Z</time>
      </trkpt>
      <trkpt lat="37.806745400" lon="-1.887575700">
        <ele>691.000000</ele>
        <time>2014-03-29T15:26:10Z</time>
      </trkpt>
      <trkpt lat="37.806825400" lon="-1.887586400">
        <ele>691.000000</ele>
        <time>2014-03-29T15:26:11Z</time>
      </trkpt>
      <trkpt lat="37.806908600" lon="-1.887602300">
        <ele>692.000000</ele>
        <time>2014-03-29T15:26:12Z</time>
      </trkpt>
      <trkpt lat="37.806992000" lon="-1.887618400">
        <ele>692.000000</ele>
        <time>2014-03-29T15:26:13Z</time>
      </trkpt>
      <trkpt lat="37.807077500" lon="-1.887632200">
        <ele>692.000000</ele>
        <time>2014-03-29T15:26:14Z</time>
      </trkpt>
      <trkpt lat="37.807163400" lon="-1.887646000">
        <ele>693.000000</ele>
        <time>2014-03-29T15:26:15Z</time>
      </trkpt>
      <trkpt lat="37.807249100" lon="-1.887656900">
        <ele>693.000000</ele>
        <time>2014-03-29T15:26:16Z</time>
      </trkpt>
      <trkpt lat="37.807337200" lon="-1.887670000">
        <ele>693.000000</ele>
        <time>2014-03-29T15:26:17Z</time>
      </trkpt>
      <trkpt lat="37.807423300" lon="-1.887683700">
        <ele>694.000000</ele>
        <time>2014-03-29T15:26:18Z</time>
      </trkpt>
      <trkpt lat="37.807509900" lon="-1.887696100">
        <ele>694.000000</ele>
        <time>2014-03-29T15:26:19Z</time>
      </trkpt>
      <trkpt lat="37.807595200" lon="-1.887706400">
        <ele>694.000000</ele>
        <time>2014-03-29T15:26:20Z</time>
      </trkpt>
      <trkpt lat="37.807679800" lon="-1.887717200">
        <ele>694.000000</ele>
        <time>2014-03-29T15:26:21Z</time>
      </trkpt>
      <trkpt lat="37.807762800" lon="-1.887730300">
        <ele>695.000000</ele>
        <time>2014-03-29T15:26:22Z</time>
      </trkpt>
      <trkpt lat="37.807841900" lon="-1.887742900">
        <ele>695.000000</ele>
        <time>2014-03-29T15:26:23Z</time>
      </trkpt>
      <trkpt lat="37.807918200" lon="-1.887755100">
        <ele>695.000000</ele>
        <time>2014-03-29T15:26:24Z</time>
      </trkpt>
      <trkpt lat="37.807997300" lon="-1.887765900">
        <ele>695.000000</ele>
        <time>2014-03-29T15:26:25Z</time>
      </trkpt>
      <trkpt lat="37.808076500" lon="-1.887777800">
        <ele>696.000000</ele>
        <time>2014-03-29T15:26:26Z</time>
      </trkpt>
      <trkpt lat="37.808156000" lon="-1.887787800">
        <ele>696.000000</ele>
        <time>2014-03-29T15:26:27Z</time>
      </trkpt>
      <trkpt lat="37.808236600" lon="-1.887796000">
        <ele>696.000000</ele>
        <time>2014-03-29T15:26:28Z</time>
      </trkpt>
      <trkpt lat="37.808312300" lon="-1.887806300">
        <ele>696.000000</ele>
        <time>2014-03-29T15:26:29Z</time>
      </trkpt>
      <trkpt lat="37.808388600" lon="-1.887816100">
        <ele>696.000000</ele>
        <time>2014-03-29T15:26:30Z</time>
      </trkpt>
      <trkpt lat="37.808465900" lon="-1.887824500">
        <ele>697.000000</ele>
        <time>2014-03-29T15:26:31Z</time>
      </trkpt>
      <trkpt lat="37.808543700" lon="-1.887833600">
        <ele>697.000000</ele>
        <time>2014-03-29T15:26:32Z</time>
      </trkpt>
      <trkpt lat="37.808623100" lon="-1.887839900">
        <ele>697.000000</ele>
        <time>2014-03-29T15:26:33Z</time>
      </trkpt>
      <trkpt lat="37.808702000" lon="-1.887848100">
        <ele>697.000000</ele>
        <time>2014-03-29T15:26:34Z</time>
      </trkpt>
      <trkpt lat="37.808780100" lon="-1.887856600">
        <ele>697.000000</ele>
        <time>2014-03-29T15:26:35Z</time>
      </trkpt>
      <trkpt lat="37.808862300" lon="-1.887865400">
        <ele>697.000000</ele>
        <time>2014-03-29T15:26:36Z</time>
      </trkpt>
      <trkpt lat="37.808941000" lon="-1.887877500">
        <ele>697.000000</ele>
        <time>2014-03-29T15:26:37Z</time>
      </trkpt>
      <trkpt lat="37.809017200" lon="-1.887889000">
        <ele>698.000000</ele>
        <time>2014-03-29T15:26:38Z</time>
      </trkpt>
      <trkpt lat="37.809091600" lon="-1.887899700">
        <ele>698.000000</ele>
        <time>2014-03-29T15:26:39Z</time>
      </trkpt>
      <trkpt lat="37.809162100" lon="-1.887906500">
        <ele>698.000000</ele>
        <time>2014-03-29T15:26:40Z</time>
      </trkpt>
      <trkpt lat="37.809232200" lon="-1.887915900">
        <ele>698.000000</ele>
        <time>2014-03-29T15:26:41Z</time>
      </trkpt>
      <trkpt lat="37.809302300" lon="-1.887927100">
        <ele>698.000000</ele>
        <time>2014-03-29T15:26:42Z</time>
      </trkpt>
      <trkpt lat="37.809372700" lon="-1.887939500">
        <ele>699.000000</ele>
        <time>2014-03-29T15:26:43Z</time>
      </trkpt>
      <trkpt lat="37.809442800" lon="-1.887956100">
        <ele>699.000000</ele>
        <time>2014-03-29T15:26:44Z</time>
      </trkpt>
      <trkpt lat="37.809515500" lon="-1.887972800">
        <ele>699.000000</ele>
        <time>2014-03-29T15:26:45Z</time>
      </trkpt>
      <trkpt lat="37.809588700" lon="-1.887990000">
        <ele>699.000000</ele>
        <time>2014-03-29T15:26:46Z</time>
      </trkpt>
      <trkpt lat="37.809663400" lon="-1.888006200">
        <ele>699.000000</ele>
        <time>2014-03-29T15:26:47Z</time>
      </trkpt>
      <trkpt lat="37.809737100" lon="-1.888022800">
        <ele>700.000000</ele>
        <time>2014-03-29T15:26:48Z</time>
      </trkpt>
      <trkpt lat="37.809813400" lon="-1.888040700">
        <ele>700.000000</ele>
        <time>2014-03-29T15:26:49Z</time>
      </trkpt>
      <trkpt lat="37.809890600" lon="-1.888061000">
        <ele>700.000000</ele>
        <time>2014-03-29T15:26:50Z</time>
      </trkpt>
      <trkpt lat="37.809970000" lon="-1.888083400">
        <ele>700.000000</ele>
        <time>2014-03-29T15:26:51Z</time>
      </trkpt>
      <trkpt lat="37.810051100" lon="-1.888105300">
        <ele>701.000000</ele>
        <time>2014-03-29T15:26:52Z</time>
      </trkpt>
      <trkpt lat="37.810132300" lon="-1.888125400">
        <ele>701.000000</ele>
        <time>2014-03-29T15:26:53Z</time>
      </trkpt>
      <trkpt lat="37.810220600" lon="-1.888144200">
        <ele>701.000000</ele>
        <time>2014-03-29T15:26:54Z</time>
      </trkpt>
      <trkpt lat="37.810314400" lon="-1.888151300">
        <ele>701.000000</ele>
        <time>2014-03-29T15:26:55Z</time>
      </trkpt>
      <trkpt lat="37.810409700" lon="-1.888142000">
        <ele>701.000000</ele>
        <time>2014-03-29T15:26:56Z</time>
      </trkpt>
      <trkpt lat="37.810506500" lon="-1.888113600">
        <ele>701.000000</ele>
        <time>2014-03-29T15:26:57Z</time>
      </trkpt>
      <trkpt lat="37.810599400" lon="-1.888072000">
        <ele>701.000000</ele>
        <time>2014-03-29T15:26:58Z</time>
      </trkpt>
      <trkpt lat="37.810692600" lon="-1.888023800">
        <ele>701.000000</ele>
        <time>2014-03-29T15:26:59Z</time>
      </trkpt>
      <trkpt lat="37.810790200" lon="-1.887966500">
        <ele>701.000000</ele>
        <time>2014-03-29T15:27:00Z</time>
      </trkpt>
      <trkpt lat="37.810888800" lon="-1.887904900">
        <ele>700.000000</ele>
        <time>2014-03-29T15:27:01Z</time>
      </trkpt>
      <trkpt lat="37.810986600" lon="-1.887838500">
        <ele>700.000000</ele>
        <time>2014-03-29T15:27:02Z</time>
      </trkpt>
      <trkpt lat="37.811083800" lon="-1.887771900">
        <ele>700.000000</ele>
        <time>2014-03-29T15:27:03Z</time>
      </trkpt>
      <trkpt lat="37.811184300" lon="-1.887707100">
        <ele>700.000000</ele>
        <time>2014-03-29T15:27:04Z</time>
      </trkpt>
      <trkpt lat="37.811285700" lon="-1.887642000">
        <ele>699.000000</ele>
        <time>2014-03-29T15:27:05Z</time>
      </trkpt>
      <trkpt lat="37.811387400" lon="-1.887579400">
        <ele>699.000000</ele>
        <time>2014-03-29T15:27:06Z</time>
      </trkpt>
      <trkpt lat="37.811489600" lon="-1.887514600">
        <ele>699.000000</ele>
        <time>2014-03-29T15:27:07Z</time>
      </trkpt>
      <trkpt lat="37.811593500" lon="-1.887451600">
        <ele>698.000000</ele>
        <time>2014-03-29T15:27:08Z</time>
      </trkpt>
      <trkpt lat="37.811695000" lon="-1.887388400">
        <ele>698.000000</ele>
        <time>2014-03-29T15:27:09Z</time>
      </trkpt>
      <trkpt lat="37.811793000" lon="-1.887323500">
        <ele>697.000000</ele>
        <time>2014-03-29T15:27:10Z</time>
      </trkpt>
      <trkpt lat="37.811891900" lon="-1.887259300">
        <ele>697.000000</ele>
        <time>2014-03-29T15:27:11Z</time>
      </trkpt>
      <trkpt lat="37.811987800" lon="-1.887194600">
        <ele>696.000000</ele>
        <time>2014-03-29T15:27:12Z</time>
      </trkpt>
      <trkpt lat="37.812082500" lon="-1.887130300">
        <ele>696.000000</ele>
        <time>2014-03-29T15:27:13Z</time>
      </trkpt>
      <trkpt lat="37.812181600" lon="-1.887065600">
        <ele>696.000000</ele>
        <time>2014-03-29T15:27:14Z</time>
      </trkpt>
      <trkpt lat="37.812276500" lon="-1.887001300">
        <ele>695.000000</ele>
        <time>2014-03-29T15:27:15Z</time>
      </trkpt>
      <trkpt lat="37.812365800" lon="-1.886938700">
        <ele>695.000000</ele>
        <time>2014-03-29T15:27:16Z</time>
      </trkpt>
      <trkpt lat="37.812458900" lon="-1.886876400">
        <ele>695.000000</ele>
        <time>2014-03-29T15:27:17Z</time>
      </trkpt>
      <trkpt lat="37.812553100" lon="-1.886816700">
        <ele>694.000000</ele>
        <time>2014-03-29T15:27:18Z</time>
      </trkpt>
      <trkpt lat="37.812646000" lon="-1.886758600">
        <ele>694.000000</ele>
        <time>2014-03-29T15:27:19Z</time>
      </trkpt>
      <trkpt lat="37.812735000" lon="-1.886698300">
        <ele>694.000000</ele>
        <time>2014-03-29T15:27:20Z</time>
      </trkpt>
      <trkpt lat="37.812820100" lon="-1.886639000">
        <ele>694.000000</ele>
        <time>2014-03-29T15:27:21Z</time>
      </trkpt>
      <trkpt lat="37.812904700" lon="-1.886580600">
        <ele>694.000000</ele>
        <time>2014-03-29T15:27:22Z</time>
      </trkpt>
      <trkpt lat="37.812987100" lon="-1.886523700">
        <ele>694.000000</ele>
        <time>2014-03-29T15:27:23Z</time>
      </trkpt>
      <trkpt lat="37.813068500" lon="-1.886469100">
        <ele>694.000000</ele>
        <time>2014-03-29T15:27:24Z</time>
      </trkpt>
      <trkpt lat="37.813153100" lon="-1.886414000">
        <ele>694.000000</ele>
        <time>2014-03-29T15:27:25Z</time>
      </trkpt>
      <trkpt lat="37.813238500" lon="-1.886357500">
        <ele>694.000000</ele>
        <time>2014-03-29T15:27:26Z</time>
      </trkpt>
      <trkpt lat="37.813321300" lon="-1.886298200">
        <ele>694.000000</ele>
        <time>2014-03-29T15:27:27Z</time>
      </trkpt>
      <trkpt lat="37.813404300" lon="-1.886239200">
        <ele>694.000000</ele>
        <time>2014-03-29T15:27:28Z</time>
      </trkpt>
      <trkpt lat="37.813487300" lon="-1.886185700">
        <ele>694.000000</ele>
        <time>2014-03-29T15:27:29Z</time>
      </trkpt>
      <trkpt lat="37.813570100" lon="-1.886134000">
        <ele>694.000000</ele>
        <time>2014-03-29T15:27:30Z</time>
      </trkpt>
      <trkpt lat="37.813653600" lon="-1.886082300">
        <ele>694.000000</ele>
        <time>2014-03-29T15:27:31Z</time>
      </trkpt>
      <trkpt lat="37.813737300" lon="-1.886030800">
        <ele>694.000000</ele>
        <time>2014-03-29T15:27:32Z</time>
      </trkpt>
      <trkpt lat="37.813820800" lon="-1.885977800">
        <ele>695.000000</ele>
        <time>2014-03-29T15:27:33Z</time>
      </trkpt>
      <trkpt lat="37.813903500" lon="-1.885924200">
        <ele>695.000000</ele>
        <time>2014-03-29T15:27:34Z</time>
      </trkpt>
      <trkpt lat="37.813983900" lon="-1.885872300">
        <ele>695.000000</ele>
        <time>2014-03-29T15:27:35Z</time>
      </trkpt>
      <trkpt lat="37.814067200" lon="-1.885823200">
        <ele>695.000000</ele>
        <time>2014-03-29T15:27:36Z</time>
      </trkpt>
      <trkpt lat="37.814151400" lon="-1.885766600">
        <ele>696.000000</ele>
        <time>2014-03-29T15:27:37Z</time>
      </trkpt>
      <trkpt lat="37.814236300" lon="-1.885705500">
        <ele>696.000000</ele>
        <time>2014-03-29T15:27:38Z</time>
      </trkpt>
      <trkpt lat="37.814321900" lon="-1.885646100">
        <ele>696.000000</ele>
        <time>2014-03-29T15:27:39Z</time>
      </trkpt>
      <trkpt lat="37.814415700" lon="-1.885588000">
        <ele>696.000000</ele>
        <time>2014-03-29T15:27:40Z</time>
      </trkpt>
      <trkpt lat="37.814506900" lon="-1.885536500">
        <ele>697.000000</ele>
        <time>2014-03-29T15:27:41Z</time>
      </trkpt>
      <trkpt lat="37.814600500" lon="-1.885494900">
        <ele>697.000000</ele>
        <time>2014-03-29T15:27:42Z</time>
      </trkpt>
      <trkpt lat="37.814699900" lon="-1.885459600">
        <ele>697.000000</ele>
        <time>2014-03-29T15:27:43Z</time>
      </trkpt>
      <trkpt lat="37.814800800" lon="-1.885439200">
        <ele>697.000000</ele>
        <time>2014-03-29T15:27:44Z</time>
      </trkpt>
      <trkpt lat="37.814907700" lon="-1.885428700">
        <ele>698.000000</ele>
        <time>2014-03-29T15:27:45Z</time>
      </trkpt>
      <trkpt lat="37.815020200" lon="-1.885419800">
        <ele>698.000000</ele>
        <time>2014-03-29T15:27:46Z</time>
      </trkpt>
      <trkpt lat="37.815135600" lon="-1.885408800">
        <ele>698.000000</ele>
        <time>2014-03-29T15:27:47Z</time>
      </trkpt>
      <trkpt lat="37.815251300" lon="-1.885394600">
        <ele>698.000000</ele>
        <time>2014-03-29T15:27:48Z</time>
      </trkpt>
      <trkpt lat="37.815368400" lon="-1.885381900">
        <ele>699.000000</ele>
        <time>2014-03-29T15:27:49Z</time>
      </trkpt>
      <trkpt lat="37.815487400" lon="-1.885370200">
        <ele>699.000000</ele>
        <time>2014-03-29T15:27:50Z</time>
      </trkpt>
      <trkpt lat="37.815607700" lon="-1.885357900">
        <ele>699.000000</ele>
        <time>2014-03-29T15:27:51Z</time>
      </trkpt>
      <trkpt lat="37.815728000" lon="-1.885344900">
        <ele>699.000000</ele>
        <time>2014-03-29T15:27:52Z</time>
      </trkpt>
      <trkpt lat="37.815844600" lon="-1.885330700">
        <ele>699.000000</ele>
        <time>2014-03-29T15:27:53Z</time>
      </trkpt>
      <trkpt lat="37.815966400" lon="-1.885314600">
        <ele>699.000000</ele>
        <time>2014-03-29T15:27:54Z</time>
      </trkpt>
      <trkpt lat="37.816086400" lon="-1.885298900">
        <ele>699.000000</ele>
        <time>2014-03-29T15:27:55Z</time>
      </trkpt>
      <trkpt lat="37.816210700" lon="-1.885280700">
        <ele>699.000000</ele>
        <time>2014-03-29T15:27:56Z</time>
      </trkpt>
      <trkpt lat="37.816338700" lon="-1.885262700">
        <ele>699.000000</ele>
        <time>2014-03-29T15:27:57Z</time>
      </trkpt>
      <trkpt lat="37.816463100" lon="-1.885242700">
        <ele>699.000000</ele>
        <time>2014-03-29T15:27:58Z</time>
      </trkpt>
      <trkpt lat="37.816588200" lon="-1.885221900">
        <ele>699.000000</ele>
        <time>2014-03-29T15:27:59Z</time>
      </trkpt>
      <trkpt lat="37.816710500" lon="-1.885198600">
        <ele>699.000000</ele>
        <time>2014-03-29T15:28:00Z</time>
      </trkpt>
      <trkpt lat="37.816829100" lon="-1.885169800">
        <ele>698.000000</ele>
        <time>2014-03-29T15:28:01Z</time>
      </trkpt>
      <trkpt lat="37.816943200" lon="-1.885136300">
        <ele>698.000000</ele>
        <time>2014-03-29T15:28:02Z</time>
      </trkpt>
      <trkpt lat="37.817049000" lon="-1.885096200">
        <ele>698.000000</ele>
        <time>2014-03-29T15:28:03Z</time>
      </trkpt>
      <trkpt lat="37.817156900" lon="-1.885057200">
        <ele>698.000000</ele>
        <time>2014-03-29T15:28:04Z</time>
      </trkpt>
      <trkpt lat="37.817259400" lon="-1.885021300">
        <ele>698.000000</ele>
        <time>2014-03-29T15:28:05Z</time>
      </trkpt>
      <trkpt lat="37.817359500" lon="-1.884985800">
        <ele>698.000000</ele>
        <time>2014-03-29T15:28:06Z</time>
      </trkpt>
      <trkpt lat="37.817451700" lon="-1.884954500">
        <ele>698.000000</ele>
        <time>2014-03-29T15:28:07Z</time>
      </trkpt>
      <trkpt lat="37.817539600" lon="-1.884924800">
        <ele>698.000000</ele>
        <time>2014-03-29T15:28:08Z</time>
      </trkpt>
      <trkpt lat="37.817626800" lon="-1.884896300">
        <ele>698.000000</ele>
        <time>2014-03-29T15:28:09Z</time>
      </trkpt>
      <trkpt lat="37.817715500" lon="-1.884870000">
        <ele>698.000000</ele>
        <time>2014-03-29T15:28:10Z</time>
      </trkpt>
      <trkpt lat="37.817801500" lon="-1.884849300">
        <ele>698.000000</ele>
        <time>2014-03-29T15:28:11Z</time>
      </trkpt>
      <trkpt lat="37.817886700" lon="-1.884825500">
        <ele>698.000000</ele>
        <time>2014-03-29T15:28:12Z</time>
      </trkpt>
      <trkpt lat="37.817975400" lon="-1.884800500">
        <ele>699.000000</ele>
        <time>2014-03-29T15:28:13Z</time>
      </trkpt>
      <trkpt lat="37.818070800" lon="-1.884776900">
        <ele>699.000000</ele>
        <time>2014-03-29T15:28:14Z</time>
      </trkpt>
      <trkpt lat="37.818167400" lon="-1.884750300">
        <ele>699.000000</ele>
        <time>2014-03-29T15:28:15Z</time>
      </trkpt>
      <trkpt lat="37.818263600" lon="-1.884722800">
        <ele>699.000000</ele>
        <time>2014-03-29T15:28:16Z</time>
      </trkpt>
      <trkpt lat="37.818357100" lon="-1.884693500">
        <ele>700.000000</ele>
        <time>2014-03-29T15:28:17Z</time>
      </trkpt>
      <trkpt lat="37.818449900" lon="-1.884665500">
        <ele>700.000000</ele>
        <time>2014-03-29T15:28:18Z</time>
      </trkpt>
      <trkpt lat="37.818541400" lon="-1.884639700">
        <ele>700.000000</ele>
        <time>2014-03-29T15:28:19Z</time>
      </trkpt>
      <trkpt lat="37.818634400" lon="-1.884614300">
        <ele>700.000000</ele>
        <time>2014-03-29T15:28:20Z</time>
      </trkpt>
      <trkpt lat="37.818731300" lon="-1.884590700">
        <ele>701.000000</ele>
        <time>2014-03-29T15:28:21Z</time>
      </trkpt>
      <trkpt lat="37.818837500" lon="-1.884563800">
        <ele>701.000000</ele>
        <time>2014-03-29T15:28:22Z</time>
      </trkpt>
      <trkpt lat="37.818944600" lon="-1.884538200">
        <ele>701.000000</ele>
        <time>2014-03-29T15:28:23Z</time>
      </trkpt>
      <trkpt lat="37.819046700" lon="-1.884512600">
        <ele>701.000000</ele>
        <time>2014-03-29T15:28:24Z</time>
      </trkpt>
      <trkpt lat="37.819145500" lon="-1.884487400">
        <ele>702.000000</ele>
        <time>2014-03-29T15:28:25Z</time>
      </trkpt>
      <trkpt lat="37.819250800" lon="-1.884464400">
        <ele>702.000000</ele>
        <time>2014-03-29T15:28:26Z</time>
      </trkpt>
      <trkpt lat="37.819357100" lon="-1.884442500">
        <ele>702.000000</ele>
        <time>2014-03-29T15:28:27Z</time>
      </trkpt>
      <trkpt lat="37.819466800" lon="-1.884419700">
        <ele>702.000000</ele>
        <time>2014-03-29T15:28:28Z</time>
      </trkpt>
      <trkpt lat="37.819579300" lon="-1.884401300">
        <ele>702.000000</ele>
        <time>2014-03-29T15:28:29Z</time>
      </trkpt>
      <trkpt lat="37.819697400" lon="-1.884391100">
        <ele>703.000000</ele>
        <time>2014-03-29T15:28:30Z</time>
      </trkpt>
      <trkpt lat="37.819818000" lon="-1.884379700">
        <ele>703.000000</ele>
        <time>2014-03-29T15:28:31Z</time>
      </trkpt>
      <trkpt lat="37.819941800" lon="-1.884366000">
        <ele>703.000000</ele>
        <time>2014-03-29T15:28:32Z</time>
      </trkpt>
      <trkpt lat="37.820066800" lon="-1.884355600">
        <ele>703.000000</ele>
        <time>2014-03-29T15:28:33Z</time>
      </trkpt>
      <trkpt lat="37.820193900" lon="-1.884346200">
        <ele>703.000000</ele>
        <time>2014-03-29T15:28:34Z</time>
      </trkpt>
      <trkpt lat="37.820316400" lon="-1.884337200">
        <ele>703.000000</ele>
        <time>2014-03-29T15:28:35Z</time>
      </trkpt>
      <trkpt lat="37.820439100" lon="-1.884327900">
        <ele>703.000000</ele>
        <time>2014-03-29T15:28:36Z</time>
      </trkpt>
      <trkpt lat="37.820564200" lon="-1.884319200">
        <ele>703.000000</ele>
        <time>2014-03-29T15:28:37Z</time>
      </trkpt>
      <trkpt lat="37.820685800" lon="-1.884309000">
        <ele>703.000000</ele>
        <time>2014-03-29T15:28:38Z</time>
      </trkpt>
      <trkpt lat="37.820798800" lon="-1.884298000">
        <ele>703.000000</ele>
        <time>2014-03-29T15:28:39Z</time>
      </trkpt>
      <trkpt lat="37.820913800" lon="-1.884285800">
        <ele>702.000000</ele>
        <time>2014-03-29T15:28:40Z</time>
      </trkpt>
      <trkpt lat="37.821030100" lon="-1.884270000">
        <ele>702.000000</ele>
        <time>2014-03-29T15:28:41Z</time>
      </trkpt>
      <trkpt lat="37.821146400" lon="-1.884248100">
        <ele>702.000000</ele>
        <time>2014-03-29T15:28:42Z</time>
      </trkpt>
      <trkpt lat="37.821266500" lon="-1.884218600">
        <ele>702.000000</ele>
        <time>2014-03-29T15:28:43Z</time>
      </trkpt>
      <trkpt lat="37.821384400" lon="-1.884181600">
        <ele>702.000000</ele>
        <time>2014-03-29T15:28:44Z</time>
      </trkpt>
      <trkpt lat="37.821498300" lon="-1.884139200">
        <ele>702.000000</ele>
        <time>2014-03-29T15:28:45Z</time>
      </trkpt>
      <trkpt lat="37.821614200" lon="-1.884093400">
        <ele>702.000000</ele>
        <time>2014-03-29T15:28:46Z</time>
      </trkpt>
      <trkpt lat="37.821728500" lon="-1.884048600">
        <ele>702.000000</ele>
        <time>2014-03-29T15:28:47Z</time>
      </trkpt>
      <trkpt lat="37.821842900" lon="-1.884006700">
        <ele>702.000000</ele>
        <time>2014-03-29T15:28:48Z</time>
      </trkpt>
      <trkpt lat="37.821957800" lon="-1.883962600">
        <ele>702.000000</ele>
        <time>2014-03-29T15:28:49Z</time>
      </trkpt>
      <trkpt lat="37.822070700" lon="-1.883917000">
        <ele>702.000000</ele>
        <time>2014-03-29T15:28:50Z</time>
      </trkpt>
      <trkpt lat="37.822181500" lon="-1.883872700">
        <ele>702.000000</ele>
        <time>2014-03-29T15:28:51Z</time>
      </trkpt>
      <trkpt lat="37.822290900" lon="-1.883827800">
        <ele>702.000000</ele>
        <time>2014-03-29T15:28:52Z</time>
      </trkpt>
      <trkpt lat="37.822402300" lon="-1.883782900">
        <ele>701.000000</ele>
        <time>2014-03-29T15:28:53Z</time>
      </trkpt>
      <trkpt lat="37.822514600" lon="-1.883739600">
        <ele>701.000000</ele>
        <time>2014-03-29T15:28:54Z</time>
      </trkpt>
      <trkpt lat="37.822625400" lon="-1.883694500">
        <ele>701.000000</ele>
        <time>2014-03-29T15:28:55Z</time>
      </trkpt>
      <trkpt lat="37.822739100" lon="-1.883648100">
        <ele>701.000000</ele>
        <time>2014-03-29T15:28:56Z</time>
      </trkpt>
      <trkpt lat="37.822855200" lon="-1.883601900">
        <ele>701.000000</ele>
        <time>2014-03-29T15:28:57Z</time>
      </trkpt>
      <trkpt lat="37.822970300" lon="-1.883555600">
        <ele>701.000000</ele>
        <time>2014-03-29T15:28:58Z</time>
      </trkpt>
      <trkpt lat="37.823085300" lon="-1.883508800">
        <ele>701.000000</ele>
        <time>2014-03-29T15:28:59Z</time>
      </trkpt>
      <trkpt lat="37.823203500" lon="-1.883463000">
        <ele>701.000000</ele>
        <time>2014-03-29T15:29:00Z</time>
      </trkpt>
      <trkpt lat="37.823319200" lon="-1.883417000">
        <ele>702.000000</ele>
        <time>2014-03-29T15:29:01Z</time>
      </trkpt>
      <trkpt lat="37.823434000" lon="-1.883368700">
        <ele>702.000000</ele>
        <time>2014-03-29T15:29:02Z</time>
      </trkpt>
      <trkpt lat="37.823550700" lon="-1.883320900">
        <ele>702.000000</ele>
        <time>2014-03-29T15:29:03Z</time>
      </trkpt>
      <trkpt lat="37.823667700" lon="-1.883273500">
        <ele>702.000000</ele>
        <time>2014-03-29T15:29:04Z</time>
      </trkpt>
      <trkpt lat="37.823781100" lon="-1.883223700">
        <ele>702.000000</ele>
        <time>2014-03-29T15:29:05Z</time>
      </trkpt>
      <trkpt lat="37.823899000" lon="-1.883174900">
        <ele>702.000000</ele>
        <time>2014-03-29T15:29:06Z</time>
      </trkpt>
      <trkpt lat="37.824018100" lon="-1.883127500">
        <ele>702.000000</ele>
        <time>2014-03-29T15:29:07Z</time>
      </trkpt>
      <trkpt lat="37.824141800" lon="-1.883082200">
        <ele>702.000000</ele>
        <time>2014-03-29T15:29:08Z</time>
      </trkpt>
      <trkpt lat="37.824270300" lon="-1.883039000">
        <ele>702.000000</ele>
        <time>2014-03-29T15:29:09Z</time>
      </trkpt>
      <trkpt lat="37.824391400" lon="-1.882990800">
        <ele>702.000000</ele>
        <time>2014-03-29T15:29:10Z</time>
      </trkpt>
      <trkpt lat="37.824510600" lon="-1.882942000">
        <ele>702.000000</ele>
        <time>2014-03-29T15:29:11Z</time>
      </trkpt>
      <trkpt lat="37.824630700" lon="-1.882896100">
        <ele>702.000000</ele>
        <time>2014-03-29T15:29:12Z</time>
      </trkpt>
      <trkpt lat="37.824749000" lon="-1.882850500">
        <ele>702.000000</ele>
        <time>2014-03-29T15:29:13Z</time>
      </trkpt>
      <trkpt lat="37.824864600" lon="-1.882807200">
        <ele>702.000000</ele>
        <time>2014-03-29T15:29:14Z</time>
      </trkpt>
      <trkpt lat="37.824978700" lon="-1.882770100">
        <ele>702.000000</ele>
        <time>2014-03-29T15:29:15Z</time>
      </trkpt>
      <trkpt lat="37.825094500" lon="-1.882742300">
        <ele>702.000000</ele>
        <time>2014-03-29T15:29:16Z</time>
      </trkpt>
      <trkpt lat="37.825209700" lon="-1.882723500">
        <ele>702.000000</ele>
        <time>2014-03-29T15:29:17Z</time>
      </trkpt>
      <trkpt lat="37.825330200" lon="-1.882716100">
        <ele>702.000000</ele>
        <time>2014-03-29T15:29:18Z</time>
      </trkpt>
      <trkpt lat="37.825447600" lon="-1.882715300">
        <ele>702.000000</ele>
        <time>2014-03-29T15:29:19Z</time>
      </trkpt>
      <trkpt lat="37.825568100" lon="-1.882718800">
        <ele>702.000000</ele>
        <time>2014-03-29T15:29:20Z</time>
      </trkpt>
      <trkpt lat="37.825683900" lon="-1.882724500">
        <ele>702.000000</ele>
        <time>2014-03-29T15:29:21Z</time>
      </trkpt>
      <trkpt lat="37.825797600" lon="-1.882729600">
        <ele>703.000000</ele>
        <time>2014-03-29T15:29:22Z</time>
      </trkpt>
      <trkpt lat="37.825908100" lon="-1.882733900">
        <ele>703.000000</ele>
        <time>2014-03-29T15:29:23Z</time>
      </trkpt>
      <trkpt lat="37.826015400" lon="-1.882735200">
        <ele>703.000000</ele>
        <time>2014-03-29T15:29:24Z</time>
      </trkpt>
      <trkpt lat="37.826123000" lon="-1.882730700">
        <ele>703.000000</ele>
        <time>2014-03-29T15:29:25Z</time>
      </trkpt>
      <trkpt lat="37.826229400" lon="-1.882720100">
        <ele>703.000000</ele>
        <time>2014-03-29T15:29:26Z</time>
      </trkpt>
      <trkpt lat="37.826331300" lon="-1.882700500">
        <ele>703.000000</ele>
        <time>2014-03-29T15:29:27Z</time>
      </trkpt>
      <trkpt lat="37.826431000" lon="-1.882678800">
        <ele>703.000000</ele>
        <time>2014-03-29T15:29:28Z</time>
      </trkpt>
      <trkpt lat="37.826529600" lon="-1.882656300">
        <ele>704.000000</ele>
        <time>2014-03-29T15:29:29Z</time>
      </trkpt>
      <trkpt lat="37.826626900" lon="-1.882632000">
        <ele>704.000000</ele>
        <time>2014-03-29T15:29:30Z</time>
      </trkpt>
      <trkpt lat="37.826723100" lon="-1.882606700">
        <ele>704.000000</ele>
        <time>2014-03-29T15:29:31Z</time>
      </trkpt>
      <trkpt lat="37.826821300" lon="-1.882582600">
        <ele>704.000000</ele>
        <time>2014-03-29T15:29:32Z</time>
      </trkpt>
      <trkpt lat="37.826918200" lon="-1.882562200">
        <ele>704.000000</ele>
        <time>2014-03-29T15:29:33Z</time>
      </trkpt>
      <trkpt lat="37.827015800" lon="-1.882540700">
        <ele>704.000000</ele>
        <time>2014-03-29T15:29:34Z</time>
      </trkpt>
      <trkpt lat="37.827112000" lon="-1.882520100">
        <ele>705.000000</ele>
        <time>2014-03-29T15:29:35Z</time>
      </trkpt>
      <trkpt lat="37.827209100" lon="-1.882497000">
        <ele>705.000000</ele>
        <time>2014-03-29T15:29:36Z</time>
      </trkpt>
      <trkpt lat="37.827302400" lon="-1.882475600">
        <ele>705.000000</ele>
        <time>2014-03-29T15:29:37Z</time>
      </trkpt>
      <trkpt lat="37.827395200" lon="-1.882454100">
        <ele>705.000000</ele>
        <time>2014-03-29T15:29:38Z</time>
      </trkpt>
      <trkpt lat="37.827489700" lon="-1.882432200">
        <ele>705.000000</ele>
        <time>2014-03-29T15:29:39Z</time>
      </trkpt>
      <trkpt lat="37.827580600" lon="-1.882409000">
        <ele>705.000000</ele>
        <time>2014-03-29T15:29:40Z</time>
      </trkpt>
      <trkpt lat="37.827672100" lon="-1.882387400">
        <ele>706.000000</ele>
        <time>2014-03-29T15:29:41Z</time>
      </trkpt>
      <trkpt lat="37.827762000" lon="-1.882365200">
        <ele>706.000000</ele>
        <time>2014-03-29T15:29:42Z</time>
      </trkpt>
      <trkpt lat="37.827852700" lon="-1.882342900">
        <ele>706.000000</ele>
        <time>2014-03-29T15:29:43Z</time>
      </trkpt>
      <trkpt lat="37.827940100" lon="-1.882319700">
        <ele>706.000000</ele>
        <time>2014-03-29T15:29:44Z</time>
      </trkpt>
      <trkpt lat="37.828027600" lon="-1.882298000">
        <ele>706.000000</ele>
        <time>2014-03-29T15:29:45Z</time>
      </trkpt>
      <trkpt lat="37.828115700" lon="-1.882278500">
        <ele>706.000000</ele>
        <time>2014-03-29T15:29:46Z</time>
      </trkpt>
      <trkpt lat="37.828200300" lon="-1.882258400">
        <ele>706.000000</ele>
        <time>2014-03-29T15:29:47Z</time>
      </trkpt>
      <trkpt lat="37.828287300" lon="-1.882239500">
        <ele>707.000000</ele>
        <time>2014-03-29T15:29:48Z</time>
      </trkpt>
      <trkpt lat="37.828373300" lon="-1.882218400">
        <ele>707.000000</ele>
        <time>2014-03-29T15:29:49Z</time>
      </trkpt>
      <trkpt lat="37.828459800" lon="-1.882200100">
        <ele>707.000000</ele>
        <time>2014-03-29T15:29:50Z</time>
      </trkpt>
      <trkpt lat="37.828550400" lon="-1.882182400">
        <ele>707.000000</ele>
        <time>2014-03-29T15:29:51Z</time>
      </trkpt>
      <trkpt lat="37.828642500" lon="-1.882167600">
        <ele>707.000000</ele>
        <time>2014-03-29T15:29:52Z</time>
      </trkpt>
      <trkpt lat="37.828733900" lon="-1.882160300">
        <ele>708.000000</ele>
        <time>2014-03-29T15:29:53Z</time>
      </trkpt>
      <trkpt lat="37.828816900" lon="-1.882159000">
        <ele>708.000000</ele>
        <time>2014-03-29T15:29:54Z</time>
      </trkpt>
      <trkpt lat="37.828901900" lon="-1.882169200">
        <ele>709.000000</ele>
        <time>2014-03-29T15:29:55Z</time>
      </trkpt>
      <trkpt lat="37.828986700" lon="-1.882178900">
        <ele>709.000000</ele>
        <time>2014-03-29T15:29:56Z</time>
      </trkpt>
      <trkpt lat="37.829068600" lon="-1.882191500">
        <ele>709.000000</ele>
        <time>2014-03-29T15:29:57Z</time>
      </trkpt>
      <trkpt lat="37.829149300" lon="-1.882205400">
        <ele>709.000000</ele>
        <time>2014-03-29T15:29:58Z</time>
      </trkpt>
      <trkpt lat="37.829234100" lon="-1.882216300">
        <ele>710.000000</ele>
        <time>2014-03-29T15:29:59Z</time>
      </trkpt>
      <trkpt lat="37.829318500" lon="-1.882227500">
        <ele>710.000000</ele>
        <time>2014-03-29T15:30:00Z</time>
      </trkpt>
      <trkpt lat="37.829405600" lon="-1.882242600">
        <ele>710.000000</ele>
        <time>2014-03-29T15:30:01Z</time>
      </trkpt>
      <trkpt lat="37.829492500" lon="-1.882261700">
        <ele>710.000000</ele>
        <time>2014-03-29T15:30:02Z</time>
      </trkpt>
      <trkpt lat="37.829581700" lon="-1.882281700">
        <ele>711.000000</ele>
        <time>2014-03-29T15:30:03Z</time>
      </trkpt>
      <trkpt lat="37.829668800" lon="-1.882301300">
        <ele>711.000000</ele>
        <time>2014-03-29T15:30:04Z</time>
      </trkpt>
      <trkpt lat="37.829759000" lon="-1.882323200">
        <ele>711.000000</ele>
        <time>2014-03-29T15:30:05Z</time>
      </trkpt>
      <trkpt lat="37.829850300" lon="-1.882344400">
        <ele>711.000000</ele>
        <time>2014-03-29T15:30:06Z</time>
      </trkpt>
      <trkpt lat="37.829941500" lon="-1.882361600">
        <ele>712.000000</ele>
        <time>2014-03-29T15:30:07Z</time>
      </trkpt>
      <trkpt lat="37.830038300" lon="-1.882373500">
        <ele>712.000000</ele>
        <time>2014-03-29T15:30:08Z</time>
      </trkpt>
      <trkpt lat="37.830136200" lon="-1.882382600">
        <ele>712.000000</ele>
        <time>2014-03-29T15:30:09Z</time>
      </trkpt>
      <trkpt lat="37.830237400" lon="-1.882388900">
        <ele>712.000000</ele>
        <time>2014-03-29T15:30:10Z</time>
      </trkpt>
      <trkpt lat="37.830339300" lon="-1.882396400">
        <ele>712.000000</ele>
        <time>2014-03-29T15:30:11Z</time>
      </trkpt>
      <trkpt lat="37.830442900" lon="-1.882405600">
        <ele>712.000000</ele>
        <time>2014-03-29T15:30:12Z</time>
      </trkpt>
      <trkpt lat="37.830548400" lon="-1.882413800">
        <ele>712.000000</ele>
        <time>2014-03-29T15:30:13Z</time>
      </trkpt>
      <trkpt lat="37.830655800" lon="-1.882415700">
        <ele>712.000000</ele>
        <time>2014-03-29T15:30:14Z</time>
      </trkpt>
      <trkpt lat="37.830765900" lon="-1.882413400">
        <ele>712.000000</ele>
        <time>2014-03-29T15:30:15Z</time>
      </trkpt>
      <trkpt lat="37.830876800" lon="-1.882407200">
        <ele>712.000000</ele>
        <time>2014-03-29T15:30:16Z</time>
      </trkpt>
      <trkpt lat="37.830993500" lon="-1.882396400">
        <ele>713.000000</ele>
        <time>2014-03-29T15:30:17Z</time>
      </trkpt>
      <trkpt lat="37.831108800" lon="-1.882379500">
        <ele>713.000000</ele>
        <time>2014-03-29T15:30:18Z</time>
      </trkpt>
      <trkpt lat="37.831220000" lon="-1.882355500">
        <ele>713.000000</ele>
        <time>2014-03-29T15:30:19Z</time>
      </trkpt>
      <trkpt lat="37.831330100" lon="-1.882323400">
        <ele>713.000000</ele>
        <time>2014-03-29T15:30:20Z</time>
      </trkpt>
      <trkpt lat="37.831436900" lon="-1.882277600">
        <ele>713.000000</ele>
        <time>2014-03-29T15:30:21Z</time>
      </trkpt>
      <trkpt lat="37.831539900" lon="-1.882219900">
        <ele>713.000000</ele>
        <time>2014-03-29T15:30:22Z</time>
      </trkpt>
      <trkpt lat="37.831639800" lon="-1.882150400">
        <ele>713.000000</ele>
        <time>2014-03-29T15:30:23Z</time>
      </trkpt>
      <trkpt lat="37.831729200" lon="-1.882066400">
        <ele>713.000000</ele>
        <time>2014-03-29T15:30:24Z</time>
      </trkpt>
      <trkpt lat="37.831815700" lon="-1.881969400">
        <ele>714.000000</ele>
        <time>2014-03-29T15:30:25Z</time>
      </trkpt>
      <trkpt lat="37.831899700" lon="-1.881868700">
        <ele>714.000000</ele>
        <time>2014-03-29T15:30:26Z</time>
      </trkpt>
      <trkpt lat="37.831977100" lon="-1.881769500">
        <ele>714.000000</ele>
        <time>2014-03-29T15:30:27Z</time>
      </trkpt>
      <trkpt lat="37.832054900" lon="-1.881666500">
        <ele>714.000000</ele>
        <time>2014-03-29T15:30:28Z</time>
      </trkpt>
      <trkpt lat="37.832133700" lon="-1.881562100">
        <ele>714.000000</ele>
        <time>2014-03-29T15:30:29Z</time>
      </trkpt>
      <trkpt lat="37.832210300" lon="-1.881460500">
        <ele>715.000000</ele>
        <time>2014-03-29T15:30:30Z</time>
      </trkpt>
      <trkpt lat="37.832288600" lon="-1.881360500">
        <ele>715.000000</ele>
        <time>2014-03-29T15:30:31Z</time>
      </trkpt>
      <trkpt lat="37.832367100" lon="-1.881258000">
        <ele>715.000000</ele>
        <time>2014-03-29T15:30:32Z</time>
      </trkpt>
      <trkpt lat="37.832449000" lon="-1.881157800">
        <ele>715.000000</ele>
        <time>2014-03-29T15:30:33Z</time>
      </trkpt>
      <trkpt lat="37.832532000" lon="-1.881063400">
        <ele>715.000000</ele>
        <time>2014-03-29T15:30:34Z</time>
      </trkpt>
      <trkpt lat="37.832619200" lon="-1.880972200">
        <ele>715.000000</ele>
        <time>2014-03-29T15:30:35Z</time>
      </trkpt>
      <trkpt lat="37.832708600" lon="-1.880889100">
        <ele>715.000000</ele>
        <time>2014-03-29T15:30:36Z</time>
      </trkpt>
      <trkpt lat="37.832799700" lon="-1.880815100">
        <ele>715.000000</ele>
        <time>2014-03-29T15:30:37Z</time>
      </trkpt>
      <trkpt lat="37.832889000" lon="-1.880746700">
        <ele>716.000000</ele>
        <time>2014-03-29T15:30:38Z</time>
      </trkpt>
      <trkpt lat="37.832982600" lon="-1.880685900">
        <ele>716.000000</ele>
        <time>2014-03-29T15:30:39Z</time>
      </trkpt>
      <trkpt lat="37.833077800" lon="-1.880630200">
        <ele>716.000000</ele>
        <time>2014-03-29T15:30:40Z</time>
      </trkpt>
      <trkpt lat="37.833167000" lon="-1.880570100">
        <ele>716.000000</ele>
        <time>2014-03-29T15:30:41Z</time>
      </trkpt>
      <trkpt lat="37.833259900" lon="-1.880515100">
        <ele>716.000000</ele>
        <time>2014-03-29T15:30:42Z</time>
      </trkpt>
      <trkpt lat="37.833351400" lon="-1.880464500">
        <ele>716.000000</ele>
        <time>2014-03-29T15:30:43Z</time>
      </trkpt>
      <trkpt lat="37.833440000" lon="-1.880416300">
        <ele>716.000000</ele>
        <time>2014-03-29T15:30:44Z</time>
      </trkpt>
      <trkpt lat="37.833531100" lon="-1.880375300">
        <ele>717.000000</ele>
        <time>2014-03-29T15:30:45Z</time>
      </trkpt>
      <trkpt lat="37.833624400" lon="-1.880343000">
        <ele>717.000000</ele>
        <time>2014-03-29T15:30:46Z</time>
      </trkpt>
      <trkpt lat="37.833714900" lon="-1.880313500">
        <ele>717.000000</ele>
        <time>2014-03-29T15:30:47Z</time>
      </trkpt>
      <trkpt lat="37.833812600" lon="-1.880290100">
        <ele>717.000000</ele>
        <time>2014-03-29T15:30:48Z</time>
      </trkpt>
      <trkpt lat="37.833909400" lon="-1.880273400">
        <ele>718.000000</ele>
        <time>2014-03-29T15:30:49Z</time>
      </trkpt>
      <trkpt lat="37.834006800" lon="-1.880267300">
        <ele>718.000000</ele>
        <time>2014-03-29T15:30:50Z</time>
      </trkpt>
      <trkpt lat="37.834107800" lon="-1.880268700">
        <ele>718.000000</ele>
        <time>2014-03-29T15:30:51Z</time>
      </trkpt>
      <trkpt lat="37.834204400" lon="-1.880275000">
        <ele>719.000000</ele>
        <time>2014-03-29T15:30:52Z</time>
      </trkpt>
      <trkpt lat="37.834300100" lon="-1.880280000">
        <ele>719.000000</ele>
        <time>2014-03-29T15:30:53Z</time>
      </trkpt>
      <trkpt lat="37.834401500" lon="-1.880280700">
        <ele>719.000000</ele>
        <time>2014-03-29T15:30:54Z</time>
      </trkpt>
      <trkpt lat="37.834499400" lon="-1.880277700">
        <ele>719.000000</ele>
        <time>2014-03-29T15:30:55Z</time>
      </trkpt>
      <trkpt lat="37.834599000" lon="-1.880267500">
        <ele>720.000000</ele>
        <time>2014-03-29T15:30:56Z</time>
      </trkpt>
      <trkpt lat="37.834696800" lon="-1.880247700">
        <ele>720.000000</ele>
        <time>2014-03-29T15:30:57Z</time>
      </trkpt>
      <trkpt lat="37.834794100" lon="-1.880216700">
        <ele>720.000000</ele>
        <time>2014-03-29T15:30:58Z</time>
      </trkpt>
      <trkpt lat="37.834884800" lon="-1.880180100">
        <ele>720.000000</ele>
        <time>2014-03-29T15:30:59Z</time>
      </trkpt>
      <trkpt lat="37.834969900" lon="-1.880136700">
        <ele>720.000000</ele>
        <time>2014-03-29T15:31:00Z</time>
      </trkpt>
      <trkpt lat="37.835053600" lon="-1.880088900">
        <ele>721.000000</ele>
        <time>2014-03-29T15:31:01Z</time>
      </trkpt>
      <trkpt lat="37.835136400" lon="-1.880038700">
        <ele>721.000000</ele>
        <time>2014-03-29T15:31:02Z</time>
      </trkpt>
      <trkpt lat="37.835216400" lon="-1.879987600">
        <ele>721.000000</ele>
        <time>2014-03-29T15:31:03Z</time>
      </trkpt>
      <trkpt lat="37.835296400" lon="-1.879938500">
        <ele>721.000000</ele>
        <time>2014-03-29T15:31:04Z</time>
      </trkpt>
      <trkpt lat="37.835374900" lon="-1.879886700">
        <ele>721.000000</ele>
        <time>2014-03-29T15:31:05Z</time>
      </trkpt>
      <trkpt lat="37.835451600" lon="-1.879829500">
        <ele>721.000000</ele>
        <time>2014-03-29T15:31:06Z</time>
      </trkpt>
      <trkpt lat="37.835523200" lon="-1.879770700">
        <ele>721.000000</ele>
        <time>2014-03-29T15:31:07Z</time>
      </trkpt>
      <trkpt lat="37.835594000" lon="-1.879715900">
        <ele>721.000000</ele>
        <time>2014-03-29T15:31:08Z</time>
      </trkpt>
      <trkpt lat="37.835666000" lon="-1.879660600">
        <ele>721.000000</ele>
        <time>2014-03-29T15:31:09Z</time>
      </trkpt>
      <trkpt lat="37.835732800" lon="-1.879598900">
        <ele>722.000000</ele>
        <time>2014-03-29T15:31:10Z</time>
      </trkpt>
      <trkpt lat="37.835795400" lon="-1.879534200">
        <ele>722.000000</ele>
        <time>2014-03-29T15:31:11Z</time>
      </trkpt>
      <trkpt lat="37.835858800" lon="-1.879466600">
        <ele>722.000000</ele>
        <time>2014-03-29T15:31:12Z</time>
      </trkpt>
      <trkpt lat="37.835921900" lon="-1.879400800">
        <ele>722.000000</ele>
        <time>2014-03-29T15:31:13Z</time>
      </trkpt>
      <trkpt lat="37.835984600" lon="-1.879339200">
        <ele>722.000000</ele>
        <time>2014-03-29T15:31:14Z</time>
      </trkpt>
      <trkpt lat="37.836045200" lon="-1.879278700">
        <ele>723.000000</ele>
        <time>2014-03-29T15:31:15Z</time>
      </trkpt>
      <trkpt lat="37.836101900" lon="-1.879218500">
        <ele>723.000000</ele>
        <time>2014-03-29T15:31:16Z</time>
      </trkpt>
      <trkpt lat="37.836160200" lon="-1.879162000">
        <ele>723.000000</ele>
        <time>2014-03-29T15:31:17Z</time>
      </trkpt>
      <trkpt lat="37.836221900" lon="-1.879110900">
        <ele>723.000000</ele>
        <time>2014-03-29T15:31:18Z</time>
      </trkpt>
      <trkpt lat="37.836290800" lon="-1.879072300">
        <ele>724.000000</ele>
        <time>2014-03-29T15:31:19Z</time>
      </trkpt>
      <trkpt lat="37.836363800" lon="-1.879049200">
        <ele>724.000000</ele>
        <time>2014-03-29T15:31:20Z</time>
      </trkpt>
      <trkpt lat="37.836439100" lon="-1.879037100">
        <ele>724.000000</ele>
        <time>2014-03-29T15:31:21Z</time>
      </trkpt>
      <trkpt lat="37.836517800" lon="-1.879030600">
        <ele>724.000000</ele>
        <time>2014-03-29T15:31:22Z</time>
      </trkpt>
      <trkpt lat="37.836597300" lon="-1.879026000">
        <ele>724.000000</ele>
        <time>2014-03-29T15:31:23Z</time>
      </trkpt>
      <trkpt lat="37.836681900" lon="-1.879024700">
        <ele>725.000000</ele>
        <time>2014-03-29T15:31:24Z</time>
      </trkpt>
      <trkpt lat="37.836766400" lon="-1.879022200">
        <ele>725.000000</ele>
        <time>2014-03-29T15:31:25Z</time>
      </trkpt>
      <trkpt lat="37.836847100" lon="-1.879016000">
        <ele>725.000000</ele>
        <time>2014-03-29T15:31:26Z</time>
      </trkpt>
      <trkpt lat="37.836922400" lon="-1.879007400">
        <ele>725.000000</ele>
        <time>2014-03-29T15:31:27Z</time>
      </trkpt>
      <trkpt lat="37.836999400" lon="-1.878993500">
        <ele>725.000000</ele>
        <time>2014-03-29T15:31:28Z</time>
      </trkpt>
      <trkpt lat="37.837077500" lon="-1.878972700">
        <ele>726.000000</ele>
        <time>2014-03-29T15:31:29Z</time>
      </trkpt>
      <trkpt lat="37.837153200" lon="-1.878944400">
        <ele>726.000000</ele>
        <time>2014-03-29T15:31:30Z</time>
      </trkpt>
      <trkpt lat="37.837226700" lon="-1.878910100">
        <ele>726.000000</ele>
        <time>2014-03-29T15:31:31Z</time>
      </trkpt>
      <trkpt lat="37.837295300" lon="-1.878867300">
        <ele>726.000000</ele>
        <time>2014-03-29T15:31:32Z</time>
      </trkpt>
      <trkpt lat="37.837362300" lon="-1.878821300">
        <ele>726.000000</ele>
        <time>2014-03-29T15:31:33Z</time>
      </trkpt>
      <trkpt lat="37.837427900" lon="-1.878776200">
        <ele>726.000000</ele>
        <time>2014-03-29T15:31:34Z</time>
      </trkpt>
      <trkpt lat="37.837494800" lon="-1.878729200">
        <ele>727.000000</ele>
        <time>2014-03-29T15:31:35Z</time>
      </trkpt>
      <trkpt lat="37.837558600" lon="-1.878677500">
        <ele>727.000000</ele>
        <time>2014-03-29T15:31:36Z</time>
      </trkpt>
      <trkpt lat="37.837621400" lon="-1.878626100">
        <ele>727.000000</ele>
        <time>2014-03-29T15:31:37Z</time>
      </trkpt>
      <trkpt lat="37.837683200" lon="-1.878575300">
        <ele>727.000000</ele>
        <time>2014-03-29T15:31:38Z</time>
      </trkpt>
      <trkpt lat="37.837742300" lon="-1.878518800">
        <ele>727.000000</ele>
        <time>2014-03-29T15:31:39Z</time>
      </trkpt>
      <trkpt lat="37.837799400" lon="-1.878456500">
        <ele>728.000000</ele>
        <time>2014-03-29T15:31:40Z</time>
      </trkpt>
      <trkpt lat="37.837858700" lon="-1.878393500">
        <ele>728.000000</ele>
        <time>2014-03-29T15:31:41Z</time>
      </trkpt>
      <trkpt lat="37.837918300" lon="-1.878330900">
        <ele>728.000000</ele>
        <time>2014-03-29T15:31:42Z</time>
      </trkpt>
      <trkpt lat="37.837979200" lon="-1.878272800">
        <ele>728.000000</ele>
        <time>2014-03-29T15:31:43Z</time>
      </trkpt>
      <trkpt lat="37.838044900" lon="-1.878223000">
        <ele>728.000000</ele>
        <time>2014-03-29T15:31:44Z</time>
      </trkpt>
      <trkpt lat="37.838119600" lon="-1.878181400">
        <ele>728.000000</ele>
        <time>2014-03-29T15:31:45Z</time>
      </trkpt>
      <trkpt lat="37.838192800" lon="-1.878148000">
        <ele>729.000000</ele>
        <time>2014-03-29T15:31:46Z</time>
      </trkpt>
      <trkpt lat="37.838266600" lon="-1.878120000">
        <ele>729.000000</ele>
        <time>2014-03-29T15:31:47Z</time>
      </trkpt>
      <trkpt lat="37.838343600" lon="-1.878098000">
        <ele>729.000000</ele>
        <time>2014-03-29T15:31:48Z</time>
      </trkpt>
      <trkpt lat="37.838421600" lon="-1.878076800">
        <ele>729.000000</ele>
        <time>2014-03-29T15:31:49Z</time>
      </trkpt>
      <trkpt lat="37.838498100" lon="-1.878057000">
        <ele>729.000000</ele>
        <time>2014-03-29T15:31:50Z</time>
      </trkpt>
      <trkpt lat="37.838578700" lon="-1.878040000">
        <ele>729.000000</ele>
        <time>2014-03-29T15:31:51Z</time>
      </trkpt>
      <trkpt lat="37.838657500" lon="-1.878024400">
        <ele>729.000000</ele>
        <time>2014-03-29T15:31:52Z</time>
      </trkpt>
      <trkpt lat="37.838736200" lon="-1.878013700">
        <ele>730.000000</ele>
        <time>2014-03-29T15:31:53Z</time>
      </trkpt>
      <trkpt lat="37.838814700" lon="-1.878002100">
        <ele>730.000000</ele>
        <time>2014-03-29T15:31:54Z</time>
      </trkpt>
      <trkpt lat="37.838899200" lon="-1.877989500">
        <ele>730.000000</ele>
        <time>2014-03-29T15:31:55Z</time>
      </trkpt>
      <trkpt lat="37.838983300" lon="-1.877980400">
        <ele>730.000000</ele>
        <time>2014-03-29T15:31:56Z</time>
      </trkpt>
      <trkpt lat="37.839068000" lon="-1.877972000">
        <ele>730.000000</ele>
        <time>2014-03-29T15:31:57Z</time>
      </trkpt>
      <trkpt lat="37.839151200" lon="-1.877958700">
        <ele>730.000000</ele>
        <time>2014-03-29T15:31:58Z</time>
      </trkpt>
      <trkpt lat="37.839236800" lon="-1.877941100">
        <ele>731.000000</ele>
        <time>2014-03-29T15:31:59Z</time>
      </trkpt>
      <trkpt lat="37.839321300" lon="-1.877924900">
        <ele>731.000000</ele>
        <time>2014-03-29T15:32:00Z</time>
      </trkpt>
      <trkpt lat="37.839404500" lon="-1.877909200">
        <ele>731.000000</ele>
        <time>2014-03-29T15:32:01Z</time>
      </trkpt>
      <trkpt lat="37.839491700" lon="-1.877892900">
        <ele>732.000000</ele>
        <time>2014-03-29T15:32:02Z</time>
      </trkpt>
      <trkpt lat="37.839579100" lon="-1.877874200">
        <ele>732.000000</ele>
        <time>2014-03-29T15:32:03Z</time>
      </trkpt>
      <trkpt lat="37.839668900" lon="-1.877851500">
        <ele>732.000000</ele>
        <time>2014-03-29T15:32:04Z</time>
      </trkpt>
      <trkpt lat="37.839764300" lon="-1.877829100">
        <ele>732.000000</ele>
        <time>2014-03-29T15:32:05Z</time>
      </trkpt>
      <trkpt lat="37.839863800" lon="-1.877803800">
        <ele>732.000000</ele>
        <time>2014-03-29T15:32:06Z</time>
      </trkpt>
      <trkpt lat="37.839967400" lon="-1.877775400">
        <ele>733.000000</ele>
        <time>2014-03-29T15:32:07Z</time>
      </trkpt>
      <trkpt lat="37.840073300" lon="-1.877747100">
        <ele>733.000000</ele>
        <time>2014-03-29T15:32:08Z</time>
      </trkpt>
      <trkpt lat="37.840170400" lon="-1.877722000">
        <ele>733.000000</ele>
        <time>2014-03-29T15:32:09Z</time>
      </trkpt>
      <trkpt lat="37.840271800" lon="-1.877692300">
        <ele>734.000000</ele>
        <time>2014-03-29T15:32:10Z</time>
      </trkpt>
      <trkpt lat="37.840377100" lon="-1.877666200">
        <ele>734.000000</ele>
        <time>2014-03-29T15:32:11Z</time>
      </trkpt>
      <trkpt lat="37.840476800" lon="-1.877638100">
        <ele>734.000000</ele>
        <time>2014-03-29T15:32:12Z</time>
      </trkpt>
      <trkpt lat="37.840576100" lon="-1.877608200">
        <ele>734.000000</ele>
        <time>2014-03-29T15:32:13Z</time>
      </trkpt>
      <trkpt lat="37.840675300" lon="-1.877576200">
        <ele>735.000000</ele>
        <time>2014-03-29T15:32:14Z</time>
      </trkpt>
      <trkpt lat="37.840771900" lon="-1.877546300">
        <ele>735.000000</ele>
        <time>2014-03-29T15:32:15Z</time>
      </trkpt>
      <trkpt lat="37.840859500" lon="-1.877517200">
        <ele>735.000000</ele>
        <time>2014-03-29T15:32:16Z</time>
      </trkpt>
      <trkpt lat="37.840945700" lon="-1.877488000">
        <ele>735.000000</ele>
        <time>2014-03-29T15:32:17Z</time>
      </trkpt>
      <trkpt lat="37.841027900" lon="-1.877459600">
        <ele>736.000000</ele>
        <time>2014-03-29T15:32:18Z</time>
      </trkpt>
      <trkpt lat="37.841110600" lon="-1.877441100">
        <ele>736.000000</ele>
        <time>2014-03-29T15:32:19Z</time>
      </trkpt>
      <trkpt lat="37.841193800" lon="-1.877430400">
        <ele>736.000000</ele>
        <time>2014-03-29T15:32:20Z</time>
      </trkpt>
      <trkpt lat="37.841274800" lon="-1.877417600">
        <ele>737.000000</ele>
        <time>2014-03-29T15:32:21Z</time>
      </trkpt>
      <trkpt lat="37.841354600" lon="-1.877408900">
        <ele>737.000000</ele>
        <time>2014-03-29T15:32:22Z</time>
      </trkpt>
      <trkpt lat="37.841434000" lon="-1.877393900">
        <ele>737.000000</ele>
        <time>2014-03-29T15:32:23Z</time>
      </trkpt>
      <trkpt lat="37.841510900" lon="-1.877380100">
        <ele>738.000000</ele>
        <time>2014-03-29T15:32:24Z</time>
      </trkpt>
      <trkpt lat="37.841587300" lon="-1.877367100">
        <ele>738.000000</ele>
        <time>2014-03-29T15:32:25Z</time>
      </trkpt>
      <trkpt lat="37.841661200" lon="-1.877353000">
        <ele>738.000000</ele>
        <time>2014-03-29T15:32:26Z</time>
      </trkpt>
      <trkpt lat="37.841733800" lon="-1.877339100">
        <ele>739.000000</ele>
        <time>2014-03-29T15:32:27Z</time>
      </trkpt>
      <trkpt lat="37.841805900" lon="-1.877323800">
        <ele>739.000000</ele>
        <time>2014-03-29T15:32:28Z</time>
      </trkpt>
      <trkpt lat="37.841880000" lon="-1.877308400">
        <ele>739.000000</ele>
        <time>2014-03-29T15:32:29Z</time>
      </trkpt>
      <trkpt lat="37.841956200" lon="-1.877287100">
        <ele>740.000000</ele>
        <time>2014-03-29T15:32:30Z</time>
      </trkpt>
      <trkpt lat="37.842033200" lon="-1.877265600">
        <ele>740.000000</ele>
        <time>2014-03-29T15:32:31Z</time>
      </trkpt>
      <trkpt lat="37.842112500" lon="-1.877240100">
        <ele>740.000000</ele>
        <time>2014-03-29T15:32:32Z</time>
      </trkpt>
      <trkpt lat="37.842194800" lon="-1.877205200">
        <ele>740.000000</ele>
        <time>2014-03-29T15:32:33Z</time>
      </trkpt>
      <trkpt lat="37.842278000" lon="-1.877168000">
        <ele>741.000000</ele>
        <time>2014-03-29T15:32:34Z</time>
      </trkpt>
      <trkpt lat="37.842350300" lon="-1.877134800">
        <ele>741.000000</ele>
        <time>2014-03-29T15:32:35Z</time>
      </trkpt>
      <trkpt lat="37.842425900" lon="-1.877093400">
        <ele>741.000000</ele>
        <time>2014-03-29T15:32:36Z</time>
      </trkpt>
      <trkpt lat="37.842501100" lon="-1.877053200">
        <ele>741.000000</ele>
        <time>2014-03-29T15:32:37Z</time>
      </trkpt>
      <trkpt lat="37.842576500" lon="-1.877015700">
        <ele>742.000000</ele>
        <time>2014-03-29T15:32:38Z</time>
      </trkpt>
      <trkpt lat="37.842651300" lon="-1.876987000">
        <ele>742.000000</ele>
        <time>2014-03-29T15:32:39Z</time>
      </trkpt>
      <trkpt lat="37.842723600" lon="-1.876970100">
        <ele>742.000000</ele>
        <time>2014-03-29T15:32:40Z</time>
      </trkpt>
      <trkpt lat="37.842800400" lon="-1.876958200">
        <ele>742.000000</ele>
        <time>2014-03-29T15:32:41Z</time>
      </trkpt>
      <trkpt lat="37.842868900" lon="-1.876954800">
        <ele>743.000000</ele>
        <time>2014-03-29T15:32:42Z</time>
      </trkpt>
      <trkpt lat="37.842938400" lon="-1.876952100">
        <ele>743.000000</ele>
        <time>2014-03-29T15:32:43Z</time>
      </trkpt>
      <trkpt lat="37.843010800" lon="-1.876948700">
        <ele>743.000000</ele>
        <time>2014-03-29T15:32:44Z</time>
      </trkpt>
      <trkpt lat="37.843082800" lon="-1.876944100">
        <ele>743.000000</ele>
        <time>2014-03-29T15:32:45Z</time>
      </trkpt>
      <trkpt lat="37.843152100" lon="-1.876941400">
        <ele>743.000000</ele>
        <time>2014-03-29T15:32:46Z</time>
      </trkpt>
      <trkpt lat="37.843222200" lon="-1.876940200">
        <ele>743.000000</ele>
        <time>2014-03-29T15:32:47Z</time>
      </trkpt>
      <trkpt lat="37.843289700" lon="-1.876943100">
        <ele>744.000000</ele>
        <time>2014-03-29T15:32:48Z</time>
      </trkpt>
      <trkpt lat="37.843353000" lon="-1.876948000">
        <ele>744.000000</ele>
        <time>2014-03-29T15:32:49Z</time>
      </trkpt>
      <trkpt lat="37.843416200" lon="-1.876952500">
        <ele>744.000000</ele>
        <time>2014-03-29T15:32:50Z</time>
      </trkpt>
      <trkpt lat="37.843477000" lon="-1.876981000">
        <ele>744.000000</ele>
        <time>2014-03-29T15:32:51Z</time>
      </trkpt>
      <trkpt lat="37.843542000" lon="-1.877004400">
        <ele>744.000000</ele>
        <time>2014-03-29T15:32:52Z</time>
      </trkpt>
      <trkpt lat="37.843607200" lon="-1.877027800">
        <ele>744.000000</ele>
        <time>2014-03-29T15:32:53Z</time>
      </trkpt>
      <trkpt lat="37.843665400" lon="-1.877064400">
        <ele>744.000000</ele>
        <time>2014-03-29T15:32:54Z</time>
      </trkpt>
      <trkpt lat="37.843718100" lon="-1.877124700">
        <ele>745.000000</ele>
        <time>2014-03-29T15:32:55Z</time>
      </trkpt>
      <trkpt lat="37.843764700" lon="-1.877190300">
        <ele>745.000000</ele>
        <time>2014-03-29T15:32:56Z</time>
      </trkpt>
      <trkpt lat="37.843812600" lon="-1.877244800">
        <ele>745.000000</ele>
        <time>2014-03-29T15:32:57Z</time>
      </trkpt>
      <trkpt lat="37.843867800" lon="-1.877296800">
        <ele>745.000000</ele>
        <time>2014-03-29T15:32:58Z</time>
      </trkpt>
      <trkpt lat="37.843925600" lon="-1.877347500">
        <ele>746.000000</ele>
        <time>2014-03-29T15:32:59Z</time>
      </trkpt>
      <trkpt lat="37.843984400" lon="-1.877389500">
        <ele>746.000000</ele>
        <time>2014-03-29T15:33:00Z</time>
      </trkpt>
      <trkpt lat="37.844032000" lon="-1.877437200">
        <ele>746.000000</ele>
        <time>2014-03-29T15:33:01Z</time>
      </trkpt>
      <trkpt lat="37.844080200" lon="-1.877485100">
        <ele>746.000000</ele>
        <time>2014-03-29T15:33:02Z</time>
      </trkpt>
      <trkpt lat="37.844120000" lon="-1.877542800">
        <ele>747.000000</ele>
        <time>2014-03-29T15:33:03Z</time>
      </trkpt>
      <trkpt lat="37.844162900" lon="-1.877600700">
        <ele>747.000000</ele>
        <time>2014-03-29T15:33:04Z</time>
      </trkpt>
      <trkpt lat="37.844207300" lon="-1.877648000">
        <ele>747.000000</ele>
        <time>2014-03-29T15:33:05Z</time>
      </trkpt>
      <trkpt lat="37.844257100" lon="-1.877692700">
        <ele>747.000000</ele>
        <time>2014-03-29T15:33:06Z</time>
      </trkpt>
      <trkpt lat="37.844312000" lon="-1.877732200">
        <ele>748.000000</ele>
        <time>2014-03-29T15:33:07Z</time>
      </trkpt>
      <trkpt lat="37.844380400" lon="-1.877755800">
        <ele>748.000000</ele>
        <time>2014-03-29T15:33:08Z</time>
      </trkpt>
      <trkpt lat="37.844474400" lon="-1.877781100">
        <ele>748.000000</ele>
        <time>2014-03-29T15:33:09Z</time>
      </trkpt>
      <trkpt lat="37.844557000" lon="-1.877798700">
        <ele>748.000000</ele>
        <time>2014-03-29T15:33:10Z</time>
      </trkpt>
      <trkpt lat="37.844629700" lon="-1.877820700">
        <ele>749.000000</ele>
        <time>2014-03-29T15:33:11Z</time>
      </trkpt>
      <trkpt lat="37.844686200" lon="-1.877848400">
        <ele>749.000000</ele>
        <time>2014-03-29T15:33:12Z</time>
      </trkpt>
      <trkpt lat="37.844738500" lon="-1.877875800">
        <ele>749.000000</ele>
        <time>2014-03-29T15:33:13Z</time>
      </trkpt>
      <trkpt lat="37.844788700" lon="-1.877892800">
        <ele>749.000000</ele>
        <time>2014-03-29T15:33:14Z</time>
      </trkpt>
      <trkpt lat="37.844844500" lon="-1.877893400">
        <ele>750.000000</ele>
        <time>2014-03-29T15:33:15Z</time>
      </trkpt>
      <trkpt lat="37.844903300" lon="-1.877887900">
        <ele>750.000000</ele>
        <time>2014-03-29T15:33:16Z</time>
      </trkpt>
      <trkpt lat="37.844969600" lon="-1.877879800">
        <ele>750.000000</ele>
        <time>2014-03-29T15:33:17Z</time>
      </trkpt>
      <trkpt lat="37.845051600" lon="-1.877874500">
        <ele>750.000000</ele>
        <time>2014-03-29T15:33:18Z</time>
      </trkpt>
      <trkpt lat="37.845136700" lon="-1.877865700">
        <ele>750.000000</ele>
        <time>2014-03-29T15:33:19Z</time>
      </trkpt>
      <trkpt lat="37.845208800" lon="-1.877851300">
        <ele>750.000000</ele>
        <time>2014-03-29T15:33:20Z</time>
      </trkpt>
      <trkpt lat="37.845281800" lon="-1.877842700">
        <ele>750.000000</ele>
        <time>2014-03-29T15:33:21Z</time>
      </trkpt>
      <trkpt lat="37.845357900" lon="-1.877844300">
        <ele>751.000000</ele>
        <time>2014-03-29T15:33:22Z</time>
      </trkpt>
      <trkpt lat="37.845435000" lon="-1.877847300">
        <ele>751.000000</ele>
        <time>2014-03-29T15:33:23Z</time>
      </trkpt>
      <trkpt lat="37.845510200" lon="-1.877846300">
        <ele>751.000000</ele>
        <time>2014-03-29T15:33:24Z</time>
      </trkpt>
      <trkpt lat="37.845583800" lon="-1.877852900">
        <ele>751.000000</ele>
        <time>2014-03-29T15:33:25Z</time>
      </trkpt>
      <trkpt lat="37.845662500" lon="-1.877861900">
        <ele>751.000000</ele>
        <time>2014-03-29T15:33:26Z</time>
      </trkpt>
      <trkpt lat="37.845736700" lon="-1.877867800">
        <ele>751.000000</ele>
        <time>2014-03-29T15:33:27Z</time>
      </trkpt>
      <trkpt lat="37.845810000" lon="-1.877871900">
        <ele>752.000000</ele>
        <time>2014-03-29T15:33:28Z</time>
      </trkpt>
      <trkpt lat="37.845879000" lon="-1.877871500">
        <ele>752.000000</ele>
        <time>2014-03-29T15:33:29Z</time>
      </trkpt>
      <trkpt lat="37.845947900" lon="-1.877868200">
        <ele>752.000000</ele>
        <time>2014-03-29T15:33:30Z</time>
      </trkpt>
      <trkpt lat="37.846015900" lon="-1.877866200">
        <ele>752.000000</ele>
        <time>2014-03-29T15:33:31Z</time>
      </trkpt>
      <trkpt lat="37.846083200" lon="-1.877867800">
        <ele>752.000000</ele>
        <time>2014-03-29T15:33:32Z</time>
      </trkpt>
      <trkpt lat="37.846149400" lon="-1.877862300">
        <ele>753.000000</ele>
        <time>2014-03-29T15:33:33Z</time>
      </trkpt>
      <trkpt lat="37.846223100" lon="-1.877859200">
        <ele>753.000000</ele>
        <time>2014-03-29T15:33:34Z</time>
      </trkpt>
      <trkpt lat="37.846297300" lon="-1.877856000">
        <ele>753.000000</ele>
        <time>2014-03-29T15:33:35Z</time>
      </trkpt>
      <trkpt lat="37.846367600" lon="-1.877854600">
        <ele>753.000000</ele>
        <time>2014-03-29T15:33:36Z</time>
      </trkpt>
      <trkpt lat="37.846444600" lon="-1.877850400">
        <ele>754.000000</ele>
        <time>2014-03-29T15:33:37Z</time>
      </trkpt>
      <trkpt lat="37.846516900" lon="-1.877850800">
        <ele>754.000000</ele>
        <time>2014-03-29T15:33:38Z</time>
      </trkpt>
      <trkpt lat="37.846590600" lon="-1.877845700">
        <ele>754.000000</ele>
        <time>2014-03-29T15:33:39Z</time>
      </trkpt>
      <trkpt lat="37.846660600" lon="-1.877839300">
        <ele>754.000000</ele>
        <time>2014-03-29T15:33:40Z</time>
      </trkpt>
      <trkpt lat="37.846733100" lon="-1.877838100">
        <ele>755.000000</ele>
        <time>2014-03-29T15:33:41Z</time>
      </trkpt>
      <trkpt lat="37.846810000" lon="-1.877834000">
        <ele>755.000000</ele>
        <time>2014-03-29T15:33:42Z</time>
      </trkpt>
      <trkpt lat="37.846889800" lon="-1.877825600">
        <ele>755.000000</ele>
        <time>2014-03-29T15:33:43Z</time>
      </trkpt>
      <trkpt lat="37.846965800" lon="-1.877814100">
        <ele>755.000000</ele>
        <time>2014-03-29T15:33:44Z</time>
      </trkpt>
      <trkpt lat="37.847046100" lon="-1.877816400">
        <ele>756.000000</ele>
        <time>2014-03-29T15:33:45Z</time>
      </trkpt>
      <trkpt lat="37.847120000" lon="-1.877818900">
        <ele>756.000000</ele>
        <time>2014-03-29T15:33:46Z</time>
      </trkpt>
      <trkpt lat="37.847193000" lon="-1.877814400">
        <ele>756.000000</ele>
        <time>2014-03-29T15:33:47Z</time>
      </trkpt>
      <trkpt lat="37.847269900" lon="-1.877813900">
        <ele>756.000000</ele>
        <time>2014-03-29T15:33:48Z</time>
      </trkpt>
      <trkpt lat="37.847344800" lon="-1.877815100">
        <ele>756.000000</ele>
        <time>2014-03-29T15:33:49Z</time>
      </trkpt>
      <trkpt lat="37.847415600" lon="-1.877807600">
        <ele>756.000000</ele>
        <time>2014-03-29T15:33:50Z</time>
      </trkpt>
      <trkpt lat="37.847486400" lon="-1.877799800">
        <ele>757.000000</ele>
        <time>2014-03-29T15:33:51Z</time>
      </trkpt>
      <trkpt lat="37.847559900" lon="-1.877795100">
        <ele>757.000000</ele>
        <time>2014-03-29T15:33:52Z</time>
      </trkpt>
      <trkpt lat="37.847639100" lon="-1.877792300">
        <ele>757.000000</ele>
        <time>2014-03-29T15:33:53Z</time>
      </trkpt>
      <trkpt lat="37.847719800" lon="-1.877786400">
        <ele>757.000000</ele>
        <time>2014-03-29T15:33:54Z</time>
      </trkpt>
      <trkpt lat="37.847799300" lon="-1.877780300">
        <ele>757.000000</ele>
        <time>2014-03-29T15:33:55Z</time>
      </trkpt>
      <trkpt lat="37.847880700" lon="-1.877777100">
        <ele>758.000000</ele>
        <time>2014-03-29T15:33:56Z</time>
      </trkpt>
      <trkpt lat="37.847958000" lon="-1.877771800">
        <ele>758.000000</ele>
        <time>2014-03-29T15:33:57Z</time>
      </trkpt>
      <trkpt lat="37.848033900" lon="-1.877768900">
        <ele>758.000000</ele>
        <time>2014-03-29T15:33:58Z</time>
      </trkpt>
      <trkpt lat="37.848109600" lon="-1.877767500">
        <ele>758.000000</ele>
        <time>2014-03-29T15:33:59Z</time>
      </trkpt>
      <trkpt lat="37.848186000" lon="-1.877764400">
        <ele>758.000000</ele>
        <time>2014-03-29T15:34:00Z</time>
      </trkpt>
      <trkpt lat="37.848261100" lon="-1.877757700">
        <ele>759.000000</ele>
        <time>2014-03-29T15:34:01Z</time>
      </trkpt>
      <trkpt lat="37.848336300" lon="-1.877751400">
        <ele>759.000000</ele>
        <time>2014-03-29T15:34:02Z</time>
      </trkpt>
      <trkpt lat="37.848410600" lon="-1.877742900">
        <ele>759.000000</ele>
        <time>2014-03-29T15:34:03Z</time>
      </trkpt>
      <trkpt lat="37.848484500" lon="-1.877727700">
        <ele>760.000000</ele>
        <time>2014-03-29T15:34:04Z</time>
      </trkpt>
      <trkpt lat="37.848557000" lon="-1.877708200">
        <ele>760.000000</ele>
        <time>2014-03-29T15:34:05Z</time>
      </trkpt>
      <trkpt lat="37.848628800" lon="-1.877691300">
        <ele>760.000000</ele>
        <time>2014-03-29T15:34:06Z</time>
      </trkpt>
      <trkpt lat="37.848701100" lon="-1.877675300">
        <ele>760.000000</ele>
        <time>2014-03-29T15:34:07Z</time>
      </trkpt>
      <trkpt lat="37.848775400" lon="-1.877655700">
        <ele>761.000000</ele>
        <time>2014-03-29T15:34:08Z</time>
      </trkpt>
      <trkpt lat="37.848848400" lon="-1.877635700">
        <ele>761.000000</ele>
        <time>2014-03-29T15:34:09Z</time>
      </trkpt>
      <trkpt lat="37.848921900" lon="-1.877619200">
        <ele>761.000000</ele>
        <time>2014-03-29T15:34:10Z</time>
      </trkpt>
      <trkpt lat="37.848997400" lon="-1.877601400">
        <ele>761.000000</ele>
        <time>2014-03-29T15:34:11Z</time>
      </trkpt>
      <trkpt lat="37.849072300" lon="-1.877580300">
        <ele>762.000000</ele>
        <time>2014-03-29T15:34:12Z</time>
      </trkpt>
      <trkpt lat="37.849149600" lon="-1.877561300">
        <ele>762.000000</ele>
        <time>2014-03-29T15:34:13Z</time>
      </trkpt>
      <trkpt lat="37.849227400" lon="-1.877543000">
        <ele>762.000000</ele>
        <time>2014-03-29T15:34:14Z</time>
      </trkpt>
      <trkpt lat="37.849302400" lon="-1.877522200">
        <ele>763.000000</ele>
        <time>2014-03-29T15:34:15Z</time>
      </trkpt>
      <trkpt lat="37.849376600" lon="-1.877501000">
        <ele>763.000000</ele>
        <time>2014-03-29T15:34:16Z</time>
      </trkpt>
      <trkpt lat="37.849454200" lon="-1.877479400">
        <ele>763.000000</ele>
        <time>2014-03-29T15:34:17Z</time>
      </trkpt>
      <trkpt lat="37.849531900" lon="-1.877459900">
        <ele>763.000000</ele>
        <time>2014-03-29T15:34:18Z</time>
      </trkpt>
      <trkpt lat="37.849610400" lon="-1.877441400">
        <ele>764.000000</ele>
        <time>2014-03-29T15:34:19Z</time>
      </trkpt>
      <trkpt lat="37.849694700" lon="-1.877422000">
        <ele>764.000000</ele>
        <time>2014-03-29T15:34:20Z</time>
      </trkpt>
      <trkpt lat="37.849780600" lon="-1.877400000">
        <ele>764.000000</ele>
        <time>2014-03-29T15:34:21Z</time>
      </trkpt>
      <trkpt lat="37.849865300" lon="-1.877375500">
        <ele>764.000000</ele>
        <time>2014-03-29T15:34:22Z</time>
      </trkpt>
      <trkpt lat="37.849947900" lon="-1.877349000">
        <ele>765.000000</ele>
        <time>2014-03-29T15:34:23Z</time>
      </trkpt>
      <trkpt lat="37.850027500" lon="-1.877323500">
        <ele>765.000000</ele>
        <time>2014-03-29T15:34:24Z</time>
      </trkpt>
      <trkpt lat="37.850105800" lon="-1.877300300">
        <ele>765.000000</ele>
        <time>2014-03-29T15:34:25Z</time>
      </trkpt>
      <trkpt lat="37.850181100" lon="-1.877276900">
        <ele>765.000000</ele>
        <time>2014-03-29T15:34:26Z</time>
      </trkpt>
      <trkpt lat="37.850257500" lon="-1.877255200">
        <ele>765.000000</ele>
        <time>2014-03-29T15:34:27Z</time>
      </trkpt>
      <trkpt lat="37.850338100" lon="-1.877240600">
        <ele>765.000000</ele>
        <time>2014-03-29T15:34:28Z</time>
      </trkpt>
      <trkpt lat="37.850411100" lon="-1.877232700">
        <ele>765.000000</ele>
        <time>2014-03-29T15:34:29Z</time>
      </trkpt>
      <trkpt lat="37.850476000" lon="-1.877213300">
        <ele>765.000000</ele>
        <time>2014-03-29T15:34:30Z</time>
      </trkpt>
      <trkpt lat="37.850518800" lon="-1.877180500">
        <ele>765.000000</ele>
        <time>2014-03-29T15:34:31Z</time>
      </trkpt>
      <trkpt lat="37.850542100" lon="-1.877136100">
        <ele>765.000000</ele>
        <time>2014-03-29T15:34:32Z</time>
      </trkpt>
      <trkpt lat="37.850548800" lon="-1.877080700">
        <ele>766.000000</ele>
        <time>2014-03-29T15:34:33Z</time>
      </trkpt>
      <trkpt lat="37.850526500" lon="-1.877013300">
        <ele>766.000000</ele>
        <time>2014-03-29T15:34:34Z</time>
      </trkpt>
      <trkpt lat="37.850474200" lon="-1.876950600">
        <ele>766.000000</ele>
        <time>2014-03-29T15:34:35Z</time>
      </trkpt>
      <trkpt lat="37.850403900" lon="-1.876882900">
        <ele>766.000000</ele>
        <time>2014-03-29T15:34:36Z</time>
      </trkpt>
      <trkpt lat="37.850325900" lon="-1.876815700">
        <ele>766.000000</ele>
        <time>2014-03-29T15:34:37Z</time>
      </trkpt>
      <trkpt lat="37.850245200" lon="-1.876746100">
        <ele>766.000000</ele>
        <time>2014-03-29T15:34:38Z</time>
      </trkpt>
      <trkpt lat="37.850160900" lon="-1.876679500">
        <ele>766.000000</ele>
        <time>2014-03-29T15:34:39Z</time>
      </trkpt>
      <trkpt lat="37.850078900" lon="-1.876611500">
        <ele>766.000000</ele>
        <time>2014-03-29T15:34:40Z</time>
      </trkpt>
      <trkpt lat="37.849999100" lon="-1.876534200">
        <ele>766.000000</ele>
        <time>2014-03-29T15:34:41Z</time>
      </trkpt>
      <trkpt lat="37.849921100" lon="-1.876452400">
        <ele>766.000000</ele>
        <time>2014-03-29T15:34:42Z</time>
      </trkpt>
      <trkpt lat="37.849847100" lon="-1.876359300">
        <ele>766.000000</ele>
        <time>2014-03-29T15:34:43Z</time>
      </trkpt>
      <trkpt lat="37.849775500" lon="-1.876256400">
        <ele>765.000000</ele>
        <time>2014-03-29T15:34:44Z</time>
      </trkpt>
      <trkpt lat="37.849708700" lon="-1.876139400">
        <ele>765.000000</ele>
        <time>2014-03-29T15:34:45Z</time>
      </trkpt>
      <trkpt lat="37.849652700" lon="-1.876009100">
        <ele>765.000000</ele>
        <time>2014-03-29T15:34:46Z</time>
      </trkpt>
      <trkpt lat="37.849597600" lon="-1.875871700">
        <ele>765.000000</ele>
        <time>2014-03-29T15:34:47Z</time>
      </trkpt>
      <trkpt lat="37.849535000" lon="-1.875739800">
        <ele>764.000000</ele>
        <time>2014-03-29T15:34:48Z</time>
      </trkpt>
      <trkpt lat="37.849469500" lon="-1.875609400">
        <ele>764.000000</ele>
        <time>2014-03-29T15:34:49Z</time>
      </trkpt>
      <trkpt lat="37.849404600" lon="-1.875482900">
        <ele>764.000000</ele>
        <time>2014-03-29T15:34:50Z</time>
      </trkpt>
      <trkpt lat="37.849343500" lon="-1.875354100">
        <ele>764.000000</ele>
        <time>2014-03-29T15:34:51Z</time>
      </trkpt>
      <trkpt lat="37.849283900" lon="-1.875222400">
        <ele>763.000000</ele>
        <time>2014-03-29T15:34:52Z</time>
      </trkpt>
      <trkpt lat="37.849219800" lon="-1.875089600">
        <ele>763.000000</ele>
        <time>2014-03-29T15:34:53Z</time>
      </trkpt>
      <trkpt lat="37.849145100" lon="-1.874967600">
        <ele>763.000000</ele>
        <time>2014-03-29T15:34:54Z</time>
      </trkpt>
      <trkpt lat="37.849051600" lon="-1.874857900">
        <ele>763.000000</ele>
        <time>2014-03-29T15:34:55Z</time>
      </trkpt>
      <trkpt lat="37.848944900" lon="-1.874769400">
        <ele>762.000000</ele>
        <time>2014-03-29T15:34:56Z</time>
      </trkpt>
      <trkpt lat="37.848823700" lon="-1.874694200">
        <ele>762.000000</ele>
        <time>2014-03-29T15:34:57Z</time>
      </trkpt>
      <trkpt lat="37.848704500" lon="-1.874610100">
        <ele>761.000000</ele>
        <time>2014-03-29T15:34:58Z</time>
      </trkpt>
      <trkpt lat="37.848589000" lon="-1.874507700">
        <ele>761.000000</ele>
        <time>2014-03-29T15:34:59Z</time>
      </trkpt>
      <trkpt lat="37.848482100" lon="-1.874391200">
        <ele>761.000000</ele>
        <time>2014-03-29T15:35:00Z</time>
      </trkpt>
      <trkpt lat="37.848385600" lon="-1.874273200">
        <ele>761.000000</ele>
        <time>2014-03-29T15:35:01Z</time>
      </trkpt>
      <trkpt lat="37.848298800" lon="-1.874158500">
        <ele>760.000000</ele>
        <time>2014-03-29T15:35:02Z</time>
      </trkpt>
      <trkpt lat="37.848221600" lon="-1.874040200">
        <ele>760.000000</ele>
        <time>2014-03-29T15:35:03Z</time>
      </trkpt>
      <trkpt lat="37.848158500" lon="-1.873928700">
        <ele>760.000000</ele>
        <time>2014-03-29T15:35:04Z</time>
      </trkpt>
      <trkpt lat="37.848106000" lon="-1.873828300">
        <ele>760.000000</ele>
        <time>2014-03-29T15:35:05Z</time>
      </trkpt>
      <trkpt lat="37.848056600" lon="-1.873740700">
        <ele>759.000000</ele>
        <time>2014-03-29T15:35:06Z</time>
      </trkpt>
      <trkpt lat="37.848014800" lon="-1.873658100">
        <ele>759.000000</ele>
        <time>2014-03-29T15:35:07Z</time>
      </trkpt>
      <trkpt lat="37.847984500" lon="-1.873568700">
        <ele>758.000000</ele>
        <time>2014-03-29T15:35:08Z</time>
      </trkpt>
      <trkpt lat="37.847969600" lon="-1.873475500">
        <ele>758.000000</ele>
        <time>2014-03-29T15:35:09Z</time>
      </trkpt>
      <trkpt lat="37.847973100" lon="-1.873387600">
        <ele>757.000000</ele>
        <time>2014-03-29T15:35:10Z</time>
      </trkpt>
      <trkpt lat="37.847991400" lon="-1.873306600">
        <ele>757.000000</ele>
        <time>2014-03-29T15:35:11Z</time>
      </trkpt>
      <trkpt lat="37.848021300" lon="-1.873229700">
        <ele>756.000000</ele>
        <time>2014-03-29T15:35:12Z</time>
      </trkpt>
      <trkpt lat="37.848055100" lon="-1.873152300">
        <ele>756.000000</ele>
        <time>2014-03-29T15:35:13Z</time>
      </trkpt>
      <trkpt lat="37.848085200" lon="-1.873070300">
        <ele>756.000000</ele>
        <time>2014-03-29T15:35:14Z</time>
      </trkpt>
      <trkpt lat="37.848090500" lon="-1.872984400">
        <ele>755.000000</ele>
        <time>2014-03-29T15:35:15Z</time>
      </trkpt>
      <trkpt lat="37.848083200" lon="-1.872902700">
        <ele>755.000000</ele>
        <time>2014-03-29T15:35:16Z</time>
      </trkpt>
      <trkpt lat="37.848049900" lon="-1.872825700">
        <ele>755.000000</ele>
        <time>2014-03-29T15:35:17Z</time>
      </trkpt>
      <trkpt lat="37.847991500" lon="-1.872759600">
        <ele>755.000000</ele>
        <time>2014-03-29T15:35:18Z</time>
      </trkpt>
      <trkpt lat="37.847925800" lon="-1.872691900">
        <ele>755.000000</ele>
        <time>2014-03-29T15:35:19Z</time>
      </trkpt>
      <trkpt lat="37.847849000" lon="-1.872624100">
        <ele>755.000000</ele>
        <time>2014-03-29T15:35:20Z</time>
      </trkpt>
      <trkpt lat="37.847764900" lon="-1.872552500">
        <ele>755.000000</ele>
        <time>2014-03-29T15:35:21Z</time>
      </trkpt>
      <trkpt lat="37.847674000" lon="-1.872467600">
        <ele>755.000000</ele>
        <time>2014-03-29T15:35:22Z</time>
      </trkpt>
      <trkpt lat="37.847577000" lon="-1.872389100">
        <ele>755.000000</ele>
        <time>2014-03-29T15:35:23Z</time>
      </trkpt>
      <trkpt lat="37.847479600" lon="-1.872308000">
        <ele>755.000000</ele>
        <time>2014-03-29T15:35:24Z</time>
      </trkpt>
      <trkpt lat="37.847382200" lon="-1.872225300">
        <ele>755.000000</ele>
        <time>2014-03-29T15:35:25Z</time>
      </trkpt>
      <trkpt lat="37.847284400" lon="-1.872142800">
        <ele>755.000000</ele>
        <time>2014-03-29T15:35:26Z</time>
      </trkpt>
      <trkpt lat="37.847188000" lon="-1.872061100">
        <ele>755.000000</ele>
        <time>2014-03-29T15:35:27Z</time>
      </trkpt>
      <trkpt lat="37.847092300" lon="-1.871982100">
        <ele>755.000000</ele>
        <time>2014-03-29T15:35:28Z</time>
      </trkpt>
      <trkpt lat="37.846993500" lon="-1.871908100">
        <ele>755.000000</ele>
        <time>2014-03-29T15:35:29Z</time>
      </trkpt>
      <trkpt lat="37.846894300" lon="-1.871833800">
        <ele>755.000000</ele>
        <time>2014-03-29T15:35:30Z</time>
      </trkpt>
      <trkpt lat="37.846799300" lon="-1.871755400">
        <ele>755.000000</ele>
        <time>2014-03-29T15:35:31Z</time>
      </trkpt>
      <trkpt lat="37.846702600" lon="-1.871674000">
        <ele>755.000000</ele>
        <time>2014-03-29T15:35:32Z</time>
      </trkpt>
      <trkpt lat="37.846609200" lon="-1.871595900">
        <ele>754.000000</ele>
        <time>2014-03-29T15:35:33Z</time>
      </trkpt>
      <trkpt lat="37.846519500" lon="-1.871518100">
        <ele>754.000000</ele>
        <time>2014-03-29T15:35:34Z</time>
      </trkpt>
      <trkpt lat="37.846435200" lon="-1.871442100">
        <ele>754.000000</ele>
        <time>2014-03-29T15:35:35Z</time>
      </trkpt>
      <trkpt lat="37.846354500" lon="-1.871367000">
        <ele>753.000000</ele>
        <time>2014-03-29T15:35:36Z</time>
      </trkpt>
      <trkpt lat="37.846274500" lon="-1.871295900">
        <ele>753.000000</ele>
        <time>2014-03-29T15:35:37Z</time>
      </trkpt>
      <trkpt lat="37.846198100" lon="-1.871228700">
        <ele>753.000000</ele>
        <time>2014-03-29T15:35:38Z</time>
      </trkpt>
      <trkpt lat="37.846125300" lon="-1.871162700">
        <ele>752.000000</ele>
        <time>2014-03-29T15:35:39Z</time>
      </trkpt>
      <trkpt lat="37.846051000" lon="-1.871095100">
        <ele>752.000000</ele>
        <time>2014-03-29T15:35:40Z</time>
      </trkpt>
      <trkpt lat="37.845978100" lon="-1.871026900">
        <ele>752.000000</ele>
        <time>2014-03-29T15:35:41Z</time>
      </trkpt>
      <trkpt lat="37.845902900" lon="-1.870959300">
        <ele>751.000000</ele>
        <time>2014-03-29T15:35:42Z</time>
      </trkpt>
      <trkpt lat="37.845829000" lon="-1.870895300">
        <ele>751.000000</ele>
        <time>2014-03-29T15:35:43Z</time>
      </trkpt>
      <trkpt lat="37.845756900" lon="-1.870835900">
        <ele>751.000000</ele>
        <time>2014-03-29T15:35:44Z</time>
      </trkpt>
      <trkpt lat="37.845684500" lon="-1.870772200">
        <ele>750.000000</ele>
        <time>2014-03-29T15:35:45Z</time>
      </trkpt>
      <trkpt lat="37.845612000" lon="-1.870706300">
        <ele>750.000000</ele>
        <time>2014-03-29T15:35:46Z</time>
      </trkpt>
      <trkpt lat="37.845543600" lon="-1.870643200">
        <ele>749.000000</ele>
        <time>2014-03-29T15:35:47Z</time>
      </trkpt>
      <trkpt lat="37.845474900" lon="-1.870580900">
        <ele>749.000000</ele>
        <time>2014-03-29T15:35:48Z</time>
      </trkpt>
      <trkpt lat="37.845404300" lon="-1.870520400">
        <ele>749.000000</ele>
        <time>2014-03-29T15:35:49Z</time>
      </trkpt>
      <trkpt lat="37.845334200" lon="-1.870462500">
        <ele>748.000000</ele>
        <time>2014-03-29T15:35:50Z</time>
      </trkpt>
      <trkpt lat="37.845266500" lon="-1.870404700">
        <ele>748.000000</ele>
        <time>2014-03-29T15:35:51Z</time>
      </trkpt>
      <trkpt lat="37.845197100" lon="-1.870343300">
        <ele>748.000000</ele>
        <time>2014-03-29T15:35:52Z</time>
      </trkpt>
      <trkpt lat="37.845128600" lon="-1.870280100">
        <ele>747.000000</ele>
        <time>2014-03-29T15:35:53Z</time>
      </trkpt>
      <trkpt lat="37.845060800" lon="-1.870217100">
        <ele>747.000000</ele>
        <time>2014-03-29T15:35:54Z</time>
      </trkpt>
      <trkpt lat="37.844992800" lon="-1.870158400">
        <ele>747.000000</ele>
        <time>2014-03-29T15:35:55Z</time>
      </trkpt>
      <trkpt lat="37.844924600" lon="-1.870097600">
        <ele>746.000000</ele>
        <time>2014-03-29T15:35:56Z</time>
      </trkpt>
      <trkpt lat="37.844854200" lon="-1.870036100">
        <ele>746.000000</ele>
        <time>2014-03-29T15:35:57Z</time>
      </trkpt>
      <trkpt lat="37.844787900" lon="-1.869966200">
        <ele>746.000000</ele>
        <time>2014-03-29T15:35:58Z</time>
      </trkpt>
      <trkpt lat="37.844719600" lon="-1.869900300">
        <ele>745.000000</ele>
        <time>2014-03-29T15:35:59Z</time>
      </trkpt>
      <trkpt lat="37.844647700" lon="-1.869831700">
        <ele>745.000000</ele>
        <time>2014-03-29T15:36:00Z</time>
      </trkpt>
      <trkpt lat="37.844574900" lon="-1.869763500">
        <ele>745.000000</ele>
        <time>2014-03-29T15:36:01Z</time>
      </trkpt>
      <trkpt lat="37.844508600" lon="-1.869696800">
        <ele>745.000000</ele>
        <time>2014-03-29T15:36:02Z</time>
      </trkpt>
      <trkpt lat="37.844441600" lon="-1.869625900">
        <ele>744.000000</ele>
        <time>2014-03-29T15:36:03Z</time>
      </trkpt>
      <trkpt lat="37.844373800" lon="-1.869554000">
        <ele>744.000000</ele>
        <time>2014-03-29T15:36:04Z</time>
      </trkpt>
      <trkpt lat="37.844308100" lon="-1.869482400">
        <ele>744.000000</ele>
        <time>2014-03-29T15:36:05Z</time>
      </trkpt>
      <trkpt lat="37.844242300" lon="-1.869410200">
        <ele>744.000000</ele>
        <time>2014-03-29T15:36:06Z</time>
      </trkpt>
      <trkpt lat="37.844175200" lon="-1.869336200">
        <ele>744.000000</ele>
        <time>2014-03-29T15:36:07Z</time>
      </trkpt>
      <trkpt lat="37.844113800" lon="-1.869256900">
        <ele>743.000000</ele>
        <time>2014-03-29T15:36:08Z</time>
      </trkpt>
      <trkpt lat="37.844054900" lon="-1.869174400">
        <ele>743.000000</ele>
        <time>2014-03-29T15:36:09Z</time>
      </trkpt>
      <trkpt lat="37.843993800" lon="-1.869092900">
        <ele>743.000000</ele>
        <time>2014-03-29T15:36:10Z</time>
      </trkpt>
      <trkpt lat="37.843933000" lon="-1.869012000">
        <ele>742.000000</ele>
        <time>2014-03-29T15:36:11Z</time>
      </trkpt>
      <trkpt lat="37.843874300" lon="-1.868930700">
        <ele>742.000000</ele>
        <time>2014-03-29T15:36:12Z</time>
      </trkpt>
      <trkpt lat="37.843812100" lon="-1.868846400">
        <ele>742.000000</ele>
        <time>2014-03-29T15:36:13Z</time>
      </trkpt>
      <trkpt lat="37.843752300" lon="-1.868762400">
        <ele>742.000000</ele>
        <time>2014-03-29T15:36:14Z</time>
      </trkpt>
      <trkpt lat="37.843692400" lon="-1.868681700">
        <ele>741.000000</ele>
        <time>2014-03-29T15:36:15Z</time>
      </trkpt>
      <trkpt lat="37.843630300" lon="-1.868600800">
        <ele>741.000000</ele>
        <time>2014-03-29T15:36:16Z</time>
      </trkpt>
      <trkpt lat="37.843567800" lon="-1.868516600">
        <ele>741.000000</ele>
        <time>2014-03-29T15:36:17Z</time>
      </trkpt>
      <trkpt lat="37.843505000" lon="-1.868432000">
        <ele>740.000000</ele>
        <time>2014-03-29T15:36:18Z</time>
      </trkpt>
      <trkpt lat="37.843439500" lon="-1.868350300">
        <ele>740.000000</ele>
        <time>2014-03-29T15:36:19Z</time>
      </trkpt>
      <trkpt lat="37.843372600" lon="-1.868271700">
        <ele>740.000000</ele>
        <time>2014-03-29T15:36:20Z</time>
      </trkpt>
      <trkpt lat="37.843299400" lon="-1.868196400">
        <ele>739.000000</ele>
        <time>2014-03-29T15:36:21Z</time>
      </trkpt>
      <trkpt lat="37.843230100" lon="-1.868130400">
        <ele>739.000000</ele>
        <time>2014-03-29T15:36:22Z</time>
      </trkpt>
      <trkpt lat="37.843159500" lon="-1.868069300">
        <ele>739.000000</ele>
        <time>2014-03-29T15:36:23Z</time>
      </trkpt>
      <trkpt lat="37.843084600" lon="-1.868009600">
        <ele>739.000000</ele>
        <time>2014-03-29T15:36:24Z</time>
      </trkpt>
      <trkpt lat="37.843007700" lon="-1.867951000">
        <ele>739.000000</ele>
        <time>2014-03-29T15:36:25Z</time>
      </trkpt>
      <trkpt lat="37.842933900" lon="-1.867898300">
        <ele>738.000000</ele>
        <time>2014-03-29T15:36:26Z</time>
      </trkpt>
      <trkpt lat="37.842855900" lon="-1.867847600">
        <ele>738.000000</ele>
        <time>2014-03-29T15:36:27Z</time>
      </trkpt>
      <trkpt lat="37.842778700" lon="-1.867803100">
        <ele>738.000000</ele>
        <time>2014-03-29T15:36:28Z</time>
      </trkpt>
      <trkpt lat="37.842695400" lon="-1.867763100">
        <ele>738.000000</ele>
        <time>2014-03-29T15:36:29Z</time>
      </trkpt>
      <trkpt lat="37.842608800" lon="-1.867729100">
        <ele>738.000000</ele>
        <time>2014-03-29T15:36:30Z</time>
      </trkpt>
      <trkpt lat="37.842521000" lon="-1.867702700">
        <ele>738.000000</ele>
        <time>2014-03-29T15:36:31Z</time>
      </trkpt>
      <trkpt lat="37.842430500" lon="-1.867681100">
        <ele>737.000000</ele>
        <time>2014-03-29T15:36:32Z</time>
      </trkpt>
      <trkpt lat="37.842338700" lon="-1.867663600">
        <ele>737.000000</ele>
        <time>2014-03-29T15:36:33Z</time>
      </trkpt>
      <trkpt lat="37.842245300" lon="-1.867655500">
        <ele>737.000000</ele>
        <time>2014-03-29T15:36:34Z</time>
      </trkpt>
      <trkpt lat="37.842152700" lon="-1.867651200">
        <ele>737.000000</ele>
        <time>2014-03-29T15:36:35Z</time>
      </trkpt>
      <trkpt lat="37.842055400" lon="-1.867649300">
        <ele>737.000000</ele>
        <time>2014-03-29T15:36:36Z</time>
      </trkpt>
      <trkpt lat="37.841961800" lon="-1.867652500">
        <ele>737.000000</ele>
        <time>2014-03-29T15:36:37Z</time>
      </trkpt>
      <trkpt lat="37.841867700" lon="-1.867658400">
        <ele>737.000000</ele>
        <time>2014-03-29T15:36:38Z</time>
      </trkpt>
      <trkpt lat="37.841771900" lon="-1.867665400">
        <ele>736.000000</ele>
        <time>2014-03-29T15:36:39Z</time>
      </trkpt>
      <trkpt lat="37.841678900" lon="-1.867670100">
        <ele>736.000000</ele>
        <time>2014-03-29T15:36:40Z</time>
      </trkpt>
      <trkpt lat="37.841585100" lon="-1.867676900">
        <ele>736.000000</ele>
        <time>2014-03-29T15:36:41Z</time>
      </trkpt>
      <trkpt lat="37.841492600" lon="-1.867683700">
        <ele>736.000000</ele>
        <time>2014-03-29T15:36:42Z</time>
      </trkpt>
      <trkpt lat="37.841403900" lon="-1.867689300">
        <ele>736.000000</ele>
        <time>2014-03-29T15:36:43Z</time>
      </trkpt>
      <trkpt lat="37.841314700" lon="-1.867700900">
        <ele>735.000000</ele>
        <time>2014-03-29T15:36:44Z</time>
      </trkpt>
      <trkpt lat="37.841223100" lon="-1.867713600">
        <ele>735.000000</ele>
        <time>2014-03-29T15:36:45Z</time>
      </trkpt>
      <trkpt lat="37.841129700" lon="-1.867721500">
        <ele>735.000000</ele>
        <time>2014-03-29T15:36:46Z</time>
      </trkpt>
      <trkpt lat="37.841031800" lon="-1.867731600">
        <ele>735.000000</ele>
        <time>2014-03-29T15:36:47Z</time>
      </trkpt>
      <trkpt lat="37.840930000" lon="-1.867744300">
        <ele>735.000000</ele>
        <time>2014-03-29T15:36:48Z</time>
      </trkpt>
      <trkpt lat="37.840820300" lon="-1.867753100">
        <ele>735.000000</ele>
        <time>2014-03-29T15:36:49Z</time>
      </trkpt>
      <trkpt lat="37.840707400" lon="-1.867762300">
        <ele>734.000000</ele>
        <time>2014-03-29T15:36:50Z</time>
      </trkpt>
      <trkpt lat="37.840591100" lon="-1.867772800">
        <ele>734.000000</ele>
        <time>2014-03-29T15:36:51Z</time>
      </trkpt>
      <trkpt lat="37.840473500" lon="-1.867784000">
        <ele>734.000000</ele>
        <time>2014-03-29T15:36:52Z</time>
      </trkpt>
      <trkpt lat="37.840355800" lon="-1.867797500">
        <ele>734.000000</ele>
        <time>2014-03-29T15:36:53Z</time>
      </trkpt>
      <trkpt lat="37.840233800" lon="-1.867808700">
        <ele>734.000000</ele>
        <time>2014-03-29T15:36:54Z</time>
      </trkpt>
      <trkpt lat="37.840111400" lon="-1.867818700">
        <ele>733.000000</ele>
        <time>2014-03-29T15:36:55Z</time>
      </trkpt>
      <trkpt lat="37.839986200" lon="-1.867832000">
        <ele>733.000000</ele>
        <time>2014-03-29T15:36:56Z</time>
      </trkpt>
      <trkpt lat="37.839861000" lon="-1.867850100">
        <ele>733.000000</ele>
        <time>2014-03-29T15:36:57Z</time>
      </trkpt>
      <trkpt lat="37.839732800" lon="-1.867871200">
        <ele>732.000000</ele>
        <time>2014-03-29T15:36:58Z</time>
      </trkpt>
      <trkpt lat="37.839608600" lon="-1.867897700">
        <ele>732.000000</ele>
        <time>2014-03-29T15:36:59Z</time>
      </trkpt>
      <trkpt lat="37.839488600" lon="-1.867929500">
        <ele>732.000000</ele>
        <time>2014-03-29T15:37:00Z</time>
      </trkpt>
      <trkpt lat="37.839371400" lon="-1.867971900">
        <ele>732.000000</ele>
        <time>2014-03-29T15:37:01Z</time>
      </trkpt>
      <trkpt lat="37.839256700" lon="-1.868019600">
        <ele>731.000000</ele>
        <time>2014-03-29T15:37:02Z</time>
      </trkpt>
      <trkpt lat="37.839147000" lon="-1.868074400">
        <ele>731.000000</ele>
        <time>2014-03-29T15:37:03Z</time>
      </trkpt>
      <trkpt lat="37.839036400" lon="-1.868133900">
        <ele>731.000000</ele>
        <time>2014-03-29T15:37:04Z</time>
      </trkpt>
      <trkpt lat="37.838927700" lon="-1.868192300">
        <ele>731.000000</ele>
        <time>2014-03-29T15:37:05Z</time>
      </trkpt>
      <trkpt lat="37.838824600" lon="-1.868251600">
        <ele>730.000000</ele>
        <time>2014-03-29T15:37:06Z</time>
      </trkpt>
      <trkpt lat="37.838725100" lon="-1.868309400">
        <ele>730.000000</ele>
        <time>2014-03-29T15:37:07Z</time>
      </trkpt>
      <trkpt lat="37.838633800" lon="-1.868374600">
        <ele>730.000000</ele>
        <time>2014-03-29T15:37:08Z</time>
      </trkpt>
      <trkpt lat="37.838556000" lon="-1.868448000">
        <ele>730.000000</ele>
        <time>2014-03-29T15:37:09Z</time>
      </trkpt>
      <trkpt lat="37.838484300" lon="-1.868532900">
        <ele>729.000000</ele>
        <time>2014-03-29T15:37:10Z</time>
      </trkpt>
      <trkpt lat="37.838422600" lon="-1.868627400">
        <ele>729.000000</ele>
        <time>2014-03-29T15:37:11Z</time>
      </trkpt>
      <trkpt lat="37.838365800" lon="-1.868725000">
        <ele>729.000000</ele>
        <time>2014-03-29T15:37:12Z</time>
      </trkpt>
      <trkpt lat="37.838316300" lon="-1.868829700">
        <ele>729.000000</ele>
        <time>2014-03-29T15:37:13Z</time>
      </trkpt>
      <trkpt lat="37.838274500" lon="-1.868945500">
        <ele>729.000000</ele>
        <time>2014-03-29T15:37:14Z</time>
      </trkpt>
      <trkpt lat="37.838239400" lon="-1.869065700">
        <ele>728.000000</ele>
        <time>2014-03-29T15:37:15Z</time>
      </trkpt>
      <trkpt lat="37.838206400" lon="-1.869186200">
        <ele>728.000000</ele>
        <time>2014-03-29T15:37:16Z</time>
      </trkpt>
      <trkpt lat="37.838172200" lon="-1.869310100">
        <ele>728.000000</ele>
        <time>2014-03-29T15:37:17Z</time>
      </trkpt>
      <trkpt lat="37.838136500" lon="-1.869435400">
        <ele>728.000000</ele>
        <time>2014-03-29T15:37:18Z</time>
      </trkpt>
      <trkpt lat="37.838104800" lon="-1.869560400">
        <ele>728.000000</ele>
        <time>2014-03-29T15:37:19Z</time>
      </trkpt>
      <trkpt lat="37.838074800" lon="-1.869683100">
        <ele>727.000000</ele>
        <time>2014-03-29T15:37:20Z</time>
      </trkpt>
      <trkpt lat="37.838044600" lon="-1.869803200">
        <ele>727.000000</ele>
        <time>2014-03-29T15:37:21Z</time>
      </trkpt>
      <trkpt lat="37.838013700" lon="-1.869923400">
        <ele>727.000000</ele>
        <time>2014-03-29T15:37:22Z</time>
      </trkpt>
      <trkpt lat="37.837983400" lon="-1.870043900">
        <ele>727.000000</ele>
        <time>2014-03-29T15:37:23Z</time>
      </trkpt>
      <trkpt lat="37.837954900" lon="-1.870164500">
        <ele>726.000000</ele>
        <time>2014-03-29T15:37:24Z</time>
      </trkpt>
      <trkpt lat="37.837926800" lon="-1.870282500">
        <ele>726.000000</ele>
        <time>2014-03-29T15:37:25Z</time>
      </trkpt>
      <trkpt lat="37.837898800" lon="-1.870401300">
        <ele>726.000000</ele>
        <time>2014-03-29T15:37:26Z</time>
      </trkpt>
      <trkpt lat="37.837873700" lon="-1.870519200">
        <ele>726.000000</ele>
        <time>2014-03-29T15:37:27Z</time>
      </trkpt>
      <trkpt lat="37.837848200" lon="-1.870635300">
        <ele>726.000000</ele>
        <time>2014-03-29T15:37:28Z</time>
      </trkpt>
      <trkpt lat="37.837818200" lon="-1.870751500">
        <ele>725.000000</ele>
        <time>2014-03-29T15:37:29Z</time>
      </trkpt>
      <trkpt lat="37.837787000" lon="-1.870865800">
        <ele>725.000000</ele>
        <time>2014-03-29T15:37:30Z</time>
      </trkpt>
      <trkpt lat="37.837758700" lon="-1.870981400">
        <ele>725.000000</ele>
        <time>2014-03-29T15:37:31Z</time>
      </trkpt>
      <trkpt lat="37.837727900" lon="-1.871097300">
        <ele>725.000000</ele>
        <time>2014-03-29T15:37:32Z</time>
      </trkpt>
      <trkpt lat="37.837696400" lon="-1.871214700">
        <ele>725.000000</ele>
        <time>2014-03-29T15:37:33Z</time>
      </trkpt>
      <trkpt lat="37.837666900" lon="-1.871329500">
        <ele>725.000000</ele>
        <time>2014-03-29T15:37:34Z</time>
      </trkpt>
      <trkpt lat="37.837637800" lon="-1.871443000">
        <ele>724.000000</ele>
        <time>2014-03-29T15:37:35Z</time>
      </trkpt>
      <trkpt lat="37.837611300" lon="-1.871553900">
        <ele>724.000000</ele>
        <time>2014-03-29T15:37:36Z</time>
      </trkpt>
      <trkpt lat="37.837587400" lon="-1.871664000">
        <ele>724.000000</ele>
        <time>2014-03-29T15:37:37Z</time>
      </trkpt>
      <trkpt lat="37.837560400" lon="-1.871775600">
        <ele>724.000000</ele>
        <time>2014-03-29T15:37:38Z</time>
      </trkpt>
      <trkpt lat="37.837532300" lon="-1.871892600">
        <ele>724.000000</ele>
        <time>2014-03-29T15:37:39Z</time>
      </trkpt>
      <trkpt lat="37.837507600" lon="-1.872010800">
        <ele>724.000000</ele>
        <time>2014-03-29T15:37:40Z</time>
      </trkpt>
      <trkpt lat="37.837480700" lon="-1.872123800">
        <ele>724.000000</ele>
        <time>2014-03-29T15:37:41Z</time>
      </trkpt>
      <trkpt lat="37.837453300" lon="-1.872234400">
        <ele>723.000000</ele>
        <time>2014-03-29T15:37:42Z</time>
      </trkpt>
      <trkpt lat="37.837429800" lon="-1.872348400">
        <ele>723.000000</ele>
        <time>2014-03-29T15:37:43Z</time>
      </trkpt>
      <trkpt lat="37.837404600" lon="-1.872463100">
        <ele>723.000000</ele>
        <time>2014-03-29T15:37:44Z</time>
      </trkpt>
      <trkpt lat="37.837378700" lon="-1.872580300">
        <ele>723.000000</ele>
        <time>2014-03-29T15:37:45Z</time>
      </trkpt>
      <trkpt lat="37.837352200" lon="-1.872695800">
        <ele>723.000000</ele>
        <time>2014-03-29T15:37:46Z</time>
      </trkpt>
      <trkpt lat="37.837327000" lon="-1.872809300">
        <ele>723.000000</ele>
        <time>2014-03-29T15:37:47Z</time>
      </trkpt>
      <trkpt lat="37.837303200" lon="-1.872924400">
        <ele>723.000000</ele>
        <time>2014-03-29T15:37:48Z</time>
      </trkpt>
      <trkpt lat="37.837278600" lon="-1.873038000">
        <ele>723.000000</ele>
        <time>2014-03-29T15:37:49Z</time>
      </trkpt>
      <trkpt lat="37.837255700" lon="-1.873150500">
        <ele>723.000000</ele>
        <time>2014-03-29T15:37:50Z</time>
      </trkpt>
      <trkpt lat="37.837229900" lon="-1.873261800">
        <ele>723.000000</ele>
        <time>2014-03-29T15:37:51Z</time>
      </trkpt>
      <trkpt lat="37.837206200" lon="-1.873372800">
        <ele>723.000000</ele>
        <time>2014-03-29T15:37:52Z</time>
      </trkpt>
      <trkpt lat="37.837179500" lon="-1.873484800">
        <ele>723.000000</ele>
        <time>2014-03-29T15:37:53Z</time>
      </trkpt>
      <trkpt lat="37.837151800" lon="-1.873599300">
        <ele>724.000000</ele>
        <time>2014-03-29T15:37:54Z</time>
      </trkpt>
      <trkpt lat="37.837123400" lon="-1.873714500">
        <ele>724.000000</ele>
        <time>2014-03-29T15:37:55Z</time>
      </trkpt>
      <trkpt lat="37.837096400" lon="-1.873831000">
        <ele>724.000000</ele>
        <time>2014-03-29T15:37:56Z</time>
      </trkpt>
      <trkpt lat="37.837071200" lon="-1.873946800">
        <ele>723.000000</ele>
        <time>2014-03-29T15:37:57Z</time>
      </trkpt>
      <trkpt lat="37.837042700" lon="-1.874064300">
        <ele>723.000000</ele>
        <time>2014-03-29T15:37:58Z</time>
      </trkpt>
      <trkpt lat="37.837015300" lon="-1.874182400">
        <ele>723.000000</ele>
        <time>2014-03-29T15:37:59Z</time>
      </trkpt>
      <trkpt lat="37.836990800" lon="-1.874296500">
        <ele>723.000000</ele>
        <time>2014-03-29T15:38:00Z</time>
      </trkpt>
      <trkpt lat="37.836966700" lon="-1.874406600">
        <ele>723.000000</ele>
        <time>2014-03-29T15:38:01Z</time>
      </trkpt>
      <trkpt lat="37.836941800" lon="-1.874514500">
        <ele>723.000000</ele>
        <time>2014-03-29T15:38:02Z</time>
      </trkpt>
      <trkpt lat="37.836918200" lon="-1.874622800">
        <ele>723.000000</ele>
        <time>2014-03-29T15:38:03Z</time>
      </trkpt>
      <trkpt lat="37.836895400" lon="-1.874733300">
        <ele>724.000000</ele>
        <time>2014-03-29T15:38:04Z</time>
      </trkpt>
      <trkpt lat="37.836871500" lon="-1.874843600">
        <ele>724.000000</ele>
        <time>2014-03-29T15:38:05Z</time>
      </trkpt>
      <trkpt lat="37.836848000" lon="-1.874956200">
        <ele>724.000000</ele>
        <time>2014-03-29T15:38:06Z</time>
      </trkpt>
      <trkpt lat="37.836823900" lon="-1.875069600">
        <ele>724.000000</ele>
        <time>2014-03-29T15:38:07Z</time>
      </trkpt>
      <trkpt lat="37.836801200" lon="-1.875181500">
        <ele>724.000000</ele>
        <time>2014-03-29T15:38:08Z</time>
      </trkpt>
      <trkpt lat="37.836780500" lon="-1.875290400">
        <ele>724.000000</ele>
        <time>2014-03-29T15:38:09Z</time>
      </trkpt>
      <trkpt lat="37.836761500" lon="-1.875399200">
        <ele>724.000000</ele>
        <time>2014-03-29T15:38:10Z</time>
      </trkpt>
      <trkpt lat="37.836743100" lon="-1.875510100">
        <ele>724.000000</ele>
        <time>2014-03-29T15:38:11Z</time>
      </trkpt>
      <trkpt lat="37.836726000" lon="-1.875621900">
        <ele>724.000000</ele>
        <time>2014-03-29T15:38:12Z</time>
      </trkpt>
      <trkpt lat="37.836710500" lon="-1.875736700">
        <ele>724.000000</ele>
        <time>2014-03-29T15:38:13Z</time>
      </trkpt>
      <trkpt lat="37.836695900" lon="-1.875852200">
        <ele>724.000000</ele>
        <time>2014-03-29T15:38:14Z</time>
      </trkpt>
      <trkpt lat="37.836682200" lon="-1.875967800">
        <ele>724.000000</ele>
        <time>2014-03-29T15:38:15Z</time>
      </trkpt>
      <trkpt lat="37.836665700" lon="-1.876082900">
        <ele>724.000000</ele>
        <time>2014-03-29T15:38:16Z</time>
      </trkpt>
      <trkpt lat="37.836650000" lon="-1.876199400">
        <ele>724.000000</ele>
        <time>2014-03-29T15:38:17Z</time>
      </trkpt>
      <trkpt lat="37.836636000" lon="-1.876316700">
        <ele>724.000000</ele>
        <time>2014-03-29T15:38:18Z</time>
      </trkpt>
      <trkpt lat="37.836620200" lon="-1.876434700">
        <ele>724.000000</ele>
        <time>2014-03-29T15:38:19Z</time>
      </trkpt>
      <trkpt lat="37.836602500" lon="-1.876552400">
        <ele>724.000000</ele>
        <time>2014-03-29T15:38:20Z</time>
      </trkpt>
      <trkpt lat="37.836587300" lon="-1.876669000">
        <ele>724.000000</ele>
        <time>2014-03-29T15:38:21Z</time>
      </trkpt>
      <trkpt lat="37.836577500" lon="-1.876780900">
        <ele>724.000000</ele>
        <time>2014-03-29T15:38:22Z</time>
      </trkpt>
      <trkpt lat="37.836563700" lon="-1.876894600">
        <ele>724.000000</ele>
        <time>2014-03-29T15:38:23Z</time>
      </trkpt>
      <trkpt lat="37.836549500" lon="-1.877007900">
        <ele>724.000000</ele>
        <time>2014-03-29T15:38:24Z</time>
      </trkpt>
      <trkpt lat="37.836535100" lon="-1.877122700">
        <ele>724.000000</ele>
        <time>2014-03-29T15:38:25Z</time>
      </trkpt>
      <trkpt lat="37.836522400" lon="-1.877237400">
        <ele>724.000000</ele>
        <time>2014-03-29T15:38:26Z</time>
      </trkpt>
      <trkpt lat="37.836507900" lon="-1.877349000">
        <ele>724.000000</ele>
        <time>2014-03-29T15:38:27Z</time>
      </trkpt>
      <trkpt lat="37.836493100" lon="-1.877460800">
        <ele>724.000000</ele>
        <time>2014-03-29T15:38:28Z</time>
      </trkpt>
      <trkpt lat="37.836477100" lon="-1.877573500">
        <ele>724.000000</ele>
        <time>2014-03-29T15:38:29Z</time>
      </trkpt>
      <trkpt lat="37.836463800" lon="-1.877683900">
        <ele>724.000000</ele>
        <time>2014-03-29T15:38:30Z</time>
      </trkpt>
      <trkpt lat="37.836446900" lon="-1.877800100">
        <ele>724.000000</ele>
        <time>2014-03-29T15:38:31Z</time>
      </trkpt>
      <trkpt lat="37.836432800" lon="-1.877915900">
        <ele>724.000000</ele>
        <time>2014-03-29T15:38:32Z</time>
      </trkpt>
      <trkpt lat="37.836418200" lon="-1.878030300">
        <ele>724.000000</ele>
        <time>2014-03-29T15:38:33Z</time>
      </trkpt>
      <trkpt lat="37.836402600" lon="-1.878144300">
        <ele>724.000000</ele>
        <time>2014-03-29T15:38:34Z</time>
      </trkpt>
      <trkpt lat="37.836390100" lon="-1.878256700">
        <ele>724.000000</ele>
        <time>2014-03-29T15:38:35Z</time>
      </trkpt>
      <trkpt lat="37.836374400" lon="-1.878374100">
        <ele>724.000000</ele>
        <time>2014-03-29T15:38:36Z</time>
      </trkpt>
      <trkpt lat="37.836363900" lon="-1.878486500">
        <ele>724.000000</ele>
        <time>2014-03-29T15:38:37Z</time>
      </trkpt>
      <trkpt lat="37.836349400" lon="-1.878601100">
        <ele>724.000000</ele>
        <time>2014-03-29T15:38:38Z</time>
      </trkpt>
      <trkpt lat="37.836327500" lon="-1.878714600">
        <ele>724.000000</ele>
        <time>2014-03-29T15:38:39Z</time>
      </trkpt>
      <trkpt lat="37.836297100" lon="-1.878821800">
        <ele>724.000000</ele>
        <time>2014-03-29T15:38:40Z</time>
      </trkpt>
      <trkpt lat="37.836258300" lon="-1.878924400">
        <ele>724.000000</ele>
        <time>2014-03-29T15:38:41Z</time>
      </trkpt>
      <trkpt lat="37.836209600" lon="-1.879020100">
        <ele>724.000000</ele>
        <time>2014-03-29T15:38:42Z</time>
      </trkpt>
      <trkpt lat="37.836156600" lon="-1.879105000">
        <ele>724.000000</ele>
        <time>2014-03-29T15:38:43Z</time>
      </trkpt>
      <trkpt lat="37.836095400" lon="-1.879182200">
        <ele>724.000000</ele>
        <time>2014-03-29T15:38:44Z</time>
      </trkpt>
      <trkpt lat="37.836025700" lon="-1.879253600">
        <ele>724.000000</ele>
        <time>2014-03-29T15:38:45Z</time>
      </trkpt>
      <trkpt lat="37.835955200" lon="-1.879328100">
        <ele>724.000000</ele>
        <time>2014-03-29T15:38:46Z</time>
      </trkpt>
      <trkpt lat="37.835883200" lon="-1.879403700">
        <ele>724.000000</ele>
        <time>2014-03-29T15:38:47Z</time>
      </trkpt>
      <trkpt lat="37.835813900" lon="-1.879479400">
        <ele>724.000000</ele>
        <time>2014-03-29T15:38:48Z</time>
      </trkpt>
      <trkpt lat="37.835740900" lon="-1.879553900">
        <ele>724.000000</ele>
        <time>2014-03-29T15:38:49Z</time>
      </trkpt>
      <trkpt lat="37.835665800" lon="-1.879625500">
        <ele>724.000000</ele>
        <time>2014-03-29T15:38:50Z</time>
      </trkpt>
      <trkpt lat="37.835589400" lon="-1.879692700">
        <ele>724.000000</ele>
        <time>2014-03-29T15:38:51Z</time>
      </trkpt>
      <trkpt lat="37.835506600" lon="-1.879757300">
        <ele>723.000000</ele>
        <time>2014-03-29T15:38:52Z</time>
      </trkpt>
      <trkpt lat="37.835426600" lon="-1.879818800">
        <ele>723.000000</ele>
        <time>2014-03-29T15:38:53Z</time>
      </trkpt>
      <trkpt lat="37.835347500" lon="-1.879877000">
        <ele>723.000000</ele>
        <time>2014-03-29T15:38:54Z</time>
      </trkpt>
      <trkpt lat="37.835264300" lon="-1.879936900">
        <ele>723.000000</ele>
        <time>2014-03-29T15:38:55Z</time>
      </trkpt>
      <trkpt lat="37.835179700" lon="-1.879993800">
        <ele>723.000000</ele>
        <time>2014-03-29T15:38:56Z</time>
      </trkpt>
      <trkpt lat="37.835094900" lon="-1.880050800">
        <ele>723.000000</ele>
        <time>2014-03-29T15:38:57Z</time>
      </trkpt>
      <trkpt lat="37.835008100" lon="-1.880107100">
        <ele>723.000000</ele>
        <time>2014-03-29T15:38:58Z</time>
      </trkpt>
      <trkpt lat="37.834920900" lon="-1.880160000">
        <ele>723.000000</ele>
        <time>2014-03-29T15:38:59Z</time>
      </trkpt>
      <trkpt lat="37.834836700" lon="-1.880208900">
        <ele>722.000000</ele>
        <time>2014-03-29T15:39:00Z</time>
      </trkpt>
      <trkpt lat="37.834746600" lon="-1.880249800">
        <ele>722.000000</ele>
        <time>2014-03-29T15:39:01Z</time>
      </trkpt>
      <trkpt lat="37.834654200" lon="-1.880281300">
        <ele>722.000000</ele>
        <time>2014-03-29T15:39:02Z</time>
      </trkpt>
      <trkpt lat="37.834557300" lon="-1.880300000">
        <ele>722.000000</ele>
        <time>2014-03-29T15:39:03Z</time>
      </trkpt>
      <trkpt lat="37.834457700" lon="-1.880302100">
        <ele>721.000000</ele>
        <time>2014-03-29T15:39:04Z</time>
      </trkpt>
      <trkpt lat="37.834358500" lon="-1.880294200">
        <ele>721.000000</ele>
        <time>2014-03-29T15:39:05Z</time>
      </trkpt>
      <trkpt lat="37.834259600" lon="-1.880281700">
        <ele>721.000000</ele>
        <time>2014-03-29T15:39:06Z</time>
      </trkpt>
      <trkpt lat="37.834162200" lon="-1.880268500">
        <ele>721.000000</ele>
        <time>2014-03-29T15:39:07Z</time>
      </trkpt>
      <trkpt lat="37.834068900" lon="-1.880259800">
        <ele>721.000000</ele>
        <time>2014-03-29T15:39:08Z</time>
      </trkpt>
      <trkpt lat="37.833974300" lon="-1.880257200">
        <ele>721.000000</ele>
        <time>2014-03-29T15:39:09Z</time>
      </trkpt>
      <trkpt lat="37.833881100" lon="-1.880264100">
        <ele>721.000000</ele>
        <time>2014-03-29T15:39:10Z</time>
      </trkpt>
      <trkpt lat="37.833789900" lon="-1.880280600">
        <ele>720.000000</ele>
        <time>2014-03-29T15:39:11Z</time>
      </trkpt>
      <trkpt lat="37.833697600" lon="-1.880305400">
        <ele>720.000000</ele>
        <time>2014-03-29T15:39:12Z</time>
      </trkpt>
      <trkpt lat="37.833607000" lon="-1.880335100">
        <ele>720.000000</ele>
        <time>2014-03-29T15:39:13Z</time>
      </trkpt>
      <trkpt lat="37.833514900" lon="-1.880367100">
        <ele>720.000000</ele>
        <time>2014-03-29T15:39:14Z</time>
      </trkpt>
      <trkpt lat="37.833423000" lon="-1.880405000">
        <ele>720.000000</ele>
        <time>2014-03-29T15:39:15Z</time>
      </trkpt>
      <trkpt lat="37.833332500" lon="-1.880451200">
        <ele>720.000000</ele>
        <time>2014-03-29T15:39:16Z</time>
      </trkpt>
      <trkpt lat="37.833241400" lon="-1.880501400">
        <ele>720.000000</ele>
        <time>2014-03-29T15:39:17Z</time>
      </trkpt>
      <trkpt lat="37.833149800" lon="-1.880552500">
        <ele>719.000000</ele>
        <time>2014-03-29T15:39:18Z</time>
      </trkpt>
      <trkpt lat="37.833060900" lon="-1.880605500">
        <ele>719.000000</ele>
        <time>2014-03-29T15:39:19Z</time>
      </trkpt>
      <trkpt lat="37.832972200" lon="-1.880661800">
        <ele>719.000000</ele>
        <time>2014-03-29T15:39:20Z</time>
      </trkpt>
      <trkpt lat="37.832882400" lon="-1.880722300">
        <ele>719.000000</ele>
        <time>2014-03-29T15:39:21Z</time>
      </trkpt>
      <trkpt lat="37.832793900" lon="-1.880782600">
        <ele>718.000000</ele>
        <time>2014-03-29T15:39:22Z</time>
      </trkpt>
      <trkpt lat="37.832709300" lon="-1.880847600">
        <ele>718.000000</ele>
        <time>2014-03-29T15:39:23Z</time>
      </trkpt>
      <trkpt lat="37.832630000" lon="-1.880922200">
        <ele>718.000000</ele>
        <time>2014-03-29T15:39:24Z</time>
      </trkpt>
      <trkpt lat="37.832551800" lon="-1.881002700">
        <ele>717.000000</ele>
        <time>2014-03-29T15:39:25Z</time>
      </trkpt>
      <trkpt lat="37.832477000" lon="-1.881085900">
        <ele>717.000000</ele>
        <time>2014-03-29T15:39:26Z</time>
      </trkpt>
      <trkpt lat="37.832406400" lon="-1.881170300">
        <ele>717.000000</ele>
        <time>2014-03-29T15:39:27Z</time>
      </trkpt>
      <trkpt lat="37.832338400" lon="-1.881258000">
        <ele>716.000000</ele>
        <time>2014-03-29T15:39:28Z</time>
      </trkpt>
      <trkpt lat="37.832269000" lon="-1.881349700">
        <ele>716.000000</ele>
        <time>2014-03-29T15:39:29Z</time>
      </trkpt>
      <trkpt lat="37.832200900" lon="-1.881439200">
        <ele>716.000000</ele>
        <time>2014-03-29T15:39:30Z</time>
      </trkpt>
      <trkpt lat="37.832137200" lon="-1.881523600">
        <ele>715.000000</ele>
        <time>2014-03-29T15:39:31Z</time>
      </trkpt>
      <trkpt lat="37.832071100" lon="-1.881608300">
        <ele>715.000000</ele>
        <time>2014-03-29T15:39:32Z</time>
      </trkpt>
      <trkpt lat="37.832006200" lon="-1.881694100">
        <ele>715.000000</ele>
        <time>2014-03-29T15:39:33Z</time>
      </trkpt>
      <trkpt lat="37.831941200" lon="-1.881779700">
        <ele>715.000000</ele>
        <time>2014-03-29T15:39:34Z</time>
      </trkpt>
      <trkpt lat="37.831873000" lon="-1.881866800">
        <ele>715.000000</ele>
        <time>2014-03-29T15:39:35Z</time>
      </trkpt>
      <trkpt lat="37.831805100" lon="-1.881951500">
        <ele>715.000000</ele>
        <time>2014-03-29T15:39:36Z</time>
      </trkpt>
      <trkpt lat="37.831733000" lon="-1.882031600">
        <ele>715.000000</ele>
        <time>2014-03-29T15:39:37Z</time>
      </trkpt>
      <trkpt lat="37.831655600" lon="-1.882102700">
        <ele>714.000000</ele>
        <time>2014-03-29T15:39:38Z</time>
      </trkpt>
      <trkpt lat="37.831571600" lon="-1.882170600">
        <ele>714.000000</ele>
        <time>2014-03-29T15:39:39Z</time>
      </trkpt>
      <trkpt lat="37.831484500" lon="-1.882228100">
        <ele>714.000000</ele>
        <time>2014-03-29T15:39:40Z</time>
      </trkpt>
      <trkpt lat="37.831395600" lon="-1.882272800">
        <ele>714.000000</ele>
        <time>2014-03-29T15:39:41Z</time>
      </trkpt>
      <trkpt lat="37.831303000" lon="-1.882302300">
        <ele>714.000000</ele>
        <time>2014-03-29T15:39:42Z</time>
      </trkpt>
      <trkpt lat="37.831209600" lon="-1.882330300">
        <ele>714.000000</ele>
        <time>2014-03-29T15:39:43Z</time>
      </trkpt>
      <trkpt lat="37.831113800" lon="-1.882358700">
        <ele>714.000000</ele>
        <time>2014-03-29T15:39:44Z</time>
      </trkpt>
      <trkpt lat="37.831017800" lon="-1.882381500">
        <ele>714.000000</ele>
        <time>2014-03-29T15:39:45Z</time>
      </trkpt>
      <trkpt lat="37.830926500" lon="-1.882397400">
        <ele>714.000000</ele>
        <time>2014-03-29T15:39:46Z</time>
      </trkpt>
      <trkpt lat="37.830837300" lon="-1.882406800">
        <ele>714.000000</ele>
        <time>2014-03-29T15:39:47Z</time>
      </trkpt>
      <trkpt lat="37.830745000" lon="-1.882414200">
        <ele>714.000000</ele>
        <time>2014-03-29T15:39:48Z</time>
      </trkpt>
      <trkpt lat="37.830652800" lon="-1.882416400">
        <ele>714.000000</ele>
        <time>2014-03-29T15:39:49Z</time>
      </trkpt>
      <trkpt lat="37.830558600" lon="-1.882413400">
        <ele>714.000000</ele>
        <time>2014-03-29T15:39:50Z</time>
      </trkpt>
      <trkpt lat="37.830462600" lon="-1.882410000">
        <ele>714.000000</ele>
        <time>2014-03-29T15:39:51Z</time>
      </trkpt>
      <trkpt lat="37.830366400" lon="-1.882401900">
        <ele>714.000000</ele>
        <time>2014-03-29T15:39:52Z</time>
      </trkpt>
      <trkpt lat="37.830268700" lon="-1.882394600">
        <ele>713.000000</ele>
        <time>2014-03-29T15:39:53Z</time>
      </trkpt>
      <trkpt lat="37.830169800" lon="-1.882388100">
        <ele>713.000000</ele>
        <time>2014-03-29T15:39:54Z</time>
      </trkpt>
      <trkpt lat="37.830068800" lon="-1.882377200">
        <ele>713.000000</ele>
        <time>2014-03-29T15:39:55Z</time>
      </trkpt>
      <trkpt lat="37.829966700" lon="-1.882365800">
        <ele>713.000000</ele>
        <time>2014-03-29T15:39:56Z</time>
      </trkpt>
      <trkpt lat="37.829865100" lon="-1.882350800">
        <ele>713.000000</ele>
        <time>2014-03-29T15:39:57Z</time>
      </trkpt>
      <trkpt lat="37.829763400" lon="-1.882329700">
        <ele>713.000000</ele>
        <time>2014-03-29T15:39:58Z</time>
      </trkpt>
      <trkpt lat="37.829660700" lon="-1.882303500">
        <ele>713.000000</ele>
        <time>2014-03-29T15:39:59Z</time>
      </trkpt>
      <trkpt lat="37.829557300" lon="-1.882279000">
        <ele>713.000000</ele>
        <time>2014-03-29T15:40:00Z</time>
      </trkpt>
      <trkpt lat="37.829452500" lon="-1.882257200">
        <ele>713.000000</ele>
        <time>2014-03-29T15:40:01Z</time>
      </trkpt>
      <trkpt lat="37.829346400" lon="-1.882232100">
        <ele>713.000000</ele>
        <time>2014-03-29T15:40:02Z</time>
      </trkpt>
      <trkpt lat="37.829239800" lon="-1.882208000">
        <ele>713.000000</ele>
        <time>2014-03-29T15:40:03Z</time>
      </trkpt>
      <trkpt lat="37.829135000" lon="-1.882187100">
        <ele>712.000000</ele>
        <time>2014-03-29T15:40:04Z</time>
      </trkpt>
      <trkpt lat="37.829030400" lon="-1.882170500">
        <ele>712.000000</ele>
        <time>2014-03-29T15:40:05Z</time>
      </trkpt>
      <trkpt lat="37.828923000" lon="-1.882158700">
        <ele>712.000000</ele>
        <time>2014-03-29T15:40:06Z</time>
      </trkpt>
      <trkpt lat="37.828814500" lon="-1.882151500">
        <ele>712.000000</ele>
        <time>2014-03-29T15:40:07Z</time>
      </trkpt>
      <trkpt lat="37.828708800" lon="-1.882149800">
        <ele>712.000000</ele>
        <time>2014-03-29T15:40:08Z</time>
      </trkpt>
      <trkpt lat="37.828603400" lon="-1.882150300">
        <ele>712.000000</ele>
        <time>2014-03-29T15:40:09Z</time>
      </trkpt>
      <trkpt lat="37.828496300" lon="-1.882156300">
        <ele>711.000000</ele>
        <time>2014-03-29T15:40:10Z</time>
      </trkpt>
      <trkpt lat="37.828388700" lon="-1.882171400">
        <ele>711.000000</ele>
        <time>2014-03-29T15:40:11Z</time>
      </trkpt>
      <trkpt lat="37.828281400" lon="-1.882192100">
        <ele>711.000000</ele>
        <time>2014-03-29T15:40:12Z</time>
      </trkpt>
      <trkpt lat="37.828171400" lon="-1.882216100">
        <ele>711.000000</ele>
        <time>2014-03-29T15:40:13Z</time>
      </trkpt>
      <trkpt lat="37.828058400" lon="-1.882242200">
        <ele>710.000000</ele>
        <time>2014-03-29T15:40:14Z</time>
      </trkpt>
      <trkpt lat="37.827946700" lon="-1.882265600">
        <ele>710.000000</ele>
        <time>2014-03-29T15:40:15Z</time>
      </trkpt>
      <trkpt lat="37.827835700" lon="-1.882291000">
        <ele>710.000000</ele>
        <time>2014-03-29T15:40:16Z</time>
      </trkpt>
      <trkpt lat="37.827722600" lon="-1.882316500">
        <ele>710.000000</ele>
        <time>2014-03-29T15:40:17Z</time>
      </trkpt>
      <trkpt lat="37.827609900" lon="-1.882343700">
        <ele>709.000000</ele>
        <time>2014-03-29T15:40:18Z</time>
      </trkpt>
      <trkpt lat="37.827499400" lon="-1.882369100">
        <ele>709.000000</ele>
        <time>2014-03-29T15:40:19Z</time>
      </trkpt>
      <trkpt lat="37.827391600" lon="-1.882394200">
        <ele>709.000000</ele>
        <time>2014-03-29T15:40:20Z</time>
      </trkpt>
      <trkpt lat="37.827282400" lon="-1.882420900">
        <ele>708.000000</ele>
        <time>2014-03-29T15:40:21Z</time>
      </trkpt>
      <trkpt lat="37.827172400" lon="-1.882448300">
        <ele>708.000000</ele>
        <time>2014-03-29T15:40:22Z</time>
      </trkpt>
      <trkpt lat="37.827060700" lon="-1.882474300">
        <ele>708.000000</ele>
        <time>2014-03-29T15:40:23Z</time>
      </trkpt>
      <trkpt lat="37.826948400" lon="-1.882501600">
        <ele>707.000000</ele>
        <time>2014-03-29T15:40:24Z</time>
      </trkpt>
      <trkpt lat="37.826835400" lon="-1.882528300">
        <ele>707.000000</ele>
        <time>2014-03-29T15:40:25Z</time>
      </trkpt>
      <trkpt lat="37.826721800" lon="-1.882550800">
        <ele>707.000000</ele>
        <time>2014-03-29T15:40:26Z</time>
      </trkpt>
      <trkpt lat="37.826612100" lon="-1.882572600">
        <ele>706.000000</ele>
        <time>2014-03-29T15:40:27Z</time>
      </trkpt>
      <trkpt lat="37.826506000" lon="-1.882596000">
        <ele>706.000000</ele>
        <time>2014-03-29T15:40:28Z</time>
      </trkpt>
      <trkpt lat="37.826402600" lon="-1.882617900">
        <ele>706.000000</ele>
        <time>2014-03-29T15:40:29Z</time>
      </trkpt>
      <trkpt lat="37.826301400" lon="-1.882641100">
        <ele>706.000000</ele>
        <time>2014-03-29T15:40:30Z</time>
      </trkpt>
      <trkpt lat="37.826198800" lon="-1.882664800">
        <ele>706.000000</ele>
        <time>2014-03-29T15:40:31Z</time>
      </trkpt>
      <trkpt lat="37.826095500" lon="-1.882684800">
        <ele>705.000000</ele>
        <time>2014-03-29T15:40:32Z</time>
      </trkpt>
      <trkpt lat="37.825989700" lon="-1.882693000">
        <ele>705.000000</ele>
        <time>2014-03-29T15:40:33Z</time>
      </trkpt>
      <trkpt lat="37.825880600" lon="-1.882691700">
        <ele>705.000000</ele>
        <time>2014-03-29T15:40:34Z</time>
      </trkpt>
      <trkpt lat="37.825770000" lon="-1.882684600">
        <ele>705.000000</ele>
        <time>2014-03-29T15:40:35Z</time>
      </trkpt>
      <trkpt lat="37.825661700" lon="-1.882675300">
        <ele>705.000000</ele>
        <time>2014-03-29T15:40:36Z</time>
      </trkpt>
      <trkpt lat="37.825553800" lon="-1.882667800">
        <ele>705.000000</ele>
        <time>2014-03-29T15:40:37Z</time>
      </trkpt>
      <trkpt lat="37.825445600" lon="-1.882663100">
        <ele>705.000000</ele>
        <time>2014-03-29T15:40:38Z</time>
      </trkpt>
      <trkpt lat="37.825339100" lon="-1.882658100">
        <ele>704.000000</ele>
        <time>2014-03-29T15:40:39Z</time>
      </trkpt>
      <trkpt lat="37.825021600" lon="-1.882682200">
        <ele>704.000000</ele>
        <time>2014-03-29T15:40:40Z</time>
      </trkpt>
      <trkpt lat="37.825021600" lon="-1.882682200">
        <ele>704.000000</ele>
        <time>2014-03-29T15:40:41Z</time>
      </trkpt>
      <trkpt lat="37.824916200" lon="-1.882708100">
        <ele>704.000000</ele>
        <time>2014-03-29T15:40:42Z</time>
      </trkpt>
      <trkpt lat="37.824813600" lon="-1.882736500">
        <ele>704.000000</ele>
        <time>2014-03-29T15:40:43Z</time>
      </trkpt>
      <trkpt lat="37.824711700" lon="-1.882771100">
        <ele>704.000000</ele>
        <time>2014-03-29T15:40:44Z</time>
      </trkpt>
      <trkpt lat="37.824608200" lon="-1.882811700">
        <ele>704.000000</ele>
        <time>2014-03-29T15:40:45Z</time>
      </trkpt>
      <trkpt lat="37.824507200" lon="-1.882857100">
        <ele>703.000000</ele>
        <time>2014-03-29T15:40:46Z</time>
      </trkpt>
      <trkpt lat="37.824405700" lon="-1.882904200">
        <ele>703.000000</ele>
        <time>2014-03-29T15:40:47Z</time>
      </trkpt>
      <trkpt lat="37.824304900" lon="-1.882950700">
        <ele>703.000000</ele>
        <time>2014-03-29T15:40:48Z</time>
      </trkpt>
      <trkpt lat="37.824205100" lon="-1.882995200">
        <ele>703.000000</ele>
        <time>2014-03-29T15:40:49Z</time>
      </trkpt>
      <trkpt lat="37.824104000" lon="-1.883036400">
        <ele>703.000000</ele>
        <time>2014-03-29T15:40:50Z</time>
      </trkpt>
      <trkpt lat="37.824001700" lon="-1.883076600">
        <ele>702.000000</ele>
        <time>2014-03-29T15:40:51Z</time>
      </trkpt>
      <trkpt lat="37.823898700" lon="-1.883117200">
        <ele>702.000000</ele>
        <time>2014-03-29T15:40:52Z</time>
      </trkpt>
      <trkpt lat="37.823796900" lon="-1.883157700">
        <ele>702.000000</ele>
        <time>2014-03-29T15:40:53Z</time>
      </trkpt>
      <trkpt lat="37.823695100" lon="-1.883199900">
        <ele>702.000000</ele>
        <time>2014-03-29T15:40:54Z</time>
      </trkpt>
      <trkpt lat="37.823592400" lon="-1.883240500">
        <ele>702.000000</ele>
        <time>2014-03-29T15:40:55Z</time>
      </trkpt>
      <trkpt lat="37.823491600" lon="-1.883278900">
        <ele>702.000000</ele>
        <time>2014-03-29T15:40:56Z</time>
      </trkpt>
      <trkpt lat="37.823393000" lon="-1.883311800">
        <ele>702.000000</ele>
        <time>2014-03-29T15:40:57Z</time>
      </trkpt>
      <trkpt lat="37.823298800" lon="-1.883345200">
        <ele>702.000000</ele>
        <time>2014-03-29T15:40:58Z</time>
      </trkpt>
      <trkpt lat="37.823207000" lon="-1.883381600">
        <ele>702.000000</ele>
        <time>2014-03-29T15:40:59Z</time>
      </trkpt>
      <trkpt lat="37.823109700" lon="-1.883420100">
        <ele>701.000000</ele>
        <time>2014-03-29T15:41:00Z</time>
      </trkpt>
      <trkpt lat="37.823010600" lon="-1.883458500">
        <ele>701.000000</ele>
        <time>2014-03-29T15:41:01Z</time>
      </trkpt>
      <trkpt lat="37.822911500" lon="-1.883493400">
        <ele>701.000000</ele>
        <time>2014-03-29T15:41:02Z</time>
      </trkpt>
      <trkpt lat="37.822814600" lon="-1.883529600">
        <ele>701.000000</ele>
        <time>2014-03-29T15:41:03Z</time>
      </trkpt>
      <trkpt lat="37.822720000" lon="-1.883567700">
        <ele>701.000000</ele>
        <time>2014-03-29T15:41:04Z</time>
      </trkpt>
      <trkpt lat="37.822626800" lon="-1.883606900">
        <ele>701.000000</ele>
        <time>2014-03-29T15:41:05Z</time>
      </trkpt>
      <trkpt lat="37.822533900" lon="-1.883643700">
        <ele>701.000000</ele>
        <time>2014-03-29T15:41:06Z</time>
      </trkpt>
      <trkpt lat="37.822441600" lon="-1.883679800">
        <ele>701.000000</ele>
        <time>2014-03-29T15:41:07Z</time>
      </trkpt>
      <trkpt lat="37.822347700" lon="-1.883719000">
        <ele>701.000000</ele>
        <time>2014-03-29T15:41:08Z</time>
      </trkpt>
      <trkpt lat="37.822253400" lon="-1.883760000">
        <ele>701.000000</ele>
        <time>2014-03-29T15:41:09Z</time>
      </trkpt>
      <trkpt lat="37.822159500" lon="-1.883799200">
        <ele>701.000000</ele>
        <time>2014-03-29T15:41:10Z</time>
      </trkpt>
      <trkpt lat="37.822069000" lon="-1.883837600">
        <ele>701.000000</ele>
        <time>2014-03-29T15:41:11Z</time>
      </trkpt>
      <trkpt lat="37.821980000" lon="-1.883874100">
        <ele>701.000000</ele>
        <time>2014-03-29T15:41:12Z</time>
      </trkpt>
      <trkpt lat="37.821890600" lon="-1.883909000">
        <ele>700.000000</ele>
        <time>2014-03-29T15:41:13Z</time>
      </trkpt>
      <trkpt lat="37.821801200" lon="-1.883943700">
        <ele>700.000000</ele>
        <time>2014-03-29T15:41:14Z</time>
      </trkpt>
      <trkpt lat="37.821713900" lon="-1.883976100">
        <ele>700.000000</ele>
        <time>2014-03-29T15:41:15Z</time>
      </trkpt>
      <trkpt lat="37.821626600" lon="-1.884009400">
        <ele>700.000000</ele>
        <time>2014-03-29T15:41:16Z</time>
      </trkpt>
      <trkpt lat="37.821539800" lon="-1.884044900">
        <ele>700.000000</ele>
        <time>2014-03-29T15:41:17Z</time>
      </trkpt>
      <trkpt lat="37.821454000" lon="-1.884079100">
        <ele>700.000000</ele>
        <time>2014-03-29T15:41:18Z</time>
      </trkpt>
      <trkpt lat="37.821367300" lon="-1.884113100">
        <ele>700.000000</ele>
        <time>2014-03-29T15:41:19Z</time>
      </trkpt>
      <trkpt lat="37.821281400" lon="-1.884141600">
        <ele>700.000000</ele>
        <time>2014-03-29T15:41:20Z</time>
      </trkpt>
      <trkpt lat="37.821193700" lon="-1.884165500">
        <ele>700.000000</ele>
        <time>2014-03-29T15:41:21Z</time>
      </trkpt>
      <trkpt lat="37.821107800" lon="-1.884190800">
        <ele>700.000000</ele>
        <time>2014-03-29T15:41:22Z</time>
      </trkpt>
      <trkpt lat="37.821023200" lon="-1.884213900">
        <ele>700.000000</ele>
        <time>2014-03-29T15:41:23Z</time>
      </trkpt>
      <trkpt lat="37.820939600" lon="-1.884228700">
        <ele>700.000000</ele>
        <time>2014-03-29T15:41:24Z</time>
      </trkpt>
      <trkpt lat="37.820856700" lon="-1.884237500">
        <ele>700.000000</ele>
        <time>2014-03-29T15:41:25Z</time>
      </trkpt>
      <trkpt lat="37.820772200" lon="-1.884247100">
        <ele>700.000000</ele>
        <time>2014-03-29T15:41:26Z</time>
      </trkpt>
      <trkpt lat="37.820688700" lon="-1.884257300">
        <ele>700.000000</ele>
        <time>2014-03-29T15:41:27Z</time>
      </trkpt>
      <trkpt lat="37.820605900" lon="-1.884264400">
        <ele>700.000000</ele>
        <time>2014-03-29T15:41:28Z</time>
      </trkpt>
      <trkpt lat="37.820524700" lon="-1.884270000">
        <ele>700.000000</ele>
        <time>2014-03-29T15:41:29Z</time>
      </trkpt>
      <trkpt lat="37.820443300" lon="-1.884276300">
        <ele>700.000000</ele>
        <time>2014-03-29T15:41:30Z</time>
      </trkpt>
      <trkpt lat="37.820363300" lon="-1.884283600">
        <ele>700.000000</ele>
        <time>2014-03-29T15:41:31Z</time>
      </trkpt>
      <trkpt lat="37.820282200" lon="-1.884290200">
        <ele>700.000000</ele>
        <time>2014-03-29T15:41:32Z</time>
      </trkpt>
      <trkpt lat="37.820198800" lon="-1.884297000">
        <ele>700.000000</ele>
        <time>2014-03-29T15:41:33Z</time>
      </trkpt>
      <trkpt lat="37.820115600" lon="-1.884302000">
        <ele>700.000000</ele>
        <time>2014-03-29T15:41:34Z</time>
      </trkpt>
      <trkpt lat="37.820032800" lon="-1.884308400">
        <ele>700.000000</ele>
        <time>2014-03-29T15:41:35Z</time>
      </trkpt>
      <trkpt lat="37.819947500" lon="-1.884314700">
        <ele>700.000000</ele>
        <time>2014-03-29T15:41:36Z</time>
      </trkpt>
      <trkpt lat="37.819859700" lon="-1.884319600">
        <ele>700.000000</ele>
        <time>2014-03-29T15:41:37Z</time>
      </trkpt>
      <trkpt lat="37.819771400" lon="-1.884323600">
        <ele>699.000000</ele>
        <time>2014-03-29T15:41:38Z</time>
      </trkpt>
      <trkpt lat="37.819682500" lon="-1.884329100">
        <ele>699.000000</ele>
        <time>2014-03-29T15:41:39Z</time>
      </trkpt>
      <trkpt lat="37.819595700" lon="-1.884335800">
        <ele>699.000000</ele>
        <time>2014-03-29T15:41:40Z</time>
      </trkpt>
      <trkpt lat="37.819508300" lon="-1.884344800">
        <ele>700.000000</ele>
        <time>2014-03-29T15:41:41Z</time>
      </trkpt>
      <trkpt lat="37.819419200" lon="-1.884354900">
        <ele>700.000000</ele>
        <time>2014-03-29T15:41:42Z</time>
      </trkpt>
      <trkpt lat="37.819328400" lon="-1.884369100">
        <ele>700.000000</ele>
        <time>2014-03-29T15:41:43Z</time>
      </trkpt>
      <trkpt lat="37.819237200" lon="-1.884390200">
        <ele>700.000000</ele>
        <time>2014-03-29T15:41:44Z</time>
      </trkpt>
      <trkpt lat="37.819144300" lon="-1.884413000">
        <ele>700.000000</ele>
        <time>2014-03-29T15:41:45Z</time>
      </trkpt>
      <trkpt lat="37.819052100" lon="-1.884435300">
        <ele>700.000000</ele>
        <time>2014-03-29T15:41:46Z</time>
      </trkpt>
      <trkpt lat="37.818962200" lon="-1.884458200">
        <ele>700.000000</ele>
        <time>2014-03-29T15:41:47Z</time>
      </trkpt>
      <trkpt lat="37.818872300" lon="-1.884485100">
        <ele>700.000000</ele>
        <time>2014-03-29T15:41:48Z</time>
      </trkpt>
      <trkpt lat="37.818781400" lon="-1.884515900">
        <ele>700.000000</ele>
        <time>2014-03-29T15:41:49Z</time>
      </trkpt>
      <trkpt lat="37.818688500" lon="-1.884546500">
        <ele>701.000000</ele>
        <time>2014-03-29T15:41:50Z</time>
      </trkpt>
      <trkpt lat="37.818593400" lon="-1.884574000">
        <ele>701.000000</ele>
        <time>2014-03-29T15:41:51Z</time>
      </trkpt>
      <trkpt lat="37.818497400" lon="-1.884599600">
        <ele>701.000000</ele>
        <time>2014-03-29T15:41:52Z</time>
      </trkpt>
      <trkpt lat="37.818400100" lon="-1.884625000">
        <ele>701.000000</ele>
        <time>2014-03-29T15:41:53Z</time>
      </trkpt>
      <trkpt lat="37.818302600" lon="-1.884650200">
        <ele>701.000000</ele>
        <time>2014-03-29T15:41:54Z</time>
      </trkpt>
      <trkpt lat="37.818202600" lon="-1.884677200">
        <ele>701.000000</ele>
        <time>2014-03-29T15:41:55Z</time>
      </trkpt>
      <trkpt lat="37.818108200" lon="-1.884705200">
        <ele>701.000000</ele>
        <time>2014-03-29T15:41:56Z</time>
      </trkpt>
      <trkpt lat="37.818013500" lon="-1.884733800">
        <ele>701.000000</ele>
        <time>2014-03-29T15:41:57Z</time>
      </trkpt>
      <trkpt lat="37.817917400" lon="-1.884762500">
        <ele>701.000000</ele>
        <time>2014-03-29T15:41:58Z</time>
      </trkpt>
      <trkpt lat="37.817823100" lon="-1.884788500">
        <ele>701.000000</ele>
        <time>2014-03-29T15:41:59Z</time>
      </trkpt>
      <trkpt lat="37.817730300" lon="-1.884812600">
        <ele>701.000000</ele>
        <time>2014-03-29T15:42:00Z</time>
      </trkpt>
      <trkpt lat="37.817638800" lon="-1.884839600">
        <ele>701.000000</ele>
        <time>2014-03-29T15:42:01Z</time>
      </trkpt>
      <trkpt lat="37.817546300" lon="-1.884869500">
        <ele>701.000000</ele>
        <time>2014-03-29T15:42:02Z</time>
      </trkpt>
      <trkpt lat="37.817453100" lon="-1.884901300">
        <ele>700.000000</ele>
        <time>2014-03-29T15:42:03Z</time>
      </trkpt>
      <trkpt lat="37.817360000" lon="-1.884930800">
        <ele>700.000000</ele>
        <time>2014-03-29T15:42:04Z</time>
      </trkpt>
      <trkpt lat="37.817263400" lon="-1.884960200">
        <ele>700.000000</ele>
        <time>2014-03-29T15:42:05Z</time>
      </trkpt>
      <trkpt lat="37.817168100" lon="-1.884989700">
        <ele>700.000000</ele>
        <time>2014-03-29T15:42:06Z</time>
      </trkpt>
      <trkpt lat="37.817067100" lon="-1.885018100">
        <ele>700.000000</ele>
        <time>2014-03-29T15:42:07Z</time>
      </trkpt>
      <trkpt lat="37.816960200" lon="-1.885049400">
        <ele>699.000000</ele>
        <time>2014-03-29T15:42:08Z</time>
      </trkpt>
      <trkpt lat="37.816853700" lon="-1.885082200">
        <ele>699.000000</ele>
        <time>2014-03-29T15:42:09Z</time>
      </trkpt>
      <trkpt lat="37.816748900" lon="-1.885113400">
        <ele>699.000000</ele>
        <time>2014-03-29T15:42:10Z</time>
      </trkpt>
      <trkpt lat="37.816645900" lon="-1.885142600">
        <ele>698.000000</ele>
        <time>2014-03-29T15:42:11Z</time>
      </trkpt>
      <trkpt lat="37.816545300" lon="-1.885165800">
        <ele>698.000000</ele>
        <time>2014-03-29T15:42:12Z</time>
      </trkpt>
      <trkpt lat="37.816444100" lon="-1.885182900">
        <ele>698.000000</ele>
        <time>2014-03-29T15:42:13Z</time>
      </trkpt>
      <trkpt lat="37.816343300" lon="-1.885199700">
        <ele>698.000000</ele>
        <time>2014-03-29T15:42:14Z</time>
      </trkpt>
      <trkpt lat="37.816243400" lon="-1.885215500">
        <ele>697.000000</ele>
        <time>2014-03-29T15:42:15Z</time>
      </trkpt>
      <trkpt lat="37.816148100" lon="-1.885231000">
        <ele>697.000000</ele>
        <time>2014-03-29T15:42:16Z</time>
      </trkpt>
      <trkpt lat="37.816054000" lon="-1.885243400">
        <ele>697.000000</ele>
        <time>2014-03-29T15:42:17Z</time>
      </trkpt>
      <trkpt lat="37.815961200" lon="-1.885256300">
        <ele>697.000000</ele>
        <time>2014-03-29T15:42:18Z</time>
      </trkpt>
      <trkpt lat="37.815867300" lon="-1.885269000">
        <ele>697.000000</ele>
        <time>2014-03-29T15:42:19Z</time>
      </trkpt>
      <trkpt lat="37.815779500" lon="-1.885283900">
        <ele>696.000000</ele>
        <time>2014-03-29T15:42:20Z</time>
      </trkpt>
      <trkpt lat="37.815692100" lon="-1.885299200">
        <ele>696.000000</ele>
        <time>2014-03-29T15:42:21Z</time>
      </trkpt>
      <trkpt lat="37.815605500" lon="-1.885313300">
        <ele>696.000000</ele>
        <time>2014-03-29T15:42:22Z</time>
      </trkpt>
      <trkpt lat="37.815524700" lon="-1.885325300">
        <ele>696.000000</ele>
        <time>2014-03-29T15:42:23Z</time>
      </trkpt>
      <trkpt lat="37.815447900" lon="-1.885335000">
        <ele>696.000000</ele>
        <time>2014-03-29T15:42:24Z</time>
      </trkpt>
      <trkpt lat="37.815372600" lon="-1.885343500">
        <ele>696.000000</ele>
        <time>2014-03-29T15:42:25Z</time>
      </trkpt>
      <trkpt lat="37.815300500" lon="-1.885352000">
        <ele>696.000000</ele>
        <time>2014-03-29T15:42:26Z</time>
      </trkpt>
      <trkpt lat="37.815228900" lon="-1.885361000">
        <ele>696.000000</ele>
        <time>2014-03-29T15:42:27Z</time>
      </trkpt>
      <trkpt lat="37.815158400" lon="-1.885368200">
        <ele>696.000000</ele>
        <time>2014-03-29T15:42:28Z</time>
      </trkpt>
      <trkpt lat="37.815090700" lon="-1.885376800">
        <ele>696.000000</ele>
        <time>2014-03-29T15:42:29Z</time>
      </trkpt>
      <trkpt lat="37.815020500" lon="-1.885387200">
        <ele>696.000000</ele>
        <time>2014-03-29T15:42:30Z</time>
      </trkpt>
      <trkpt lat="37.814948600" lon="-1.885398500">
        <ele>697.000000</ele>
        <time>2014-03-29T15:42:31Z</time>
      </trkpt>
      <trkpt lat="37.814878400" lon="-1.885410100">
        <ele>697.000000</ele>
        <time>2014-03-29T15:42:32Z</time>
      </trkpt>
      <trkpt lat="37.814809500" lon="-1.885419900">
        <ele>697.000000</ele>
        <time>2014-03-29T15:42:33Z</time>
      </trkpt>
      <trkpt lat="37.814742000" lon="-1.885432300">
        <ele>697.000000</ele>
        <time>2014-03-29T15:42:34Z</time>
      </trkpt>
      <trkpt lat="37.814674500" lon="-1.885446700">
        <ele>697.000000</ele>
        <time>2014-03-29T15:42:35Z</time>
      </trkpt>
      <trkpt lat="37.814603300" lon="-1.885463600">
        <ele>697.000000</ele>
        <time>2014-03-29T15:42:36Z</time>
      </trkpt>
      <trkpt lat="37.814530600" lon="-1.885484000">
        <ele>697.000000</ele>
        <time>2014-03-29T15:42:37Z</time>
      </trkpt>
      <trkpt lat="37.814454000" lon="-1.885513000">
        <ele>697.000000</ele>
        <time>2014-03-29T15:42:38Z</time>
      </trkpt>
      <trkpt lat="37.814378500" lon="-1.885554700">
        <ele>697.000000</ele>
        <time>2014-03-29T15:42:39Z</time>
      </trkpt>
      <trkpt lat="37.814303000" lon="-1.885601100">
        <ele>697.000000</ele>
        <time>2014-03-29T15:42:40Z</time>
      </trkpt>
      <trkpt lat="37.814227700" lon="-1.885651100">
        <ele>697.000000</ele>
        <time>2014-03-29T15:42:41Z</time>
      </trkpt>
      <trkpt lat="37.814154000" lon="-1.885701800">
        <ele>697.000000</ele>
        <time>2014-03-29T15:42:42Z</time>
      </trkpt>
      <trkpt lat="37.814078700" lon="-1.885753600">
        <ele>697.000000</ele>
        <time>2014-03-29T15:42:43Z</time>
      </trkpt>
      <trkpt lat="37.814000700" lon="-1.885808100">
        <ele>697.000000</ele>
        <time>2014-03-29T15:42:44Z</time>
      </trkpt>
      <trkpt lat="37.813920900" lon="-1.885865400">
        <ele>697.000000</ele>
        <time>2014-03-29T15:42:45Z</time>
      </trkpt>
      <trkpt lat="37.813840500" lon="-1.885922500">
        <ele>697.000000</ele>
        <time>2014-03-29T15:42:46Z</time>
      </trkpt>
      <trkpt lat="37.813754200" lon="-1.885980900">
        <ele>697.000000</ele>
        <time>2014-03-29T15:42:47Z</time>
      </trkpt>
      <trkpt lat="37.813665900" lon="-1.886040400">
        <ele>697.000000</ele>
        <time>2014-03-29T15:42:48Z</time>
      </trkpt>
      <trkpt lat="37.813576800" lon="-1.886101600">
        <ele>697.000000</ele>
        <time>2014-03-29T15:42:49Z</time>
      </trkpt>
      <trkpt lat="37.813488200" lon="-1.886163400">
        <ele>697.000000</ele>
        <time>2014-03-29T15:42:50Z</time>
      </trkpt>
      <trkpt lat="37.813395600" lon="-1.886225600">
        <ele>697.000000</ele>
        <time>2014-03-29T15:42:51Z</time>
      </trkpt>
      <trkpt lat="37.813299800" lon="-1.886285900">
        <ele>696.000000</ele>
        <time>2014-03-29T15:42:52Z</time>
      </trkpt>
      <trkpt lat="37.813204000" lon="-1.886349800">
        <ele>696.000000</ele>
        <time>2014-03-29T15:42:53Z</time>
      </trkpt>
      <trkpt lat="37.813106200" lon="-1.886416900">
        <ele>696.000000</ele>
        <time>2014-03-29T15:42:54Z</time>
      </trkpt>
      <trkpt lat="37.813011100" lon="-1.886484100">
        <ele>696.000000</ele>
        <time>2014-03-29T15:42:55Z</time>
      </trkpt>
      <trkpt lat="37.812915600" lon="-1.886548800">
        <ele>696.000000</ele>
        <time>2014-03-29T15:42:56Z</time>
      </trkpt>
      <trkpt lat="37.812819800" lon="-1.886614100">
        <ele>695.000000</ele>
        <time>2014-03-29T15:42:57Z</time>
      </trkpt>
      <trkpt lat="37.812725600" lon="-1.886679400">
        <ele>695.000000</ele>
        <time>2014-03-29T15:42:58Z</time>
      </trkpt>
      <trkpt lat="37.812631600" lon="-1.886744600">
        <ele>695.000000</ele>
        <time>2014-03-29T15:42:59Z</time>
      </trkpt>
      <trkpt lat="37.812538000" lon="-1.886805200">
        <ele>694.000000</ele>
        <time>2014-03-29T15:43:00Z</time>
      </trkpt>
      <trkpt lat="37.812447800" lon="-1.886865500">
        <ele>694.000000</ele>
        <time>2014-03-29T15:43:01Z</time>
      </trkpt>
      <trkpt lat="37.812360900" lon="-1.886924700">
        <ele>694.000000</ele>
        <time>2014-03-29T15:43:02Z</time>
      </trkpt>
      <trkpt lat="37.812275800" lon="-1.886984000">
        <ele>693.000000</ele>
        <time>2014-03-29T15:43:03Z</time>
      </trkpt>
      <trkpt lat="37.812190000" lon="-1.887041000">
        <ele>693.000000</ele>
        <time>2014-03-29T15:43:04Z</time>
      </trkpt>
      <trkpt lat="37.812105500" lon="-1.887098600">
        <ele>693.000000</ele>
        <time>2014-03-29T15:43:05Z</time>
      </trkpt>
      <trkpt lat="37.812019600" lon="-1.887156800">
        <ele>693.000000</ele>
        <time>2014-03-29T15:43:06Z</time>
      </trkpt>
      <trkpt lat="37.811933000" lon="-1.887212500">
        <ele>692.000000</ele>
        <time>2014-03-29T15:43:07Z</time>
      </trkpt>
      <trkpt lat="37.811847300" lon="-1.887269900">
        <ele>692.000000</ele>
        <time>2014-03-29T15:43:08Z</time>
      </trkpt>
      <trkpt lat="37.811762400" lon="-1.887324700">
        <ele>692.000000</ele>
        <time>2014-03-29T15:43:09Z</time>
      </trkpt>
      <trkpt lat="37.811679500" lon="-1.887376000">
        <ele>692.000000</ele>
        <time>2014-03-29T15:43:10Z</time>
      </trkpt>
      <trkpt lat="37.811597500" lon="-1.887424800">
        <ele>692.000000</ele>
        <time>2014-03-29T15:43:11Z</time>
      </trkpt>
      <trkpt lat="37.811515900" lon="-1.887474600">
        <ele>692.000000</ele>
        <time>2014-03-29T15:43:12Z</time>
      </trkpt>
      <trkpt lat="37.811434500" lon="-1.887527000">
        <ele>692.000000</ele>
        <time>2014-03-29T15:43:13Z</time>
      </trkpt>
      <trkpt lat="37.811353500" lon="-1.887577900">
        <ele>691.000000</ele>
        <time>2014-03-29T15:43:14Z</time>
      </trkpt>
      <trkpt lat="37.811275200" lon="-1.887627400">
        <ele>691.000000</ele>
        <time>2014-03-29T15:43:15Z</time>
      </trkpt>
      <trkpt lat="37.811198800" lon="-1.887677100">
        <ele>691.000000</ele>
        <time>2014-03-29T15:43:16Z</time>
      </trkpt>
      <trkpt lat="37.811120900" lon="-1.887725800">
        <ele>691.000000</ele>
        <time>2014-03-29T15:43:17Z</time>
      </trkpt>
      <trkpt lat="37.811044600" lon="-1.887774600">
        <ele>692.000000</ele>
        <time>2014-03-29T15:43:18Z</time>
      </trkpt>
      <trkpt lat="37.810969900" lon="-1.887822500">
        <ele>692.000000</ele>
        <time>2014-03-29T15:43:19Z</time>
      </trkpt>
      <trkpt lat="37.810895800" lon="-1.887867800">
        <ele>692.000000</ele>
        <time>2014-03-29T15:43:20Z</time>
      </trkpt>
      <trkpt lat="37.810823700" lon="-1.887911900">
        <ele>692.000000</ele>
        <time>2014-03-29T15:43:21Z</time>
      </trkpt>
      <trkpt lat="37.810754000" lon="-1.887957100">
        <ele>692.000000</ele>
        <time>2014-03-29T15:43:22Z</time>
      </trkpt>
      <trkpt lat="37.810685300" lon="-1.888002800">
        <ele>692.000000</ele>
        <time>2014-03-29T15:43:23Z</time>
      </trkpt>
      <trkpt lat="37.810614800" lon="-1.888048100">
        <ele>692.000000</ele>
        <time>2014-03-29T15:43:24Z</time>
      </trkpt>
      <trkpt lat="37.810546200" lon="-1.888090400">
        <ele>693.000000</ele>
        <time>2014-03-29T15:43:25Z</time>
      </trkpt>
      <trkpt lat="37.810478600" lon="-1.888125600">
        <ele>693.000000</ele>
        <time>2014-03-29T15:43:26Z</time>
      </trkpt>
      <trkpt lat="37.810407700" lon="-1.888151100">
        <ele>693.000000</ele>
        <time>2014-03-29T15:43:27Z</time>
      </trkpt>
      <trkpt lat="37.810334900" lon="-1.888176100">
        <ele>693.000000</ele>
        <time>2014-03-29T15:43:28Z</time>
      </trkpt>
      <trkpt lat="37.810262300" lon="-1.888190900">
        <ele>694.000000</ele>
        <time>2014-03-29T15:43:29Z</time>
      </trkpt>
      <trkpt lat="37.810179300" lon="-1.888185400">
        <ele>694.000000</ele>
        <time>2014-03-29T15:43:30Z</time>
      </trkpt>
      <trkpt lat="37.810102100" lon="-1.888171800">
        <ele>695.000000</ele>
        <time>2014-03-29T15:43:31Z</time>
      </trkpt>
      <trkpt lat="37.810024200" lon="-1.888152800">
        <ele>695.000000</ele>
        <time>2014-03-29T15:43:32Z</time>
      </trkpt>
      <trkpt lat="37.809950800" lon="-1.888130500">
        <ele>695.000000</ele>
        <time>2014-03-29T15:43:33Z</time>
      </trkpt>
      <trkpt lat="37.809877500" lon="-1.888104800">
        <ele>696.000000</ele>
        <time>2014-03-29T15:43:34Z</time>
      </trkpt>
      <trkpt lat="37.809802700" lon="-1.888077100">
        <ele>696.000000</ele>
        <time>2014-03-29T15:43:35Z</time>
      </trkpt>
      <trkpt lat="37.809725800" lon="-1.888047800">
        <ele>696.000000</ele>
        <time>2014-03-29T15:43:36Z</time>
      </trkpt>
      <trkpt lat="37.809652100" lon="-1.888026600">
        <ele>697.000000</ele>
        <time>2014-03-29T15:43:37Z</time>
      </trkpt>
      <trkpt lat="37.809580000" lon="-1.888011400">
        <ele>697.000000</ele>
        <time>2014-03-29T15:43:38Z</time>
      </trkpt>
      <trkpt lat="37.809504200" lon="-1.887992900">
        <ele>697.000000</ele>
        <time>2014-03-29T15:43:39Z</time>
      </trkpt>
      <trkpt lat="37.809424600" lon="-1.887970300">
        <ele>698.000000</ele>
        <time>2014-03-29T15:43:40Z</time>
      </trkpt>
      <trkpt lat="37.809344600" lon="-1.887950200">
        <ele>698.000000</ele>
        <time>2014-03-29T15:43:41Z</time>
      </trkpt>
      <trkpt lat="37.809261600" lon="-1.887936400">
        <ele>698.000000</ele>
        <time>2014-03-29T15:43:42Z</time>
      </trkpt>
      <trkpt lat="37.809178600" lon="-1.887922400">
        <ele>698.000000</ele>
        <time>2014-03-29T15:43:43Z</time>
      </trkpt>
      <trkpt lat="37.809095000" lon="-1.887908100">
        <ele>699.000000</ele>
        <time>2014-03-29T15:43:44Z</time>
      </trkpt>
      <trkpt lat="37.809012600" lon="-1.887894700">
        <ele>699.000000</ele>
        <time>2014-03-29T15:43:45Z</time>
      </trkpt>
      <trkpt lat="37.808930200" lon="-1.887884600">
        <ele>699.000000</ele>
        <time>2014-03-29T15:43:46Z</time>
      </trkpt>
      <trkpt lat="37.808844900" lon="-1.887872500">
        <ele>699.000000</ele>
        <time>2014-03-29T15:43:47Z</time>
      </trkpt>
      <trkpt lat="37.808756600" lon="-1.887859900">
        <ele>699.000000</ele>
        <time>2014-03-29T15:43:48Z</time>
      </trkpt>
      <trkpt lat="37.808663400" lon="-1.887846900">
        <ele>699.000000</ele>
        <time>2014-03-29T15:43:49Z</time>
      </trkpt>
      <trkpt lat="37.808570000" lon="-1.887832800">
        <ele>699.000000</ele>
        <time>2014-03-29T15:43:50Z</time>
      </trkpt>
      <trkpt lat="37.808475000" lon="-1.887818800">
        <ele>698.000000</ele>
        <time>2014-03-29T15:43:51Z</time>
      </trkpt>
      <trkpt lat="37.808382800" lon="-1.887805900">
        <ele>698.000000</ele>
        <time>2014-03-29T15:43:52Z</time>
      </trkpt>
      <trkpt lat="37.808291700" lon="-1.887792300">
        <ele>698.000000</ele>
        <time>2014-03-29T15:43:53Z</time>
      </trkpt>
      <trkpt lat="37.808198600" lon="-1.887779200">
        <ele>698.000000</ele>
        <time>2014-03-29T15:43:54Z</time>
      </trkpt>
      <trkpt lat="37.808106200" lon="-1.887765300">
        <ele>698.000000</ele>
        <time>2014-03-29T15:43:55Z</time>
      </trkpt>
      <trkpt lat="37.808011400" lon="-1.887750500">
        <ele>697.000000</ele>
        <time>2014-03-29T15:43:56Z</time>
      </trkpt>
      <trkpt lat="37.807914800" lon="-1.887734500">
        <ele>697.000000</ele>
        <time>2014-03-29T15:43:57Z</time>
      </trkpt>
      <trkpt lat="37.807818400" lon="-1.887720800">
        <ele>697.000000</ele>
        <time>2014-03-29T15:43:58Z</time>
      </trkpt>
      <trkpt lat="37.807718700" lon="-1.887705900">
        <ele>697.000000</ele>
        <time>2014-03-29T15:43:59Z</time>
      </trkpt>
      <trkpt lat="37.807617000" lon="-1.887690400">
        <ele>697.000000</ele>
        <time>2014-03-29T15:44:00Z</time>
      </trkpt>
      <trkpt lat="37.807517700" lon="-1.887677300">
        <ele>697.000000</ele>
        <time>2014-03-29T15:44:01Z</time>
      </trkpt>
      <trkpt lat="37.807420200" lon="-1.887664800">
        <ele>696.000000</ele>
        <time>2014-03-29T15:44:02Z</time>
      </trkpt>
      <trkpt lat="37.807321500" lon="-1.887649100">
        <ele>696.000000</ele>
        <time>2014-03-29T15:44:03Z</time>
      </trkpt>
      <trkpt lat="37.807223400" lon="-1.887634600">
        <ele>696.000000</ele>
        <time>2014-03-29T15:44:04Z</time>
      </trkpt>
      <trkpt lat="37.807126200" lon="-1.887621600">
        <ele>696.000000</ele>
        <time>2014-03-29T15:44:05Z</time>
      </trkpt>
      <trkpt lat="37.807029000" lon="-1.887607200">
        <ele>695.000000</ele>
        <time>2014-03-29T15:44:06Z</time>
      </trkpt>
      <trkpt lat="37.806932400" lon="-1.887593200">
        <ele>695.000000</ele>
        <time>2014-03-29T15:44:07Z</time>
      </trkpt>
      <trkpt lat="37.806835700" lon="-1.887580100">
        <ele>695.000000</ele>
        <time>2014-03-29T15:44:08Z</time>
      </trkpt>
      <trkpt lat="37.806738400" lon="-1.887565100">
        <ele>695.000000</ele>
        <time>2014-03-29T15:44:09Z</time>
      </trkpt>
      <trkpt lat="37.806641600" lon="-1.887547800">
        <ele>694.000000</ele>
        <time>2014-03-29T15:44:10Z</time>
      </trkpt>
      <trkpt lat="37.806544600" lon="-1.887530000">
        <ele>694.000000</ele>
        <time>2014-03-29T15:44:11Z</time>
      </trkpt>
      <trkpt lat="37.806448200" lon="-1.887512000">
        <ele>694.000000</ele>
        <time>2014-03-29T15:44:12Z</time>
      </trkpt>
      <trkpt lat="37.806353200" lon="-1.887493500">
        <ele>694.000000</ele>
        <time>2014-03-29T15:44:13Z</time>
      </trkpt>
      <trkpt lat="37.806258500" lon="-1.887473800">
        <ele>693.000000</ele>
        <time>2014-03-29T15:44:14Z</time>
      </trkpt>
      <trkpt lat="37.806163200" lon="-1.887453900">
        <ele>693.000000</ele>
        <time>2014-03-29T15:44:15Z</time>
      </trkpt>
      <trkpt lat="37.806070500" lon="-1.887439700">
        <ele>693.000000</ele>
        <time>2014-03-29T15:44:16Z</time>
      </trkpt>
      <trkpt lat="37.805970300" lon="-1.887425400">
        <ele>692.000000</ele>
        <time>2014-03-29T15:44:17Z</time>
      </trkpt>
      <trkpt lat="37.805865100" lon="-1.887409000">
        <ele>692.000000</ele>
        <time>2014-03-29T15:44:18Z</time>
      </trkpt>
      <trkpt lat="37.805755400" lon="-1.887395600">
        <ele>692.000000</ele>
        <time>2014-03-29T15:44:19Z</time>
      </trkpt>
      <trkpt lat="37.805644400" lon="-1.887386700">
        <ele>691.000000</ele>
        <time>2014-03-29T15:44:20Z</time>
      </trkpt>
      <trkpt lat="37.805532900" lon="-1.887385800">
        <ele>691.000000</ele>
        <time>2014-03-29T15:44:21Z</time>
      </trkpt>
      <trkpt lat="37.805419900" lon="-1.887386400">
        <ele>691.000000</ele>
        <time>2014-03-29T15:44:22Z</time>
      </trkpt>
      <trkpt lat="37.805305100" lon="-1.887392000">
        <ele>690.000000</ele>
        <time>2014-03-29T15:44:23Z</time>
      </trkpt>
      <trkpt lat="37.805188100" lon="-1.887398900">
        <ele>690.000000</ele>
        <time>2014-03-29T15:44:24Z</time>
      </trkpt>
      <trkpt lat="37.805072800" lon="-1.887408700">
        <ele>689.000000</ele>
        <time>2014-03-29T15:44:25Z</time>
      </trkpt>
      <trkpt lat="37.804960700" lon="-1.887421600">
        <ele>689.000000</ele>
        <time>2014-03-29T15:44:26Z</time>
      </trkpt>
      <trkpt lat="37.804852600" lon="-1.887433600">
        <ele>688.000000</ele>
        <time>2014-03-29T15:44:27Z</time>
      </trkpt>
      <trkpt lat="37.804743200" lon="-1.887444900">
        <ele>688.000000</ele>
        <time>2014-03-29T15:44:28Z</time>
      </trkpt>
      <trkpt lat="37.804631800" lon="-1.887458600">
        <ele>687.000000</ele>
        <time>2014-03-29T15:44:29Z</time>
      </trkpt>
      <trkpt lat="37.804517200" lon="-1.887472000">
        <ele>687.000000</ele>
        <time>2014-03-29T15:44:30Z</time>
      </trkpt>
      <trkpt lat="37.804403200" lon="-1.887484400">
        <ele>686.000000</ele>
        <time>2014-03-29T15:44:31Z</time>
      </trkpt>
      <trkpt lat="37.804290100" lon="-1.887494600">
        <ele>686.000000</ele>
        <time>2014-03-29T15:44:32Z</time>
      </trkpt>
      <trkpt lat="37.804177300" lon="-1.887503900">
        <ele>685.000000</ele>
        <time>2014-03-29T15:44:33Z</time>
      </trkpt>
      <trkpt lat="37.804064800" lon="-1.887512200">
        <ele>685.000000</ele>
        <time>2014-03-29T15:44:34Z</time>
      </trkpt>
      <trkpt lat="37.803954600" lon="-1.887522800">
        <ele>684.000000</ele>
        <time>2014-03-29T15:44:35Z</time>
      </trkpt>
      <trkpt lat="37.803845600" lon="-1.887533800">
        <ele>684.000000</ele>
        <time>2014-03-29T15:44:36Z</time>
      </trkpt>
      <trkpt lat="37.803737900" lon="-1.887542700">
        <ele>683.000000</ele>
        <time>2014-03-29T15:44:37Z</time>
      </trkpt>
      <trkpt lat="37.803631400" lon="-1.887550400">
        <ele>683.000000</ele>
        <time>2014-03-29T15:44:38Z</time>
      </trkpt>
      <trkpt lat="37.803526800" lon="-1.887560600">
        <ele>683.000000</ele>
        <time>2014-03-29T15:44:39Z</time>
      </trkpt>
      <trkpt lat="37.803424100" lon="-1.887572400">
        <ele>682.000000</ele>
        <time>2014-03-29T15:44:40Z</time>
      </trkpt>
      <trkpt lat="37.803321600" lon="-1.887584400">
        <ele>682.000000</ele>
        <time>2014-03-29T15:44:41Z</time>
      </trkpt>
      <trkpt lat="37.803218600" lon="-1.887596400">
        <ele>682.000000</ele>
        <time>2014-03-29T15:44:42Z</time>
      </trkpt>
      <trkpt lat="37.803120500" lon="-1.887608000">
        <ele>682.000000</ele>
        <time>2014-03-29T15:44:43Z</time>
      </trkpt>
      <trkpt lat="37.803022000" lon="-1.887619300">
        <ele>682.000000</ele>
        <time>2014-03-29T15:44:44Z</time>
      </trkpt>
      <trkpt lat="37.802926600" lon="-1.887628200">
        <ele>681.000000</ele>
        <time>2014-03-29T15:44:45Z</time>
      </trkpt>
      <trkpt lat="37.802831500" lon="-1.887636500">
        <ele>681.000000</ele>
        <time>2014-03-29T15:44:46Z</time>
      </trkpt>
      <trkpt lat="37.802735200" lon="-1.887642500">
        <ele>681.000000</ele>
        <time>2014-03-29T15:44:47Z</time>
      </trkpt>
      <trkpt lat="37.802636200" lon="-1.887648400">
        <ele>681.000000</ele>
        <time>2014-03-29T15:44:48Z</time>
      </trkpt>
      <trkpt lat="37.802537700" lon="-1.887657000">
        <ele>681.000000</ele>
        <time>2014-03-29T15:44:49Z</time>
      </trkpt>
      <trkpt lat="37.802437600" lon="-1.887665500">
        <ele>680.000000</ele>
        <time>2014-03-29T15:44:50Z</time>
      </trkpt>
      <trkpt lat="37.802336000" lon="-1.887672000">
        <ele>680.000000</ele>
        <time>2014-03-29T15:44:51Z</time>
      </trkpt>
      <trkpt lat="37.802232400" lon="-1.887681000">
        <ele>680.000000</ele>
        <time>2014-03-29T15:44:52Z</time>
      </trkpt>
      <trkpt lat="37.802125700" lon="-1.887690900">
        <ele>679.000000</ele>
        <time>2014-03-29T15:44:53Z</time>
      </trkpt>
      <trkpt lat="37.802018400" lon="-1.887704000">
        <ele>679.000000</ele>
        <time>2014-03-29T15:44:54Z</time>
      </trkpt>
      <trkpt lat="37.801913400" lon="-1.887724100">
        <ele>678.000000</ele>
        <time>2014-03-29T15:44:55Z</time>
      </trkpt>
      <trkpt lat="37.801808900" lon="-1.887750100">
        <ele>678.000000</ele>
        <time>2014-03-29T15:44:56Z</time>
      </trkpt>
      <trkpt lat="37.801703500" lon="-1.887781700">
        <ele>678.000000</ele>
        <time>2014-03-29T15:44:57Z</time>
      </trkpt>
      <trkpt lat="37.801596700" lon="-1.887822000">
        <ele>677.000000</ele>
        <time>2014-03-29T15:44:58Z</time>
      </trkpt>
      <trkpt lat="37.801492000" lon="-1.887867400">
        <ele>677.000000</ele>
        <time>2014-03-29T15:44:59Z</time>
      </trkpt>
      <trkpt lat="37.801387500" lon="-1.887916900">
        <ele>676.000000</ele>
        <time>2014-03-29T15:45:00Z</time>
      </trkpt>
      <trkpt lat="37.801283900" lon="-1.887969200">
        <ele>675.000000</ele>
        <time>2014-03-29T15:45:01Z</time>
      </trkpt>
      <trkpt lat="37.801184700" lon="-1.888023300">
        <ele>675.000000</ele>
        <time>2014-03-29T15:45:02Z</time>
      </trkpt>
      <trkpt lat="37.801086500" lon="-1.888076300">
        <ele>674.000000</ele>
        <time>2014-03-29T15:45:03Z</time>
      </trkpt>
      <trkpt lat="37.800989500" lon="-1.888129800">
        <ele>674.000000</ele>
        <time>2014-03-29T15:45:04Z</time>
      </trkpt>
      <trkpt lat="37.800891000" lon="-1.888182500">
        <ele>674.000000</ele>
        <time>2014-03-29T15:45:05Z</time>
      </trkpt>
      <trkpt lat="37.800790600" lon="-1.888237900">
        <ele>673.000000</ele>
        <time>2014-03-29T15:45:06Z</time>
      </trkpt>
      <trkpt lat="37.800688100" lon="-1.888294600">
        <ele>673.000000</ele>
        <time>2014-03-29T15:45:07Z</time>
      </trkpt>
      <trkpt lat="37.800584100" lon="-1.888351000">
        <ele>672.000000</ele>
        <time>2014-03-29T15:45:08Z</time>
      </trkpt>
      <trkpt lat="37.800480100" lon="-1.888407800">
        <ele>672.000000</ele>
        <time>2014-03-29T15:45:09Z</time>
      </trkpt>
      <trkpt lat="37.800377100" lon="-1.888465400">
        <ele>671.000000</ele>
        <time>2014-03-29T15:45:10Z</time>
      </trkpt>
      <trkpt lat="37.800275300" lon="-1.888524300">
        <ele>671.000000</ele>
        <time>2014-03-29T15:45:11Z</time>
      </trkpt>
      <trkpt lat="37.800172100" lon="-1.888584900">
        <ele>671.000000</ele>
        <time>2014-03-29T15:45:12Z</time>
      </trkpt>
      <trkpt lat="37.800069500" lon="-1.888644900">
        <ele>671.000000</ele>
        <time>2014-03-29T15:45:13Z</time>
      </trkpt>
      <trkpt lat="37.799967800" lon="-1.888703500">
        <ele>670.000000</ele>
        <time>2014-03-29T15:45:14Z</time>
      </trkpt>
      <trkpt lat="37.799869300" lon="-1.888763500">
        <ele>670.000000</ele>
        <time>2014-03-29T15:45:15Z</time>
      </trkpt>
      <trkpt lat="37.799773500" lon="-1.888823900">
        <ele>670.000000</ele>
        <time>2014-03-29T15:45:16Z</time>
      </trkpt>
      <trkpt lat="37.799680100" lon="-1.888884000">
        <ele>670.000000</ele>
        <time>2014-03-29T15:45:17Z</time>
      </trkpt>
      <trkpt lat="37.799584600" lon="-1.888945500">
        <ele>670.000000</ele>
        <time>2014-03-29T15:45:18Z</time>
      </trkpt>
      <trkpt lat="37.799487500" lon="-1.889007900">
        <ele>669.000000</ele>
        <time>2014-03-29T15:45:19Z</time>
      </trkpt>
      <trkpt lat="37.799391100" lon="-1.889071200">
        <ele>669.000000</ele>
        <time>2014-03-29T15:45:20Z</time>
      </trkpt>
      <trkpt lat="37.799294300" lon="-1.889139000">
        <ele>669.000000</ele>
        <time>2014-03-29T15:45:21Z</time>
      </trkpt>
      <trkpt lat="37.799193900" lon="-1.889207000">
        <ele>669.000000</ele>
        <time>2014-03-29T15:45:22Z</time>
      </trkpt>
      <trkpt lat="37.799089000" lon="-1.889277600">
        <ele>669.000000</ele>
        <time>2014-03-29T15:45:23Z</time>
      </trkpt>
      <trkpt lat="37.798984700" lon="-1.889347500">
        <ele>669.000000</ele>
        <time>2014-03-29T15:45:24Z</time>
      </trkpt>
      <trkpt lat="37.798880600" lon="-1.889415700">
        <ele>669.000000</ele>
        <time>2014-03-29T15:45:25Z</time>
      </trkpt>
      <trkpt lat="37.798776700" lon="-1.889482200">
        <ele>669.000000</ele>
        <time>2014-03-29T15:45:26Z</time>
      </trkpt>
      <trkpt lat="37.798673800" lon="-1.889549400">
        <ele>669.000000</ele>
        <time>2014-03-29T15:45:27Z</time>
      </trkpt>
      <trkpt lat="37.798570400" lon="-1.889617400">
        <ele>668.000000</ele>
        <time>2014-03-29T15:45:28Z</time>
      </trkpt>
      <trkpt lat="37.798468000" lon="-1.889685100">
        <ele>668.000000</ele>
        <time>2014-03-29T15:45:29Z</time>
      </trkpt>
      <trkpt lat="37.798363800" lon="-1.889751900">
        <ele>668.000000</ele>
        <time>2014-03-29T15:45:30Z</time>
      </trkpt>
      <trkpt lat="37.798259100" lon="-1.889817600">
        <ele>668.000000</ele>
        <time>2014-03-29T15:45:31Z</time>
      </trkpt>
      <trkpt lat="37.798151200" lon="-1.889884300">
        <ele>668.000000</ele>
        <time>2014-03-29T15:45:32Z</time>
      </trkpt>
      <trkpt lat="37.798042700" lon="-1.889953500">
        <ele>668.000000</ele>
        <time>2014-03-29T15:45:33Z</time>
      </trkpt>
      <trkpt lat="37.797936100" lon="-1.890022800">
        <ele>668.000000</ele>
        <time>2014-03-29T15:45:34Z</time>
      </trkpt>
      <trkpt lat="37.797824500" lon="-1.890094300">
        <ele>667.000000</ele>
        <time>2014-03-29T15:45:35Z</time>
      </trkpt>
      <trkpt lat="37.797711300" lon="-1.890166600">
        <ele>667.000000</ele>
        <time>2014-03-29T15:45:36Z</time>
      </trkpt>
      <trkpt lat="37.797598200" lon="-1.890240300">
        <ele>667.000000</ele>
        <time>2014-03-29T15:45:37Z</time>
      </trkpt>
      <trkpt lat="37.797485800" lon="-1.890311200">
        <ele>667.000000</ele>
        <time>2014-03-29T15:45:38Z</time>
      </trkpt>
      <trkpt lat="37.797375300" lon="-1.890380700">
        <ele>666.000000</ele>
        <time>2014-03-29T15:45:39Z</time>
      </trkpt>
      <trkpt lat="37.797266000" lon="-1.890449800">
        <ele>666.000000</ele>
        <time>2014-03-29T15:45:40Z</time>
      </trkpt>
      <trkpt lat="37.797156600" lon="-1.890518900">
        <ele>666.000000</ele>
        <time>2014-03-29T15:45:41Z</time>
      </trkpt>
      <trkpt lat="37.797048700" lon="-1.890587900">
        <ele>666.000000</ele>
        <time>2014-03-29T15:45:42Z</time>
      </trkpt>
      <trkpt lat="37.796938800" lon="-1.890656200">
        <ele>665.000000</ele>
        <time>2014-03-29T15:45:43Z</time>
      </trkpt>
      <trkpt lat="37.796831300" lon="-1.890723600">
        <ele>665.000000</ele>
        <time>2014-03-29T15:45:44Z</time>
      </trkpt>
      <trkpt lat="37.796725400" lon="-1.890791100">
        <ele>665.000000</ele>
        <time>2014-03-29T15:45:45Z</time>
      </trkpt>
      <trkpt lat="37.796619200" lon="-1.890856600">
        <ele>664.000000</ele>
        <time>2014-03-29T15:45:46Z</time>
      </trkpt>
      <trkpt lat="37.796511700" lon="-1.890920600">
        <ele>664.000000</ele>
        <time>2014-03-29T15:45:47Z</time>
      </trkpt>
      <trkpt lat="37.796402100" lon="-1.890984400">
        <ele>664.000000</ele>
        <time>2014-03-29T15:45:48Z</time>
      </trkpt>
      <trkpt lat="37.796290700" lon="-1.891046400">
        <ele>663.000000</ele>
        <time>2014-03-29T15:45:49Z</time>
      </trkpt>
      <trkpt lat="37.796181000" lon="-1.891104900">
        <ele>663.000000</ele>
        <time>2014-03-29T15:45:50Z</time>
      </trkpt>
      <trkpt lat="37.796072000" lon="-1.891163100">
        <ele>663.000000</ele>
        <time>2014-03-29T15:45:51Z</time>
      </trkpt>
      <trkpt lat="37.795958100" lon="-1.891223400">
        <ele>663.000000</ele>
        <time>2014-03-29T15:45:52Z</time>
      </trkpt>
      <trkpt lat="37.795847000" lon="-1.891280200">
        <ele>662.000000</ele>
        <time>2014-03-29T15:45:53Z</time>
      </trkpt>
      <trkpt lat="37.795737000" lon="-1.891335200">
        <ele>662.000000</ele>
        <time>2014-03-29T15:45:54Z</time>
      </trkpt>
      <trkpt lat="37.795624600" lon="-1.891391400">
        <ele>662.000000</ele>
        <time>2014-03-29T15:45:55Z</time>
      </trkpt>
      <trkpt lat="37.795516400" lon="-1.891446800">
        <ele>661.000000</ele>
        <time>2014-03-29T15:45:56Z</time>
      </trkpt>
      <trkpt lat="37.795413200" lon="-1.891506000">
        <ele>661.000000</ele>
        <time>2014-03-29T15:45:57Z</time>
      </trkpt>
      <trkpt lat="37.795310300" lon="-1.891570700">
        <ele>660.000000</ele>
        <time>2014-03-29T15:45:58Z</time>
      </trkpt>
      <trkpt lat="37.795211300" lon="-1.891637900">
        <ele>660.000000</ele>
        <time>2014-03-29T15:45:59Z</time>
      </trkpt>
      <trkpt lat="37.795111200" lon="-1.891703500">
        <ele>659.000000</ele>
        <time>2014-03-29T15:46:00Z</time>
      </trkpt>
      <trkpt lat="37.795012900" lon="-1.891761200">
        <ele>659.000000</ele>
        <time>2014-03-29T15:46:01Z</time>
      </trkpt>
      <trkpt lat="37.794914000" lon="-1.891818000">
        <ele>659.000000</ele>
        <time>2014-03-29T15:46:02Z</time>
      </trkpt>
      <trkpt lat="37.794817400" lon="-1.891879700">
        <ele>658.000000</ele>
        <time>2014-03-29T15:46:03Z</time>
      </trkpt>
      <trkpt lat="37.794727300" lon="-1.891941100">
        <ele>658.000000</ele>
        <time>2014-03-29T15:46:04Z</time>
      </trkpt>
      <trkpt lat="37.794638200" lon="-1.892002900">
        <ele>658.000000</ele>
        <time>2014-03-29T15:46:05Z</time>
      </trkpt>
      <trkpt lat="37.794549100" lon="-1.892067200">
        <ele>657.000000</ele>
        <time>2014-03-29T15:46:06Z</time>
      </trkpt>
      <trkpt lat="37.794461800" lon="-1.892130800">
        <ele>657.000000</ele>
        <time>2014-03-29T15:46:07Z</time>
      </trkpt>
      <trkpt lat="37.794377600" lon="-1.892195200">
        <ele>656.000000</ele>
        <time>2014-03-29T15:46:08Z</time>
      </trkpt>
      <trkpt lat="37.794296700" lon="-1.892256100">
        <ele>656.000000</ele>
        <time>2014-03-29T15:46:09Z</time>
      </trkpt>
      <trkpt lat="37.794219600" lon="-1.892315300">
        <ele>656.000000</ele>
        <time>2014-03-29T15:46:10Z</time>
      </trkpt>
      <trkpt lat="37.794141300" lon="-1.892373800">
        <ele>656.000000</ele>
        <time>2014-03-29T15:46:11Z</time>
      </trkpt>
      <trkpt lat="37.794059800" lon="-1.892428100">
        <ele>656.000000</ele>
        <time>2014-03-29T15:46:12Z</time>
      </trkpt>
      <trkpt lat="37.793978000" lon="-1.892480400">
        <ele>656.000000</ele>
        <time>2014-03-29T15:46:13Z</time>
      </trkpt>
      <trkpt lat="37.793896900" lon="-1.892534800">
        <ele>656.000000</ele>
        <time>2014-03-29T15:46:14Z</time>
      </trkpt>
      <trkpt lat="37.793816200" lon="-1.892588200">
        <ele>656.000000</ele>
        <time>2014-03-29T15:46:15Z</time>
      </trkpt>
      <trkpt lat="37.793737100" lon="-1.892641200">
        <ele>656.000000</ele>
        <time>2014-03-29T15:46:16Z</time>
      </trkpt>
      <trkpt lat="37.793652900" lon="-1.892699100">
        <ele>656.000000</ele>
        <time>2014-03-29T15:46:17Z</time>
      </trkpt>
      <trkpt lat="37.793567700" lon="-1.892754500">
        <ele>656.000000</ele>
        <time>2014-03-29T15:46:18Z</time>
      </trkpt>
      <trkpt lat="37.793482100" lon="-1.892809100">
        <ele>656.000000</ele>
        <time>2014-03-29T15:46:19Z</time>
      </trkpt>
      <trkpt lat="37.793396900" lon="-1.892865100">
        <ele>656.000000</ele>
        <time>2014-03-29T15:46:20Z</time>
      </trkpt>
      <trkpt lat="37.793313200" lon="-1.892922900">
        <ele>656.000000</ele>
        <time>2014-03-29T15:46:21Z</time>
      </trkpt>
      <trkpt lat="37.793229400" lon="-1.892979300">
        <ele>656.000000</ele>
        <time>2014-03-29T15:46:22Z</time>
      </trkpt>
      <trkpt lat="37.793148200" lon="-1.893033700">
        <ele>656.000000</ele>
        <time>2014-03-29T15:46:23Z</time>
      </trkpt>
      <trkpt lat="37.793064900" lon="-1.893088800">
        <ele>656.000000</ele>
        <time>2014-03-29T15:46:24Z</time>
      </trkpt>
      <trkpt lat="37.792982200" lon="-1.893142200">
        <ele>656.000000</ele>
        <time>2014-03-29T15:46:25Z</time>
      </trkpt>
      <trkpt lat="37.792901400" lon="-1.893194300">
        <ele>656.000000</ele>
        <time>2014-03-29T15:46:26Z</time>
      </trkpt>
      <trkpt lat="37.792820800" lon="-1.893247000">
        <ele>656.000000</ele>
        <time>2014-03-29T15:46:27Z</time>
      </trkpt>
      <trkpt lat="37.792741400" lon="-1.893296300">
        <ele>656.000000</ele>
        <time>2014-03-29T15:46:28Z</time>
      </trkpt>
      <trkpt lat="37.792662100" lon="-1.893348100">
        <ele>656.000000</ele>
        <time>2014-03-29T15:46:29Z</time>
      </trkpt>
      <trkpt lat="37.792581200" lon="-1.893398900">
        <ele>656.000000</ele>
        <time>2014-03-29T15:46:30Z</time>
      </trkpt>
      <trkpt lat="37.792500800" lon="-1.893450100">
        <ele>656.000000</ele>
        <time>2014-03-29T15:46:31Z</time>
      </trkpt>
      <trkpt lat="37.792418300" lon="-1.893506400">
        <ele>656.000000</ele>
        <time>2014-03-29T15:46:32Z</time>
      </trkpt>
      <trkpt lat="37.792335100" lon="-1.893565300">
        <ele>655.000000</ele>
        <time>2014-03-29T15:46:33Z</time>
      </trkpt>
      <trkpt lat="37.792254700" lon="-1.893631700">
        <ele>655.000000</ele>
        <time>2014-03-29T15:46:34Z</time>
      </trkpt>
      <trkpt lat="37.792179800" lon="-1.893710500">
        <ele>655.000000</ele>
        <time>2014-03-29T15:46:35Z</time>
      </trkpt>
      <trkpt lat="37.792111600" lon="-1.893806200">
        <ele>655.000000</ele>
        <time>2014-03-29T15:46:36Z</time>
      </trkpt>
      <trkpt lat="37.792055400" lon="-1.893914600">
        <ele>655.000000</ele>
        <time>2014-03-29T15:46:37Z</time>
      </trkpt>
      <trkpt lat="37.792011000" lon="-1.894034200">
        <ele>655.000000</ele>
        <time>2014-03-29T15:46:38Z</time>
      </trkpt>
      <trkpt lat="37.791969800" lon="-1.894162000">
        <ele>654.000000</ele>
        <time>2014-03-29T15:46:39Z</time>
      </trkpt>
      <trkpt lat="37.791931100" lon="-1.894298500">
        <ele>654.000000</ele>
        <time>2014-03-29T15:46:40Z</time>
      </trkpt>
      <trkpt lat="37.791895600" lon="-1.894437100">
        <ele>654.000000</ele>
        <time>2014-03-29T15:46:41Z</time>
      </trkpt>
      <trkpt lat="37.791860500" lon="-1.894575700">
        <ele>654.000000</ele>
        <time>2014-03-29T15:46:42Z</time>
      </trkpt>
      <trkpt lat="37.791819200" lon="-1.894723000">
        <ele>653.000000</ele>
        <time>2014-03-29T15:46:43Z</time>
      </trkpt>
      <trkpt lat="37.791780200" lon="-1.894872100">
        <ele>653.000000</ele>
        <time>2014-03-29T15:46:44Z</time>
      </trkpt>
      <trkpt lat="37.791742800" lon="-1.895018100">
        <ele>653.000000</ele>
        <time>2014-03-29T15:46:45Z</time>
      </trkpt>
      <trkpt lat="37.791697400" lon="-1.895159900">
        <ele>652.000000</ele>
        <time>2014-03-29T15:46:46Z</time>
      </trkpt>
      <trkpt lat="37.791636400" lon="-1.895294800">
        <ele>652.000000</ele>
        <time>2014-03-29T15:46:47Z</time>
      </trkpt>
      <trkpt lat="37.791559000" lon="-1.895418200">
        <ele>651.000000</ele>
        <time>2014-03-29T15:46:48Z</time>
      </trkpt>
      <trkpt lat="37.791464700" lon="-1.895522900">
        <ele>650.000000</ele>
        <time>2014-03-29T15:46:49Z</time>
      </trkpt>
      <trkpt lat="37.791347900" lon="-1.895593500">
        <ele>650.000000</ele>
        <time>2014-03-29T15:46:50Z</time>
      </trkpt>
      <trkpt lat="37.791229400" lon="-1.895655200">
        <ele>649.000000</ele>
        <time>2014-03-29T15:46:51Z</time>
      </trkpt>
      <trkpt lat="37.791105400" lon="-1.895716200">
        <ele>648.000000</ele>
        <time>2014-03-29T15:46:52Z</time>
      </trkpt>
      <trkpt lat="37.790981100" lon="-1.895772800">
        <ele>648.000000</ele>
        <time>2014-03-29T15:46:53Z</time>
      </trkpt>
      <trkpt lat="37.790859500" lon="-1.895822800">
        <ele>647.000000</ele>
        <time>2014-03-29T15:46:54Z</time>
      </trkpt>
      <trkpt lat="37.790740400" lon="-1.895871900">
        <ele>646.000000</ele>
        <time>2014-03-29T15:46:55Z</time>
      </trkpt>
      <trkpt lat="37.790617700" lon="-1.895909700">
        <ele>645.000000</ele>
        <time>2014-03-29T15:46:56Z</time>
      </trkpt>
      <trkpt lat="37.790499600" lon="-1.895929800">
        <ele>644.000000</ele>
        <time>2014-03-29T15:46:57Z</time>
      </trkpt>
      <trkpt lat="37.790386300" lon="-1.895936600">
        <ele>643.000000</ele>
        <time>2014-03-29T15:46:58Z</time>
      </trkpt>
      <trkpt lat="37.790284500" lon="-1.895955100">
        <ele>643.000000</ele>
        <time>2014-03-29T15:46:59Z</time>
      </trkpt>
      <trkpt lat="37.790189800" lon="-1.896009000">
        <ele>642.000000</ele>
        <time>2014-03-29T15:47:00Z</time>
      </trkpt>
      <trkpt lat="37.790115500" lon="-1.896103300">
        <ele>641.000000</ele>
        <time>2014-03-29T15:47:01Z</time>
      </trkpt>
      <trkpt lat="37.790068000" lon="-1.896225700">
        <ele>640.000000</ele>
        <time>2014-03-29T15:47:02Z</time>
      </trkpt>
      <trkpt lat="37.790043400" lon="-1.896368900">
        <ele>639.000000</ele>
        <time>2014-03-29T15:47:03Z</time>
      </trkpt>
      <trkpt lat="37.790029400" lon="-1.896524300">
        <ele>639.000000</ele>
        <time>2014-03-29T15:47:04Z</time>
      </trkpt>
      <trkpt lat="37.790037000" lon="-1.896677400">
        <ele>638.000000</ele>
        <time>2014-03-29T15:47:05Z</time>
      </trkpt>
      <trkpt lat="37.790054900" lon="-1.896824900">
        <ele>637.000000</ele>
        <time>2014-03-29T15:47:06Z</time>
      </trkpt>
      <trkpt lat="37.790062300" lon="-1.896967200">
        <ele>636.000000</ele>
        <time>2014-03-29T15:47:07Z</time>
      </trkpt>
      <trkpt lat="37.790060600" lon="-1.897104600">
        <ele>636.000000</ele>
        <time>2014-03-29T15:47:08Z</time>
      </trkpt>
      <trkpt lat="37.790026700" lon="-1.897221200">
        <ele>635.000000</ele>
        <time>2014-03-29T15:47:09Z</time>
      </trkpt>
      <trkpt lat="37.789968700" lon="-1.897316700">
        <ele>635.000000</ele>
        <time>2014-03-29T15:47:10Z</time>
      </trkpt>
      <trkpt lat="37.789905200" lon="-1.897394600">
        <ele>635.000000</ele>
        <time>2014-03-29T15:47:11Z</time>
      </trkpt>
      <trkpt lat="37.789821700" lon="-1.897465800">
        <ele>634.000000</ele>
        <time>2014-03-29T15:47:12Z</time>
      </trkpt>
      <trkpt lat="37.789737400" lon="-1.897535600">
        <ele>634.000000</ele>
        <time>2014-03-29T15:47:13Z</time>
      </trkpt>
      <trkpt lat="37.789646200" lon="-1.897602100">
        <ele>634.000000</ele>
        <time>2014-03-29T15:47:14Z</time>
      </trkpt>
      <trkpt lat="37.789554300" lon="-1.897670100">
        <ele>634.000000</ele>
        <time>2014-03-29T15:47:15Z</time>
      </trkpt>
      <trkpt lat="37.789474600" lon="-1.897736500">
        <ele>634.000000</ele>
        <time>2014-03-29T15:47:16Z</time>
      </trkpt>
      <trkpt lat="37.789392500" lon="-1.897798100">
        <ele>634.000000</ele>
        <time>2014-03-29T15:47:17Z</time>
      </trkpt>
      <trkpt lat="37.789307900" lon="-1.897858300">
        <ele>634.000000</ele>
        <time>2014-03-29T15:47:18Z</time>
      </trkpt>
      <trkpt lat="37.789221100" lon="-1.897914300">
        <ele>634.000000</ele>
        <time>2014-03-29T15:47:19Z</time>
      </trkpt>
      <trkpt lat="37.789134900" lon="-1.897973000">
        <ele>634.000000</ele>
        <time>2014-03-29T15:47:20Z</time>
      </trkpt>
      <trkpt lat="37.789046800" lon="-1.898031700">
        <ele>635.000000</ele>
        <time>2014-03-29T15:47:21Z</time>
      </trkpt>
      <trkpt lat="37.788962100" lon="-1.898094600">
        <ele>635.000000</ele>
        <time>2014-03-29T15:47:22Z</time>
      </trkpt>
      <trkpt lat="37.788880500" lon="-1.898158700">
        <ele>636.000000</ele>
        <time>2014-03-29T15:47:23Z</time>
      </trkpt>
      <trkpt lat="37.788797200" lon="-1.898224200">
        <ele>636.000000</ele>
        <time>2014-03-29T15:47:24Z</time>
      </trkpt>
      <trkpt lat="37.788712900" lon="-1.898284700">
        <ele>636.000000</ele>
        <time>2014-03-29T15:47:25Z</time>
      </trkpt>
      <trkpt lat="37.788629000" lon="-1.898347700">
        <ele>636.000000</ele>
        <time>2014-03-29T15:47:26Z</time>
      </trkpt>
      <trkpt lat="37.788547800" lon="-1.898408500">
        <ele>637.000000</ele>
        <time>2014-03-29T15:47:27Z</time>
      </trkpt>
      <trkpt lat="37.788467400" lon="-1.898471000">
        <ele>637.000000</ele>
        <time>2014-03-29T15:47:28Z</time>
      </trkpt>
      <trkpt lat="37.788388000" lon="-1.898533600">
        <ele>637.000000</ele>
        <time>2014-03-29T15:47:29Z</time>
      </trkpt>
      <trkpt lat="37.788311800" lon="-1.898596300">
        <ele>637.000000</ele>
        <time>2014-03-29T15:47:30Z</time>
      </trkpt>
      <trkpt lat="37.788234600" lon="-1.898659300">
        <ele>637.000000</ele>
        <time>2014-03-29T15:47:31Z</time>
      </trkpt>
      <trkpt lat="37.788154000" lon="-1.898716600">
        <ele>637.000000</ele>
        <time>2014-03-29T15:47:32Z</time>
      </trkpt>
      <trkpt lat="37.788075600" lon="-1.898770600">
        <ele>637.000000</ele>
        <time>2014-03-29T15:47:33Z</time>
      </trkpt>
      <trkpt lat="37.788001100" lon="-1.898825900">
        <ele>637.000000</ele>
        <time>2014-03-29T15:47:34Z</time>
      </trkpt>
      <trkpt lat="37.787929600" lon="-1.898880600">
        <ele>637.000000</ele>
        <time>2014-03-29T15:47:35Z</time>
      </trkpt>
      <trkpt lat="37.787856600" lon="-1.898935500">
        <ele>637.000000</ele>
        <time>2014-03-29T15:47:36Z</time>
      </trkpt>
      <trkpt lat="37.787785800" lon="-1.898989300">
        <ele>637.000000</ele>
        <time>2014-03-29T15:47:37Z</time>
      </trkpt>
      <trkpt lat="37.787715300" lon="-1.899039200">
        <ele>637.000000</ele>
        <time>2014-03-29T15:47:38Z</time>
      </trkpt>
      <trkpt lat="37.787646700" lon="-1.899088500">
        <ele>637.000000</ele>
        <time>2014-03-29T15:47:39Z</time>
      </trkpt>
      <trkpt lat="37.787580800" lon="-1.899135300">
        <ele>637.000000</ele>
        <time>2014-03-29T15:47:40Z</time>
      </trkpt>
      <trkpt lat="37.787518100" lon="-1.899183200">
        <ele>637.000000</ele>
        <time>2014-03-29T15:47:41Z</time>
      </trkpt>
      <trkpt lat="37.787455600" lon="-1.899233400">
        <ele>637.000000</ele>
        <time>2014-03-29T15:47:42Z</time>
      </trkpt>
      <trkpt lat="37.787389600" lon="-1.899276100">
        <ele>637.000000</ele>
        <time>2014-03-29T15:47:43Z</time>
      </trkpt>
      <trkpt lat="37.787321400" lon="-1.899318700">
        <ele>637.000000</ele>
        <time>2014-03-29T15:47:44Z</time>
      </trkpt>
      <trkpt lat="37.787249200" lon="-1.899364800">
        <ele>637.000000</ele>
        <time>2014-03-29T15:47:45Z</time>
      </trkpt>
      <trkpt lat="37.787177200" lon="-1.899412500">
        <ele>638.000000</ele>
        <time>2014-03-29T15:47:46Z</time>
      </trkpt>
      <trkpt lat="37.787102000" lon="-1.899455600">
        <ele>638.000000</ele>
        <time>2014-03-29T15:47:47Z</time>
      </trkpt>
      <trkpt lat="37.787024400" lon="-1.899492200">
        <ele>638.000000</ele>
        <time>2014-03-29T15:47:48Z</time>
      </trkpt>
      <trkpt lat="37.786943900" lon="-1.899517500">
        <ele>639.000000</ele>
        <time>2014-03-29T15:47:49Z</time>
      </trkpt>
      <trkpt lat="37.786855700" lon="-1.899532800">
        <ele>639.000000</ele>
        <time>2014-03-29T15:47:50Z</time>
      </trkpt>
      <trkpt lat="37.786764200" lon="-1.899543900">
        <ele>639.000000</ele>
        <time>2014-03-29T15:47:51Z</time>
      </trkpt>
      <trkpt lat="37.786659700" lon="-1.899548300">
        <ele>640.000000</ele>
        <time>2014-03-29T15:47:52Z</time>
      </trkpt>
      <trkpt lat="37.786548400" lon="-1.899548600">
        <ele>640.000000</ele>
        <time>2014-03-29T15:47:53Z</time>
      </trkpt>
      <trkpt lat="37.786431800" lon="-1.899544100">
        <ele>641.000000</ele>
        <time>2014-03-29T15:47:54Z</time>
      </trkpt>
      <trkpt lat="37.786315500" lon="-1.899541300">
        <ele>641.000000</ele>
        <time>2014-03-29T15:47:55Z</time>
      </trkpt>
      <trkpt lat="37.786193600" lon="-1.899539900">
        <ele>641.000000</ele>
        <time>2014-03-29T15:47:56Z</time>
      </trkpt>
      <trkpt lat="37.786067800" lon="-1.899539000">
        <ele>642.000000</ele>
        <time>2014-03-29T15:47:57Z</time>
      </trkpt>
      <trkpt lat="37.785938900" lon="-1.899537000">
        <ele>642.000000</ele>
        <time>2014-03-29T15:47:58Z</time>
      </trkpt>
      <trkpt lat="37.785808200" lon="-1.899537200">
        <ele>642.000000</ele>
        <time>2014-03-29T15:47:59Z</time>
      </trkpt>
      <trkpt lat="37.785673400" lon="-1.899534500">
        <ele>642.000000</ele>
        <time>2014-03-29T15:48:00Z</time>
      </trkpt>
      <trkpt lat="37.785537300" lon="-1.899520900">
        <ele>642.000000</ele>
        <time>2014-03-29T15:48:01Z</time>
      </trkpt>
      <trkpt lat="37.785404300" lon="-1.899496200">
        <ele>642.000000</ele>
        <time>2014-03-29T15:48:02Z</time>
      </trkpt>
      <trkpt lat="37.785278200" lon="-1.899451600">
        <ele>641.000000</ele>
        <time>2014-03-29T15:48:03Z</time>
      </trkpt>
      <trkpt lat="37.785163400" lon="-1.899381900">
        <ele>641.000000</ele>
        <time>2014-03-29T15:48:04Z</time>
      </trkpt>
      <trkpt lat="37.785067400" lon="-1.899283300">
        <ele>641.000000</ele>
        <time>2014-03-29T15:48:05Z</time>
      </trkpt>
      <trkpt lat="37.784992600" lon="-1.899169900">
        <ele>641.000000</ele>
        <time>2014-03-29T15:48:06Z</time>
      </trkpt>
      <trkpt lat="37.784948500" lon="-1.899045500">
        <ele>641.000000</ele>
        <time>2014-03-29T15:48:07Z</time>
      </trkpt>
      <trkpt lat="37.784927000" lon="-1.898914600">
        <ele>641.000000</ele>
        <time>2014-03-29T15:48:08Z</time>
      </trkpt>
      <trkpt lat="37.784911500" lon="-1.898790900">
        <ele>640.000000</ele>
        <time>2014-03-29T15:48:09Z</time>
      </trkpt>
      <trkpt lat="37.784895700" lon="-1.898673400">
        <ele>640.000000</ele>
        <time>2014-03-29T15:48:10Z</time>
      </trkpt>
      <trkpt lat="37.784877100" lon="-1.898564600">
        <ele>640.000000</ele>
        <time>2014-03-29T15:48:11Z</time>
      </trkpt>
      <trkpt lat="37.784866800" lon="-1.898458700">
        <ele>640.000000</ele>
        <time>2014-03-29T15:48:12Z</time>
      </trkpt>
      <trkpt lat="37.784857500" lon="-1.898356300">
        <ele>640.000000</ele>
        <time>2014-03-29T15:48:13Z</time>
      </trkpt>
      <trkpt lat="37.784847800" lon="-1.898252900">
        <ele>640.000000</ele>
        <time>2014-03-29T15:48:14Z</time>
      </trkpt>
      <trkpt lat="37.784826000" lon="-1.898152700">
        <ele>641.000000</ele>
        <time>2014-03-29T15:48:15Z</time>
      </trkpt>
      <trkpt lat="37.784800400" lon="-1.898050600">
        <ele>641.000000</ele>
        <time>2014-03-29T15:48:16Z</time>
      </trkpt>
      <trkpt lat="37.784777200" lon="-1.897945200">
        <ele>641.000000</ele>
        <time>2014-03-29T15:48:17Z</time>
      </trkpt>
      <trkpt lat="37.784748800" lon="-1.897838700">
        <ele>642.000000</ele>
        <time>2014-03-29T15:48:18Z</time>
      </trkpt>
      <trkpt lat="37.784714000" lon="-1.897731600">
        <ele>642.000000</ele>
        <time>2014-03-29T15:48:19Z</time>
      </trkpt>
      <trkpt lat="37.784681800" lon="-1.897618400">
        <ele>642.000000</ele>
        <time>2014-03-29T15:48:20Z</time>
      </trkpt>
      <trkpt lat="37.784644900" lon="-1.897504100">
        <ele>643.000000</ele>
        <time>2014-03-29T15:48:21Z</time>
      </trkpt>
      <trkpt lat="37.784605000" lon="-1.897390100">
        <ele>643.000000</ele>
        <time>2014-03-29T15:48:22Z</time>
      </trkpt>
      <trkpt lat="37.784557800" lon="-1.897277100">
        <ele>643.000000</ele>
        <time>2014-03-29T15:48:23Z</time>
      </trkpt>
      <trkpt lat="37.784508100" lon="-1.897161200">
        <ele>643.000000</ele>
        <time>2014-03-29T15:48:24Z</time>
      </trkpt>
      <trkpt lat="37.784457000" lon="-1.897047300">
        <ele>644.000000</ele>
        <time>2014-03-29T15:48:25Z</time>
      </trkpt>
      <trkpt lat="37.784401600" lon="-1.896934900">
        <ele>644.000000</ele>
        <time>2014-03-29T15:48:26Z</time>
      </trkpt>
      <trkpt lat="37.784343000" lon="-1.896826000">
        <ele>644.000000</ele>
        <time>2014-03-29T15:48:27Z</time>
      </trkpt>
      <trkpt lat="37.784278900" lon="-1.896720300">
        <ele>644.000000</ele>
        <time>2014-03-29T15:48:28Z</time>
      </trkpt>
      <trkpt lat="37.784205400" lon="-1.896621700">
        <ele>644.000000</ele>
        <time>2014-03-29T15:48:29Z</time>
      </trkpt>
      <trkpt lat="37.784126200" lon="-1.896532400">
        <ele>644.000000</ele>
        <time>2014-03-29T15:48:30Z</time>
      </trkpt>
      <trkpt lat="37.784045700" lon="-1.896453700">
        <ele>645.000000</ele>
        <time>2014-03-29T15:48:31Z</time>
      </trkpt>
      <trkpt lat="37.783962000" lon="-1.896374400">
        <ele>645.000000</ele>
        <time>2014-03-29T15:48:32Z</time>
      </trkpt>
      <trkpt lat="37.783881100" lon="-1.896295500">
        <ele>645.000000</ele>
        <time>2014-03-29T15:48:33Z</time>
      </trkpt>
      <trkpt lat="37.783802400" lon="-1.896219600">
        <ele>645.000000</ele>
        <time>2014-03-29T15:48:34Z</time>
      </trkpt>
      <trkpt lat="37.783724700" lon="-1.896141700">
        <ele>645.000000</ele>
        <time>2014-03-29T15:48:35Z</time>
      </trkpt>
      <trkpt lat="37.783647400" lon="-1.896063500">
        <ele>645.000000</ele>
        <time>2014-03-29T15:48:36Z</time>
      </trkpt>
      <trkpt lat="37.783568100" lon="-1.895985900">
        <ele>645.000000</ele>
        <time>2014-03-29T15:48:37Z</time>
      </trkpt>
      <trkpt lat="37.783488300" lon="-1.895906100">
        <ele>645.000000</ele>
        <time>2014-03-29T15:48:38Z</time>
      </trkpt>
      <trkpt lat="37.783408900" lon="-1.895822700">
        <ele>645.000000</ele>
        <time>2014-03-29T15:48:39Z</time>
      </trkpt>
      <trkpt lat="37.783331000" lon="-1.895735300">
        <ele>645.000000</ele>
        <time>2014-03-29T15:48:40Z</time>
      </trkpt>
      <trkpt lat="37.783254100" lon="-1.895648000">
        <ele>645.000000</ele>
        <time>2014-03-29T15:48:41Z</time>
      </trkpt>
      <trkpt lat="37.783177900" lon="-1.895558700">
        <ele>645.000000</ele>
        <time>2014-03-29T15:48:42Z</time>
      </trkpt>
      <trkpt lat="37.783101300" lon="-1.895467400">
        <ele>645.000000</ele>
        <time>2014-03-29T15:48:43Z</time>
      </trkpt>
      <trkpt lat="37.783025400" lon="-1.895374200">
        <ele>645.000000</ele>
        <time>2014-03-29T15:48:44Z</time>
      </trkpt>
      <trkpt lat="37.782949000" lon="-1.895280600">
        <ele>644.000000</ele>
        <time>2014-03-29T15:48:45Z</time>
      </trkpt>
      <trkpt lat="37.782866900" lon="-1.895192000">
        <ele>644.000000</ele>
        <time>2014-03-29T15:48:46Z</time>
      </trkpt>
      <trkpt lat="37.782782600" lon="-1.895106900">
        <ele>644.000000</ele>
        <time>2014-03-29T15:48:47Z</time>
      </trkpt>
      <trkpt lat="37.782702200" lon="-1.895021200">
        <ele>644.000000</ele>
        <time>2014-03-29T15:48:48Z</time>
      </trkpt>
      <trkpt lat="37.782623900" lon="-1.894936200">
        <ele>644.000000</ele>
        <time>2014-03-29T15:48:49Z</time>
      </trkpt>
      <trkpt lat="37.782548000" lon="-1.894852900">
        <ele>644.000000</ele>
        <time>2014-03-29T15:48:50Z</time>
      </trkpt>
      <trkpt lat="37.782474000" lon="-1.894768000">
        <ele>644.000000</ele>
        <time>2014-03-29T15:48:51Z</time>
      </trkpt>
      <trkpt lat="37.782403500" lon="-1.894683100">
        <ele>644.000000</ele>
        <time>2014-03-29T15:48:52Z</time>
      </trkpt>
      <trkpt lat="37.782335900" lon="-1.894599400">
        <ele>644.000000</ele>
        <time>2014-03-29T15:48:53Z</time>
      </trkpt>
      <trkpt lat="37.782268600" lon="-1.894516700">
        <ele>644.000000</ele>
        <time>2014-03-29T15:48:54Z</time>
      </trkpt>
      <trkpt lat="37.782202500" lon="-1.894428200">
        <ele>644.000000</ele>
        <time>2014-03-29T15:48:55Z</time>
      </trkpt>
      <trkpt lat="37.782140800" lon="-1.894337500">
        <ele>644.000000</ele>
        <time>2014-03-29T15:48:56Z</time>
      </trkpt>
      <trkpt lat="37.782077800" lon="-1.894247300">
        <ele>644.000000</ele>
        <time>2014-03-29T15:48:57Z</time>
      </trkpt>
      <trkpt lat="37.782017000" lon="-1.894158800">
        <ele>643.000000</ele>
        <time>2014-03-29T15:48:58Z</time>
      </trkpt>
      <trkpt lat="37.781956400" lon="-1.894066800">
        <ele>643.000000</ele>
        <time>2014-03-29T15:48:59Z</time>
      </trkpt>
      <trkpt lat="37.781896200" lon="-1.893977100">
        <ele>643.000000</ele>
        <time>2014-03-29T15:49:00Z</time>
      </trkpt>
      <trkpt lat="37.781840200" lon="-1.893891100">
        <ele>643.000000</ele>
        <time>2014-03-29T15:49:01Z</time>
      </trkpt>
      <trkpt lat="37.781784500" lon="-1.893805400">
        <ele>643.000000</ele>
        <time>2014-03-29T15:49:02Z</time>
      </trkpt>
      <trkpt lat="37.781726900" lon="-1.893717500">
        <ele>643.000000</ele>
        <time>2014-03-29T15:49:03Z</time>
      </trkpt>
      <trkpt lat="37.781666500" lon="-1.893631700">
        <ele>643.000000</ele>
        <time>2014-03-29T15:49:04Z</time>
      </trkpt>
      <trkpt lat="37.781602700" lon="-1.893549600">
        <ele>643.000000</ele>
        <time>2014-03-29T15:49:05Z</time>
      </trkpt>
      <trkpt lat="37.781534200" lon="-1.893471800">
        <ele>642.000000</ele>
        <time>2014-03-29T15:49:06Z</time>
      </trkpt>
      <trkpt lat="37.781464300" lon="-1.893400500">
        <ele>642.000000</ele>
        <time>2014-03-29T15:49:07Z</time>
      </trkpt>
      <trkpt lat="37.781390500" lon="-1.893331200">
        <ele>642.000000</ele>
        <time>2014-03-29T15:49:08Z</time>
      </trkpt>
      <trkpt lat="37.781319600" lon="-1.893261400">
        <ele>642.000000</ele>
        <time>2014-03-29T15:49:09Z</time>
      </trkpt>
      <trkpt lat="37.781248200" lon="-1.893188800">
        <ele>642.000000</ele>
        <time>2014-03-29T15:49:10Z</time>
      </trkpt>
      <trkpt lat="37.781176000" lon="-1.893117600">
        <ele>641.000000</ele>
        <time>2014-03-29T15:49:11Z</time>
      </trkpt>
      <trkpt lat="37.781103000" lon="-1.893049500">
        <ele>641.000000</ele>
        <time>2014-03-29T15:49:12Z</time>
      </trkpt>
      <trkpt lat="37.781026100" lon="-1.892979700">
        <ele>641.000000</ele>
        <time>2014-03-29T15:49:13Z</time>
      </trkpt>
      <trkpt lat="37.780949200" lon="-1.892911000">
        <ele>640.000000</ele>
        <time>2014-03-29T15:49:14Z</time>
      </trkpt>
      <trkpt lat="37.780872800" lon="-1.892844800">
        <ele>640.000000</ele>
        <time>2014-03-29T15:49:15Z</time>
      </trkpt>
      <trkpt lat="37.780799700" lon="-1.892774700">
        <ele>640.000000</ele>
        <time>2014-03-29T15:49:16Z</time>
      </trkpt>
      <trkpt lat="37.780729200" lon="-1.892703700">
        <ele>640.000000</ele>
        <time>2014-03-29T15:49:17Z</time>
      </trkpt>
      <trkpt lat="37.780658000" lon="-1.892630000">
        <ele>639.000000</ele>
        <time>2014-03-29T15:49:18Z</time>
      </trkpt>
      <trkpt lat="37.780586900" lon="-1.892560800">
        <ele>639.000000</ele>
        <time>2014-03-29T15:49:19Z</time>
      </trkpt>
      <trkpt lat="37.780513600" lon="-1.892491900">
        <ele>639.000000</ele>
        <time>2014-03-29T15:49:20Z</time>
      </trkpt>
      <trkpt lat="37.780438900" lon="-1.892422900">
        <ele>639.000000</ele>
        <time>2014-03-29T15:49:21Z</time>
      </trkpt>
      <trkpt lat="37.780363400" lon="-1.892357400">
        <ele>639.000000</ele>
        <time>2014-03-29T15:49:22Z</time>
      </trkpt>
      <trkpt lat="37.780290000" lon="-1.892290100">
        <ele>638.000000</ele>
        <time>2014-03-29T15:49:23Z</time>
      </trkpt>
      <trkpt lat="37.780216000" lon="-1.892225300">
        <ele>638.000000</ele>
        <time>2014-03-29T15:49:24Z</time>
      </trkpt>
      <trkpt lat="37.780141200" lon="-1.892159300">
        <ele>638.000000</ele>
        <time>2014-03-29T15:49:25Z</time>
      </trkpt>
      <trkpt lat="37.780066500" lon="-1.892093800">
        <ele>638.000000</ele>
        <time>2014-03-29T15:49:26Z</time>
      </trkpt>
      <trkpt lat="37.779991800" lon="-1.892032300">
        <ele>637.000000</ele>
        <time>2014-03-29T15:49:27Z</time>
      </trkpt>
      <trkpt lat="37.779917000" lon="-1.891968600">
        <ele>637.000000</ele>
        <time>2014-03-29T15:49:28Z</time>
      </trkpt>
      <trkpt lat="37.779840200" lon="-1.891910500">
        <ele>637.000000</ele>
        <time>2014-03-29T15:49:29Z</time>
      </trkpt>
      <trkpt lat="37.779761300" lon="-1.891850900">
        <ele>637.000000</ele>
        <time>2014-03-29T15:49:30Z</time>
      </trkpt>
      <trkpt lat="37.779686500" lon="-1.891788600">
        <ele>637.000000</ele>
        <time>2014-03-29T15:49:31Z</time>
      </trkpt>
      <trkpt lat="37.779615800" lon="-1.891722800">
        <ele>637.000000</ele>
        <time>2014-03-29T15:49:32Z</time>
      </trkpt>
      <trkpt lat="37.779545900" lon="-1.891656400">
        <ele>637.000000</ele>
        <time>2014-03-29T15:49:33Z</time>
      </trkpt>
      <trkpt lat="37.779477600" lon="-1.891591200">
        <ele>636.000000</ele>
        <time>2014-03-29T15:49:34Z</time>
      </trkpt>
      <trkpt lat="37.779407100" lon="-1.891527000">
        <ele>636.000000</ele>
        <time>2014-03-29T15:49:35Z</time>
      </trkpt>
      <trkpt lat="37.779336600" lon="-1.891462700">
        <ele>636.000000</ele>
        <time>2014-03-29T15:49:36Z</time>
      </trkpt>
      <trkpt lat="37.779265600" lon="-1.891395600">
        <ele>636.000000</ele>
        <time>2014-03-29T15:49:37Z</time>
      </trkpt>
      <trkpt lat="37.779194600" lon="-1.891326300">
        <ele>636.000000</ele>
        <time>2014-03-29T15:49:38Z</time>
      </trkpt>
      <trkpt lat="37.779122700" lon="-1.891255500">
        <ele>636.000000</ele>
        <time>2014-03-29T15:49:39Z</time>
      </trkpt>
      <trkpt lat="37.779052100" lon="-1.891182800">
        <ele>635.000000</ele>
        <time>2014-03-29T15:49:40Z</time>
      </trkpt>
      <trkpt lat="37.778983800" lon="-1.891108700">
        <ele>635.000000</ele>
        <time>2014-03-29T15:49:41Z</time>
      </trkpt>
      <trkpt lat="37.778915400" lon="-1.891031900">
        <ele>635.000000</ele>
        <time>2014-03-29T15:49:42Z</time>
      </trkpt>
      <trkpt lat="37.778849000" lon="-1.890950800">
        <ele>635.000000</ele>
        <time>2014-03-29T15:49:43Z</time>
      </trkpt>
      <trkpt lat="37.778784700" lon="-1.890867900">
        <ele>635.000000</ele>
        <time>2014-03-29T15:49:44Z</time>
      </trkpt>
      <trkpt lat="37.778720500" lon="-1.890780700">
        <ele>635.000000</ele>
        <time>2014-03-29T15:49:45Z</time>
      </trkpt>
      <trkpt lat="37.778654900" lon="-1.890693500">
        <ele>634.000000</ele>
        <time>2014-03-29T15:49:46Z</time>
      </trkpt>
      <trkpt lat="37.778592000" lon="-1.890608600">
        <ele>634.000000</ele>
        <time>2014-03-29T15:49:47Z</time>
      </trkpt>
      <trkpt lat="37.778524200" lon="-1.890523300">
        <ele>634.000000</ele>
        <time>2014-03-29T15:49:48Z</time>
      </trkpt>
      <trkpt lat="37.778457200" lon="-1.890441800">
        <ele>634.000000</ele>
        <time>2014-03-29T15:49:49Z</time>
      </trkpt>
      <trkpt lat="37.778392200" lon="-1.890356300">
        <ele>633.000000</ele>
        <time>2014-03-29T15:49:50Z</time>
      </trkpt>
      <trkpt lat="37.778327900" lon="-1.890265100">
        <ele>633.000000</ele>
        <time>2014-03-29T15:49:51Z</time>
      </trkpt>
      <trkpt lat="37.778262700" lon="-1.890174100">
        <ele>633.000000</ele>
        <time>2014-03-29T15:49:52Z</time>
      </trkpt>
      <trkpt lat="37.778197400" lon="-1.890086400">
        <ele>633.000000</ele>
        <time>2014-03-29T15:49:53Z</time>
      </trkpt>
      <trkpt lat="37.778132200" lon="-1.889997300">
        <ele>632.000000</ele>
        <time>2014-03-29T15:49:54Z</time>
      </trkpt>
      <trkpt lat="37.778066400" lon="-1.889904600">
        <ele>632.000000</ele>
        <time>2014-03-29T15:49:55Z</time>
      </trkpt>
      <trkpt lat="37.777998800" lon="-1.889815300">
        <ele>632.000000</ele>
        <time>2014-03-29T15:49:56Z</time>
      </trkpt>
      <trkpt lat="37.777929700" lon="-1.889725300">
        <ele>631.000000</ele>
        <time>2014-03-29T15:49:57Z</time>
      </trkpt>
      <trkpt lat="37.777862500" lon="-1.889628800">
        <ele>631.000000</ele>
        <time>2014-03-29T15:49:58Z</time>
      </trkpt>
      <trkpt lat="37.777793000" lon="-1.889527400">
        <ele>631.000000</ele>
        <time>2014-03-29T15:49:59Z</time>
      </trkpt>
      <trkpt lat="37.777722600" lon="-1.889422400">
        <ele>631.000000</ele>
        <time>2014-03-29T15:50:00Z</time>
      </trkpt>
      <trkpt lat="37.777651000" lon="-1.889317900">
        <ele>630.000000</ele>
        <time>2014-03-29T15:50:01Z</time>
      </trkpt>
      <trkpt lat="37.777576200" lon="-1.889212300">
        <ele>630.000000</ele>
        <time>2014-03-29T15:50:02Z</time>
      </trkpt>
      <trkpt lat="37.777498300" lon="-1.889101500">
        <ele>629.000000</ele>
        <time>2014-03-29T15:50:03Z</time>
      </trkpt>
      <trkpt lat="37.777418600" lon="-1.888984100">
        <ele>629.000000</ele>
        <time>2014-03-29T15:50:04Z</time>
      </trkpt>
      <trkpt lat="37.777334200" lon="-1.888863200">
        <ele>628.000000</ele>
        <time>2014-03-29T15:50:05Z</time>
      </trkpt>
      <trkpt lat="37.777246600" lon="-1.888741200">
        <ele>628.000000</ele>
        <time>2014-03-29T15:50:06Z</time>
      </trkpt>
      <trkpt lat="37.777156100" lon="-1.888620000">
        <ele>627.000000</ele>
        <time>2014-03-29T15:50:07Z</time>
      </trkpt>
      <trkpt lat="37.777062200" lon="-1.888501700">
        <ele>627.000000</ele>
        <time>2014-03-29T15:50:08Z</time>
      </trkpt>
      <trkpt lat="37.776964900" lon="-1.888385800">
        <ele>626.000000</ele>
        <time>2014-03-29T15:50:09Z</time>
      </trkpt>
      <trkpt lat="37.776867700" lon="-1.888278600">
        <ele>625.000000</ele>
        <time>2014-03-29T15:50:10Z</time>
      </trkpt>
      <trkpt lat="37.776768300" lon="-1.888176500">
        <ele>625.000000</ele>
        <time>2014-03-29T15:50:11Z</time>
      </trkpt>
      <trkpt lat="37.776669700" lon="-1.888076400">
        <ele>624.000000</ele>
        <time>2014-03-29T15:50:12Z</time>
      </trkpt>
      <trkpt lat="37.776570000" lon="-1.887978000">
        <ele>623.000000</ele>
        <time>2014-03-29T15:50:13Z</time>
      </trkpt>
      <trkpt lat="37.776471400" lon="-1.887880800">
        <ele>622.000000</ele>
        <time>2014-03-29T15:50:14Z</time>
      </trkpt>
      <trkpt lat="37.776373900" lon="-1.887785300">
        <ele>621.000000</ele>
        <time>2014-03-29T15:50:15Z</time>
      </trkpt>
      <trkpt lat="37.776274100" lon="-1.887695200">
        <ele>620.000000</ele>
        <time>2014-03-29T15:50:16Z</time>
      </trkpt>
      <trkpt lat="37.776170900" lon="-1.887618800">
        <ele>620.000000</ele>
        <time>2014-03-29T15:50:17Z</time>
      </trkpt>
      <trkpt lat="37.776065900" lon="-1.887552600">
        <ele>619.000000</ele>
        <time>2014-03-29T15:50:18Z</time>
      </trkpt>
      <trkpt lat="37.775957800" lon="-1.887500900">
        <ele>618.000000</ele>
        <time>2014-03-29T15:50:19Z</time>
      </trkpt>
      <trkpt lat="37.775837700" lon="-1.887473600">
        <ele>617.000000</ele>
        <time>2014-03-29T15:50:20Z</time>
      </trkpt>
      <trkpt lat="37.775715600" lon="-1.887454200">
        <ele>616.000000</ele>
        <time>2014-03-29T15:50:21Z</time>
      </trkpt>
      <trkpt lat="37.775587300" lon="-1.887438800">
        <ele>615.000000</ele>
        <time>2014-03-29T15:50:22Z</time>
      </trkpt>
      <trkpt lat="37.775454600" lon="-1.887424600">
        <ele>614.000000</ele>
        <time>2014-03-29T15:50:23Z</time>
      </trkpt>
      <trkpt lat="37.775319600" lon="-1.887410600">
        <ele>614.000000</ele>
        <time>2014-03-29T15:50:24Z</time>
      </trkpt>
      <trkpt lat="37.775185800" lon="-1.887395900">
        <ele>613.000000</ele>
        <time>2014-03-29T15:50:25Z</time>
      </trkpt>
      <trkpt lat="37.775057100" lon="-1.887384100">
        <ele>612.000000</ele>
        <time>2014-03-29T15:50:26Z</time>
      </trkpt>
      <trkpt lat="37.774923900" lon="-1.887375400">
        <ele>611.000000</ele>
        <time>2014-03-29T15:50:27Z</time>
      </trkpt>
      <trkpt lat="37.774790800" lon="-1.887375000">
        <ele>610.000000</ele>
        <time>2014-03-29T15:50:28Z</time>
      </trkpt>
      <trkpt lat="37.774658900" lon="-1.887395400">
        <ele>609.000000</ele>
        <time>2014-03-29T15:50:29Z</time>
      </trkpt>
      <trkpt lat="37.774528000" lon="-1.887437000">
        <ele>608.000000</ele>
        <time>2014-03-29T15:50:30Z</time>
      </trkpt>
      <trkpt lat="37.774398700" lon="-1.887495300">
        <ele>607.000000</ele>
        <time>2014-03-29T15:50:31Z</time>
      </trkpt>
      <trkpt lat="37.774272600" lon="-1.887562400">
        <ele>606.000000</ele>
        <time>2014-03-29T15:50:32Z</time>
      </trkpt>
      <trkpt lat="37.774149900" lon="-1.887626700">
        <ele>605.000000</ele>
        <time>2014-03-29T15:50:33Z</time>
      </trkpt>
      <trkpt lat="37.774036100" lon="-1.887674600">
        <ele>604.000000</ele>
        <time>2014-03-29T15:50:34Z</time>
      </trkpt>
      <trkpt lat="37.773929200" lon="-1.887695300">
        <ele>603.000000</ele>
        <time>2014-03-29T15:50:35Z</time>
      </trkpt>
      <trkpt lat="37.773828000" lon="-1.887691900">
        <ele>602.000000</ele>
        <time>2014-03-29T15:50:36Z</time>
      </trkpt>
      <trkpt lat="37.773728200" lon="-1.887646400">
        <ele>601.000000</ele>
        <time>2014-03-29T15:50:37Z</time>
      </trkpt>
      <trkpt lat="37.773695800" lon="-1.887539800">
        <ele>600.000000</ele>
        <time>2014-03-29T15:50:38Z</time>
      </trkpt>
      <trkpt lat="37.773660000" lon="-1.887439000">
        <ele>599.000000</ele>
        <time>2014-03-29T15:50:39Z</time>
      </trkpt>
      <trkpt lat="37.773628900" lon="-1.887319900">
        <ele>598.000000</ele>
        <time>2014-03-29T15:50:40Z</time>
      </trkpt>
      <trkpt lat="37.773606900" lon="-1.887189300">
        <ele>597.000000</ele>
        <time>2014-03-29T15:50:41Z</time>
      </trkpt>
      <trkpt lat="37.773580700" lon="-1.887056600">
        <ele>597.000000</ele>
        <time>2014-03-29T15:50:42Z</time>
      </trkpt>
      <trkpt lat="37.773547200" lon="-1.886923300">
        <ele>596.000000</ele>
        <time>2014-03-29T15:50:43Z</time>
      </trkpt>
      <trkpt lat="37.773515800" lon="-1.886815800">
        <ele>595.000000</ele>
        <time>2014-03-29T15:50:44Z</time>
      </trkpt>
      <trkpt lat="37.773461800" lon="-1.886732600">
        <ele>595.000000</ele>
        <time>2014-03-29T15:50:45Z</time>
      </trkpt>
      <trkpt lat="37.773375800" lon="-1.886688300">
        <ele>594.000000</ele>
        <time>2014-03-29T15:50:46Z</time>
      </trkpt>
      <trkpt lat="37.773264700" lon="-1.886693900">
        <ele>594.000000</ele>
        <time>2014-03-29T15:50:47Z</time>
      </trkpt>
      <trkpt lat="37.773160900" lon="-1.886709700">
        <ele>594.000000</ele>
        <time>2014-03-29T15:50:48Z</time>
      </trkpt>
      <trkpt lat="37.773053600" lon="-1.886736000">
        <ele>594.000000</ele>
        <time>2014-03-29T15:50:49Z</time>
      </trkpt>
      <trkpt lat="37.772958500" lon="-1.886757900">
        <ele>594.000000</ele>
        <time>2014-03-29T15:50:50Z</time>
      </trkpt>
      <trkpt lat="37.772872500" lon="-1.886780700">
        <ele>594.000000</ele>
        <time>2014-03-29T15:50:51Z</time>
      </trkpt>
      <trkpt lat="37.772788900" lon="-1.886800700">
        <ele>594.000000</ele>
        <time>2014-03-29T15:50:52Z</time>
      </trkpt>
      <trkpt lat="37.772707300" lon="-1.886812700">
        <ele>594.000000</ele>
        <time>2014-03-29T15:50:53Z</time>
      </trkpt>
      <trkpt lat="37.772624900" lon="-1.886829000">
        <ele>594.000000</ele>
        <time>2014-03-29T15:50:54Z</time>
      </trkpt>
      <trkpt lat="37.772546700" lon="-1.886842200">
        <ele>594.000000</ele>
        <time>2014-03-29T15:50:55Z</time>
      </trkpt>
      <trkpt lat="37.772469500" lon="-1.886855800">
        <ele>594.000000</ele>
        <time>2014-03-29T15:50:56Z</time>
      </trkpt>
      <trkpt lat="37.772393600" lon="-1.886872100">
        <ele>594.000000</ele>
        <time>2014-03-29T15:50:57Z</time>
      </trkpt>
      <trkpt lat="37.772318900" lon="-1.886889400">
        <ele>595.000000</ele>
        <time>2014-03-29T15:50:58Z</time>
      </trkpt>
      <trkpt lat="37.772242100" lon="-1.886904900">
        <ele>595.000000</ele>
        <time>2014-03-29T15:50:59Z</time>
      </trkpt>
      <trkpt lat="37.772163500" lon="-1.886915700">
        <ele>595.000000</ele>
        <time>2014-03-29T15:51:00Z</time>
      </trkpt>
      <trkpt lat="37.772088400" lon="-1.886928800">
        <ele>595.000000</ele>
        <time>2014-03-29T15:51:01Z</time>
      </trkpt>
      <trkpt lat="37.772016600" lon="-1.886943600">
        <ele>596.000000</ele>
        <time>2014-03-29T15:51:02Z</time>
      </trkpt>
      <trkpt lat="37.771947500" lon="-1.886959000">
        <ele>596.000000</ele>
        <time>2014-03-29T15:51:03Z</time>
      </trkpt>
      <trkpt lat="37.771883000" lon="-1.886972300">
        <ele>596.000000</ele>
        <time>2014-03-29T15:51:04Z</time>
      </trkpt>
      <trkpt lat="37.771815100" lon="-1.886987000">
        <ele>596.000000</ele>
        <time>2014-03-29T15:51:05Z</time>
      </trkpt>
      <trkpt lat="37.771747700" lon="-1.887002900">
        <ele>597.000000</ele>
        <time>2014-03-29T15:51:06Z</time>
      </trkpt>
      <trkpt lat="37.771684200" lon="-1.887021500">
        <ele>597.000000</ele>
        <time>2014-03-29T15:51:07Z</time>
      </trkpt>
      <trkpt lat="37.771621800" lon="-1.887043600">
        <ele>597.000000</ele>
        <time>2014-03-29T15:51:08Z</time>
      </trkpt>
      <trkpt lat="37.771561000" lon="-1.887069100">
        <ele>597.000000</ele>
        <time>2014-03-29T15:51:09Z</time>
      </trkpt>
      <trkpt lat="37.771503900" lon="-1.887100600">
        <ele>597.000000</ele>
        <time>2014-03-29T15:51:10Z</time>
      </trkpt>
      <trkpt lat="37.771451100" lon="-1.887138200">
        <ele>598.000000</ele>
        <time>2014-03-29T15:51:11Z</time>
      </trkpt>
      <trkpt lat="37.771400300" lon="-1.887179500">
        <ele>598.000000</ele>
        <time>2014-03-29T15:51:12Z</time>
      </trkpt>
      <trkpt lat="37.771349800" lon="-1.887225000">
        <ele>598.000000</ele>
        <time>2014-03-29T15:51:13Z</time>
      </trkpt>
      <trkpt lat="37.771307600" lon="-1.887278800">
        <ele>599.000000</ele>
        <time>2014-03-29T15:51:14Z</time>
      </trkpt>
      <trkpt lat="37.771271900" lon="-1.887334900">
        <ele>599.000000</ele>
        <time>2014-03-29T15:51:15Z</time>
      </trkpt>
      <trkpt lat="37.771243500" lon="-1.887391500">
        <ele>600.000000</ele>
        <time>2014-03-29T15:51:16Z</time>
      </trkpt>
      <trkpt lat="37.771215400" lon="-1.887449000">
        <ele>600.000000</ele>
        <time>2014-03-29T15:51:17Z</time>
      </trkpt>
      <trkpt lat="37.771195200" lon="-1.887507400">
        <ele>601.000000</ele>
        <time>2014-03-29T15:51:18Z</time>
      </trkpt>
      <trkpt lat="37.771173700" lon="-1.887565800">
        <ele>601.000000</ele>
        <time>2014-03-29T15:51:19Z</time>
      </trkpt>
      <trkpt lat="37.771150800" lon="-1.887629600">
        <ele>602.000000</ele>
        <time>2014-03-29T15:51:20Z</time>
      </trkpt>
      <trkpt lat="37.771129800" lon="-1.887695000">
        <ele>602.000000</ele>
        <time>2014-03-29T15:51:21Z</time>
      </trkpt>
      <trkpt lat="37.771109500" lon="-1.887758100">
        <ele>603.000000</ele>
        <time>2014-03-29T15:51:22Z</time>
      </trkpt>
      <trkpt lat="37.771083300" lon="-1.887818300">
        <ele>603.000000</ele>
        <time>2014-03-29T15:51:23Z</time>
      </trkpt>
      <trkpt lat="37.771054200" lon="-1.887879000">
        <ele>604.000000</ele>
        <time>2014-03-29T15:51:24Z</time>
      </trkpt>
      <trkpt lat="37.771025600" lon="-1.887939900">
        <ele>605.000000</ele>
        <time>2014-03-29T15:51:25Z</time>
      </trkpt>
      <trkpt lat="37.771000500" lon="-1.887998300">
        <ele>605.000000</ele>
        <time>2014-03-29T15:51:26Z</time>
      </trkpt>
      <trkpt lat="37.770978700" lon="-1.888053300">
        <ele>606.000000</ele>
        <time>2014-03-29T15:51:27Z</time>
      </trkpt>
      <trkpt lat="37.770960000" lon="-1.888106800">
        <ele>607.000000</ele>
        <time>2014-03-29T15:51:28Z</time>
      </trkpt>
      <trkpt lat="37.770941600" lon="-1.888157600">
        <ele>608.000000</ele>
        <time>2014-03-29T15:51:29Z</time>
      </trkpt>
      <trkpt lat="37.770924100" lon="-1.888204800">
        <ele>608.000000</ele>
        <time>2014-03-29T15:51:30Z</time>
      </trkpt>
      <trkpt lat="37.770906800" lon="-1.888254700">
        <ele>609.000000</ele>
        <time>2014-03-29T15:51:31Z</time>
      </trkpt>
      <trkpt lat="37.770885900" lon="-1.888307200">
        <ele>610.000000</ele>
        <time>2014-03-29T15:51:32Z</time>
      </trkpt>
      <trkpt lat="37.770859900" lon="-1.888358100">
        <ele>610.000000</ele>
        <time>2014-03-29T15:51:33Z</time>
      </trkpt>
      <trkpt lat="37.770839500" lon="-1.888401700">
        <ele>611.000000</ele>
        <time>2014-03-29T15:51:34Z</time>
      </trkpt>
      <trkpt lat="37.770816500" lon="-1.888448800">
        <ele>611.000000</ele>
        <time>2014-03-29T15:51:35Z</time>
      </trkpt>
      <trkpt lat="37.770793200" lon="-1.888501000">
        <ele>612.000000</ele>
        <time>2014-03-29T15:51:36Z</time>
      </trkpt>
      <trkpt lat="37.770772700" lon="-1.888546900">
        <ele>613.000000</ele>
        <time>2014-03-29T15:51:37Z</time>
      </trkpt>
      <trkpt lat="37.770749000" lon="-1.888592300">
        <ele>613.000000</ele>
        <time>2014-03-29T15:51:38Z</time>
      </trkpt>
      <trkpt lat="37.770724100" lon="-1.888632700">
        <ele>614.000000</ele>
        <time>2014-03-29T15:51:39Z</time>
      </trkpt>
      <trkpt lat="37.770699300" lon="-1.888670600">
        <ele>615.000000</ele>
        <time>2014-03-29T15:51:40Z</time>
      </trkpt>
      <trkpt lat="37.770672400" lon="-1.888712000">
        <ele>615.000000</ele>
        <time>2014-03-29T15:51:41Z</time>
      </trkpt>
      <trkpt lat="37.770646500" lon="-1.888756400">
        <ele>616.000000</ele>
        <time>2014-03-29T15:51:42Z</time>
      </trkpt>
      <trkpt lat="37.770622000" lon="-1.888798700">
        <ele>617.000000</ele>
        <time>2014-03-29T15:51:43Z</time>
      </trkpt>
      <trkpt lat="37.770594800" lon="-1.888844300">
        <ele>617.000000</ele>
        <time>2014-03-29T15:51:44Z</time>
      </trkpt>
      <trkpt lat="37.770564300" lon="-1.888888900">
        <ele>618.000000</ele>
        <time>2014-03-29T15:51:45Z</time>
      </trkpt>
      <trkpt lat="37.770529300" lon="-1.888929300">
        <ele>618.000000</ele>
        <time>2014-03-29T15:51:46Z</time>
      </trkpt>
      <trkpt lat="37.770491900" lon="-1.888972100">
        <ele>619.000000</ele>
        <time>2014-03-29T15:51:47Z</time>
      </trkpt>
      <trkpt lat="37.770449500" lon="-1.889012800">
        <ele>620.000000</ele>
        <time>2014-03-29T15:51:48Z</time>
      </trkpt>
      <trkpt lat="37.770400100" lon="-1.889049300">
        <ele>620.000000</ele>
        <time>2014-03-29T15:51:49Z</time>
      </trkpt>
      <trkpt lat="37.770347200" lon="-1.889081100">
        <ele>621.000000</ele>
        <time>2014-03-29T15:51:50Z</time>
      </trkpt>
      <trkpt lat="37.770287900" lon="-1.889103100">
        <ele>621.000000</ele>
        <time>2014-03-29T15:51:51Z</time>
      </trkpt>
      <trkpt lat="37.770226100" lon="-1.889127300">
        <ele>622.000000</ele>
        <time>2014-03-29T15:51:52Z</time>
      </trkpt>
      <trkpt lat="37.770160000" lon="-1.889151700">
        <ele>622.000000</ele>
        <time>2014-03-29T15:51:53Z</time>
      </trkpt>
      <trkpt lat="37.770089300" lon="-1.889172000">
        <ele>623.000000</ele>
        <time>2014-03-29T15:51:54Z</time>
      </trkpt>
      <trkpt lat="37.770019500" lon="-1.889192900">
        <ele>623.000000</ele>
        <time>2014-03-29T15:51:55Z</time>
      </trkpt>
      <trkpt lat="37.769946700" lon="-1.889219200">
        <ele>624.000000</ele>
        <time>2014-03-29T15:51:56Z</time>
      </trkpt>
      <trkpt lat="37.769869700" lon="-1.889242000">
        <ele>624.000000</ele>
        <time>2014-03-29T15:51:57Z</time>
      </trkpt>
      <trkpt lat="37.769794700" lon="-1.889259600">
        <ele>624.000000</ele>
        <time>2014-03-29T15:51:58Z</time>
      </trkpt>
      <trkpt lat="37.769719200" lon="-1.889276100">
        <ele>625.000000</ele>
        <time>2014-03-29T15:51:59Z</time>
      </trkpt>
      <trkpt lat="37.769639600" lon="-1.889295800">
        <ele>625.000000</ele>
        <time>2014-03-29T15:52:00Z</time>
      </trkpt>
      <trkpt lat="37.769560200" lon="-1.889313300">
        <ele>625.000000</ele>
        <time>2014-03-29T15:52:01Z</time>
      </trkpt>
      <trkpt lat="37.769483800" lon="-1.889335000">
        <ele>626.000000</ele>
        <time>2014-03-29T15:52:02Z</time>
      </trkpt>
      <trkpt lat="37.769404100" lon="-1.889362800">
        <ele>626.000000</ele>
        <time>2014-03-29T15:52:03Z</time>
      </trkpt>
      <trkpt lat="37.769322400" lon="-1.889394200">
        <ele>626.000000</ele>
        <time>2014-03-29T15:52:04Z</time>
      </trkpt>
      <trkpt lat="37.769237500" lon="-1.889419500">
        <ele>626.000000</ele>
        <time>2014-03-29T15:52:05Z</time>
      </trkpt>
      <trkpt lat="37.769150500" lon="-1.889443500">
        <ele>626.000000</ele>
        <time>2014-03-29T15:52:06Z</time>
      </trkpt>
      <trkpt lat="37.769060100" lon="-1.889467100">
        <ele>626.000000</ele>
        <time>2014-03-29T15:52:07Z</time>
      </trkpt>
      <trkpt lat="37.768967300" lon="-1.889493100">
        <ele>626.000000</ele>
        <time>2014-03-29T15:52:08Z</time>
      </trkpt>
      <trkpt lat="37.768875100" lon="-1.889516500">
        <ele>627.000000</ele>
        <time>2014-03-29T15:52:09Z</time>
      </trkpt>
      <trkpt lat="37.768779200" lon="-1.889536500">
        <ele>627.000000</ele>
        <time>2014-03-29T15:52:10Z</time>
      </trkpt>
      <trkpt lat="37.768680400" lon="-1.889553800">
        <ele>627.000000</ele>
        <time>2014-03-29T15:52:11Z</time>
      </trkpt>
      <trkpt lat="37.768584300" lon="-1.889560900">
        <ele>627.000000</ele>
        <time>2014-03-29T15:52:12Z</time>
      </trkpt>
      <trkpt lat="37.768485800" lon="-1.889554800">
        <ele>627.000000</ele>
        <time>2014-03-29T15:52:13Z</time>
      </trkpt>
      <trkpt lat="37.768385500" lon="-1.889537400">
        <ele>627.000000</ele>
        <time>2014-03-29T15:52:14Z</time>
      </trkpt>
      <trkpt lat="37.768285500" lon="-1.889515000">
        <ele>627.000000</ele>
        <time>2014-03-29T15:52:15Z</time>
      </trkpt>
      <trkpt lat="37.768190400" lon="-1.889487400">
        <ele>627.000000</ele>
        <time>2014-03-29T15:52:16Z</time>
      </trkpt>
      <trkpt lat="37.768097500" lon="-1.889452100">
        <ele>627.000000</ele>
        <time>2014-03-29T15:52:17Z</time>
      </trkpt>
      <trkpt lat="37.768006500" lon="-1.889412800">
        <ele>627.000000</ele>
        <time>2014-03-29T15:52:18Z</time>
      </trkpt>
      <trkpt lat="37.767915300" lon="-1.889368800">
        <ele>627.000000</ele>
        <time>2014-03-29T15:52:19Z</time>
      </trkpt>
      <trkpt lat="37.767825700" lon="-1.889321600">
        <ele>627.000000</ele>
        <time>2014-03-29T15:52:20Z</time>
      </trkpt>
      <trkpt lat="37.767737500" lon="-1.889272900">
        <ele>627.000000</ele>
        <time>2014-03-29T15:52:21Z</time>
      </trkpt>
      <trkpt lat="37.767649200" lon="-1.889224000">
        <ele>628.000000</ele>
        <time>2014-03-29T15:52:22Z</time>
      </trkpt>
      <trkpt lat="37.767561600" lon="-1.889172200">
        <ele>628.000000</ele>
        <time>2014-03-29T15:52:23Z</time>
      </trkpt>
      <trkpt lat="37.767474700" lon="-1.889116300">
        <ele>628.000000</ele>
        <time>2014-03-29T15:52:24Z</time>
      </trkpt>
      <trkpt lat="37.767386000" lon="-1.889062700">
        <ele>628.000000</ele>
        <time>2014-03-29T15:52:25Z</time>
      </trkpt>
      <trkpt lat="37.767299200" lon="-1.889016500">
        <ele>628.000000</ele>
        <time>2014-03-29T15:52:26Z</time>
      </trkpt>
      <trkpt lat="37.767211200" lon="-1.888983000">
        <ele>628.000000</ele>
        <time>2014-03-29T15:52:27Z</time>
      </trkpt>
      <trkpt lat="37.767120600" lon="-1.888957700">
        <ele>628.000000</ele>
        <time>2014-03-29T15:52:28Z</time>
      </trkpt>
      <trkpt lat="37.767032500" lon="-1.888941100">
        <ele>628.000000</ele>
        <time>2014-03-29T15:52:29Z</time>
      </trkpt>
      <trkpt lat="37.766945100" lon="-1.888929300">
        <ele>629.000000</ele>
        <time>2014-03-29T15:52:30Z</time>
      </trkpt>
      <trkpt lat="37.766858800" lon="-1.888930300">
        <ele>629.000000</ele>
        <time>2014-03-29T15:52:31Z</time>
      </trkpt>
      <trkpt lat="37.766773400" lon="-1.888939800">
        <ele>629.000000</ele>
        <time>2014-03-29T15:52:32Z</time>
      </trkpt>
      <trkpt lat="37.766684700" lon="-1.888954700">
        <ele>629.000000</ele>
        <time>2014-03-29T15:52:33Z</time>
      </trkpt>
      <trkpt lat="37.766594500" lon="-1.888971200">
        <ele>629.000000</ele>
        <time>2014-03-29T15:52:34Z</time>
      </trkpt>
      <trkpt lat="37.766504300" lon="-1.888994600">
        <ele>629.000000</ele>
        <time>2014-03-29T15:52:35Z</time>
      </trkpt>
      <trkpt lat="37.766412900" lon="-1.889028100">
        <ele>629.000000</ele>
        <time>2014-03-29T15:52:36Z</time>
      </trkpt>
      <trkpt lat="37.766322000" lon="-1.889064300">
        <ele>629.000000</ele>
        <time>2014-03-29T15:52:37Z</time>
      </trkpt>
      <trkpt lat="37.766231700" lon="-1.889105800">
        <ele>629.000000</ele>
        <time>2014-03-29T15:52:38Z</time>
      </trkpt>
      <trkpt lat="37.766140300" lon="-1.889158800">
        <ele>629.000000</ele>
        <time>2014-03-29T15:52:39Z</time>
      </trkpt>
      <trkpt lat="37.766049000" lon="-1.889218000">
        <ele>629.000000</ele>
        <time>2014-03-29T15:52:40Z</time>
      </trkpt>
      <trkpt lat="37.765956500" lon="-1.889283600">
        <ele>629.000000</ele>
        <time>2014-03-29T15:52:41Z</time>
      </trkpt>
      <trkpt lat="37.765868100" lon="-1.889352700">
        <ele>629.000000</ele>
        <time>2014-03-29T15:52:42Z</time>
      </trkpt>
      <trkpt lat="37.765782600" lon="-1.889422900">
        <ele>629.000000</ele>
        <time>2014-03-29T15:52:43Z</time>
      </trkpt>
      <trkpt lat="37.765697100" lon="-1.889489900">
        <ele>629.000000</ele>
        <time>2014-03-29T15:52:44Z</time>
      </trkpt>
      <trkpt lat="37.765610800" lon="-1.889553700">
        <ele>629.000000</ele>
        <time>2014-03-29T15:52:45Z</time>
      </trkpt>
      <trkpt lat="37.765524800" lon="-1.889616800">
        <ele>629.000000</ele>
        <time>2014-03-29T15:52:46Z</time>
      </trkpt>
      <trkpt lat="37.765437400" lon="-1.889678000">
        <ele>629.000000</ele>
        <time>2014-03-29T15:52:47Z</time>
      </trkpt>
      <trkpt lat="37.765349400" lon="-1.889739300">
        <ele>629.000000</ele>
        <time>2014-03-29T15:52:48Z</time>
      </trkpt>
      <trkpt lat="37.765264800" lon="-1.889805900">
        <ele>629.000000</ele>
        <time>2014-03-29T15:52:49Z</time>
      </trkpt>
      <trkpt lat="37.765186500" lon="-1.889878200">
        <ele>629.000000</ele>
        <time>2014-03-29T15:52:50Z</time>
      </trkpt>
      <trkpt lat="37.765108200" lon="-1.889954900">
        <ele>629.000000</ele>
        <time>2014-03-29T15:52:51Z</time>
      </trkpt>
      <trkpt lat="37.765034000" lon="-1.890041500">
        <ele>629.000000</ele>
        <time>2014-03-29T15:52:52Z</time>
      </trkpt>
      <trkpt lat="37.764967800" lon="-1.890133900">
        <ele>629.000000</ele>
        <time>2014-03-29T15:52:53Z</time>
      </trkpt>
      <trkpt lat="37.764910400" lon="-1.890230400">
        <ele>629.000000</ele>
        <time>2014-03-29T15:52:54Z</time>
      </trkpt>
      <trkpt lat="37.764856800" lon="-1.890330900">
        <ele>629.000000</ele>
        <time>2014-03-29T15:52:55Z</time>
      </trkpt>
      <trkpt lat="37.764797500" lon="-1.890431700">
        <ele>629.000000</ele>
        <time>2014-03-29T15:52:56Z</time>
      </trkpt>
      <trkpt lat="37.764728200" lon="-1.890526600">
        <ele>629.000000</ele>
        <time>2014-03-29T15:52:57Z</time>
      </trkpt>
      <trkpt lat="37.764646400" lon="-1.890611400">
        <ele>629.000000</ele>
        <time>2014-03-29T15:52:58Z</time>
      </trkpt>
      <trkpt lat="37.764548600" lon="-1.890674900">
        <ele>629.000000</ele>
        <time>2014-03-29T15:52:59Z</time>
      </trkpt>
      <trkpt lat="37.764439500" lon="-1.890702000">
        <ele>629.000000</ele>
        <time>2014-03-29T15:53:00Z</time>
      </trkpt>
      <trkpt lat="37.764329800" lon="-1.890703500">
        <ele>629.000000</ele>
        <time>2014-03-29T15:53:01Z</time>
      </trkpt>
      <trkpt lat="37.764225700" lon="-1.890688200">
        <ele>629.000000</ele>
        <time>2014-03-29T15:53:02Z</time>
      </trkpt>
      <trkpt lat="37.764126800" lon="-1.890659900">
        <ele>629.000000</ele>
        <time>2014-03-29T15:53:03Z</time>
      </trkpt>
      <trkpt lat="37.764029700" lon="-1.890624900">
        <ele>628.000000</ele>
        <time>2014-03-29T15:53:04Z</time>
      </trkpt>
      <trkpt lat="37.763933600" lon="-1.890589400">
        <ele>628.000000</ele>
        <time>2014-03-29T15:53:05Z</time>
      </trkpt>
      <trkpt lat="37.763841700" lon="-1.890556400">
        <ele>628.000000</ele>
        <time>2014-03-29T15:53:06Z</time>
      </trkpt>
      <trkpt lat="37.763750900" lon="-1.890528200">
        <ele>628.000000</ele>
        <time>2014-03-29T15:53:07Z</time>
      </trkpt>
      <trkpt lat="37.763662600" lon="-1.890502600">
        <ele>628.000000</ele>
        <time>2014-03-29T15:53:08Z</time>
      </trkpt>
      <trkpt lat="37.763576500" lon="-1.890482000">
        <ele>628.000000</ele>
        <time>2014-03-29T15:53:09Z</time>
      </trkpt>
      <trkpt lat="37.763489400" lon="-1.890463100">
        <ele>628.000000</ele>
        <time>2014-03-29T15:53:10Z</time>
      </trkpt>
      <trkpt lat="37.763401000" lon="-1.890447600">
        <ele>629.000000</ele>
        <time>2014-03-29T15:53:11Z</time>
      </trkpt>
      <trkpt lat="37.763310600" lon="-1.890431700">
        <ele>629.000000</ele>
        <time>2014-03-29T15:53:12Z</time>
      </trkpt>
      <trkpt lat="37.763218500" lon="-1.890408200">
        <ele>629.000000</ele>
        <time>2014-03-29T15:53:13Z</time>
      </trkpt>
      <trkpt lat="37.763129500" lon="-1.890376600">
        <ele>629.000000</ele>
        <time>2014-03-29T15:53:14Z</time>
      </trkpt>
      <trkpt lat="37.763038500" lon="-1.890342600">
        <ele>629.000000</ele>
        <time>2014-03-29T15:53:15Z</time>
      </trkpt>
      <trkpt lat="37.762951400" lon="-1.890304800">
        <ele>629.000000</ele>
        <time>2014-03-29T15:53:16Z</time>
      </trkpt>
      <trkpt lat="37.762866900" lon="-1.890254900">
        <ele>629.000000</ele>
        <time>2014-03-29T15:53:17Z</time>
      </trkpt>
      <trkpt lat="37.762790600" lon="-1.890197200">
        <ele>629.000000</ele>
        <time>2014-03-29T15:53:18Z</time>
      </trkpt>
      <trkpt lat="37.762718500" lon="-1.890134800">
        <ele>629.000000</ele>
        <time>2014-03-29T15:53:19Z</time>
      </trkpt>
      <trkpt lat="37.762644800" lon="-1.890073400">
        <ele>629.000000</ele>
        <time>2014-03-29T15:53:20Z</time>
      </trkpt>
      <trkpt lat="37.762571300" lon="-1.890019900">
        <ele>630.000000</ele>
        <time>2014-03-29T15:53:21Z</time>
      </trkpt>
      <trkpt lat="37.762496700" lon="-1.889973800">
        <ele>630.000000</ele>
        <time>2014-03-29T15:53:22Z</time>
      </trkpt>
      <trkpt lat="37.762421400" lon="-1.889933800">
        <ele>630.000000</ele>
        <time>2014-03-29T15:53:23Z</time>
      </trkpt>
      <trkpt lat="37.762343400" lon="-1.889903800">
        <ele>630.000000</ele>
        <time>2014-03-29T15:53:24Z</time>
      </trkpt>
      <trkpt lat="37.762265500" lon="-1.889889700">
        <ele>630.000000</ele>
        <time>2014-03-29T15:53:25Z</time>
      </trkpt>
      <trkpt lat="37.762187200" lon="-1.889887000">
        <ele>630.000000</ele>
        <time>2014-03-29T15:53:26Z</time>
      </trkpt>
      <trkpt lat="37.762111200" lon="-1.889895000">
        <ele>630.000000</ele>
        <time>2014-03-29T15:53:27Z</time>
      </trkpt>
      <trkpt lat="37.762040800" lon="-1.889918700">
        <ele>630.000000</ele>
        <time>2014-03-29T15:53:28Z</time>
      </trkpt>
      <trkpt lat="37.761974700" lon="-1.889952600">
        <ele>630.000000</ele>
        <time>2014-03-29T15:53:29Z</time>
      </trkpt>
      <trkpt lat="37.761907000" lon="-1.889985400">
        <ele>630.000000</ele>
        <time>2014-03-29T15:53:30Z</time>
      </trkpt>
      <trkpt lat="37.761837700" lon="-1.890016200">
        <ele>631.000000</ele>
        <time>2014-03-29T15:53:31Z</time>
      </trkpt>
      <trkpt lat="37.761769600" lon="-1.890051200">
        <ele>631.000000</ele>
        <time>2014-03-29T15:53:32Z</time>
      </trkpt>
      <trkpt lat="37.761702400" lon="-1.890085300">
        <ele>631.000000</ele>
        <time>2014-03-29T15:53:33Z</time>
      </trkpt>
      <trkpt lat="37.761635600" lon="-1.890121800">
        <ele>631.000000</ele>
        <time>2014-03-29T15:53:34Z</time>
      </trkpt>
      <trkpt lat="37.761569000" lon="-1.890161000">
        <ele>631.000000</ele>
        <time>2014-03-29T15:53:35Z</time>
      </trkpt>
      <trkpt lat="37.761498800" lon="-1.890198200">
        <ele>632.000000</ele>
        <time>2014-03-29T15:53:36Z</time>
      </trkpt>
      <trkpt lat="37.761432100" lon="-1.890231800">
        <ele>632.000000</ele>
        <time>2014-03-29T15:53:37Z</time>
      </trkpt>
      <trkpt lat="37.761361900" lon="-1.890260500">
        <ele>632.000000</ele>
        <time>2014-03-29T15:53:38Z</time>
      </trkpt>
      <trkpt lat="37.761296300" lon="-1.890296400">
        <ele>633.000000</ele>
        <time>2014-03-29T15:53:39Z</time>
      </trkpt>
      <trkpt lat="37.761229400" lon="-1.890333300">
        <ele>633.000000</ele>
        <time>2014-03-29T15:53:40Z</time>
      </trkpt>
      <trkpt lat="37.761159900" lon="-1.890369800">
        <ele>633.000000</ele>
        <time>2014-03-29T15:53:41Z</time>
      </trkpt>
      <trkpt lat="37.761092000" lon="-1.890400500">
        <ele>634.000000</ele>
        <time>2014-03-29T15:53:42Z</time>
      </trkpt>
      <trkpt lat="37.761025800" lon="-1.890427100">
        <ele>634.000000</ele>
        <time>2014-03-29T15:53:43Z</time>
      </trkpt>
      <trkpt lat="37.760960500" lon="-1.890457000">
        <ele>634.000000</ele>
        <time>2014-03-29T15:53:44Z</time>
      </trkpt>
      <trkpt lat="37.760897300" lon="-1.890490800">
        <ele>635.000000</ele>
        <time>2014-03-29T15:53:45Z</time>
      </trkpt>
      <trkpt lat="37.760831100" lon="-1.890526900">
        <ele>635.000000</ele>
        <time>2014-03-29T15:53:46Z</time>
      </trkpt>
      <trkpt lat="37.760765700" lon="-1.890561500">
        <ele>635.000000</ele>
        <time>2014-03-29T15:53:47Z</time>
      </trkpt>
      <trkpt lat="37.760700800" lon="-1.890598700">
        <ele>636.000000</ele>
        <time>2014-03-29T15:53:48Z</time>
      </trkpt>
      <trkpt lat="37.760634600" lon="-1.890633200">
        <ele>636.000000</ele>
        <time>2014-03-29T15:53:49Z</time>
      </trkpt>
      <trkpt lat="37.760570800" lon="-1.890668400">
        <ele>636.000000</ele>
        <time>2014-03-29T15:53:50Z</time>
      </trkpt>
      <trkpt lat="37.760510500" lon="-1.890702500">
        <ele>637.000000</ele>
        <time>2014-03-29T15:53:51Z</time>
      </trkpt>
      <trkpt lat="37.760449900" lon="-1.890742900">
        <ele>637.000000</ele>
        <time>2014-03-29T15:53:52Z</time>
      </trkpt>
      <trkpt lat="37.760392700" lon="-1.890783900">
        <ele>638.000000</ele>
        <time>2014-03-29T15:53:53Z</time>
      </trkpt>
      <trkpt lat="37.760338900" lon="-1.890832100">
        <ele>638.000000</ele>
        <time>2014-03-29T15:53:54Z</time>
      </trkpt>
      <trkpt lat="37.760284300" lon="-1.890886300">
        <ele>638.000000</ele>
        <time>2014-03-29T15:53:55Z</time>
      </trkpt>
      <trkpt lat="37.760230100" lon="-1.890944600">
        <ele>639.000000</ele>
        <time>2014-03-29T15:53:56Z</time>
      </trkpt>
      <trkpt lat="37.760177100" lon="-1.891006300">
        <ele>639.000000</ele>
        <time>2014-03-29T15:53:57Z</time>
      </trkpt>
      <trkpt lat="37.760124700" lon="-1.891065900">
        <ele>639.000000</ele>
        <time>2014-03-29T15:53:58Z</time>
      </trkpt>
      <trkpt lat="37.760073500" lon="-1.891123800">
        <ele>640.000000</ele>
        <time>2014-03-29T15:53:59Z</time>
      </trkpt>
      <trkpt lat="37.760026000" lon="-1.891182500">
        <ele>640.000000</ele>
        <time>2014-03-29T15:54:00Z</time>
      </trkpt>
      <trkpt lat="37.759977300" lon="-1.891239500">
        <ele>640.000000</ele>
        <time>2014-03-29T15:54:01Z</time>
      </trkpt>
      <trkpt lat="37.759927500" lon="-1.891298000">
        <ele>640.000000</ele>
        <time>2014-03-29T15:54:02Z</time>
      </trkpt>
      <trkpt lat="37.759875100" lon="-1.891359500">
        <ele>641.000000</ele>
        <time>2014-03-29T15:54:03Z</time>
      </trkpt>
      <trkpt lat="37.759818400" lon="-1.891416800">
        <ele>641.000000</ele>
        <time>2014-03-29T15:54:04Z</time>
      </trkpt>
      <trkpt lat="37.759761200" lon="-1.891472800">
        <ele>641.000000</ele>
        <time>2014-03-29T15:54:05Z</time>
      </trkpt>
      <trkpt lat="37.759702900" lon="-1.891532300">
        <ele>641.000000</ele>
        <time>2014-03-29T15:54:06Z</time>
      </trkpt>
      <trkpt lat="37.759644800" lon="-1.891590800">
        <ele>641.000000</ele>
        <time>2014-03-29T15:54:07Z</time>
      </trkpt>
      <trkpt lat="37.759584500" lon="-1.891649700">
        <ele>641.000000</ele>
        <time>2014-03-29T15:54:08Z</time>
      </trkpt>
      <trkpt lat="37.759522300" lon="-1.891705000">
        <ele>642.000000</ele>
        <time>2014-03-29T15:54:09Z</time>
      </trkpt>
      <trkpt lat="37.759459100" lon="-1.891756100">
        <ele>642.000000</ele>
        <time>2014-03-29T15:54:10Z</time>
      </trkpt>
      <trkpt lat="37.759394700" lon="-1.891807200">
        <ele>642.000000</ele>
        <time>2014-03-29T15:54:11Z</time>
      </trkpt>
      <trkpt lat="37.759333000" lon="-1.891857700">
        <ele>642.000000</ele>
        <time>2014-03-29T15:54:12Z</time>
      </trkpt>
      <trkpt lat="37.759268800" lon="-1.891908700">
        <ele>642.000000</ele>
        <time>2014-03-29T15:54:13Z</time>
      </trkpt>
      <trkpt lat="37.759209800" lon="-1.891958200">
        <ele>642.000000</ele>
        <time>2014-03-29T15:54:14Z</time>
      </trkpt>
      <trkpt lat="37.759151600" lon="-1.892007700">
        <ele>642.000000</ele>
        <time>2014-03-29T15:54:15Z</time>
      </trkpt>
      <trkpt lat="37.759091300" lon="-1.892059600">
        <ele>642.000000</ele>
        <time>2014-03-29T15:54:16Z</time>
      </trkpt>
      <trkpt lat="37.759032600" lon="-1.892107400">
        <ele>642.000000</ele>
        <time>2014-03-29T15:54:17Z</time>
      </trkpt>
      <trkpt lat="37.758975100" lon="-1.892152500">
        <ele>642.000000</ele>
        <time>2014-03-29T15:54:18Z</time>
      </trkpt>
      <trkpt lat="37.758915600" lon="-1.892198300">
        <ele>642.000000</ele>
        <time>2014-03-29T15:54:19Z</time>
      </trkpt>
      <trkpt lat="37.758854300" lon="-1.892244100">
        <ele>642.000000</ele>
        <time>2014-03-29T15:54:20Z</time>
      </trkpt>
      <trkpt lat="37.758788900" lon="-1.892290500">
        <ele>642.000000</ele>
        <time>2014-03-29T15:54:21Z</time>
      </trkpt>
      <trkpt lat="37.758722900" lon="-1.892337900">
        <ele>642.000000</ele>
        <time>2014-03-29T15:54:22Z</time>
      </trkpt>
      <trkpt lat="37.758655200" lon="-1.892384700">
        <ele>642.000000</ele>
        <time>2014-03-29T15:54:23Z</time>
      </trkpt>
      <trkpt lat="37.758587300" lon="-1.892428700">
        <ele>642.000000</ele>
        <time>2014-03-29T15:54:24Z</time>
      </trkpt>
      <trkpt lat="37.758518300" lon="-1.892468400">
        <ele>642.000000</ele>
        <time>2014-03-29T15:54:25Z</time>
      </trkpt>
      <trkpt lat="37.758447300" lon="-1.892505800">
        <ele>643.000000</ele>
        <time>2014-03-29T15:54:26Z</time>
      </trkpt>
      <trkpt lat="37.758372400" lon="-1.892542200">
        <ele>643.000000</ele>
        <time>2014-03-29T15:54:27Z</time>
      </trkpt>
      <trkpt lat="37.758297200" lon="-1.892580100">
        <ele>643.000000</ele>
        <time>2014-03-29T15:54:28Z</time>
      </trkpt>
      <trkpt lat="37.758220800" lon="-1.892618400">
        <ele>643.000000</ele>
        <time>2014-03-29T15:54:29Z</time>
      </trkpt>
      <trkpt lat="37.758147500" lon="-1.892657300">
        <ele>643.000000</ele>
        <time>2014-03-29T15:54:30Z</time>
      </trkpt>
      <trkpt lat="37.758072700" lon="-1.892697700">
        <ele>643.000000</ele>
        <time>2014-03-29T15:54:31Z</time>
      </trkpt>
      <trkpt lat="37.757994700" lon="-1.892734500">
        <ele>643.000000</ele>
        <time>2014-03-29T15:54:32Z</time>
      </trkpt>
      <trkpt lat="37.757913100" lon="-1.892767800">
        <ele>643.000000</ele>
        <time>2014-03-29T15:54:33Z</time>
      </trkpt>
      <trkpt lat="37.757829500" lon="-1.892801200">
        <ele>643.000000</ele>
        <time>2014-03-29T15:54:34Z</time>
      </trkpt>
      <trkpt lat="37.757745800" lon="-1.892838700">
        <ele>643.000000</ele>
        <time>2014-03-29T15:54:35Z</time>
      </trkpt>
      <trkpt lat="37.757660500" lon="-1.892878300">
        <ele>643.000000</ele>
        <time>2014-03-29T15:54:36Z</time>
      </trkpt>
      <trkpt lat="37.757574300" lon="-1.892915600">
        <ele>643.000000</ele>
        <time>2014-03-29T15:54:37Z</time>
      </trkpt>
      <trkpt lat="37.757486400" lon="-1.892954000">
        <ele>643.000000</ele>
        <time>2014-03-29T15:54:38Z</time>
      </trkpt>
      <trkpt lat="37.757399500" lon="-1.892996200">
        <ele>643.000000</ele>
        <time>2014-03-29T15:54:39Z</time>
      </trkpt>
      <trkpt lat="37.757314000" lon="-1.893041500">
        <ele>643.000000</ele>
        <time>2014-03-29T15:54:40Z</time>
      </trkpt>
      <trkpt lat="37.757229500" lon="-1.893086800">
        <ele>643.000000</ele>
        <time>2014-03-29T15:54:41Z</time>
      </trkpt>
      <trkpt lat="37.757143100" lon="-1.893130100">
        <ele>643.000000</ele>
        <time>2014-03-29T15:54:42Z</time>
      </trkpt>
      <trkpt lat="37.757056600" lon="-1.893171200">
        <ele>643.000000</ele>
        <time>2014-03-29T15:54:43Z</time>
      </trkpt>
      <trkpt lat="37.756970700" lon="-1.893211200">
        <ele>643.000000</ele>
        <time>2014-03-29T15:54:44Z</time>
      </trkpt>
      <trkpt lat="37.756883900" lon="-1.893249000">
        <ele>643.000000</ele>
        <time>2014-03-29T15:54:45Z</time>
      </trkpt>
      <trkpt lat="37.756796900" lon="-1.893288500">
        <ele>643.000000</ele>
        <time>2014-03-29T15:54:46Z</time>
      </trkpt>
      <trkpt lat="37.756710400" lon="-1.893328200">
        <ele>643.000000</ele>
        <time>2014-03-29T15:54:47Z</time>
      </trkpt>
      <trkpt lat="37.756623900" lon="-1.893367900">
        <ele>643.000000</ele>
        <time>2014-03-29T15:54:48Z</time>
      </trkpt>
      <trkpt lat="37.756539600" lon="-1.893402200">
        <ele>644.000000</ele>
        <time>2014-03-29T15:54:49Z</time>
      </trkpt>
      <trkpt lat="37.756455900" lon="-1.893431600">
        <ele>644.000000</ele>
        <time>2014-03-29T15:54:50Z</time>
      </trkpt>
      <trkpt lat="37.756372500" lon="-1.893454200">
        <ele>644.000000</ele>
        <time>2014-03-29T15:54:51Z</time>
      </trkpt>
      <trkpt lat="37.756287000" lon="-1.893473300">
        <ele>644.000000</ele>
        <time>2014-03-29T15:54:52Z</time>
      </trkpt>
      <trkpt lat="37.756202400" lon="-1.893489300">
        <ele>644.000000</ele>
        <time>2014-03-29T15:54:53Z</time>
      </trkpt>
      <trkpt lat="37.756117400" lon="-1.893507200">
        <ele>645.000000</ele>
        <time>2014-03-29T15:54:54Z</time>
      </trkpt>
      <trkpt lat="37.756034800" lon="-1.893522900">
        <ele>645.000000</ele>
        <time>2014-03-29T15:54:55Z</time>
      </trkpt>
      <trkpt lat="37.755955300" lon="-1.893537500">
        <ele>645.000000</ele>
        <time>2014-03-29T15:54:56Z</time>
      </trkpt>
      <trkpt lat="37.755876300" lon="-1.893556200">
        <ele>645.000000</ele>
        <time>2014-03-29T15:54:57Z</time>
      </trkpt>
      <trkpt lat="37.755799600" lon="-1.893575800">
        <ele>646.000000</ele>
        <time>2014-03-29T15:54:58Z</time>
      </trkpt>
      <trkpt lat="37.755724500" lon="-1.893593300">
        <ele>646.000000</ele>
        <time>2014-03-29T15:54:59Z</time>
      </trkpt>
      <trkpt lat="37.755650200" lon="-1.893611200">
        <ele>646.000000</ele>
        <time>2014-03-29T15:55:00Z</time>
      </trkpt>
      <trkpt lat="37.755580500" lon="-1.893629000">
        <ele>647.000000</ele>
        <time>2014-03-29T15:55:01Z</time>
      </trkpt>
      <trkpt lat="37.755506600" lon="-1.893648400">
        <ele>647.000000</ele>
        <time>2014-03-29T15:55:02Z</time>
      </trkpt>
      <trkpt lat="37.755433400" lon="-1.893666700">
        <ele>647.000000</ele>
        <time>2014-03-29T15:55:03Z</time>
      </trkpt>
      <trkpt lat="37.755361400" lon="-1.893686500">
        <ele>648.000000</ele>
        <time>2014-03-29T15:55:04Z</time>
      </trkpt>
      <trkpt lat="37.755288800" lon="-1.893703500">
        <ele>648.000000</ele>
        <time>2014-03-29T15:55:05Z</time>
      </trkpt>
      <trkpt lat="37.755219300" lon="-1.893718700">
        <ele>648.000000</ele>
        <time>2014-03-29T15:55:06Z</time>
      </trkpt>
      <trkpt lat="37.755151000" lon="-1.893735100">
        <ele>648.000000</ele>
        <time>2014-03-29T15:55:07Z</time>
      </trkpt>
      <trkpt lat="37.755083200" lon="-1.893751600">
        <ele>649.000000</ele>
        <time>2014-03-29T15:55:08Z</time>
      </trkpt>
      <trkpt lat="37.755019900" lon="-1.893764200">
        <ele>649.000000</ele>
        <time>2014-03-29T15:55:09Z</time>
      </trkpt>
      <trkpt lat="37.754956000" lon="-1.893777300">
        <ele>649.000000</ele>
        <time>2014-03-29T15:55:10Z</time>
      </trkpt>
      <trkpt lat="37.754892000" lon="-1.893794400">
        <ele>649.000000</ele>
        <time>2014-03-29T15:55:11Z</time>
      </trkpt>
      <trkpt lat="37.754825000" lon="-1.893818100">
        <ele>649.000000</ele>
        <time>2014-03-29T15:55:12Z</time>
      </trkpt>
      <trkpt lat="37.754761100" lon="-1.893846200">
        <ele>650.000000</ele>
        <time>2014-03-29T15:55:13Z</time>
      </trkpt>
      <trkpt lat="37.754697200" lon="-1.893876300">
        <ele>650.000000</ele>
        <time>2014-03-29T15:55:14Z</time>
      </trkpt>
      <trkpt lat="37.754630400" lon="-1.893905800">
        <ele>650.000000</ele>
        <time>2014-03-29T15:55:15Z</time>
      </trkpt>
      <trkpt lat="37.754562200" lon="-1.893938600">
        <ele>650.000000</ele>
        <time>2014-03-29T15:55:16Z</time>
      </trkpt>
      <trkpt lat="37.754491800" lon="-1.893973100">
        <ele>650.000000</ele>
        <time>2014-03-29T15:55:17Z</time>
      </trkpt>
      <trkpt lat="37.754418400" lon="-1.894010000">
        <ele>650.000000</ele>
        <time>2014-03-29T15:55:18Z</time>
      </trkpt>
      <trkpt lat="37.754349700" lon="-1.894049700">
        <ele>650.000000</ele>
        <time>2014-03-29T15:55:19Z</time>
      </trkpt>
      <trkpt lat="37.754286500" lon="-1.894092900">
        <ele>651.000000</ele>
        <time>2014-03-29T15:55:20Z</time>
      </trkpt>
      <trkpt lat="37.754220700" lon="-1.894142100">
        <ele>651.000000</ele>
        <time>2014-03-29T15:55:21Z</time>
      </trkpt>
      <trkpt lat="37.754157100" lon="-1.894195700">
        <ele>651.000000</ele>
        <time>2014-03-29T15:55:22Z</time>
      </trkpt>
      <trkpt lat="37.754097600" lon="-1.894249500">
        <ele>651.000000</ele>
        <time>2014-03-29T15:55:23Z</time>
      </trkpt>
      <trkpt lat="37.754041900" lon="-1.894300800">
        <ele>651.000000</ele>
        <time>2014-03-29T15:55:24Z</time>
      </trkpt>
      <trkpt lat="37.753988600" lon="-1.894354200">
        <ele>651.000000</ele>
        <time>2014-03-29T15:55:25Z</time>
      </trkpt>
      <trkpt lat="37.753935700" lon="-1.894410300">
        <ele>651.000000</ele>
        <time>2014-03-29T15:55:26Z</time>
      </trkpt>
      <trkpt lat="37.753882300" lon="-1.894468900">
        <ele>652.000000</ele>
        <time>2014-03-29T15:55:27Z</time>
      </trkpt>
      <trkpt lat="37.753830600" lon="-1.894525800">
        <ele>652.000000</ele>
        <time>2014-03-29T15:55:28Z</time>
      </trkpt>
      <trkpt lat="37.753773800" lon="-1.894584300">
        <ele>652.000000</ele>
        <time>2014-03-29T15:55:29Z</time>
      </trkpt>
      <trkpt lat="37.753716800" lon="-1.894641300">
        <ele>652.000000</ele>
        <time>2014-03-29T15:55:30Z</time>
      </trkpt>
      <trkpt lat="37.753659700" lon="-1.894699300">
        <ele>652.000000</ele>
        <time>2014-03-29T15:55:31Z</time>
      </trkpt>
      <trkpt lat="37.753602700" lon="-1.894756800">
        <ele>652.000000</ele>
        <time>2014-03-29T15:55:32Z</time>
      </trkpt>
      <trkpt lat="37.753545400" lon="-1.894815100">
        <ele>652.000000</ele>
        <time>2014-03-29T15:55:33Z</time>
      </trkpt>
      <trkpt lat="37.753485100" lon="-1.894873800">
        <ele>653.000000</ele>
        <time>2014-03-29T15:55:34Z</time>
      </trkpt>
      <trkpt lat="37.753426100" lon="-1.894935800">
        <ele>653.000000</ele>
        <time>2014-03-29T15:55:35Z</time>
      </trkpt>
      <trkpt lat="37.753368900" lon="-1.894996400">
        <ele>653.000000</ele>
        <time>2014-03-29T15:55:36Z</time>
      </trkpt>
      <trkpt lat="37.753313000" lon="-1.895058900">
        <ele>653.000000</ele>
        <time>2014-03-29T15:55:37Z</time>
      </trkpt>
      <trkpt lat="37.753259600" lon="-1.895124800">
        <ele>653.000000</ele>
        <time>2014-03-29T15:55:38Z</time>
      </trkpt>
      <trkpt lat="37.753204200" lon="-1.895193200">
        <ele>653.000000</ele>
        <time>2014-03-29T15:55:39Z</time>
      </trkpt>
      <trkpt lat="37.753150100" lon="-1.895258700">
        <ele>653.000000</ele>
        <time>2014-03-29T15:55:40Z</time>
      </trkpt>
      <trkpt lat="37.753097200" lon="-1.895323500">
        <ele>653.000000</ele>
        <time>2014-03-29T15:55:41Z</time>
      </trkpt>
      <trkpt lat="37.753040600" lon="-1.895390400">
        <ele>654.000000</ele>
        <time>2014-03-29T15:55:42Z</time>
      </trkpt>
      <trkpt lat="37.752988800" lon="-1.895455900">
        <ele>654.000000</ele>
        <time>2014-03-29T15:55:43Z</time>
      </trkpt>
      <trkpt lat="37.752936800" lon="-1.895521800">
        <ele>654.000000</ele>
        <time>2014-03-29T15:55:44Z</time>
      </trkpt>
      <trkpt lat="37.752885700" lon="-1.895589000">
        <ele>654.000000</ele>
        <time>2014-03-29T15:55:45Z</time>
      </trkpt>
      <trkpt lat="37.752837100" lon="-1.895656900">
        <ele>654.000000</ele>
        <time>2014-03-29T15:55:46Z</time>
      </trkpt>
      <trkpt lat="37.752787400" lon="-1.895735800">
        <ele>654.000000</ele>
        <time>2014-03-29T15:55:47Z</time>
      </trkpt>
      <trkpt lat="37.752741700" lon="-1.895807600">
        <ele>654.000000</ele>
        <time>2014-03-29T15:55:48Z</time>
      </trkpt>
      <trkpt lat="37.752697500" lon="-1.895880600">
        <ele>655.000000</ele>
        <time>2014-03-29T15:55:49Z</time>
      </trkpt>
      <trkpt lat="37.752655900" lon="-1.895956800">
        <ele>655.000000</ele>
        <time>2014-03-29T15:55:50Z</time>
      </trkpt>
      <trkpt lat="37.752614500" lon="-1.896030000">
        <ele>655.000000</ele>
        <time>2014-03-29T15:55:51Z</time>
      </trkpt>
      <trkpt lat="37.752574500" lon="-1.896105400">
        <ele>655.000000</ele>
        <time>2014-03-29T15:55:52Z</time>
      </trkpt>
      <trkpt lat="37.752536600" lon="-1.896186000">
        <ele>656.000000</ele>
        <time>2014-03-29T15:55:53Z</time>
      </trkpt>
      <trkpt lat="37.752499200" lon="-1.896264700">
        <ele>656.000000</ele>
        <time>2014-03-29T15:55:54Z</time>
      </trkpt>
      <trkpt lat="37.752465000" lon="-1.896346200">
        <ele>656.000000</ele>
        <time>2014-03-29T15:55:55Z</time>
      </trkpt>
      <trkpt lat="37.752433900" lon="-1.896429800">
        <ele>656.000000</ele>
        <time>2014-03-29T15:55:56Z</time>
      </trkpt>
      <trkpt lat="37.752404300" lon="-1.896512100">
        <ele>657.000000</ele>
        <time>2014-03-29T15:55:57Z</time>
      </trkpt>
      <trkpt lat="37.752377400" lon="-1.896595300">
        <ele>657.000000</ele>
        <time>2014-03-29T15:55:58Z</time>
      </trkpt>
      <trkpt lat="37.752351200" lon="-1.896682400">
        <ele>657.000000</ele>
        <time>2014-03-29T15:55:59Z</time>
      </trkpt>
      <trkpt lat="37.752327700" lon="-1.896767700">
        <ele>658.000000</ele>
        <time>2014-03-29T15:56:00Z</time>
      </trkpt>
      <trkpt lat="37.752305100" lon="-1.896852300">
        <ele>658.000000</ele>
        <time>2014-03-29T15:56:01Z</time>
      </trkpt>
      <trkpt lat="37.752284300" lon="-1.896936600">
        <ele>658.000000</ele>
        <time>2014-03-29T15:56:02Z</time>
      </trkpt>
      <trkpt lat="37.752262500" lon="-1.897018900">
        <ele>659.000000</ele>
        <time>2014-03-29T15:56:03Z</time>
      </trkpt>
      <trkpt lat="37.752242000" lon="-1.897104000">
        <ele>659.000000</ele>
        <time>2014-03-29T15:56:04Z</time>
      </trkpt>
      <trkpt lat="37.752219400" lon="-1.897190800">
        <ele>659.000000</ele>
        <time>2014-03-29T15:56:05Z</time>
      </trkpt>
      <trkpt lat="37.752194800" lon="-1.897274700">
        <ele>660.000000</ele>
        <time>2014-03-29T15:56:06Z</time>
      </trkpt>
      <trkpt lat="37.752172900" lon="-1.897361500">
        <ele>660.000000</ele>
        <time>2014-03-29T15:56:07Z</time>
      </trkpt>
      <trkpt lat="37.752149000" lon="-1.897447900">
        <ele>660.000000</ele>
        <time>2014-03-29T15:56:08Z</time>
      </trkpt>
      <trkpt lat="37.752123900" lon="-1.897531700">
        <ele>661.000000</ele>
        <time>2014-03-29T15:56:09Z</time>
      </trkpt>
      <trkpt lat="37.752097600" lon="-1.897617500">
        <ele>661.000000</ele>
        <time>2014-03-29T15:56:10Z</time>
      </trkpt>
      <trkpt lat="37.752071600" lon="-1.897702600">
        <ele>661.000000</ele>
        <time>2014-03-29T15:56:11Z</time>
      </trkpt>
      <trkpt lat="37.752044100" lon="-1.897790400">
        <ele>662.000000</ele>
        <time>2014-03-29T15:56:12Z</time>
      </trkpt>
      <trkpt lat="37.752017300" lon="-1.897877000">
        <ele>662.000000</ele>
        <time>2014-03-29T15:56:13Z</time>
      </trkpt>
      <trkpt lat="37.751990700" lon="-1.897965200">
        <ele>662.000000</ele>
        <time>2014-03-29T15:56:14Z</time>
      </trkpt>
      <trkpt lat="37.751963100" lon="-1.898050300">
        <ele>662.000000</ele>
        <time>2014-03-29T15:56:15Z</time>
      </trkpt>
      <trkpt lat="37.751937700" lon="-1.898131900">
        <ele>663.000000</ele>
        <time>2014-03-29T15:56:16Z</time>
      </trkpt>
      <trkpt lat="37.751913100" lon="-1.898211600">
        <ele>663.000000</ele>
        <time>2014-03-29T15:56:17Z</time>
      </trkpt>
      <trkpt lat="37.751888800" lon="-1.898292700">
        <ele>663.000000</ele>
        <time>2014-03-29T15:56:18Z</time>
      </trkpt>
      <trkpt lat="37.751860000" lon="-1.898377400">
        <ele>663.000000</ele>
        <time>2014-03-29T15:56:19Z</time>
      </trkpt>
      <trkpt lat="37.751826000" lon="-1.898462600">
        <ele>664.000000</ele>
        <time>2014-03-29T15:56:20Z</time>
      </trkpt>
      <trkpt lat="37.751788500" lon="-1.898546300">
        <ele>664.000000</ele>
        <time>2014-03-29T15:56:21Z</time>
      </trkpt>
      <trkpt lat="37.751748100" lon="-1.898628400">
        <ele>664.000000</ele>
        <time>2014-03-29T15:56:22Z</time>
      </trkpt>
      <trkpt lat="37.751704300" lon="-1.898709100">
        <ele>664.000000</ele>
        <time>2014-03-29T15:56:23Z</time>
      </trkpt>
      <trkpt lat="37.751657600" lon="-1.898789800">
        <ele>664.000000</ele>
        <time>2014-03-29T15:56:24Z</time>
      </trkpt>
      <trkpt lat="37.751606100" lon="-1.898872700">
        <ele>664.000000</ele>
        <time>2014-03-29T15:56:25Z</time>
      </trkpt>
      <trkpt lat="37.751553000" lon="-1.898953600">
        <ele>664.000000</ele>
        <time>2014-03-29T15:56:26Z</time>
      </trkpt>
      <trkpt lat="37.751499800" lon="-1.899033900">
        <ele>664.000000</ele>
        <time>2014-03-29T15:56:27Z</time>
      </trkpt>
      <trkpt lat="37.751446700" lon="-1.899118200">
        <ele>664.000000</ele>
        <time>2014-03-29T15:56:28Z</time>
      </trkpt>
      <trkpt lat="37.751392400" lon="-1.899204100">
        <ele>664.000000</ele>
        <time>2014-03-29T15:56:29Z</time>
      </trkpt>
      <trkpt lat="37.751336900" lon="-1.899289200">
        <ele>664.000000</ele>
        <time>2014-03-29T15:56:30Z</time>
      </trkpt>
      <trkpt lat="37.751284000" lon="-1.899371800">
        <ele>664.000000</ele>
        <time>2014-03-29T15:56:31Z</time>
      </trkpt>
      <trkpt lat="37.751228700" lon="-1.899453800">
        <ele>664.000000</ele>
        <time>2014-03-29T15:56:32Z</time>
      </trkpt>
      <trkpt lat="37.751171000" lon="-1.899537300">
        <ele>664.000000</ele>
        <time>2014-03-29T15:56:33Z</time>
      </trkpt>
      <trkpt lat="37.751111100" lon="-1.899623200">
        <ele>664.000000</ele>
        <time>2014-03-29T15:56:34Z</time>
      </trkpt>
      <trkpt lat="37.751050900" lon="-1.899710300">
        <ele>664.000000</ele>
        <time>2014-03-29T15:56:35Z</time>
      </trkpt>
      <trkpt lat="37.750990800" lon="-1.899797200">
        <ele>664.000000</ele>
        <time>2014-03-29T15:56:36Z</time>
      </trkpt>
      <trkpt lat="37.750928300" lon="-1.899880900">
        <ele>664.000000</ele>
        <time>2014-03-29T15:56:37Z</time>
      </trkpt>
      <trkpt lat="37.750865200" lon="-1.899970100">
        <ele>664.000000</ele>
        <time>2014-03-29T15:56:38Z</time>
      </trkpt>
      <trkpt lat="37.750805100" lon="-1.900063000">
        <ele>663.000000</ele>
        <time>2014-03-29T15:56:39Z</time>
      </trkpt>
      <trkpt lat="37.750742800" lon="-1.900158600">
        <ele>663.000000</ele>
        <time>2014-03-29T15:56:40Z</time>
      </trkpt>
      <trkpt lat="37.750683100" lon="-1.900256100">
        <ele>663.000000</ele>
        <time>2014-03-29T15:56:41Z</time>
      </trkpt>
      <trkpt lat="37.750632100" lon="-1.900357500">
        <ele>663.000000</ele>
        <time>2014-03-29T15:56:42Z</time>
      </trkpt>
      <trkpt lat="37.750592400" lon="-1.900465300">
        <ele>663.000000</ele>
        <time>2014-03-29T15:56:43Z</time>
      </trkpt>
      <trkpt lat="37.750560500" lon="-1.900577400">
        <ele>662.000000</ele>
        <time>2014-03-29T15:56:44Z</time>
      </trkpt>
      <trkpt lat="37.750526500" lon="-1.900694600">
        <ele>662.000000</ele>
        <time>2014-03-29T15:56:45Z</time>
      </trkpt>
      <trkpt lat="37.750494600" lon="-1.900809600">
        <ele>662.000000</ele>
        <time>2014-03-29T15:56:46Z</time>
      </trkpt>
      <trkpt lat="37.750464300" lon="-1.900920700">
        <ele>662.000000</ele>
        <time>2014-03-29T15:56:47Z</time>
      </trkpt>
      <trkpt lat="37.750437200" lon="-1.901028500">
        <ele>662.000000</ele>
        <time>2014-03-29T15:56:48Z</time>
      </trkpt>
      <trkpt lat="37.750410900" lon="-1.901134100">
        <ele>661.000000</ele>
        <time>2014-03-29T15:56:49Z</time>
      </trkpt>
      <trkpt lat="37.750386300" lon="-1.901237600">
        <ele>661.000000</ele>
        <time>2014-03-29T15:56:50Z</time>
      </trkpt>
      <trkpt lat="37.750362400" lon="-1.901339400">
        <ele>661.000000</ele>
        <time>2014-03-29T15:56:51Z</time>
      </trkpt>
      <trkpt lat="37.750341900" lon="-1.901438700">
        <ele>661.000000</ele>
        <time>2014-03-29T15:56:52Z</time>
      </trkpt>
      <trkpt lat="37.750321000" lon="-1.901537900">
        <ele>661.000000</ele>
        <time>2014-03-29T15:56:53Z</time>
      </trkpt>
      <trkpt lat="37.750300100" lon="-1.901636900">
        <ele>661.000000</ele>
        <time>2014-03-29T15:56:54Z</time>
      </trkpt>
      <trkpt lat="37.750283500" lon="-1.901730200">
        <ele>661.000000</ele>
        <time>2014-03-29T15:56:55Z</time>
      </trkpt>
      <trkpt lat="37.750265300" lon="-1.901820900">
        <ele>661.000000</ele>
        <time>2014-03-29T15:56:56Z</time>
      </trkpt>
      <trkpt lat="37.750243600" lon="-1.901915300">
        <ele>661.000000</ele>
        <time>2014-03-29T15:56:57Z</time>
      </trkpt>
      <trkpt lat="37.750218100" lon="-1.902009200">
        <ele>661.000000</ele>
        <time>2014-03-29T15:56:58Z</time>
      </trkpt>
      <trkpt lat="37.750195800" lon="-1.902099900">
        <ele>661.000000</ele>
        <time>2014-03-29T15:56:59Z</time>
      </trkpt>
      <trkpt lat="37.750171500" lon="-1.902191100">
        <ele>662.000000</ele>
        <time>2014-03-29T15:57:00Z</time>
      </trkpt>
      <trkpt lat="37.750150500" lon="-1.902279500">
        <ele>662.000000</ele>
        <time>2014-03-29T15:57:01Z</time>
      </trkpt>
      <trkpt lat="37.750130400" lon="-1.902367600">
        <ele>662.000000</ele>
        <time>2014-03-29T15:57:02Z</time>
      </trkpt>
      <trkpt lat="37.750105400" lon="-1.902458300">
        <ele>662.000000</ele>
        <time>2014-03-29T15:57:03Z</time>
      </trkpt>
      <trkpt lat="37.750080100" lon="-1.902550100">
        <ele>662.000000</ele>
        <time>2014-03-29T15:57:04Z</time>
      </trkpt>
      <trkpt lat="37.750054500" lon="-1.902642700">
        <ele>663.000000</ele>
        <time>2014-03-29T15:57:05Z</time>
      </trkpt>
      <trkpt lat="37.750029300" lon="-1.902735300">
        <ele>663.000000</ele>
        <time>2014-03-29T15:57:06Z</time>
      </trkpt>
      <trkpt lat="37.750004100" lon="-1.902825300">
        <ele>663.000000</ele>
        <time>2014-03-29T15:57:07Z</time>
      </trkpt>
      <trkpt lat="37.749976700" lon="-1.902917000">
        <ele>664.000000</ele>
        <time>2014-03-29T15:57:08Z</time>
      </trkpt>
      <trkpt lat="37.749949200" lon="-1.903008200">
        <ele>664.000000</ele>
        <time>2014-03-29T15:57:09Z</time>
      </trkpt>
      <trkpt lat="37.749924300" lon="-1.903100900">
        <ele>664.000000</ele>
        <time>2014-03-29T15:57:10Z</time>
      </trkpt>
      <trkpt lat="37.749897900" lon="-1.903195900">
        <ele>664.000000</ele>
        <time>2014-03-29T15:57:11Z</time>
      </trkpt>
      <trkpt lat="37.749874100" lon="-1.903291000">
        <ele>665.000000</ele>
        <time>2014-03-29T15:57:12Z</time>
      </trkpt>
      <trkpt lat="37.749851600" lon="-1.903384900">
        <ele>665.000000</ele>
        <time>2014-03-29T15:57:13Z</time>
      </trkpt>
      <trkpt lat="37.749835000" lon="-1.903478200">
        <ele>665.000000</ele>
        <time>2014-03-29T15:57:14Z</time>
      </trkpt>
      <trkpt lat="37.749818500" lon="-1.903571800">
        <ele>665.000000</ele>
        <time>2014-03-29T15:57:15Z</time>
      </trkpt>
      <trkpt lat="37.749804500" lon="-1.903667200">
        <ele>666.000000</ele>
        <time>2014-03-29T15:57:16Z</time>
      </trkpt>
      <trkpt lat="37.749792600" lon="-1.903759000">
        <ele>666.000000</ele>
        <time>2014-03-29T15:57:17Z</time>
      </trkpt>
      <trkpt lat="37.749781400" lon="-1.903851400">
        <ele>666.000000</ele>
        <time>2014-03-29T15:57:18Z</time>
      </trkpt>
      <trkpt lat="37.749768300" lon="-1.903943900">
        <ele>666.000000</ele>
        <time>2014-03-29T15:57:19Z</time>
      </trkpt>
      <trkpt lat="37.749751900" lon="-1.904037400">
        <ele>667.000000</ele>
        <time>2014-03-29T15:57:20Z</time>
      </trkpt>
      <trkpt lat="37.749733800" lon="-1.904134800">
        <ele>667.000000</ele>
        <time>2014-03-29T15:57:21Z</time>
      </trkpt>
      <trkpt lat="37.749718500" lon="-1.904230800">
        <ele>667.000000</ele>
        <time>2014-03-29T15:57:22Z</time>
      </trkpt>
      <trkpt lat="37.749700600" lon="-1.904326900">
        <ele>667.000000</ele>
        <time>2014-03-29T15:57:23Z</time>
      </trkpt>
      <trkpt lat="37.749688200" lon="-1.904421100">
        <ele>667.000000</ele>
        <time>2014-03-29T15:57:24Z</time>
      </trkpt>
      <trkpt lat="37.749679100" lon="-1.904515500">
        <ele>667.000000</ele>
        <time>2014-03-29T15:57:25Z</time>
      </trkpt>
      <trkpt lat="37.749670500" lon="-1.904605900">
        <ele>667.000000</ele>
        <time>2014-03-29T15:57:26Z</time>
      </trkpt>
      <trkpt lat="37.749661600" lon="-1.904698200">
        <ele>668.000000</ele>
        <time>2014-03-29T15:57:27Z</time>
      </trkpt>
      <trkpt lat="37.749648600" lon="-1.904794100">
        <ele>668.000000</ele>
        <time>2014-03-29T15:57:28Z</time>
      </trkpt>
      <trkpt lat="37.749631800" lon="-1.904889300">
        <ele>668.000000</ele>
        <time>2014-03-29T15:57:29Z</time>
      </trkpt>
      <trkpt lat="37.749611400" lon="-1.904982900">
        <ele>668.000000</ele>
        <time>2014-03-29T15:57:30Z</time>
      </trkpt>
      <trkpt lat="37.749590900" lon="-1.905076300">
        <ele>668.000000</ele>
        <time>2014-03-29T15:57:31Z</time>
      </trkpt>
      <trkpt lat="37.749572300" lon="-1.905166500">
        <ele>668.000000</ele>
        <time>2014-03-29T15:57:32Z</time>
      </trkpt>
      <trkpt lat="37.749558300" lon="-1.905258500">
        <ele>668.000000</ele>
        <time>2014-03-29T15:57:33Z</time>
      </trkpt>
      <trkpt lat="37.749542100" lon="-1.905350200">
        <ele>668.000000</ele>
        <time>2014-03-29T15:57:34Z</time>
      </trkpt>
      <trkpt lat="37.749521700" lon="-1.905441900">
        <ele>669.000000</ele>
        <time>2014-03-29T15:57:35Z</time>
      </trkpt>
      <trkpt lat="37.749499000" lon="-1.905529700">
        <ele>669.000000</ele>
        <time>2014-03-29T15:57:36Z</time>
      </trkpt>
      <trkpt lat="37.749473100" lon="-1.905619700">
        <ele>669.000000</ele>
        <time>2014-03-29T15:57:37Z</time>
      </trkpt>
      <trkpt lat="37.749448700" lon="-1.905710800">
        <ele>669.000000</ele>
        <time>2014-03-29T15:57:38Z</time>
      </trkpt>
      <trkpt lat="37.749416000" lon="-1.905802000">
        <ele>669.000000</ele>
        <time>2014-03-29T15:57:39Z</time>
      </trkpt>
      <trkpt lat="37.749383900" lon="-1.905895500">
        <ele>670.000000</ele>
        <time>2014-03-29T15:57:40Z</time>
      </trkpt>
      <trkpt lat="37.749351800" lon="-1.905987900">
        <ele>670.000000</ele>
        <time>2014-03-29T15:57:41Z</time>
      </trkpt>
      <trkpt lat="37.749317800" lon="-1.906083100">
        <ele>670.000000</ele>
        <time>2014-03-29T15:57:42Z</time>
      </trkpt>
      <trkpt lat="37.749283900" lon="-1.906175300">
        <ele>670.000000</ele>
        <time>2014-03-29T15:57:43Z</time>
      </trkpt>
      <trkpt lat="37.749249500" lon="-1.906264300">
        <ele>671.000000</ele>
        <time>2014-03-29T15:57:44Z</time>
      </trkpt>
      <trkpt lat="37.749220900" lon="-1.906350600">
        <ele>671.000000</ele>
        <time>2014-03-29T15:57:45Z</time>
      </trkpt>
      <trkpt lat="37.749190400" lon="-1.906434100">
        <ele>671.000000</ele>
        <time>2014-03-29T15:57:46Z</time>
      </trkpt>
      <trkpt lat="37.749157300" lon="-1.906516200">
        <ele>671.000000</ele>
        <time>2014-03-29T15:57:47Z</time>
      </trkpt>
      <trkpt lat="37.749125400" lon="-1.906597900">
        <ele>671.000000</ele>
        <time>2014-03-29T15:57:48Z</time>
      </trkpt>
      <trkpt lat="37.749094800" lon="-1.906677200">
        <ele>672.000000</ele>
        <time>2014-03-29T15:57:49Z</time>
      </trkpt>
      <trkpt lat="37.749063700" lon="-1.906756700">
        <ele>672.000000</ele>
        <time>2014-03-29T15:57:50Z</time>
      </trkpt>
      <trkpt lat="37.749027200" lon="-1.906835800">
        <ele>672.000000</ele>
        <time>2014-03-29T15:57:51Z</time>
      </trkpt>
      <trkpt lat="37.748987600" lon="-1.906909100">
        <ele>672.000000</ele>
        <time>2014-03-29T15:57:52Z</time>
      </trkpt>
      <trkpt lat="37.748944500" lon="-1.906981300">
        <ele>672.000000</ele>
        <time>2014-03-29T15:57:53Z</time>
      </trkpt>
      <trkpt lat="37.748897300" lon="-1.907049600">
        <ele>673.000000</ele>
        <time>2014-03-29T15:57:54Z</time>
      </trkpt>
      <trkpt lat="37.748848000" lon="-1.907115800">
        <ele>673.000000</ele>
        <time>2014-03-29T15:57:55Z</time>
      </trkpt>
      <trkpt lat="37.748798400" lon="-1.907176800">
        <ele>673.000000</ele>
        <time>2014-03-29T15:57:56Z</time>
      </trkpt>
      <trkpt lat="37.748745900" lon="-1.907233400">
        <ele>673.000000</ele>
        <time>2014-03-29T15:57:57Z</time>
      </trkpt>
      <trkpt lat="37.748691900" lon="-1.907291700">
        <ele>673.000000</ele>
        <time>2014-03-29T15:57:58Z</time>
      </trkpt>
      <trkpt lat="37.748640200" lon="-1.907354800">
        <ele>674.000000</ele>
        <time>2014-03-29T15:57:59Z</time>
      </trkpt>
      <trkpt lat="37.748584500" lon="-1.907417600">
        <ele>674.000000</ele>
        <time>2014-03-29T15:58:00Z</time>
      </trkpt>
      <trkpt lat="37.748528500" lon="-1.907474300">
        <ele>674.000000</ele>
        <time>2014-03-29T15:58:01Z</time>
      </trkpt>
      <trkpt lat="37.748474700" lon="-1.907534000">
        <ele>674.000000</ele>
        <time>2014-03-29T15:58:02Z</time>
      </trkpt>
      <trkpt lat="37.748418000" lon="-1.907596500">
        <ele>675.000000</ele>
        <time>2014-03-29T15:58:03Z</time>
      </trkpt>
      <trkpt lat="37.748364700" lon="-1.907655600">
        <ele>675.000000</ele>
        <time>2014-03-29T15:58:04Z</time>
      </trkpt>
      <trkpt lat="37.748311300" lon="-1.907708800">
        <ele>675.000000</ele>
        <time>2014-03-29T15:58:05Z</time>
      </trkpt>
      <trkpt lat="37.748257100" lon="-1.907764600">
        <ele>675.000000</ele>
        <time>2014-03-29T15:58:06Z</time>
      </trkpt>
      <trkpt lat="37.748202500" lon="-1.907824400">
        <ele>675.000000</ele>
        <time>2014-03-29T15:58:07Z</time>
      </trkpt>
      <trkpt lat="37.748144500" lon="-1.907886700">
        <ele>675.000000</ele>
        <time>2014-03-29T15:58:08Z</time>
      </trkpt>
      <trkpt lat="37.748085700" lon="-1.907948200">
        <ele>675.000000</ele>
        <time>2014-03-29T15:58:09Z</time>
      </trkpt>
      <trkpt lat="37.748028600" lon="-1.908006800">
        <ele>675.000000</ele>
        <time>2014-03-29T15:58:10Z</time>
      </trkpt>
      <trkpt lat="37.747970900" lon="-1.908061400">
        <ele>676.000000</ele>
        <time>2014-03-29T15:58:11Z</time>
      </trkpt>
      <trkpt lat="37.747911700" lon="-1.908109700">
        <ele>676.000000</ele>
        <time>2014-03-29T15:58:12Z</time>
      </trkpt>
      <trkpt lat="37.747851700" lon="-1.908155400">
        <ele>676.000000</ele>
        <time>2014-03-29T15:58:13Z</time>
      </trkpt>
      <trkpt lat="37.747790500" lon="-1.908199200">
        <ele>676.000000</ele>
        <time>2014-03-29T15:58:14Z</time>
      </trkpt>
      <trkpt lat="37.747729400" lon="-1.908237700">
        <ele>676.000000</ele>
        <time>2014-03-29T15:58:15Z</time>
      </trkpt>
      <trkpt lat="37.747666700" lon="-1.908267500">
        <ele>676.000000</ele>
        <time>2014-03-29T15:58:16Z</time>
      </trkpt>
      <trkpt lat="37.747600400" lon="-1.908295700">
        <ele>676.000000</ele>
        <time>2014-03-29T15:58:17Z</time>
      </trkpt>
      <trkpt lat="37.747531800" lon="-1.908322800">
        <ele>676.000000</ele>
        <time>2014-03-29T15:58:18Z</time>
      </trkpt>
      <trkpt lat="37.747461600" lon="-1.908350100">
        <ele>676.000000</ele>
        <time>2014-03-29T15:58:19Z</time>
      </trkpt>
      <trkpt lat="37.747394200" lon="-1.908379600">
        <ele>676.000000</ele>
        <time>2014-03-29T15:58:20Z</time>
      </trkpt>
      <trkpt lat="37.747326300" lon="-1.908407300">
        <ele>677.000000</ele>
        <time>2014-03-29T15:58:21Z</time>
      </trkpt>
      <trkpt lat="37.747257700" lon="-1.908434700">
        <ele>677.000000</ele>
        <time>2014-03-29T15:58:22Z</time>
      </trkpt>
      <trkpt lat="37.747189700" lon="-1.908466000">
        <ele>677.000000</ele>
        <time>2014-03-29T15:58:23Z</time>
      </trkpt>
      <trkpt lat="37.747124400" lon="-1.908494800">
        <ele>677.000000</ele>
        <time>2014-03-29T15:58:24Z</time>
      </trkpt>
      <trkpt lat="37.747058600" lon="-1.908524900">
        <ele>677.000000</ele>
        <time>2014-03-29T15:58:25Z</time>
      </trkpt>
      <trkpt lat="37.746990900" lon="-1.908553200">
        <ele>677.000000</ele>
        <time>2014-03-29T15:58:26Z</time>
      </trkpt>
      <trkpt lat="37.746923300" lon="-1.908583000">
        <ele>677.000000</ele>
        <time>2014-03-29T15:58:27Z</time>
      </trkpt>
      <trkpt lat="37.746855200" lon="-1.908614200">
        <ele>678.000000</ele>
        <time>2014-03-29T15:58:28Z</time>
      </trkpt>
      <trkpt lat="37.746788300" lon="-1.908645200">
        <ele>678.000000</ele>
        <time>2014-03-29T15:58:29Z</time>
      </trkpt>
      <trkpt lat="37.746721500" lon="-1.908676900">
        <ele>678.000000</ele>
        <time>2014-03-29T15:58:30Z</time>
      </trkpt>
      <trkpt lat="37.746655600" lon="-1.908708200">
        <ele>678.000000</ele>
        <time>2014-03-29T15:58:31Z</time>
      </trkpt>
      <trkpt lat="37.746590100" lon="-1.908739300">
        <ele>678.000000</ele>
        <time>2014-03-29T15:58:32Z</time>
      </trkpt>
      <trkpt lat="37.746524700" lon="-1.908773100">
        <ele>679.000000</ele>
        <time>2014-03-29T15:58:33Z</time>
      </trkpt>
      <trkpt lat="37.746461200" lon="-1.908806300">
        <ele>679.000000</ele>
        <time>2014-03-29T15:58:34Z</time>
      </trkpt>
      <trkpt lat="37.746398800" lon="-1.908838000">
        <ele>679.000000</ele>
        <time>2014-03-29T15:58:35Z</time>
      </trkpt>
      <trkpt lat="37.746337700" lon="-1.908869300">
        <ele>679.000000</ele>
        <time>2014-03-29T15:58:36Z</time>
      </trkpt>
      <trkpt lat="37.746275300" lon="-1.908899400">
        <ele>680.000000</ele>
        <time>2014-03-29T15:58:37Z</time>
      </trkpt>
      <trkpt lat="37.746214700" lon="-1.908927400">
        <ele>680.000000</ele>
        <time>2014-03-29T15:58:38Z</time>
      </trkpt>
      <trkpt lat="37.746156600" lon="-1.908953600">
        <ele>680.000000</ele>
        <time>2014-03-29T15:58:39Z</time>
      </trkpt>
      <trkpt lat="37.746094000" lon="-1.908980100">
        <ele>681.000000</ele>
        <time>2014-03-29T15:58:40Z</time>
      </trkpt>
      <trkpt lat="37.746031100" lon="-1.909010000">
        <ele>681.000000</ele>
        <time>2014-03-29T15:58:41Z</time>
      </trkpt>
      <trkpt lat="37.745965900" lon="-1.909043200">
        <ele>681.000000</ele>
        <time>2014-03-29T15:58:42Z</time>
      </trkpt>
      <trkpt lat="37.745900800" lon="-1.909076000">
        <ele>681.000000</ele>
        <time>2014-03-29T15:58:43Z</time>
      </trkpt>
      <trkpt lat="37.745837700" lon="-1.909109000">
        <ele>682.000000</ele>
        <time>2014-03-29T15:58:44Z</time>
      </trkpt>
      <trkpt lat="37.745778300" lon="-1.909140200">
        <ele>682.000000</ele>
        <time>2014-03-29T15:58:45Z</time>
      </trkpt>
      <trkpt lat="37.745717500" lon="-1.909174600">
        <ele>682.000000</ele>
        <time>2014-03-29T15:58:46Z</time>
      </trkpt>
      <trkpt lat="37.745657000" lon="-1.909214300">
        <ele>682.000000</ele>
        <time>2014-03-29T15:58:47Z</time>
      </trkpt>
      <trkpt lat="37.745597400" lon="-1.909255900">
        <ele>682.000000</ele>
        <time>2014-03-29T15:58:48Z</time>
      </trkpt>
      <trkpt lat="37.745537700" lon="-1.909301600">
        <ele>682.000000</ele>
        <time>2014-03-29T15:58:49Z</time>
      </trkpt>
      <trkpt lat="37.745477600" lon="-1.909349000">
        <ele>683.000000</ele>
        <time>2014-03-29T15:58:50Z</time>
      </trkpt>
      <trkpt lat="37.745418900" lon="-1.909394100">
        <ele>683.000000</ele>
        <time>2014-03-29T15:58:51Z</time>
      </trkpt>
      <trkpt lat="37.745360800" lon="-1.909439700">
        <ele>683.000000</ele>
        <time>2014-03-29T15:58:52Z</time>
      </trkpt>
      <trkpt lat="37.745304900" lon="-1.909484700">
        <ele>683.000000</ele>
        <time>2014-03-29T15:58:53Z</time>
      </trkpt>
      <trkpt lat="37.745250400" lon="-1.909531800">
        <ele>683.000000</ele>
        <time>2014-03-29T15:58:54Z</time>
      </trkpt>
      <trkpt lat="37.745196500" lon="-1.909578500">
        <ele>683.000000</ele>
        <time>2014-03-29T15:58:55Z</time>
      </trkpt>
      <trkpt lat="37.745140700" lon="-1.909627400">
        <ele>683.000000</ele>
        <time>2014-03-29T15:58:56Z</time>
      </trkpt>
      <trkpt lat="37.745085000" lon="-1.909676700">
        <ele>683.000000</ele>
        <time>2014-03-29T15:58:57Z</time>
      </trkpt>
      <trkpt lat="37.745028400" lon="-1.909726200">
        <ele>683.000000</ele>
        <time>2014-03-29T15:58:58Z</time>
      </trkpt>
      <trkpt lat="37.744970400" lon="-1.909777700">
        <ele>683.000000</ele>
        <time>2014-03-29T15:58:59Z</time>
      </trkpt>
      <trkpt lat="37.744912100" lon="-1.909826700">
        <ele>683.000000</ele>
        <time>2014-03-29T15:59:00Z</time>
      </trkpt>
      <trkpt lat="37.744855900" lon="-1.909874300">
        <ele>683.000000</ele>
        <time>2014-03-29T15:59:01Z</time>
      </trkpt>
      <trkpt lat="37.744799000" lon="-1.909924600">
        <ele>683.000000</ele>
        <time>2014-03-29T15:59:02Z</time>
      </trkpt>
      <trkpt lat="37.744742300" lon="-1.909974700">
        <ele>683.000000</ele>
        <time>2014-03-29T15:59:03Z</time>
      </trkpt>
      <trkpt lat="37.744684100" lon="-1.910025600">
        <ele>683.000000</ele>
        <time>2014-03-29T15:59:04Z</time>
      </trkpt>
      <trkpt lat="37.744627200" lon="-1.910078200">
        <ele>683.000000</ele>
        <time>2014-03-29T15:59:05Z</time>
      </trkpt>
      <trkpt lat="37.744568900" lon="-1.910128000">
        <ele>684.000000</ele>
        <time>2014-03-29T15:59:06Z</time>
      </trkpt>
      <trkpt lat="37.744509300" lon="-1.910176700">
        <ele>684.000000</ele>
        <time>2014-03-29T15:59:07Z</time>
      </trkpt>
      <trkpt lat="37.744451600" lon="-1.910222200">
        <ele>684.000000</ele>
        <time>2014-03-29T15:59:08Z</time>
      </trkpt>
      <trkpt lat="37.744394900" lon="-1.910269300">
        <ele>684.000000</ele>
        <time>2014-03-29T15:59:09Z</time>
      </trkpt>
      <trkpt lat="37.744339800" lon="-1.910316300">
        <ele>684.000000</ele>
        <time>2014-03-29T15:59:10Z</time>
      </trkpt>
      <trkpt lat="37.744283200" lon="-1.910364300">
        <ele>684.000000</ele>
        <time>2014-03-29T15:59:11Z</time>
      </trkpt>
      <trkpt lat="37.744225700" lon="-1.910411600">
        <ele>684.000000</ele>
        <time>2014-03-29T15:59:12Z</time>
      </trkpt>
      <trkpt lat="37.744168800" lon="-1.910460400">
        <ele>684.000000</ele>
        <time>2014-03-29T15:59:13Z</time>
      </trkpt>
      <trkpt lat="37.744109600" lon="-1.910510200">
        <ele>684.000000</ele>
        <time>2014-03-29T15:59:14Z</time>
      </trkpt>
      <trkpt lat="37.744050600" lon="-1.910555300">
        <ele>684.000000</ele>
        <time>2014-03-29T15:59:15Z</time>
      </trkpt>
      <trkpt lat="37.743991400" lon="-1.910600400">
        <ele>684.000000</ele>
        <time>2014-03-29T15:59:16Z</time>
      </trkpt>
      <trkpt lat="37.743933400" lon="-1.910648400">
        <ele>685.000000</ele>
        <time>2014-03-29T15:59:17Z</time>
      </trkpt>
      <trkpt lat="37.743874900" lon="-1.910698000">
        <ele>685.000000</ele>
        <time>2014-03-29T15:59:18Z</time>
      </trkpt>
      <trkpt lat="37.743816200" lon="-1.910748200">
        <ele>685.000000</ele>
        <time>2014-03-29T15:59:19Z</time>
      </trkpt>
      <trkpt lat="37.743757200" lon="-1.910799800">
        <ele>685.000000</ele>
        <time>2014-03-29T15:59:20Z</time>
      </trkpt>
      <trkpt lat="37.743697500" lon="-1.910849800">
        <ele>685.000000</ele>
        <time>2014-03-29T15:59:21Z</time>
      </trkpt>
      <trkpt lat="37.743637300" lon="-1.910898800">
        <ele>685.000000</ele>
        <time>2014-03-29T15:59:22Z</time>
      </trkpt>
      <trkpt lat="37.743577800" lon="-1.910950000">
        <ele>686.000000</ele>
        <time>2014-03-29T15:59:23Z</time>
      </trkpt>
      <trkpt lat="37.743521600" lon="-1.911000900">
        <ele>686.000000</ele>
        <time>2014-03-29T15:59:24Z</time>
      </trkpt>
      <trkpt lat="37.743466900" lon="-1.911049600">
        <ele>686.000000</ele>
        <time>2014-03-29T15:59:25Z</time>
      </trkpt>
      <trkpt lat="37.743411000" lon="-1.911097800">
        <ele>686.000000</ele>
        <time>2014-03-29T15:59:26Z</time>
      </trkpt>
      <trkpt lat="37.743353600" lon="-1.911147900">
        <ele>686.000000</ele>
        <time>2014-03-29T15:59:27Z</time>
      </trkpt>
      <trkpt lat="37.743297100" lon="-1.911204600">
        <ele>686.000000</ele>
        <time>2014-03-29T15:59:28Z</time>
      </trkpt>
      <trkpt lat="37.743238300" lon="-1.911263600">
        <ele>686.000000</ele>
        <time>2014-03-29T15:59:29Z</time>
      </trkpt>
      <trkpt lat="37.743177100" lon="-1.911319300">
        <ele>687.000000</ele>
        <time>2014-03-29T15:59:30Z</time>
      </trkpt>
      <trkpt lat="37.743116600" lon="-1.911373200">
        <ele>687.000000</ele>
        <time>2014-03-29T15:59:31Z</time>
      </trkpt>
      <trkpt lat="37.743056300" lon="-1.911428100">
        <ele>687.000000</ele>
        <time>2014-03-29T15:59:32Z</time>
      </trkpt>
      <trkpt lat="37.742997500" lon="-1.911480800">
        <ele>687.000000</ele>
        <time>2014-03-29T15:59:33Z</time>
      </trkpt>
      <trkpt lat="37.742936700" lon="-1.911534400">
        <ele>687.000000</ele>
        <time>2014-03-29T15:59:34Z</time>
      </trkpt>
      <trkpt lat="37.742876600" lon="-1.911589000">
        <ele>687.000000</ele>
        <time>2014-03-29T15:59:35Z</time>
      </trkpt>
      <trkpt lat="37.742814600" lon="-1.911639900">
        <ele>687.000000</ele>
        <time>2014-03-29T15:59:36Z</time>
      </trkpt>
      <trkpt lat="37.742753700" lon="-1.911689400">
        <ele>687.000000</ele>
        <time>2014-03-29T15:59:37Z</time>
      </trkpt>
      <trkpt lat="37.742694600" lon="-1.911738100">
        <ele>688.000000</ele>
        <time>2014-03-29T15:59:38Z</time>
      </trkpt>
      <trkpt lat="37.742636200" lon="-1.911785700">
        <ele>688.000000</ele>
        <time>2014-03-29T15:59:39Z</time>
      </trkpt>
      <trkpt lat="37.742577100" lon="-1.911833400">
        <ele>688.000000</ele>
        <time>2014-03-29T15:59:40Z</time>
      </trkpt>
      <trkpt lat="37.742517600" lon="-1.911885400">
        <ele>688.000000</ele>
        <time>2014-03-29T15:59:41Z</time>
      </trkpt>
      <trkpt lat="37.742459700" lon="-1.911938100">
        <ele>688.000000</ele>
        <time>2014-03-29T15:59:42Z</time>
      </trkpt>
      <trkpt lat="37.742400100" lon="-1.911990300">
        <ele>688.000000</ele>
        <time>2014-03-29T15:59:43Z</time>
      </trkpt>
      <trkpt lat="37.742339900" lon="-1.912042700">
        <ele>688.000000</ele>
        <time>2014-03-29T15:59:44Z</time>
      </trkpt>
      <trkpt lat="37.742279500" lon="-1.912094200">
        <ele>689.000000</ele>
        <time>2014-03-29T15:59:45Z</time>
      </trkpt>
      <trkpt lat="37.742219900" lon="-1.912146600">
        <ele>689.000000</ele>
        <time>2014-03-29T15:59:46Z</time>
      </trkpt>
      <trkpt lat="37.742160800" lon="-1.912196900">
        <ele>689.000000</ele>
        <time>2014-03-29T15:59:47Z</time>
      </trkpt>
      <trkpt lat="37.742099500" lon="-1.912243100">
        <ele>689.000000</ele>
        <time>2014-03-29T15:59:48Z</time>
      </trkpt>
      <trkpt lat="37.742034600" lon="-1.912287900">
        <ele>689.000000</ele>
        <time>2014-03-29T15:59:49Z</time>
      </trkpt>
      <trkpt lat="37.741967200" lon="-1.912333200">
        <ele>689.000000</ele>
        <time>2014-03-29T15:59:50Z</time>
      </trkpt>
      <trkpt lat="37.741899000" lon="-1.912376200">
        <ele>689.000000</ele>
        <time>2014-03-29T15:59:51Z</time>
      </trkpt>
      <trkpt lat="37.741830800" lon="-1.912414900">
        <ele>689.000000</ele>
        <time>2014-03-29T15:59:52Z</time>
      </trkpt>
      <trkpt lat="37.741759700" lon="-1.912452700">
        <ele>689.000000</ele>
        <time>2014-03-29T15:59:53Z</time>
      </trkpt>
      <trkpt lat="37.741687900" lon="-1.912487800">
        <ele>689.000000</ele>
        <time>2014-03-29T15:59:54Z</time>
      </trkpt>
      <trkpt lat="37.741619400" lon="-1.912526100">
        <ele>689.000000</ele>
        <time>2014-03-29T15:59:55Z</time>
      </trkpt>
      <trkpt lat="37.741552900" lon="-1.912569200">
        <ele>689.000000</ele>
        <time>2014-03-29T15:59:56Z</time>
      </trkpt>
      <trkpt lat="37.741488800" lon="-1.912615500">
        <ele>689.000000</ele>
        <time>2014-03-29T15:59:57Z</time>
      </trkpt>
      <trkpt lat="37.741423400" lon="-1.912661200">
        <ele>689.000000</ele>
        <time>2014-03-29T15:59:58Z</time>
      </trkpt>
      <trkpt lat="37.741359000" lon="-1.912703400">
        <ele>690.000000</ele>
        <time>2014-03-29T15:59:59Z</time>
      </trkpt>
      <trkpt lat="37.741298600" lon="-1.912746300">
        <ele>690.000000</ele>
        <time>2014-03-29T16:00:00Z</time>
      </trkpt>
      <trkpt lat="37.741241000" lon="-1.912788900">
        <ele>690.000000</ele>
        <time>2014-03-29T16:00:01Z</time>
      </trkpt>
      <trkpt lat="37.741183600" lon="-1.912835000">
        <ele>690.000000</ele>
        <time>2014-03-29T16:00:02Z</time>
      </trkpt>
      <trkpt lat="37.741127100" lon="-1.912883200">
        <ele>690.000000</ele>
        <time>2014-03-29T16:00:03Z</time>
      </trkpt>
      <trkpt lat="37.741069600" lon="-1.912932600">
        <ele>690.000000</ele>
        <time>2014-03-29T16:00:04Z</time>
      </trkpt>
      <trkpt lat="37.741008400" lon="-1.912982400">
        <ele>690.000000</ele>
        <time>2014-03-29T16:00:05Z</time>
      </trkpt>
      <trkpt lat="37.740948100" lon="-1.913032500">
        <ele>690.000000</ele>
        <time>2014-03-29T16:00:06Z</time>
      </trkpt>
      <trkpt lat="37.740885400" lon="-1.913080800">
        <ele>690.000000</ele>
        <time>2014-03-29T16:00:07Z</time>
      </trkpt>
      <trkpt lat="37.740822400" lon="-1.913130400">
        <ele>691.000000</ele>
        <time>2014-03-29T16:00:08Z</time>
      </trkpt>
      <trkpt lat="37.740758500" lon="-1.913180300">
        <ele>691.000000</ele>
        <time>2014-03-29T16:00:09Z</time>
      </trkpt>
      <trkpt lat="37.740693000" lon="-1.913229900">
        <ele>691.000000</ele>
        <time>2014-03-29T16:00:10Z</time>
      </trkpt>
      <trkpt lat="37.740625800" lon="-1.913277100">
        <ele>691.000000</ele>
        <time>2014-03-29T16:00:11Z</time>
      </trkpt>
      <trkpt lat="37.740560100" lon="-1.913326300">
        <ele>691.000000</ele>
        <time>2014-03-29T16:00:12Z</time>
      </trkpt>
      <trkpt lat="37.740492000" lon="-1.913376500">
        <ele>691.000000</ele>
        <time>2014-03-29T16:00:13Z</time>
      </trkpt>
      <trkpt lat="37.740420600" lon="-1.913423900">
        <ele>691.000000</ele>
        <time>2014-03-29T16:00:14Z</time>
      </trkpt>
      <trkpt lat="37.740347600" lon="-1.913464500">
        <ele>691.000000</ele>
        <time>2014-03-29T16:00:15Z</time>
      </trkpt>
      <trkpt lat="37.740271900" lon="-1.913501100">
        <ele>691.000000</ele>
        <time>2014-03-29T16:00:16Z</time>
      </trkpt>
      <trkpt lat="37.740195100" lon="-1.913534900">
        <ele>691.000000</ele>
        <time>2014-03-29T16:00:17Z</time>
      </trkpt>
      <trkpt lat="37.740120700" lon="-1.913564100">
        <ele>691.000000</ele>
        <time>2014-03-29T16:00:18Z</time>
      </trkpt>
      <trkpt lat="37.740046700" lon="-1.913587300">
        <ele>692.000000</ele>
        <time>2014-03-29T16:00:19Z</time>
      </trkpt>
      <trkpt lat="37.739972900" lon="-1.913608100">
        <ele>692.000000</ele>
        <time>2014-03-29T16:00:20Z</time>
      </trkpt>
      <trkpt lat="37.739900700" lon="-1.913626800">
        <ele>692.000000</ele>
        <time>2014-03-29T16:00:21Z</time>
      </trkpt>
      <trkpt lat="37.739827600" lon="-1.913647500">
        <ele>692.000000</ele>
        <time>2014-03-29T16:00:22Z</time>
      </trkpt>
      <trkpt lat="37.739754100" lon="-1.913671900">
        <ele>691.000000</ele>
        <time>2014-03-29T16:00:23Z</time>
      </trkpt>
      <trkpt lat="37.739681700" lon="-1.913702600">
        <ele>691.000000</ele>
        <time>2014-03-29T16:00:24Z</time>
      </trkpt>
      <trkpt lat="37.739612400" lon="-1.913739100">
        <ele>691.000000</ele>
        <time>2014-03-29T16:00:25Z</time>
      </trkpt>
      <trkpt lat="37.739541800" lon="-1.913778300">
        <ele>691.000000</ele>
        <time>2014-03-29T16:00:26Z</time>
      </trkpt>
      <trkpt lat="37.739470900" lon="-1.913824100">
        <ele>691.000000</ele>
        <time>2014-03-29T16:00:27Z</time>
      </trkpt>
      <trkpt lat="37.739402300" lon="-1.913876200">
        <ele>691.000000</ele>
        <time>2014-03-29T16:00:28Z</time>
      </trkpt>
      <trkpt lat="37.739336100" lon="-1.913931600">
        <ele>692.000000</ele>
        <time>2014-03-29T16:00:29Z</time>
      </trkpt>
      <trkpt lat="37.739273100" lon="-1.913989800">
        <ele>692.000000</ele>
        <time>2014-03-29T16:00:30Z</time>
      </trkpt>
      <trkpt lat="37.739210300" lon="-1.914050300">
        <ele>692.000000</ele>
        <time>2014-03-29T16:00:31Z</time>
      </trkpt>
      <trkpt lat="37.739146600" lon="-1.914111500">
        <ele>692.000000</ele>
        <time>2014-03-29T16:00:32Z</time>
      </trkpt>
      <trkpt lat="37.739083700" lon="-1.914171800">
        <ele>692.000000</ele>
        <time>2014-03-29T16:00:33Z</time>
      </trkpt>
      <trkpt lat="37.739018900" lon="-1.914234600">
        <ele>692.000000</ele>
        <time>2014-03-29T16:00:34Z</time>
      </trkpt>
      <trkpt lat="37.738957700" lon="-1.914296400">
        <ele>692.000000</ele>
        <time>2014-03-29T16:00:35Z</time>
      </trkpt>
      <trkpt lat="37.738898900" lon="-1.914360600">
        <ele>692.000000</ele>
        <time>2014-03-29T16:00:36Z</time>
      </trkpt>
      <trkpt lat="37.738838200" lon="-1.914424000">
        <ele>692.000000</ele>
        <time>2014-03-29T16:00:37Z</time>
      </trkpt>
      <trkpt lat="37.738776500" lon="-1.914486700">
        <ele>692.000000</ele>
        <time>2014-03-29T16:00:38Z</time>
      </trkpt>
      <trkpt lat="37.738714800" lon="-1.914548300">
        <ele>692.000000</ele>
        <time>2014-03-29T16:00:39Z</time>
      </trkpt>
      <trkpt lat="37.738652800" lon="-1.914607200">
        <ele>693.000000</ele>
        <time>2014-03-29T16:00:40Z</time>
      </trkpt>
      <trkpt lat="37.738589000" lon="-1.914665100">
        <ele>693.000000</ele>
        <time>2014-03-29T16:00:41Z</time>
      </trkpt>
      <trkpt lat="37.738523800" lon="-1.914728400">
        <ele>693.000000</ele>
        <time>2014-03-29T16:00:42Z</time>
      </trkpt>
      <trkpt lat="37.738458800" lon="-1.914794600">
        <ele>693.000000</ele>
        <time>2014-03-29T16:00:43Z</time>
      </trkpt>
      <trkpt lat="37.738390600" lon="-1.914858700">
        <ele>693.000000</ele>
        <time>2014-03-29T16:00:44Z</time>
      </trkpt>
      <trkpt lat="37.738317900" lon="-1.914927400">
        <ele>693.000000</ele>
        <time>2014-03-29T16:00:45Z</time>
      </trkpt>
      <trkpt lat="37.738240900" lon="-1.914998500">
        <ele>693.000000</ele>
        <time>2014-03-29T16:00:46Z</time>
      </trkpt>
      <trkpt lat="37.738161900" lon="-1.915073800">
        <ele>693.000000</ele>
        <time>2014-03-29T16:00:47Z</time>
      </trkpt>
      <trkpt lat="37.738082300" lon="-1.915156800">
        <ele>693.000000</ele>
        <time>2014-03-29T16:00:48Z</time>
      </trkpt>
      <trkpt lat="37.737999400" lon="-1.915240100">
        <ele>693.000000</ele>
        <time>2014-03-29T16:00:49Z</time>
      </trkpt>
      <trkpt lat="37.737914300" lon="-1.915325300">
        <ele>693.000000</ele>
        <time>2014-03-29T16:00:50Z</time>
      </trkpt>
      <trkpt lat="37.737824100" lon="-1.915416300">
        <ele>693.000000</ele>
        <time>2014-03-29T16:00:51Z</time>
      </trkpt>
      <trkpt lat="37.737733700" lon="-1.915505300">
        <ele>693.000000</ele>
        <time>2014-03-29T16:00:52Z</time>
      </trkpt>
      <trkpt lat="37.737645700" lon="-1.915597600">
        <ele>693.000000</ele>
        <time>2014-03-29T16:00:53Z</time>
      </trkpt>
      <trkpt lat="37.737560600" lon="-1.915693800">
        <ele>693.000000</ele>
        <time>2014-03-29T16:00:54Z</time>
      </trkpt>
      <trkpt lat="37.737475800" lon="-1.915786100">
        <ele>693.000000</ele>
        <time>2014-03-29T16:00:55Z</time>
      </trkpt>
      <trkpt lat="37.737390700" lon="-1.915875500">
        <ele>693.000000</ele>
        <time>2014-03-29T16:00:56Z</time>
      </trkpt>
      <trkpt lat="37.737305100" lon="-1.915960100">
        <ele>693.000000</ele>
        <time>2014-03-29T16:00:57Z</time>
      </trkpt>
      <trkpt lat="37.737217200" lon="-1.916038800">
        <ele>693.000000</ele>
        <time>2014-03-29T16:00:58Z</time>
      </trkpt>
      <trkpt lat="37.737131900" lon="-1.916120500">
        <ele>694.000000</ele>
        <time>2014-03-29T16:00:59Z</time>
      </trkpt>
      <trkpt lat="37.737048300" lon="-1.916200200">
        <ele>694.000000</ele>
        <time>2014-03-29T16:01:00Z</time>
      </trkpt>
      <trkpt lat="37.736965400" lon="-1.916279200">
        <ele>694.000000</ele>
        <time>2014-03-29T16:01:01Z</time>
      </trkpt>
      <trkpt lat="37.736884300" lon="-1.916353500">
        <ele>694.000000</ele>
        <time>2014-03-29T16:01:02Z</time>
      </trkpt>
      <trkpt lat="37.736802600" lon="-1.916426100">
        <ele>694.000000</ele>
        <time>2014-03-29T16:01:03Z</time>
      </trkpt>
      <trkpt lat="37.736720600" lon="-1.916493300">
        <ele>694.000000</ele>
        <time>2014-03-29T16:01:04Z</time>
      </trkpt>
      <trkpt lat="37.736634500" lon="-1.916564800">
        <ele>694.000000</ele>
        <time>2014-03-29T16:01:05Z</time>
      </trkpt>
      <trkpt lat="37.736546000" lon="-1.916637800">
        <ele>694.000000</ele>
        <time>2014-03-29T16:01:06Z</time>
      </trkpt>
      <trkpt lat="37.736456700" lon="-1.916712400">
        <ele>695.000000</ele>
        <time>2014-03-29T16:01:07Z</time>
      </trkpt>
      <trkpt lat="37.736367300" lon="-1.916786200">
        <ele>695.000000</ele>
        <time>2014-03-29T16:01:08Z</time>
      </trkpt>
      <trkpt lat="37.736278200" lon="-1.916857700">
        <ele>695.000000</ele>
        <time>2014-03-29T16:01:09Z</time>
      </trkpt>
      <trkpt lat="37.736189700" lon="-1.916931400">
        <ele>695.000000</ele>
        <time>2014-03-29T16:01:10Z</time>
      </trkpt>
      <trkpt lat="37.736105800" lon="-1.917007500">
        <ele>695.000000</ele>
        <time>2014-03-29T16:01:11Z</time>
      </trkpt>
      <trkpt lat="37.736023400" lon="-1.917081400">
        <ele>695.000000</ele>
        <time>2014-03-29T16:01:12Z</time>
      </trkpt>
      <trkpt lat="37.735937200" lon="-1.917155700">
        <ele>695.000000</ele>
        <time>2014-03-29T16:01:13Z</time>
      </trkpt>
      <trkpt lat="37.735850800" lon="-1.917226400">
        <ele>695.000000</ele>
        <time>2014-03-29T16:01:14Z</time>
      </trkpt>
      <trkpt lat="37.735767100" lon="-1.917295000">
        <ele>695.000000</ele>
        <time>2014-03-29T16:01:15Z</time>
      </trkpt>
      <trkpt lat="37.735687800" lon="-1.917361500">
        <ele>695.000000</ele>
        <time>2014-03-29T16:01:16Z</time>
      </trkpt>
      <trkpt lat="37.735609100" lon="-1.917426800">
        <ele>695.000000</ele>
        <time>2014-03-29T16:01:17Z</time>
      </trkpt>
      <trkpt lat="37.735531600" lon="-1.917494200">
        <ele>695.000000</ele>
        <time>2014-03-29T16:01:18Z</time>
      </trkpt>
      <trkpt lat="37.735455300" lon="-1.917560000">
        <ele>695.000000</ele>
        <time>2014-03-29T16:01:19Z</time>
      </trkpt>
      <trkpt lat="37.735382300" lon="-1.917621100">
        <ele>695.000000</ele>
        <time>2014-03-29T16:01:20Z</time>
      </trkpt>
      <trkpt lat="37.735305100" lon="-1.917677000">
        <ele>695.000000</ele>
        <time>2014-03-29T16:01:21Z</time>
      </trkpt>
      <trkpt lat="37.735224700" lon="-1.917719900">
        <ele>695.000000</ele>
        <time>2014-03-29T16:01:22Z</time>
      </trkpt>
      <trkpt lat="37.735140600" lon="-1.917743300">
        <ele>695.000000</ele>
        <time>2014-03-29T16:01:23Z</time>
      </trkpt>
      <trkpt lat="37.735055400" lon="-1.917741300">
        <ele>695.000000</ele>
        <time>2014-03-29T16:01:24Z</time>
      </trkpt>
      <trkpt lat="37.734969400" lon="-1.917718100">
        <ele>695.000000</ele>
        <time>2014-03-29T16:01:25Z</time>
      </trkpt>
      <trkpt lat="37.734889100" lon="-1.917674900">
        <ele>695.000000</ele>
        <time>2014-03-29T16:01:26Z</time>
      </trkpt>
      <trkpt lat="37.734837400" lon="-1.917598100">
        <ele>696.000000</ele>
        <time>2014-03-29T16:01:27Z</time>
      </trkpt>
      <trkpt lat="37.734775500" lon="-1.917514700">
        <ele>696.000000</ele>
        <time>2014-03-29T16:01:28Z</time>
      </trkpt>
      <trkpt lat="37.734712900" lon="-1.917436500">
        <ele>696.000000</ele>
        <time>2014-03-29T16:01:29Z</time>
      </trkpt>
      <trkpt lat="37.734654500" lon="-1.917365300">
        <ele>696.000000</ele>
        <time>2014-03-29T16:01:30Z</time>
      </trkpt>
      <trkpt lat="37.734596900" lon="-1.917282700">
        <ele>696.000000</ele>
        <time>2014-03-29T16:01:31Z</time>
      </trkpt>
      <trkpt lat="37.734547300" lon="-1.917193400">
        <ele>696.000000</ele>
        <time>2014-03-29T16:01:32Z</time>
      </trkpt>
      <trkpt lat="37.734501300" lon="-1.917107100">
        <ele>696.000000</ele>
        <time>2014-03-29T16:01:33Z</time>
      </trkpt>
      <trkpt lat="37.734463800" lon="-1.917012600">
        <ele>696.000000</ele>
        <time>2014-03-29T16:01:34Z</time>
      </trkpt>
      <trkpt lat="37.734427800" lon="-1.916914800">
        <ele>696.000000</ele>
        <time>2014-03-29T16:01:35Z</time>
      </trkpt>
      <trkpt lat="37.734392900" lon="-1.916812000">
        <ele>696.000000</ele>
        <time>2014-03-29T16:01:36Z</time>
      </trkpt>
      <trkpt lat="37.734356400" lon="-1.916707900">
        <ele>696.000000</ele>
        <time>2014-03-29T16:01:37Z</time>
      </trkpt>
      <trkpt lat="37.734321200" lon="-1.916597900">
        <ele>696.000000</ele>
        <time>2014-03-29T16:01:38Z</time>
      </trkpt>
      <trkpt lat="37.734285800" lon="-1.916480700">
        <ele>696.000000</ele>
        <time>2014-03-29T16:01:39Z</time>
      </trkpt>
      <trkpt lat="37.734253500" lon="-1.916360800">
        <ele>695.000000</ele>
        <time>2014-03-29T16:01:40Z</time>
      </trkpt>
      <trkpt lat="37.734215900" lon="-1.916235200">
        <ele>695.000000</ele>
        <time>2014-03-29T16:01:41Z</time>
      </trkpt>
      <trkpt lat="37.734173200" lon="-1.916100800">
        <ele>695.000000</ele>
        <time>2014-03-29T16:01:42Z</time>
      </trkpt>
      <trkpt lat="37.734127600" lon="-1.915963600">
        <ele>695.000000</ele>
        <time>2014-03-29T16:01:43Z</time>
      </trkpt>
      <trkpt lat="37.734078300" lon="-1.915824700">
        <ele>694.000000</ele>
        <time>2014-03-29T16:01:44Z</time>
      </trkpt>
      <trkpt lat="37.734027400" lon="-1.915684500">
        <ele>694.000000</ele>
        <time>2014-03-29T16:01:45Z</time>
      </trkpt>
      <trkpt lat="37.733972100" lon="-1.915542700">
        <ele>694.000000</ele>
        <time>2014-03-29T16:01:46Z</time>
      </trkpt>
      <trkpt lat="37.733915000" lon="-1.915393600">
        <ele>694.000000</ele>
        <time>2014-03-29T16:01:47Z</time>
      </trkpt>
      <trkpt lat="37.733863000" lon="-1.915239100">
        <ele>693.000000</ele>
        <time>2014-03-29T16:01:48Z</time>
      </trkpt>
      <trkpt lat="37.733814900" lon="-1.915078900">
        <ele>693.000000</ele>
        <time>2014-03-29T16:01:49Z</time>
      </trkpt>
      <trkpt lat="37.733766600" lon="-1.914923700">
        <ele>693.000000</ele>
        <time>2014-03-29T16:01:50Z</time>
      </trkpt>
      <trkpt lat="37.733723100" lon="-1.914773000">
        <ele>692.000000</ele>
        <time>2014-03-29T16:01:51Z</time>
      </trkpt>
      <trkpt lat="37.733677800" lon="-1.914622200">
        <ele>692.000000</ele>
        <time>2014-03-29T16:01:52Z</time>
      </trkpt>
      <trkpt lat="37.733627700" lon="-1.914471400">
        <ele>692.000000</ele>
        <time>2014-03-29T16:01:53Z</time>
      </trkpt>
      <trkpt lat="37.733576900" lon="-1.914321700">
        <ele>691.000000</ele>
        <time>2014-03-29T16:01:54Z</time>
      </trkpt>
      <trkpt lat="37.733526500" lon="-1.914172900">
        <ele>691.000000</ele>
        <time>2014-03-29T16:01:55Z</time>
      </trkpt>
      <trkpt lat="37.733478100" lon="-1.914023800">
        <ele>691.000000</ele>
        <time>2014-03-29T16:01:56Z</time>
      </trkpt>
      <trkpt lat="37.733423600" lon="-1.913872300">
        <ele>690.000000</ele>
        <time>2014-03-29T16:01:57Z</time>
      </trkpt>
      <trkpt lat="37.733371400" lon="-1.913721600">
        <ele>690.000000</ele>
        <time>2014-03-29T16:01:58Z</time>
      </trkpt>
      <trkpt lat="37.733319500" lon="-1.913567300">
        <ele>689.000000</ele>
        <time>2014-03-29T16:01:59Z</time>
      </trkpt>
      <trkpt lat="37.733270000" lon="-1.913411300">
        <ele>689.000000</ele>
        <time>2014-03-29T16:02:00Z</time>
      </trkpt>
      <trkpt lat="37.733220700" lon="-1.913258400">
        <ele>689.000000</ele>
        <time>2014-03-29T16:02:01Z</time>
      </trkpt>
      <trkpt lat="37.733167900" lon="-1.913105900">
        <ele>688.000000</ele>
        <time>2014-03-29T16:02:02Z</time>
      </trkpt>
      <trkpt lat="37.733114400" lon="-1.912950500">
        <ele>688.000000</ele>
        <time>2014-03-29T16:02:03Z</time>
      </trkpt>
      <trkpt lat="37.733060900" lon="-1.912795800">
        <ele>688.000000</ele>
        <time>2014-03-29T16:02:04Z</time>
      </trkpt>
      <trkpt lat="37.733010300" lon="-1.912643600">
        <ele>687.000000</ele>
        <time>2014-03-29T16:02:05Z</time>
      </trkpt>
      <trkpt lat="37.732960200" lon="-1.912492900">
        <ele>687.000000</ele>
        <time>2014-03-29T16:02:06Z</time>
      </trkpt>
      <trkpt lat="37.732910100" lon="-1.912340900">
        <ele>686.000000</ele>
        <time>2014-03-29T16:02:07Z</time>
      </trkpt>
      <trkpt lat="37.732860100" lon="-1.912189900">
        <ele>686.000000</ele>
        <time>2014-03-29T16:02:08Z</time>
      </trkpt>
      <trkpt lat="37.732813300" lon="-1.912041700">
        <ele>686.000000</ele>
        <time>2014-03-29T16:02:09Z</time>
      </trkpt>
      <trkpt lat="37.732764000" lon="-1.911895200">
        <ele>685.000000</ele>
        <time>2014-03-29T16:02:10Z</time>
      </trkpt>
      <trkpt lat="37.732717100" lon="-1.911752100">
        <ele>685.000000</ele>
        <time>2014-03-29T16:02:11Z</time>
      </trkpt>
      <trkpt lat="37.732665500" lon="-1.911606800">
        <ele>685.000000</ele>
        <time>2014-03-29T16:02:12Z</time>
      </trkpt>
      <trkpt lat="37.732615700" lon="-1.911456800">
        <ele>684.000000</ele>
        <time>2014-03-29T16:02:13Z</time>
      </trkpt>
      <trkpt lat="37.732563900" lon="-1.911304500">
        <ele>684.000000</ele>
        <time>2014-03-29T16:02:14Z</time>
      </trkpt>
      <trkpt lat="37.732512200" lon="-1.911153200">
        <ele>684.000000</ele>
        <time>2014-03-29T16:02:15Z</time>
      </trkpt>
      <trkpt lat="37.732461500" lon="-1.911001800">
        <ele>684.000000</ele>
        <time>2014-03-29T16:02:16Z</time>
      </trkpt>
      <trkpt lat="37.732412500" lon="-1.910855000">
        <ele>683.000000</ele>
        <time>2014-03-29T16:02:17Z</time>
      </trkpt>
      <trkpt lat="37.732367700" lon="-1.910714400">
        <ele>683.000000</ele>
        <time>2014-03-29T16:02:18Z</time>
      </trkpt>
      <trkpt lat="37.732321000" lon="-1.910573800">
        <ele>683.000000</ele>
        <time>2014-03-29T16:02:19Z</time>
      </trkpt>
      <trkpt lat="37.732267700" lon="-1.910431200">
        <ele>682.000000</ele>
        <time>2014-03-29T16:02:20Z</time>
      </trkpt>
      <trkpt lat="37.732207200" lon="-1.910291300">
        <ele>682.000000</ele>
        <time>2014-03-29T16:02:21Z</time>
      </trkpt>
      <trkpt lat="37.732136800" lon="-1.910152100">
        <ele>682.000000</ele>
        <time>2014-03-29T16:02:22Z</time>
      </trkpt>
      <trkpt lat="37.732059900" lon="-1.910016900">
        <ele>682.000000</ele>
        <time>2014-03-29T16:02:23Z</time>
      </trkpt>
      <trkpt lat="37.731980400" lon="-1.909883200">
        <ele>681.000000</ele>
        <time>2014-03-29T16:02:24Z</time>
      </trkpt>
      <trkpt lat="37.731896900" lon="-1.909748600">
        <ele>681.000000</ele>
        <time>2014-03-29T16:02:25Z</time>
      </trkpt>
      <trkpt lat="37.731818900" lon="-1.909611100">
        <ele>681.000000</ele>
        <time>2014-03-29T16:02:26Z</time>
      </trkpt>
      <trkpt lat="37.731748200" lon="-1.909463300">
        <ele>680.000000</ele>
        <time>2014-03-29T16:02:27Z</time>
      </trkpt>
      <trkpt lat="37.731706500" lon="-1.909302900">
        <ele>680.000000</ele>
        <time>2014-03-29T16:02:28Z</time>
      </trkpt>
      <trkpt lat="37.731679400" lon="-1.909140700">
        <ele>679.000000</ele>
        <time>2014-03-29T16:02:29Z</time>
      </trkpt>
      <trkpt lat="37.731683000" lon="-1.908970300">
        <ele>679.000000</ele>
        <time>2014-03-29T16:02:30Z</time>
      </trkpt>
      <trkpt lat="37.731691400" lon="-1.908794700">
        <ele>678.000000</ele>
        <time>2014-03-29T16:02:31Z</time>
      </trkpt>
      <trkpt lat="37.731694200" lon="-1.908625000">
        <ele>678.000000</ele>
        <time>2014-03-29T16:02:32Z</time>
      </trkpt>
      <trkpt lat="37.731690900" lon="-1.908457300">
        <ele>678.000000</ele>
        <time>2014-03-29T16:02:33Z</time>
      </trkpt>
      <trkpt lat="37.731685400" lon="-1.908288600">
        <ele>677.000000</ele>
        <time>2014-03-29T16:02:34Z</time>
      </trkpt>
      <trkpt lat="37.731674500" lon="-1.908124100">
        <ele>677.000000</ele>
        <time>2014-03-29T16:02:35Z</time>
      </trkpt>
      <trkpt lat="37.731656000" lon="-1.907966400">
        <ele>676.000000</ele>
        <time>2014-03-29T16:02:36Z</time>
      </trkpt>
      <trkpt lat="37.731626500" lon="-1.907814000">
        <ele>676.000000</ele>
        <time>2014-03-29T16:02:37Z</time>
      </trkpt>
      <trkpt lat="37.731593200" lon="-1.907665000">
        <ele>676.000000</ele>
        <time>2014-03-29T16:02:38Z</time>
      </trkpt>
      <trkpt lat="37.731549300" lon="-1.907517800">
        <ele>675.000000</ele>
        <time>2014-03-29T16:02:39Z</time>
      </trkpt>
      <trkpt lat="37.731504100" lon="-1.907369400">
        <ele>675.000000</ele>
        <time>2014-03-29T16:02:40Z</time>
      </trkpt>
      <trkpt lat="37.731459200" lon="-1.907220900">
        <ele>675.000000</ele>
        <time>2014-03-29T16:02:41Z</time>
      </trkpt>
      <trkpt lat="37.731418100" lon="-1.907075000">
        <ele>674.000000</ele>
        <time>2014-03-29T16:02:42Z</time>
      </trkpt>
      <trkpt lat="37.731379600" lon="-1.906929900">
        <ele>674.000000</ele>
        <time>2014-03-29T16:02:43Z</time>
      </trkpt>
      <trkpt lat="37.731341300" lon="-1.906786100">
        <ele>674.000000</ele>
        <time>2014-03-29T16:02:44Z</time>
      </trkpt>
      <trkpt lat="37.731300100" lon="-1.906643100">
        <ele>673.000000</ele>
        <time>2014-03-29T16:02:45Z</time>
      </trkpt>
      <trkpt lat="37.731263500" lon="-1.906499000">
        <ele>673.000000</ele>
        <time>2014-03-29T16:02:46Z</time>
      </trkpt>
      <trkpt lat="37.731226000" lon="-1.906353200">
        <ele>673.000000</ele>
        <time>2014-03-29T16:02:47Z</time>
      </trkpt>
      <trkpt lat="37.731190400" lon="-1.906210100">
        <ele>673.000000</ele>
        <time>2014-03-29T16:02:48Z</time>
      </trkpt>
      <trkpt lat="37.731152400" lon="-1.906066700">
        <ele>673.000000</ele>
        <time>2014-03-29T16:02:49Z</time>
      </trkpt>
      <trkpt lat="37.731114900" lon="-1.905923600">
        <ele>672.000000</ele>
        <time>2014-03-29T16:02:50Z</time>
      </trkpt>
      <trkpt lat="37.731079500" lon="-1.905780700">
        <ele>672.000000</ele>
        <time>2014-03-29T16:02:51Z</time>
      </trkpt>
      <trkpt lat="37.731042000" lon="-1.905635700">
        <ele>672.000000</ele>
        <time>2014-03-29T16:02:52Z</time>
      </trkpt>
      <trkpt lat="37.731005800" lon="-1.905491300">
        <ele>672.000000</ele>
        <time>2014-03-29T16:02:53Z</time>
      </trkpt>
      <trkpt lat="37.730968500" lon="-1.905344200">
        <ele>671.000000</ele>
        <time>2014-03-29T16:02:54Z</time>
      </trkpt>
      <trkpt lat="37.730931100" lon="-1.905195400">
        <ele>671.000000</ele>
        <time>2014-03-29T16:02:55Z</time>
      </trkpt>
      <trkpt lat="37.730892200" lon="-1.905044900">
        <ele>671.000000</ele>
        <time>2014-03-29T16:02:56Z</time>
      </trkpt>
      <trkpt lat="37.730855000" lon="-1.904890900">
        <ele>671.000000</ele>
        <time>2014-03-29T16:02:57Z</time>
      </trkpt>
      <trkpt lat="37.730817200" lon="-1.904732200">
        <ele>670.000000</ele>
        <time>2014-03-29T16:02:58Z</time>
      </trkpt>
      <trkpt lat="37.730778000" lon="-1.904573300">
        <ele>670.000000</ele>
        <time>2014-03-29T16:02:59Z</time>
      </trkpt>
      <trkpt lat="37.730739800" lon="-1.904414400">
        <ele>670.000000</ele>
        <time>2014-03-29T16:03:00Z</time>
      </trkpt>
      <trkpt lat="37.730701800" lon="-1.904249800">
        <ele>670.000000</ele>
        <time>2014-03-29T16:03:01Z</time>
      </trkpt>
      <trkpt lat="37.730663800" lon="-1.904082000">
        <ele>669.000000</ele>
        <time>2014-03-29T16:03:02Z</time>
      </trkpt>
      <trkpt lat="37.730627500" lon="-1.903917200">
        <ele>669.000000</ele>
        <time>2014-03-29T16:03:03Z</time>
      </trkpt>
      <trkpt lat="37.730587600" lon="-1.903750200">
        <ele>668.000000</ele>
        <time>2014-03-29T16:03:04Z</time>
      </trkpt>
      <trkpt lat="37.730546300" lon="-1.903581200">
        <ele>668.000000</ele>
        <time>2014-03-29T16:03:05Z</time>
      </trkpt>
      <trkpt lat="37.730503900" lon="-1.903413500">
        <ele>668.000000</ele>
        <time>2014-03-29T16:03:06Z</time>
      </trkpt>
      <trkpt lat="37.730458500" lon="-1.903242700">
        <ele>667.000000</ele>
        <time>2014-03-29T16:03:07Z</time>
      </trkpt>
      <trkpt lat="37.730409200" lon="-1.903071300">
        <ele>667.000000</ele>
        <time>2014-03-29T16:03:08Z</time>
      </trkpt>
      <trkpt lat="37.730364000" lon="-1.902902800">
        <ele>666.000000</ele>
        <time>2014-03-29T16:03:09Z</time>
      </trkpt>
      <trkpt lat="37.730321500" lon="-1.902731200">
        <ele>666.000000</ele>
        <time>2014-03-29T16:03:10Z</time>
      </trkpt>
      <trkpt lat="37.730278500" lon="-1.902560600">
        <ele>666.000000</ele>
        <time>2014-03-29T16:03:11Z</time>
      </trkpt>
      <trkpt lat="37.730234200" lon="-1.902391000">
        <ele>665.000000</ele>
        <time>2014-03-29T16:03:12Z</time>
      </trkpt>
      <trkpt lat="37.730189600" lon="-1.902224600">
        <ele>665.000000</ele>
        <time>2014-03-29T16:03:13Z</time>
      </trkpt>
      <trkpt lat="37.730140700" lon="-1.902056500">
        <ele>664.000000</ele>
        <time>2014-03-29T16:03:14Z</time>
      </trkpt>
      <trkpt lat="37.730091400" lon="-1.901894300">
        <ele>664.000000</ele>
        <time>2014-03-29T16:03:15Z</time>
      </trkpt>
      <trkpt lat="37.730047300" lon="-1.901736500">
        <ele>664.000000</ele>
        <time>2014-03-29T16:03:16Z</time>
      </trkpt>
      <trkpt lat="37.730005800" lon="-1.901579800">
        <ele>663.000000</ele>
        <time>2014-03-29T16:03:17Z</time>
      </trkpt>
      <trkpt lat="37.729966000" lon="-1.901425600">
        <ele>663.000000</ele>
        <time>2014-03-29T16:03:18Z</time>
      </trkpt>
      <trkpt lat="37.729925900" lon="-1.901273300">
        <ele>662.000000</ele>
        <time>2014-03-29T16:03:19Z</time>
      </trkpt>
      <trkpt lat="37.729883200" lon="-1.901119700">
        <ele>662.000000</ele>
        <time>2014-03-29T16:03:20Z</time>
      </trkpt>
      <trkpt lat="37.729846200" lon="-1.900968500">
        <ele>662.000000</ele>
        <time>2014-03-29T16:03:21Z</time>
      </trkpt>
      <trkpt lat="37.729811500" lon="-1.900823500">
        <ele>661.000000</ele>
        <time>2014-03-29T16:03:22Z</time>
      </trkpt>
      <trkpt lat="37.729779800" lon="-1.900677700">
        <ele>661.000000</ele>
        <time>2014-03-29T16:03:23Z</time>
      </trkpt>
      <trkpt lat="37.729751400" lon="-1.900533000">
        <ele>660.000000</ele>
        <time>2014-03-29T16:03:24Z</time>
      </trkpt>
      <trkpt lat="37.729719200" lon="-1.900385800">
        <ele>660.000000</ele>
        <time>2014-03-29T16:03:25Z</time>
      </trkpt>
      <trkpt lat="37.729688300" lon="-1.900235400">
        <ele>660.000000</ele>
        <time>2014-03-29T16:03:26Z</time>
      </trkpt>
      <trkpt lat="37.729659900" lon="-1.900084400">
        <ele>659.000000</ele>
        <time>2014-03-29T16:03:27Z</time>
      </trkpt>
      <trkpt lat="37.729629500" lon="-1.899928200">
        <ele>659.000000</ele>
        <time>2014-03-29T16:03:28Z</time>
      </trkpt>
      <trkpt lat="37.729600300" lon="-1.899772000">
        <ele>658.000000</ele>
        <time>2014-03-29T16:03:29Z</time>
      </trkpt>
      <trkpt lat="37.729566100" lon="-1.899612900">
        <ele>658.000000</ele>
        <time>2014-03-29T16:03:30Z</time>
      </trkpt>
      <trkpt lat="37.729524300" lon="-1.899452100">
        <ele>658.000000</ele>
        <time>2014-03-29T16:03:31Z</time>
      </trkpt>
      <trkpt lat="37.729480100" lon="-1.899291900">
        <ele>657.000000</ele>
        <time>2014-03-29T16:03:32Z</time>
      </trkpt>
      <trkpt lat="37.729438700" lon="-1.899131000">
        <ele>657.000000</ele>
        <time>2014-03-29T16:03:33Z</time>
      </trkpt>
      <trkpt lat="37.729400300" lon="-1.898961500">
        <ele>656.000000</ele>
        <time>2014-03-29T16:03:34Z</time>
      </trkpt>
      <trkpt lat="37.729367100" lon="-1.898786200">
        <ele>655.000000</ele>
        <time>2014-03-29T16:03:35Z</time>
      </trkpt>
      <trkpt lat="37.729340300" lon="-1.898603200">
        <ele>655.000000</ele>
        <time>2014-03-29T16:03:36Z</time>
      </trkpt>
      <trkpt lat="37.729322900" lon="-1.898415800">
        <ele>654.000000</ele>
        <time>2014-03-29T16:03:37Z</time>
      </trkpt>
      <trkpt lat="37.729308500" lon="-1.898225200">
        <ele>653.000000</ele>
        <time>2014-03-29T16:03:38Z</time>
      </trkpt>
      <trkpt lat="37.729294500" lon="-1.898037400">
        <ele>652.000000</ele>
        <time>2014-03-29T16:03:39Z</time>
      </trkpt>
      <trkpt lat="37.729280300" lon="-1.897855400">
        <ele>651.000000</ele>
        <time>2014-03-29T16:03:40Z</time>
      </trkpt>
      <trkpt lat="37.729276200" lon="-1.897676900">
        <ele>650.000000</ele>
        <time>2014-03-29T16:03:41Z</time>
      </trkpt>
      <trkpt lat="37.729282700" lon="-1.897496000">
        <ele>649.000000</ele>
        <time>2014-03-29T16:03:42Z</time>
      </trkpt>
      <trkpt lat="37.729303800" lon="-1.897312200">
        <ele>648.000000</ele>
        <time>2014-03-29T16:03:43Z</time>
      </trkpt>
      <trkpt lat="37.729335700" lon="-1.897132000">
        <ele>647.000000</ele>
        <time>2014-03-29T16:03:44Z</time>
      </trkpt>
      <trkpt lat="37.729372700" lon="-1.896953600">
        <ele>646.000000</ele>
        <time>2014-03-29T16:03:45Z</time>
      </trkpt>
      <trkpt lat="37.729401500" lon="-1.896776400">
        <ele>645.000000</ele>
        <time>2014-03-29T16:03:46Z</time>
      </trkpt>
      <trkpt lat="37.729422700" lon="-1.896597900">
        <ele>644.000000</ele>
        <time>2014-03-29T16:03:47Z</time>
      </trkpt>
      <trkpt lat="37.729435900" lon="-1.896421700">
        <ele>643.000000</ele>
        <time>2014-03-29T16:03:48Z</time>
      </trkpt>
      <trkpt lat="37.729446400" lon="-1.896248500">
        <ele>642.000000</ele>
        <time>2014-03-29T16:03:49Z</time>
      </trkpt>
      <trkpt lat="37.729452400" lon="-1.896079200">
        <ele>640.000000</ele>
        <time>2014-03-29T16:03:50Z</time>
      </trkpt>
      <trkpt lat="37.729452300" lon="-1.895918100">
        <ele>639.000000</ele>
        <time>2014-03-29T16:03:51Z</time>
      </trkpt>
      <trkpt lat="37.729436700" lon="-1.895761500">
        <ele>638.000000</ele>
        <time>2014-03-29T16:03:52Z</time>
      </trkpt>
      <trkpt lat="37.729403800" lon="-1.895606100">
        <ele>637.000000</ele>
        <time>2014-03-29T16:03:53Z</time>
      </trkpt>
      <trkpt lat="37.729347300" lon="-1.895456800">
        <ele>636.000000</ele>
        <time>2014-03-29T16:03:54Z</time>
      </trkpt>
      <trkpt lat="37.729274300" lon="-1.895311900">
        <ele>635.000000</ele>
        <time>2014-03-29T16:03:55Z</time>
      </trkpt>
      <trkpt lat="37.729197400" lon="-1.895168200">
        <ele>634.000000</ele>
        <time>2014-03-29T16:03:56Z</time>
      </trkpt>
      <trkpt lat="37.729117400" lon="-1.895023500">
        <ele>633.000000</ele>
        <time>2014-03-29T16:03:57Z</time>
      </trkpt>
      <trkpt lat="37.729037700" lon="-1.894876200">
        <ele>632.000000</ele>
        <time>2014-03-29T16:03:58Z</time>
      </trkpt>
      <trkpt lat="37.728950600" lon="-1.894728500">
        <ele>631.000000</ele>
        <time>2014-03-29T16:03:59Z</time>
      </trkpt>
      <trkpt lat="37.728865300" lon="-1.894579900">
        <ele>630.000000</ele>
        <time>2014-03-29T16:04:00Z</time>
      </trkpt>
      <trkpt lat="37.728779000" lon="-1.894429300">
        <ele>629.000000</ele>
        <time>2014-03-29T16:04:01Z</time>
      </trkpt>
      <trkpt lat="37.728695300" lon="-1.894283700">
        <ele>628.000000</ele>
        <time>2014-03-29T16:04:02Z</time>
      </trkpt>
      <trkpt lat="37.728609000" lon="-1.894143300">
        <ele>627.000000</ele>
        <time>2014-03-29T16:04:03Z</time>
      </trkpt>
      <trkpt lat="37.728525600" lon="-1.894005800">
        <ele>626.000000</ele>
        <time>2014-03-29T16:04:04Z</time>
      </trkpt>
      <trkpt lat="37.728448300" lon="-1.893871700">
        <ele>625.000000</ele>
        <time>2014-03-29T16:04:05Z</time>
      </trkpt>
      <trkpt lat="37.728374600" lon="-1.893743400">
        <ele>624.000000</ele>
        <time>2014-03-29T16:04:06Z</time>
      </trkpt>
      <trkpt lat="37.728309100" lon="-1.893616800">
        <ele>623.000000</ele>
        <time>2014-03-29T16:04:07Z</time>
      </trkpt>
      <trkpt lat="37.728255200" lon="-1.893483700">
        <ele>622.000000</ele>
        <time>2014-03-29T16:04:08Z</time>
      </trkpt>
      <trkpt lat="37.728222100" lon="-1.893350400">
        <ele>621.000000</ele>
        <time>2014-03-29T16:04:09Z</time>
      </trkpt>
      <trkpt lat="37.728219800" lon="-1.893206900">
        <ele>620.000000</ele>
        <time>2014-03-29T16:04:10Z</time>
      </trkpt>
      <trkpt lat="37.728230600" lon="-1.893060300">
        <ele>619.000000</ele>
        <time>2014-03-29T16:04:11Z</time>
      </trkpt>
      <trkpt lat="37.728256400" lon="-1.892901500">
        <ele>618.000000</ele>
        <time>2014-03-29T16:04:12Z</time>
      </trkpt>
      <trkpt lat="37.728293000" lon="-1.892743200">
        <ele>617.000000</ele>
        <time>2014-03-29T16:04:13Z</time>
      </trkpt>
      <trkpt lat="37.728316100" lon="-1.892574700">
        <ele>616.000000</ele>
        <time>2014-03-29T16:04:14Z</time>
      </trkpt>
      <trkpt lat="37.728347300" lon="-1.892391500">
        <ele>616.000000</ele>
        <time>2014-03-29T16:04:15Z</time>
      </trkpt>
      <trkpt lat="37.728378800" lon="-1.892215100">
        <ele>615.000000</ele>
        <time>2014-03-29T16:04:16Z</time>
      </trkpt>
      <trkpt lat="37.728420200" lon="-1.892042600">
        <ele>615.000000</ele>
        <time>2014-03-29T16:04:17Z</time>
      </trkpt>
      <trkpt lat="37.728460400" lon="-1.891860200">
        <ele>614.000000</ele>
        <time>2014-03-29T16:04:18Z</time>
      </trkpt>
      <trkpt lat="37.728489300" lon="-1.891674300">
        <ele>614.000000</ele>
        <time>2014-03-29T16:04:19Z</time>
      </trkpt>
      <trkpt lat="37.728517100" lon="-1.891494300">
        <ele>613.000000</ele>
        <time>2014-03-29T16:04:20Z</time>
      </trkpt>
      <trkpt lat="37.728554700" lon="-1.891325900">
        <ele>613.000000</ele>
        <time>2014-03-29T16:04:21Z</time>
      </trkpt>
      <trkpt lat="37.728593500" lon="-1.891153400">
        <ele>612.000000</ele>
        <time>2014-03-29T16:04:22Z</time>
      </trkpt>
      <trkpt lat="37.728633600" lon="-1.890982300">
        <ele>612.000000</ele>
        <time>2014-03-29T16:04:23Z</time>
      </trkpt>
      <trkpt lat="37.728672100" lon="-1.890810500">
        <ele>612.000000</ele>
        <time>2014-03-29T16:04:24Z</time>
      </trkpt>
      <trkpt lat="37.728700100" lon="-1.890638000">
        <ele>612.000000</ele>
        <time>2014-03-29T16:04:25Z</time>
      </trkpt>
      <trkpt lat="37.728723100" lon="-1.890464800">
        <ele>611.000000</ele>
        <time>2014-03-29T16:04:26Z</time>
      </trkpt>
      <trkpt lat="37.728738200" lon="-1.890295200">
        <ele>611.000000</ele>
        <time>2014-03-29T16:04:27Z</time>
      </trkpt>
      <trkpt lat="37.728748600" lon="-1.890127500">
        <ele>611.000000</ele>
        <time>2014-03-29T16:04:28Z</time>
      </trkpt>
      <trkpt lat="37.728754300" lon="-1.889958800">
        <ele>611.000000</ele>
        <time>2014-03-29T16:04:29Z</time>
      </trkpt>
      <trkpt lat="37.728756400" lon="-1.889792200">
        <ele>610.000000</ele>
        <time>2014-03-29T16:04:30Z</time>
      </trkpt>
      <trkpt lat="37.728757700" lon="-1.889623300">
        <ele>610.000000</ele>
        <time>2014-03-29T16:04:31Z</time>
      </trkpt>
      <trkpt lat="37.728764300" lon="-1.889455300">
        <ele>610.000000</ele>
        <time>2014-03-29T16:04:32Z</time>
      </trkpt>
      <trkpt lat="37.728767300" lon="-1.889292300">
        <ele>610.000000</ele>
        <time>2014-03-29T16:04:33Z</time>
      </trkpt>
      <trkpt lat="37.728762700" lon="-1.889130100">
        <ele>610.000000</ele>
        <time>2014-03-29T16:04:34Z</time>
      </trkpt>
      <trkpt lat="37.728754700" lon="-1.888968000">
        <ele>609.000000</ele>
        <time>2014-03-29T16:04:35Z</time>
      </trkpt>
      <trkpt lat="37.728751000" lon="-1.888804600">
        <ele>609.000000</ele>
        <time>2014-03-29T16:04:36Z</time>
      </trkpt>
      <trkpt lat="37.728742700" lon="-1.888643400">
        <ele>609.000000</ele>
        <time>2014-03-29T16:04:37Z</time>
      </trkpt>
      <trkpt lat="37.728730700" lon="-1.888482800">
        <ele>609.000000</ele>
        <time>2014-03-29T16:04:38Z</time>
      </trkpt>
      <trkpt lat="37.728721300" lon="-1.888324300">
        <ele>609.000000</ele>
        <time>2014-03-29T16:04:39Z</time>
      </trkpt>
      <trkpt lat="37.728714300" lon="-1.888170000">
        <ele>609.000000</ele>
        <time>2014-03-29T16:04:40Z</time>
      </trkpt>
      <trkpt lat="37.728706700" lon="-1.888015800">
        <ele>608.000000</ele>
        <time>2014-03-29T16:04:41Z</time>
      </trkpt>
      <trkpt lat="37.728708800" lon="-1.887858600">
        <ele>608.000000</ele>
        <time>2014-03-29T16:04:42Z</time>
      </trkpt>
      <trkpt lat="37.728717100" lon="-1.887700900">
        <ele>608.000000</ele>
        <time>2014-03-29T16:04:43Z</time>
      </trkpt>
      <trkpt lat="37.728730800" lon="-1.887542100">
        <ele>608.000000</ele>
        <time>2014-03-29T16:04:44Z</time>
      </trkpt>
      <trkpt lat="37.728754100" lon="-1.887382100">
        <ele>608.000000</ele>
        <time>2014-03-29T16:04:45Z</time>
      </trkpt>
      <trkpt lat="37.728777300" lon="-1.887224300">
        <ele>608.000000</ele>
        <time>2014-03-29T16:04:46Z</time>
      </trkpt>
      <trkpt lat="37.728802900" lon="-1.887066300">
        <ele>608.000000</ele>
        <time>2014-03-29T16:04:47Z</time>
      </trkpt>
      <trkpt lat="37.728828200" lon="-1.886908700">
        <ele>608.000000</ele>
        <time>2014-03-29T16:04:48Z</time>
      </trkpt>
      <trkpt lat="37.728853800" lon="-1.886749500">
        <ele>607.000000</ele>
        <time>2014-03-29T16:04:49Z</time>
      </trkpt>
      <trkpt lat="37.728880000" lon="-1.886590800">
        <ele>607.000000</ele>
        <time>2014-03-29T16:04:50Z</time>
      </trkpt>
      <trkpt lat="37.728905900" lon="-1.886430300">
        <ele>607.000000</ele>
        <time>2014-03-29T16:04:51Z</time>
      </trkpt>
      <trkpt lat="37.728932900" lon="-1.886268000">
        <ele>607.000000</ele>
        <time>2014-03-29T16:04:52Z</time>
      </trkpt>
      <trkpt lat="37.728957700" lon="-1.886108100">
        <ele>606.000000</ele>
        <time>2014-03-29T16:04:53Z</time>
      </trkpt>
      <trkpt lat="37.728983400" lon="-1.885951700">
        <ele>606.000000</ele>
        <time>2014-03-29T16:04:54Z</time>
      </trkpt>
      <trkpt lat="37.729008200" lon="-1.885795700">
        <ele>606.000000</ele>
        <time>2014-03-29T16:04:55Z</time>
      </trkpt>
      <trkpt lat="37.729034000" lon="-1.885639100">
        <ele>606.000000</ele>
        <time>2014-03-29T16:04:56Z</time>
      </trkpt>
      <trkpt lat="37.729058200" lon="-1.885484600">
        <ele>606.000000</ele>
        <time>2014-03-29T16:04:57Z</time>
      </trkpt>
      <trkpt lat="37.729082000" lon="-1.885331500">
        <ele>606.000000</ele>
        <time>2014-03-29T16:04:58Z</time>
      </trkpt>
      <trkpt lat="37.729106300" lon="-1.885175400">
        <ele>605.000000</ele>
        <time>2014-03-29T16:04:59Z</time>
      </trkpt>
      <trkpt lat="37.729128500" lon="-1.885019900">
        <ele>605.000000</ele>
        <time>2014-03-29T16:05:00Z</time>
      </trkpt>
      <trkpt lat="37.729150700" lon="-1.884867000">
        <ele>605.000000</ele>
        <time>2014-03-29T16:05:01Z</time>
      </trkpt>
      <trkpt lat="37.729173900" lon="-1.884715000">
        <ele>605.000000</ele>
        <time>2014-03-29T16:05:02Z</time>
      </trkpt>
      <trkpt lat="37.729198200" lon="-1.884563100">
        <ele>604.000000</ele>
        <time>2014-03-29T16:05:03Z</time>
      </trkpt>
      <trkpt lat="37.729222700" lon="-1.884411400">
        <ele>604.000000</ele>
        <time>2014-03-29T16:05:04Z</time>
      </trkpt>
      <trkpt lat="37.729248900" lon="-1.884256900">
        <ele>604.000000</ele>
        <time>2014-03-29T16:05:05Z</time>
      </trkpt>
      <trkpt lat="37.729273100" lon="-1.884101800">
        <ele>603.000000</ele>
        <time>2014-03-29T16:05:06Z</time>
      </trkpt>
      <trkpt lat="37.729292400" lon="-1.883947400">
        <ele>603.000000</ele>
        <time>2014-03-29T16:05:07Z</time>
      </trkpt>
      <trkpt lat="37.729307600" lon="-1.883797500">
        <ele>603.000000</ele>
        <time>2014-03-29T16:05:08Z</time>
      </trkpt>
      <trkpt lat="37.729323300" lon="-1.883652200">
        <ele>603.000000</ele>
        <time>2014-03-29T16:05:09Z</time>
      </trkpt>
      <trkpt lat="37.729344300" lon="-1.883509200">
        <ele>602.000000</ele>
        <time>2014-03-29T16:05:10Z</time>
      </trkpt>
      <trkpt lat="37.729365400" lon="-1.883369700">
        <ele>602.000000</ele>
        <time>2014-03-29T16:05:11Z</time>
      </trkpt>
      <trkpt lat="37.729388400" lon="-1.883234600">
        <ele>602.000000</ele>
        <time>2014-03-29T16:05:12Z</time>
      </trkpt>
      <trkpt lat="37.729411500" lon="-1.883099800">
        <ele>602.000000</ele>
        <time>2014-03-29T16:05:13Z</time>
      </trkpt>
      <trkpt lat="37.729433900" lon="-1.882966800">
        <ele>602.000000</ele>
        <time>2014-03-29T16:05:14Z</time>
      </trkpt>
      <trkpt lat="37.729455900" lon="-1.882836000">
        <ele>602.000000</ele>
        <time>2014-03-29T16:05:15Z</time>
      </trkpt>
      <trkpt lat="37.729477500" lon="-1.882706600">
        <ele>601.000000</ele>
        <time>2014-03-29T16:05:16Z</time>
      </trkpt>
      <trkpt lat="37.729498800" lon="-1.882578000">
        <ele>601.000000</ele>
        <time>2014-03-29T16:05:17Z</time>
      </trkpt>
      <trkpt lat="37.729518000" lon="-1.882451400">
        <ele>601.000000</ele>
        <time>2014-03-29T16:05:18Z</time>
      </trkpt>
      <trkpt lat="37.729536900" lon="-1.882325800">
        <ele>601.000000</ele>
        <time>2014-03-29T16:05:19Z</time>
      </trkpt>
      <trkpt lat="37.729555700" lon="-1.882199800">
        <ele>600.000000</ele>
        <time>2014-03-29T16:05:20Z</time>
      </trkpt>
      <trkpt lat="37.729576000" lon="-1.882076200">
        <ele>600.000000</ele>
        <time>2014-03-29T16:05:21Z</time>
      </trkpt>
      <trkpt lat="37.729596400" lon="-1.881952400">
        <ele>600.000000</ele>
        <time>2014-03-29T16:05:22Z</time>
      </trkpt>
      <trkpt lat="37.729617600" lon="-1.881828400">
        <ele>600.000000</ele>
        <time>2014-03-29T16:05:23Z</time>
      </trkpt>
      <trkpt lat="37.729636900" lon="-1.881707600">
        <ele>600.000000</ele>
        <time>2014-03-29T16:05:24Z</time>
      </trkpt>
      <trkpt lat="37.729653900" lon="-1.881589600">
        <ele>600.000000</ele>
        <time>2014-03-29T16:05:25Z</time>
      </trkpt>
      <trkpt lat="37.729667600" lon="-1.881474900">
        <ele>600.000000</ele>
        <time>2014-03-29T16:05:26Z</time>
      </trkpt>
      <trkpt lat="37.729681200" lon="-1.881364000">
        <ele>599.000000</ele>
        <time>2014-03-29T16:05:27Z</time>
      </trkpt>
      <trkpt lat="37.729699100" lon="-1.881255100">
        <ele>599.000000</ele>
        <time>2014-03-29T16:05:28Z</time>
      </trkpt>
      <trkpt lat="37.729716500" lon="-1.881148800">
        <ele>599.000000</ele>
        <time>2014-03-29T16:05:29Z</time>
      </trkpt>
      <trkpt lat="37.729733100" lon="-1.881041800">
        <ele>599.000000</ele>
        <time>2014-03-29T16:05:30Z</time>
      </trkpt>
      <trkpt lat="37.729750200" lon="-1.880933500">
        <ele>599.000000</ele>
        <time>2014-03-29T16:05:31Z</time>
      </trkpt>
      <trkpt lat="37.729767000" lon="-1.880825800">
        <ele>599.000000</ele>
        <time>2014-03-29T16:05:32Z</time>
      </trkpt>
      <trkpt lat="37.729782500" lon="-1.880719000">
        <ele>599.000000</ele>
        <time>2014-03-29T16:05:33Z</time>
      </trkpt>
      <trkpt lat="37.729795400" lon="-1.880612900">
        <ele>599.000000</ele>
        <time>2014-03-29T16:05:34Z</time>
      </trkpt>
      <trkpt lat="37.729805700" lon="-1.880509900">
        <ele>599.000000</ele>
        <time>2014-03-29T16:05:35Z</time>
      </trkpt>
      <trkpt lat="37.729813600" lon="-1.880407100">
        <ele>599.000000</ele>
        <time>2014-03-29T16:05:36Z</time>
      </trkpt>
      <trkpt lat="37.729818100" lon="-1.880301600">
        <ele>599.000000</ele>
        <time>2014-03-29T16:05:37Z</time>
      </trkpt>
      <trkpt lat="37.729819700" lon="-1.880196100">
        <ele>599.000000</ele>
        <time>2014-03-29T16:05:38Z</time>
      </trkpt>
      <trkpt lat="37.729816900" lon="-1.880090200">
        <ele>599.000000</ele>
        <time>2014-03-29T16:05:39Z</time>
      </trkpt>
      <trkpt lat="37.729806300" lon="-1.879984700">
        <ele>599.000000</ele>
        <time>2014-03-29T16:05:40Z</time>
      </trkpt>
      <trkpt lat="37.729787300" lon="-1.879884300">
        <ele>599.000000</ele>
        <time>2014-03-29T16:05:41Z</time>
      </trkpt>
      <trkpt lat="37.729760900" lon="-1.879786700">
        <ele>598.000000</ele>
        <time>2014-03-29T16:05:42Z</time>
      </trkpt>
      <trkpt lat="37.729729000" lon="-1.879691800">
        <ele>598.000000</ele>
        <time>2014-03-29T16:05:43Z</time>
      </trkpt>
      <trkpt lat="37.729692400" lon="-1.879600500">
        <ele>598.000000</ele>
        <time>2014-03-29T16:05:44Z</time>
      </trkpt>
      <trkpt lat="37.729653600" lon="-1.879512400">
        <ele>598.000000</ele>
        <time>2014-03-29T16:05:45Z</time>
      </trkpt>
      <trkpt lat="37.729617700" lon="-1.879423400">
        <ele>598.000000</ele>
        <time>2014-03-29T16:05:46Z</time>
      </trkpt>
      <trkpt lat="37.729587900" lon="-1.879330600">
        <ele>598.000000</ele>
        <time>2014-03-29T16:05:47Z</time>
      </trkpt>
      <trkpt lat="37.729559900" lon="-1.879236800">
        <ele>598.000000</ele>
        <time>2014-03-29T16:05:48Z</time>
      </trkpt>
      <trkpt lat="37.729528400" lon="-1.879145300">
        <ele>598.000000</ele>
        <time>2014-03-29T16:05:49Z</time>
      </trkpt>
      <trkpt lat="37.729492000" lon="-1.879059200">
        <ele>597.000000</ele>
        <time>2014-03-29T16:05:50Z</time>
      </trkpt>
      <trkpt lat="37.729459900" lon="-1.878973100">
        <ele>597.000000</ele>
        <time>2014-03-29T16:05:51Z</time>
      </trkpt>
      <trkpt lat="37.729429400" lon="-1.878886100">
        <ele>597.000000</ele>
        <time>2014-03-29T16:05:52Z</time>
      </trkpt>
      <trkpt lat="37.729394800" lon="-1.878796300">
        <ele>597.000000</ele>
        <time>2014-03-29T16:05:53Z</time>
      </trkpt>
      <trkpt lat="37.729363000" lon="-1.878708000">
        <ele>597.000000</ele>
        <time>2014-03-29T16:05:54Z</time>
      </trkpt>
      <trkpt lat="37.729329600" lon="-1.878617500">
        <ele>596.000000</ele>
        <time>2014-03-29T16:05:55Z</time>
      </trkpt>
      <trkpt lat="37.729296200" lon="-1.878526900">
        <ele>596.000000</ele>
        <time>2014-03-29T16:05:56Z</time>
      </trkpt>
      <trkpt lat="37.729264000" lon="-1.878437200">
        <ele>596.000000</ele>
        <time>2014-03-29T16:05:57Z</time>
      </trkpt>
      <trkpt lat="37.729232200" lon="-1.878349600">
        <ele>596.000000</ele>
        <time>2014-03-29T16:05:58Z</time>
      </trkpt>
      <trkpt lat="37.729202500" lon="-1.878262900">
        <ele>595.000000</ele>
        <time>2014-03-29T16:05:59Z</time>
      </trkpt>
      <trkpt lat="37.729172900" lon="-1.878170700">
        <ele>595.000000</ele>
        <time>2014-03-29T16:06:00Z</time>
      </trkpt>
      <trkpt lat="37.729145100" lon="-1.878080800">
        <ele>595.000000</ele>
        <time>2014-03-29T16:06:01Z</time>
      </trkpt>
      <trkpt lat="37.729120400" lon="-1.877992400">
        <ele>595.000000</ele>
        <time>2014-03-29T16:06:02Z</time>
      </trkpt>
      <trkpt lat="37.729097000" lon="-1.877904500">
        <ele>595.000000</ele>
        <time>2014-03-29T16:06:03Z</time>
      </trkpt>
      <trkpt lat="37.729073700" lon="-1.877816000">
        <ele>595.000000</ele>
        <time>2014-03-29T16:06:04Z</time>
      </trkpt>
      <trkpt lat="37.729050900" lon="-1.877726500">
        <ele>595.000000</ele>
        <time>2014-03-29T16:06:05Z</time>
      </trkpt>
      <trkpt lat="37.729031000" lon="-1.877638800">
        <ele>595.000000</ele>
        <time>2014-03-29T16:06:06Z</time>
      </trkpt>
      <trkpt lat="37.729010800" lon="-1.877553100">
        <ele>594.000000</ele>
        <time>2014-03-29T16:06:07Z</time>
      </trkpt>
      <trkpt lat="37.728952700" lon="-1.877303000">
        <ele>594.000000</ele>
        <time>2014-03-29T16:06:10Z</time>
      </trkpt>
      <trkpt lat="37.728952700" lon="-1.877303000">
        <ele>594.000000</ele>
        <time>2014-03-29T16:06:11Z</time>
      </trkpt>
      <trkpt lat="37.728933300" lon="-1.877219400">
        <ele>594.000000</ele>
        <time>2014-03-29T16:06:12Z</time>
      </trkpt>
      <trkpt lat="37.728911800" lon="-1.877137100">
        <ele>594.000000</ele>
        <time>2014-03-29T16:06:13Z</time>
      </trkpt>
      <trkpt lat="37.728888600" lon="-1.877055700">
        <ele>594.000000</ele>
        <time>2014-03-29T16:06:14Z</time>
      </trkpt>
      <trkpt lat="37.728863900" lon="-1.876975500">
        <ele>594.000000</ele>
        <time>2014-03-29T16:06:15Z</time>
      </trkpt>
      <trkpt lat="37.728841500" lon="-1.876892500">
        <ele>595.000000</ele>
        <time>2014-03-29T16:06:16Z</time>
      </trkpt>
      <trkpt lat="37.728821000" lon="-1.876806800">
        <ele>595.000000</ele>
        <time>2014-03-29T16:06:17Z</time>
      </trkpt>
      <trkpt lat="37.728800400" lon="-1.876723300">
        <ele>595.000000</ele>
        <time>2014-03-29T16:06:18Z</time>
      </trkpt>
      <trkpt lat="37.728781400" lon="-1.876639900">
        <ele>595.000000</ele>
        <time>2014-03-29T16:06:19Z</time>
      </trkpt>
      <trkpt lat="37.728759000" lon="-1.876556200">
        <ele>595.000000</ele>
        <time>2014-03-29T16:06:20Z</time>
      </trkpt>
      <trkpt lat="37.728736100" lon="-1.876470800">
        <ele>595.000000</ele>
        <time>2014-03-29T16:06:21Z</time>
      </trkpt>
      <trkpt lat="37.728711100" lon="-1.876386400">
        <ele>595.000000</ele>
        <time>2014-03-29T16:06:22Z</time>
      </trkpt>
      <trkpt lat="37.728684300" lon="-1.876303900">
        <ele>595.000000</ele>
        <time>2014-03-29T16:06:23Z</time>
      </trkpt>
      <trkpt lat="37.728659400" lon="-1.876222500">
        <ele>595.000000</ele>
        <time>2014-03-29T16:06:24Z</time>
      </trkpt>
      <trkpt lat="37.728632700" lon="-1.876137000">
        <ele>595.000000</ele>
        <time>2014-03-29T16:06:25Z</time>
      </trkpt>
      <trkpt lat="37.728607900" lon="-1.876048800">
        <ele>595.000000</ele>
        <time>2014-03-29T16:06:26Z</time>
      </trkpt>
      <trkpt lat="37.728582200" lon="-1.875958600">
        <ele>595.000000</ele>
        <time>2014-03-29T16:06:27Z</time>
      </trkpt>
      <trkpt lat="37.728557500" lon="-1.875867700">
        <ele>595.000000</ele>
        <time>2014-03-29T16:06:28Z</time>
      </trkpt>
      <trkpt lat="37.728541900" lon="-1.875773100">
        <ele>595.000000</ele>
        <time>2014-03-29T16:06:29Z</time>
      </trkpt>
      <trkpt lat="37.728522800" lon="-1.875677900">
        <ele>595.000000</ele>
        <time>2014-03-29T16:06:30Z</time>
      </trkpt>
      <trkpt lat="37.728498400" lon="-1.875583000">
        <ele>595.000000</ele>
        <time>2014-03-29T16:06:31Z</time>
      </trkpt>
      <trkpt lat="37.728473600" lon="-1.875488900">
        <ele>595.000000</ele>
        <time>2014-03-29T16:06:32Z</time>
      </trkpt>
      <trkpt lat="37.728447100" lon="-1.875394000">
        <ele>595.000000</ele>
        <time>2014-03-29T16:06:33Z</time>
      </trkpt>
      <trkpt lat="37.728423000" lon="-1.875294000">
        <ele>595.000000</ele>
        <time>2014-03-29T16:06:34Z</time>
      </trkpt>
      <trkpt lat="37.728398400" lon="-1.875194400">
        <ele>594.000000</ele>
        <time>2014-03-29T16:06:35Z</time>
      </trkpt>
      <trkpt lat="37.728376900" lon="-1.875092200">
        <ele>594.000000</ele>
        <time>2014-03-29T16:06:36Z</time>
      </trkpt>
      <trkpt lat="37.728363000" lon="-1.874989700">
        <ele>594.000000</ele>
        <time>2014-03-29T16:06:37Z</time>
      </trkpt>
      <trkpt lat="37.728351900" lon="-1.874884400">
        <ele>594.000000</ele>
        <time>2014-03-29T16:06:38Z</time>
      </trkpt>
      <trkpt lat="37.728340500" lon="-1.874778000">
        <ele>594.000000</ele>
        <time>2014-03-29T16:06:39Z</time>
      </trkpt>
      <trkpt lat="37.728328200" lon="-1.874674100">
        <ele>594.000000</ele>
        <time>2014-03-29T16:06:40Z</time>
      </trkpt>
      <trkpt lat="37.728316700" lon="-1.874570700">
        <ele>594.000000</ele>
        <time>2014-03-29T16:06:41Z</time>
      </trkpt>
      <trkpt lat="37.728303900" lon="-1.874466200">
        <ele>594.000000</ele>
        <time>2014-03-29T16:06:42Z</time>
      </trkpt>
      <trkpt lat="37.728290600" lon="-1.874363900">
        <ele>593.000000</ele>
        <time>2014-03-29T16:06:43Z</time>
      </trkpt>
      <trkpt lat="37.728276800" lon="-1.874260600">
        <ele>593.000000</ele>
        <time>2014-03-29T16:06:44Z</time>
      </trkpt>
      <trkpt lat="37.728264400" lon="-1.874157400">
        <ele>593.000000</ele>
        <time>2014-03-29T16:06:45Z</time>
      </trkpt>
      <trkpt lat="37.728254000" lon="-1.874053400">
        <ele>593.000000</ele>
        <time>2014-03-29T16:06:46Z</time>
      </trkpt>
      <trkpt lat="37.728243900" lon="-1.873946200">
        <ele>593.000000</ele>
        <time>2014-03-29T16:06:47Z</time>
      </trkpt>
      <trkpt lat="37.728232800" lon="-1.873837400">
        <ele>593.000000</ele>
        <time>2014-03-29T16:06:48Z</time>
      </trkpt>
      <trkpt lat="37.728224100" lon="-1.873729700">
        <ele>593.000000</ele>
        <time>2014-03-29T16:06:49Z</time>
      </trkpt>
      <trkpt lat="37.728215400" lon="-1.873622700">
        <ele>592.000000</ele>
        <time>2014-03-29T16:06:50Z</time>
      </trkpt>
      <trkpt lat="37.728203600" lon="-1.873512800">
        <ele>592.000000</ele>
        <time>2014-03-29T16:06:51Z</time>
      </trkpt>
      <trkpt lat="37.728188400" lon="-1.873405900">
        <ele>592.000000</ele>
        <time>2014-03-29T16:06:52Z</time>
      </trkpt>
      <trkpt lat="37.728173300" lon="-1.873300100">
        <ele>592.000000</ele>
        <time>2014-03-29T16:06:53Z</time>
      </trkpt>
      <trkpt lat="37.728158400" lon="-1.873193400">
        <ele>592.000000</ele>
        <time>2014-03-29T16:06:54Z</time>
      </trkpt>
      <trkpt lat="37.728146300" lon="-1.873086000">
        <ele>592.000000</ele>
        <time>2014-03-29T16:06:55Z</time>
      </trkpt>
      <trkpt lat="37.728134000" lon="-1.872978100">
        <ele>592.000000</ele>
        <time>2014-03-29T16:06:56Z</time>
      </trkpt>
      <trkpt lat="37.728119900" lon="-1.872871100">
        <ele>591.000000</ele>
        <time>2014-03-29T16:06:57Z</time>
      </trkpt>
      <trkpt lat="37.728106400" lon="-1.872764700">
        <ele>591.000000</ele>
        <time>2014-03-29T16:06:58Z</time>
      </trkpt>
      <trkpt lat="37.728091100" lon="-1.872659800">
        <ele>591.000000</ele>
        <time>2014-03-29T16:06:59Z</time>
      </trkpt>
      <trkpt lat="37.728073500" lon="-1.872556000">
        <ele>591.000000</ele>
        <time>2014-03-29T16:07:00Z</time>
      </trkpt>
      <trkpt lat="37.728053100" lon="-1.872453400">
        <ele>590.000000</ele>
        <time>2014-03-29T16:07:01Z</time>
      </trkpt>
      <trkpt lat="37.728031300" lon="-1.872349800">
        <ele>590.000000</ele>
        <time>2014-03-29T16:07:02Z</time>
      </trkpt>
      <trkpt lat="37.728009500" lon="-1.872246800">
        <ele>590.000000</ele>
        <time>2014-03-29T16:07:03Z</time>
      </trkpt>
      <trkpt lat="37.727989500" lon="-1.872142100">
        <ele>590.000000</ele>
        <time>2014-03-29T16:07:04Z</time>
      </trkpt>
      <trkpt lat="37.727971600" lon="-1.872036100">
        <ele>589.000000</ele>
        <time>2014-03-29T16:07:05Z</time>
      </trkpt>
      <trkpt lat="37.727953200" lon="-1.871931100">
        <ele>589.000000</ele>
        <time>2014-03-29T16:07:06Z</time>
      </trkpt>
      <trkpt lat="37.727935800" lon="-1.871824400">
        <ele>589.000000</ele>
        <time>2014-03-29T16:07:07Z</time>
      </trkpt>
      <trkpt lat="37.727918800" lon="-1.871717600">
        <ele>589.000000</ele>
        <time>2014-03-29T16:07:08Z</time>
      </trkpt>
      <trkpt lat="37.727903000" lon="-1.871610800">
        <ele>589.000000</ele>
        <time>2014-03-29T16:07:09Z</time>
      </trkpt>
      <trkpt lat="37.727889300" lon="-1.871502800">
        <ele>588.000000</ele>
        <time>2014-03-29T16:07:10Z</time>
      </trkpt>
      <trkpt lat="37.727880300" lon="-1.871396100">
        <ele>588.000000</ele>
        <time>2014-03-29T16:07:11Z</time>
      </trkpt>
      <trkpt lat="37.727873500" lon="-1.871289400">
        <ele>588.000000</ele>
        <time>2014-03-29T16:07:12Z</time>
      </trkpt>
      <trkpt lat="37.727864000" lon="-1.871179700">
        <ele>588.000000</ele>
        <time>2014-03-29T16:07:13Z</time>
      </trkpt>
      <trkpt lat="37.727858100" lon="-1.871067900">
        <ele>587.000000</ele>
        <time>2014-03-29T16:07:14Z</time>
      </trkpt>
      <trkpt lat="37.727855300" lon="-1.870953900">
        <ele>587.000000</ele>
        <time>2014-03-29T16:07:15Z</time>
      </trkpt>
      <trkpt lat="37.727858800" lon="-1.870839300">
        <ele>587.000000</ele>
        <time>2014-03-29T16:07:16Z</time>
      </trkpt>
      <trkpt lat="37.727866100" lon="-1.870726000">
        <ele>587.000000</ele>
        <time>2014-03-29T16:07:17Z</time>
      </trkpt>
      <trkpt lat="37.727873300" lon="-1.870612000">
        <ele>586.000000</ele>
        <time>2014-03-29T16:07:18Z</time>
      </trkpt>
      <trkpt lat="37.727884900" lon="-1.870498100">
        <ele>586.000000</ele>
        <time>2014-03-29T16:07:19Z</time>
      </trkpt>
      <trkpt lat="37.727903200" lon="-1.870388600">
        <ele>586.000000</ele>
        <time>2014-03-29T16:07:20Z</time>
      </trkpt>
      <trkpt lat="37.727913500" lon="-1.870274100">
        <ele>586.000000</ele>
        <time>2014-03-29T16:07:21Z</time>
      </trkpt>
      <trkpt lat="37.727924000" lon="-1.870160900">
        <ele>586.000000</ele>
        <time>2014-03-29T16:07:22Z</time>
      </trkpt>
      <trkpt lat="37.727936400" lon="-1.870047600">
        <ele>585.000000</ele>
        <time>2014-03-29T16:07:23Z</time>
      </trkpt>
      <trkpt lat="37.727950000" lon="-1.869934000">
        <ele>585.000000</ele>
        <time>2014-03-29T16:07:24Z</time>
      </trkpt>
      <trkpt lat="37.727960500" lon="-1.869823400">
        <ele>585.000000</ele>
        <time>2014-03-29T16:07:25Z</time>
      </trkpt>
      <trkpt lat="37.727967400" lon="-1.869713400">
        <ele>585.000000</ele>
        <time>2014-03-29T16:07:26Z</time>
      </trkpt>
      <trkpt lat="37.727975400" lon="-1.869605300">
        <ele>585.000000</ele>
        <time>2014-03-29T16:07:27Z</time>
      </trkpt>
      <trkpt lat="37.727983400" lon="-1.869495300">
        <ele>585.000000</ele>
        <time>2014-03-29T16:07:28Z</time>
      </trkpt>
      <trkpt lat="37.727991900" lon="-1.869385800">
        <ele>584.000000</ele>
        <time>2014-03-29T16:07:29Z</time>
      </trkpt>
      <trkpt lat="37.727997000" lon="-1.869274700">
        <ele>584.000000</ele>
        <time>2014-03-29T16:07:30Z</time>
      </trkpt>
      <trkpt lat="37.728003100" lon="-1.869163900">
        <ele>584.000000</ele>
        <time>2014-03-29T16:07:31Z</time>
      </trkpt>
      <trkpt lat="37.728011200" lon="-1.869052500">
        <ele>584.000000</ele>
        <time>2014-03-29T16:07:32Z</time>
      </trkpt>
      <trkpt lat="37.728019900" lon="-1.868937700">
        <ele>584.000000</ele>
        <time>2014-03-29T16:07:33Z</time>
      </trkpt>
      <trkpt lat="37.728029200" lon="-1.868823400">
        <ele>584.000000</ele>
        <time>2014-03-29T16:07:34Z</time>
      </trkpt>
      <trkpt lat="37.728036800" lon="-1.868711100">
        <ele>584.000000</ele>
        <time>2014-03-29T16:07:35Z</time>
      </trkpt>
      <trkpt lat="37.728042400" lon="-1.868598000">
        <ele>584.000000</ele>
        <time>2014-03-29T16:07:36Z</time>
      </trkpt>
      <trkpt lat="37.728049800" lon="-1.868485300">
        <ele>584.000000</ele>
        <time>2014-03-29T16:07:37Z</time>
      </trkpt>
      <trkpt lat="37.728059500" lon="-1.868372700">
        <ele>584.000000</ele>
        <time>2014-03-29T16:07:38Z</time>
      </trkpt>
      <trkpt lat="37.728069300" lon="-1.868259700">
        <ele>584.000000</ele>
        <time>2014-03-29T16:07:39Z</time>
      </trkpt>
      <trkpt lat="37.728077000" lon="-1.868147200">
        <ele>584.000000</ele>
        <time>2014-03-29T16:07:40Z</time>
      </trkpt>
      <trkpt lat="37.728084000" lon="-1.868033000">
        <ele>584.000000</ele>
        <time>2014-03-29T16:07:41Z</time>
      </trkpt>
      <trkpt lat="37.728092200" lon="-1.867917300">
        <ele>584.000000</ele>
        <time>2014-03-29T16:07:42Z</time>
      </trkpt>
      <trkpt lat="37.728100200" lon="-1.867803700">
        <ele>584.000000</ele>
        <time>2014-03-29T16:07:43Z</time>
      </trkpt>
      <trkpt lat="37.728108500" lon="-1.867692500">
        <ele>584.000000</ele>
        <time>2014-03-29T16:07:44Z</time>
      </trkpt>
      <trkpt lat="37.728118000" lon="-1.867581300">
        <ele>584.000000</ele>
        <time>2014-03-29T16:07:45Z</time>
      </trkpt>
      <trkpt lat="37.728127400" lon="-1.867468500">
        <ele>584.000000</ele>
        <time>2014-03-29T16:07:46Z</time>
      </trkpt>
      <trkpt lat="37.728135200" lon="-1.867356800">
        <ele>583.000000</ele>
        <time>2014-03-29T16:07:47Z</time>
      </trkpt>
      <trkpt lat="37.728142100" lon="-1.867246400">
        <ele>583.000000</ele>
        <time>2014-03-29T16:07:48Z</time>
      </trkpt>
      <trkpt lat="37.728149600" lon="-1.867137000">
        <ele>583.000000</ele>
        <time>2014-03-29T16:07:49Z</time>
      </trkpt>
      <trkpt lat="37.728156500" lon="-1.867029900">
        <ele>583.000000</ele>
        <time>2014-03-29T16:07:50Z</time>
      </trkpt>
      <trkpt lat="37.728162500" lon="-1.866920700">
        <ele>583.000000</ele>
        <time>2014-03-29T16:07:51Z</time>
      </trkpt>
      <trkpt lat="37.728171900" lon="-1.866813400">
        <ele>583.000000</ele>
        <time>2014-03-29T16:07:52Z</time>
      </trkpt>
      <trkpt lat="37.728184800" lon="-1.866707100">
        <ele>583.000000</ele>
        <time>2014-03-29T16:07:53Z</time>
      </trkpt>
      <trkpt lat="37.728196600" lon="-1.866600000">
        <ele>583.000000</ele>
        <time>2014-03-29T16:07:54Z</time>
      </trkpt>
      <trkpt lat="37.728213200" lon="-1.866494800">
        <ele>583.000000</ele>
        <time>2014-03-29T16:07:55Z</time>
      </trkpt>
      <trkpt lat="37.728235100" lon="-1.866393100">
        <ele>583.000000</ele>
        <time>2014-03-29T16:07:56Z</time>
      </trkpt>
      <trkpt lat="37.728258400" lon="-1.866288000">
        <ele>583.000000</ele>
        <time>2014-03-29T16:07:57Z</time>
      </trkpt>
      <trkpt lat="37.728284900" lon="-1.866181300">
        <ele>582.000000</ele>
        <time>2014-03-29T16:07:58Z</time>
      </trkpt>
      <trkpt lat="37.728315700" lon="-1.866076700">
        <ele>582.000000</ele>
        <time>2014-03-29T16:07:59Z</time>
      </trkpt>
      <trkpt lat="37.728348000" lon="-1.865975700">
        <ele>582.000000</ele>
        <time>2014-03-29T16:08:00Z</time>
      </trkpt>
      <trkpt lat="37.728380800" lon="-1.865872800">
        <ele>582.000000</ele>
        <time>2014-03-29T16:08:01Z</time>
      </trkpt>
      <trkpt lat="37.728417700" lon="-1.865768100">
        <ele>582.000000</ele>
        <time>2014-03-29T16:08:02Z</time>
      </trkpt>
      <trkpt lat="37.728460300" lon="-1.865665600">
        <ele>582.000000</ele>
        <time>2014-03-29T16:08:03Z</time>
      </trkpt>
      <trkpt lat="37.728499600" lon="-1.865565900">
        <ele>582.000000</ele>
        <time>2014-03-29T16:08:04Z</time>
      </trkpt>
      <trkpt lat="37.728536400" lon="-1.865461100">
        <ele>582.000000</ele>
        <time>2014-03-29T16:08:05Z</time>
      </trkpt>
      <trkpt lat="37.728575300" lon="-1.865357700">
        <ele>581.000000</ele>
        <time>2014-03-29T16:08:06Z</time>
      </trkpt>
      <trkpt lat="37.728614700" lon="-1.865254600">
        <ele>581.000000</ele>
        <time>2014-03-29T16:08:07Z</time>
      </trkpt>
      <trkpt lat="37.728655500" lon="-1.865151200">
        <ele>581.000000</ele>
        <time>2014-03-29T16:08:08Z</time>
      </trkpt>
      <trkpt lat="37.728695700" lon="-1.865048300">
        <ele>581.000000</ele>
        <time>2014-03-29T16:08:09Z</time>
      </trkpt>
      <trkpt lat="37.728734100" lon="-1.864942600">
        <ele>581.000000</ele>
        <time>2014-03-29T16:08:10Z</time>
      </trkpt>
      <trkpt lat="37.728774400" lon="-1.864838600">
        <ele>580.000000</ele>
        <time>2014-03-29T16:08:11Z</time>
      </trkpt>
      <trkpt lat="37.728815200" lon="-1.864738600">
        <ele>580.000000</ele>
        <time>2014-03-29T16:08:12Z</time>
      </trkpt>
      <trkpt lat="37.728854800" lon="-1.864636600">
        <ele>580.000000</ele>
        <time>2014-03-29T16:08:13Z</time>
      </trkpt>
      <trkpt lat="37.728896000" lon="-1.864534200">
        <ele>580.000000</ele>
        <time>2014-03-29T16:08:14Z</time>
      </trkpt>
      <trkpt lat="37.728941100" lon="-1.864429200">
        <ele>580.000000</ele>
        <time>2014-03-29T16:08:15Z</time>
      </trkpt>
      <trkpt lat="37.728988500" lon="-1.864321200">
        <ele>579.000000</ele>
        <time>2014-03-29T16:08:16Z</time>
      </trkpt>
      <trkpt lat="37.729034200" lon="-1.864207500">
        <ele>579.000000</ele>
        <time>2014-03-29T16:08:17Z</time>
      </trkpt>
      <trkpt lat="37.729081900" lon="-1.864091100">
        <ele>579.000000</ele>
        <time>2014-03-29T16:08:18Z</time>
      </trkpt>
      <trkpt lat="37.729122700" lon="-1.863968200">
        <ele>579.000000</ele>
        <time>2014-03-29T16:08:19Z</time>
      </trkpt>
      <trkpt lat="37.729162500" lon="-1.863837800">
        <ele>579.000000</ele>
        <time>2014-03-29T16:08:20Z</time>
      </trkpt>
      <trkpt lat="37.729200700" lon="-1.863702900">
        <ele>578.000000</ele>
        <time>2014-03-29T16:08:21Z</time>
      </trkpt>
      <trkpt lat="37.729239300" lon="-1.863562000">
        <ele>578.000000</ele>
        <time>2014-03-29T16:08:22Z</time>
      </trkpt>
      <trkpt lat="37.729274400" lon="-1.863418900">
        <ele>578.000000</ele>
        <time>2014-03-29T16:08:23Z</time>
      </trkpt>
      <trkpt lat="37.729311000" lon="-1.863273200">
        <ele>578.000000</ele>
        <time>2014-03-29T16:08:24Z</time>
      </trkpt>
      <trkpt lat="37.729347100" lon="-1.863126000">
        <ele>578.000000</ele>
        <time>2014-03-29T16:08:25Z</time>
      </trkpt>
      <trkpt lat="37.729380300" lon="-1.862973200">
        <ele>578.000000</ele>
        <time>2014-03-29T16:08:26Z</time>
      </trkpt>
      <trkpt lat="37.729409400" lon="-1.862810500">
        <ele>578.000000</ele>
        <time>2014-03-29T16:08:27Z</time>
      </trkpt>
      <trkpt lat="37.729440800" lon="-1.862649100">
        <ele>578.000000</ele>
        <time>2014-03-29T16:08:28Z</time>
      </trkpt>
      <trkpt lat="37.729473900" lon="-1.862488700">
        <ele>578.000000</ele>
        <time>2014-03-29T16:08:29Z</time>
      </trkpt>
      <trkpt lat="37.729511900" lon="-1.862320300">
        <ele>578.000000</ele>
        <time>2014-03-29T16:08:30Z</time>
      </trkpt>
      <trkpt lat="37.729547300" lon="-1.862155100">
        <ele>578.000000</ele>
        <time>2014-03-29T16:08:31Z</time>
      </trkpt>
      <trkpt lat="37.729584900" lon="-1.861988900">
        <ele>578.000000</ele>
        <time>2014-03-29T16:08:32Z</time>
      </trkpt>
      <trkpt lat="37.729624800" lon="-1.861822400">
        <ele>577.000000</ele>
        <time>2014-03-29T16:08:33Z</time>
      </trkpt>
      <trkpt lat="37.729665300" lon="-1.861656000">
        <ele>577.000000</ele>
        <time>2014-03-29T16:08:34Z</time>
      </trkpt>
      <trkpt lat="37.729702700" lon="-1.861492000">
        <ele>577.000000</ele>
        <time>2014-03-29T16:08:35Z</time>
      </trkpt>
      <trkpt lat="37.729739300" lon="-1.861329400">
        <ele>577.000000</ele>
        <time>2014-03-29T16:08:36Z</time>
      </trkpt>
      <trkpt lat="37.729773600" lon="-1.861168400">
        <ele>577.000000</ele>
        <time>2014-03-29T16:08:37Z</time>
      </trkpt>
      <trkpt lat="37.729807900" lon="-1.861014500">
        <ele>577.000000</ele>
        <time>2014-03-29T16:08:38Z</time>
      </trkpt>
      <trkpt lat="37.729841900" lon="-1.860862300">
        <ele>577.000000</ele>
        <time>2014-03-29T16:08:39Z</time>
      </trkpt>
      <trkpt lat="37.729877100" lon="-1.860714300">
        <ele>577.000000</ele>
        <time>2014-03-29T16:08:40Z</time>
      </trkpt>
      <trkpt lat="37.729913500" lon="-1.860571000">
        <ele>577.000000</ele>
        <time>2014-03-29T16:08:41Z</time>
      </trkpt>
      <trkpt lat="37.729952300" lon="-1.860431600">
        <ele>577.000000</ele>
        <time>2014-03-29T16:08:42Z</time>
      </trkpt>
      <trkpt lat="37.729990300" lon="-1.860292900">
        <ele>577.000000</ele>
        <time>2014-03-29T16:08:43Z</time>
      </trkpt>
      <trkpt lat="37.730021300" lon="-1.860153100">
        <ele>576.000000</ele>
        <time>2014-03-29T16:08:44Z</time>
      </trkpt>
      <trkpt lat="37.730023200" lon="-1.860012900">
        <ele>576.000000</ele>
        <time>2014-03-29T16:08:45Z</time>
      </trkpt>
      <trkpt lat="37.729992500" lon="-1.859872000">
        <ele>576.000000</ele>
        <time>2014-03-29T16:08:46Z</time>
      </trkpt>
      <trkpt lat="37.729931300" lon="-1.859755100">
        <ele>576.000000</ele>
        <time>2014-03-29T16:08:47Z</time>
      </trkpt>
      <trkpt lat="37.729831300" lon="-1.859686400">
        <ele>576.000000</ele>
        <time>2014-03-29T16:08:48Z</time>
      </trkpt>
      <trkpt lat="37.729723200" lon="-1.859617900">
        <ele>576.000000</ele>
        <time>2014-03-29T16:08:49Z</time>
      </trkpt>
      <trkpt lat="37.729604900" lon="-1.859562100">
        <ele>576.000000</ele>
        <time>2014-03-29T16:08:50Z</time>
      </trkpt>
      <trkpt lat="37.729470800" lon="-1.859523200">
        <ele>576.000000</ele>
        <time>2014-03-29T16:08:51Z</time>
      </trkpt>
      <trkpt lat="37.729345400" lon="-1.859474200">
        <ele>576.000000</ele>
        <time>2014-03-29T16:08:52Z</time>
      </trkpt>
      <trkpt lat="37.729224400" lon="-1.859421000">
        <ele>576.000000</ele>
        <time>2014-03-29T16:08:53Z</time>
      </trkpt>
      <trkpt lat="37.729106300" lon="-1.859362700">
        <ele>576.000000</ele>
        <time>2014-03-29T16:08:54Z</time>
      </trkpt>
      <trkpt lat="37.728985700" lon="-1.859307700">
        <ele>576.000000</ele>
        <time>2014-03-29T16:08:55Z</time>
      </trkpt>
      <trkpt lat="37.728863900" lon="-1.859257300">
        <ele>576.000000</ele>
        <time>2014-03-29T16:08:56Z</time>
      </trkpt>
      <trkpt lat="37.728740300" lon="-1.859208900">
        <ele>576.000000</ele>
        <time>2014-03-29T16:08:57Z</time>
      </trkpt>
      <trkpt lat="37.728617000" lon="-1.859162900">
        <ele>576.000000</ele>
        <time>2014-03-29T16:08:58Z</time>
      </trkpt>
      <trkpt lat="37.728500400" lon="-1.859120900">
        <ele>576.000000</ele>
        <time>2014-03-29T16:08:59Z</time>
      </trkpt>
      <trkpt lat="37.728386100" lon="-1.859084300">
        <ele>576.000000</ele>
        <time>2014-03-29T16:09:00Z</time>
      </trkpt>
      <trkpt lat="37.728278500" lon="-1.859049700">
        <ele>576.000000</ele>
        <time>2014-03-29T16:09:01Z</time>
      </trkpt>
      <trkpt lat="37.728173900" lon="-1.859012600">
        <ele>576.000000</ele>
        <time>2014-03-29T16:09:02Z</time>
      </trkpt>
      <trkpt lat="37.728075500" lon="-1.858978400">
        <ele>576.000000</ele>
        <time>2014-03-29T16:09:03Z</time>
      </trkpt>
      <trkpt lat="37.727983800" lon="-1.858953400">
        <ele>576.000000</ele>
        <time>2014-03-29T16:09:04Z</time>
      </trkpt>
      <trkpt lat="37.727895100" lon="-1.858925600">
        <ele>576.000000</ele>
        <time>2014-03-29T16:09:05Z</time>
      </trkpt>
      <trkpt lat="37.727807400" lon="-1.858892500">
        <ele>576.000000</ele>
        <time>2014-03-29T16:09:06Z</time>
      </trkpt>
      <trkpt lat="37.727717200" lon="-1.858853300">
        <ele>576.000000</ele>
        <time>2014-03-29T16:09:07Z</time>
      </trkpt>
      <trkpt lat="37.727629200" lon="-1.858809600">
        <ele>577.000000</ele>
        <time>2014-03-29T16:09:08Z</time>
      </trkpt>
      <trkpt lat="37.727542700" lon="-1.858767800">
        <ele>577.000000</ele>
        <time>2014-03-29T16:09:09Z</time>
      </trkpt>
      <trkpt lat="37.727458400" lon="-1.858721700">
        <ele>577.000000</ele>
        <time>2014-03-29T16:09:10Z</time>
      </trkpt>
      <trkpt lat="37.727376200" lon="-1.858670500">
        <ele>577.000000</ele>
        <time>2014-03-29T16:09:11Z</time>
      </trkpt>
      <trkpt lat="37.727296700" lon="-1.858619000">
        <ele>577.000000</ele>
        <time>2014-03-29T16:09:12Z</time>
      </trkpt>
      <trkpt lat="37.727215300" lon="-1.858567300">
        <ele>577.000000</ele>
        <time>2014-03-29T16:09:13Z</time>
      </trkpt>
      <trkpt lat="37.727133800" lon="-1.858516300">
        <ele>578.000000</ele>
        <time>2014-03-29T16:09:14Z</time>
      </trkpt>
      <trkpt lat="37.727054400" lon="-1.858462900">
        <ele>578.000000</ele>
        <time>2014-03-29T16:09:15Z</time>
      </trkpt>
      <trkpt lat="37.726971700" lon="-1.858409600">
        <ele>578.000000</ele>
        <time>2014-03-29T16:09:16Z</time>
      </trkpt>
      <trkpt lat="37.726894300" lon="-1.858355900">
        <ele>578.000000</ele>
        <time>2014-03-29T16:09:17Z</time>
      </trkpt>
      <trkpt lat="37.726818000" lon="-1.858304900">
        <ele>579.000000</ele>
        <time>2014-03-29T16:09:18Z</time>
      </trkpt>
      <trkpt lat="37.726741400" lon="-1.858256500">
        <ele>579.000000</ele>
        <time>2014-03-29T16:09:19Z</time>
      </trkpt>
      <trkpt lat="37.726667700" lon="-1.858204200">
        <ele>579.000000</ele>
        <time>2014-03-29T16:09:20Z</time>
      </trkpt>
      <trkpt lat="37.726593200" lon="-1.858151900">
        <ele>579.000000</ele>
        <time>2014-03-29T16:09:21Z</time>
      </trkpt>
      <trkpt lat="37.726515000" lon="-1.858097400">
        <ele>579.000000</ele>
        <time>2014-03-29T16:09:22Z</time>
      </trkpt>
      <trkpt lat="37.726445200" lon="-1.858042000">
        <ele>580.000000</ele>
        <time>2014-03-29T16:09:23Z</time>
      </trkpt>
      <trkpt lat="37.726376700" lon="-1.857983800">
        <ele>580.000000</ele>
        <time>2014-03-29T16:09:24Z</time>
      </trkpt>
      <trkpt lat="37.726305800" lon="-1.857922100">
        <ele>580.000000</ele>
        <time>2014-03-29T16:09:25Z</time>
      </trkpt>
      <trkpt lat="37.726235000" lon="-1.857852700">
        <ele>580.000000</ele>
        <time>2014-03-29T16:09:26Z</time>
      </trkpt>
      <trkpt lat="37.726165600" lon="-1.857783800">
        <ele>581.000000</ele>
        <time>2014-03-29T16:09:27Z</time>
      </trkpt>
      <trkpt lat="37.726097100" lon="-1.857714400">
        <ele>581.000000</ele>
        <time>2014-03-29T16:09:28Z</time>
      </trkpt>
      <trkpt lat="37.726031300" lon="-1.857645200">
        <ele>581.000000</ele>
        <time>2014-03-29T16:09:29Z</time>
      </trkpt>
      <trkpt lat="37.725964900" lon="-1.857576900">
        <ele>581.000000</ele>
        <time>2014-03-29T16:09:30Z</time>
      </trkpt>
      <trkpt lat="37.725895400" lon="-1.857513700">
        <ele>581.000000</ele>
        <time>2014-03-29T16:09:31Z</time>
      </trkpt>
      <trkpt lat="37.725828800" lon="-1.857455800">
        <ele>581.000000</ele>
        <time>2014-03-29T16:09:32Z</time>
      </trkpt>
      <trkpt lat="37.725761000" lon="-1.857396200">
        <ele>581.000000</ele>
        <time>2014-03-29T16:09:33Z</time>
      </trkpt>
      <trkpt lat="37.725695200" lon="-1.857329900">
        <ele>582.000000</ele>
        <time>2014-03-29T16:09:34Z</time>
      </trkpt>
      <trkpt lat="37.725629800" lon="-1.857260800">
        <ele>582.000000</ele>
        <time>2014-03-29T16:09:35Z</time>
      </trkpt>
      <trkpt lat="37.725562600" lon="-1.857191500">
        <ele>582.000000</ele>
        <time>2014-03-29T16:09:36Z</time>
      </trkpt>
      <trkpt lat="37.725496400" lon="-1.857120500">
        <ele>582.000000</ele>
        <time>2014-03-29T16:09:37Z</time>
      </trkpt>
      <trkpt lat="37.725433200" lon="-1.857051700">
        <ele>582.000000</ele>
        <time>2014-03-29T16:09:38Z</time>
      </trkpt>
      <trkpt lat="37.725366400" lon="-1.856982800">
        <ele>582.000000</ele>
        <time>2014-03-29T16:09:39Z</time>
      </trkpt>
      <trkpt lat="37.725298500" lon="-1.856913900">
        <ele>583.000000</ele>
        <time>2014-03-29T16:09:40Z</time>
      </trkpt>
      <trkpt lat="37.725231000" lon="-1.856847000">
        <ele>583.000000</ele>
        <time>2014-03-29T16:09:41Z</time>
      </trkpt>
      <trkpt lat="37.725164500" lon="-1.856782500">
        <ele>583.000000</ele>
        <time>2014-03-29T16:09:42Z</time>
      </trkpt>
      <trkpt lat="37.725099600" lon="-1.856722900">
        <ele>583.000000</ele>
        <time>2014-03-29T16:09:43Z</time>
      </trkpt>
      <trkpt lat="37.725034300" lon="-1.856664700">
        <ele>583.000000</ele>
        <time>2014-03-29T16:09:44Z</time>
      </trkpt>
      <trkpt lat="37.724971300" lon="-1.856605500">
        <ele>583.000000</ele>
        <time>2014-03-29T16:09:45Z</time>
      </trkpt>
      <trkpt lat="37.724907500" lon="-1.856548000">
        <ele>583.000000</ele>
        <time>2014-03-29T16:09:46Z</time>
      </trkpt>
      <trkpt lat="37.724843500" lon="-1.856492400">
        <ele>584.000000</ele>
        <time>2014-03-29T16:09:47Z</time>
      </trkpt>
      <trkpt lat="37.724781300" lon="-1.856435100">
        <ele>584.000000</ele>
        <time>2014-03-29T16:09:48Z</time>
      </trkpt>
      <trkpt lat="37.724720400" lon="-1.856376400">
        <ele>584.000000</ele>
        <time>2014-03-29T16:09:49Z</time>
      </trkpt>
      <trkpt lat="37.724659000" lon="-1.856316000">
        <ele>584.000000</ele>
        <time>2014-03-29T16:09:50Z</time>
      </trkpt>
      <trkpt lat="37.724597000" lon="-1.856256300">
        <ele>584.000000</ele>
        <time>2014-03-29T16:09:51Z</time>
      </trkpt>
      <trkpt lat="37.724535200" lon="-1.856197900">
        <ele>585.000000</ele>
        <time>2014-03-29T16:09:52Z</time>
      </trkpt>
      <trkpt lat="37.724476600" lon="-1.856137800">
        <ele>585.000000</ele>
        <time>2014-03-29T16:09:53Z</time>
      </trkpt>
      <trkpt lat="37.724419500" lon="-1.856079200">
        <ele>585.000000</ele>
        <time>2014-03-29T16:09:54Z</time>
      </trkpt>
      <trkpt lat="37.724360000" lon="-1.856023400">
        <ele>585.000000</ele>
        <time>2014-03-29T16:09:55Z</time>
      </trkpt>
      <trkpt lat="37.724302600" lon="-1.855970800">
        <ele>586.000000</ele>
        <time>2014-03-29T16:09:56Z</time>
      </trkpt>
      <trkpt lat="37.724242300" lon="-1.855915400">
        <ele>586.000000</ele>
        <time>2014-03-29T16:09:57Z</time>
      </trkpt>
      <trkpt lat="37.724181700" lon="-1.855857400">
        <ele>586.000000</ele>
        <time>2014-03-29T16:09:58Z</time>
      </trkpt>
      <trkpt lat="37.724123500" lon="-1.855799300">
        <ele>587.000000</ele>
        <time>2014-03-29T16:09:59Z</time>
      </trkpt>
      <trkpt lat="37.724063600" lon="-1.855742600">
        <ele>587.000000</ele>
        <time>2014-03-29T16:10:00Z</time>
      </trkpt>
      <trkpt lat="37.724001300" lon="-1.855685800">
        <ele>588.000000</ele>
        <time>2014-03-29T16:10:01Z</time>
      </trkpt>
      <trkpt lat="37.723942200" lon="-1.855622600">
        <ele>588.000000</ele>
        <time>2014-03-29T16:10:02Z</time>
      </trkpt>
      <trkpt lat="37.723886900" lon="-1.855557400">
        <ele>588.000000</ele>
        <time>2014-03-29T16:10:03Z</time>
      </trkpt>
      <trkpt lat="37.723832900" lon="-1.855491800">
        <ele>589.000000</ele>
        <time>2014-03-29T16:10:04Z</time>
      </trkpt>
      <trkpt lat="37.723776300" lon="-1.855427000">
        <ele>589.000000</ele>
        <time>2014-03-29T16:10:05Z</time>
      </trkpt>
      <trkpt lat="37.723722500" lon="-1.855364000">
        <ele>589.000000</ele>
        <time>2014-03-29T16:10:06Z</time>
      </trkpt>
      <trkpt lat="37.723671200" lon="-1.855303700">
        <ele>590.000000</ele>
        <time>2014-03-29T16:10:07Z</time>
      </trkpt>
      <trkpt lat="37.723618900" lon="-1.855244300">
        <ele>590.000000</ele>
        <time>2014-03-29T16:10:08Z</time>
      </trkpt>
      <trkpt lat="37.723567300" lon="-1.855186500">
        <ele>590.000000</ele>
        <time>2014-03-29T16:10:09Z</time>
      </trkpt>
      <trkpt lat="37.723517700" lon="-1.855125200">
        <ele>590.000000</ele>
        <time>2014-03-29T16:10:10Z</time>
      </trkpt>
      <trkpt lat="37.723467800" lon="-1.855061500">
        <ele>590.000000</ele>
        <time>2014-03-29T16:10:11Z</time>
      </trkpt>
      <trkpt lat="37.723417400" lon="-1.855000200">
        <ele>591.000000</ele>
        <time>2014-03-29T16:10:12Z</time>
      </trkpt>
      <trkpt lat="37.723364000" lon="-1.854946300">
        <ele>591.000000</ele>
        <time>2014-03-29T16:10:13Z</time>
      </trkpt>
      <trkpt lat="37.723310800" lon="-1.854897200">
        <ele>591.000000</ele>
        <time>2014-03-29T16:10:14Z</time>
      </trkpt>
      <trkpt lat="37.723256900" lon="-1.854854200">
        <ele>591.000000</ele>
        <time>2014-03-29T16:10:15Z</time>
      </trkpt>
      <trkpt lat="37.723200800" lon="-1.854816800">
        <ele>591.000000</ele>
        <time>2014-03-29T16:10:16Z</time>
      </trkpt>
      <trkpt lat="37.723144800" lon="-1.854787200">
        <ele>591.000000</ele>
        <time>2014-03-29T16:10:17Z</time>
      </trkpt>
      <trkpt lat="37.723089400" lon="-1.854762100">
        <ele>592.000000</ele>
        <time>2014-03-29T16:10:18Z</time>
      </trkpt>
      <trkpt lat="37.723037700" lon="-1.854737700">
        <ele>592.000000</ele>
        <time>2014-03-29T16:10:19Z</time>
      </trkpt>
      <trkpt lat="37.722987300" lon="-1.854718900">
        <ele>592.000000</ele>
        <time>2014-03-29T16:10:20Z</time>
      </trkpt>
      <trkpt lat="37.722933400" lon="-1.854698300">
        <ele>592.000000</ele>
        <time>2014-03-29T16:10:21Z</time>
      </trkpt>
      <trkpt lat="37.722877000" lon="-1.854671100">
        <ele>592.000000</ele>
        <time>2014-03-29T16:10:22Z</time>
      </trkpt>
      <trkpt lat="37.722820000" lon="-1.854641200">
        <ele>593.000000</ele>
        <time>2014-03-29T16:10:23Z</time>
      </trkpt>
      <trkpt lat="37.722763300" lon="-1.854610700">
        <ele>593.000000</ele>
        <time>2014-03-29T16:10:24Z</time>
      </trkpt>
      <trkpt lat="37.722703200" lon="-1.854581300">
        <ele>593.000000</ele>
        <time>2014-03-29T16:10:25Z</time>
      </trkpt>
      <trkpt lat="37.722642500" lon="-1.854552800">
        <ele>593.000000</ele>
        <time>2014-03-29T16:10:26Z</time>
      </trkpt>
      <trkpt lat="37.722580300" lon="-1.854528200">
        <ele>594.000000</ele>
        <time>2014-03-29T16:10:27Z</time>
      </trkpt>
      <trkpt lat="37.722520400" lon="-1.854503400">
        <ele>594.000000</ele>
        <time>2014-03-29T16:10:28Z</time>
      </trkpt>
      <trkpt lat="37.722462400" lon="-1.854476200">
        <ele>594.000000</ele>
        <time>2014-03-29T16:10:29Z</time>
      </trkpt>
      <trkpt lat="37.722404200" lon="-1.854452300">
        <ele>595.000000</ele>
        <time>2014-03-29T16:10:30Z</time>
      </trkpt>
      <trkpt lat="37.722347500" lon="-1.854431100">
        <ele>595.000000</ele>
        <time>2014-03-29T16:10:31Z</time>
      </trkpt>
      <trkpt lat="37.722291800" lon="-1.854408000">
        <ele>595.000000</ele>
        <time>2014-03-29T16:10:32Z</time>
      </trkpt>
      <trkpt lat="37.722237200" lon="-1.854385200">
        <ele>596.000000</ele>
        <time>2014-03-29T16:10:33Z</time>
      </trkpt>
      <trkpt lat="37.722187900" lon="-1.854364600">
        <ele>596.000000</ele>
        <time>2014-03-29T16:10:34Z</time>
      </trkpt>
      <trkpt lat="37.722137800" lon="-1.854342200">
        <ele>596.000000</ele>
        <time>2014-03-29T16:10:35Z</time>
      </trkpt>
      <trkpt lat="37.722089100" lon="-1.854317900">
        <ele>596.000000</ele>
        <time>2014-03-29T16:10:36Z</time>
      </trkpt>
      <trkpt lat="37.722042200" lon="-1.854292300">
        <ele>597.000000</ele>
        <time>2014-03-29T16:10:37Z</time>
      </trkpt>
      <trkpt lat="37.721997900" lon="-1.854265100">
        <ele>597.000000</ele>
        <time>2014-03-29T16:10:38Z</time>
      </trkpt>
      <trkpt lat="37.721954500" lon="-1.854235000">
        <ele>597.000000</ele>
        <time>2014-03-29T16:10:39Z</time>
      </trkpt>
      <trkpt lat="37.721911000" lon="-1.854204000">
        <ele>598.000000</ele>
        <time>2014-03-29T16:10:40Z</time>
      </trkpt>
      <trkpt lat="37.721868400" lon="-1.854172400">
        <ele>598.000000</ele>
        <time>2014-03-29T16:10:41Z</time>
      </trkpt>
      <trkpt lat="37.721832100" lon="-1.854141600">
        <ele>598.000000</ele>
        <time>2014-03-29T16:10:42Z</time>
      </trkpt>
      <trkpt lat="37.721795500" lon="-1.854109000">
        <ele>599.000000</ele>
        <time>2014-03-29T16:10:43Z</time>
      </trkpt>
      <trkpt lat="37.721756600" lon="-1.854071900">
        <ele>599.000000</ele>
        <time>2014-03-29T16:10:44Z</time>
      </trkpt>
      <trkpt lat="37.721719100" lon="-1.854034800">
        <ele>599.000000</ele>
        <time>2014-03-29T16:10:45Z</time>
      </trkpt>
      <trkpt lat="37.721681300" lon="-1.853997200">
        <ele>600.000000</ele>
        <time>2014-03-29T16:10:46Z</time>
      </trkpt>
      <trkpt lat="37.721644300" lon="-1.853957100">
        <ele>600.000000</ele>
        <time>2014-03-29T16:10:47Z</time>
      </trkpt>
      <trkpt lat="37.721610100" lon="-1.853916600">
        <ele>601.000000</ele>
        <time>2014-03-29T16:10:48Z</time>
      </trkpt>
      <trkpt lat="37.721575300" lon="-1.853877100">
        <ele>601.000000</ele>
        <time>2014-03-29T16:10:49Z</time>
      </trkpt>
      <trkpt lat="37.721542200" lon="-1.853836100">
        <ele>601.000000</ele>
        <time>2014-03-29T16:10:50Z</time>
      </trkpt>
      <trkpt lat="37.721512300" lon="-1.853794000">
        <ele>602.000000</ele>
        <time>2014-03-29T16:10:51Z</time>
      </trkpt>
      <trkpt lat="37.721482100" lon="-1.853751000">
        <ele>602.000000</ele>
        <time>2014-03-29T16:10:52Z</time>
      </trkpt>
      <trkpt lat="37.721452600" lon="-1.853706200">
        <ele>603.000000</ele>
        <time>2014-03-29T16:10:53Z</time>
      </trkpt>
      <trkpt lat="37.721422200" lon="-1.853661500">
        <ele>603.000000</ele>
        <time>2014-03-29T16:10:54Z</time>
      </trkpt>
      <trkpt lat="37.721389500" lon="-1.853613900">
        <ele>603.000000</ele>
        <time>2014-03-29T16:10:55Z</time>
      </trkpt>
      <trkpt lat="37.721358300" lon="-1.853562300">
        <ele>604.000000</ele>
        <time>2014-03-29T16:10:56Z</time>
      </trkpt>
      <trkpt lat="37.721327000" lon="-1.853512700">
        <ele>604.000000</ele>
        <time>2014-03-29T16:10:57Z</time>
      </trkpt>
      <trkpt lat="37.721299000" lon="-1.853463000">
        <ele>604.000000</ele>
        <time>2014-03-29T16:10:58Z</time>
      </trkpt>
      <trkpt lat="37.721272400" lon="-1.853414300">
        <ele>605.000000</ele>
        <time>2014-03-29T16:10:59Z</time>
      </trkpt>
      <trkpt lat="37.721247000" lon="-1.853364600">
        <ele>605.000000</ele>
        <time>2014-03-29T16:11:00Z</time>
      </trkpt>
      <trkpt lat="37.721222900" lon="-1.853313400">
        <ele>606.000000</ele>
        <time>2014-03-29T16:11:01Z</time>
      </trkpt>
      <trkpt lat="37.721198000" lon="-1.853260600">
        <ele>606.000000</ele>
        <time>2014-03-29T16:11:02Z</time>
      </trkpt>
      <trkpt lat="37.721172600" lon="-1.853206500">
        <ele>607.000000</ele>
        <time>2014-03-29T16:11:03Z</time>
      </trkpt>
      <trkpt lat="37.721144500" lon="-1.853156900">
        <ele>607.000000</ele>
        <time>2014-03-29T16:11:04Z</time>
      </trkpt>
      <trkpt lat="37.721117200" lon="-1.853111200">
        <ele>607.000000</ele>
        <time>2014-03-29T16:11:05Z</time>
      </trkpt>
      <trkpt lat="37.721093000" lon="-1.853064900">
        <ele>608.000000</ele>
        <time>2014-03-29T16:11:06Z</time>
      </trkpt>
      <trkpt lat="37.721071200" lon="-1.853015100">
        <ele>608.000000</ele>
        <time>2014-03-29T16:11:07Z</time>
      </trkpt>
      <trkpt lat="37.721054000" lon="-1.852961400">
        <ele>608.000000</ele>
        <time>2014-03-29T16:11:08Z</time>
      </trkpt>
      <trkpt lat="37.721043700" lon="-1.852907100">
        <ele>609.000000</ele>
        <time>2014-03-29T16:11:09Z</time>
      </trkpt>
      <trkpt lat="37.721030300" lon="-1.852852700">
        <ele>609.000000</ele>
        <time>2014-03-29T16:11:10Z</time>
      </trkpt>
      <trkpt lat="37.721014600" lon="-1.852797000">
        <ele>610.000000</ele>
        <time>2014-03-29T16:11:11Z</time>
      </trkpt>
      <trkpt lat="37.720999900" lon="-1.852743500">
        <ele>610.000000</ele>
        <time>2014-03-29T16:11:12Z</time>
      </trkpt>
      <trkpt lat="37.720984300" lon="-1.852688100">
        <ele>610.000000</ele>
        <time>2014-03-29T16:11:13Z</time>
      </trkpt>
      <trkpt lat="37.720970300" lon="-1.852633000">
        <ele>611.000000</ele>
        <time>2014-03-29T16:11:14Z</time>
      </trkpt>
      <trkpt lat="37.720960000" lon="-1.852577300">
        <ele>611.000000</ele>
        <time>2014-03-29T16:11:15Z</time>
      </trkpt>
      <trkpt lat="37.720951600" lon="-1.852521100">
        <ele>612.000000</ele>
        <time>2014-03-29T16:11:16Z</time>
      </trkpt>
      <trkpt lat="37.720945800" lon="-1.852461000">
        <ele>612.000000</ele>
        <time>2014-03-29T16:11:17Z</time>
      </trkpt>
      <trkpt lat="37.720936900" lon="-1.852403200">
        <ele>612.000000</ele>
        <time>2014-03-29T16:11:18Z</time>
      </trkpt>
      <trkpt lat="37.720927100" lon="-1.852347000">
        <ele>613.000000</ele>
        <time>2014-03-29T16:11:19Z</time>
      </trkpt>
      <trkpt lat="37.720922400" lon="-1.852290600">
        <ele>613.000000</ele>
        <time>2014-03-29T16:11:20Z</time>
      </trkpt>
      <trkpt lat="37.720918600" lon="-1.852230200">
        <ele>614.000000</ele>
        <time>2014-03-29T16:11:21Z</time>
      </trkpt>
      <trkpt lat="37.720915100" lon="-1.852164500">
        <ele>614.000000</ele>
        <time>2014-03-29T16:11:22Z</time>
      </trkpt>
      <trkpt lat="37.720908700" lon="-1.852103200">
        <ele>614.000000</ele>
        <time>2014-03-29T16:11:23Z</time>
      </trkpt>
      <trkpt lat="37.720903000" lon="-1.852042900">
        <ele>615.000000</ele>
        <time>2014-03-29T16:11:24Z</time>
      </trkpt>
      <trkpt lat="37.720897400" lon="-1.851979300">
        <ele>615.000000</ele>
        <time>2014-03-29T16:11:25Z</time>
      </trkpt>
      <trkpt lat="37.720891600" lon="-1.851912100">
        <ele>615.000000</ele>
        <time>2014-03-29T16:11:26Z</time>
      </trkpt>
      <trkpt lat="37.720887100" lon="-1.851846100">
        <ele>615.000000</ele>
        <time>2014-03-29T16:11:27Z</time>
      </trkpt>
      <trkpt lat="37.720884300" lon="-1.851782800">
        <ele>615.000000</ele>
        <time>2014-03-29T16:11:28Z</time>
      </trkpt>
      <trkpt lat="37.720880100" lon="-1.851716600">
        <ele>616.000000</ele>
        <time>2014-03-29T16:11:29Z</time>
      </trkpt>
      <trkpt lat="37.720872700" lon="-1.851653100">
        <ele>616.000000</ele>
        <time>2014-03-29T16:11:30Z</time>
      </trkpt>
      <trkpt lat="37.720863600" lon="-1.851589400">
        <ele>616.000000</ele>
        <time>2014-03-29T16:11:31Z</time>
      </trkpt>
      <trkpt lat="37.720852900" lon="-1.851524500">
        <ele>617.000000</ele>
        <time>2014-03-29T16:11:32Z</time>
      </trkpt>
      <trkpt lat="37.720841900" lon="-1.851461200">
        <ele>617.000000</ele>
        <time>2014-03-29T16:11:33Z</time>
      </trkpt>
      <trkpt lat="37.720828900" lon="-1.851399400">
        <ele>617.000000</ele>
        <time>2014-03-29T16:11:34Z</time>
      </trkpt>
      <trkpt lat="37.720816500" lon="-1.851337600">
        <ele>617.000000</ele>
        <time>2014-03-29T16:11:35Z</time>
      </trkpt>
      <trkpt lat="37.720799700" lon="-1.851271800">
        <ele>618.000000</ele>
        <time>2014-03-29T16:11:36Z</time>
      </trkpt>
      <trkpt lat="37.720782300" lon="-1.851202500">
        <ele>618.000000</ele>
        <time>2014-03-29T16:11:37Z</time>
      </trkpt>
      <trkpt lat="37.720766300" lon="-1.851128600">
        <ele>618.000000</ele>
        <time>2014-03-29T16:11:38Z</time>
      </trkpt>
      <trkpt lat="37.720752000" lon="-1.851051200">
        <ele>618.000000</ele>
        <time>2014-03-29T16:11:39Z</time>
      </trkpt>
      <trkpt lat="37.720736900" lon="-1.850968700">
        <ele>618.000000</ele>
        <time>2014-03-29T16:11:40Z</time>
      </trkpt>
      <trkpt lat="37.720722000" lon="-1.850884100">
        <ele>618.000000</ele>
        <time>2014-03-29T16:11:41Z</time>
      </trkpt>
      <trkpt lat="37.720706800" lon="-1.850797600">
        <ele>619.000000</ele>
        <time>2014-03-29T16:11:42Z</time>
      </trkpt>
      <trkpt lat="37.720688200" lon="-1.850711900">
        <ele>619.000000</ele>
        <time>2014-03-29T16:11:43Z</time>
      </trkpt>
      <trkpt lat="37.720670700" lon="-1.850630500">
        <ele>619.000000</ele>
        <time>2014-03-29T16:11:44Z</time>
      </trkpt>
      <trkpt lat="37.720654300" lon="-1.850554500">
        <ele>619.000000</ele>
        <time>2014-03-29T16:11:45Z</time>
      </trkpt>
      <trkpt lat="37.720635100" lon="-1.850474200">
        <ele>619.000000</ele>
        <time>2014-03-29T16:11:46Z</time>
      </trkpt>
      <trkpt lat="37.720613600" lon="-1.850387700">
        <ele>619.000000</ele>
        <time>2014-03-29T16:11:47Z</time>
      </trkpt>
      <trkpt lat="37.720599000" lon="-1.850301300">
        <ele>619.000000</ele>
        <time>2014-03-29T16:11:48Z</time>
      </trkpt>
      <trkpt lat="37.720586500" lon="-1.850212700">
        <ele>619.000000</ele>
        <time>2014-03-29T16:11:49Z</time>
      </trkpt>
      <trkpt lat="37.720573900" lon="-1.850119600">
        <ele>618.000000</ele>
        <time>2014-03-29T16:11:50Z</time>
      </trkpt>
      <trkpt lat="37.720564700" lon="-1.850026100">
        <ele>618.000000</ele>
        <time>2014-03-29T16:11:51Z</time>
      </trkpt>
      <trkpt lat="37.720560400" lon="-1.849933000">
        <ele>618.000000</ele>
        <time>2014-03-29T16:11:52Z</time>
      </trkpt>
      <trkpt lat="37.720559200" lon="-1.849836600">
        <ele>618.000000</ele>
        <time>2014-03-29T16:11:53Z</time>
      </trkpt>
      <trkpt lat="37.720562500" lon="-1.849738100">
        <ele>617.000000</ele>
        <time>2014-03-29T16:11:54Z</time>
      </trkpt>
      <trkpt lat="37.720572800" lon="-1.849637000">
        <ele>617.000000</ele>
        <time>2014-03-29T16:11:55Z</time>
      </trkpt>
      <trkpt lat="37.720585400" lon="-1.849531300">
        <ele>617.000000</ele>
        <time>2014-03-29T16:11:56Z</time>
      </trkpt>
      <trkpt lat="37.720598000" lon="-1.849421200">
        <ele>617.000000</ele>
        <time>2014-03-29T16:11:57Z</time>
      </trkpt>
      <trkpt lat="37.720607900" lon="-1.849310800">
        <ele>617.000000</ele>
        <time>2014-03-29T16:11:58Z</time>
      </trkpt>
      <trkpt lat="37.720617600" lon="-1.849197200">
        <ele>616.000000</ele>
        <time>2014-03-29T16:11:59Z</time>
      </trkpt>
      <trkpt lat="37.720629200" lon="-1.849080100">
        <ele>616.000000</ele>
        <time>2014-03-29T16:12:00Z</time>
      </trkpt>
      <trkpt lat="37.720644600" lon="-1.848958600">
        <ele>616.000000</ele>
        <time>2014-03-29T16:12:01Z</time>
      </trkpt>
      <trkpt lat="37.720659500" lon="-1.848830100">
        <ele>616.000000</ele>
        <time>2014-03-29T16:12:02Z</time>
      </trkpt>
      <trkpt lat="37.720671200" lon="-1.848695700">
        <ele>615.000000</ele>
        <time>2014-03-29T16:12:03Z</time>
      </trkpt>
      <trkpt lat="37.720670900" lon="-1.848554900">
        <ele>615.000000</ele>
        <time>2014-03-29T16:12:04Z</time>
      </trkpt>
      <trkpt lat="37.720658300" lon="-1.848412900">
        <ele>615.000000</ele>
        <time>2014-03-29T16:12:05Z</time>
      </trkpt>
      <trkpt lat="37.720631400" lon="-1.848269700">
        <ele>614.000000</ele>
        <time>2014-03-29T16:12:06Z</time>
      </trkpt>
      <trkpt lat="37.720591800" lon="-1.848127600">
        <ele>614.000000</ele>
        <time>2014-03-29T16:12:07Z</time>
      </trkpt>
      <trkpt lat="37.720538000" lon="-1.847986900">
        <ele>614.000000</ele>
        <time>2014-03-29T16:12:08Z</time>
      </trkpt>
      <trkpt lat="37.720469900" lon="-1.847853500">
        <ele>613.000000</ele>
        <time>2014-03-29T16:12:09Z</time>
      </trkpt>
      <trkpt lat="37.720398100" lon="-1.847725500">
        <ele>613.000000</ele>
        <time>2014-03-29T16:12:10Z</time>
      </trkpt>
      <trkpt lat="37.720321300" lon="-1.847603700">
        <ele>612.000000</ele>
        <time>2014-03-29T16:12:11Z</time>
      </trkpt>
      <trkpt lat="37.720245000" lon="-1.847485500">
        <ele>612.000000</ele>
        <time>2014-03-29T16:12:12Z</time>
      </trkpt>
      <trkpt lat="37.720171500" lon="-1.847366900">
        <ele>611.000000</ele>
        <time>2014-03-29T16:12:13Z</time>
      </trkpt>
      <trkpt lat="37.720098300" lon="-1.847248300">
        <ele>611.000000</ele>
        <time>2014-03-29T16:12:14Z</time>
      </trkpt>
      <trkpt lat="37.720025600" lon="-1.847130500">
        <ele>610.000000</ele>
        <time>2014-03-29T16:12:15Z</time>
      </trkpt>
      <trkpt lat="37.719953500" lon="-1.847010900">
        <ele>610.000000</ele>
        <time>2014-03-29T16:12:16Z</time>
      </trkpt>
      <trkpt lat="37.719889700" lon="-1.846892500">
        <ele>609.000000</ele>
        <time>2014-03-29T16:12:17Z</time>
      </trkpt>
      <trkpt lat="37.719832000" lon="-1.846774500">
        <ele>609.000000</ele>
        <time>2014-03-29T16:12:18Z</time>
      </trkpt>
      <trkpt lat="37.719784200" lon="-1.846649400">
        <ele>608.000000</ele>
        <time>2014-03-29T16:12:19Z</time>
      </trkpt>
      <trkpt lat="37.719744200" lon="-1.846518300">
        <ele>608.000000</ele>
        <time>2014-03-29T16:12:20Z</time>
      </trkpt>
      <trkpt lat="37.719721300" lon="-1.846381300">
        <ele>607.000000</ele>
        <time>2014-03-29T16:12:21Z</time>
      </trkpt>
      <trkpt lat="37.719710800" lon="-1.846244000">
        <ele>606.000000</ele>
        <time>2014-03-29T16:12:22Z</time>
      </trkpt>
      <trkpt lat="37.719710800" lon="-1.846102700">
        <ele>606.000000</ele>
        <time>2014-03-29T16:12:23Z</time>
      </trkpt>
      <trkpt lat="37.719713900" lon="-1.845959100">
        <ele>606.000000</ele>
        <time>2014-03-29T16:12:24Z</time>
      </trkpt>
      <trkpt lat="37.719720000" lon="-1.845817000">
        <ele>605.000000</ele>
        <time>2014-03-29T16:12:25Z</time>
      </trkpt>
      <trkpt lat="37.719727500" lon="-1.845672800">
        <ele>605.000000</ele>
        <time>2014-03-29T16:12:26Z</time>
      </trkpt>
      <trkpt lat="37.719731400" lon="-1.845529800">
        <ele>605.000000</ele>
        <time>2014-03-29T16:12:27Z</time>
      </trkpt>
      <trkpt lat="37.719736800" lon="-1.845386000">
        <ele>604.000000</ele>
        <time>2014-03-29T16:12:28Z</time>
      </trkpt>
      <trkpt lat="37.719741600" lon="-1.845242200">
        <ele>604.000000</ele>
        <time>2014-03-29T16:12:29Z</time>
      </trkpt>
      <trkpt lat="37.719748200" lon="-1.845099300">
        <ele>603.000000</ele>
        <time>2014-03-29T16:12:30Z</time>
      </trkpt>
      <trkpt lat="37.719757400" lon="-1.844960400">
        <ele>603.000000</ele>
        <time>2014-03-29T16:12:31Z</time>
      </trkpt>
      <trkpt lat="37.719766900" lon="-1.844820500">
        <ele>602.000000</ele>
        <time>2014-03-29T16:12:32Z</time>
      </trkpt>
      <trkpt lat="37.719778300" lon="-1.844678100">
        <ele>601.000000</ele>
        <time>2014-03-29T16:12:33Z</time>
      </trkpt>
      <trkpt lat="37.719787700" lon="-1.844536500">
        <ele>601.000000</ele>
        <time>2014-03-29T16:12:34Z</time>
      </trkpt>
      <trkpt lat="37.719797900" lon="-1.844397400">
        <ele>600.000000</ele>
        <time>2014-03-29T16:12:35Z</time>
      </trkpt>
      <trkpt lat="37.719809600" lon="-1.844254500">
        <ele>600.000000</ele>
        <time>2014-03-29T16:12:36Z</time>
      </trkpt>
      <trkpt lat="37.719819900" lon="-1.844109600">
        <ele>599.000000</ele>
        <time>2014-03-29T16:12:37Z</time>
      </trkpt>
      <trkpt lat="37.719832400" lon="-1.843964200">
        <ele>598.000000</ele>
        <time>2014-03-29T16:12:38Z</time>
      </trkpt>
      <trkpt lat="37.719845900" lon="-1.843819100">
        <ele>598.000000</ele>
        <time>2014-03-29T16:12:39Z</time>
      </trkpt>
      <trkpt lat="37.719854300" lon="-1.843670700">
        <ele>597.000000</ele>
        <time>2014-03-29T16:12:40Z</time>
      </trkpt>
      <trkpt lat="37.719861900" lon="-1.843524500">
        <ele>596.000000</ele>
        <time>2014-03-29T16:12:41Z</time>
      </trkpt>
      <trkpt lat="37.719867900" lon="-1.843379400">
        <ele>596.000000</ele>
        <time>2014-03-29T16:12:42Z</time>
      </trkpt>
      <trkpt lat="37.719874400" lon="-1.843234600">
        <ele>595.000000</ele>
        <time>2014-03-29T16:12:43Z</time>
      </trkpt>
      <trkpt lat="37.719882200" lon="-1.843091900">
        <ele>595.000000</ele>
        <time>2014-03-29T16:12:44Z</time>
      </trkpt>
      <trkpt lat="37.719892700" lon="-1.842946200">
        <ele>594.000000</ele>
        <time>2014-03-29T16:12:45Z</time>
      </trkpt>
      <trkpt lat="37.719900500" lon="-1.842803100">
        <ele>594.000000</ele>
        <time>2014-03-29T16:12:46Z</time>
      </trkpt>
      <trkpt lat="37.719905300" lon="-1.842659700">
        <ele>594.000000</ele>
        <time>2014-03-29T16:12:47Z</time>
      </trkpt>
      <trkpt lat="37.719910800" lon="-1.842516100">
        <ele>593.000000</ele>
        <time>2014-03-29T16:12:48Z</time>
      </trkpt>
      <trkpt lat="37.719922200" lon="-1.842370600">
        <ele>593.000000</ele>
        <time>2014-03-29T16:12:49Z</time>
      </trkpt>
      <trkpt lat="37.719939500" lon="-1.842223800">
        <ele>593.000000</ele>
        <time>2014-03-29T16:12:50Z</time>
      </trkpt>
      <trkpt lat="37.719963500" lon="-1.842077000">
        <ele>592.000000</ele>
        <time>2014-03-29T16:12:51Z</time>
      </trkpt>
      <trkpt lat="37.719990900" lon="-1.841928100">
        <ele>592.000000</ele>
        <time>2014-03-29T16:12:52Z</time>
      </trkpt>
      <trkpt lat="37.720022200" lon="-1.841782000">
        <ele>592.000000</ele>
        <time>2014-03-29T16:12:53Z</time>
      </trkpt>
      <trkpt lat="37.720058600" lon="-1.841633900">
        <ele>592.000000</ele>
        <time>2014-03-29T16:12:54Z</time>
      </trkpt>
      <trkpt lat="37.720102900" lon="-1.841488300">
        <ele>591.000000</ele>
        <time>2014-03-29T16:12:55Z</time>
      </trkpt>
      <trkpt lat="37.720150900" lon="-1.841339800">
        <ele>591.000000</ele>
        <time>2014-03-29T16:12:56Z</time>
      </trkpt>
      <trkpt lat="37.720204500" lon="-1.841190500">
        <ele>590.000000</ele>
        <time>2014-03-29T16:12:57Z</time>
      </trkpt>
      <trkpt lat="37.720260900" lon="-1.841036900">
        <ele>590.000000</ele>
        <time>2014-03-29T16:12:58Z</time>
      </trkpt>
      <trkpt lat="37.720317200" lon="-1.840878600">
        <ele>590.000000</ele>
        <time>2014-03-29T16:12:59Z</time>
      </trkpt>
      <trkpt lat="37.720373700" lon="-1.840716200">
        <ele>589.000000</ele>
        <time>2014-03-29T16:13:00Z</time>
      </trkpt>
      <trkpt lat="37.720427400" lon="-1.840545500">
        <ele>589.000000</ele>
        <time>2014-03-29T16:13:01Z</time>
      </trkpt>
      <trkpt lat="37.720482000" lon="-1.840372400">
        <ele>588.000000</ele>
        <time>2014-03-29T16:13:02Z</time>
      </trkpt>
      <trkpt lat="37.720541600" lon="-1.840196100">
        <ele>587.000000</ele>
        <time>2014-03-29T16:13:03Z</time>
      </trkpt>
      <trkpt lat="37.720602400" lon="-1.840019000">
        <ele>587.000000</ele>
        <time>2014-03-29T16:13:04Z</time>
      </trkpt>
      <trkpt lat="37.720657700" lon="-1.839840100">
        <ele>586.000000</ele>
        <time>2014-03-29T16:13:05Z</time>
      </trkpt>
      <trkpt lat="37.720706500" lon="-1.839659000">
        <ele>585.000000</ele>
        <time>2014-03-29T16:13:06Z</time>
      </trkpt>
      <trkpt lat="37.720747500" lon="-1.839473800">
        <ele>585.000000</ele>
        <time>2014-03-29T16:13:07Z</time>
      </trkpt>
      <trkpt lat="37.720785400" lon="-1.839290900">
        <ele>584.000000</ele>
        <time>2014-03-29T16:13:08Z</time>
      </trkpt>
      <trkpt lat="37.720814500" lon="-1.839104700">
        <ele>583.000000</ele>
        <time>2014-03-29T16:13:09Z</time>
      </trkpt>
      <trkpt lat="37.720834100" lon="-1.838912800">
        <ele>582.000000</ele>
        <time>2014-03-29T16:13:10Z</time>
      </trkpt>
      <trkpt lat="37.720841200" lon="-1.838717300">
        <ele>581.000000</ele>
        <time>2014-03-29T16:13:11Z</time>
      </trkpt>
      <trkpt lat="37.720837200" lon="-1.838524400">
        <ele>581.000000</ele>
        <time>2014-03-29T16:13:12Z</time>
      </trkpt>
      <trkpt lat="37.720829900" lon="-1.838334400">
        <ele>580.000000</ele>
        <time>2014-03-29T16:13:13Z</time>
      </trkpt>
      <trkpt lat="37.720816300" lon="-1.838148700">
        <ele>579.000000</ele>
        <time>2014-03-29T16:13:14Z</time>
      </trkpt>
      <trkpt lat="37.720816300" lon="-1.838148700">
        <ele>579.000000</ele>
        <time>2014-03-29T16:13:15Z</time>
      </trkpt>
      <trkpt lat="37.720783800" lon="-1.837781200">
        <ele>578.000000</ele>
        <time>2014-03-29T16:13:16Z</time>
      </trkpt>
      <trkpt lat="37.720766900" lon="-1.837605600">
        <ele>577.000000</ele>
        <time>2014-03-29T16:13:17Z</time>
      </trkpt>
      <trkpt lat="37.720751900" lon="-1.837427600">
        <ele>576.000000</ele>
        <time>2014-03-29T16:13:18Z</time>
      </trkpt>
      <trkpt lat="37.720743000" lon="-1.837253300">
        <ele>576.000000</ele>
        <time>2014-03-29T16:13:19Z</time>
      </trkpt>
      <trkpt lat="37.720739600" lon="-1.837076600">
        <ele>575.000000</ele>
        <time>2014-03-29T16:13:20Z</time>
      </trkpt>
      <trkpt lat="37.720737900" lon="-1.836899100">
        <ele>574.000000</ele>
        <time>2014-03-29T16:13:21Z</time>
      </trkpt>
      <trkpt lat="37.720733000" lon="-1.836726700">
        <ele>574.000000</ele>
        <time>2014-03-29T16:13:22Z</time>
      </trkpt>
      <trkpt lat="37.720722400" lon="-1.836558600">
        <ele>573.000000</ele>
        <time>2014-03-29T16:13:23Z</time>
      </trkpt>
      <trkpt lat="37.720711000" lon="-1.836392600">
        <ele>573.000000</ele>
        <time>2014-03-29T16:13:24Z</time>
      </trkpt>
      <trkpt lat="37.720697600" lon="-1.836223900">
        <ele>572.000000</ele>
        <time>2014-03-29T16:13:25Z</time>
      </trkpt>
      <trkpt lat="37.720683500" lon="-1.836054500">
        <ele>572.000000</ele>
        <time>2014-03-29T16:13:26Z</time>
      </trkpt>
      <trkpt lat="37.720667400" lon="-1.835885600">
        <ele>572.000000</ele>
        <time>2014-03-29T16:13:27Z</time>
      </trkpt>
      <trkpt lat="37.720651900" lon="-1.835715300">
        <ele>571.000000</ele>
        <time>2014-03-29T16:13:28Z</time>
      </trkpt>
      <trkpt lat="37.720636700" lon="-1.835543100">
        <ele>571.000000</ele>
        <time>2014-03-29T16:13:29Z</time>
      </trkpt>
      <trkpt lat="37.720621200" lon="-1.835368000">
        <ele>571.000000</ele>
        <time>2014-03-29T16:13:30Z</time>
      </trkpt>
      <trkpt lat="37.720606600" lon="-1.835192400">
        <ele>570.000000</ele>
        <time>2014-03-29T16:13:31Z</time>
      </trkpt>
      <trkpt lat="37.720593700" lon="-1.835017900">
        <ele>570.000000</ele>
        <time>2014-03-29T16:13:32Z</time>
      </trkpt>
      <trkpt lat="37.720579600" lon="-1.834850700">
        <ele>570.000000</ele>
        <time>2014-03-29T16:13:33Z</time>
      </trkpt>
      <trkpt lat="37.720563800" lon="-1.834680300">
        <ele>570.000000</ele>
        <time>2014-03-29T16:13:34Z</time>
      </trkpt>
      <trkpt lat="37.720549500" lon="-1.834507600">
        <ele>569.000000</ele>
        <time>2014-03-29T16:13:35Z</time>
      </trkpt>
      <trkpt lat="37.720537700" lon="-1.834331300">
        <ele>569.000000</ele>
        <time>2014-03-29T16:13:36Z</time>
      </trkpt>
      <trkpt lat="37.720524800" lon="-1.834151900">
        <ele>568.000000</ele>
        <time>2014-03-29T16:13:37Z</time>
      </trkpt>
      <trkpt lat="37.720509300" lon="-1.833968400">
        <ele>568.000000</ele>
        <time>2014-03-29T16:13:38Z</time>
      </trkpt>
      <trkpt lat="37.720493600" lon="-1.833784500">
        <ele>567.000000</ele>
        <time>2014-03-29T16:13:39Z</time>
      </trkpt>
      <trkpt lat="37.720477600" lon="-1.833600500">
        <ele>567.000000</ele>
        <time>2014-03-29T16:13:40Z</time>
      </trkpt>
      <trkpt lat="37.720463400" lon="-1.833414000">
        <ele>566.000000</ele>
        <time>2014-03-29T16:13:41Z</time>
      </trkpt>
      <trkpt lat="37.720449600" lon="-1.833228100">
        <ele>566.000000</ele>
        <time>2014-03-29T16:13:42Z</time>
      </trkpt>
      <trkpt lat="37.720436100" lon="-1.833044700">
        <ele>565.000000</ele>
        <time>2014-03-29T16:13:43Z</time>
      </trkpt>
      <trkpt lat="37.720424300" lon="-1.832859000">
        <ele>564.000000</ele>
        <time>2014-03-29T16:13:44Z</time>
      </trkpt>
      <trkpt lat="37.720413200" lon="-1.832672900">
        <ele>564.000000</ele>
        <time>2014-03-29T16:13:45Z</time>
      </trkpt>
      <trkpt lat="37.720399400" lon="-1.832490400">
        <ele>563.000000</ele>
        <time>2014-03-29T16:13:46Z</time>
      </trkpt>
      <trkpt lat="37.720383700" lon="-1.832310100">
        <ele>563.000000</ele>
        <time>2014-03-29T16:13:47Z</time>
      </trkpt>
      <trkpt lat="37.720363000" lon="-1.832132500">
        <ele>562.000000</ele>
        <time>2014-03-29T16:13:48Z</time>
      </trkpt>
      <trkpt lat="37.720334700" lon="-1.831962300">
        <ele>562.000000</ele>
        <time>2014-03-29T16:13:49Z</time>
      </trkpt>
      <trkpt lat="37.720295200" lon="-1.831794200">
        <ele>562.000000</ele>
        <time>2014-03-29T16:13:50Z</time>
      </trkpt>
      <trkpt lat="37.720250100" lon="-1.831630900">
        <ele>561.000000</ele>
        <time>2014-03-29T16:13:51Z</time>
      </trkpt>
      <trkpt lat="37.720200900" lon="-1.831472900">
        <ele>561.000000</ele>
        <time>2014-03-29T16:13:52Z</time>
      </trkpt>
      <trkpt lat="37.720144000" lon="-1.831322600">
        <ele>561.000000</ele>
        <time>2014-03-29T16:13:53Z</time>
      </trkpt>
      <trkpt lat="37.720086000" lon="-1.831174600">
        <ele>561.000000</ele>
        <time>2014-03-29T16:13:54Z</time>
      </trkpt>
      <trkpt lat="37.720031300" lon="-1.831025900">
        <ele>560.000000</ele>
        <time>2014-03-29T16:13:55Z</time>
      </trkpt>
      <trkpt lat="37.719986400" lon="-1.830875300">
        <ele>560.000000</ele>
        <time>2014-03-29T16:13:56Z</time>
      </trkpt>
      <trkpt lat="37.719948900" lon="-1.830717800">
        <ele>560.000000</ele>
        <time>2014-03-29T16:13:57Z</time>
      </trkpt>
      <trkpt lat="37.719922000" lon="-1.830553100">
        <ele>560.000000</ele>
        <time>2014-03-29T16:13:58Z</time>
      </trkpt>
      <trkpt lat="37.719909400" lon="-1.830390700">
        <ele>560.000000</ele>
        <time>2014-03-29T16:13:59Z</time>
      </trkpt>
      <trkpt lat="37.719900900" lon="-1.830224400">
        <ele>559.000000</ele>
        <time>2014-03-29T16:14:00Z</time>
      </trkpt>
      <trkpt lat="37.719891400" lon="-1.830059800">
        <ele>559.000000</ele>
        <time>2014-03-29T16:14:01Z</time>
      </trkpt>
      <trkpt lat="37.719873900" lon="-1.829894400">
        <ele>559.000000</ele>
        <time>2014-03-29T16:14:02Z</time>
      </trkpt>
      <trkpt lat="37.719850600" lon="-1.829736600">
        <ele>558.000000</ele>
        <time>2014-03-29T16:14:03Z</time>
      </trkpt>
      <trkpt lat="37.719819600" lon="-1.829588800">
        <ele>558.000000</ele>
        <time>2014-03-29T16:14:04Z</time>
      </trkpt>
      <trkpt lat="37.719778100" lon="-1.829448000">
        <ele>558.000000</ele>
        <time>2014-03-29T16:14:05Z</time>
      </trkpt>
      <trkpt lat="37.719729400" lon="-1.829313200">
        <ele>557.000000</ele>
        <time>2014-03-29T16:14:06Z</time>
      </trkpt>
      <trkpt lat="37.719674600" lon="-1.829183900">
        <ele>557.000000</ele>
        <time>2014-03-29T16:14:07Z</time>
      </trkpt>
      <trkpt lat="37.719620400" lon="-1.829062500">
        <ele>557.000000</ele>
        <time>2014-03-29T16:14:08Z</time>
      </trkpt>
      <trkpt lat="37.719566400" lon="-1.828942100">
        <ele>556.000000</ele>
        <time>2014-03-29T16:14:09Z</time>
      </trkpt>
      <trkpt lat="37.719517000" lon="-1.828824400">
        <ele>556.000000</ele>
        <time>2014-03-29T16:14:10Z</time>
      </trkpt>
      <trkpt lat="37.719470500" lon="-1.828707900">
        <ele>555.000000</ele>
        <time>2014-03-29T16:14:11Z</time>
      </trkpt>
      <trkpt lat="37.719423400" lon="-1.828593800">
        <ele>555.000000</ele>
        <time>2014-03-29T16:14:12Z</time>
      </trkpt>
      <trkpt lat="37.719377700" lon="-1.828481800">
        <ele>555.000000</ele>
        <time>2014-03-29T16:14:13Z</time>
      </trkpt>
      <trkpt lat="37.719331800" lon="-1.828375700">
        <ele>554.000000</ele>
        <time>2014-03-29T16:14:14Z</time>
      </trkpt>
      <trkpt lat="37.719287600" lon="-1.828271300">
        <ele>554.000000</ele>
        <time>2014-03-29T16:14:15Z</time>
      </trkpt>
      <trkpt lat="37.719245000" lon="-1.828164900">
        <ele>554.000000</ele>
        <time>2014-03-29T16:14:16Z</time>
      </trkpt>
      <trkpt lat="37.719199600" lon="-1.828064000">
        <ele>554.000000</ele>
        <time>2014-03-29T16:14:17Z</time>
      </trkpt>
      <trkpt lat="37.719151400" lon="-1.827967000">
        <ele>553.000000</ele>
        <time>2014-03-29T16:14:18Z</time>
      </trkpt>
      <trkpt lat="37.719102400" lon="-1.827871600">
        <ele>553.000000</ele>
        <time>2014-03-29T16:14:19Z</time>
      </trkpt>
      <trkpt lat="37.719054600" lon="-1.827773500">
        <ele>553.000000</ele>
        <time>2014-03-29T16:14:20Z</time>
      </trkpt>
      <trkpt lat="37.719005300" lon="-1.827676200">
        <ele>553.000000</ele>
        <time>2014-03-29T16:14:21Z</time>
      </trkpt>
      <trkpt lat="37.718949600" lon="-1.827583700">
        <ele>553.000000</ele>
        <time>2014-03-29T16:14:22Z</time>
      </trkpt>
      <trkpt lat="37.718893400" lon="-1.827496900">
        <ele>552.000000</ele>
        <time>2014-03-29T16:14:23Z</time>
      </trkpt>
      <trkpt lat="37.718836500" lon="-1.827414300">
        <ele>552.000000</ele>
        <time>2014-03-29T16:14:24Z</time>
      </trkpt>
      <trkpt lat="37.718780400" lon="-1.827331500">
        <ele>552.000000</ele>
        <time>2014-03-29T16:14:25Z</time>
      </trkpt>
      <trkpt lat="37.718728300" lon="-1.827248300">
        <ele>552.000000</ele>
        <time>2014-03-29T16:14:26Z</time>
      </trkpt>
      <trkpt lat="37.718673900" lon="-1.827165200">
        <ele>552.000000</ele>
        <time>2014-03-29T16:14:27Z</time>
      </trkpt>
      <trkpt lat="37.718616600" lon="-1.827083900">
        <ele>552.000000</ele>
        <time>2014-03-29T16:14:28Z</time>
      </trkpt>
      <trkpt lat="37.718560000" lon="-1.827002800">
        <ele>552.000000</ele>
        <time>2014-03-29T16:14:29Z</time>
      </trkpt>
      <trkpt lat="37.718504000" lon="-1.826921300">
        <ele>551.000000</ele>
        <time>2014-03-29T16:14:30Z</time>
      </trkpt>
      <trkpt lat="37.718448300" lon="-1.826837500">
        <ele>551.000000</ele>
        <time>2014-03-29T16:14:31Z</time>
      </trkpt>
      <trkpt lat="37.718398300" lon="-1.826754200">
        <ele>551.000000</ele>
        <time>2014-03-29T16:14:32Z</time>
      </trkpt>
      <trkpt lat="37.718350300" lon="-1.826669500">
        <ele>551.000000</ele>
        <time>2014-03-29T16:14:33Z</time>
      </trkpt>
      <trkpt lat="37.718305400" lon="-1.826578300">
        <ele>551.000000</ele>
        <time>2014-03-29T16:14:34Z</time>
      </trkpt>
      <trkpt lat="37.718263500" lon="-1.826482500">
        <ele>551.000000</ele>
        <time>2014-03-29T16:14:35Z</time>
      </trkpt>
      <trkpt lat="37.718223700" lon="-1.826386300">
        <ele>550.000000</ele>
        <time>2014-03-29T16:14:36Z</time>
      </trkpt>
      <trkpt lat="37.718185000" lon="-1.826287500">
        <ele>550.000000</ele>
        <time>2014-03-29T16:14:37Z</time>
      </trkpt>
      <trkpt lat="37.718151200" lon="-1.826185800">
        <ele>550.000000</ele>
        <time>2014-03-29T16:14:38Z</time>
      </trkpt>
      <trkpt lat="37.718119300" lon="-1.826082300">
        <ele>550.000000</ele>
        <time>2014-03-29T16:14:39Z</time>
      </trkpt>
      <trkpt lat="37.718092800" lon="-1.825982200">
        <ele>550.000000</ele>
        <time>2014-03-29T16:14:40Z</time>
      </trkpt>
      <trkpt lat="37.718072900" lon="-1.825881400">
        <ele>550.000000</ele>
        <time>2014-03-29T16:14:41Z</time>
      </trkpt>
      <trkpt lat="37.718058800" lon="-1.825780100">
        <ele>550.000000</ele>
        <time>2014-03-29T16:14:42Z</time>
      </trkpt>
      <trkpt lat="37.718050000" lon="-1.825675500">
        <ele>550.000000</ele>
        <time>2014-03-29T16:14:43Z</time>
      </trkpt>
      <trkpt lat="37.718042000" lon="-1.825568300">
        <ele>549.000000</ele>
        <time>2014-03-29T16:14:44Z</time>
      </trkpt>
      <trkpt lat="37.718032600" lon="-1.825462200">
        <ele>549.000000</ele>
        <time>2014-03-29T16:14:45Z</time>
      </trkpt>
      <trkpt lat="37.718025400" lon="-1.825358800">
        <ele>549.000000</ele>
        <time>2014-03-29T16:14:46Z</time>
      </trkpt>
      <trkpt lat="37.718015400" lon="-1.825254600">
        <ele>549.000000</ele>
        <time>2014-03-29T16:14:47Z</time>
      </trkpt>
      <trkpt lat="37.718004000" lon="-1.825148700">
        <ele>549.000000</ele>
        <time>2014-03-29T16:14:48Z</time>
      </trkpt>
      <trkpt lat="37.717996700" lon="-1.825041700">
        <ele>549.000000</ele>
        <time>2014-03-29T16:14:49Z</time>
      </trkpt>
      <trkpt lat="37.717992900" lon="-1.824934700">
        <ele>549.000000</ele>
        <time>2014-03-29T16:14:50Z</time>
      </trkpt>
      <trkpt lat="37.717988100" lon="-1.824828600">
        <ele>548.000000</ele>
        <time>2014-03-29T16:14:51Z</time>
      </trkpt>
      <trkpt lat="37.717982700" lon="-1.824721400">
        <ele>548.000000</ele>
        <time>2014-03-29T16:14:52Z</time>
      </trkpt>
      <trkpt lat="37.717974800" lon="-1.824615400">
        <ele>548.000000</ele>
        <time>2014-03-29T16:14:53Z</time>
      </trkpt>
      <trkpt lat="37.717970300" lon="-1.824507100">
        <ele>548.000000</ele>
        <time>2014-03-29T16:14:54Z</time>
      </trkpt>
      <trkpt lat="37.717964900" lon="-1.824396700">
        <ele>548.000000</ele>
        <time>2014-03-29T16:14:55Z</time>
      </trkpt>
      <trkpt lat="37.717957900" lon="-1.824286100">
        <ele>548.000000</ele>
        <time>2014-03-29T16:14:56Z</time>
      </trkpt>
      <trkpt lat="37.717948800" lon="-1.824173100">
        <ele>548.000000</ele>
        <time>2014-03-29T16:14:57Z</time>
      </trkpt>
      <trkpt lat="37.717937700" lon="-1.824060700">
        <ele>548.000000</ele>
        <time>2014-03-29T16:14:58Z</time>
      </trkpt>
      <trkpt lat="37.717926200" lon="-1.823948800">
        <ele>547.000000</ele>
        <time>2014-03-29T16:14:59Z</time>
      </trkpt>
      <trkpt lat="37.717916300" lon="-1.823835100">
        <ele>547.000000</ele>
        <time>2014-03-29T16:15:00Z</time>
      </trkpt>
      <trkpt lat="37.717908100" lon="-1.823719800">
        <ele>547.000000</ele>
        <time>2014-03-29T16:15:01Z</time>
      </trkpt>
      <trkpt lat="37.717901500" lon="-1.823604200">
        <ele>547.000000</ele>
        <time>2014-03-29T16:15:02Z</time>
      </trkpt>
      <trkpt lat="37.717892000" lon="-1.823490300">
        <ele>547.000000</ele>
        <time>2014-03-29T16:15:03Z</time>
      </trkpt>
      <trkpt lat="37.717879600" lon="-1.823376200">
        <ele>547.000000</ele>
        <time>2014-03-29T16:15:04Z</time>
      </trkpt>
      <trkpt lat="37.717867600" lon="-1.823259500">
        <ele>547.000000</ele>
        <time>2014-03-29T16:15:05Z</time>
      </trkpt>
      <trkpt lat="37.717858300" lon="-1.823141400">
        <ele>547.000000</ele>
        <time>2014-03-29T16:15:06Z</time>
      </trkpt>
      <trkpt lat="37.717848600" lon="-1.823024300">
        <ele>547.000000</ele>
        <time>2014-03-29T16:15:07Z</time>
      </trkpt>
      <trkpt lat="37.717839700" lon="-1.822906600">
        <ele>546.000000</ele>
        <time>2014-03-29T16:15:08Z</time>
      </trkpt>
      <trkpt lat="37.717831000" lon="-1.822791600">
        <ele>546.000000</ele>
        <time>2014-03-29T16:15:09Z</time>
      </trkpt>
      <trkpt lat="37.717820300" lon="-1.822678500">
        <ele>546.000000</ele>
        <time>2014-03-29T16:15:10Z</time>
      </trkpt>
      <trkpt lat="37.717812000" lon="-1.822561800">
        <ele>546.000000</ele>
        <time>2014-03-29T16:15:11Z</time>
      </trkpt>
      <trkpt lat="37.717803800" lon="-1.822444200">
        <ele>546.000000</ele>
        <time>2014-03-29T16:15:12Z</time>
      </trkpt>
      <trkpt lat="37.717795900" lon="-1.822325000">
        <ele>546.000000</ele>
        <time>2014-03-29T16:15:13Z</time>
      </trkpt>
      <trkpt lat="37.717791800" lon="-1.822207800">
        <ele>545.000000</ele>
        <time>2014-03-29T16:15:14Z</time>
      </trkpt>
      <trkpt lat="37.717789100" lon="-1.822093400">
        <ele>545.000000</ele>
        <time>2014-03-29T16:15:15Z</time>
      </trkpt>
      <trkpt lat="37.717786800" lon="-1.821977000">
        <ele>545.000000</ele>
        <time>2014-03-29T16:15:16Z</time>
      </trkpt>
      <trkpt lat="37.717787600" lon="-1.821860600">
        <ele>545.000000</ele>
        <time>2014-03-29T16:15:17Z</time>
      </trkpt>
      <trkpt lat="37.717790600" lon="-1.821742600">
        <ele>544.000000</ele>
        <time>2014-03-29T16:15:18Z</time>
      </trkpt>
      <trkpt lat="37.717797900" lon="-1.821624500">
        <ele>544.000000</ele>
        <time>2014-03-29T16:15:19Z</time>
      </trkpt>
      <trkpt lat="37.717808100" lon="-1.821506400">
        <ele>544.000000</ele>
        <time>2014-03-29T16:15:20Z</time>
      </trkpt>
      <trkpt lat="37.717825100" lon="-1.821388700">
        <ele>544.000000</ele>
        <time>2014-03-29T16:15:21Z</time>
      </trkpt>
      <trkpt lat="37.717848200" lon="-1.821272200">
        <ele>544.000000</ele>
        <time>2014-03-29T16:15:22Z</time>
      </trkpt>
      <trkpt lat="37.717874900" lon="-1.821158900">
        <ele>543.000000</ele>
        <time>2014-03-29T16:15:23Z</time>
      </trkpt>
      <trkpt lat="37.717901300" lon="-1.821045300">
        <ele>543.000000</ele>
        <time>2014-03-29T16:15:24Z</time>
      </trkpt>
      <trkpt lat="37.717923100" lon="-1.820934300">
        <ele>543.000000</ele>
        <time>2014-03-29T16:15:25Z</time>
      </trkpt>
      <trkpt lat="37.717940100" lon="-1.820826500">
        <ele>543.000000</ele>
        <time>2014-03-29T16:15:26Z</time>
      </trkpt>
      <trkpt lat="37.717949100" lon="-1.820719800">
        <ele>543.000000</ele>
        <time>2014-03-29T16:15:27Z</time>
      </trkpt>
      <trkpt lat="37.717950300" lon="-1.820612800">
        <ele>542.000000</ele>
        <time>2014-03-29T16:15:28Z</time>
      </trkpt>
      <trkpt lat="37.717947900" lon="-1.820505600">
        <ele>542.000000</ele>
        <time>2014-03-29T16:15:29Z</time>
      </trkpt>
      <trkpt lat="37.717943500" lon="-1.820397500">
        <ele>542.000000</ele>
        <time>2014-03-29T16:15:30Z</time>
      </trkpt>
      <trkpt lat="37.717930600" lon="-1.820292800">
        <ele>542.000000</ele>
        <time>2014-03-29T16:15:31Z</time>
      </trkpt>
      <trkpt lat="37.717914800" lon="-1.820188000">
        <ele>542.000000</ele>
        <time>2014-03-29T16:15:32Z</time>
      </trkpt>
      <trkpt lat="37.717899100" lon="-1.820078300">
        <ele>542.000000</ele>
        <time>2014-03-29T16:15:33Z</time>
      </trkpt>
      <trkpt lat="37.717883000" lon="-1.819966400">
        <ele>542.000000</ele>
        <time>2014-03-29T16:15:34Z</time>
      </trkpt>
      <trkpt lat="37.717864800" lon="-1.819854300">
        <ele>542.000000</ele>
        <time>2014-03-29T16:15:35Z</time>
      </trkpt>
      <trkpt lat="37.717844900" lon="-1.819743600">
        <ele>542.000000</ele>
        <time>2014-03-29T16:15:36Z</time>
      </trkpt>
      <trkpt lat="37.717827300" lon="-1.819632700">
        <ele>542.000000</ele>
        <time>2014-03-29T16:15:37Z</time>
      </trkpt>
      <trkpt lat="37.717813400" lon="-1.819517300">
        <ele>543.000000</ele>
        <time>2014-03-29T16:15:38Z</time>
      </trkpt>
      <trkpt lat="37.717801500" lon="-1.819400200">
        <ele>543.000000</ele>
        <time>2014-03-29T16:15:39Z</time>
      </trkpt>
      <trkpt lat="37.717784900" lon="-1.819280700">
        <ele>543.000000</ele>
        <time>2014-03-29T16:15:40Z</time>
      </trkpt>
      <trkpt lat="37.717767000" lon="-1.819159300">
        <ele>543.000000</ele>
        <time>2014-03-29T16:15:41Z</time>
      </trkpt>
      <trkpt lat="37.717750600" lon="-1.819035200">
        <ele>543.000000</ele>
        <time>2014-03-29T16:15:42Z</time>
      </trkpt>
      <trkpt lat="37.717735800" lon="-1.818914200">
        <ele>543.000000</ele>
        <time>2014-03-29T16:15:43Z</time>
      </trkpt>
      <trkpt lat="37.717723300" lon="-1.818798700">
        <ele>543.000000</ele>
        <time>2014-03-29T16:15:44Z</time>
      </trkpt>
      <trkpt lat="37.717711700" lon="-1.818679700">
        <ele>544.000000</ele>
        <time>2014-03-29T16:15:45Z</time>
      </trkpt>
      <trkpt lat="37.717701700" lon="-1.818553600">
        <ele>544.000000</ele>
        <time>2014-03-29T16:15:46Z</time>
      </trkpt>
      <trkpt lat="37.717693300" lon="-1.818430900">
        <ele>544.000000</ele>
        <time>2014-03-29T16:15:47Z</time>
      </trkpt>
      <trkpt lat="37.717682000" lon="-1.818311000">
        <ele>544.000000</ele>
        <time>2014-03-29T16:15:48Z</time>
      </trkpt>
      <trkpt lat="37.717670300" lon="-1.818196200">
        <ele>544.000000</ele>
        <time>2014-03-29T16:15:49Z</time>
      </trkpt>
      <trkpt lat="37.717655100" lon="-1.818078600">
        <ele>544.000000</ele>
        <time>2014-03-29T16:15:50Z</time>
      </trkpt>
      <trkpt lat="37.717636000" lon="-1.817960900">
        <ele>544.000000</ele>
        <time>2014-03-29T16:15:51Z</time>
      </trkpt>
      <trkpt lat="37.717610000" lon="-1.817843200">
        <ele>544.000000</ele>
        <time>2014-03-29T16:15:52Z</time>
      </trkpt>
      <trkpt lat="37.717584800" lon="-1.817725800">
        <ele>544.000000</ele>
        <time>2014-03-29T16:15:53Z</time>
      </trkpt>
      <trkpt lat="37.717561100" lon="-1.817604500">
        <ele>544.000000</ele>
        <time>2014-03-29T16:15:54Z</time>
      </trkpt>
      <trkpt lat="37.717541700" lon="-1.817477800">
        <ele>544.000000</ele>
        <time>2014-03-29T16:15:55Z</time>
      </trkpt>
      <trkpt lat="37.717526300" lon="-1.817351400">
        <ele>544.000000</ele>
        <time>2014-03-29T16:15:56Z</time>
      </trkpt>
      <trkpt lat="37.717508600" lon="-1.817225200">
        <ele>544.000000</ele>
        <time>2014-03-29T16:15:57Z</time>
      </trkpt>
      <trkpt lat="37.717487300" lon="-1.817096400">
        <ele>543.000000</ele>
        <time>2014-03-29T16:15:58Z</time>
      </trkpt>
      <trkpt lat="37.717463800" lon="-1.816964500">
        <ele>543.000000</ele>
        <time>2014-03-29T16:15:59Z</time>
      </trkpt>
      <trkpt lat="37.717441300" lon="-1.816833400">
        <ele>543.000000</ele>
        <time>2014-03-29T16:16:00Z</time>
      </trkpt>
      <trkpt lat="37.717421100" lon="-1.816703300">
        <ele>542.000000</ele>
        <time>2014-03-29T16:16:01Z</time>
      </trkpt>
      <trkpt lat="37.717401000" lon="-1.816567300">
        <ele>542.000000</ele>
        <time>2014-03-29T16:16:02Z</time>
      </trkpt>
      <trkpt lat="37.717383000" lon="-1.816430600">
        <ele>542.000000</ele>
        <time>2014-03-29T16:16:03Z</time>
      </trkpt>
      <trkpt lat="37.717366300" lon="-1.816293500">
        <ele>541.000000</ele>
        <time>2014-03-29T16:16:04Z</time>
      </trkpt>
      <trkpt lat="37.717351200" lon="-1.816154400">
        <ele>541.000000</ele>
        <time>2014-03-29T16:16:05Z</time>
      </trkpt>
      <trkpt lat="37.717332700" lon="-1.816013400">
        <ele>541.000000</ele>
        <time>2014-03-29T16:16:06Z</time>
      </trkpt>
      <trkpt lat="37.717310300" lon="-1.815870100">
        <ele>540.000000</ele>
        <time>2014-03-29T16:16:07Z</time>
      </trkpt>
      <trkpt lat="37.717285400" lon="-1.815724900">
        <ele>540.000000</ele>
        <time>2014-03-29T16:16:08Z</time>
      </trkpt>
      <trkpt lat="37.717258500" lon="-1.815578000">
        <ele>539.000000</ele>
        <time>2014-03-29T16:16:09Z</time>
      </trkpt>
      <trkpt lat="37.717227600" lon="-1.815431900">
        <ele>539.000000</ele>
        <time>2014-03-29T16:16:10Z</time>
      </trkpt>
      <trkpt lat="37.717193200" lon="-1.815287200">
        <ele>538.000000</ele>
        <time>2014-03-29T16:16:11Z</time>
      </trkpt>
      <trkpt lat="37.717158300" lon="-1.815148300">
        <ele>537.000000</ele>
        <time>2014-03-29T16:16:12Z</time>
      </trkpt>
      <trkpt lat="37.717122700" lon="-1.815010400">
        <ele>537.000000</ele>
        <time>2014-03-29T16:16:13Z</time>
      </trkpt>
      <trkpt lat="37.717082100" lon="-1.814871000">
        <ele>536.000000</ele>
        <time>2014-03-29T16:16:14Z</time>
      </trkpt>
      <trkpt lat="37.717034300" lon="-1.814735000">
        <ele>535.000000</ele>
        <time>2014-03-29T16:16:15Z</time>
      </trkpt>
      <trkpt lat="37.716990700" lon="-1.814592000">
        <ele>535.000000</ele>
        <time>2014-03-29T16:16:16Z</time>
      </trkpt>
      <trkpt lat="37.716951300" lon="-1.814445700">
        <ele>534.000000</ele>
        <time>2014-03-29T16:16:17Z</time>
      </trkpt>
      <trkpt lat="37.716910000" lon="-1.814301400">
        <ele>533.000000</ele>
        <time>2014-03-29T16:16:18Z</time>
      </trkpt>
      <trkpt lat="37.716866700" lon="-1.814160100">
        <ele>532.000000</ele>
        <time>2014-03-29T16:16:19Z</time>
      </trkpt>
      <trkpt lat="37.716823200" lon="-1.814020400">
        <ele>532.000000</ele>
        <time>2014-03-29T16:16:20Z</time>
      </trkpt>
      <trkpt lat="37.716780400" lon="-1.813877900">
        <ele>531.000000</ele>
        <time>2014-03-29T16:16:21Z</time>
      </trkpt>
      <trkpt lat="37.716737400" lon="-1.813736000">
        <ele>530.000000</ele>
        <time>2014-03-29T16:16:22Z</time>
      </trkpt>
      <trkpt lat="37.716691400" lon="-1.813594500">
        <ele>529.000000</ele>
        <time>2014-03-29T16:16:23Z</time>
      </trkpt>
      <trkpt lat="37.716639100" lon="-1.813457000">
        <ele>529.000000</ele>
        <time>2014-03-29T16:16:24Z</time>
      </trkpt>
      <trkpt lat="37.716584400" lon="-1.813327300">
        <ele>528.000000</ele>
        <time>2014-03-29T16:16:25Z</time>
      </trkpt>
      <trkpt lat="37.716531500" lon="-1.813200700">
        <ele>527.000000</ele>
        <time>2014-03-29T16:16:26Z</time>
      </trkpt>
      <trkpt lat="37.716482300" lon="-1.813075000">
        <ele>527.000000</ele>
        <time>2014-03-29T16:16:27Z</time>
      </trkpt>
      <trkpt lat="37.716435900" lon="-1.812948100">
        <ele>526.000000</ele>
        <time>2014-03-29T16:16:28Z</time>
      </trkpt>
      <trkpt lat="37.716393600" lon="-1.812818400">
        <ele>526.000000</ele>
        <time>2014-03-29T16:16:29Z</time>
      </trkpt>
      <trkpt lat="37.716358300" lon="-1.812691800">
        <ele>525.000000</ele>
        <time>2014-03-29T16:16:30Z</time>
      </trkpt>
      <trkpt lat="37.716325500" lon="-1.812564200">
        <ele>525.000000</ele>
        <time>2014-03-29T16:16:31Z</time>
      </trkpt>
      <trkpt lat="37.716296800" lon="-1.812435700">
        <ele>524.000000</ele>
        <time>2014-03-29T16:16:32Z</time>
      </trkpt>
      <trkpt lat="37.716275800" lon="-1.812310400">
        <ele>524.000000</ele>
        <time>2014-03-29T16:16:33Z</time>
      </trkpt>
      <trkpt lat="37.716258000" lon="-1.812180000">
        <ele>524.000000</ele>
        <time>2014-03-29T16:16:34Z</time>
      </trkpt>
      <trkpt lat="37.716245200" lon="-1.812044900">
        <ele>523.000000</ele>
        <time>2014-03-29T16:16:35Z</time>
      </trkpt>
      <trkpt lat="37.716236900" lon="-1.811908000">
        <ele>523.000000</ele>
        <time>2014-03-29T16:16:36Z</time>
      </trkpt>
      <trkpt lat="37.716234300" lon="-1.811773900">
        <ele>523.000000</ele>
        <time>2014-03-29T16:16:37Z</time>
      </trkpt>
      <trkpt lat="37.716235300" lon="-1.811640900">
        <ele>523.000000</ele>
        <time>2014-03-29T16:16:38Z</time>
      </trkpt>
      <trkpt lat="37.716240400" lon="-1.811506100">
        <ele>522.000000</ele>
        <time>2014-03-29T16:16:39Z</time>
      </trkpt>
      <trkpt lat="37.716251400" lon="-1.811373400">
        <ele>522.000000</ele>
        <time>2014-03-29T16:16:40Z</time>
      </trkpt>
      <trkpt lat="37.716266800" lon="-1.811240600">
        <ele>522.000000</ele>
        <time>2014-03-29T16:16:41Z</time>
      </trkpt>
      <trkpt lat="37.716285100" lon="-1.811111800">
        <ele>522.000000</ele>
        <time>2014-03-29T16:16:42Z</time>
      </trkpt>
      <trkpt lat="37.716305400" lon="-1.810985400">
        <ele>522.000000</ele>
        <time>2014-03-29T16:16:43Z</time>
      </trkpt>
      <trkpt lat="37.716326000" lon="-1.810863500">
        <ele>522.000000</ele>
        <time>2014-03-29T16:16:44Z</time>
      </trkpt>
      <trkpt lat="37.716344800" lon="-1.810741600">
        <ele>522.000000</ele>
        <time>2014-03-29T16:16:45Z</time>
      </trkpt>
      <trkpt lat="37.716364700" lon="-1.810620300">
        <ele>522.000000</ele>
        <time>2014-03-29T16:16:46Z</time>
      </trkpt>
      <trkpt lat="37.716386900" lon="-1.810501100">
        <ele>522.000000</ele>
        <time>2014-03-29T16:16:47Z</time>
      </trkpt>
      <trkpt lat="37.716409600" lon="-1.810383200">
        <ele>521.000000</ele>
        <time>2014-03-29T16:16:48Z</time>
      </trkpt>
      <trkpt lat="37.716434800" lon="-1.810263700">
        <ele>521.000000</ele>
        <time>2014-03-29T16:16:49Z</time>
      </trkpt>
      <trkpt lat="37.716460100" lon="-1.810143800">
        <ele>521.000000</ele>
        <time>2014-03-29T16:16:50Z</time>
      </trkpt>
      <trkpt lat="37.716482200" lon="-1.810025300">
        <ele>521.000000</ele>
        <time>2014-03-29T16:16:51Z</time>
      </trkpt>
      <trkpt lat="37.716504700" lon="-1.809907300">
        <ele>521.000000</ele>
        <time>2014-03-29T16:16:52Z</time>
      </trkpt>
      <trkpt lat="37.716527000" lon="-1.809788400">
        <ele>521.000000</ele>
        <time>2014-03-29T16:16:53Z</time>
      </trkpt>
      <trkpt lat="37.716549400" lon="-1.809674000">
        <ele>521.000000</ele>
        <time>2014-03-29T16:16:54Z</time>
      </trkpt>
      <trkpt lat="37.716569500" lon="-1.809561400">
        <ele>521.000000</ele>
        <time>2014-03-29T16:16:55Z</time>
      </trkpt>
      <trkpt lat="37.716585000" lon="-1.809444700">
        <ele>521.000000</ele>
        <time>2014-03-29T16:16:56Z</time>
      </trkpt>
      <trkpt lat="37.716604000" lon="-1.809327900">
        <ele>521.000000</ele>
        <time>2014-03-29T16:16:57Z</time>
      </trkpt>
      <trkpt lat="37.716620800" lon="-1.809208100">
        <ele>521.000000</ele>
        <time>2014-03-29T16:16:58Z</time>
      </trkpt>
      <trkpt lat="37.716632600" lon="-1.809087700">
        <ele>521.000000</ele>
        <time>2014-03-29T16:16:59Z</time>
      </trkpt>
      <trkpt lat="37.716645700" lon="-1.808968300">
        <ele>521.000000</ele>
        <time>2014-03-29T16:17:00Z</time>
      </trkpt>
      <trkpt lat="37.716663900" lon="-1.808849200">
        <ele>521.000000</ele>
        <time>2014-03-29T16:17:01Z</time>
      </trkpt>
      <trkpt lat="37.716685900" lon="-1.808731200">
        <ele>521.000000</ele>
        <time>2014-03-29T16:17:02Z</time>
      </trkpt>
      <trkpt lat="37.716705800" lon="-1.808611300">
        <ele>521.000000</ele>
        <time>2014-03-29T16:17:03Z</time>
      </trkpt>
      <trkpt lat="37.716722800" lon="-1.808494600">
        <ele>521.000000</ele>
        <time>2014-03-29T16:17:04Z</time>
      </trkpt>
      <trkpt lat="37.716733500" lon="-1.808377500">
        <ele>521.000000</ele>
        <time>2014-03-29T16:17:05Z</time>
      </trkpt>
      <trkpt lat="37.716741400" lon="-1.808257900">
        <ele>521.000000</ele>
        <time>2014-03-29T16:17:06Z</time>
      </trkpt>
      <trkpt lat="37.716748800" lon="-1.808141400">
        <ele>521.000000</ele>
        <time>2014-03-29T16:17:07Z</time>
      </trkpt>
      <trkpt lat="37.716753800" lon="-1.808026400">
        <ele>521.000000</ele>
        <time>2014-03-29T16:17:08Z</time>
      </trkpt>
      <trkpt lat="37.716751400" lon="-1.807908300">
        <ele>521.000000</ele>
        <time>2014-03-29T16:17:09Z</time>
      </trkpt>
      <trkpt lat="37.716745100" lon="-1.807791300">
        <ele>521.000000</ele>
        <time>2014-03-29T16:17:10Z</time>
      </trkpt>
      <trkpt lat="37.716734700" lon="-1.807673000">
        <ele>521.000000</ele>
        <time>2014-03-29T16:17:11Z</time>
      </trkpt>
      <trkpt lat="37.716721300" lon="-1.807555500">
        <ele>521.000000</ele>
        <time>2014-03-29T16:17:12Z</time>
      </trkpt>
      <trkpt lat="37.716706100" lon="-1.807443200">
        <ele>520.000000</ele>
        <time>2014-03-29T16:17:13Z</time>
      </trkpt>
      <trkpt lat="37.716687200" lon="-1.807333000">
        <ele>520.000000</ele>
        <time>2014-03-29T16:17:14Z</time>
      </trkpt>
      <trkpt lat="37.716667100" lon="-1.807224400">
        <ele>520.000000</ele>
        <time>2014-03-29T16:17:15Z</time>
      </trkpt>
      <trkpt lat="37.716646200" lon="-1.807118000">
        <ele>520.000000</ele>
        <time>2014-03-29T16:17:16Z</time>
      </trkpt>
      <trkpt lat="37.716626200" lon="-1.807011700">
        <ele>520.000000</ele>
        <time>2014-03-29T16:17:17Z</time>
      </trkpt>
      <trkpt lat="37.716602600" lon="-1.806904400">
        <ele>519.000000</ele>
        <time>2014-03-29T16:17:18Z</time>
      </trkpt>
      <trkpt lat="37.716576500" lon="-1.806802200">
        <ele>519.000000</ele>
        <time>2014-03-29T16:17:19Z</time>
      </trkpt>
      <trkpt lat="37.716548300" lon="-1.806701400">
        <ele>519.000000</ele>
        <time>2014-03-29T16:17:20Z</time>
      </trkpt>
      <trkpt lat="37.716518500" lon="-1.806603100">
        <ele>519.000000</ele>
        <time>2014-03-29T16:17:21Z</time>
      </trkpt>
      <trkpt lat="37.716487800" lon="-1.806507400">
        <ele>519.000000</ele>
        <time>2014-03-29T16:17:22Z</time>
      </trkpt>
      <trkpt lat="37.716454000" lon="-1.806413000">
        <ele>518.000000</ele>
        <time>2014-03-29T16:17:23Z</time>
      </trkpt>
      <trkpt lat="37.716418500" lon="-1.806317500">
        <ele>518.000000</ele>
        <time>2014-03-29T16:17:24Z</time>
      </trkpt>
      <trkpt lat="37.716381700" lon="-1.806219700">
        <ele>518.000000</ele>
        <time>2014-03-29T16:17:25Z</time>
      </trkpt>
      <trkpt lat="37.716343900" lon="-1.806121800">
        <ele>517.000000</ele>
        <time>2014-03-29T16:17:26Z</time>
      </trkpt>
      <trkpt lat="37.716303200" lon="-1.806023700">
        <ele>517.000000</ele>
        <time>2014-03-29T16:17:27Z</time>
      </trkpt>
      <trkpt lat="37.716262300" lon="-1.805925600">
        <ele>517.000000</ele>
        <time>2014-03-29T16:17:28Z</time>
      </trkpt>
      <trkpt lat="37.716224500" lon="-1.805827800">
        <ele>516.000000</ele>
        <time>2014-03-29T16:17:29Z</time>
      </trkpt>
      <trkpt lat="37.716190200" lon="-1.805729900">
        <ele>516.000000</ele>
        <time>2014-03-29T16:17:30Z</time>
      </trkpt>
      <trkpt lat="37.716157300" lon="-1.805632700">
        <ele>516.000000</ele>
        <time>2014-03-29T16:17:31Z</time>
      </trkpt>
      <trkpt lat="37.716126500" lon="-1.805535700">
        <ele>516.000000</ele>
        <time>2014-03-29T16:17:32Z</time>
      </trkpt>
      <trkpt lat="37.716099400" lon="-1.805439700">
        <ele>515.000000</ele>
        <time>2014-03-29T16:17:33Z</time>
      </trkpt>
      <trkpt lat="37.716074400" lon="-1.805343700">
        <ele>515.000000</ele>
        <time>2014-03-29T16:17:34Z</time>
      </trkpt>
      <trkpt lat="37.716051000" lon="-1.805249200">
        <ele>515.000000</ele>
        <time>2014-03-29T16:17:35Z</time>
      </trkpt>
      <trkpt lat="37.716032300" lon="-1.805155500">
        <ele>515.000000</ele>
        <time>2014-03-29T16:17:36Z</time>
      </trkpt>
      <trkpt lat="37.716017000" lon="-1.805060500">
        <ele>515.000000</ele>
        <time>2014-03-29T16:17:37Z</time>
      </trkpt>
      <trkpt lat="37.716003700" lon="-1.804966400">
        <ele>515.000000</ele>
        <time>2014-03-29T16:17:38Z</time>
      </trkpt>
      <trkpt lat="37.715992600" lon="-1.804872700">
        <ele>515.000000</ele>
        <time>2014-03-29T16:17:39Z</time>
      </trkpt>
      <trkpt lat="37.715983900" lon="-1.804778400">
        <ele>515.000000</ele>
        <time>2014-03-29T16:17:40Z</time>
      </trkpt>
      <trkpt lat="37.715976700" lon="-1.804681900">
        <ele>515.000000</ele>
        <time>2014-03-29T16:17:41Z</time>
      </trkpt>
      <trkpt lat="37.715972900" lon="-1.804581600">
        <ele>515.000000</ele>
        <time>2014-03-29T16:17:42Z</time>
      </trkpt>
      <trkpt lat="37.715969100" lon="-1.804483200">
        <ele>515.000000</ele>
        <time>2014-03-29T16:17:43Z</time>
      </trkpt>
      <trkpt lat="37.715966600" lon="-1.804387800">
        <ele>515.000000</ele>
        <time>2014-03-29T16:17:44Z</time>
      </trkpt>
      <trkpt lat="37.715965400" lon="-1.804293400">
        <ele>515.000000</ele>
        <time>2014-03-29T16:17:45Z</time>
      </trkpt>
      <trkpt lat="37.715965800" lon="-1.804201500">
        <ele>515.000000</ele>
        <time>2014-03-29T16:17:46Z</time>
      </trkpt>
      <trkpt lat="37.715967200" lon="-1.804106600">
        <ele>515.000000</ele>
        <time>2014-03-29T16:17:47Z</time>
      </trkpt>
      <trkpt lat="37.715969700" lon="-1.804011400">
        <ele>515.000000</ele>
        <time>2014-03-29T16:17:48Z</time>
      </trkpt>
      <trkpt lat="37.715975400" lon="-1.803921900">
        <ele>516.000000</ele>
        <time>2014-03-29T16:17:49Z</time>
      </trkpt>
      <trkpt lat="37.715979700" lon="-1.803831600">
        <ele>516.000000</ele>
        <time>2014-03-29T16:17:50Z</time>
      </trkpt>
      <trkpt lat="37.715984000" lon="-1.803734400">
        <ele>516.000000</ele>
        <time>2014-03-29T16:17:51Z</time>
      </trkpt>
      <trkpt lat="37.715989700" lon="-1.803635000">
        <ele>516.000000</ele>
        <time>2014-03-29T16:17:52Z</time>
      </trkpt>
      <trkpt lat="37.715995300" lon="-1.803535200">
        <ele>516.000000</ele>
        <time>2014-03-29T16:17:53Z</time>
      </trkpt>
      <trkpt lat="37.716002500" lon="-1.803435900">
        <ele>516.000000</ele>
        <time>2014-03-29T16:17:54Z</time>
      </trkpt>
      <trkpt lat="37.716012700" lon="-1.803337800">
        <ele>516.000000</ele>
        <time>2014-03-29T16:17:55Z</time>
      </trkpt>
      <trkpt lat="37.716020300" lon="-1.803238700">
        <ele>516.000000</ele>
        <time>2014-03-29T16:17:56Z</time>
      </trkpt>
      <trkpt lat="37.716025400" lon="-1.803136900">
        <ele>516.000000</ele>
        <time>2014-03-29T16:17:57Z</time>
      </trkpt>
      <trkpt lat="37.716032900" lon="-1.803033300">
        <ele>516.000000</ele>
        <time>2014-03-29T16:17:58Z</time>
      </trkpt>
      <trkpt lat="37.716038500" lon="-1.802929900">
        <ele>516.000000</ele>
        <time>2014-03-29T16:17:59Z</time>
      </trkpt>
      <trkpt lat="37.716044400" lon="-1.802827100">
        <ele>516.000000</ele>
        <time>2014-03-29T16:18:00Z</time>
      </trkpt>
      <trkpt lat="37.716048300" lon="-1.802726300">
        <ele>516.000000</ele>
        <time>2014-03-29T16:18:01Z</time>
      </trkpt>
      <trkpt lat="37.716048700" lon="-1.802623500">
        <ele>516.000000</ele>
        <time>2014-03-29T16:18:02Z</time>
      </trkpt>
      <trkpt lat="37.716050200" lon="-1.802519600">
        <ele>516.000000</ele>
        <time>2014-03-29T16:18:03Z</time>
      </trkpt>
      <trkpt lat="37.716049900" lon="-1.802411100">
        <ele>516.000000</ele>
        <time>2014-03-29T16:18:04Z</time>
      </trkpt>
      <trkpt lat="37.716047600" lon="-1.802300400">
        <ele>516.000000</ele>
        <time>2014-03-29T16:18:05Z</time>
      </trkpt>
      <trkpt lat="37.716043400" lon="-1.802191800">
        <ele>516.000000</ele>
        <time>2014-03-29T16:18:06Z</time>
      </trkpt>
      <trkpt lat="37.716039900" lon="-1.802083400">
        <ele>516.000000</ele>
        <time>2014-03-29T16:18:07Z</time>
      </trkpt>
      <trkpt lat="37.716036000" lon="-1.801978500">
        <ele>515.000000</ele>
        <time>2014-03-29T16:18:08Z</time>
      </trkpt>
      <trkpt lat="37.716030400" lon="-1.801872900">
        <ele>515.000000</ele>
        <time>2014-03-29T16:18:09Z</time>
      </trkpt>
      <trkpt lat="37.716023800" lon="-1.801764600">
        <ele>515.000000</ele>
        <time>2014-03-29T16:18:10Z</time>
      </trkpt>
      <trkpt lat="37.716017000" lon="-1.801653200">
        <ele>515.000000</ele>
        <time>2014-03-29T16:18:11Z</time>
      </trkpt>
      <trkpt lat="37.716010100" lon="-1.801543400">
        <ele>515.000000</ele>
        <time>2014-03-29T16:18:12Z</time>
      </trkpt>
      <trkpt lat="37.716000700" lon="-1.801430000">
        <ele>515.000000</ele>
        <time>2014-03-29T16:18:13Z</time>
      </trkpt>
      <trkpt lat="37.715988900" lon="-1.801311500">
        <ele>514.000000</ele>
        <time>2014-03-29T16:18:14Z</time>
      </trkpt>
      <trkpt lat="37.715974200" lon="-1.801190100">
        <ele>514.000000</ele>
        <time>2014-03-29T16:18:15Z</time>
      </trkpt>
      <trkpt lat="37.715957700" lon="-1.801064300">
        <ele>514.000000</ele>
        <time>2014-03-29T16:18:16Z</time>
      </trkpt>
      <trkpt lat="37.715941200" lon="-1.800935000">
        <ele>514.000000</ele>
        <time>2014-03-29T16:18:17Z</time>
      </trkpt>
      <trkpt lat="37.715924600" lon="-1.800802800">
        <ele>513.000000</ele>
        <time>2014-03-29T16:18:18Z</time>
      </trkpt>
      <trkpt lat="37.715906300" lon="-1.800672600">
        <ele>513.000000</ele>
        <time>2014-03-29T16:18:19Z</time>
      </trkpt>
      <trkpt lat="37.715887300" lon="-1.800541800">
        <ele>513.000000</ele>
        <time>2014-03-29T16:18:20Z</time>
      </trkpt>
      <trkpt lat="37.715870900" lon="-1.800410800">
        <ele>512.000000</ele>
        <time>2014-03-29T16:18:21Z</time>
      </trkpt>
      <trkpt lat="37.715850200" lon="-1.800273100">
        <ele>512.000000</ele>
        <time>2014-03-29T16:18:22Z</time>
      </trkpt>
      <trkpt lat="37.715828800" lon="-1.800135300">
        <ele>512.000000</ele>
        <time>2014-03-29T16:18:23Z</time>
      </trkpt>
      <trkpt lat="37.715806100" lon="-1.799995300">
        <ele>511.000000</ele>
        <time>2014-03-29T16:18:24Z</time>
      </trkpt>
      <trkpt lat="37.715785500" lon="-1.799851400">
        <ele>511.000000</ele>
        <time>2014-03-29T16:18:25Z</time>
      </trkpt>
      <trkpt lat="37.715764500" lon="-1.799708600">
        <ele>511.000000</ele>
        <time>2014-03-29T16:18:26Z</time>
      </trkpt>
      <trkpt lat="37.715743300" lon="-1.799564800">
        <ele>510.000000</ele>
        <time>2014-03-29T16:18:27Z</time>
      </trkpt>
      <trkpt lat="37.715722100" lon="-1.799420300">
        <ele>510.000000</ele>
        <time>2014-03-29T16:18:28Z</time>
      </trkpt>
      <trkpt lat="37.715700600" lon="-1.799268800">
        <ele>509.000000</ele>
        <time>2014-03-29T16:18:29Z</time>
      </trkpt>
      <trkpt lat="37.715678400" lon="-1.799112900">
        <ele>509.000000</ele>
        <time>2014-03-29T16:18:30Z</time>
      </trkpt>
      <trkpt lat="37.715654600" lon="-1.798954800">
        <ele>508.000000</ele>
        <time>2014-03-29T16:18:31Z</time>
      </trkpt>
      <trkpt lat="37.715632200" lon="-1.798796200">
        <ele>507.000000</ele>
        <time>2014-03-29T16:18:32Z</time>
      </trkpt>
      <trkpt lat="37.715607900" lon="-1.798639400">
        <ele>507.000000</ele>
        <time>2014-03-29T16:18:33Z</time>
      </trkpt>
      <trkpt lat="37.715581100" lon="-1.798482000">
        <ele>506.000000</ele>
        <time>2014-03-29T16:18:34Z</time>
      </trkpt>
      <trkpt lat="37.715554900" lon="-1.798321200">
        <ele>505.000000</ele>
        <time>2014-03-29T16:18:35Z</time>
      </trkpt>
      <trkpt lat="37.715522000" lon="-1.798160900">
        <ele>505.000000</ele>
        <time>2014-03-29T16:18:36Z</time>
      </trkpt>
      <trkpt lat="37.715476300" lon="-1.798004100">
        <ele>504.000000</ele>
        <time>2014-03-29T16:18:37Z</time>
      </trkpt>
      <trkpt lat="37.715420800" lon="-1.797851600">
        <ele>503.000000</ele>
        <time>2014-03-29T16:18:38Z</time>
      </trkpt>
      <trkpt lat="37.715359500" lon="-1.797700500">
        <ele>503.000000</ele>
        <time>2014-03-29T16:18:39Z</time>
      </trkpt>
      <trkpt lat="37.715291900" lon="-1.797558200">
        <ele>502.000000</ele>
        <time>2014-03-29T16:18:40Z</time>
      </trkpt>
      <trkpt lat="37.715216400" lon="-1.797428100">
        <ele>501.000000</ele>
        <time>2014-03-29T16:18:41Z</time>
      </trkpt>
      <trkpt lat="37.715133500" lon="-1.797304900">
        <ele>500.000000</ele>
        <time>2014-03-29T16:18:42Z</time>
      </trkpt>
      <trkpt lat="37.715051300" lon="-1.797192900">
        <ele>500.000000</ele>
        <time>2014-03-29T16:18:43Z</time>
      </trkpt>
      <trkpt lat="37.714966500" lon="-1.797084800">
        <ele>499.000000</ele>
        <time>2014-03-29T16:18:44Z</time>
      </trkpt>
      <trkpt lat="37.714883000" lon="-1.796980900">
        <ele>498.000000</ele>
        <time>2014-03-29T16:18:45Z</time>
      </trkpt>
      <trkpt lat="37.714801000" lon="-1.796878200">
        <ele>498.000000</ele>
        <time>2014-03-29T16:18:46Z</time>
      </trkpt>
      <trkpt lat="37.714723300" lon="-1.796775900">
        <ele>497.000000</ele>
        <time>2014-03-29T16:18:47Z</time>
      </trkpt>
      <trkpt lat="37.714643200" lon="-1.796678200">
        <ele>497.000000</ele>
        <time>2014-03-29T16:18:48Z</time>
      </trkpt>
      <trkpt lat="37.714559100" lon="-1.796587900">
        <ele>496.000000</ele>
        <time>2014-03-29T16:18:49Z</time>
      </trkpt>
      <trkpt lat="37.714467900" lon="-1.796502200">
        <ele>496.000000</ele>
        <time>2014-03-29T16:18:50Z</time>
      </trkpt>
      <trkpt lat="37.714374300" lon="-1.796425500">
        <ele>495.000000</ele>
        <time>2014-03-29T16:18:51Z</time>
      </trkpt>
      <trkpt lat="37.714282600" lon="-1.796358900">
        <ele>495.000000</ele>
        <time>2014-03-29T16:18:52Z</time>
      </trkpt>
      <trkpt lat="37.714188800" lon="-1.796295200">
        <ele>494.000000</ele>
        <time>2014-03-29T16:18:53Z</time>
      </trkpt>
      <trkpt lat="37.714095700" lon="-1.796228700">
        <ele>494.000000</ele>
        <time>2014-03-29T16:18:54Z</time>
      </trkpt>
      <trkpt lat="37.714005100" lon="-1.796162200">
        <ele>493.000000</ele>
        <time>2014-03-29T16:18:55Z</time>
      </trkpt>
      <trkpt lat="37.713914200" lon="-1.796099800">
        <ele>493.000000</ele>
        <time>2014-03-29T16:18:56Z</time>
      </trkpt>
      <trkpt lat="37.713823500" lon="-1.796041200">
        <ele>492.000000</ele>
        <time>2014-03-29T16:18:57Z</time>
      </trkpt>
      <trkpt lat="37.713734600" lon="-1.795985600">
        <ele>492.000000</ele>
        <time>2014-03-29T16:18:58Z</time>
      </trkpt>
      <trkpt lat="37.713648500" lon="-1.795928000">
        <ele>492.000000</ele>
        <time>2014-03-29T16:18:59Z</time>
      </trkpt>
      <trkpt lat="37.713564900" lon="-1.795867900">
        <ele>492.000000</ele>
        <time>2014-03-29T16:19:00Z</time>
      </trkpt>
      <trkpt lat="37.713482000" lon="-1.795805900">
        <ele>492.000000</ele>
        <time>2014-03-29T16:19:01Z</time>
      </trkpt>
      <trkpt lat="37.713400700" lon="-1.795746000">
        <ele>491.000000</ele>
        <time>2014-03-29T16:19:02Z</time>
      </trkpt>
      <trkpt lat="37.713318200" lon="-1.795688300">
        <ele>491.000000</ele>
        <time>2014-03-29T16:19:03Z</time>
      </trkpt>
      <trkpt lat="37.713234900" lon="-1.795631500">
        <ele>491.000000</ele>
        <time>2014-03-29T16:19:04Z</time>
      </trkpt>
      <trkpt lat="37.713155900" lon="-1.795576400">
        <ele>491.000000</ele>
        <time>2014-03-29T16:19:05Z</time>
      </trkpt>
      <trkpt lat="37.713077100" lon="-1.795522000">
        <ele>490.000000</ele>
        <time>2014-03-29T16:19:06Z</time>
      </trkpt>
      <trkpt lat="37.712996500" lon="-1.795469100">
        <ele>490.000000</ele>
        <time>2014-03-29T16:19:07Z</time>
      </trkpt>
      <trkpt lat="37.712915200" lon="-1.795417500">
        <ele>490.000000</ele>
        <time>2014-03-29T16:19:08Z</time>
      </trkpt>
      <trkpt lat="37.712836800" lon="-1.795367100">
        <ele>490.000000</ele>
        <time>2014-03-29T16:19:09Z</time>
      </trkpt>
      <trkpt lat="37.712754900" lon="-1.795318800">
        <ele>490.000000</ele>
        <time>2014-03-29T16:19:10Z</time>
      </trkpt>
      <trkpt lat="37.712672500" lon="-1.795274300">
        <ele>490.000000</ele>
        <time>2014-03-29T16:19:11Z</time>
      </trkpt>
      <trkpt lat="37.712591100" lon="-1.795229600">
        <ele>490.000000</ele>
        <time>2014-03-29T16:19:12Z</time>
      </trkpt>
      <trkpt lat="37.712511600" lon="-1.795181300">
        <ele>490.000000</ele>
        <time>2014-03-29T16:19:13Z</time>
      </trkpt>
      <trkpt lat="37.712433900" lon="-1.795132800">
        <ele>489.000000</ele>
        <time>2014-03-29T16:19:14Z</time>
      </trkpt>
      <trkpt lat="37.712357300" lon="-1.795087300">
        <ele>489.000000</ele>
        <time>2014-03-29T16:19:15Z</time>
      </trkpt>
      <trkpt lat="37.712281700" lon="-1.795043000">
        <ele>489.000000</ele>
        <time>2014-03-29T16:19:16Z</time>
      </trkpt>
      <trkpt lat="37.712207800" lon="-1.795000100">
        <ele>489.000000</ele>
        <time>2014-03-29T16:19:17Z</time>
      </trkpt>
      <trkpt lat="37.712131800" lon="-1.794957000">
        <ele>489.000000</ele>
        <time>2014-03-29T16:19:18Z</time>
      </trkpt>
      <trkpt lat="37.712055000" lon="-1.794912400">
        <ele>489.000000</ele>
        <time>2014-03-29T16:19:19Z</time>
      </trkpt>
      <trkpt lat="37.711979200" lon="-1.794867400">
        <ele>489.000000</ele>
        <time>2014-03-29T16:19:20Z</time>
      </trkpt>
      <trkpt lat="37.711901300" lon="-1.794823400">
        <ele>489.000000</ele>
        <time>2014-03-29T16:19:21Z</time>
      </trkpt>
      <trkpt lat="37.711825400" lon="-1.794782100">
        <ele>489.000000</ele>
        <time>2014-03-29T16:19:22Z</time>
      </trkpt>
      <trkpt lat="37.711751800" lon="-1.794737100">
        <ele>489.000000</ele>
        <time>2014-03-29T16:19:23Z</time>
      </trkpt>
      <trkpt lat="37.711679800" lon="-1.794693700">
        <ele>488.000000</ele>
        <time>2014-03-29T16:19:24Z</time>
      </trkpt>
      <trkpt lat="37.711606200" lon="-1.794651300">
        <ele>488.000000</ele>
        <time>2014-03-29T16:19:25Z</time>
      </trkpt>
      <trkpt lat="37.711534800" lon="-1.794608400">
        <ele>488.000000</ele>
        <time>2014-03-29T16:19:26Z</time>
      </trkpt>
      <trkpt lat="37.711461800" lon="-1.794568300">
        <ele>488.000000</ele>
        <time>2014-03-29T16:19:27Z</time>
      </trkpt>
      <trkpt lat="37.711385700" lon="-1.794526800">
        <ele>488.000000</ele>
        <time>2014-03-29T16:19:28Z</time>
      </trkpt>
      <trkpt lat="37.711310700" lon="-1.794486900">
        <ele>488.000000</ele>
        <time>2014-03-29T16:19:29Z</time>
      </trkpt>
      <trkpt lat="37.711237300" lon="-1.794449200">
        <ele>488.000000</ele>
        <time>2014-03-29T16:19:30Z</time>
      </trkpt>
      <trkpt lat="37.711163100" lon="-1.794410700">
        <ele>488.000000</ele>
        <time>2014-03-29T16:19:31Z</time>
      </trkpt>
      <trkpt lat="37.711091100" lon="-1.794377300">
        <ele>488.000000</ele>
        <time>2014-03-29T16:19:32Z</time>
      </trkpt>
      <trkpt lat="37.711017500" lon="-1.794348400">
        <ele>488.000000</ele>
        <time>2014-03-29T16:19:33Z</time>
      </trkpt>
      <trkpt lat="37.710941100" lon="-1.794327500">
        <ele>488.000000</ele>
        <time>2014-03-29T16:19:34Z</time>
      </trkpt>
      <trkpt lat="37.710863400" lon="-1.794314600">
        <ele>488.000000</ele>
        <time>2014-03-29T16:19:35Z</time>
      </trkpt>
      <trkpt lat="37.710784000" lon="-1.794304100">
        <ele>487.000000</ele>
        <time>2014-03-29T16:19:36Z</time>
      </trkpt>
      <trkpt lat="37.710705300" lon="-1.794298500">
        <ele>487.000000</ele>
        <time>2014-03-29T16:19:37Z</time>
      </trkpt>
      <trkpt lat="37.710626800" lon="-1.794299500">
        <ele>487.000000</ele>
        <time>2014-03-29T16:19:38Z</time>
      </trkpt>
      <trkpt lat="37.710547200" lon="-1.794304000">
        <ele>487.000000</ele>
        <time>2014-03-29T16:19:39Z</time>
      </trkpt>
      <trkpt lat="37.710468800" lon="-1.794315200">
        <ele>487.000000</ele>
        <time>2014-03-29T16:19:40Z</time>
      </trkpt>
      <trkpt lat="37.710393400" lon="-1.794332700">
        <ele>487.000000</ele>
        <time>2014-03-29T16:19:41Z</time>
      </trkpt>
      <trkpt lat="37.710320100" lon="-1.794351000">
        <ele>487.000000</ele>
        <time>2014-03-29T16:19:42Z</time>
      </trkpt>
      <trkpt lat="37.710247100" lon="-1.794371300">
        <ele>487.000000</ele>
        <time>2014-03-29T16:19:43Z</time>
      </trkpt>
      <trkpt lat="37.710176200" lon="-1.794391700">
        <ele>487.000000</ele>
        <time>2014-03-29T16:19:44Z</time>
      </trkpt>
      <trkpt lat="37.710108300" lon="-1.794409900">
        <ele>488.000000</ele>
        <time>2014-03-29T16:19:45Z</time>
      </trkpt>
      <trkpt lat="37.710039600" lon="-1.794427900">
        <ele>488.000000</ele>
        <time>2014-03-29T16:19:46Z</time>
      </trkpt>
      <trkpt lat="37.709969200" lon="-1.794441300">
        <ele>488.000000</ele>
        <time>2014-03-29T16:19:47Z</time>
      </trkpt>
      <trkpt lat="37.709900800" lon="-1.794451300">
        <ele>488.000000</ele>
        <time>2014-03-29T16:19:48Z</time>
      </trkpt>
      <trkpt lat="37.709833700" lon="-1.794463300">
        <ele>488.000000</ele>
        <time>2014-03-29T16:19:49Z</time>
      </trkpt>
      <trkpt lat="37.709766600" lon="-1.794478600">
        <ele>488.000000</ele>
        <time>2014-03-29T16:19:50Z</time>
      </trkpt>
      <trkpt lat="37.709692800" lon="-1.794497800">
        <ele>488.000000</ele>
        <time>2014-03-29T16:19:51Z</time>
      </trkpt>
      <trkpt lat="37.709621500" lon="-1.794518600">
        <ele>489.000000</ele>
        <time>2014-03-29T16:19:52Z</time>
      </trkpt>
      <trkpt lat="37.709551800" lon="-1.794540500">
        <ele>489.000000</ele>
        <time>2014-03-29T16:19:53Z</time>
      </trkpt>
      <trkpt lat="37.709481000" lon="-1.794561400">
        <ele>489.000000</ele>
        <time>2014-03-29T16:19:54Z</time>
      </trkpt>
      <trkpt lat="37.709412900" lon="-1.794580000">
        <ele>489.000000</ele>
        <time>2014-03-29T16:19:55Z</time>
      </trkpt>
      <trkpt lat="37.709344400" lon="-1.794598900">
        <ele>489.000000</ele>
        <time>2014-03-29T16:19:56Z</time>
      </trkpt>
      <trkpt lat="37.709274800" lon="-1.794613400">
        <ele>489.000000</ele>
        <time>2014-03-29T16:19:57Z</time>
      </trkpt>
      <trkpt lat="37.709206100" lon="-1.794630100">
        <ele>489.000000</ele>
        <time>2014-03-29T16:19:58Z</time>
      </trkpt>
      <trkpt lat="37.709138700" lon="-1.794648200">
        <ele>490.000000</ele>
        <time>2014-03-29T16:19:59Z</time>
      </trkpt>
      <trkpt lat="37.709072200" lon="-1.794665600">
        <ele>490.000000</ele>
        <time>2014-03-29T16:20:00Z</time>
      </trkpt>
      <trkpt lat="37.709004600" lon="-1.794681700">
        <ele>490.000000</ele>
        <time>2014-03-29T16:20:01Z</time>
      </trkpt>
      <trkpt lat="37.708935700" lon="-1.794694000">
        <ele>490.000000</ele>
        <time>2014-03-29T16:20:02Z</time>
      </trkpt>
      <trkpt lat="37.708866400" lon="-1.794704600">
        <ele>490.000000</ele>
        <time>2014-03-29T16:20:03Z</time>
      </trkpt>
      <trkpt lat="37.708800800" lon="-1.794706700">
        <ele>490.000000</ele>
        <time>2014-03-29T16:20:04Z</time>
      </trkpt>
      <trkpt lat="37.708736400" lon="-1.794701000">
        <ele>490.000000</ele>
        <time>2014-03-29T16:20:05Z</time>
      </trkpt>
      <trkpt lat="37.708672700" lon="-1.794690300">
        <ele>491.000000</ele>
        <time>2014-03-29T16:20:06Z</time>
      </trkpt>
      <trkpt lat="37.708610200" lon="-1.794675700">
        <ele>491.000000</ele>
        <time>2014-03-29T16:20:07Z</time>
      </trkpt>
      <trkpt lat="37.708547500" lon="-1.794659500">
        <ele>491.000000</ele>
        <time>2014-03-29T16:20:08Z</time>
      </trkpt>
      <trkpt lat="37.708489100" lon="-1.794639900">
        <ele>491.000000</ele>
        <time>2014-03-29T16:20:09Z</time>
      </trkpt>
      <trkpt lat="37.708432600" lon="-1.794611800">
        <ele>491.000000</ele>
        <time>2014-03-29T16:20:10Z</time>
      </trkpt>
      <trkpt lat="37.708381000" lon="-1.794584400">
        <ele>491.000000</ele>
        <time>2014-03-29T16:20:11Z</time>
      </trkpt>
      <trkpt lat="37.708330900" lon="-1.794550400">
        <ele>492.000000</ele>
        <time>2014-03-29T16:20:12Z</time>
      </trkpt>
      <trkpt lat="37.708278300" lon="-1.794509800">
        <ele>492.000000</ele>
        <time>2014-03-29T16:20:13Z</time>
      </trkpt>
      <trkpt lat="37.708228100" lon="-1.794466100">
        <ele>492.000000</ele>
        <time>2014-03-29T16:20:14Z</time>
      </trkpt>
      <trkpt lat="37.708185200" lon="-1.794420900">
        <ele>492.000000</ele>
        <time>2014-03-29T16:20:15Z</time>
      </trkpt>
      <trkpt lat="37.708142200" lon="-1.794371100">
        <ele>493.000000</ele>
        <time>2014-03-29T16:20:16Z</time>
      </trkpt>
      <trkpt lat="37.708100400" lon="-1.794322200">
        <ele>493.000000</ele>
        <time>2014-03-29T16:20:17Z</time>
      </trkpt>
      <trkpt lat="37.708061900" lon="-1.794270700">
        <ele>493.000000</ele>
        <time>2014-03-29T16:20:18Z</time>
      </trkpt>
      <trkpt lat="37.708028900" lon="-1.794216700">
        <ele>494.000000</ele>
        <time>2014-03-29T16:20:19Z</time>
      </trkpt>
      <trkpt lat="37.707997800" lon="-1.794163800">
        <ele>494.000000</ele>
        <time>2014-03-29T16:20:20Z</time>
      </trkpt>
      <trkpt lat="37.707963000" lon="-1.794105300">
        <ele>494.000000</ele>
        <time>2014-03-29T16:20:21Z</time>
      </trkpt>
      <trkpt lat="37.707929400" lon="-1.794047900">
        <ele>495.000000</ele>
        <time>2014-03-29T16:20:22Z</time>
      </trkpt>
      <trkpt lat="37.707899100" lon="-1.793991200">
        <ele>495.000000</ele>
        <time>2014-03-29T16:20:23Z</time>
      </trkpt>
      <trkpt lat="37.707870800" lon="-1.793931700">
        <ele>495.000000</ele>
        <time>2014-03-29T16:20:24Z</time>
      </trkpt>
      <trkpt lat="37.707842900" lon="-1.793870400">
        <ele>496.000000</ele>
        <time>2014-03-29T16:20:25Z</time>
      </trkpt>
      <trkpt lat="37.707816200" lon="-1.793809900">
        <ele>496.000000</ele>
        <time>2014-03-29T16:20:26Z</time>
      </trkpt>
      <trkpt lat="37.707788400" lon="-1.793754000">
        <ele>496.000000</ele>
        <time>2014-03-29T16:20:27Z</time>
      </trkpt>
      <trkpt lat="37.707758900" lon="-1.793699000">
        <ele>497.000000</ele>
        <time>2014-03-29T16:20:28Z</time>
      </trkpt>
      <trkpt lat="37.707729400" lon="-1.793643700">
        <ele>497.000000</ele>
        <time>2014-03-29T16:20:29Z</time>
      </trkpt>
      <trkpt lat="37.707700600" lon="-1.793586300">
        <ele>497.000000</ele>
        <time>2014-03-29T16:20:30Z</time>
      </trkpt>
      <trkpt lat="37.707671400" lon="-1.793527900">
        <ele>498.000000</ele>
        <time>2014-03-29T16:20:31Z</time>
      </trkpt>
      <trkpt lat="37.707638900" lon="-1.793472100">
        <ele>498.000000</ele>
        <time>2014-03-29T16:20:32Z</time>
      </trkpt>
      <trkpt lat="37.707607500" lon="-1.793419000">
        <ele>498.000000</ele>
        <time>2014-03-29T16:20:33Z</time>
      </trkpt>
      <trkpt lat="37.707577500" lon="-1.793364700">
        <ele>499.000000</ele>
        <time>2014-03-29T16:20:34Z</time>
      </trkpt>
      <trkpt lat="37.707544900" lon="-1.793312200">
        <ele>499.000000</ele>
        <time>2014-03-29T16:20:35Z</time>
      </trkpt>
      <trkpt lat="37.707510900" lon="-1.793262600">
        <ele>499.000000</ele>
        <time>2014-03-29T16:20:36Z</time>
      </trkpt>
      <trkpt lat="37.707475300" lon="-1.793215400">
        <ele>500.000000</ele>
        <time>2014-03-29T16:20:37Z</time>
      </trkpt>
      <trkpt lat="37.707436400" lon="-1.793173900">
        <ele>500.000000</ele>
        <time>2014-03-29T16:20:38Z</time>
      </trkpt>
      <trkpt lat="37.707399800" lon="-1.793137600">
        <ele>500.000000</ele>
        <time>2014-03-29T16:20:39Z</time>
      </trkpt>
      <trkpt lat="37.707361700" lon="-1.793105500">
        <ele>500.000000</ele>
        <time>2014-03-29T16:20:40Z</time>
      </trkpt>
      <trkpt lat="37.707322900" lon="-1.793078100">
        <ele>501.000000</ele>
        <time>2014-03-29T16:20:41Z</time>
      </trkpt>
      <trkpt lat="37.707283000" lon="-1.793054100">
        <ele>501.000000</ele>
        <time>2014-03-29T16:20:42Z</time>
      </trkpt>
      <trkpt lat="37.707246300" lon="-1.793031700">
        <ele>501.000000</ele>
        <time>2014-03-29T16:20:43Z</time>
      </trkpt>
      <trkpt lat="37.707207200" lon="-1.793012300">
        <ele>501.000000</ele>
        <time>2014-03-29T16:20:44Z</time>
      </trkpt>
      <trkpt lat="37.707169100" lon="-1.792995300">
        <ele>502.000000</ele>
        <time>2014-03-29T16:20:45Z</time>
      </trkpt>
      <trkpt lat="37.707128700" lon="-1.792977200">
        <ele>502.000000</ele>
        <time>2014-03-29T16:20:46Z</time>
      </trkpt>
      <trkpt lat="37.707089600" lon="-1.792958100">
        <ele>502.000000</ele>
        <time>2014-03-29T16:20:47Z</time>
      </trkpt>
      <trkpt lat="37.707048200" lon="-1.792940100">
        <ele>503.000000</ele>
        <time>2014-03-29T16:20:48Z</time>
      </trkpt>
      <trkpt lat="37.707005000" lon="-1.792921900">
        <ele>503.000000</ele>
        <time>2014-03-29T16:20:49Z</time>
      </trkpt>
      <trkpt lat="37.706963700" lon="-1.792898800">
        <ele>503.000000</ele>
        <time>2014-03-29T16:20:50Z</time>
      </trkpt>
      <trkpt lat="37.706922200" lon="-1.792875600">
        <ele>504.000000</ele>
        <time>2014-03-29T16:20:51Z</time>
      </trkpt>
      <trkpt lat="37.706881000" lon="-1.792849900">
        <ele>504.000000</ele>
        <time>2014-03-29T16:20:52Z</time>
      </trkpt>
      <trkpt lat="37.706836800" lon="-1.792824700">
        <ele>504.000000</ele>
        <time>2014-03-29T16:20:53Z</time>
      </trkpt>
      <trkpt lat="37.706789200" lon="-1.792803100">
        <ele>505.000000</ele>
        <time>2014-03-29T16:20:54Z</time>
      </trkpt>
      <trkpt lat="37.706744700" lon="-1.792780200">
        <ele>505.000000</ele>
        <time>2014-03-29T16:20:55Z</time>
      </trkpt>
      <trkpt lat="37.706702300" lon="-1.792761900">
        <ele>505.000000</ele>
        <time>2014-03-29T16:20:56Z</time>
      </trkpt>
      <trkpt lat="37.706661200" lon="-1.792745800">
        <ele>505.000000</ele>
        <time>2014-03-29T16:20:57Z</time>
      </trkpt>
      <trkpt lat="37.706621400" lon="-1.792730100">
        <ele>506.000000</ele>
        <time>2014-03-29T16:20:58Z</time>
      </trkpt>
      <trkpt lat="37.706585500" lon="-1.792716100">
        <ele>506.000000</ele>
        <time>2014-03-29T16:20:59Z</time>
      </trkpt>
      <trkpt lat="37.706546600" lon="-1.792698200">
        <ele>507.000000</ele>
        <time>2014-03-29T16:21:00Z</time>
      </trkpt>
      <trkpt lat="37.706507100" lon="-1.792682800">
        <ele>507.000000</ele>
        <time>2014-03-29T16:21:01Z</time>
      </trkpt>
      <trkpt lat="37.706468200" lon="-1.792666800">
        <ele>507.000000</ele>
        <time>2014-03-29T16:21:02Z</time>
      </trkpt>
      <trkpt lat="37.706428800" lon="-1.792649000">
        <ele>508.000000</ele>
        <time>2014-03-29T16:21:03Z</time>
      </trkpt>
      <trkpt lat="37.706390100" lon="-1.792629900">
        <ele>508.000000</ele>
        <time>2014-03-29T16:21:04Z</time>
      </trkpt>
      <trkpt lat="37.706350700" lon="-1.792611300">
        <ele>509.000000</ele>
        <time>2014-03-29T16:21:05Z</time>
      </trkpt>
      <trkpt lat="37.706312700" lon="-1.792591500">
        <ele>509.000000</ele>
        <time>2014-03-29T16:21:06Z</time>
      </trkpt>
      <trkpt lat="37.706271900" lon="-1.792569500">
        <ele>510.000000</ele>
        <time>2014-03-29T16:21:07Z</time>
      </trkpt>
      <trkpt lat="37.706232700" lon="-1.792546400">
        <ele>510.000000</ele>
        <time>2014-03-29T16:21:08Z</time>
      </trkpt>
      <trkpt lat="37.706196700" lon="-1.792519900">
        <ele>510.000000</ele>
        <time>2014-03-29T16:21:09Z</time>
      </trkpt>
      <trkpt lat="37.706163700" lon="-1.792490600">
        <ele>511.000000</ele>
        <time>2014-03-29T16:21:10Z</time>
      </trkpt>
      <trkpt lat="37.706131300" lon="-1.792460300">
        <ele>511.000000</ele>
        <time>2014-03-29T16:21:11Z</time>
      </trkpt>
      <trkpt lat="37.706097000" lon="-1.792431900">
        <ele>512.000000</ele>
        <time>2014-03-29T16:21:12Z</time>
      </trkpt>
      <trkpt lat="37.706063800" lon="-1.792403200">
        <ele>512.000000</ele>
        <time>2014-03-29T16:21:13Z</time>
      </trkpt>
      <trkpt lat="37.706030700" lon="-1.792372200">
        <ele>512.000000</ele>
        <time>2014-03-29T16:21:14Z</time>
      </trkpt>
      <trkpt lat="37.705999300" lon="-1.792339600">
        <ele>513.000000</ele>
        <time>2014-03-29T16:21:15Z</time>
      </trkpt>
      <trkpt lat="37.705969800" lon="-1.792305300">
        <ele>513.000000</ele>
        <time>2014-03-29T16:21:16Z</time>
      </trkpt>
      <trkpt lat="37.705943000" lon="-1.792268500">
        <ele>514.000000</ele>
        <time>2014-03-29T16:21:17Z</time>
      </trkpt>
      <trkpt lat="37.705915700" lon="-1.792233200">
        <ele>514.000000</ele>
        <time>2014-03-29T16:21:18Z</time>
      </trkpt>
      <trkpt lat="37.705889700" lon="-1.792194300">
        <ele>514.000000</ele>
        <time>2014-03-29T16:21:19Z</time>
      </trkpt>
      <trkpt lat="37.705864200" lon="-1.792154600">
        <ele>515.000000</ele>
        <time>2014-03-29T16:21:20Z</time>
      </trkpt>
      <trkpt lat="37.705835900" lon="-1.792112300">
        <ele>515.000000</ele>
        <time>2014-03-29T16:21:21Z</time>
      </trkpt>
      <trkpt lat="37.705807200" lon="-1.792070200">
        <ele>516.000000</ele>
        <time>2014-03-29T16:21:22Z</time>
      </trkpt>
      <trkpt lat="37.705781500" lon="-1.792028100">
        <ele>516.000000</ele>
        <time>2014-03-29T16:21:23Z</time>
      </trkpt>
      <trkpt lat="37.705758000" lon="-1.791982800">
        <ele>516.000000</ele>
        <time>2014-03-29T16:21:24Z</time>
      </trkpt>
      <trkpt lat="37.705733500" lon="-1.791933800">
        <ele>517.000000</ele>
        <time>2014-03-29T16:21:25Z</time>
      </trkpt>
      <trkpt lat="37.705710700" lon="-1.791880600">
        <ele>517.000000</ele>
        <time>2014-03-29T16:21:26Z</time>
      </trkpt>
      <trkpt lat="37.705687200" lon="-1.791826000">
        <ele>517.000000</ele>
        <time>2014-03-29T16:21:27Z</time>
      </trkpt>
      <trkpt lat="37.705663300" lon="-1.791772800">
        <ele>518.000000</ele>
        <time>2014-03-29T16:21:28Z</time>
      </trkpt>
      <trkpt lat="37.705637800" lon="-1.791719400">
        <ele>518.000000</ele>
        <time>2014-03-29T16:21:29Z</time>
      </trkpt>
      <trkpt lat="37.705611400" lon="-1.791671200">
        <ele>518.000000</ele>
        <time>2014-03-29T16:21:30Z</time>
      </trkpt>
      <trkpt lat="37.705585800" lon="-1.791618600">
        <ele>518.000000</ele>
        <time>2014-03-29T16:21:31Z</time>
      </trkpt>
      <trkpt lat="37.705559600" lon="-1.791560600">
        <ele>519.000000</ele>
        <time>2014-03-29T16:21:32Z</time>
      </trkpt>
      <trkpt lat="37.705533600" lon="-1.791500600">
        <ele>519.000000</ele>
        <time>2014-03-29T16:21:33Z</time>
      </trkpt>
      <trkpt lat="37.705510900" lon="-1.791442600">
        <ele>519.000000</ele>
        <time>2014-03-29T16:21:34Z</time>
      </trkpt>
      <trkpt lat="37.705489400" lon="-1.791384600">
        <ele>519.000000</ele>
        <time>2014-03-29T16:21:35Z</time>
      </trkpt>
      <trkpt lat="37.705465900" lon="-1.791327800">
        <ele>520.000000</ele>
        <time>2014-03-29T16:21:36Z</time>
      </trkpt>
      <trkpt lat="37.705437900" lon="-1.791272100">
        <ele>520.000000</ele>
        <time>2014-03-29T16:21:37Z</time>
      </trkpt>
      <trkpt lat="37.705407600" lon="-1.791209700">
        <ele>520.000000</ele>
        <time>2014-03-29T16:21:38Z</time>
      </trkpt>
      <trkpt lat="37.705377300" lon="-1.791145200">
        <ele>520.000000</ele>
        <time>2014-03-29T16:21:39Z</time>
      </trkpt>
      <trkpt lat="37.705345000" lon="-1.791078500">
        <ele>520.000000</ele>
        <time>2014-03-29T16:21:40Z</time>
      </trkpt>
      <trkpt lat="37.705312900" lon="-1.791008800">
        <ele>520.000000</ele>
        <time>2014-03-29T16:21:41Z</time>
      </trkpt>
      <trkpt lat="37.705280600" lon="-1.790938000">
        <ele>520.000000</ele>
        <time>2014-03-29T16:21:42Z</time>
      </trkpt>
      <trkpt lat="37.705249700" lon="-1.790865500">
        <ele>520.000000</ele>
        <time>2014-03-29T16:21:43Z</time>
      </trkpt>
      <trkpt lat="37.705225500" lon="-1.790786900">
        <ele>520.000000</ele>
        <time>2014-03-29T16:21:44Z</time>
      </trkpt>
      <trkpt lat="37.705207700" lon="-1.790702300">
        <ele>520.000000</ele>
        <time>2014-03-29T16:21:45Z</time>
      </trkpt>
      <trkpt lat="37.705193400" lon="-1.790610000">
        <ele>520.000000</ele>
        <time>2014-03-29T16:21:46Z</time>
      </trkpt>
      <trkpt lat="37.705185800" lon="-1.790509000">
        <ele>520.000000</ele>
        <time>2014-03-29T16:21:47Z</time>
      </trkpt>
      <trkpt lat="37.705184700" lon="-1.790405300">
        <ele>520.000000</ele>
        <time>2014-03-29T16:21:48Z</time>
      </trkpt>
      <trkpt lat="37.705189200" lon="-1.790297600">
        <ele>520.000000</ele>
        <time>2014-03-29T16:21:49Z</time>
      </trkpt>
      <trkpt lat="37.705203300" lon="-1.790185300">
        <ele>519.000000</ele>
        <time>2014-03-29T16:21:50Z</time>
      </trkpt>
      <trkpt lat="37.705225000" lon="-1.790071400">
        <ele>519.000000</ele>
        <time>2014-03-29T16:21:51Z</time>
      </trkpt>
      <trkpt lat="37.705246100" lon="-1.789955600">
        <ele>519.000000</ele>
        <time>2014-03-29T16:21:52Z</time>
      </trkpt>
      <trkpt lat="37.705270900" lon="-1.789839800">
        <ele>519.000000</ele>
        <time>2014-03-29T16:21:53Z</time>
      </trkpt>
      <trkpt lat="37.705305000" lon="-1.789724400">
        <ele>518.000000</ele>
        <time>2014-03-29T16:21:54Z</time>
      </trkpt>
      <trkpt lat="37.705351500" lon="-1.789611300">
        <ele>518.000000</ele>
        <time>2014-03-29T16:21:55Z</time>
      </trkpt>
      <trkpt lat="37.705406400" lon="-1.789505400">
        <ele>518.000000</ele>
        <time>2014-03-29T16:21:56Z</time>
      </trkpt>
      <trkpt lat="37.705468200" lon="-1.789401900">
        <ele>517.000000</ele>
        <time>2014-03-29T16:21:57Z</time>
      </trkpt>
      <trkpt lat="37.705532000" lon="-1.789298600">
        <ele>517.000000</ele>
        <time>2014-03-29T16:21:58Z</time>
      </trkpt>
      <trkpt lat="37.705601900" lon="-1.789197300">
        <ele>517.000000</ele>
        <time>2014-03-29T16:21:59Z</time>
      </trkpt>
      <trkpt lat="37.705672100" lon="-1.789093700">
        <ele>516.000000</ele>
        <time>2014-03-29T16:22:00Z</time>
      </trkpt>
      <trkpt lat="37.705739000" lon="-1.788984900">
        <ele>516.000000</ele>
        <time>2014-03-29T16:22:01Z</time>
      </trkpt>
      <trkpt lat="37.705798700" lon="-1.788864500">
        <ele>516.000000</ele>
        <time>2014-03-29T16:22:02Z</time>
      </trkpt>
      <trkpt lat="37.705850300" lon="-1.788732700">
        <ele>515.000000</ele>
        <time>2014-03-29T16:22:03Z</time>
      </trkpt>
      <trkpt lat="37.705889100" lon="-1.788591100">
        <ele>515.000000</ele>
        <time>2014-03-29T16:22:04Z</time>
      </trkpt>
      <trkpt lat="37.705919500" lon="-1.788437000">
        <ele>514.000000</ele>
        <time>2014-03-29T16:22:05Z</time>
      </trkpt>
      <trkpt lat="37.705937000" lon="-1.788279200">
        <ele>514.000000</ele>
        <time>2014-03-29T16:22:06Z</time>
      </trkpt>
      <trkpt lat="37.705931700" lon="-1.788117900">
        <ele>513.000000</ele>
        <time>2014-03-29T16:22:07Z</time>
      </trkpt>
      <trkpt lat="37.705909200" lon="-1.787952700">
        <ele>513.000000</ele>
        <time>2014-03-29T16:22:08Z</time>
      </trkpt>
      <trkpt lat="37.705877800" lon="-1.787790400">
        <ele>512.000000</ele>
        <time>2014-03-29T16:22:09Z</time>
      </trkpt>
      <trkpt lat="37.705849200" lon="-1.787629800">
        <ele>512.000000</ele>
        <time>2014-03-29T16:22:10Z</time>
      </trkpt>
      <trkpt lat="37.705825200" lon="-1.787464300">
        <ele>511.000000</ele>
        <time>2014-03-29T16:22:11Z</time>
      </trkpt>
      <trkpt lat="37.705802400" lon="-1.787299100">
        <ele>510.000000</ele>
        <time>2014-03-29T16:22:12Z</time>
      </trkpt>
      <trkpt lat="37.705785200" lon="-1.787128200">
        <ele>510.000000</ele>
        <time>2014-03-29T16:22:13Z</time>
      </trkpt>
      <trkpt lat="37.705773100" lon="-1.786955100">
        <ele>509.000000</ele>
        <time>2014-03-29T16:22:14Z</time>
      </trkpt>
      <trkpt lat="37.705764600" lon="-1.786778700">
        <ele>508.000000</ele>
        <time>2014-03-29T16:22:15Z</time>
      </trkpt>
      <trkpt lat="37.705758900" lon="-1.786598900">
        <ele>507.000000</ele>
        <time>2014-03-29T16:22:16Z</time>
      </trkpt>
      <trkpt lat="37.705756700" lon="-1.786421100">
        <ele>507.000000</ele>
        <time>2014-03-29T16:22:17Z</time>
      </trkpt>
      <trkpt lat="37.705754500" lon="-1.786249100">
        <ele>506.000000</ele>
        <time>2014-03-29T16:22:18Z</time>
      </trkpt>
      <trkpt lat="37.705752900" lon="-1.786082000">
        <ele>505.000000</ele>
        <time>2014-03-29T16:22:19Z</time>
      </trkpt>
      <trkpt lat="37.705748800" lon="-1.785914900">
        <ele>504.000000</ele>
        <time>2014-03-29T16:22:20Z</time>
      </trkpt>
      <trkpt lat="37.705730500" lon="-1.785746000">
        <ele>503.000000</ele>
        <time>2014-03-29T16:22:21Z</time>
      </trkpt>
      <trkpt lat="37.705693300" lon="-1.785581900">
        <ele>502.000000</ele>
        <time>2014-03-29T16:22:22Z</time>
      </trkpt>
      <trkpt lat="37.705632700" lon="-1.785430700">
        <ele>502.000000</ele>
        <time>2014-03-29T16:22:23Z</time>
      </trkpt>
      <trkpt lat="37.705552500" lon="-1.785289800">
        <ele>501.000000</ele>
        <time>2014-03-29T16:22:24Z</time>
      </trkpt>
      <trkpt lat="37.705455700" lon="-1.785161200">
        <ele>500.000000</ele>
        <time>2014-03-29T16:22:25Z</time>
      </trkpt>
      <trkpt lat="37.705340400" lon="-1.785051900">
        <ele>499.000000</ele>
        <time>2014-03-29T16:22:26Z</time>
      </trkpt>
      <trkpt lat="37.705220200" lon="-1.784946700">
        <ele>498.000000</ele>
        <time>2014-03-29T16:22:27Z</time>
      </trkpt>
      <trkpt lat="37.705101600" lon="-1.784841200">
        <ele>497.000000</ele>
        <time>2014-03-29T16:22:28Z</time>
      </trkpt>
      <trkpt lat="37.704987000" lon="-1.784730800">
        <ele>496.000000</ele>
        <time>2014-03-29T16:22:29Z</time>
      </trkpt>
      <trkpt lat="37.704885100" lon="-1.784614100">
        <ele>495.000000</ele>
        <time>2014-03-29T16:22:30Z</time>
      </trkpt>
      <trkpt lat="37.704792300" lon="-1.784494900">
        <ele>494.000000</ele>
        <time>2014-03-29T16:22:31Z</time>
      </trkpt>
      <trkpt lat="37.704704100" lon="-1.784371000">
        <ele>493.000000</ele>
        <time>2014-03-29T16:22:32Z</time>
      </trkpt>
      <trkpt lat="37.704623000" lon="-1.784241800">
        <ele>492.000000</ele>
        <time>2014-03-29T16:22:33Z</time>
      </trkpt>
      <trkpt lat="37.704549200" lon="-1.784109400">
        <ele>491.000000</ele>
        <time>2014-03-29T16:22:34Z</time>
      </trkpt>
      <trkpt lat="37.704477800" lon="-1.783978300">
        <ele>490.000000</ele>
        <time>2014-03-29T16:22:35Z</time>
      </trkpt>
      <trkpt lat="37.704412900" lon="-1.783841000">
        <ele>490.000000</ele>
        <time>2014-03-29T16:22:36Z</time>
      </trkpt>
      <trkpt lat="37.704352500" lon="-1.783700100">
        <ele>489.000000</ele>
        <time>2014-03-29T16:22:37Z</time>
      </trkpt>
      <trkpt lat="37.704294900" lon="-1.783564900">
        <ele>488.000000</ele>
        <time>2014-03-29T16:22:38Z</time>
      </trkpt>
      <trkpt lat="37.704241000" lon="-1.783432400">
        <ele>488.000000</ele>
        <time>2014-03-29T16:22:39Z</time>
      </trkpt>
      <trkpt lat="37.704186500" lon="-1.783300500">
        <ele>487.000000</ele>
        <time>2014-03-29T16:22:40Z</time>
      </trkpt>
      <trkpt lat="37.704133100" lon="-1.783169300">
        <ele>486.000000</ele>
        <time>2014-03-29T16:22:41Z</time>
      </trkpt>
      <trkpt lat="37.704084700" lon="-1.783037200">
        <ele>486.000000</ele>
        <time>2014-03-29T16:22:42Z</time>
      </trkpt>
      <trkpt lat="37.704041000" lon="-1.782902400">
        <ele>485.000000</ele>
        <time>2014-03-29T16:22:43Z</time>
      </trkpt>
      <trkpt lat="37.703999000" lon="-1.782758400">
        <ele>485.000000</ele>
        <time>2014-03-29T16:22:44Z</time>
      </trkpt>
      <trkpt lat="37.703959900" lon="-1.782613700">
        <ele>484.000000</ele>
        <time>2014-03-29T16:22:45Z</time>
      </trkpt>
      <trkpt lat="37.703919400" lon="-1.782466500">
        <ele>484.000000</ele>
        <time>2014-03-29T16:22:46Z</time>
      </trkpt>
      <trkpt lat="37.703876900" lon="-1.782318600">
        <ele>484.000000</ele>
        <time>2014-03-29T16:22:47Z</time>
      </trkpt>
      <trkpt lat="37.703840300" lon="-1.782168300">
        <ele>483.000000</ele>
        <time>2014-03-29T16:22:48Z</time>
      </trkpt>
      <trkpt lat="37.703807600" lon="-1.782014600">
        <ele>483.000000</ele>
        <time>2014-03-29T16:22:49Z</time>
      </trkpt>
      <trkpt lat="37.703775000" lon="-1.781860800">
        <ele>482.000000</ele>
        <time>2014-03-29T16:22:50Z</time>
      </trkpt>
      <trkpt lat="37.703743200" lon="-1.781706300">
        <ele>482.000000</ele>
        <time>2014-03-29T16:22:51Z</time>
      </trkpt>
      <trkpt lat="37.703710400" lon="-1.781552800">
        <ele>482.000000</ele>
        <time>2014-03-29T16:22:52Z</time>
      </trkpt>
      <trkpt lat="37.703667600" lon="-1.781404700">
        <ele>481.000000</ele>
        <time>2014-03-29T16:22:53Z</time>
      </trkpt>
      <trkpt lat="37.703613600" lon="-1.781257400">
        <ele>481.000000</ele>
        <time>2014-03-29T16:22:54Z</time>
      </trkpt>
      <trkpt lat="37.703553800" lon="-1.781110500">
        <ele>480.000000</ele>
        <time>2014-03-29T16:22:55Z</time>
      </trkpt>
      <trkpt lat="37.703499000" lon="-1.780959900">
        <ele>480.000000</ele>
        <time>2014-03-29T16:22:56Z</time>
      </trkpt>
      <trkpt lat="37.703458500" lon="-1.780806800">
        <ele>480.000000</ele>
        <time>2014-03-29T16:22:57Z</time>
      </trkpt>
      <trkpt lat="37.703431400" lon="-1.780648600">
        <ele>479.000000</ele>
        <time>2014-03-29T16:22:58Z</time>
      </trkpt>
      <trkpt lat="37.703419600" lon="-1.780485100">
        <ele>479.000000</ele>
        <time>2014-03-29T16:22:59Z</time>
      </trkpt>
      <trkpt lat="37.703422000" lon="-1.780319900">
        <ele>478.000000</ele>
        <time>2014-03-29T16:23:00Z</time>
      </trkpt>
      <trkpt lat="37.703436100" lon="-1.780158200">
        <ele>478.000000</ele>
        <time>2014-03-29T16:23:01Z</time>
      </trkpt>
      <trkpt lat="37.703460500" lon="-1.780001100">
        <ele>477.000000</ele>
        <time>2014-03-29T16:23:02Z</time>
      </trkpt>
      <trkpt lat="37.703496400" lon="-1.779851300">
        <ele>477.000000</ele>
        <time>2014-03-29T16:23:03Z</time>
      </trkpt>
      <trkpt lat="37.703541200" lon="-1.779707100">
        <ele>476.000000</ele>
        <time>2014-03-29T16:23:04Z</time>
      </trkpt>
      <trkpt lat="37.703592800" lon="-1.779572100">
        <ele>476.000000</ele>
        <time>2014-03-29T16:23:05Z</time>
      </trkpt>
      <trkpt lat="37.703649500" lon="-1.779440300">
        <ele>476.000000</ele>
        <time>2014-03-29T16:23:06Z</time>
      </trkpt>
      <trkpt lat="37.703701800" lon="-1.779304900">
        <ele>476.000000</ele>
        <time>2014-03-29T16:23:07Z</time>
      </trkpt>
      <trkpt lat="37.703753200" lon="-1.779171900">
        <ele>475.000000</ele>
        <time>2014-03-29T16:23:08Z</time>
      </trkpt>
      <trkpt lat="37.703794800" lon="-1.779036700">
        <ele>475.000000</ele>
        <time>2014-03-29T16:23:09Z</time>
      </trkpt>
      <trkpt lat="37.703817300" lon="-1.778897200">
        <ele>475.000000</ele>
        <time>2014-03-29T16:23:10Z</time>
      </trkpt>
      <trkpt lat="37.703819400" lon="-1.778753800">
        <ele>474.000000</ele>
        <time>2014-03-29T16:23:11Z</time>
      </trkpt>
      <trkpt lat="37.703801900" lon="-1.778611900">
        <ele>474.000000</ele>
        <time>2014-03-29T16:23:12Z</time>
      </trkpt>
      <trkpt lat="37.703767400" lon="-1.778471000">
        <ele>474.000000</ele>
        <time>2014-03-29T16:23:13Z</time>
      </trkpt>
      <trkpt lat="37.703719100" lon="-1.778332500">
        <ele>474.000000</ele>
        <time>2014-03-29T16:23:14Z</time>
      </trkpt>
      <trkpt lat="37.703667200" lon="-1.778198800">
        <ele>473.000000</ele>
        <time>2014-03-29T16:23:15Z</time>
      </trkpt>
      <trkpt lat="37.703615900" lon="-1.778065500">
        <ele>473.000000</ele>
        <time>2014-03-29T16:23:16Z</time>
      </trkpt>
      <trkpt lat="37.703560700" lon="-1.777930900">
        <ele>473.000000</ele>
        <time>2014-03-29T16:23:17Z</time>
      </trkpt>
      <trkpt lat="37.703506100" lon="-1.777795500">
        <ele>473.000000</ele>
        <time>2014-03-29T16:23:18Z</time>
      </trkpt>
      <trkpt lat="37.703454500" lon="-1.777663000">
        <ele>473.000000</ele>
        <time>2014-03-29T16:23:19Z</time>
      </trkpt>
      <trkpt lat="37.703405500" lon="-1.777533400">
        <ele>473.000000</ele>
        <time>2014-03-29T16:23:20Z</time>
      </trkpt>
      <trkpt lat="37.703356400" lon="-1.777408100">
        <ele>473.000000</ele>
        <time>2014-03-29T16:23:21Z</time>
      </trkpt>
      <trkpt lat="37.703307100" lon="-1.777282900">
        <ele>473.000000</ele>
        <time>2014-03-29T16:23:22Z</time>
      </trkpt>
      <trkpt lat="37.703260600" lon="-1.777162400">
        <ele>472.000000</ele>
        <time>2014-03-29T16:23:23Z</time>
      </trkpt>
      <trkpt lat="37.703213200" lon="-1.777039300">
        <ele>472.000000</ele>
        <time>2014-03-29T16:23:24Z</time>
      </trkpt>
      <trkpt lat="37.703167800" lon="-1.776915900">
        <ele>472.000000</ele>
        <time>2014-03-29T16:23:25Z</time>
      </trkpt>
      <trkpt lat="37.703122600" lon="-1.776793500">
        <ele>472.000000</ele>
        <time>2014-03-29T16:23:26Z</time>
      </trkpt>
      <trkpt lat="37.703075300" lon="-1.776674500">
        <ele>472.000000</ele>
        <time>2014-03-29T16:23:27Z</time>
      </trkpt>
      <trkpt lat="37.703028700" lon="-1.776556600">
        <ele>472.000000</ele>
        <time>2014-03-29T16:23:28Z</time>
      </trkpt>
      <trkpt lat="37.702981000" lon="-1.776437000">
        <ele>472.000000</ele>
        <time>2014-03-29T16:23:29Z</time>
      </trkpt>
      <trkpt lat="37.702932400" lon="-1.776315500">
        <ele>472.000000</ele>
        <time>2014-03-29T16:23:30Z</time>
      </trkpt>
      <trkpt lat="37.702883900" lon="-1.776195700">
        <ele>472.000000</ele>
        <time>2014-03-29T16:23:31Z</time>
      </trkpt>
      <trkpt lat="37.702836300" lon="-1.776072300">
        <ele>472.000000</ele>
        <time>2014-03-29T16:23:32Z</time>
      </trkpt>
      <trkpt lat="37.702787600" lon="-1.775950000">
        <ele>472.000000</ele>
        <time>2014-03-29T16:23:33Z</time>
      </trkpt>
      <trkpt lat="37.702738200" lon="-1.775827000">
        <ele>472.000000</ele>
        <time>2014-03-29T16:23:34Z</time>
      </trkpt>
      <trkpt lat="37.702688400" lon="-1.775701600">
        <ele>472.000000</ele>
        <time>2014-03-29T16:23:35Z</time>
      </trkpt>
      <trkpt lat="37.702633400" lon="-1.775577100">
        <ele>472.000000</ele>
        <time>2014-03-29T16:23:36Z</time>
      </trkpt>
      <trkpt lat="37.702583900" lon="-1.775455300">
        <ele>472.000000</ele>
        <time>2014-03-29T16:23:37Z</time>
      </trkpt>
      <trkpt lat="37.702536400" lon="-1.775332300">
        <ele>472.000000</ele>
        <time>2014-03-29T16:23:38Z</time>
      </trkpt>
      <trkpt lat="37.702489300" lon="-1.775210700">
        <ele>472.000000</ele>
        <time>2014-03-29T16:23:39Z</time>
      </trkpt>
      <trkpt lat="37.702443100" lon="-1.775085100">
        <ele>472.000000</ele>
        <time>2014-03-29T16:23:40Z</time>
      </trkpt>
      <trkpt lat="37.702398700" lon="-1.774961000">
        <ele>472.000000</ele>
        <time>2014-03-29T16:23:41Z</time>
      </trkpt>
      <trkpt lat="37.702352300" lon="-1.774841600">
        <ele>471.000000</ele>
        <time>2014-03-29T16:23:42Z</time>
      </trkpt>
      <trkpt lat="37.702307800" lon="-1.774728900">
        <ele>471.000000</ele>
        <time>2014-03-29T16:23:43Z</time>
      </trkpt>
      <trkpt lat="37.702258600" lon="-1.774616800">
        <ele>471.000000</ele>
        <time>2014-03-29T16:23:44Z</time>
      </trkpt>
      <trkpt lat="37.702205700" lon="-1.774505900">
        <ele>471.000000</ele>
        <time>2014-03-29T16:23:45Z</time>
      </trkpt>
      <trkpt lat="37.702150700" lon="-1.774394600">
        <ele>471.000000</ele>
        <time>2014-03-29T16:23:46Z</time>
      </trkpt>
      <trkpt lat="37.702093100" lon="-1.774281600">
        <ele>471.000000</ele>
        <time>2014-03-29T16:23:47Z</time>
      </trkpt>
      <trkpt lat="37.702033700" lon="-1.774170000">
        <ele>471.000000</ele>
        <time>2014-03-29T16:23:48Z</time>
      </trkpt>
      <trkpt lat="37.701973200" lon="-1.774059400">
        <ele>471.000000</ele>
        <time>2014-03-29T16:23:49Z</time>
      </trkpt>
      <trkpt lat="37.701913800" lon="-1.773951400">
        <ele>471.000000</ele>
        <time>2014-03-29T16:23:50Z</time>
      </trkpt>
      <trkpt lat="37.701854500" lon="-1.773845600">
        <ele>471.000000</ele>
        <time>2014-03-29T16:23:51Z</time>
      </trkpt>
      <trkpt lat="37.701793100" lon="-1.773739900">
        <ele>471.000000</ele>
        <time>2014-03-29T16:23:52Z</time>
      </trkpt>
      <trkpt lat="37.701732500" lon="-1.773635900">
        <ele>470.000000</ele>
        <time>2014-03-29T16:23:53Z</time>
      </trkpt>
      <trkpt lat="37.701674000" lon="-1.773531200">
        <ele>470.000000</ele>
        <time>2014-03-29T16:23:54Z</time>
      </trkpt>
      <trkpt lat="37.701614700" lon="-1.773428000">
        <ele>470.000000</ele>
        <time>2014-03-29T16:23:55Z</time>
      </trkpt>
      <trkpt lat="37.701556200" lon="-1.773324800">
        <ele>470.000000</ele>
        <time>2014-03-29T16:23:56Z</time>
      </trkpt>
      <trkpt lat="37.701498800" lon="-1.773221200">
        <ele>470.000000</ele>
        <time>2014-03-29T16:23:57Z</time>
      </trkpt>
      <trkpt lat="37.701442900" lon="-1.773118200">
        <ele>470.000000</ele>
        <time>2014-03-29T16:23:58Z</time>
      </trkpt>
      <trkpt lat="37.701387800" lon="-1.773018200">
        <ele>470.000000</ele>
        <time>2014-03-29T16:23:59Z</time>
      </trkpt>
      <trkpt lat="37.701331500" lon="-1.772918200">
        <ele>470.000000</ele>
        <time>2014-03-29T16:24:00Z</time>
      </trkpt>
      <trkpt lat="37.701274000" lon="-1.772816700">
        <ele>470.000000</ele>
        <time>2014-03-29T16:24:01Z</time>
      </trkpt>
      <trkpt lat="37.701218700" lon="-1.772715500">
        <ele>470.000000</ele>
        <time>2014-03-29T16:24:02Z</time>
      </trkpt>
      <trkpt lat="37.701161700" lon="-1.772614300">
        <ele>470.000000</ele>
        <time>2014-03-29T16:24:03Z</time>
      </trkpt>
      <trkpt lat="37.701105300" lon="-1.772515200">
        <ele>470.000000</ele>
        <time>2014-03-29T16:24:04Z</time>
      </trkpt>
      <trkpt lat="37.701049200" lon="-1.772416100">
        <ele>470.000000</ele>
        <time>2014-03-29T16:24:05Z</time>
      </trkpt>
      <trkpt lat="37.700991000" lon="-1.772316400">
        <ele>470.000000</ele>
        <time>2014-03-29T16:24:06Z</time>
      </trkpt>
      <trkpt lat="37.700932700" lon="-1.772219200">
        <ele>470.000000</ele>
        <time>2014-03-29T16:24:07Z</time>
      </trkpt>
      <trkpt lat="37.700872200" lon="-1.772121600">
        <ele>470.000000</ele>
        <time>2014-03-29T16:24:08Z</time>
      </trkpt>
      <trkpt lat="37.700810800" lon="-1.772022000">
        <ele>470.000000</ele>
        <time>2014-03-29T16:24:09Z</time>
      </trkpt>
      <trkpt lat="37.700748900" lon="-1.771920100">
        <ele>470.000000</ele>
        <time>2014-03-29T16:24:10Z</time>
      </trkpt>
      <trkpt lat="37.700690500" lon="-1.771820300">
        <ele>470.000000</ele>
        <time>2014-03-29T16:24:11Z</time>
      </trkpt>
      <trkpt lat="37.700631900" lon="-1.771721500">
        <ele>470.000000</ele>
        <time>2014-03-29T16:24:12Z</time>
      </trkpt>
      <trkpt lat="37.700572400" lon="-1.771620600">
        <ele>470.000000</ele>
        <time>2014-03-29T16:24:13Z</time>
      </trkpt>
      <trkpt lat="37.700516700" lon="-1.771521700">
        <ele>470.000000</ele>
        <time>2014-03-29T16:24:14Z</time>
      </trkpt>
      <trkpt lat="37.700461500" lon="-1.771426700">
        <ele>470.000000</ele>
        <time>2014-03-29T16:24:15Z</time>
      </trkpt>
      <trkpt lat="37.700411100" lon="-1.771336800">
        <ele>470.000000</ele>
        <time>2014-03-29T16:24:16Z</time>
      </trkpt>
      <trkpt lat="37.700360600" lon="-1.771251900">
        <ele>470.000000</ele>
        <time>2014-03-29T16:24:17Z</time>
      </trkpt>
      <trkpt lat="37.700303300" lon="-1.771162600">
        <ele>470.000000</ele>
        <time>2014-03-29T16:24:18Z</time>
      </trkpt>
      <trkpt lat="37.700246000" lon="-1.771072100">
        <ele>470.000000</ele>
        <time>2014-03-29T16:24:19Z</time>
      </trkpt>
      <trkpt lat="37.700185500" lon="-1.770982900">
        <ele>470.000000</ele>
        <time>2014-03-29T16:24:20Z</time>
      </trkpt>
      <trkpt lat="37.700122000" lon="-1.770894200">
        <ele>470.000000</ele>
        <time>2014-03-29T16:24:21Z</time>
      </trkpt>
      <trkpt lat="37.700059400" lon="-1.770807700">
        <ele>470.000000</ele>
        <time>2014-03-29T16:24:22Z</time>
      </trkpt>
      <trkpt lat="37.699995500" lon="-1.770724800">
        <ele>470.000000</ele>
        <time>2014-03-29T16:24:23Z</time>
      </trkpt>
      <trkpt lat="37.699929600" lon="-1.770643700">
        <ele>469.000000</ele>
        <time>2014-03-29T16:24:24Z</time>
      </trkpt>
      <trkpt lat="37.699861700" lon="-1.770565100">
        <ele>469.000000</ele>
        <time>2014-03-29T16:24:25Z</time>
      </trkpt>
      <trkpt lat="37.699792300" lon="-1.770486500">
        <ele>469.000000</ele>
        <time>2014-03-29T16:24:26Z</time>
      </trkpt>
      <trkpt lat="37.699719900" lon="-1.770406600">
        <ele>469.000000</ele>
        <time>2014-03-29T16:24:27Z</time>
      </trkpt>
      <trkpt lat="37.699653600" lon="-1.770324700">
        <ele>469.000000</ele>
        <time>2014-03-29T16:24:28Z</time>
      </trkpt>
      <trkpt lat="37.699588200" lon="-1.770242200">
        <ele>469.000000</ele>
        <time>2014-03-29T16:24:29Z</time>
      </trkpt>
      <trkpt lat="37.699520600" lon="-1.770164700">
        <ele>469.000000</ele>
        <time>2014-03-29T16:24:30Z</time>
      </trkpt>
      <trkpt lat="37.699456700" lon="-1.770090200">
        <ele>469.000000</ele>
        <time>2014-03-29T16:24:31Z</time>
      </trkpt>
      <trkpt lat="37.699390600" lon="-1.770010700">
        <ele>469.000000</ele>
        <time>2014-03-29T16:24:32Z</time>
      </trkpt>
      <trkpt lat="37.699325500" lon="-1.769934300">
        <ele>469.000000</ele>
        <time>2014-03-29T16:24:33Z</time>
      </trkpt>
      <trkpt lat="37.699260700" lon="-1.769851100">
        <ele>469.000000</ele>
        <time>2014-03-29T16:24:34Z</time>
      </trkpt>
      <trkpt lat="37.699192400" lon="-1.769765000">
        <ele>469.000000</ele>
        <time>2014-03-29T16:24:35Z</time>
      </trkpt>
      <trkpt lat="37.699127300" lon="-1.769682900">
        <ele>469.000000</ele>
        <time>2014-03-29T16:24:36Z</time>
      </trkpt>
      <trkpt lat="37.699059200" lon="-1.769597200">
        <ele>469.000000</ele>
        <time>2014-03-29T16:24:37Z</time>
      </trkpt>
      <trkpt lat="37.698989100" lon="-1.769511400">
        <ele>469.000000</ele>
        <time>2014-03-29T16:24:38Z</time>
      </trkpt>
      <trkpt lat="37.698918600" lon="-1.769426500">
        <ele>469.000000</ele>
        <time>2014-03-29T16:24:39Z</time>
      </trkpt>
      <trkpt lat="37.698847600" lon="-1.769339400">
        <ele>469.000000</ele>
        <time>2014-03-29T16:24:40Z</time>
      </trkpt>
      <trkpt lat="37.698780000" lon="-1.769258400">
        <ele>469.000000</ele>
        <time>2014-03-29T16:24:41Z</time>
      </trkpt>
      <trkpt lat="37.698715700" lon="-1.769179200">
        <ele>469.000000</ele>
        <time>2014-03-29T16:24:42Z</time>
      </trkpt>
      <trkpt lat="37.698649500" lon="-1.769094900">
        <ele>469.000000</ele>
        <time>2014-03-29T16:24:43Z</time>
      </trkpt>
      <trkpt lat="37.698582100" lon="-1.769010300">
        <ele>469.000000</ele>
        <time>2014-03-29T16:24:44Z</time>
      </trkpt>
      <trkpt lat="37.698515500" lon="-1.768924900">
        <ele>469.000000</ele>
        <time>2014-03-29T16:24:45Z</time>
      </trkpt>
      <trkpt lat="37.698444900" lon="-1.768839300">
        <ele>469.000000</ele>
        <time>2014-03-29T16:24:46Z</time>
      </trkpt>
      <trkpt lat="37.698371900" lon="-1.768756700">
        <ele>469.000000</ele>
        <time>2014-03-29T16:24:47Z</time>
      </trkpt>
      <trkpt lat="37.698299500" lon="-1.768673100">
        <ele>468.000000</ele>
        <time>2014-03-29T16:24:48Z</time>
      </trkpt>
      <trkpt lat="37.698225100" lon="-1.768589200">
        <ele>468.000000</ele>
        <time>2014-03-29T16:24:49Z</time>
      </trkpt>
      <trkpt lat="37.698150500" lon="-1.768503600">
        <ele>468.000000</ele>
        <time>2014-03-29T16:24:50Z</time>
      </trkpt>
      <trkpt lat="37.698079400" lon="-1.768420700">
        <ele>468.000000</ele>
        <time>2014-03-29T16:24:51Z</time>
      </trkpt>
      <trkpt lat="37.698013800" lon="-1.768341700">
        <ele>468.000000</ele>
        <time>2014-03-29T16:24:52Z</time>
      </trkpt>
      <trkpt lat="37.697944500" lon="-1.768263600">
        <ele>468.000000</ele>
        <time>2014-03-29T16:24:53Z</time>
      </trkpt>
      <trkpt lat="37.697878800" lon="-1.768185600">
        <ele>468.000000</ele>
        <time>2014-03-29T16:24:54Z</time>
      </trkpt>
      <trkpt lat="37.697816700" lon="-1.768108400">
        <ele>468.000000</ele>
        <time>2014-03-29T16:24:55Z</time>
      </trkpt>
      <trkpt lat="37.697753200" lon="-1.768032500">
        <ele>468.000000</ele>
        <time>2014-03-29T16:24:56Z</time>
      </trkpt>
      <trkpt lat="37.697692600" lon="-1.767957200">
        <ele>468.000000</ele>
        <time>2014-03-29T16:24:57Z</time>
      </trkpt>
      <trkpt lat="37.697632400" lon="-1.767884000">
        <ele>468.000000</ele>
        <time>2014-03-29T16:24:58Z</time>
      </trkpt>
      <trkpt lat="37.697572300" lon="-1.767808700">
        <ele>468.000000</ele>
        <time>2014-03-29T16:24:59Z</time>
      </trkpt>
      <trkpt lat="37.697512200" lon="-1.767735700">
        <ele>468.000000</ele>
        <time>2014-03-29T16:25:00Z</time>
      </trkpt>
      <trkpt lat="37.697454500" lon="-1.767663800">
        <ele>468.000000</ele>
        <time>2014-03-29T16:25:01Z</time>
      </trkpt>
      <trkpt lat="37.697394900" lon="-1.767590900">
        <ele>468.000000</ele>
        <time>2014-03-29T16:25:02Z</time>
      </trkpt>
      <trkpt lat="37.697336600" lon="-1.767513400">
        <ele>468.000000</ele>
        <time>2014-03-29T16:25:03Z</time>
      </trkpt>
      <trkpt lat="37.697279100" lon="-1.767432100">
        <ele>468.000000</ele>
        <time>2014-03-29T16:25:04Z</time>
      </trkpt>
      <trkpt lat="37.697218000" lon="-1.767352900">
        <ele>468.000000</ele>
        <time>2014-03-29T16:25:05Z</time>
      </trkpt>
      <trkpt lat="37.697155300" lon="-1.767278000">
        <ele>468.000000</ele>
        <time>2014-03-29T16:25:06Z</time>
      </trkpt>
      <trkpt lat="37.697094200" lon="-1.767206100">
        <ele>468.000000</ele>
        <time>2014-03-29T16:25:07Z</time>
      </trkpt>
      <trkpt lat="37.697031100" lon="-1.767142500">
        <ele>468.000000</ele>
        <time>2014-03-29T16:25:08Z</time>
      </trkpt>
      <trkpt lat="37.696969500" lon="-1.767075100">
        <ele>468.000000</ele>
        <time>2014-03-29T16:25:09Z</time>
      </trkpt>
      <trkpt lat="37.696909500" lon="-1.767007200">
        <ele>468.000000</ele>
        <time>2014-03-29T16:25:10Z</time>
      </trkpt>
      <trkpt lat="37.696849900" lon="-1.766942300">
        <ele>468.000000</ele>
        <time>2014-03-29T16:25:11Z</time>
      </trkpt>
      <trkpt lat="37.696790700" lon="-1.766876200">
        <ele>468.000000</ele>
        <time>2014-03-29T16:25:12Z</time>
      </trkpt>
      <trkpt lat="37.696731700" lon="-1.766804100">
        <ele>468.000000</ele>
        <time>2014-03-29T16:25:13Z</time>
      </trkpt>
      <trkpt lat="37.696673400" lon="-1.766730300">
        <ele>468.000000</ele>
        <time>2014-03-29T16:25:14Z</time>
      </trkpt>
      <trkpt lat="37.696615500" lon="-1.766656400">
        <ele>468.000000</ele>
        <time>2014-03-29T16:25:15Z</time>
      </trkpt>
      <trkpt lat="37.696555400" lon="-1.766586800">
        <ele>468.000000</ele>
        <time>2014-03-29T16:25:16Z</time>
      </trkpt>
      <trkpt lat="37.696496100" lon="-1.766517400">
        <ele>468.000000</ele>
        <time>2014-03-29T16:25:17Z</time>
      </trkpt>
      <trkpt lat="37.696437400" lon="-1.766445100">
        <ele>468.000000</ele>
        <time>2014-03-29T16:25:18Z</time>
      </trkpt>
      <trkpt lat="37.696376800" lon="-1.766373900">
        <ele>468.000000</ele>
        <time>2014-03-29T16:25:19Z</time>
      </trkpt>
      <trkpt lat="37.696315800" lon="-1.766303800">
        <ele>468.000000</ele>
        <time>2014-03-29T16:25:20Z</time>
      </trkpt>
      <trkpt lat="37.696255200" lon="-1.766232500">
        <ele>468.000000</ele>
        <time>2014-03-29T16:25:21Z</time>
      </trkpt>
      <trkpt lat="37.696194600" lon="-1.766162600">
        <ele>468.000000</ele>
        <time>2014-03-29T16:25:22Z</time>
      </trkpt>
      <trkpt lat="37.696135400" lon="-1.766094300">
        <ele>468.000000</ele>
        <time>2014-03-29T16:25:23Z</time>
      </trkpt>
      <trkpt lat="37.696073500" lon="-1.766026300">
        <ele>468.000000</ele>
        <time>2014-03-29T16:25:24Z</time>
      </trkpt>
      <trkpt lat="37.696015600" lon="-1.765961400">
        <ele>468.000000</ele>
        <time>2014-03-29T16:25:25Z</time>
      </trkpt>
      <trkpt lat="37.695958400" lon="-1.765896200">
        <ele>468.000000</ele>
        <time>2014-03-29T16:25:26Z</time>
      </trkpt>
      <trkpt lat="37.695898600" lon="-1.765828500">
        <ele>468.000000</ele>
        <time>2014-03-29T16:25:27Z</time>
      </trkpt>
      <trkpt lat="37.695838700" lon="-1.765759300">
        <ele>468.000000</ele>
        <time>2014-03-29T16:25:28Z</time>
      </trkpt>
      <trkpt lat="37.695777200" lon="-1.765686700">
        <ele>468.000000</ele>
        <time>2014-03-29T16:25:29Z</time>
      </trkpt>
      <trkpt lat="37.695717500" lon="-1.765614200">
        <ele>468.000000</ele>
        <time>2014-03-29T16:25:30Z</time>
      </trkpt>
      <trkpt lat="37.695658100" lon="-1.765543900">
        <ele>468.000000</ele>
        <time>2014-03-29T16:25:31Z</time>
      </trkpt>
      <trkpt lat="37.695596800" lon="-1.765474400">
        <ele>468.000000</ele>
        <time>2014-03-29T16:25:32Z</time>
      </trkpt>
      <trkpt lat="37.695537600" lon="-1.765405400">
        <ele>468.000000</ele>
        <time>2014-03-29T16:25:33Z</time>
      </trkpt>
      <trkpt lat="37.695480000" lon="-1.765337100">
        <ele>468.000000</ele>
        <time>2014-03-29T16:25:34Z</time>
      </trkpt>
      <trkpt lat="37.695424000" lon="-1.765266000">
        <ele>468.000000</ele>
        <time>2014-03-29T16:25:35Z</time>
      </trkpt>
      <trkpt lat="37.695368200" lon="-1.765196000">
        <ele>468.000000</ele>
        <time>2014-03-29T16:25:36Z</time>
      </trkpt>
      <trkpt lat="37.695317200" lon="-1.765118400">
        <ele>468.000000</ele>
        <time>2014-03-29T16:25:37Z</time>
      </trkpt>
      <trkpt lat="37.695259700" lon="-1.765047000">
        <ele>468.000000</ele>
        <time>2014-03-29T16:25:38Z</time>
      </trkpt>
      <trkpt lat="37.695202800" lon="-1.764973500">
        <ele>468.000000</ele>
        <time>2014-03-29T16:25:39Z</time>
      </trkpt>
      <trkpt lat="37.695144700" lon="-1.764899600">
        <ele>468.000000</ele>
        <time>2014-03-29T16:25:40Z</time>
      </trkpt>
      <trkpt lat="37.695086900" lon="-1.764827500">
        <ele>468.000000</ele>
        <time>2014-03-29T16:25:41Z</time>
      </trkpt>
      <trkpt lat="37.695029900" lon="-1.764751800">
        <ele>468.000000</ele>
        <time>2014-03-29T16:25:42Z</time>
      </trkpt>
      <trkpt lat="37.694970800" lon="-1.764672400">
        <ele>469.000000</ele>
        <time>2014-03-29T16:25:43Z</time>
      </trkpt>
      <trkpt lat="37.694913800" lon="-1.764589500">
        <ele>469.000000</ele>
        <time>2014-03-29T16:25:44Z</time>
      </trkpt>
      <trkpt lat="37.694864900" lon="-1.764503200">
        <ele>469.000000</ele>
        <time>2014-03-29T16:25:45Z</time>
      </trkpt>
      <trkpt lat="37.694815800" lon="-1.764411600">
        <ele>469.000000</ele>
        <time>2014-03-29T16:25:46Z</time>
      </trkpt>
      <trkpt lat="37.694767900" lon="-1.764321000">
        <ele>469.000000</ele>
        <time>2014-03-29T16:25:47Z</time>
      </trkpt>
      <trkpt lat="37.694721700" lon="-1.764229200">
        <ele>469.000000</ele>
        <time>2014-03-29T16:25:48Z</time>
      </trkpt>
      <trkpt lat="37.694677700" lon="-1.764137200">
        <ele>469.000000</ele>
        <time>2014-03-29T16:25:49Z</time>
      </trkpt>
      <trkpt lat="37.694635500" lon="-1.764045500">
        <ele>469.000000</ele>
        <time>2014-03-29T16:25:50Z</time>
      </trkpt>
      <trkpt lat="37.694595600" lon="-1.763953000">
        <ele>469.000000</ele>
        <time>2014-03-29T16:25:51Z</time>
      </trkpt>
      <trkpt lat="37.694556200" lon="-1.763863300">
        <ele>469.000000</ele>
        <time>2014-03-29T16:25:52Z</time>
      </trkpt>
      <trkpt lat="37.694516200" lon="-1.763775400">
        <ele>469.000000</ele>
        <time>2014-03-29T16:25:53Z</time>
      </trkpt>
      <trkpt lat="37.694474400" lon="-1.763685500">
        <ele>469.000000</ele>
        <time>2014-03-29T16:25:54Z</time>
      </trkpt>
      <trkpt lat="37.694430000" lon="-1.763593600">
        <ele>469.000000</ele>
        <time>2014-03-29T16:25:55Z</time>
      </trkpt>
      <trkpt lat="37.694385500" lon="-1.763500200">
        <ele>469.000000</ele>
        <time>2014-03-29T16:25:56Z</time>
      </trkpt>
      <trkpt lat="37.694341900" lon="-1.763403600">
        <ele>469.000000</ele>
        <time>2014-03-29T16:25:57Z</time>
      </trkpt>
      <trkpt lat="37.694300300" lon="-1.763307200">
        <ele>469.000000</ele>
        <time>2014-03-29T16:25:58Z</time>
      </trkpt>
      <trkpt lat="37.694257800" lon="-1.763207800">
        <ele>469.000000</ele>
        <time>2014-03-29T16:25:59Z</time>
      </trkpt>
      <trkpt lat="37.694211200" lon="-1.763110300">
        <ele>469.000000</ele>
        <time>2014-03-29T16:26:00Z</time>
      </trkpt>
      <trkpt lat="37.694163300" lon="-1.763009300">
        <ele>469.000000</ele>
        <time>2014-03-29T16:26:01Z</time>
      </trkpt>
      <trkpt lat="37.694116100" lon="-1.762904600">
        <ele>469.000000</ele>
        <time>2014-03-29T16:26:02Z</time>
      </trkpt>
      <trkpt lat="37.694067500" lon="-1.762799400">
        <ele>469.000000</ele>
        <time>2014-03-29T16:26:03Z</time>
      </trkpt>
      <trkpt lat="37.694021100" lon="-1.762696500">
        <ele>469.000000</ele>
        <time>2014-03-29T16:26:04Z</time>
      </trkpt>
      <trkpt lat="37.693972600" lon="-1.762592200">
        <ele>469.000000</ele>
        <time>2014-03-29T16:26:05Z</time>
      </trkpt>
      <trkpt lat="37.693925500" lon="-1.762488800">
        <ele>469.000000</ele>
        <time>2014-03-29T16:26:06Z</time>
      </trkpt>
      <trkpt lat="37.693880600" lon="-1.762385300">
        <ele>469.000000</ele>
        <time>2014-03-29T16:26:07Z</time>
      </trkpt>
      <trkpt lat="37.693840300" lon="-1.762275900">
        <ele>469.000000</ele>
        <time>2014-03-29T16:26:08Z</time>
      </trkpt>
      <trkpt lat="37.693806400" lon="-1.762163000">
        <ele>469.000000</ele>
        <time>2014-03-29T16:26:09Z</time>
      </trkpt>
      <trkpt lat="37.693770900" lon="-1.762052000">
        <ele>469.000000</ele>
        <time>2014-03-29T16:26:10Z</time>
      </trkpt>
      <trkpt lat="37.693737500" lon="-1.761941200">
        <ele>469.000000</ele>
        <time>2014-03-29T16:26:11Z</time>
      </trkpt>
      <trkpt lat="37.693707700" lon="-1.761828400">
        <ele>468.000000</ele>
        <time>2014-03-29T16:26:12Z</time>
      </trkpt>
      <trkpt lat="37.693682800" lon="-1.761713200">
        <ele>468.000000</ele>
        <time>2014-03-29T16:26:13Z</time>
      </trkpt>
      <trkpt lat="37.693659400" lon="-1.761597000">
        <ele>468.000000</ele>
        <time>2014-03-29T16:26:14Z</time>
      </trkpt>
      <trkpt lat="37.693632400" lon="-1.761478700">
        <ele>468.000000</ele>
        <time>2014-03-29T16:26:15Z</time>
      </trkpt>
      <trkpt lat="37.693605500" lon="-1.761366500">
        <ele>468.000000</ele>
        <time>2014-03-29T16:26:16Z</time>
      </trkpt>
      <trkpt lat="37.693574200" lon="-1.761250600">
        <ele>468.000000</ele>
        <time>2014-03-29T16:26:17Z</time>
      </trkpt>
      <trkpt lat="37.693542400" lon="-1.761134100">
        <ele>467.000000</ele>
        <time>2014-03-29T16:26:18Z</time>
      </trkpt>
      <trkpt lat="37.693513800" lon="-1.761014700">
        <ele>467.000000</ele>
        <time>2014-03-29T16:26:19Z</time>
      </trkpt>
      <trkpt lat="37.693484100" lon="-1.760896300">
        <ele>467.000000</ele>
        <time>2014-03-29T16:26:20Z</time>
      </trkpt>
      <trkpt lat="37.693453400" lon="-1.760780300">
        <ele>467.000000</ele>
        <time>2014-03-29T16:26:21Z</time>
      </trkpt>
      <trkpt lat="37.693424200" lon="-1.760664100">
        <ele>467.000000</ele>
        <time>2014-03-29T16:26:22Z</time>
      </trkpt>
      <trkpt lat="37.693395500" lon="-1.760546700">
        <ele>467.000000</ele>
        <time>2014-03-29T16:26:23Z</time>
      </trkpt>
      <trkpt lat="37.693366300" lon="-1.760434200">
        <ele>467.000000</ele>
        <time>2014-03-29T16:26:24Z</time>
      </trkpt>
      <trkpt lat="37.693336300" lon="-1.760321900">
        <ele>466.000000</ele>
        <time>2014-03-29T16:26:25Z</time>
      </trkpt>
      <trkpt lat="37.693307800" lon="-1.760209300">
        <ele>466.000000</ele>
        <time>2014-03-29T16:26:26Z</time>
      </trkpt>
      <trkpt lat="37.693278400" lon="-1.760097800">
        <ele>466.000000</ele>
        <time>2014-03-29T16:26:27Z</time>
      </trkpt>
      <trkpt lat="37.693249300" lon="-1.759985000">
        <ele>466.000000</ele>
        <time>2014-03-29T16:26:28Z</time>
      </trkpt>
      <trkpt lat="37.693219400" lon="-1.759867800">
        <ele>466.000000</ele>
        <time>2014-03-29T16:26:29Z</time>
      </trkpt>
      <trkpt lat="37.693193000" lon="-1.759760700">
        <ele>466.000000</ele>
        <time>2014-03-29T16:26:30Z</time>
      </trkpt>
      <trkpt lat="37.693164100" lon="-1.759659000">
        <ele>465.000000</ele>
        <time>2014-03-29T16:26:31Z</time>
      </trkpt>
      <trkpt lat="37.693137300" lon="-1.759561000">
        <ele>465.000000</ele>
        <time>2014-03-29T16:26:32Z</time>
      </trkpt>
      <trkpt lat="37.693107200" lon="-1.759462000">
        <ele>465.000000</ele>
        <time>2014-03-29T16:26:33Z</time>
      </trkpt>
      <trkpt lat="37.693071800" lon="-1.759358500">
        <ele>465.000000</ele>
        <time>2014-03-29T16:26:34Z</time>
      </trkpt>
      <trkpt lat="37.693030500" lon="-1.759248900">
        <ele>465.000000</ele>
        <time>2014-03-29T16:26:35Z</time>
      </trkpt>
      <trkpt lat="37.692991400" lon="-1.759139000">
        <ele>464.000000</ele>
        <time>2014-03-29T16:26:36Z</time>
      </trkpt>
      <trkpt lat="37.692956100" lon="-1.759026200">
        <ele>464.000000</ele>
        <time>2014-03-29T16:26:37Z</time>
      </trkpt>
      <trkpt lat="37.692920200" lon="-1.758907200">
        <ele>464.000000</ele>
        <time>2014-03-29T16:26:38Z</time>
      </trkpt>
      <trkpt lat="37.692881400" lon="-1.758788600">
        <ele>464.000000</ele>
        <time>2014-03-29T16:26:39Z</time>
      </trkpt>
      <trkpt lat="37.692843000" lon="-1.758669500">
        <ele>464.000000</ele>
        <time>2014-03-29T16:26:40Z</time>
      </trkpt>
      <trkpt lat="37.692807800" lon="-1.758549300">
        <ele>463.000000</ele>
        <time>2014-03-29T16:26:41Z</time>
      </trkpt>
      <trkpt lat="37.692773500" lon="-1.758423100">
        <ele>463.000000</ele>
        <time>2014-03-29T16:26:42Z</time>
      </trkpt>
      <trkpt lat="37.692738900" lon="-1.758293100">
        <ele>463.000000</ele>
        <time>2014-03-29T16:26:43Z</time>
      </trkpt>
      <trkpt lat="37.692705400" lon="-1.758163700">
        <ele>463.000000</ele>
        <time>2014-03-29T16:26:44Z</time>
      </trkpt>
      <trkpt lat="37.692671400" lon="-1.758034900">
        <ele>463.000000</ele>
        <time>2014-03-29T16:26:45Z</time>
      </trkpt>
      <trkpt lat="37.692635200" lon="-1.757901700">
        <ele>463.000000</ele>
        <time>2014-03-29T16:26:46Z</time>
      </trkpt>
      <trkpt lat="37.692602500" lon="-1.757766600">
        <ele>462.000000</ele>
        <time>2014-03-29T16:26:47Z</time>
      </trkpt>
      <trkpt lat="37.692573600" lon="-1.757631900">
        <ele>462.000000</ele>
        <time>2014-03-29T16:26:48Z</time>
      </trkpt>
      <trkpt lat="37.692544700" lon="-1.757497700">
        <ele>462.000000</ele>
        <time>2014-03-29T16:26:49Z</time>
      </trkpt>
      <trkpt lat="37.692517100" lon="-1.757363000">
        <ele>462.000000</ele>
        <time>2014-03-29T16:26:50Z</time>
      </trkpt>
      <trkpt lat="37.692493400" lon="-1.757228200">
        <ele>462.000000</ele>
        <time>2014-03-29T16:26:51Z</time>
      </trkpt>
      <trkpt lat="37.692470300" lon="-1.757094200">
        <ele>462.000000</ele>
        <time>2014-03-29T16:26:52Z</time>
      </trkpt>
      <trkpt lat="37.692444700" lon="-1.756961900">
        <ele>462.000000</ele>
        <time>2014-03-29T16:26:53Z</time>
      </trkpt>
      <trkpt lat="37.692418300" lon="-1.756831700">
        <ele>462.000000</ele>
        <time>2014-03-29T16:26:54Z</time>
      </trkpt>
      <trkpt lat="37.692389000" lon="-1.756696500">
        <ele>461.000000</ele>
        <time>2014-03-29T16:26:55Z</time>
      </trkpt>
      <trkpt lat="37.692362600" lon="-1.756560400">
        <ele>461.000000</ele>
        <time>2014-03-29T16:26:56Z</time>
      </trkpt>
      <trkpt lat="37.692340200" lon="-1.756425700">
        <ele>461.000000</ele>
        <time>2014-03-29T16:26:57Z</time>
      </trkpt>
      <trkpt lat="37.692316700" lon="-1.756288400">
        <ele>461.000000</ele>
        <time>2014-03-29T16:26:58Z</time>
      </trkpt>
      <trkpt lat="37.692295200" lon="-1.756157800">
        <ele>461.000000</ele>
        <time>2014-03-29T16:26:59Z</time>
      </trkpt>
      <trkpt lat="37.692262700" lon="-1.756027600">
        <ele>461.000000</ele>
        <time>2014-03-29T16:27:00Z</time>
      </trkpt>
      <trkpt lat="37.692216600" lon="-1.755905600">
        <ele>461.000000</ele>
        <time>2014-03-29T16:27:01Z</time>
      </trkpt>
      <trkpt lat="37.692152600" lon="-1.755796700">
        <ele>461.000000</ele>
        <time>2014-03-29T16:27:02Z</time>
      </trkpt>
      <trkpt lat="37.692079600" lon="-1.755693900">
        <ele>460.000000</ele>
        <time>2014-03-29T16:27:03Z</time>
      </trkpt>
      <trkpt lat="37.691995100" lon="-1.755594700">
        <ele>460.000000</ele>
        <time>2014-03-29T16:27:04Z</time>
      </trkpt>
      <trkpt lat="37.691901000" lon="-1.755507300">
        <ele>460.000000</ele>
        <time>2014-03-29T16:27:05Z</time>
      </trkpt>
      <trkpt lat="37.691805600" lon="-1.755429200">
        <ele>460.000000</ele>
        <time>2014-03-29T16:27:06Z</time>
      </trkpt>
      <trkpt lat="37.691708400" lon="-1.755359700">
        <ele>460.000000</ele>
        <time>2014-03-29T16:27:07Z</time>
      </trkpt>
      <trkpt lat="37.691610300" lon="-1.755295400">
        <ele>460.000000</ele>
        <time>2014-03-29T16:27:08Z</time>
      </trkpt>
      <trkpt lat="37.691513400" lon="-1.755233300">
        <ele>460.000000</ele>
        <time>2014-03-29T16:27:09Z</time>
      </trkpt>
      <trkpt lat="37.691416400" lon="-1.755173200">
        <ele>460.000000</ele>
        <time>2014-03-29T16:27:10Z</time>
      </trkpt>
      <trkpt lat="37.691322900" lon="-1.755112700">
        <ele>460.000000</ele>
        <time>2014-03-29T16:27:11Z</time>
      </trkpt>
      <trkpt lat="37.691233400" lon="-1.755052400">
        <ele>460.000000</ele>
        <time>2014-03-29T16:27:12Z</time>
      </trkpt>
      <trkpt lat="37.691144800" lon="-1.754988300">
        <ele>460.000000</ele>
        <time>2014-03-29T16:27:13Z</time>
      </trkpt>
      <trkpt lat="37.691054800" lon="-1.754926400">
        <ele>460.000000</ele>
        <time>2014-03-29T16:27:14Z</time>
      </trkpt>
      <trkpt lat="37.690967700" lon="-1.754861100">
        <ele>460.000000</ele>
        <time>2014-03-29T16:27:15Z</time>
      </trkpt>
      <trkpt lat="37.690886500" lon="-1.754789100">
        <ele>460.000000</ele>
        <time>2014-03-29T16:27:16Z</time>
      </trkpt>
      <trkpt lat="37.690807100" lon="-1.754713500">
        <ele>460.000000</ele>
        <time>2014-03-29T16:27:17Z</time>
      </trkpt>
      <trkpt lat="37.690730100" lon="-1.754634500">
        <ele>460.000000</ele>
        <time>2014-03-29T16:27:18Z</time>
      </trkpt>
      <trkpt lat="37.690654200" lon="-1.754552700">
        <ele>460.000000</ele>
        <time>2014-03-29T16:27:19Z</time>
      </trkpt>
      <trkpt lat="37.690584800" lon="-1.754467900">
        <ele>460.000000</ele>
        <time>2014-03-29T16:27:20Z</time>
      </trkpt>
      <trkpt lat="37.690517400" lon="-1.754384800">
        <ele>460.000000</ele>
        <time>2014-03-29T16:27:21Z</time>
      </trkpt>
      <trkpt lat="37.690451400" lon="-1.754301100">
        <ele>460.000000</ele>
        <time>2014-03-29T16:27:22Z</time>
      </trkpt>
      <trkpt lat="37.690381900" lon="-1.754218000">
        <ele>460.000000</ele>
        <time>2014-03-29T16:27:23Z</time>
      </trkpt>
      <trkpt lat="37.690312600" lon="-1.754133100">
        <ele>460.000000</ele>
        <time>2014-03-29T16:27:24Z</time>
      </trkpt>
      <trkpt lat="37.690241200" lon="-1.754046700">
        <ele>460.000000</ele>
        <time>2014-03-29T16:27:25Z</time>
      </trkpt>
      <trkpt lat="37.690167300" lon="-1.753955300">
        <ele>460.000000</ele>
        <time>2014-03-29T16:27:26Z</time>
      </trkpt>
      <trkpt lat="37.690093800" lon="-1.753861300">
        <ele>460.000000</ele>
        <time>2014-03-29T16:27:27Z</time>
      </trkpt>
      <trkpt lat="37.690021600" lon="-1.753767400">
        <ele>460.000000</ele>
        <time>2014-03-29T16:27:28Z</time>
      </trkpt>
      <trkpt lat="37.689951100" lon="-1.753674800">
        <ele>460.000000</ele>
        <time>2014-03-29T16:27:29Z</time>
      </trkpt>
      <trkpt lat="37.689879000" lon="-1.753583500">
        <ele>460.000000</ele>
        <time>2014-03-29T16:27:30Z</time>
      </trkpt>
      <trkpt lat="37.689806400" lon="-1.753494400">
        <ele>460.000000</ele>
        <time>2014-03-29T16:27:31Z</time>
      </trkpt>
      <trkpt lat="37.689734200" lon="-1.753401700">
        <ele>460.000000</ele>
        <time>2014-03-29T16:27:32Z</time>
      </trkpt>
      <trkpt lat="37.689659400" lon="-1.753306800">
        <ele>460.000000</ele>
        <time>2014-03-29T16:27:33Z</time>
      </trkpt>
      <trkpt lat="37.689581400" lon="-1.753209200">
        <ele>460.000000</ele>
        <time>2014-03-29T16:27:34Z</time>
      </trkpt>
      <trkpt lat="37.689503600" lon="-1.753110600">
        <ele>460.000000</ele>
        <time>2014-03-29T16:27:35Z</time>
      </trkpt>
      <trkpt lat="37.689427600" lon="-1.753014100">
        <ele>460.000000</ele>
        <time>2014-03-29T16:27:36Z</time>
      </trkpt>
      <trkpt lat="37.689350700" lon="-1.752917900">
        <ele>460.000000</ele>
        <time>2014-03-29T16:27:37Z</time>
      </trkpt>
      <trkpt lat="37.689273800" lon="-1.752826300">
        <ele>460.000000</ele>
        <time>2014-03-29T16:27:38Z</time>
      </trkpt>
      <trkpt lat="37.689197900" lon="-1.752732300">
        <ele>459.000000</ele>
        <time>2014-03-29T16:27:39Z</time>
      </trkpt>
      <trkpt lat="37.689121200" lon="-1.752637500">
        <ele>459.000000</ele>
        <time>2014-03-29T16:27:40Z</time>
      </trkpt>
      <trkpt lat="37.689045900" lon="-1.752540300">
        <ele>459.000000</ele>
        <time>2014-03-29T16:27:41Z</time>
      </trkpt>
      <trkpt lat="37.688970100" lon="-1.752446800">
        <ele>459.000000</ele>
        <time>2014-03-29T16:27:42Z</time>
      </trkpt>
      <trkpt lat="37.688895700" lon="-1.752350400">
        <ele>459.000000</ele>
        <time>2014-03-29T16:27:43Z</time>
      </trkpt>
      <trkpt lat="37.688821800" lon="-1.752255900">
        <ele>459.000000</ele>
        <time>2014-03-29T16:27:44Z</time>
      </trkpt>
      <trkpt lat="37.688750100" lon="-1.752159800">
        <ele>459.000000</ele>
        <time>2014-03-29T16:27:45Z</time>
      </trkpt>
      <trkpt lat="37.688678500" lon="-1.752059800">
        <ele>458.000000</ele>
        <time>2014-03-29T16:27:46Z</time>
      </trkpt>
      <trkpt lat="37.688607200" lon="-1.751963300">
        <ele>458.000000</ele>
        <time>2014-03-29T16:27:47Z</time>
      </trkpt>
      <trkpt lat="37.688538000" lon="-1.751865900">
        <ele>458.000000</ele>
        <time>2014-03-29T16:27:48Z</time>
      </trkpt>
      <trkpt lat="37.688471800" lon="-1.751771200">
        <ele>458.000000</ele>
        <time>2014-03-29T16:27:49Z</time>
      </trkpt>
      <trkpt lat="37.688404800" lon="-1.751678800">
        <ele>458.000000</ele>
        <time>2014-03-29T16:27:50Z</time>
      </trkpt>
      <trkpt lat="37.688339800" lon="-1.751580300">
        <ele>458.000000</ele>
        <time>2014-03-29T16:27:51Z</time>
      </trkpt>
      <trkpt lat="37.688283500" lon="-1.751472300">
        <ele>458.000000</ele>
        <time>2014-03-29T16:27:52Z</time>
      </trkpt>
      <trkpt lat="37.688235800" lon="-1.751354400">
        <ele>458.000000</ele>
        <time>2014-03-29T16:27:53Z</time>
      </trkpt>
      <trkpt lat="37.688193300" lon="-1.751230300">
        <ele>458.000000</ele>
        <time>2014-03-29T16:27:54Z</time>
      </trkpt>
      <trkpt lat="37.688159800" lon="-1.751098600">
        <ele>458.000000</ele>
        <time>2014-03-29T16:27:55Z</time>
      </trkpt>
      <trkpt lat="37.688134700" lon="-1.750965000">
        <ele>458.000000</ele>
        <time>2014-03-29T16:27:56Z</time>
      </trkpt>
      <trkpt lat="37.688115400" lon="-1.750825900">
        <ele>458.000000</ele>
        <time>2014-03-29T16:27:57Z</time>
      </trkpt>
      <trkpt lat="37.688096400" lon="-1.750684300">
        <ele>458.000000</ele>
        <time>2014-03-29T16:27:58Z</time>
      </trkpt>
      <trkpt lat="37.688082600" lon="-1.750538200">
        <ele>457.000000</ele>
        <time>2014-03-29T16:27:59Z</time>
      </trkpt>
      <trkpt lat="37.688070100" lon="-1.750388900">
        <ele>457.000000</ele>
        <time>2014-03-29T16:28:00Z</time>
      </trkpt>
      <trkpt lat="37.688055000" lon="-1.750240000">
        <ele>457.000000</ele>
        <time>2014-03-29T16:28:01Z</time>
      </trkpt>
      <trkpt lat="37.688035700" lon="-1.750093900">
        <ele>457.000000</ele>
        <time>2014-03-29T16:28:02Z</time>
      </trkpt>
      <trkpt lat="37.688023300" lon="-1.749949000">
        <ele>457.000000</ele>
        <time>2014-03-29T16:28:03Z</time>
      </trkpt>
      <trkpt lat="37.688008500" lon="-1.749805200">
        <ele>457.000000</ele>
        <time>2014-03-29T16:28:04Z</time>
      </trkpt>
      <trkpt lat="37.687997800" lon="-1.749662700">
        <ele>456.000000</ele>
        <time>2014-03-29T16:28:05Z</time>
      </trkpt>
      <trkpt lat="37.687982900" lon="-1.749519900">
        <ele>456.000000</ele>
        <time>2014-03-29T16:28:06Z</time>
      </trkpt>
      <trkpt lat="37.687964600" lon="-1.749382200">
        <ele>456.000000</ele>
        <time>2014-03-29T16:28:07Z</time>
      </trkpt>
      <trkpt lat="37.687948400" lon="-1.749248500">
        <ele>455.000000</ele>
        <time>2014-03-29T16:28:08Z</time>
      </trkpt>
      <trkpt lat="37.687929500" lon="-1.749113700">
        <ele>455.000000</ele>
        <time>2014-03-29T16:28:09Z</time>
      </trkpt>
      <trkpt lat="37.687907600" lon="-1.748983500">
        <ele>455.000000</ele>
        <time>2014-03-29T16:28:10Z</time>
      </trkpt>
      <trkpt lat="37.687880600" lon="-1.748856700">
        <ele>454.000000</ele>
        <time>2014-03-29T16:28:11Z</time>
      </trkpt>
      <trkpt lat="37.687843800" lon="-1.748734900">
        <ele>454.000000</ele>
        <time>2014-03-29T16:28:12Z</time>
      </trkpt>
      <trkpt lat="37.687792400" lon="-1.748622600">
        <ele>454.000000</ele>
        <time>2014-03-29T16:28:13Z</time>
      </trkpt>
      <trkpt lat="37.687732200" lon="-1.748513500">
        <ele>453.000000</ele>
        <time>2014-03-29T16:28:14Z</time>
      </trkpt>
      <trkpt lat="37.687664800" lon="-1.748409400">
        <ele>453.000000</ele>
        <time>2014-03-29T16:28:15Z</time>
      </trkpt>
      <trkpt lat="37.687595800" lon="-1.748313700">
        <ele>452.000000</ele>
        <time>2014-03-29T16:28:16Z</time>
      </trkpt>
      <trkpt lat="37.687524900" lon="-1.748219600">
        <ele>452.000000</ele>
        <time>2014-03-29T16:28:17Z</time>
      </trkpt>
      <trkpt lat="37.687454400" lon="-1.748126100">
        <ele>452.000000</ele>
        <time>2014-03-29T16:28:18Z</time>
      </trkpt>
      <trkpt lat="37.687386400" lon="-1.748030000">
        <ele>451.000000</ele>
        <time>2014-03-29T16:28:19Z</time>
      </trkpt>
      <trkpt lat="37.687317100" lon="-1.747933100">
        <ele>451.000000</ele>
        <time>2014-03-29T16:28:20Z</time>
      </trkpt>
      <trkpt lat="37.687249600" lon="-1.747833000">
        <ele>451.000000</ele>
        <time>2014-03-29T16:28:21Z</time>
      </trkpt>
      <trkpt lat="37.687184600" lon="-1.747731700">
        <ele>451.000000</ele>
        <time>2014-03-29T16:28:22Z</time>
      </trkpt>
      <trkpt lat="37.687124400" lon="-1.747623600">
        <ele>450.000000</ele>
        <time>2014-03-29T16:28:23Z</time>
      </trkpt>
      <trkpt lat="37.687064800" lon="-1.747511700">
        <ele>450.000000</ele>
        <time>2014-03-29T16:28:24Z</time>
      </trkpt>
      <trkpt lat="37.687008400" lon="-1.747398400">
        <ele>450.000000</ele>
        <time>2014-03-29T16:28:25Z</time>
      </trkpt>
      <trkpt lat="37.686957200" lon="-1.747285800">
        <ele>450.000000</ele>
        <time>2014-03-29T16:28:26Z</time>
      </trkpt>
      <trkpt lat="37.686908600" lon="-1.747172200">
        <ele>449.000000</ele>
        <time>2014-03-29T16:28:27Z</time>
      </trkpt>
      <trkpt lat="37.686862900" lon="-1.747058800">
        <ele>449.000000</ele>
        <time>2014-03-29T16:28:28Z</time>
      </trkpt>
      <trkpt lat="37.686824000" lon="-1.746947000">
        <ele>449.000000</ele>
        <time>2014-03-29T16:28:29Z</time>
      </trkpt>
      <trkpt lat="37.686787600" lon="-1.746836000">
        <ele>449.000000</ele>
        <time>2014-03-29T16:28:30Z</time>
      </trkpt>
      <trkpt lat="37.686753600" lon="-1.746726400">
        <ele>449.000000</ele>
        <time>2014-03-29T16:28:31Z</time>
      </trkpt>
      <trkpt lat="37.686728000" lon="-1.746619500">
        <ele>449.000000</ele>
        <time>2014-03-29T16:28:32Z</time>
      </trkpt>
      <trkpt lat="37.686703100" lon="-1.746513900">
        <ele>449.000000</ele>
        <time>2014-03-29T16:28:33Z</time>
      </trkpt>
      <trkpt lat="37.686678300" lon="-1.746410300">
        <ele>449.000000</ele>
        <time>2014-03-29T16:28:34Z</time>
      </trkpt>
      <trkpt lat="37.686656000" lon="-1.746309000">
        <ele>449.000000</ele>
        <time>2014-03-29T16:28:35Z</time>
      </trkpt>
      <trkpt lat="37.686633800" lon="-1.746206600">
        <ele>449.000000</ele>
        <time>2014-03-29T16:28:36Z</time>
      </trkpt>
      <trkpt lat="37.686614400" lon="-1.746106800">
        <ele>450.000000</ele>
        <time>2014-03-29T16:28:37Z</time>
      </trkpt>
      <trkpt lat="37.686594800" lon="-1.746011200">
        <ele>450.000000</ele>
        <time>2014-03-29T16:28:38Z</time>
      </trkpt>
      <trkpt lat="37.686572100" lon="-1.745920500">
        <ele>450.000000</ele>
        <time>2014-03-29T16:28:39Z</time>
      </trkpt>
      <trkpt lat="37.686552900" lon="-1.745835300">
        <ele>450.000000</ele>
        <time>2014-03-29T16:28:40Z</time>
      </trkpt>
      <trkpt lat="37.686536100" lon="-1.745750000">
        <ele>450.000000</ele>
        <time>2014-03-29T16:28:41Z</time>
      </trkpt>
      <trkpt lat="37.686518300" lon="-1.745662800">
        <ele>451.000000</ele>
        <time>2014-03-29T16:28:42Z</time>
      </trkpt>
      <trkpt lat="37.686500400" lon="-1.745579800">
        <ele>451.000000</ele>
        <time>2014-03-29T16:28:43Z</time>
      </trkpt>
      <trkpt lat="37.686483700" lon="-1.745499200">
        <ele>451.000000</ele>
        <time>2014-03-29T16:28:44Z</time>
      </trkpt>
      <trkpt lat="37.686465100" lon="-1.745418400">
        <ele>452.000000</ele>
        <time>2014-03-29T16:28:45Z</time>
      </trkpt>
      <trkpt lat="37.686444700" lon="-1.745341900">
        <ele>452.000000</ele>
        <time>2014-03-29T16:28:46Z</time>
      </trkpt>
      <trkpt lat="37.686422100" lon="-1.745264800">
        <ele>452.000000</ele>
        <time>2014-03-29T16:28:47Z</time>
      </trkpt>
      <trkpt lat="37.686396400" lon="-1.745189400">
        <ele>453.000000</ele>
        <time>2014-03-29T16:28:48Z</time>
      </trkpt>
      <trkpt lat="37.686370100" lon="-1.745115700">
        <ele>453.000000</ele>
        <time>2014-03-29T16:28:49Z</time>
      </trkpt>
      <trkpt lat="37.686340900" lon="-1.745045000">
        <ele>453.000000</ele>
        <time>2014-03-29T16:28:50Z</time>
      </trkpt>
      <trkpt lat="37.686308100" lon="-1.744973800">
        <ele>454.000000</ele>
        <time>2014-03-29T16:28:51Z</time>
      </trkpt>
      <trkpt lat="37.686273000" lon="-1.744904000">
        <ele>454.000000</ele>
        <time>2014-03-29T16:28:52Z</time>
      </trkpt>
      <trkpt lat="37.686234300" lon="-1.744835600">
        <ele>455.000000</ele>
        <time>2014-03-29T16:28:53Z</time>
      </trkpt>
      <trkpt lat="37.686194800" lon="-1.744767400">
        <ele>455.000000</ele>
        <time>2014-03-29T16:28:54Z</time>
      </trkpt>
      <trkpt lat="37.686155400" lon="-1.744700600">
        <ele>455.000000</ele>
        <time>2014-03-29T16:28:55Z</time>
      </trkpt>
      <trkpt lat="37.686115000" lon="-1.744636000">
        <ele>456.000000</ele>
        <time>2014-03-29T16:28:56Z</time>
      </trkpt>
      <trkpt lat="37.686073400" lon="-1.744573800">
        <ele>456.000000</ele>
        <time>2014-03-29T16:28:57Z</time>
      </trkpt>
      <trkpt lat="37.686031600" lon="-1.744511000">
        <ele>456.000000</ele>
        <time>2014-03-29T16:28:58Z</time>
      </trkpt>
      <trkpt lat="37.685991900" lon="-1.744446100">
        <ele>456.000000</ele>
        <time>2014-03-29T16:28:59Z</time>
      </trkpt>
      <trkpt lat="37.685953200" lon="-1.744382200">
        <ele>457.000000</ele>
        <time>2014-03-29T16:29:00Z</time>
      </trkpt>
      <trkpt lat="37.685911600" lon="-1.744317800">
        <ele>457.000000</ele>
        <time>2014-03-29T16:29:01Z</time>
      </trkpt>
      <trkpt lat="37.685869900" lon="-1.744252900">
        <ele>457.000000</ele>
        <time>2014-03-29T16:29:02Z</time>
      </trkpt>
      <trkpt lat="37.685828100" lon="-1.744183900">
        <ele>457.000000</ele>
        <time>2014-03-29T16:29:03Z</time>
      </trkpt>
      <trkpt lat="37.685786900" lon="-1.744113700">
        <ele>457.000000</ele>
        <time>2014-03-29T16:29:04Z</time>
      </trkpt>
      <trkpt lat="37.685744900" lon="-1.744043000">
        <ele>457.000000</ele>
        <time>2014-03-29T16:29:05Z</time>
      </trkpt>
      <trkpt lat="37.685701900" lon="-1.743970200">
        <ele>457.000000</ele>
        <time>2014-03-29T16:29:06Z</time>
      </trkpt>
      <trkpt lat="37.685658200" lon="-1.743894000">
        <ele>457.000000</ele>
        <time>2014-03-29T16:29:07Z</time>
      </trkpt>
      <trkpt lat="37.685614300" lon="-1.743813900">
        <ele>457.000000</ele>
        <time>2014-03-29T16:29:08Z</time>
      </trkpt>
      <trkpt lat="37.685569800" lon="-1.743730500">
        <ele>457.000000</ele>
        <time>2014-03-29T16:29:09Z</time>
      </trkpt>
      <trkpt lat="37.685523900" lon="-1.743641800">
        <ele>457.000000</ele>
        <time>2014-03-29T16:29:10Z</time>
      </trkpt>
      <trkpt lat="37.685481400" lon="-1.743549000">
        <ele>457.000000</ele>
        <time>2014-03-29T16:29:11Z</time>
      </trkpt>
      <trkpt lat="37.685440600" lon="-1.743446700">
        <ele>456.000000</ele>
        <time>2014-03-29T16:29:12Z</time>
      </trkpt>
      <trkpt lat="37.685405000" lon="-1.743338900">
        <ele>456.000000</ele>
        <time>2014-03-29T16:29:13Z</time>
      </trkpt>
      <trkpt lat="37.685371600" lon="-1.743219100">
        <ele>456.000000</ele>
        <time>2014-03-29T16:29:14Z</time>
      </trkpt>
      <trkpt lat="37.685340500" lon="-1.743091000">
        <ele>456.000000</ele>
        <time>2014-03-29T16:29:15Z</time>
      </trkpt>
      <trkpt lat="37.685313600" lon="-1.742959200">
        <ele>455.000000</ele>
        <time>2014-03-29T16:29:16Z</time>
      </trkpt>
      <trkpt lat="37.685283800" lon="-1.742829200">
        <ele>455.000000</ele>
        <time>2014-03-29T16:29:17Z</time>
      </trkpt>
      <trkpt lat="37.685252600" lon="-1.742699200">
        <ele>455.000000</ele>
        <time>2014-03-29T16:29:18Z</time>
      </trkpt>
      <trkpt lat="37.685220800" lon="-1.742566000">
        <ele>455.000000</ele>
        <time>2014-03-29T16:29:19Z</time>
      </trkpt>
      <trkpt lat="37.685188800" lon="-1.742432100">
        <ele>454.000000</ele>
        <time>2014-03-29T16:29:20Z</time>
      </trkpt>
      <trkpt lat="37.685154200" lon="-1.742296600">
        <ele>454.000000</ele>
        <time>2014-03-29T16:29:21Z</time>
      </trkpt>
      <trkpt lat="37.685118300" lon="-1.742160800">
        <ele>454.000000</ele>
        <time>2014-03-29T16:29:22Z</time>
      </trkpt>
      <trkpt lat="37.685078900" lon="-1.742028600">
        <ele>453.000000</ele>
        <time>2014-03-29T16:29:23Z</time>
      </trkpt>
      <trkpt lat="37.685039000" lon="-1.741899300">
        <ele>453.000000</ele>
        <time>2014-03-29T16:29:24Z</time>
      </trkpt>
      <trkpt lat="37.684999600" lon="-1.741767100">
        <ele>453.000000</ele>
        <time>2014-03-29T16:29:25Z</time>
      </trkpt>
      <trkpt lat="37.684961100" lon="-1.741634700">
        <ele>452.000000</ele>
        <time>2014-03-29T16:29:26Z</time>
      </trkpt>
      <trkpt lat="37.684922600" lon="-1.741504800">
        <ele>452.000000</ele>
        <time>2014-03-29T16:29:27Z</time>
      </trkpt>
      <trkpt lat="37.684880100" lon="-1.741375300">
        <ele>451.000000</ele>
        <time>2014-03-29T16:29:28Z</time>
      </trkpt>
      <trkpt lat="37.684829900" lon="-1.741250300">
        <ele>451.000000</ele>
        <time>2014-03-29T16:29:29Z</time>
      </trkpt>
      <trkpt lat="37.684777200" lon="-1.741130900">
        <ele>451.000000</ele>
        <time>2014-03-29T16:29:30Z</time>
      </trkpt>
      <trkpt lat="37.684722700" lon="-1.741011800">
        <ele>450.000000</ele>
        <time>2014-03-29T16:29:31Z</time>
      </trkpt>
      <trkpt lat="37.684668600" lon="-1.740889700">
        <ele>450.000000</ele>
        <time>2014-03-29T16:29:32Z</time>
      </trkpt>
      <trkpt lat="37.684618400" lon="-1.740769500">
        <ele>449.000000</ele>
        <time>2014-03-29T16:29:33Z</time>
      </trkpt>
      <trkpt lat="37.684570600" lon="-1.740651800">
        <ele>449.000000</ele>
        <time>2014-03-29T16:29:34Z</time>
      </trkpt>
      <trkpt lat="37.684519800" lon="-1.740538000">
        <ele>448.000000</ele>
        <time>2014-03-29T16:29:35Z</time>
      </trkpt>
      <trkpt lat="37.684466300" lon="-1.740427200">
        <ele>448.000000</ele>
        <time>2014-03-29T16:29:36Z</time>
      </trkpt>
      <trkpt lat="37.684412000" lon="-1.740320200">
        <ele>448.000000</ele>
        <time>2014-03-29T16:29:37Z</time>
      </trkpt>
      <trkpt lat="37.684362200" lon="-1.740208200">
        <ele>448.000000</ele>
        <time>2014-03-29T16:29:38Z</time>
      </trkpt>
      <trkpt lat="37.684320300" lon="-1.740089600">
        <ele>447.000000</ele>
        <time>2014-03-29T16:29:39Z</time>
      </trkpt>
      <trkpt lat="37.684285100" lon="-1.739971500">
        <ele>447.000000</ele>
        <time>2014-03-29T16:29:40Z</time>
      </trkpt>
      <trkpt lat="37.684259000" lon="-1.739848600">
        <ele>447.000000</ele>
        <time>2014-03-29T16:29:41Z</time>
      </trkpt>
      <trkpt lat="37.684241000" lon="-1.739723600">
        <ele>447.000000</ele>
        <time>2014-03-29T16:29:42Z</time>
      </trkpt>
      <trkpt lat="37.684230600" lon="-1.739601000">
        <ele>446.000000</ele>
        <time>2014-03-29T16:29:43Z</time>
      </trkpt>
      <trkpt lat="37.684227300" lon="-1.739480600">
        <ele>446.000000</ele>
        <time>2014-03-29T16:29:44Z</time>
      </trkpt>
      <trkpt lat="37.684226000" lon="-1.739360300">
        <ele>446.000000</ele>
        <time>2014-03-29T16:29:45Z</time>
      </trkpt>
      <trkpt lat="37.684221900" lon="-1.739236900">
        <ele>446.000000</ele>
        <time>2014-03-29T16:29:46Z</time>
      </trkpt>
      <trkpt lat="37.684214100" lon="-1.739113400">
        <ele>446.000000</ele>
        <time>2014-03-29T16:29:47Z</time>
      </trkpt>
      <trkpt lat="37.684205100" lon="-1.738990800">
        <ele>446.000000</ele>
        <time>2014-03-29T16:29:48Z</time>
      </trkpt>
      <trkpt lat="37.684198200" lon="-1.738867100">
        <ele>446.000000</ele>
        <time>2014-03-29T16:29:49Z</time>
      </trkpt>
      <trkpt lat="37.684193200" lon="-1.738746400">
        <ele>446.000000</ele>
        <time>2014-03-29T16:29:50Z</time>
      </trkpt>
      <trkpt lat="37.684189400" lon="-1.738625400">
        <ele>446.000000</ele>
        <time>2014-03-29T16:29:51Z</time>
      </trkpt>
      <trkpt lat="37.684184800" lon="-1.738502900">
        <ele>446.000000</ele>
        <time>2014-03-29T16:29:52Z</time>
      </trkpt>
      <trkpt lat="37.684181700" lon="-1.738384600">
        <ele>446.000000</ele>
        <time>2014-03-29T16:29:53Z</time>
      </trkpt>
      <trkpt lat="37.684179800" lon="-1.738266200">
        <ele>446.000000</ele>
        <time>2014-03-29T16:29:54Z</time>
      </trkpt>
      <trkpt lat="37.684181300" lon="-1.738147500">
        <ele>446.000000</ele>
        <time>2014-03-29T16:29:55Z</time>
      </trkpt>
      <trkpt lat="37.684186000" lon="-1.738028700">
        <ele>446.000000</ele>
        <time>2014-03-29T16:29:56Z</time>
      </trkpt>
      <trkpt lat="37.684192000" lon="-1.737910600">
        <ele>446.000000</ele>
        <time>2014-03-29T16:29:57Z</time>
      </trkpt>
      <trkpt lat="37.684196800" lon="-1.737794100">
        <ele>446.000000</ele>
        <time>2014-03-29T16:29:58Z</time>
      </trkpt>
      <trkpt lat="37.684203400" lon="-1.737673300">
        <ele>446.000000</ele>
        <time>2014-03-29T16:29:59Z</time>
      </trkpt>
      <trkpt lat="37.684210400" lon="-1.737550700">
        <ele>446.000000</ele>
        <time>2014-03-29T16:30:00Z</time>
      </trkpt>
      <trkpt lat="37.684220000" lon="-1.737426000">
        <ele>446.000000</ele>
        <time>2014-03-29T16:30:01Z</time>
      </trkpt>
      <trkpt lat="37.684233100" lon="-1.737301400">
        <ele>446.000000</ele>
        <time>2014-03-29T16:30:02Z</time>
      </trkpt>
      <trkpt lat="37.684247100" lon="-1.737176400">
        <ele>445.000000</ele>
        <time>2014-03-29T16:30:03Z</time>
      </trkpt>
      <trkpt lat="37.684262000" lon="-1.737052900">
        <ele>445.000000</ele>
        <time>2014-03-29T16:30:04Z</time>
      </trkpt>
      <trkpt lat="37.684278500" lon="-1.736933600">
        <ele>445.000000</ele>
        <time>2014-03-29T16:30:05Z</time>
      </trkpt>
      <trkpt lat="37.684294500" lon="-1.736817500">
        <ele>445.000000</ele>
        <time>2014-03-29T16:30:06Z</time>
      </trkpt>
      <trkpt lat="37.684309100" lon="-1.736702200">
        <ele>445.000000</ele>
        <time>2014-03-29T16:30:07Z</time>
      </trkpt>
      <trkpt lat="37.684322500" lon="-1.736587800">
        <ele>445.000000</ele>
        <time>2014-03-29T16:30:08Z</time>
      </trkpt>
      <trkpt lat="37.684340300" lon="-1.736477700">
        <ele>445.000000</ele>
        <time>2014-03-29T16:30:09Z</time>
      </trkpt>
      <trkpt lat="37.684349500" lon="-1.736362200">
        <ele>445.000000</ele>
        <time>2014-03-29T16:30:10Z</time>
      </trkpt>
      <trkpt lat="37.684351400" lon="-1.736251100">
        <ele>445.000000</ele>
        <time>2014-03-29T16:30:11Z</time>
      </trkpt>
      <trkpt lat="37.684348600" lon="-1.736140800">
        <ele>445.000000</ele>
        <time>2014-03-29T16:30:12Z</time>
      </trkpt>
      <trkpt lat="37.684336400" lon="-1.736030400">
        <ele>445.000000</ele>
        <time>2014-03-29T16:30:13Z</time>
      </trkpt>
      <trkpt lat="37.684320200" lon="-1.735924600">
        <ele>445.000000</ele>
        <time>2014-03-29T16:30:14Z</time>
      </trkpt>
      <trkpt lat="37.684297400" lon="-1.735822200">
        <ele>445.000000</ele>
        <time>2014-03-29T16:30:15Z</time>
      </trkpt>
      <trkpt lat="37.684267300" lon="-1.735724900">
        <ele>445.000000</ele>
        <time>2014-03-29T16:30:16Z</time>
      </trkpt>
      <trkpt lat="37.684232000" lon="-1.735639500">
        <ele>446.000000</ele>
        <time>2014-03-29T16:30:17Z</time>
      </trkpt>
      <trkpt lat="37.684190800" lon="-1.735558600">
        <ele>446.000000</ele>
        <time>2014-03-29T16:30:18Z</time>
      </trkpt>
      <trkpt lat="37.684144500" lon="-1.735478000">
        <ele>446.000000</ele>
        <time>2014-03-29T16:30:19Z</time>
      </trkpt>
      <trkpt lat="37.684097100" lon="-1.735400200">
        <ele>446.000000</ele>
        <time>2014-03-29T16:30:20Z</time>
      </trkpt>
      <trkpt lat="37.684049300" lon="-1.735324600">
        <ele>447.000000</ele>
        <time>2014-03-29T16:30:21Z</time>
      </trkpt>
      <trkpt lat="37.684004400" lon="-1.735247100">
        <ele>447.000000</ele>
        <time>2014-03-29T16:30:22Z</time>
      </trkpt>
      <trkpt lat="37.683962600" lon="-1.735168900">
        <ele>447.000000</ele>
        <time>2014-03-29T16:30:23Z</time>
      </trkpt>
      <trkpt lat="37.683918900" lon="-1.735093300">
        <ele>448.000000</ele>
        <time>2014-03-29T16:30:24Z</time>
      </trkpt>
      <trkpt lat="37.683873200" lon="-1.735017800">
        <ele>448.000000</ele>
        <time>2014-03-29T16:30:25Z</time>
      </trkpt>
      <trkpt lat="37.683828700" lon="-1.734940600">
        <ele>448.000000</ele>
        <time>2014-03-29T16:30:26Z</time>
      </trkpt>
      <trkpt lat="37.683785800" lon="-1.734866500">
        <ele>449.000000</ele>
        <time>2014-03-29T16:30:27Z</time>
      </trkpt>
      <trkpt lat="37.683741800" lon="-1.734796300">
        <ele>449.000000</ele>
        <time>2014-03-29T16:30:28Z</time>
      </trkpt>
      <trkpt lat="37.683696600" lon="-1.734722400">
        <ele>449.000000</ele>
        <time>2014-03-29T16:30:29Z</time>
      </trkpt>
      <trkpt lat="37.683651800" lon="-1.734649200">
        <ele>450.000000</ele>
        <time>2014-03-29T16:30:30Z</time>
      </trkpt>
      <trkpt lat="37.683611300" lon="-1.734578900">
        <ele>450.000000</ele>
        <time>2014-03-29T16:30:31Z</time>
      </trkpt>
      <trkpt lat="37.683572800" lon="-1.734507300">
        <ele>450.000000</ele>
        <time>2014-03-29T16:30:32Z</time>
      </trkpt>
      <trkpt lat="37.683534500" lon="-1.734433100">
        <ele>450.000000</ele>
        <time>2014-03-29T16:30:33Z</time>
      </trkpt>
      <trkpt lat="37.683495900" lon="-1.734348000">
        <ele>451.000000</ele>
        <time>2014-03-29T16:30:34Z</time>
      </trkpt>
      <trkpt lat="37.683465700" lon="-1.734263000">
        <ele>451.000000</ele>
        <time>2014-03-29T16:30:35Z</time>
      </trkpt>
      <trkpt lat="37.683440700" lon="-1.734179200">
        <ele>451.000000</ele>
        <time>2014-03-29T16:30:36Z</time>
      </trkpt>
      <trkpt lat="37.683418300" lon="-1.734095300">
        <ele>451.000000</ele>
        <time>2014-03-29T16:30:37Z</time>
      </trkpt>
      <trkpt lat="37.683401800" lon="-1.734006500">
        <ele>451.000000</ele>
        <time>2014-03-29T16:30:38Z</time>
      </trkpt>
      <trkpt lat="37.683390100" lon="-1.733915800">
        <ele>452.000000</ele>
        <time>2014-03-29T16:30:39Z</time>
      </trkpt>
      <trkpt lat="37.683380800" lon="-1.733819300">
        <ele>452.000000</ele>
        <time>2014-03-29T16:30:40Z</time>
      </trkpt>
      <trkpt lat="37.683375700" lon="-1.733724000">
        <ele>452.000000</ele>
        <time>2014-03-29T16:30:41Z</time>
      </trkpt>
      <trkpt lat="37.683373800" lon="-1.733628400">
        <ele>452.000000</ele>
        <time>2014-03-29T16:30:42Z</time>
      </trkpt>
      <trkpt lat="37.683375600" lon="-1.733533900">
        <ele>452.000000</ele>
        <time>2014-03-29T16:30:43Z</time>
      </trkpt>
      <trkpt lat="37.683380000" lon="-1.733442200">
        <ele>453.000000</ele>
        <time>2014-03-29T16:30:44Z</time>
      </trkpt>
      <trkpt lat="37.683384000" lon="-1.733353600">
        <ele>453.000000</ele>
        <time>2014-03-29T16:30:45Z</time>
      </trkpt>
      <trkpt lat="37.683389400" lon="-1.733266400">
        <ele>453.000000</ele>
        <time>2014-03-29T16:30:46Z</time>
      </trkpt>
      <trkpt lat="37.683393400" lon="-1.733179800">
        <ele>453.000000</ele>
        <time>2014-03-29T16:30:47Z</time>
      </trkpt>
      <trkpt lat="37.683396700" lon="-1.733092200">
        <ele>453.000000</ele>
        <time>2014-03-29T16:30:48Z</time>
      </trkpt>
      <trkpt lat="37.683400400" lon="-1.733002500">
        <ele>454.000000</ele>
        <time>2014-03-29T16:30:49Z</time>
      </trkpt>
      <trkpt lat="37.683402900" lon="-1.732914200">
        <ele>454.000000</ele>
        <time>2014-03-29T16:30:50Z</time>
      </trkpt>
      <trkpt lat="37.683405200" lon="-1.732824900">
        <ele>454.000000</ele>
        <time>2014-03-29T16:30:51Z</time>
      </trkpt>
      <trkpt lat="37.683407800" lon="-1.732733400">
        <ele>454.000000</ele>
        <time>2014-03-29T16:30:52Z</time>
      </trkpt>
      <trkpt lat="37.683413800" lon="-1.732640500">
        <ele>455.000000</ele>
        <time>2014-03-29T16:30:53Z</time>
      </trkpt>
      <trkpt lat="37.683426900" lon="-1.732552700">
        <ele>455.000000</ele>
        <time>2014-03-29T16:30:54Z</time>
      </trkpt>
      <trkpt lat="37.683433900" lon="-1.732458900">
        <ele>455.000000</ele>
        <time>2014-03-29T16:30:55Z</time>
      </trkpt>
      <trkpt lat="37.683438700" lon="-1.732364100">
        <ele>455.000000</ele>
        <time>2014-03-29T16:30:56Z</time>
      </trkpt>
      <trkpt lat="37.683441100" lon="-1.732271800">
        <ele>455.000000</ele>
        <time>2014-03-29T16:30:57Z</time>
      </trkpt>
      <trkpt lat="37.683442500" lon="-1.732178100">
        <ele>455.000000</ele>
        <time>2014-03-29T16:30:58Z</time>
      </trkpt>
      <trkpt lat="37.683443200" lon="-1.732085000">
        <ele>456.000000</ele>
        <time>2014-03-29T16:30:59Z</time>
      </trkpt>
      <trkpt lat="37.683436100" lon="-1.731990900">
        <ele>456.000000</ele>
        <time>2014-03-29T16:31:00Z</time>
      </trkpt>
      <trkpt lat="37.683425800" lon="-1.731895500">
        <ele>456.000000</ele>
        <time>2014-03-29T16:31:01Z</time>
      </trkpt>
      <trkpt lat="37.683408900" lon="-1.731802100">
        <ele>456.000000</ele>
        <time>2014-03-29T16:31:02Z</time>
      </trkpt>
      <trkpt lat="37.683389100" lon="-1.731709100">
        <ele>456.000000</ele>
        <time>2014-03-29T16:31:03Z</time>
      </trkpt>
      <trkpt lat="37.683367900" lon="-1.731615000">
        <ele>456.000000</ele>
        <time>2014-03-29T16:31:04Z</time>
      </trkpt>
      <trkpt lat="37.683349200" lon="-1.731522500">
        <ele>456.000000</ele>
        <time>2014-03-29T16:31:05Z</time>
      </trkpt>
      <trkpt lat="37.683334800" lon="-1.731427500">
        <ele>456.000000</ele>
        <time>2014-03-29T16:31:06Z</time>
      </trkpt>
      <trkpt lat="37.683320100" lon="-1.731331500">
        <ele>456.000000</ele>
        <time>2014-03-29T16:31:07Z</time>
      </trkpt>
      <trkpt lat="37.683302900" lon="-1.731230800">
        <ele>456.000000</ele>
        <time>2014-03-29T16:31:08Z</time>
      </trkpt>
      <trkpt lat="37.683286400" lon="-1.731125500">
        <ele>456.000000</ele>
        <time>2014-03-29T16:31:09Z</time>
      </trkpt>
      <trkpt lat="37.683266200" lon="-1.731019600">
        <ele>456.000000</ele>
        <time>2014-03-29T16:31:10Z</time>
      </trkpt>
      <trkpt lat="37.683245200" lon="-1.730914100">
        <ele>456.000000</ele>
        <time>2014-03-29T16:31:11Z</time>
      </trkpt>
      <trkpt lat="37.683223700" lon="-1.730808600">
        <ele>456.000000</ele>
        <time>2014-03-29T16:31:12Z</time>
      </trkpt>
      <trkpt lat="37.683201700" lon="-1.730703800">
        <ele>456.000000</ele>
        <time>2014-03-29T16:31:13Z</time>
      </trkpt>
      <trkpt lat="37.683177000" lon="-1.730597300">
        <ele>456.000000</ele>
        <time>2014-03-29T16:31:14Z</time>
      </trkpt>
      <trkpt lat="37.683147600" lon="-1.730487500">
        <ele>456.000000</ele>
        <time>2014-03-29T16:31:15Z</time>
      </trkpt>
      <trkpt lat="37.683118400" lon="-1.730378400">
        <ele>455.000000</ele>
        <time>2014-03-29T16:31:16Z</time>
      </trkpt>
      <trkpt lat="37.683089100" lon="-1.730266900">
        <ele>455.000000</ele>
        <time>2014-03-29T16:31:17Z</time>
      </trkpt>
      <trkpt lat="37.683058500" lon="-1.730157100">
        <ele>455.000000</ele>
        <time>2014-03-29T16:31:18Z</time>
      </trkpt>
      <trkpt lat="37.683026600" lon="-1.730047800">
        <ele>455.000000</ele>
        <time>2014-03-29T16:31:19Z</time>
      </trkpt>
      <trkpt lat="37.682990100" lon="-1.729934100">
        <ele>455.000000</ele>
        <time>2014-03-29T16:31:20Z</time>
      </trkpt>
      <trkpt lat="37.682951200" lon="-1.729815800">
        <ele>455.000000</ele>
        <time>2014-03-29T16:31:21Z</time>
      </trkpt>
      <trkpt lat="37.682911300" lon="-1.729700400">
        <ele>455.000000</ele>
        <time>2014-03-29T16:31:22Z</time>
      </trkpt>
      <trkpt lat="37.682873400" lon="-1.729587000">
        <ele>454.000000</ele>
        <time>2014-03-29T16:31:23Z</time>
      </trkpt>
      <trkpt lat="37.682830900" lon="-1.729473800">
        <ele>454.000000</ele>
        <time>2014-03-29T16:31:24Z</time>
      </trkpt>
      <trkpt lat="37.682783900" lon="-1.729359600">
        <ele>454.000000</ele>
        <time>2014-03-29T16:31:25Z</time>
      </trkpt>
      <trkpt lat="37.682735800" lon="-1.729247000">
        <ele>454.000000</ele>
        <time>2014-03-29T16:31:26Z</time>
      </trkpt>
      <trkpt lat="37.682683200" lon="-1.729132600">
        <ele>454.000000</ele>
        <time>2014-03-29T16:31:27Z</time>
      </trkpt>
      <trkpt lat="37.682631400" lon="-1.729015300">
        <ele>454.000000</ele>
        <time>2014-03-29T16:31:28Z</time>
      </trkpt>
      <trkpt lat="37.682582000" lon="-1.728897500">
        <ele>454.000000</ele>
        <time>2014-03-29T16:31:29Z</time>
      </trkpt>
      <trkpt lat="37.682532800" lon="-1.728778200">
        <ele>454.000000</ele>
        <time>2014-03-29T16:31:30Z</time>
      </trkpt>
      <trkpt lat="37.682485800" lon="-1.728654100">
        <ele>453.000000</ele>
        <time>2014-03-29T16:31:31Z</time>
      </trkpt>
      <trkpt lat="37.682447500" lon="-1.728522800">
        <ele>453.000000</ele>
        <time>2014-03-29T16:31:32Z</time>
      </trkpt>
      <trkpt lat="37.682412900" lon="-1.728386500">
        <ele>453.000000</ele>
        <time>2014-03-29T16:31:33Z</time>
      </trkpt>
      <trkpt lat="37.682382200" lon="-1.728246100">
        <ele>453.000000</ele>
        <time>2014-03-29T16:31:34Z</time>
      </trkpt>
      <trkpt lat="37.682356500" lon="-1.728108400">
        <ele>453.000000</ele>
        <time>2014-03-29T16:31:35Z</time>
      </trkpt>
      <trkpt lat="37.682333200" lon="-1.727967500">
        <ele>453.000000</ele>
        <time>2014-03-29T16:31:36Z</time>
      </trkpt>
      <trkpt lat="37.682316000" lon="-1.727822100">
        <ele>452.000000</ele>
        <time>2014-03-29T16:31:37Z</time>
      </trkpt>
      <trkpt lat="37.682304500" lon="-1.727673000">
        <ele>452.000000</ele>
        <time>2014-03-29T16:31:38Z</time>
      </trkpt>
      <trkpt lat="37.682294100" lon="-1.727527100">
        <ele>452.000000</ele>
        <time>2014-03-29T16:31:39Z</time>
      </trkpt>
      <trkpt lat="37.682281900" lon="-1.727378800">
        <ele>452.000000</ele>
        <time>2014-03-29T16:31:40Z</time>
      </trkpt>
      <trkpt lat="37.682268500" lon="-1.727230400">
        <ele>451.000000</ele>
        <time>2014-03-29T16:31:41Z</time>
      </trkpt>
      <trkpt lat="37.682253500" lon="-1.727084200">
        <ele>451.000000</ele>
        <time>2014-03-29T16:31:42Z</time>
      </trkpt>
      <trkpt lat="37.682229900" lon="-1.726942100">
        <ele>451.000000</ele>
        <time>2014-03-29T16:31:43Z</time>
      </trkpt>
      <trkpt lat="37.682194400" lon="-1.726804500">
        <ele>450.000000</ele>
        <time>2014-03-29T16:31:44Z</time>
      </trkpt>
      <trkpt lat="37.682144900" lon="-1.726671500">
        <ele>450.000000</ele>
        <time>2014-03-29T16:31:45Z</time>
      </trkpt>
      <trkpt lat="37.682076300" lon="-1.726539000">
        <ele>450.000000</ele>
        <time>2014-03-29T16:31:46Z</time>
      </trkpt>
      <trkpt lat="37.682001800" lon="-1.726407000">
        <ele>449.000000</ele>
        <time>2014-03-29T16:31:47Z</time>
      </trkpt>
      <trkpt lat="37.681921800" lon="-1.726274200">
        <ele>449.000000</ele>
        <time>2014-03-29T16:31:48Z</time>
      </trkpt>
      <trkpt lat="37.681839200" lon="-1.726139100">
        <ele>448.000000</ele>
        <time>2014-03-29T16:31:49Z</time>
      </trkpt>
      <trkpt lat="37.681761200" lon="-1.725998700">
        <ele>447.000000</ele>
        <time>2014-03-29T16:31:50Z</time>
      </trkpt>
      <trkpt lat="37.681690200" lon="-1.725855100">
        <ele>447.000000</ele>
        <time>2014-03-29T16:31:51Z</time>
      </trkpt>
      <trkpt lat="37.681621900" lon="-1.725715600">
        <ele>446.000000</ele>
        <time>2014-03-29T16:31:52Z</time>
      </trkpt>
      <trkpt lat="37.681549500" lon="-1.725583500">
        <ele>446.000000</ele>
        <time>2014-03-29T16:31:53Z</time>
      </trkpt>
      <trkpt lat="37.681476400" lon="-1.725458300">
        <ele>445.000000</ele>
        <time>2014-03-29T16:31:54Z</time>
      </trkpt>
      <trkpt lat="37.681403500" lon="-1.725335100">
        <ele>445.000000</ele>
        <time>2014-03-29T16:31:55Z</time>
      </trkpt>
      <trkpt lat="37.681329100" lon="-1.725211400">
        <ele>444.000000</ele>
        <time>2014-03-29T16:31:56Z</time>
      </trkpt>
      <trkpt lat="37.681253600" lon="-1.725085700">
        <ele>444.000000</ele>
        <time>2014-03-29T16:31:57Z</time>
      </trkpt>
      <trkpt lat="37.681181800" lon="-1.724958200">
        <ele>443.000000</ele>
        <time>2014-03-29T16:31:58Z</time>
      </trkpt>
      <trkpt lat="37.681111200" lon="-1.724830200">
        <ele>443.000000</ele>
        <time>2014-03-29T16:31:59Z</time>
      </trkpt>
      <trkpt lat="37.681044200" lon="-1.724703000">
        <ele>442.000000</ele>
        <time>2014-03-29T16:32:00Z</time>
      </trkpt>
      <trkpt lat="37.680979900" lon="-1.724580000">
        <ele>442.000000</ele>
        <time>2014-03-29T16:32:01Z</time>
      </trkpt>
      <trkpt lat="37.680912500" lon="-1.724455600">
        <ele>441.000000</ele>
        <time>2014-03-29T16:32:02Z</time>
      </trkpt>
      <trkpt lat="37.680847300" lon="-1.724326900">
        <ele>441.000000</ele>
        <time>2014-03-29T16:32:03Z</time>
      </trkpt>
      <trkpt lat="37.680780400" lon="-1.724199200">
        <ele>440.000000</ele>
        <time>2014-03-29T16:32:04Z</time>
      </trkpt>
      <trkpt lat="37.680715100" lon="-1.724073800">
        <ele>440.000000</ele>
        <time>2014-03-29T16:32:05Z</time>
      </trkpt>
      <trkpt lat="37.680651900" lon="-1.723945200">
        <ele>440.000000</ele>
        <time>2014-03-29T16:32:06Z</time>
      </trkpt>
      <trkpt lat="37.680593200" lon="-1.723813000">
        <ele>439.000000</ele>
        <time>2014-03-29T16:32:07Z</time>
      </trkpt>
      <trkpt lat="37.680533800" lon="-1.723679900">
        <ele>439.000000</ele>
        <time>2014-03-29T16:32:08Z</time>
      </trkpt>
      <trkpt lat="37.680479500" lon="-1.723542700">
        <ele>439.000000</ele>
        <time>2014-03-29T16:32:09Z</time>
      </trkpt>
      <trkpt lat="37.680432100" lon="-1.723403100">
        <ele>438.000000</ele>
        <time>2014-03-29T16:32:10Z</time>
      </trkpt>
      <trkpt lat="37.680393000" lon="-1.723258400">
        <ele>438.000000</ele>
        <time>2014-03-29T16:32:11Z</time>
      </trkpt>
      <trkpt lat="37.680369100" lon="-1.723106500">
        <ele>438.000000</ele>
        <time>2014-03-29T16:32:12Z</time>
      </trkpt>
      <trkpt lat="37.680356300" lon="-1.722948300">
        <ele>437.000000</ele>
        <time>2014-03-29T16:32:13Z</time>
      </trkpt>
      <trkpt lat="37.680349700" lon="-1.722789300">
        <ele>437.000000</ele>
        <time>2014-03-29T16:32:14Z</time>
      </trkpt>
      <trkpt lat="37.680349800" lon="-1.722634400">
        <ele>437.000000</ele>
        <time>2014-03-29T16:32:15Z</time>
      </trkpt>
      <trkpt lat="37.680348100" lon="-1.722483000">
        <ele>436.000000</ele>
        <time>2014-03-29T16:32:16Z</time>
      </trkpt>
      <trkpt lat="37.680343400" lon="-1.722336300">
        <ele>436.000000</ele>
        <time>2014-03-29T16:32:17Z</time>
      </trkpt>
      <trkpt lat="37.680336500" lon="-1.722194600">
        <ele>436.000000</ele>
        <time>2014-03-29T16:32:18Z</time>
      </trkpt>
      <trkpt lat="37.680325100" lon="-1.722055600">
        <ele>436.000000</ele>
        <time>2014-03-29T16:32:19Z</time>
      </trkpt>
      <trkpt lat="37.680308400" lon="-1.721925200">
        <ele>435.000000</ele>
        <time>2014-03-29T16:32:20Z</time>
      </trkpt>
      <trkpt lat="37.680283600" lon="-1.721796100">
        <ele>435.000000</ele>
        <time>2014-03-29T16:32:21Z</time>
      </trkpt>
      <trkpt lat="37.680254800" lon="-1.721668800">
        <ele>435.000000</ele>
        <time>2014-03-29T16:32:22Z</time>
      </trkpt>
      <trkpt lat="37.680228900" lon="-1.721547200">
        <ele>435.000000</ele>
        <time>2014-03-29T16:32:23Z</time>
      </trkpt>
      <trkpt lat="37.680200800" lon="-1.721426900">
        <ele>435.000000</ele>
        <time>2014-03-29T16:32:24Z</time>
      </trkpt>
      <trkpt lat="37.680170800" lon="-1.721308200">
        <ele>435.000000</ele>
        <time>2014-03-29T16:32:25Z</time>
      </trkpt>
      <trkpt lat="37.680138900" lon="-1.721189500">
        <ele>435.000000</ele>
        <time>2014-03-29T16:32:26Z</time>
      </trkpt>
      <trkpt lat="37.680102300" lon="-1.721074100">
        <ele>435.000000</ele>
        <time>2014-03-29T16:32:27Z</time>
      </trkpt>
      <trkpt lat="37.680067200" lon="-1.720958800">
        <ele>435.000000</ele>
        <time>2014-03-29T16:32:28Z</time>
      </trkpt>
      <trkpt lat="37.680029700" lon="-1.720844300">
        <ele>435.000000</ele>
        <time>2014-03-29T16:32:29Z</time>
      </trkpt>
      <trkpt lat="37.679990400" lon="-1.720733200">
        <ele>435.000000</ele>
        <time>2014-03-29T16:32:30Z</time>
      </trkpt>
      <trkpt lat="37.679950100" lon="-1.720621600">
        <ele>435.000000</ele>
        <time>2014-03-29T16:32:31Z</time>
      </trkpt>
      <trkpt lat="37.679911000" lon="-1.720508600">
        <ele>435.000000</ele>
        <time>2014-03-29T16:32:32Z</time>
      </trkpt>
      <trkpt lat="37.679874300" lon="-1.720396200">
        <ele>435.000000</ele>
        <time>2014-03-29T16:32:33Z</time>
      </trkpt>
      <trkpt lat="37.679840800" lon="-1.720283600">
        <ele>435.000000</ele>
        <time>2014-03-29T16:32:34Z</time>
      </trkpt>
      <trkpt lat="37.679807400" lon="-1.720171700">
        <ele>435.000000</ele>
        <time>2014-03-29T16:32:35Z</time>
      </trkpt>
      <trkpt lat="37.679780400" lon="-1.720052700">
        <ele>435.000000</ele>
        <time>2014-03-29T16:32:36Z</time>
      </trkpt>
      <trkpt lat="37.679754000" lon="-1.719929400">
        <ele>436.000000</ele>
        <time>2014-03-29T16:32:37Z</time>
      </trkpt>
      <trkpt lat="37.679725900" lon="-1.719805500">
        <ele>436.000000</ele>
        <time>2014-03-29T16:32:38Z</time>
      </trkpt>
      <trkpt lat="37.679695900" lon="-1.719686600">
        <ele>436.000000</ele>
        <time>2014-03-29T16:32:39Z</time>
      </trkpt>
      <trkpt lat="37.679665200" lon="-1.719566500">
        <ele>436.000000</ele>
        <time>2014-03-29T16:32:40Z</time>
      </trkpt>
      <trkpt lat="37.679641200" lon="-1.719444200">
        <ele>436.000000</ele>
        <time>2014-03-29T16:32:41Z</time>
      </trkpt>
      <trkpt lat="37.679621000" lon="-1.719323700">
        <ele>437.000000</ele>
        <time>2014-03-29T16:32:42Z</time>
      </trkpt>
      <trkpt lat="37.679599400" lon="-1.719202900">
        <ele>437.000000</ele>
        <time>2014-03-29T16:32:43Z</time>
      </trkpt>
      <trkpt lat="37.679580800" lon="-1.719083200">
        <ele>437.000000</ele>
        <time>2014-03-29T16:32:44Z</time>
      </trkpt>
      <trkpt lat="37.679564700" lon="-1.718965000">
        <ele>437.000000</ele>
        <time>2014-03-29T16:32:45Z</time>
      </trkpt>
      <trkpt lat="37.679548200" lon="-1.718844300">
        <ele>437.000000</ele>
        <time>2014-03-29T16:32:46Z</time>
      </trkpt>
      <trkpt lat="37.679528500" lon="-1.718726500">
        <ele>437.000000</ele>
        <time>2014-03-29T16:32:47Z</time>
      </trkpt>
      <trkpt lat="37.679509000" lon="-1.718610400">
        <ele>438.000000</ele>
        <time>2014-03-29T16:32:48Z</time>
      </trkpt>
      <trkpt lat="37.679492800" lon="-1.718496900">
        <ele>438.000000</ele>
        <time>2014-03-29T16:32:49Z</time>
      </trkpt>
      <trkpt lat="37.679478800" lon="-1.718383500">
        <ele>438.000000</ele>
        <time>2014-03-29T16:32:50Z</time>
      </trkpt>
      <trkpt lat="37.679463900" lon="-1.718271400">
        <ele>438.000000</ele>
        <time>2014-03-29T16:32:51Z</time>
      </trkpt>
      <trkpt lat="37.679446700" lon="-1.718159200">
        <ele>438.000000</ele>
        <time>2014-03-29T16:32:52Z</time>
      </trkpt>
      <trkpt lat="37.679429900" lon="-1.718041500">
        <ele>438.000000</ele>
        <time>2014-03-29T16:32:53Z</time>
      </trkpt>
      <trkpt lat="37.679414300" lon="-1.717921700">
        <ele>438.000000</ele>
        <time>2014-03-29T16:32:54Z</time>
      </trkpt>
      <trkpt lat="37.679399000" lon="-1.717803600">
        <ele>438.000000</ele>
        <time>2014-03-29T16:32:55Z</time>
      </trkpt>
      <trkpt lat="37.679382100" lon="-1.717686700">
        <ele>438.000000</ele>
        <time>2014-03-29T16:32:56Z</time>
      </trkpt>
      <trkpt lat="37.679367300" lon="-1.717572800">
        <ele>438.000000</ele>
        <time>2014-03-29T16:32:57Z</time>
      </trkpt>
      <trkpt lat="37.679352800" lon="-1.717460000">
        <ele>438.000000</ele>
        <time>2014-03-29T16:32:58Z</time>
      </trkpt>
      <trkpt lat="37.679336900" lon="-1.717343000">
        <ele>438.000000</ele>
        <time>2014-03-29T16:32:59Z</time>
      </trkpt>
      <trkpt lat="37.679322400" lon="-1.717226400">
        <ele>438.000000</ele>
        <time>2014-03-29T16:33:00Z</time>
      </trkpt>
      <trkpt lat="37.679310000" lon="-1.717113800">
        <ele>438.000000</ele>
        <time>2014-03-29T16:33:01Z</time>
      </trkpt>
      <trkpt lat="37.679303200" lon="-1.717001800">
        <ele>438.000000</ele>
        <time>2014-03-29T16:33:02Z</time>
      </trkpt>
      <trkpt lat="37.679300100" lon="-1.716889500">
        <ele>438.000000</ele>
        <time>2014-03-29T16:33:03Z</time>
      </trkpt>
      <trkpt lat="37.679302500" lon="-1.716777300">
        <ele>438.000000</ele>
        <time>2014-03-29T16:33:04Z</time>
      </trkpt>
      <trkpt lat="37.679308200" lon="-1.716667500">
        <ele>438.000000</ele>
        <time>2014-03-29T16:33:05Z</time>
      </trkpt>
      <trkpt lat="37.679317000" lon="-1.716556900">
        <ele>438.000000</ele>
        <time>2014-03-29T16:33:06Z</time>
      </trkpt>
      <trkpt lat="37.679331500" lon="-1.716444200">
        <ele>438.000000</ele>
        <time>2014-03-29T16:33:07Z</time>
      </trkpt>
      <trkpt lat="37.679351400" lon="-1.716331300">
        <ele>438.000000</ele>
        <time>2014-03-29T16:33:08Z</time>
      </trkpt>
      <trkpt lat="37.679369600" lon="-1.716220200">
        <ele>438.000000</ele>
        <time>2014-03-29T16:33:09Z</time>
      </trkpt>
      <trkpt lat="37.679391700" lon="-1.716106700">
        <ele>438.000000</ele>
        <time>2014-03-29T16:33:10Z</time>
      </trkpt>
      <trkpt lat="37.679418700" lon="-1.715993600">
        <ele>438.000000</ele>
        <time>2014-03-29T16:33:11Z</time>
      </trkpt>
      <trkpt lat="37.679450000" lon="-1.715878200">
        <ele>438.000000</ele>
        <time>2014-03-29T16:33:12Z</time>
      </trkpt>
      <trkpt lat="37.679476300" lon="-1.715761300">
        <ele>438.000000</ele>
        <time>2014-03-29T16:33:13Z</time>
      </trkpt>
      <trkpt lat="37.679505700" lon="-1.715649000">
        <ele>439.000000</ele>
        <time>2014-03-29T16:33:14Z</time>
      </trkpt>
      <trkpt lat="37.679537500" lon="-1.715537000">
        <ele>439.000000</ele>
        <time>2014-03-29T16:33:15Z</time>
      </trkpt>
      <trkpt lat="37.679572600" lon="-1.715427800">
        <ele>439.000000</ele>
        <time>2014-03-29T16:33:16Z</time>
      </trkpt>
      <trkpt lat="37.679607900" lon="-1.715317100">
        <ele>439.000000</ele>
        <time>2014-03-29T16:33:17Z</time>
      </trkpt>
      <trkpt lat="37.679638500" lon="-1.715202900">
        <ele>439.000000</ele>
        <time>2014-03-29T16:33:18Z</time>
      </trkpt>
      <trkpt lat="37.679670000" lon="-1.715092600">
        <ele>439.000000</ele>
        <time>2014-03-29T16:33:19Z</time>
      </trkpt>
      <trkpt lat="37.679701300" lon="-1.714984000">
        <ele>439.000000</ele>
        <time>2014-03-29T16:33:20Z</time>
      </trkpt>
      <trkpt lat="37.679733100" lon="-1.714874800">
        <ele>439.000000</ele>
        <time>2014-03-29T16:33:21Z</time>
      </trkpt>
      <trkpt lat="37.679764900" lon="-1.714769700">
        <ele>439.000000</ele>
        <time>2014-03-29T16:33:22Z</time>
      </trkpt>
      <trkpt lat="37.679798500" lon="-1.714661900">
        <ele>440.000000</ele>
        <time>2014-03-29T16:33:23Z</time>
      </trkpt>
      <trkpt lat="37.679829200" lon="-1.714553600">
        <ele>440.000000</ele>
        <time>2014-03-29T16:33:24Z</time>
      </trkpt>
      <trkpt lat="37.679863500" lon="-1.714441800">
        <ele>440.000000</ele>
        <time>2014-03-29T16:33:25Z</time>
      </trkpt>
      <trkpt lat="37.679902200" lon="-1.714329600">
        <ele>440.000000</ele>
        <time>2014-03-29T16:33:26Z</time>
      </trkpt>
      <trkpt lat="37.679939100" lon="-1.714219800">
        <ele>440.000000</ele>
        <time>2014-03-29T16:33:27Z</time>
      </trkpt>
      <trkpt lat="37.679972500" lon="-1.714111000">
        <ele>440.000000</ele>
        <time>2014-03-29T16:33:28Z</time>
      </trkpt>
      <trkpt lat="37.680007200" lon="-1.714007000">
        <ele>440.000000</ele>
        <time>2014-03-29T16:33:29Z</time>
      </trkpt>
      <trkpt lat="37.680040600" lon="-1.713900800">
        <ele>440.000000</ele>
        <time>2014-03-29T16:33:30Z</time>
      </trkpt>
      <trkpt lat="37.680075500" lon="-1.713794800">
        <ele>441.000000</ele>
        <time>2014-03-29T16:33:31Z</time>
      </trkpt>
      <trkpt lat="37.680110600" lon="-1.713685400">
        <ele>441.000000</ele>
        <time>2014-03-29T16:33:32Z</time>
      </trkpt>
      <trkpt lat="37.680146800" lon="-1.713581500">
        <ele>441.000000</ele>
        <time>2014-03-29T16:33:33Z</time>
      </trkpt>
      <trkpt lat="37.680182300" lon="-1.713476200">
        <ele>441.000000</ele>
        <time>2014-03-29T16:33:34Z</time>
      </trkpt>
      <trkpt lat="37.680216200" lon="-1.713368500">
        <ele>441.000000</ele>
        <time>2014-03-29T16:33:35Z</time>
      </trkpt>
      <trkpt lat="37.680253400" lon="-1.713261700">
        <ele>441.000000</ele>
        <time>2014-03-29T16:33:36Z</time>
      </trkpt>
      <trkpt lat="37.680290100" lon="-1.713160100">
        <ele>441.000000</ele>
        <time>2014-03-29T16:33:37Z</time>
      </trkpt>
      <trkpt lat="37.680324600" lon="-1.713053900">
        <ele>441.000000</ele>
        <time>2014-03-29T16:33:38Z</time>
      </trkpt>
      <trkpt lat="37.680360500" lon="-1.712940100">
        <ele>442.000000</ele>
        <time>2014-03-29T16:33:39Z</time>
      </trkpt>
      <trkpt lat="37.680395400" lon="-1.712825500">
        <ele>442.000000</ele>
        <time>2014-03-29T16:33:40Z</time>
      </trkpt>
      <trkpt lat="37.680432100" lon="-1.712706600">
        <ele>442.000000</ele>
        <time>2014-03-29T16:33:41Z</time>
      </trkpt>
      <trkpt lat="37.680462800" lon="-1.712582600">
        <ele>442.000000</ele>
        <time>2014-03-29T16:33:42Z</time>
      </trkpt>
      <trkpt lat="37.680484900" lon="-1.712450700">
        <ele>442.000000</ele>
        <time>2014-03-29T16:33:43Z</time>
      </trkpt>
      <trkpt lat="37.680499400" lon="-1.712314100">
        <ele>442.000000</ele>
        <time>2014-03-29T16:33:44Z</time>
      </trkpt>
      <trkpt lat="37.680507000" lon="-1.712175200">
        <ele>442.000000</ele>
        <time>2014-03-29T16:33:45Z</time>
      </trkpt>
      <trkpt lat="37.680511200" lon="-1.712031600">
        <ele>441.000000</ele>
        <time>2014-03-29T16:33:46Z</time>
      </trkpt>
      <trkpt lat="37.680516000" lon="-1.711883600">
        <ele>441.000000</ele>
        <time>2014-03-29T16:33:47Z</time>
      </trkpt>
      <trkpt lat="37.680522700" lon="-1.711732200">
        <ele>441.000000</ele>
        <time>2014-03-29T16:33:48Z</time>
      </trkpt>
      <trkpt lat="37.680520100" lon="-1.711585100">
        <ele>441.000000</ele>
        <time>2014-03-29T16:33:49Z</time>
      </trkpt>
      <trkpt lat="37.680510000" lon="-1.711440200">
        <ele>440.000000</ele>
        <time>2014-03-29T16:33:50Z</time>
      </trkpt>
      <trkpt lat="37.680488500" lon="-1.711300100">
        <ele>440.000000</ele>
        <time>2014-03-29T16:33:51Z</time>
      </trkpt>
      <trkpt lat="37.680457600" lon="-1.711167800">
        <ele>439.000000</ele>
        <time>2014-03-29T16:33:52Z</time>
      </trkpt>
      <trkpt lat="37.680413200" lon="-1.711038300">
        <ele>439.000000</ele>
        <time>2014-03-29T16:33:53Z</time>
      </trkpt>
      <trkpt lat="37.680364500" lon="-1.710913700">
        <ele>439.000000</ele>
        <time>2014-03-29T16:33:54Z</time>
      </trkpt>
      <trkpt lat="37.680315900" lon="-1.710793900">
        <ele>438.000000</ele>
        <time>2014-03-29T16:33:55Z</time>
      </trkpt>
      <trkpt lat="37.680265100" lon="-1.710686300">
        <ele>438.000000</ele>
        <time>2014-03-29T16:33:56Z</time>
      </trkpt>
      <trkpt lat="37.680208100" lon="-1.710596500">
        <ele>438.000000</ele>
        <time>2014-03-29T16:33:57Z</time>
      </trkpt>
      <trkpt lat="37.680146700" lon="-1.710505500">
        <ele>438.000000</ele>
        <time>2014-03-29T16:33:58Z</time>
      </trkpt>
      <trkpt lat="37.680090700" lon="-1.710411700">
        <ele>437.000000</ele>
        <time>2014-03-29T16:33:59Z</time>
      </trkpt>
      <trkpt lat="37.680041100" lon="-1.710310800">
        <ele>437.000000</ele>
        <time>2014-03-29T16:34:00Z</time>
      </trkpt>
      <trkpt lat="37.679997800" lon="-1.710200900">
        <ele>437.000000</ele>
        <time>2014-03-29T16:34:01Z</time>
      </trkpt>
      <trkpt lat="37.679964200" lon="-1.710089200">
        <ele>437.000000</ele>
        <time>2014-03-29T16:34:02Z</time>
      </trkpt>
      <trkpt lat="37.679944200" lon="-1.709977000">
        <ele>437.000000</ele>
        <time>2014-03-29T16:34:03Z</time>
      </trkpt>
      <trkpt lat="37.679934400" lon="-1.709868700">
        <ele>437.000000</ele>
        <time>2014-03-29T16:34:04Z</time>
      </trkpt>
      <trkpt lat="37.679923200" lon="-1.709763100">
        <ele>437.000000</ele>
        <time>2014-03-29T16:34:05Z</time>
      </trkpt>
      <trkpt lat="37.679911500" lon="-1.709661200">
        <ele>437.000000</ele>
        <time>2014-03-29T16:34:06Z</time>
      </trkpt>
      <trkpt lat="37.679892800" lon="-1.709565300">
        <ele>438.000000</ele>
        <time>2014-03-29T16:34:07Z</time>
      </trkpt>
      <trkpt lat="37.679862400" lon="-1.709469100">
        <ele>438.000000</ele>
        <time>2014-03-29T16:34:08Z</time>
      </trkpt>
      <trkpt lat="37.679823300" lon="-1.709376700">
        <ele>438.000000</ele>
        <time>2014-03-29T16:34:09Z</time>
      </trkpt>
      <trkpt lat="37.679785100" lon="-1.709286500">
        <ele>438.000000</ele>
        <time>2014-03-29T16:34:10Z</time>
      </trkpt>
      <trkpt lat="37.679748700" lon="-1.709198500">
        <ele>439.000000</ele>
        <time>2014-03-29T16:34:11Z</time>
      </trkpt>
      <trkpt lat="37.679709800" lon="-1.709112900">
        <ele>439.000000</ele>
        <time>2014-03-29T16:34:12Z</time>
      </trkpt>
      <trkpt lat="37.679669800" lon="-1.709025300">
        <ele>439.000000</ele>
        <time>2014-03-29T16:34:13Z</time>
      </trkpt>
      <trkpt lat="37.679628500" lon="-1.708932600">
        <ele>440.000000</ele>
        <time>2014-03-29T16:34:14Z</time>
      </trkpt>
      <trkpt lat="37.679589000" lon="-1.708835200">
        <ele>440.000000</ele>
        <time>2014-03-29T16:34:15Z</time>
      </trkpt>
      <trkpt lat="37.679558500" lon="-1.708736600">
        <ele>440.000000</ele>
        <time>2014-03-29T16:34:16Z</time>
      </trkpt>
      <trkpt lat="37.679532400" lon="-1.708633600">
        <ele>440.000000</ele>
        <time>2014-03-29T16:34:17Z</time>
      </trkpt>
      <trkpt lat="37.679511900" lon="-1.708528000">
        <ele>441.000000</ele>
        <time>2014-03-29T16:34:18Z</time>
      </trkpt>
      <trkpt lat="37.679496400" lon="-1.708418700">
        <ele>441.000000</ele>
        <time>2014-03-29T16:34:19Z</time>
      </trkpt>
      <trkpt lat="37.679486800" lon="-1.708306000">
        <ele>441.000000</ele>
        <time>2014-03-29T16:34:20Z</time>
      </trkpt>
      <trkpt lat="37.679478300" lon="-1.708193200">
        <ele>441.000000</ele>
        <time>2014-03-29T16:34:21Z</time>
      </trkpt>
      <trkpt lat="37.679472400" lon="-1.708076100">
        <ele>441.000000</ele>
        <time>2014-03-29T16:34:22Z</time>
      </trkpt>
      <trkpt lat="37.679472900" lon="-1.707960500">
        <ele>441.000000</ele>
        <time>2014-03-29T16:34:23Z</time>
      </trkpt>
      <trkpt lat="37.679481900" lon="-1.707846400">
        <ele>441.000000</ele>
        <time>2014-03-29T16:34:24Z</time>
      </trkpt>
      <trkpt lat="37.679491700" lon="-1.707724100">
        <ele>441.000000</ele>
        <time>2014-03-29T16:34:25Z</time>
      </trkpt>
      <trkpt lat="37.679507700" lon="-1.707600900">
        <ele>442.000000</ele>
        <time>2014-03-29T16:34:26Z</time>
      </trkpt>
      <trkpt lat="37.679528600" lon="-1.707473800">
        <ele>442.000000</ele>
        <time>2014-03-29T16:34:27Z</time>
      </trkpt>
      <trkpt lat="37.679555000" lon="-1.707351500">
        <ele>442.000000</ele>
        <time>2014-03-29T16:34:28Z</time>
      </trkpt>
      <trkpt lat="37.679586900" lon="-1.707226200">
        <ele>442.000000</ele>
        <time>2014-03-29T16:34:29Z</time>
      </trkpt>
      <trkpt lat="37.679621500" lon="-1.707099400">
        <ele>442.000000</ele>
        <time>2014-03-29T16:34:30Z</time>
      </trkpt>
      <trkpt lat="37.679660200" lon="-1.706973300">
        <ele>441.000000</ele>
        <time>2014-03-29T16:34:31Z</time>
      </trkpt>
      <trkpt lat="37.679698700" lon="-1.706841400">
        <ele>441.000000</ele>
        <time>2014-03-29T16:34:32Z</time>
      </trkpt>
      <trkpt lat="37.679738800" lon="-1.706710800">
        <ele>441.000000</ele>
        <time>2014-03-29T16:34:33Z</time>
      </trkpt>
      <trkpt lat="37.679773700" lon="-1.706573700">
        <ele>441.000000</ele>
        <time>2014-03-29T16:34:34Z</time>
      </trkpt>
      <trkpt lat="37.679802000" lon="-1.706428200">
        <ele>441.000000</ele>
        <time>2014-03-29T16:34:35Z</time>
      </trkpt>
      <trkpt lat="37.679823700" lon="-1.706277500">
        <ele>441.000000</ele>
        <time>2014-03-29T16:34:36Z</time>
      </trkpt>
      <trkpt lat="37.679842600" lon="-1.706130700">
        <ele>440.000000</ele>
        <time>2014-03-29T16:34:37Z</time>
      </trkpt>
      <trkpt lat="37.679850100" lon="-1.705987100">
        <ele>440.000000</ele>
        <time>2014-03-29T16:34:38Z</time>
      </trkpt>
      <trkpt lat="37.679849500" lon="-1.705848800">
        <ele>440.000000</ele>
        <time>2014-03-29T16:34:39Z</time>
      </trkpt>
      <trkpt lat="37.679845000" lon="-1.705717900">
        <ele>440.000000</ele>
        <time>2014-03-29T16:34:40Z</time>
      </trkpt>
      <trkpt lat="37.679834300" lon="-1.705592900">
        <ele>440.000000</ele>
        <time>2014-03-29T16:34:41Z</time>
      </trkpt>
      <trkpt lat="37.679821500" lon="-1.705471900">
        <ele>440.000000</ele>
        <time>2014-03-29T16:34:42Z</time>
      </trkpt>
      <trkpt lat="37.679800900" lon="-1.705352700">
        <ele>440.000000</ele>
        <time>2014-03-29T16:34:43Z</time>
      </trkpt>
      <trkpt lat="37.679774800" lon="-1.705241600">
        <ele>440.000000</ele>
        <time>2014-03-29T16:34:44Z</time>
      </trkpt>
      <trkpt lat="37.679755600" lon="-1.705129200">
        <ele>440.000000</ele>
        <time>2014-03-29T16:34:45Z</time>
      </trkpt>
      <trkpt lat="37.679747000" lon="-1.705017700">
        <ele>440.000000</ele>
        <time>2014-03-29T16:34:46Z</time>
      </trkpt>
      <trkpt lat="37.679746900" lon="-1.704909500">
        <ele>440.000000</ele>
        <time>2014-03-29T16:34:47Z</time>
      </trkpt>
      <trkpt lat="37.679751200" lon="-1.704805800">
        <ele>440.000000</ele>
        <time>2014-03-29T16:34:48Z</time>
      </trkpt>
      <trkpt lat="37.679760700" lon="-1.704705700">
        <ele>440.000000</ele>
        <time>2014-03-29T16:34:49Z</time>
      </trkpt>
      <trkpt lat="37.679782300" lon="-1.704606700">
        <ele>440.000000</ele>
        <time>2014-03-29T16:34:50Z</time>
      </trkpt>
      <trkpt lat="37.679820500" lon="-1.704518600">
        <ele>440.000000</ele>
        <time>2014-03-29T16:34:51Z</time>
      </trkpt>
      <trkpt lat="37.679868600" lon="-1.704430500">
        <ele>441.000000</ele>
        <time>2014-03-29T16:34:52Z</time>
      </trkpt>
      <trkpt lat="37.679914500" lon="-1.704340800">
        <ele>441.000000</ele>
        <time>2014-03-29T16:34:53Z</time>
      </trkpt>
      <trkpt lat="37.679952500" lon="-1.704241300">
        <ele>441.000000</ele>
        <time>2014-03-29T16:34:54Z</time>
      </trkpt>
      <trkpt lat="37.679985300" lon="-1.704137500">
        <ele>441.000000</ele>
        <time>2014-03-29T16:34:55Z</time>
      </trkpt>
      <trkpt lat="37.680006600" lon="-1.704025100">
        <ele>441.000000</ele>
        <time>2014-03-29T16:34:56Z</time>
      </trkpt>
      <trkpt lat="37.680020700" lon="-1.703906100">
        <ele>441.000000</ele>
        <time>2014-03-29T16:34:57Z</time>
      </trkpt>
      <trkpt lat="37.680029800" lon="-1.703785500">
        <ele>441.000000</ele>
        <time>2014-03-29T16:34:58Z</time>
      </trkpt>
      <trkpt lat="37.680040200" lon="-1.703663800">
        <ele>441.000000</ele>
        <time>2014-03-29T16:34:59Z</time>
      </trkpt>
      <trkpt lat="37.680048600" lon="-1.703547300">
        <ele>441.000000</ele>
        <time>2014-03-29T16:35:00Z</time>
      </trkpt>
      <trkpt lat="37.680060000" lon="-1.703435700">
        <ele>441.000000</ele>
        <time>2014-03-29T16:35:01Z</time>
      </trkpt>
      <trkpt lat="37.680069700" lon="-1.703324800">
        <ele>441.000000</ele>
        <time>2014-03-29T16:35:02Z</time>
      </trkpt>
      <trkpt lat="37.680074500" lon="-1.703211700">
        <ele>441.000000</ele>
        <time>2014-03-29T16:35:03Z</time>
      </trkpt>
      <trkpt lat="37.680064600" lon="-1.703096800">
        <ele>440.000000</ele>
        <time>2014-03-29T16:35:04Z</time>
      </trkpt>
      <trkpt lat="37.680042700" lon="-1.702982500">
        <ele>440.000000</ele>
        <time>2014-03-29T16:35:05Z</time>
      </trkpt>
      <trkpt lat="37.680020500" lon="-1.702871700">
        <ele>440.000000</ele>
        <time>2014-03-29T16:35:06Z</time>
      </trkpt>
      <trkpt lat="37.679993200" lon="-1.702756900">
        <ele>440.000000</ele>
        <time>2014-03-29T16:35:07Z</time>
      </trkpt>
      <trkpt lat="37.679960400" lon="-1.702637800">
        <ele>440.000000</ele>
        <time>2014-03-29T16:35:08Z</time>
      </trkpt>
      <trkpt lat="37.679933500" lon="-1.702520200">
        <ele>439.000000</ele>
        <time>2014-03-29T16:35:09Z</time>
      </trkpt>
      <trkpt lat="37.679905700" lon="-1.702398500">
        <ele>439.000000</ele>
        <time>2014-03-29T16:35:10Z</time>
      </trkpt>
      <trkpt lat="37.679877800" lon="-1.702284900">
        <ele>439.000000</ele>
        <time>2014-03-29T16:35:11Z</time>
      </trkpt>
      <trkpt lat="37.679851300" lon="-1.702172800">
        <ele>439.000000</ele>
        <time>2014-03-29T16:35:12Z</time>
      </trkpt>
      <trkpt lat="37.679824300" lon="-1.702060900">
        <ele>439.000000</ele>
        <time>2014-03-29T16:35:13Z</time>
      </trkpt>
      <trkpt lat="37.679799000" lon="-1.701953600">
        <ele>439.000000</ele>
        <time>2014-03-29T16:35:14Z</time>
      </trkpt>
      <trkpt lat="37.679776300" lon="-1.701848600">
        <ele>439.000000</ele>
        <time>2014-03-29T16:35:15Z</time>
      </trkpt>
      <trkpt lat="37.679754100" lon="-1.701761500">
        <ele>439.000000</ele>
        <time>2014-03-29T16:35:16Z</time>
      </trkpt>
      <trkpt lat="37.679733900" lon="-1.701687300">
        <ele>439.000000</ele>
        <time>2014-03-29T16:35:17Z</time>
      </trkpt>
      <trkpt lat="37.679712500" lon="-1.701624400">
        <ele>439.000000</ele>
        <time>2014-03-29T16:35:18Z</time>
      </trkpt>
      <trkpt lat="37.679689900" lon="-1.701568700">
        <ele>439.000000</ele>
        <time>2014-03-29T16:35:19Z</time>
      </trkpt>
      <trkpt lat="37.679664400" lon="-1.701517200">
        <ele>440.000000</ele>
        <time>2014-03-29T16:35:20Z</time>
      </trkpt>
      <trkpt lat="37.679636500" lon="-1.701468000">
        <ele>440.000000</ele>
        <time>2014-03-29T16:35:21Z</time>
      </trkpt>
      <trkpt lat="37.679606300" lon="-1.701420700">
        <ele>440.000000</ele>
        <time>2014-03-29T16:35:22Z</time>
      </trkpt>
      <trkpt lat="37.679577200" lon="-1.701375000">
        <ele>441.000000</ele>
        <time>2014-03-29T16:35:23Z</time>
      </trkpt>
      <trkpt lat="37.679547300" lon="-1.701338000">
        <ele>441.000000</ele>
        <time>2014-03-29T16:35:24Z</time>
      </trkpt>
      <trkpt lat="37.679524100" lon="-1.701298100">
        <ele>442.000000</ele>
        <time>2014-03-29T16:35:25Z</time>
      </trkpt>
      <trkpt lat="37.679505100" lon="-1.701252700">
        <ele>442.000000</ele>
        <time>2014-03-29T16:35:26Z</time>
      </trkpt>
      <trkpt lat="37.679490500" lon="-1.701200800">
        <ele>443.000000</ele>
        <time>2014-03-29T16:35:27Z</time>
      </trkpt>
      <trkpt lat="37.679483800" lon="-1.701149800">
        <ele>444.000000</ele>
        <time>2014-03-29T16:35:28Z</time>
      </trkpt>
      <trkpt lat="37.679478700" lon="-1.701100200">
        <ele>444.000000</ele>
        <time>2014-03-29T16:35:29Z</time>
      </trkpt>
      <trkpt lat="37.679473300" lon="-1.701051900">
        <ele>445.000000</ele>
        <time>2014-03-29T16:35:30Z</time>
      </trkpt>
      <trkpt lat="37.679466000" lon="-1.701004900">
        <ele>445.000000</ele>
        <time>2014-03-29T16:35:31Z</time>
      </trkpt>
      <trkpt lat="37.679462400" lon="-1.700950900">
        <ele>446.000000</ele>
        <time>2014-03-29T16:35:32Z</time>
      </trkpt>
      <trkpt lat="37.679465600" lon="-1.700899300">
        <ele>447.000000</ele>
        <time>2014-03-29T16:35:33Z</time>
      </trkpt>
      <trkpt lat="37.679469900" lon="-1.700845500">
        <ele>447.000000</ele>
        <time>2014-03-29T16:35:34Z</time>
      </trkpt>
      <trkpt lat="37.679474800" lon="-1.700792000">
        <ele>448.000000</ele>
        <time>2014-03-29T16:35:35Z</time>
      </trkpt>
      <trkpt lat="37.679476100" lon="-1.700739900">
        <ele>448.000000</ele>
        <time>2014-03-29T16:35:36Z</time>
      </trkpt>
      <trkpt lat="37.679474800" lon="-1.700693600">
        <ele>449.000000</ele>
        <time>2014-03-29T16:35:37Z</time>
      </trkpt>
      <trkpt lat="37.679478000" lon="-1.700647000">
        <ele>450.000000</ele>
        <time>2014-03-29T16:35:38Z</time>
      </trkpt>
      <trkpt lat="37.679481700" lon="-1.700597200">
        <ele>450.000000</ele>
        <time>2014-03-29T16:35:39Z</time>
      </trkpt>
      <trkpt lat="37.679481300" lon="-1.700547600">
        <ele>451.000000</ele>
        <time>2014-03-29T16:35:40Z</time>
      </trkpt>
      <trkpt lat="37.679478300" lon="-1.700496900">
        <ele>451.000000</ele>
        <time>2014-03-29T16:35:41Z</time>
      </trkpt>
      <trkpt lat="37.679474400" lon="-1.700450800">
        <ele>452.000000</ele>
        <time>2014-03-29T16:35:42Z</time>
      </trkpt>
      <trkpt lat="37.679475900" lon="-1.700399700">
        <ele>452.000000</ele>
        <time>2014-03-29T16:35:43Z</time>
      </trkpt>
      <trkpt lat="37.679480000" lon="-1.700351400">
        <ele>452.000000</ele>
        <time>2014-03-29T16:35:44Z</time>
      </trkpt>
      <trkpt lat="37.679481800" lon="-1.700303100">
        <ele>453.000000</ele>
        <time>2014-03-29T16:35:45Z</time>
      </trkpt>
      <trkpt lat="37.679480800" lon="-1.700257800">
        <ele>453.000000</ele>
        <time>2014-03-29T16:35:46Z</time>
      </trkpt>
      <trkpt lat="37.679482600" lon="-1.700213400">
        <ele>454.000000</ele>
        <time>2014-03-29T16:35:47Z</time>
      </trkpt>
      <trkpt lat="37.679486700" lon="-1.700167300">
        <ele>454.000000</ele>
        <time>2014-03-29T16:35:48Z</time>
      </trkpt>
      <trkpt lat="37.679491300" lon="-1.700121900">
        <ele>455.000000</ele>
        <time>2014-03-29T16:35:49Z</time>
      </trkpt>
      <trkpt lat="37.679498300" lon="-1.700082800">
        <ele>455.000000</ele>
        <time>2014-03-29T16:35:50Z</time>
      </trkpt>
      <trkpt lat="37.679509800" lon="-1.700050600">
        <ele>456.000000</ele>
        <time>2014-03-29T16:35:51Z</time>
      </trkpt>
      <trkpt lat="37.679521600" lon="-1.700016300">
        <ele>456.000000</ele>
        <time>2014-03-29T16:35:52Z</time>
      </trkpt>
      <trkpt lat="37.679537400" lon="-1.699983800">
        <ele>457.000000</ele>
        <time>2014-03-29T16:35:53Z</time>
      </trkpt>
      <trkpt lat="37.679553700" lon="-1.699953700">
        <ele>457.000000</ele>
        <time>2014-03-29T16:35:54Z</time>
      </trkpt>
      <trkpt lat="37.679553700" lon="-1.699913800">
        <ele>457.000000</ele>
        <time>2014-03-29T16:35:55Z</time>
      </trkpt>
      <trkpt lat="37.679549500" lon="-1.699882600">
        <ele>458.000000</ele>
        <time>2014-03-29T16:35:56Z</time>
      </trkpt>
      <trkpt lat="37.679545600" lon="-1.699852800">
        <ele>458.000000</ele>
        <time>2014-03-29T16:35:57Z</time>
      </trkpt>
      <trkpt lat="37.679541700" lon="-1.699819300">
        <ele>459.000000</ele>
        <time>2014-03-29T16:35:58Z</time>
      </trkpt>
      <trkpt lat="37.679542600" lon="-1.699787700">
        <ele>459.000000</ele>
        <time>2014-03-29T16:35:59Z</time>
      </trkpt>
      <trkpt lat="37.679543100" lon="-1.699747000">
        <ele>460.000000</ele>
        <time>2014-03-29T16:36:00Z</time>
      </trkpt>
      <trkpt lat="37.679544500" lon="-1.699708100">
        <ele>460.000000</ele>
        <time>2014-03-29T16:36:01Z</time>
      </trkpt>
      <trkpt lat="37.679543900" lon="-1.699671800">
        <ele>461.000000</ele>
        <time>2014-03-29T16:36:02Z</time>
      </trkpt>
      <trkpt lat="37.679547000" lon="-1.699637200">
        <ele>461.000000</ele>
        <time>2014-03-29T16:36:03Z</time>
      </trkpt>
      <trkpt lat="37.679547900" lon="-1.699598000">
        <ele>462.000000</ele>
        <time>2014-03-29T16:36:04Z</time>
      </trkpt>
      <trkpt lat="37.679545200" lon="-1.699560800">
        <ele>462.000000</ele>
        <time>2014-03-29T16:36:05Z</time>
      </trkpt>
      <trkpt lat="37.679541900" lon="-1.699524400">
        <ele>462.000000</ele>
        <time>2014-03-29T16:36:06Z</time>
      </trkpt>
      <trkpt lat="37.679536700" lon="-1.699491000">
        <ele>463.000000</ele>
        <time>2014-03-29T16:36:07Z</time>
      </trkpt>
      <trkpt lat="37.679525500" lon="-1.699465100">
        <ele>463.000000</ele>
        <time>2014-03-29T16:36:08Z</time>
      </trkpt>
      <trkpt lat="37.679509900" lon="-1.699439700">
        <ele>464.000000</ele>
        <time>2014-03-29T16:36:09Z</time>
      </trkpt>
      <trkpt lat="37.679493200" lon="-1.699408600">
        <ele>464.000000</ele>
        <time>2014-03-29T16:36:10Z</time>
      </trkpt>
      <trkpt lat="37.679473400" lon="-1.699373100">
        <ele>465.000000</ele>
        <time>2014-03-29T16:36:11Z</time>
      </trkpt>
      <trkpt lat="37.679456900" lon="-1.699343600">
        <ele>465.000000</ele>
        <time>2014-03-29T16:36:12Z</time>
      </trkpt>
      <trkpt lat="37.679432300" lon="-1.699312500">
        <ele>466.000000</ele>
        <time>2014-03-29T16:36:13Z</time>
      </trkpt>
      <trkpt lat="37.679403500" lon="-1.699279900">
        <ele>466.000000</ele>
        <time>2014-03-29T16:36:14Z</time>
      </trkpt>
      <trkpt lat="37.679373900" lon="-1.699254300">
        <ele>466.000000</ele>
        <time>2014-03-29T16:36:15Z</time>
      </trkpt>
      <trkpt lat="37.679342000" lon="-1.699236800">
        <ele>467.000000</ele>
        <time>2014-03-29T16:36:16Z</time>
      </trkpt>
      <trkpt lat="37.679313400" lon="-1.699216900">
        <ele>467.000000</ele>
        <time>2014-03-29T16:36:17Z</time>
      </trkpt>
      <trkpt lat="37.679283000" lon="-1.699202800">
        <ele>468.000000</ele>
        <time>2014-03-29T16:36:18Z</time>
      </trkpt>
      <trkpt lat="37.679258900" lon="-1.699196000">
        <ele>468.000000</ele>
        <time>2014-03-29T16:36:19Z</time>
      </trkpt>
      <trkpt lat="37.679227900" lon="-1.699192100">
        <ele>468.000000</ele>
        <time>2014-03-29T16:36:20Z</time>
      </trkpt>
      <trkpt lat="37.679198600" lon="-1.699195400">
        <ele>469.000000</ele>
        <time>2014-03-29T16:36:21Z</time>
      </trkpt>
      <trkpt lat="37.679169500" lon="-1.699208900">
        <ele>469.000000</ele>
        <time>2014-03-29T16:36:22Z</time>
      </trkpt>
      <trkpt lat="37.679141700" lon="-1.699233400">
        <ele>470.000000</ele>
        <time>2014-03-29T16:36:23Z</time>
      </trkpt>
      <trkpt lat="37.679117000" lon="-1.699262800">
        <ele>470.000000</ele>
        <time>2014-03-29T16:36:24Z</time>
      </trkpt>
      <trkpt lat="37.679092100" lon="-1.699294600">
        <ele>470.000000</ele>
        <time>2014-03-29T16:36:25Z</time>
      </trkpt>
      <trkpt lat="37.679070500" lon="-1.699325800">
        <ele>470.000000</ele>
        <time>2014-03-29T16:36:26Z</time>
      </trkpt>
      <trkpt lat="37.679047900" lon="-1.699359000">
        <ele>471.000000</ele>
        <time>2014-03-29T16:36:27Z</time>
      </trkpt>
      <trkpt lat="37.679029600" lon="-1.699392600">
        <ele>471.000000</ele>
        <time>2014-03-29T16:36:28Z</time>
      </trkpt>
      <trkpt lat="37.679019100" lon="-1.699432700">
        <ele>471.000000</ele>
        <time>2014-03-29T16:36:29Z</time>
      </trkpt>
      <trkpt lat="37.679014700" lon="-1.699470500">
        <ele>471.000000</ele>
        <time>2014-03-29T16:36:30Z</time>
      </trkpt>
      <trkpt lat="37.679013500" lon="-1.699506800">
        <ele>471.000000</ele>
        <time>2014-03-29T16:36:31Z</time>
      </trkpt>
      <trkpt lat="37.679014900" lon="-1.699542300">
        <ele>472.000000</ele>
        <time>2014-03-29T16:36:32Z</time>
      </trkpt>
      <trkpt lat="37.679018200" lon="-1.699575700">
        <ele>472.000000</ele>
        <time>2014-03-29T16:36:33Z</time>
      </trkpt>
      <trkpt lat="37.679026400" lon="-1.699614300">
        <ele>472.000000</ele>
        <time>2014-03-29T16:36:34Z</time>
      </trkpt>
      <trkpt lat="37.679034300" lon="-1.699655500">
        <ele>473.000000</ele>
        <time>2014-03-29T16:36:35Z</time>
      </trkpt>
      <trkpt lat="37.679051100" lon="-1.699703500">
        <ele>473.000000</ele>
        <time>2014-03-29T16:36:36Z</time>
      </trkpt>
      <trkpt lat="37.679066700" lon="-1.699759600">
        <ele>473.000000</ele>
        <time>2014-03-29T16:36:37Z</time>
      </trkpt>
      <trkpt lat="37.679093900" lon="-1.699826000">
        <ele>474.000000</ele>
        <time>2014-03-29T16:36:38Z</time>
      </trkpt>
      <trkpt lat="37.679113100" lon="-1.699877500">
        <ele>474.000000</ele>
        <time>2014-03-29T16:36:39Z</time>
      </trkpt>
      <trkpt lat="37.679125500" lon="-1.699933400">
        <ele>474.000000</ele>
        <time>2014-03-29T16:36:40Z</time>
      </trkpt>
      <trkpt lat="37.679138700" lon="-1.699991400">
        <ele>475.000000</ele>
        <time>2014-03-29T16:36:41Z</time>
      </trkpt>
      <trkpt lat="37.679145100" lon="-1.700046300">
        <ele>475.000000</ele>
        <time>2014-03-29T16:36:42Z</time>
      </trkpt>
      <trkpt lat="37.679145200" lon="-1.700101200">
        <ele>476.000000</ele>
        <time>2014-03-29T16:36:43Z</time>
      </trkpt>
      <trkpt lat="37.679148300" lon="-1.700155000">
        <ele>476.000000</ele>
        <time>2014-03-29T16:36:44Z</time>
      </trkpt>
      <trkpt lat="37.679148900" lon="-1.700209500">
        <ele>476.000000</ele>
        <time>2014-03-29T16:36:45Z</time>
      </trkpt>
      <trkpt lat="37.679143400" lon="-1.700265600">
        <ele>477.000000</ele>
        <time>2014-03-29T16:36:46Z</time>
      </trkpt>
      <trkpt lat="37.679137600" lon="-1.700324400">
        <ele>477.000000</ele>
        <time>2014-03-29T16:36:47Z</time>
      </trkpt>
      <trkpt lat="37.679129200" lon="-1.700380800">
        <ele>477.000000</ele>
        <time>2014-03-29T16:36:48Z</time>
      </trkpt>
      <trkpt lat="37.679118500" lon="-1.700431600">
        <ele>478.000000</ele>
        <time>2014-03-29T16:36:49Z</time>
      </trkpt>
      <trkpt lat="37.679110400" lon="-1.700480000">
        <ele>478.000000</ele>
        <time>2014-03-29T16:36:50Z</time>
      </trkpt>
      <trkpt lat="37.679102400" lon="-1.700526400">
        <ele>478.000000</ele>
        <time>2014-03-29T16:36:51Z</time>
      </trkpt>
      <trkpt lat="37.679092300" lon="-1.700574400">
        <ele>479.000000</ele>
        <time>2014-03-29T16:36:52Z</time>
      </trkpt>
      <trkpt lat="37.679082400" lon="-1.700624900">
        <ele>479.000000</ele>
        <time>2014-03-29T16:36:53Z</time>
      </trkpt>
      <trkpt lat="37.679071800" lon="-1.700676200">
        <ele>479.000000</ele>
        <time>2014-03-29T16:36:54Z</time>
      </trkpt>
      <trkpt lat="37.679060000" lon="-1.700723000">
        <ele>479.000000</ele>
        <time>2014-03-29T16:36:55Z</time>
      </trkpt>
      <trkpt lat="37.679044000" lon="-1.700769000">
        <ele>480.000000</ele>
        <time>2014-03-29T16:36:56Z</time>
      </trkpt>
      <trkpt lat="37.679030800" lon="-1.700814100">
        <ele>480.000000</ele>
        <time>2014-03-29T16:36:57Z</time>
      </trkpt>
      <trkpt lat="37.679014200" lon="-1.700861600">
        <ele>480.000000</ele>
        <time>2014-03-29T16:36:58Z</time>
      </trkpt>
      <trkpt lat="37.678995300" lon="-1.700909500">
        <ele>481.000000</ele>
        <time>2014-03-29T16:36:59Z</time>
      </trkpt>
      <trkpt lat="37.678973700" lon="-1.700955700">
        <ele>481.000000</ele>
        <time>2014-03-29T16:37:00Z</time>
      </trkpt>
      <trkpt lat="37.678956500" lon="-1.701000900">
        <ele>481.000000</ele>
        <time>2014-03-29T16:37:01Z</time>
      </trkpt>
      <trkpt lat="37.678942300" lon="-1.701053600">
        <ele>482.000000</ele>
        <time>2014-03-29T16:37:02Z</time>
      </trkpt>
      <trkpt lat="37.678930300" lon="-1.701109200">
        <ele>482.000000</ele>
        <time>2014-03-29T16:37:03Z</time>
      </trkpt>
      <trkpt lat="37.678917600" lon="-1.701166600">
        <ele>483.000000</ele>
        <time>2014-03-29T16:37:04Z</time>
      </trkpt>
      <trkpt lat="37.678908000" lon="-1.701229000">
        <ele>483.000000</ele>
        <time>2014-03-29T16:37:05Z</time>
      </trkpt>
      <trkpt lat="37.678895800" lon="-1.701288100">
        <ele>483.000000</ele>
        <time>2014-03-29T16:37:06Z</time>
      </trkpt>
      <trkpt lat="37.678884500" lon="-1.701345300">
        <ele>484.000000</ele>
        <time>2014-03-29T16:37:07Z</time>
      </trkpt>
      <trkpt lat="37.678875500" lon="-1.701406100">
        <ele>484.000000</ele>
        <time>2014-03-29T16:37:08Z</time>
      </trkpt>
      <trkpt lat="37.678867900" lon="-1.701470900">
        <ele>484.000000</ele>
        <time>2014-03-29T16:37:09Z</time>
      </trkpt>
      <trkpt lat="37.678862100" lon="-1.701536800">
        <ele>485.000000</ele>
        <time>2014-03-29T16:37:10Z</time>
      </trkpt>
      <trkpt lat="37.678856100" lon="-1.701604300">
        <ele>485.000000</ele>
        <time>2014-03-29T16:37:11Z</time>
      </trkpt>
      <trkpt lat="37.678850300" lon="-1.701673400">
        <ele>485.000000</ele>
        <time>2014-03-29T16:37:12Z</time>
      </trkpt>
      <trkpt lat="37.678845000" lon="-1.701742500">
        <ele>485.000000</ele>
        <time>2014-03-29T16:37:13Z</time>
      </trkpt>
      <trkpt lat="37.678838900" lon="-1.701813600">
        <ele>486.000000</ele>
        <time>2014-03-29T16:37:14Z</time>
      </trkpt>
      <trkpt lat="37.678830300" lon="-1.701885100">
        <ele>486.000000</ele>
        <time>2014-03-29T16:37:15Z</time>
      </trkpt>
      <trkpt lat="37.678822700" lon="-1.701959100">
        <ele>486.000000</ele>
        <time>2014-03-29T16:37:16Z</time>
      </trkpt>
      <trkpt lat="37.678813300" lon="-1.702032900">
        <ele>487.000000</ele>
        <time>2014-03-29T16:37:17Z</time>
      </trkpt>
      <trkpt lat="37.678802600" lon="-1.702108000">
        <ele>487.000000</ele>
        <time>2014-03-29T16:37:18Z</time>
      </trkpt>
      <trkpt lat="37.678793800" lon="-1.702181400">
        <ele>487.000000</ele>
        <time>2014-03-29T16:37:19Z</time>
      </trkpt>
      <trkpt lat="37.678785500" lon="-1.702254800">
        <ele>488.000000</ele>
        <time>2014-03-29T16:37:20Z</time>
      </trkpt>
      <trkpt lat="37.678776500" lon="-1.702326900">
        <ele>488.000000</ele>
        <time>2014-03-29T16:37:21Z</time>
      </trkpt>
      <trkpt lat="37.678771300" lon="-1.702398800">
        <ele>488.000000</ele>
        <time>2014-03-29T16:37:22Z</time>
      </trkpt>
      <trkpt lat="37.678766400" lon="-1.702471300">
        <ele>489.000000</ele>
        <time>2014-03-29T16:37:23Z</time>
      </trkpt>
      <trkpt lat="37.678761100" lon="-1.702544600">
        <ele>489.000000</ele>
        <time>2014-03-29T16:37:24Z</time>
      </trkpt>
      <trkpt lat="37.678755000" lon="-1.702615400">
        <ele>489.000000</ele>
        <time>2014-03-29T16:37:25Z</time>
      </trkpt>
      <trkpt lat="37.678750900" lon="-1.702685100">
        <ele>490.000000</ele>
        <time>2014-03-29T16:37:26Z</time>
      </trkpt>
      <trkpt lat="37.678743800" lon="-1.702756900">
        <ele>490.000000</ele>
        <time>2014-03-29T16:37:27Z</time>
      </trkpt>
      <trkpt lat="37.678738500" lon="-1.702827400">
        <ele>490.000000</ele>
        <time>2014-03-29T16:37:28Z</time>
      </trkpt>
      <trkpt lat="37.678737900" lon="-1.702899100">
        <ele>491.000000</ele>
        <time>2014-03-29T16:37:29Z</time>
      </trkpt>
      <trkpt lat="37.678742200" lon="-1.702970000">
        <ele>491.000000</ele>
        <time>2014-03-29T16:37:30Z</time>
      </trkpt>
      <trkpt lat="37.678750400" lon="-1.703040200">
        <ele>491.000000</ele>
        <time>2014-03-29T16:37:31Z</time>
      </trkpt>
      <trkpt lat="37.678766100" lon="-1.703113700">
        <ele>491.000000</ele>
        <time>2014-03-29T16:37:32Z</time>
      </trkpt>
      <trkpt lat="37.678796000" lon="-1.703186600">
        <ele>492.000000</ele>
        <time>2014-03-29T16:37:33Z</time>
      </trkpt>
      <trkpt lat="37.678823300" lon="-1.703253300">
        <ele>492.000000</ele>
        <time>2014-03-29T16:37:34Z</time>
      </trkpt>
      <trkpt lat="37.678850600" lon="-1.703321100">
        <ele>492.000000</ele>
        <time>2014-03-29T16:37:35Z</time>
      </trkpt>
      <trkpt lat="37.678872700" lon="-1.703393500">
        <ele>492.000000</ele>
        <time>2014-03-29T16:37:36Z</time>
      </trkpt>
      <trkpt lat="37.678884700" lon="-1.703472900">
        <ele>492.000000</ele>
        <time>2014-03-29T16:37:37Z</time>
      </trkpt>
      <trkpt lat="37.678890400" lon="-1.703553500">
        <ele>493.000000</ele>
        <time>2014-03-29T16:37:38Z</time>
      </trkpt>
      <trkpt lat="37.678890400" lon="-1.703637900">
        <ele>493.000000</ele>
        <time>2014-03-29T16:37:39Z</time>
      </trkpt>
      <trkpt lat="37.678888300" lon="-1.703724100">
        <ele>493.000000</ele>
        <time>2014-03-29T16:37:40Z</time>
      </trkpt>
      <trkpt lat="37.678886900" lon="-1.703813100">
        <ele>493.000000</ele>
        <time>2014-03-29T16:37:41Z</time>
      </trkpt>
      <trkpt lat="37.678886300" lon="-1.703902900">
        <ele>493.000000</ele>
        <time>2014-03-29T16:37:42Z</time>
      </trkpt>
      <trkpt lat="37.678881700" lon="-1.703992700">
        <ele>493.000000</ele>
        <time>2014-03-29T16:37:43Z</time>
      </trkpt>
      <trkpt lat="37.678881000" lon="-1.704081700">
        <ele>493.000000</ele>
        <time>2014-03-29T16:37:44Z</time>
      </trkpt>
      <trkpt lat="37.678885300" lon="-1.704171100">
        <ele>494.000000</ele>
        <time>2014-03-29T16:37:45Z</time>
      </trkpt>
      <trkpt lat="37.678889500" lon="-1.704258100">
        <ele>494.000000</ele>
        <time>2014-03-29T16:37:46Z</time>
      </trkpt>
      <trkpt lat="37.678889500" lon="-1.704344000">
        <ele>494.000000</ele>
        <time>2014-03-29T16:37:47Z</time>
      </trkpt>
      <trkpt lat="37.678886800" lon="-1.704431900">
        <ele>494.000000</ele>
        <time>2014-03-29T16:37:48Z</time>
      </trkpt>
      <trkpt lat="37.678880100" lon="-1.704514200">
        <ele>494.000000</ele>
        <time>2014-03-29T16:37:49Z</time>
      </trkpt>
      <trkpt lat="37.678890000" lon="-1.704604300">
        <ele>495.000000</ele>
        <time>2014-03-29T16:37:50Z</time>
      </trkpt>
      <trkpt lat="37.678878000" lon="-1.704685900">
        <ele>495.000000</ele>
        <time>2014-03-29T16:37:51Z</time>
      </trkpt>
      <trkpt lat="37.678856800" lon="-1.704760800">
        <ele>495.000000</ele>
        <time>2014-03-29T16:37:52Z</time>
      </trkpt>
      <trkpt lat="37.678838800" lon="-1.704836600">
        <ele>495.000000</ele>
        <time>2014-03-29T16:37:53Z</time>
      </trkpt>
      <trkpt lat="37.678813900" lon="-1.704907700">
        <ele>496.000000</ele>
        <time>2014-03-29T16:37:54Z</time>
      </trkpt>
      <trkpt lat="37.678793600" lon="-1.704982500">
        <ele>496.000000</ele>
        <time>2014-03-29T16:37:55Z</time>
      </trkpt>
      <trkpt lat="37.678782700" lon="-1.705058400">
        <ele>496.000000</ele>
        <time>2014-03-29T16:37:56Z</time>
      </trkpt>
      <trkpt lat="37.678773900" lon="-1.705133200">
        <ele>497.000000</ele>
        <time>2014-03-29T16:37:57Z</time>
      </trkpt>
      <trkpt lat="37.678769000" lon="-1.705207400">
        <ele>497.000000</ele>
        <time>2014-03-29T16:37:58Z</time>
      </trkpt>
      <trkpt lat="37.678758700" lon="-1.705281200">
        <ele>497.000000</ele>
        <time>2014-03-29T16:37:59Z</time>
      </trkpt>
      <trkpt lat="37.678746600" lon="-1.705353300">
        <ele>498.000000</ele>
        <time>2014-03-29T16:38:00Z</time>
      </trkpt>
      <trkpt lat="37.678734900" lon="-1.705426600">
        <ele>498.000000</ele>
        <time>2014-03-29T16:38:01Z</time>
      </trkpt>
      <trkpt lat="37.678714600" lon="-1.705494300">
        <ele>498.000000</ele>
        <time>2014-03-29T16:38:02Z</time>
      </trkpt>
      <trkpt lat="37.678686600" lon="-1.705557700">
        <ele>499.000000</ele>
        <time>2014-03-29T16:38:03Z</time>
      </trkpt>
      <trkpt lat="37.678657800" lon="-1.705621400">
        <ele>499.000000</ele>
        <time>2014-03-29T16:38:04Z</time>
      </trkpt>
      <trkpt lat="37.678629300" lon="-1.705684400">
        <ele>499.000000</ele>
        <time>2014-03-29T16:38:05Z</time>
      </trkpt>
      <trkpt lat="37.678603800" lon="-1.705748300">
        <ele>500.000000</ele>
        <time>2014-03-29T16:38:06Z</time>
      </trkpt>
      <trkpt lat="37.678578200" lon="-1.705811300">
        <ele>500.000000</ele>
        <time>2014-03-29T16:38:07Z</time>
      </trkpt>
      <trkpt lat="37.678546600" lon="-1.705872100">
        <ele>500.000000</ele>
        <time>2014-03-29T16:38:08Z</time>
      </trkpt>
      <trkpt lat="37.678517400" lon="-1.705933400">
        <ele>501.000000</ele>
        <time>2014-03-29T16:38:09Z</time>
      </trkpt>
      <trkpt lat="37.678492500" lon="-1.705995200">
        <ele>501.000000</ele>
        <time>2014-03-29T16:38:10Z</time>
      </trkpt>
      <trkpt lat="37.678473100" lon="-1.706058800">
        <ele>501.000000</ele>
        <time>2014-03-29T16:38:11Z</time>
      </trkpt>
      <trkpt lat="37.678453500" lon="-1.706121900">
        <ele>502.000000</ele>
        <time>2014-03-29T16:38:12Z</time>
      </trkpt>
      <trkpt lat="37.678432500" lon="-1.706183900">
        <ele>502.000000</ele>
        <time>2014-03-29T16:38:13Z</time>
      </trkpt>
      <trkpt lat="37.678410900" lon="-1.706244100">
        <ele>502.000000</ele>
        <time>2014-03-29T16:38:14Z</time>
      </trkpt>
      <trkpt lat="37.678395400" lon="-1.706302500">
        <ele>503.000000</ele>
        <time>2014-03-29T16:38:15Z</time>
      </trkpt>
      <trkpt lat="37.678376000" lon="-1.706361700">
        <ele>503.000000</ele>
        <time>2014-03-29T16:38:16Z</time>
      </trkpt>
      <trkpt lat="37.678358400" lon="-1.706421600">
        <ele>504.000000</ele>
        <time>2014-03-29T16:38:17Z</time>
      </trkpt>
      <trkpt lat="37.678342000" lon="-1.706480100">
        <ele>504.000000</ele>
        <time>2014-03-29T16:38:18Z</time>
      </trkpt>
      <trkpt lat="37.678327500" lon="-1.706542800">
        <ele>504.000000</ele>
        <time>2014-03-29T16:38:19Z</time>
      </trkpt>
      <trkpt lat="37.678317800" lon="-1.706604300">
        <ele>505.000000</ele>
        <time>2014-03-29T16:38:20Z</time>
      </trkpt>
      <trkpt lat="37.678309000" lon="-1.706665000">
        <ele>505.000000</ele>
        <time>2014-03-29T16:38:21Z</time>
      </trkpt>
      <trkpt lat="37.678301500" lon="-1.706725700">
        <ele>505.000000</ele>
        <time>2014-03-29T16:38:22Z</time>
      </trkpt>
      <trkpt lat="37.678295400" lon="-1.706786600">
        <ele>506.000000</ele>
        <time>2014-03-29T16:38:23Z</time>
      </trkpt>
      <trkpt lat="37.678294300" lon="-1.706849000">
        <ele>506.000000</ele>
        <time>2014-03-29T16:38:24Z</time>
      </trkpt>
      <trkpt lat="37.678295700" lon="-1.706910000">
        <ele>506.000000</ele>
        <time>2014-03-29T16:38:25Z</time>
      </trkpt>
      <trkpt lat="37.678300400" lon="-1.706969800">
        <ele>507.000000</ele>
        <time>2014-03-29T16:38:26Z</time>
      </trkpt>
      <trkpt lat="37.678308600" lon="-1.707030000">
        <ele>507.000000</ele>
        <time>2014-03-29T16:38:27Z</time>
      </trkpt>
      <trkpt lat="37.678323000" lon="-1.707093100">
        <ele>508.000000</ele>
        <time>2014-03-29T16:38:28Z</time>
      </trkpt>
      <trkpt lat="37.678331600" lon="-1.707158600">
        <ele>508.000000</ele>
        <time>2014-03-29T16:38:29Z</time>
      </trkpt>
      <trkpt lat="37.678330700" lon="-1.707220100">
        <ele>508.000000</ele>
        <time>2014-03-29T16:38:30Z</time>
      </trkpt>
      <trkpt lat="37.678322200" lon="-1.707279500">
        <ele>508.000000</ele>
        <time>2014-03-29T16:38:31Z</time>
      </trkpt>
      <trkpt lat="37.678308100" lon="-1.707334300">
        <ele>509.000000</ele>
        <time>2014-03-29T16:38:32Z</time>
      </trkpt>
      <trkpt lat="37.678292500" lon="-1.707390100">
        <ele>509.000000</ele>
        <time>2014-03-29T16:38:33Z</time>
      </trkpt>
      <trkpt lat="37.678276300" lon="-1.707442800">
        <ele>509.000000</ele>
        <time>2014-03-29T16:38:34Z</time>
      </trkpt>
      <trkpt lat="37.678258700" lon="-1.707492800">
        <ele>510.000000</ele>
        <time>2014-03-29T16:38:35Z</time>
      </trkpt>
      <trkpt lat="37.678244500" lon="-1.707543100">
        <ele>510.000000</ele>
        <time>2014-03-29T16:38:36Z</time>
      </trkpt>
      <trkpt lat="37.678232800" lon="-1.707592500">
        <ele>510.000000</ele>
        <time>2014-03-29T16:38:37Z</time>
      </trkpt>
      <trkpt lat="37.678219000" lon="-1.707641600">
        <ele>511.000000</ele>
        <time>2014-03-29T16:38:38Z</time>
      </trkpt>
      <trkpt lat="37.678201000" lon="-1.707693000">
        <ele>511.000000</ele>
        <time>2014-03-29T16:38:39Z</time>
      </trkpt>
      <trkpt lat="37.678186100" lon="-1.707745500">
        <ele>512.000000</ele>
        <time>2014-03-29T16:38:40Z</time>
      </trkpt>
      <trkpt lat="37.678172500" lon="-1.707797300">
        <ele>512.000000</ele>
        <time>2014-03-29T16:38:41Z</time>
      </trkpt>
      <trkpt lat="37.678158900" lon="-1.707850600">
        <ele>512.000000</ele>
        <time>2014-03-29T16:38:42Z</time>
      </trkpt>
      <trkpt lat="37.678145500" lon="-1.707903800">
        <ele>513.000000</ele>
        <time>2014-03-29T16:38:43Z</time>
      </trkpt>
      <trkpt lat="37.678134300" lon="-1.707956800">
        <ele>513.000000</ele>
        <time>2014-03-29T16:38:44Z</time>
      </trkpt>
      <trkpt lat="37.678122400" lon="-1.708011300">
        <ele>513.000000</ele>
        <time>2014-03-29T16:38:45Z</time>
      </trkpt>
      <trkpt lat="37.678109600" lon="-1.708063700">
        <ele>514.000000</ele>
        <time>2014-03-29T16:38:46Z</time>
      </trkpt>
      <trkpt lat="37.678095800" lon="-1.708115900">
        <ele>514.000000</ele>
        <time>2014-03-29T16:38:47Z</time>
      </trkpt>
      <trkpt lat="37.678078900" lon="-1.708165800">
        <ele>514.000000</ele>
        <time>2014-03-29T16:38:48Z</time>
      </trkpt>
      <trkpt lat="37.678065300" lon="-1.708219500">
        <ele>515.000000</ele>
        <time>2014-03-29T16:38:49Z</time>
      </trkpt>
      <trkpt lat="37.678052000" lon="-1.708273600">
        <ele>515.000000</ele>
        <time>2014-03-29T16:38:50Z</time>
      </trkpt>
      <trkpt lat="37.678040300" lon="-1.708328200">
        <ele>515.000000</ele>
        <time>2014-03-29T16:38:51Z</time>
      </trkpt>
      <trkpt lat="37.678028500" lon="-1.708381100">
        <ele>516.000000</ele>
        <time>2014-03-29T16:38:52Z</time>
      </trkpt>
      <trkpt lat="37.678014700" lon="-1.708434600">
        <ele>516.000000</ele>
        <time>2014-03-29T16:38:53Z</time>
      </trkpt>
      <trkpt lat="37.677997900" lon="-1.708487000">
        <ele>516.000000</ele>
        <time>2014-03-29T16:38:54Z</time>
      </trkpt>
      <trkpt lat="37.677981800" lon="-1.708539600">
        <ele>517.000000</ele>
        <time>2014-03-29T16:38:55Z</time>
      </trkpt>
      <trkpt lat="37.677964800" lon="-1.708591300">
        <ele>517.000000</ele>
        <time>2014-03-29T16:38:56Z</time>
      </trkpt>
      <trkpt lat="37.677948900" lon="-1.708644500">
        <ele>517.000000</ele>
        <time>2014-03-29T16:38:57Z</time>
      </trkpt>
      <trkpt lat="37.677937200" lon="-1.708699900">
        <ele>518.000000</ele>
        <time>2014-03-29T16:38:58Z</time>
      </trkpt>
      <trkpt lat="37.677924800" lon="-1.708756200">
        <ele>518.000000</ele>
        <time>2014-03-29T16:38:59Z</time>
      </trkpt>
      <trkpt lat="37.677912400" lon="-1.708811300">
        <ele>518.000000</ele>
        <time>2014-03-29T16:39:00Z</time>
      </trkpt>
      <trkpt lat="37.677899400" lon="-1.708866200">
        <ele>519.000000</ele>
        <time>2014-03-29T16:39:01Z</time>
      </trkpt>
      <trkpt lat="37.677884600" lon="-1.708919600">
        <ele>519.000000</ele>
        <time>2014-03-29T16:39:02Z</time>
      </trkpt>
      <trkpt lat="37.677872300" lon="-1.708973500">
        <ele>519.000000</ele>
        <time>2014-03-29T16:39:03Z</time>
      </trkpt>
      <trkpt lat="37.677861400" lon="-1.709027600">
        <ele>520.000000</ele>
        <time>2014-03-29T16:39:04Z</time>
      </trkpt>
      <trkpt lat="37.677850100" lon="-1.709082900">
        <ele>520.000000</ele>
        <time>2014-03-29T16:39:05Z</time>
      </trkpt>
      <trkpt lat="37.677835500" lon="-1.709137200">
        <ele>520.000000</ele>
        <time>2014-03-29T16:39:06Z</time>
      </trkpt>
      <trkpt lat="37.677819500" lon="-1.709191800">
        <ele>521.000000</ele>
        <time>2014-03-29T16:39:07Z</time>
      </trkpt>
      <trkpt lat="37.677804600" lon="-1.709243800">
        <ele>521.000000</ele>
        <time>2014-03-29T16:39:08Z</time>
      </trkpt>
      <trkpt lat="37.677790600" lon="-1.709300500">
        <ele>521.000000</ele>
        <time>2014-03-29T16:39:09Z</time>
      </trkpt>
      <trkpt lat="37.677769800" lon="-1.709350600">
        <ele>522.000000</ele>
        <time>2014-03-29T16:39:10Z</time>
      </trkpt>
      <trkpt lat="37.677745100" lon="-1.709396500">
        <ele>522.000000</ele>
        <time>2014-03-29T16:39:11Z</time>
      </trkpt>
      <trkpt lat="37.677712000" lon="-1.709439800">
        <ele>522.000000</ele>
        <time>2014-03-29T16:39:12Z</time>
      </trkpt>
      <trkpt lat="37.677675900" lon="-1.709480900">
        <ele>523.000000</ele>
        <time>2014-03-29T16:39:13Z</time>
      </trkpt>
      <trkpt lat="37.677640200" lon="-1.709520900">
        <ele>523.000000</ele>
        <time>2014-03-29T16:39:14Z</time>
      </trkpt>
      <trkpt lat="37.677602500" lon="-1.709556900">
        <ele>523.000000</ele>
        <time>2014-03-29T16:39:15Z</time>
      </trkpt>
      <trkpt lat="37.677564100" lon="-1.709596500">
        <ele>524.000000</ele>
        <time>2014-03-29T16:39:16Z</time>
      </trkpt>
      <trkpt lat="37.677526000" lon="-1.709636300">
        <ele>524.000000</ele>
        <time>2014-03-29T16:39:17Z</time>
      </trkpt>
      <trkpt lat="37.677490000" lon="-1.709676700">
        <ele>525.000000</ele>
        <time>2014-03-29T16:39:18Z</time>
      </trkpt>
      <trkpt lat="37.677449600" lon="-1.709716000">
        <ele>525.000000</ele>
        <time>2014-03-29T16:39:19Z</time>
      </trkpt>
      <trkpt lat="37.677404700" lon="-1.709755200">
        <ele>525.000000</ele>
        <time>2014-03-29T16:39:20Z</time>
      </trkpt>
      <trkpt lat="37.677360200" lon="-1.709789800">
        <ele>526.000000</ele>
        <time>2014-03-29T16:39:21Z</time>
      </trkpt>
      <trkpt lat="37.677314600" lon="-1.709818400">
        <ele>526.000000</ele>
        <time>2014-03-29T16:39:22Z</time>
      </trkpt>
      <trkpt lat="37.677268800" lon="-1.709848200">
        <ele>526.000000</ele>
        <time>2014-03-29T16:39:23Z</time>
      </trkpt>
      <trkpt lat="37.677222900" lon="-1.709885100">
        <ele>527.000000</ele>
        <time>2014-03-29T16:39:24Z</time>
      </trkpt>
      <trkpt lat="37.677183100" lon="-1.709935100">
        <ele>527.000000</ele>
        <time>2014-03-29T16:39:25Z</time>
      </trkpt>
      <trkpt lat="37.677147800" lon="-1.709997500">
        <ele>527.000000</ele>
        <time>2014-03-29T16:39:26Z</time>
      </trkpt>
      <trkpt lat="37.677121400" lon="-1.710065600">
        <ele>528.000000</ele>
        <time>2014-03-29T16:39:27Z</time>
      </trkpt>
      <trkpt lat="37.677102800" lon="-1.710137900">
        <ele>528.000000</ele>
        <time>2014-03-29T16:39:28Z</time>
      </trkpt>
      <trkpt lat="37.677084300" lon="-1.710216000">
        <ele>528.000000</ele>
        <time>2014-03-29T16:39:29Z</time>
      </trkpt>
      <trkpt lat="37.677072000" lon="-1.710298200">
        <ele>528.000000</ele>
        <time>2014-03-29T16:39:30Z</time>
      </trkpt>
      <trkpt lat="37.677076600" lon="-1.710379600">
        <ele>528.000000</ele>
        <time>2014-03-29T16:39:31Z</time>
      </trkpt>
      <trkpt lat="37.677095700" lon="-1.710462800">
        <ele>528.000000</ele>
        <time>2014-03-29T16:39:32Z</time>
      </trkpt>
      <trkpt lat="37.677116700" lon="-1.710549400">
        <ele>528.000000</ele>
        <time>2014-03-29T16:39:33Z</time>
      </trkpt>
      <trkpt lat="37.677131700" lon="-1.710644000">
        <ele>528.000000</ele>
        <time>2014-03-29T16:39:34Z</time>
      </trkpt>
      <trkpt lat="37.677134900" lon="-1.710742200">
        <ele>529.000000</ele>
        <time>2014-03-29T16:39:35Z</time>
      </trkpt>
      <trkpt lat="37.677124200" lon="-1.710833500">
        <ele>529.000000</ele>
        <time>2014-03-29T16:39:36Z</time>
      </trkpt>
      <trkpt lat="37.677098800" lon="-1.710916000">
        <ele>529.000000</ele>
        <time>2014-03-29T16:39:37Z</time>
      </trkpt>
      <trkpt lat="37.677076400" lon="-1.710998700">
        <ele>528.000000</ele>
        <time>2014-03-29T16:39:38Z</time>
      </trkpt>
      <trkpt lat="37.677068900" lon="-1.711083500">
        <ele>528.000000</ele>
        <time>2014-03-29T16:39:39Z</time>
      </trkpt>
      <trkpt lat="37.677084800" lon="-1.711172600">
        <ele>528.000000</ele>
        <time>2014-03-29T16:39:40Z</time>
      </trkpt>
      <trkpt lat="37.677111400" lon="-1.711257100">
        <ele>528.000000</ele>
        <time>2014-03-29T16:39:41Z</time>
      </trkpt>
      <trkpt lat="37.677143400" lon="-1.711344100">
        <ele>528.000000</ele>
        <time>2014-03-29T16:39:42Z</time>
      </trkpt>
      <trkpt lat="37.677170200" lon="-1.711440200">
        <ele>528.000000</ele>
        <time>2014-03-29T16:39:43Z</time>
      </trkpt>
      <trkpt lat="37.677182700" lon="-1.711544500">
        <ele>528.000000</ele>
        <time>2014-03-29T16:39:44Z</time>
      </trkpt>
      <trkpt lat="37.677175500" lon="-1.711648000">
        <ele>528.000000</ele>
        <time>2014-03-29T16:39:45Z</time>
      </trkpt>
      <trkpt lat="37.677162200" lon="-1.711751400">
        <ele>528.000000</ele>
        <time>2014-03-29T16:39:46Z</time>
      </trkpt>
      <trkpt lat="37.677151700" lon="-1.711853300">
        <ele>528.000000</ele>
        <time>2014-03-29T16:39:47Z</time>
      </trkpt>
      <trkpt lat="37.677156400" lon="-1.711954000">
        <ele>528.000000</ele>
        <time>2014-03-29T16:39:48Z</time>
      </trkpt>
      <trkpt lat="37.677185500" lon="-1.712051000">
        <ele>528.000000</ele>
        <time>2014-03-29T16:39:49Z</time>
      </trkpt>
      <trkpt lat="37.677227900" lon="-1.712139400">
        <ele>528.000000</ele>
        <time>2014-03-29T16:39:50Z</time>
      </trkpt>
      <trkpt lat="37.677271200" lon="-1.712232200">
        <ele>528.000000</ele>
        <time>2014-03-29T16:39:51Z</time>
      </trkpt>
      <trkpt lat="37.677305700" lon="-1.712328300">
        <ele>528.000000</ele>
        <time>2014-03-29T16:39:52Z</time>
      </trkpt>
      <trkpt lat="37.677333300" lon="-1.712424300">
        <ele>528.000000</ele>
        <time>2014-03-29T16:39:53Z</time>
      </trkpt>
      <trkpt lat="37.677360800" lon="-1.712520500">
        <ele>528.000000</ele>
        <time>2014-03-29T16:39:54Z</time>
      </trkpt>
      <trkpt lat="37.677388100" lon="-1.712615600">
        <ele>528.000000</ele>
        <time>2014-03-29T16:39:55Z</time>
      </trkpt>
      <trkpt lat="37.677409500" lon="-1.712710700">
        <ele>528.000000</ele>
        <time>2014-03-29T16:39:56Z</time>
      </trkpt>
      <trkpt lat="37.677420200" lon="-1.712803900">
        <ele>528.000000</ele>
        <time>2014-03-29T16:39:57Z</time>
      </trkpt>
      <trkpt lat="37.677416800" lon="-1.712899100">
        <ele>528.000000</ele>
        <time>2014-03-29T16:39:58Z</time>
      </trkpt>
      <trkpt lat="37.677404600" lon="-1.713001100">
        <ele>528.000000</ele>
        <time>2014-03-29T16:39:59Z</time>
      </trkpt>
      <trkpt lat="37.677388500" lon="-1.713110500">
        <ele>528.000000</ele>
        <time>2014-03-29T16:40:00Z</time>
      </trkpt>
      <trkpt lat="37.677373200" lon="-1.713228400">
        <ele>528.000000</ele>
        <time>2014-03-29T16:40:01Z</time>
      </trkpt>
      <trkpt lat="37.677360900" lon="-1.713353300">
        <ele>528.000000</ele>
        <time>2014-03-29T16:40:02Z</time>
      </trkpt>
      <trkpt lat="37.677349800" lon="-1.713490700">
        <ele>528.000000</ele>
        <time>2014-03-29T16:40:03Z</time>
      </trkpt>
      <trkpt lat="37.677338100" lon="-1.713636700">
        <ele>528.000000</ele>
        <time>2014-03-29T16:40:04Z</time>
      </trkpt>
      <trkpt lat="37.677324200" lon="-1.713791600">
        <ele>528.000000</ele>
        <time>2014-03-29T16:40:05Z</time>
      </trkpt>
      <trkpt lat="37.677308000" lon="-1.713951500">
        <ele>528.000000</ele>
        <time>2014-03-29T16:40:06Z</time>
      </trkpt>
      <trkpt lat="37.677295000" lon="-1.714113600">
        <ele>527.000000</ele>
        <time>2014-03-29T16:40:07Z</time>
      </trkpt>
      <trkpt lat="37.677291200" lon="-1.714269800">
        <ele>527.000000</ele>
        <time>2014-03-29T16:40:08Z</time>
      </trkpt>
      <trkpt lat="37.677292900" lon="-1.714419500">
        <ele>526.000000</ele>
        <time>2014-03-29T16:40:09Z</time>
      </trkpt>
      <trkpt lat="37.677306400" lon="-1.714567000">
        <ele>526.000000</ele>
        <time>2014-03-29T16:40:10Z</time>
      </trkpt>
      <trkpt lat="37.677330300" lon="-1.714712000">
        <ele>525.000000</ele>
        <time>2014-03-29T16:40:11Z</time>
      </trkpt>
      <trkpt lat="37.677355700" lon="-1.714857100">
        <ele>525.000000</ele>
        <time>2014-03-29T16:40:12Z</time>
      </trkpt>
      <trkpt lat="37.677377100" lon="-1.715004500">
        <ele>524.000000</ele>
        <time>2014-03-29T16:40:13Z</time>
      </trkpt>
      <trkpt lat="37.677398000" lon="-1.715156700">
        <ele>523.000000</ele>
        <time>2014-03-29T16:40:14Z</time>
      </trkpt>
      <trkpt lat="37.677423000" lon="-1.715303900">
        <ele>522.000000</ele>
        <time>2014-03-29T16:40:15Z</time>
      </trkpt>
      <trkpt lat="37.677450900" lon="-1.715441700">
        <ele>522.000000</ele>
        <time>2014-03-29T16:40:16Z</time>
      </trkpt>
      <trkpt lat="37.677477900" lon="-1.715573400">
        <ele>521.000000</ele>
        <time>2014-03-29T16:40:17Z</time>
      </trkpt>
      <trkpt lat="37.677501500" lon="-1.715697700">
        <ele>520.000000</ele>
        <time>2014-03-29T16:40:18Z</time>
      </trkpt>
      <trkpt lat="37.677519400" lon="-1.715812400">
        <ele>520.000000</ele>
        <time>2014-03-29T16:40:19Z</time>
      </trkpt>
      <trkpt lat="37.677527500" lon="-1.715932100">
        <ele>519.000000</ele>
        <time>2014-03-29T16:40:20Z</time>
      </trkpt>
      <trkpt lat="37.677526200" lon="-1.716069100">
        <ele>519.000000</ele>
        <time>2014-03-29T16:40:21Z</time>
      </trkpt>
      <trkpt lat="37.677525000" lon="-1.716207800">
        <ele>518.000000</ele>
        <time>2014-03-29T16:40:22Z</time>
      </trkpt>
      <trkpt lat="37.677525300" lon="-1.716348900">
        <ele>518.000000</ele>
        <time>2014-03-29T16:40:23Z</time>
      </trkpt>
      <trkpt lat="37.677527800" lon="-1.716496000">
        <ele>518.000000</ele>
        <time>2014-03-29T16:40:24Z</time>
      </trkpt>
      <trkpt lat="37.677530900" lon="-1.716639000">
        <ele>518.000000</ele>
        <time>2014-03-29T16:40:25Z</time>
      </trkpt>
      <trkpt lat="37.677530600" lon="-1.716771500">
        <ele>517.000000</ele>
        <time>2014-03-29T16:40:26Z</time>
      </trkpt>
      <trkpt lat="37.677528900" lon="-1.716892800">
        <ele>517.000000</ele>
        <time>2014-03-29T16:40:27Z</time>
      </trkpt>
      <trkpt lat="37.677534500" lon="-1.717007300">
        <ele>517.000000</ele>
        <time>2014-03-29T16:40:28Z</time>
      </trkpt>
      <trkpt lat="37.677530800" lon="-1.717108300">
        <ele>517.000000</ele>
        <time>2014-03-29T16:40:29Z</time>
      </trkpt>
      <trkpt lat="37.677527100" lon="-1.717197000">
        <ele>518.000000</ele>
        <time>2014-03-29T16:40:30Z</time>
      </trkpt>
      <trkpt lat="37.677520500" lon="-1.717273200">
        <ele>518.000000</ele>
        <time>2014-03-29T16:40:31Z</time>
      </trkpt>
      <trkpt lat="37.677511400" lon="-1.717340100">
        <ele>518.000000</ele>
        <time>2014-03-29T16:40:32Z</time>
      </trkpt>
      <trkpt lat="37.677503900" lon="-1.717402900">
        <ele>519.000000</ele>
        <time>2014-03-29T16:40:33Z</time>
      </trkpt>
      <trkpt lat="37.677502100" lon="-1.717461300">
        <ele>519.000000</ele>
        <time>2014-03-29T16:40:34Z</time>
      </trkpt>
      <trkpt lat="37.677502500" lon="-1.717515800">
        <ele>519.000000</ele>
        <time>2014-03-29T16:40:35Z</time>
      </trkpt>
      <trkpt lat="37.677502700" lon="-1.717566300">
        <ele>520.000000</ele>
        <time>2014-03-29T16:40:36Z</time>
      </trkpt>
      <trkpt lat="37.677501700" lon="-1.717615300">
        <ele>520.000000</ele>
        <time>2014-03-29T16:40:37Z</time>
      </trkpt>
      <trkpt lat="37.677503400" lon="-1.717661000">
        <ele>521.000000</ele>
        <time>2014-03-29T16:40:38Z</time>
      </trkpt>
      <trkpt lat="37.677512200" lon="-1.717706900">
        <ele>521.000000</ele>
        <time>2014-03-29T16:40:39Z</time>
      </trkpt>
      <trkpt lat="37.677520200" lon="-1.717756000">
        <ele>522.000000</ele>
        <time>2014-03-29T16:40:40Z</time>
      </trkpt>
      <trkpt lat="37.677520500" lon="-1.717800600">
        <ele>523.000000</ele>
        <time>2014-03-29T16:40:41Z</time>
      </trkpt>
      <trkpt lat="37.677519300" lon="-1.717847800">
        <ele>523.000000</ele>
        <time>2014-03-29T16:40:42Z</time>
      </trkpt>
      <trkpt lat="37.677512600" lon="-1.717891800">
        <ele>524.000000</ele>
        <time>2014-03-29T16:40:43Z</time>
      </trkpt>
      <trkpt lat="37.677503500" lon="-1.717934800">
        <ele>525.000000</ele>
        <time>2014-03-29T16:40:44Z</time>
      </trkpt>
      <trkpt lat="37.677498200" lon="-1.717981200">
        <ele>526.000000</ele>
        <time>2014-03-29T16:40:45Z</time>
      </trkpt>
      <trkpt lat="37.677490100" lon="-1.718025200">
        <ele>526.000000</ele>
        <time>2014-03-29T16:40:46Z</time>
      </trkpt>
      <trkpt lat="37.677482600" lon="-1.718068200">
        <ele>527.000000</ele>
        <time>2014-03-29T16:40:47Z</time>
      </trkpt>
      <trkpt lat="37.677480900" lon="-1.718112200">
        <ele>528.000000</ele>
        <time>2014-03-29T16:40:48Z</time>
      </trkpt>
      <trkpt lat="37.677474800" lon="-1.718152900">
        <ele>528.000000</ele>
        <time>2014-03-29T16:40:49Z</time>
      </trkpt>
      <trkpt lat="37.677471400" lon="-1.718194500">
        <ele>529.000000</ele>
        <time>2014-03-29T16:40:50Z</time>
      </trkpt>
      <trkpt lat="37.677473100" lon="-1.718241400">
        <ele>529.000000</ele>
        <time>2014-03-29T16:40:51Z</time>
      </trkpt>
      <trkpt lat="37.677481300" lon="-1.718287300">
        <ele>530.000000</ele>
        <time>2014-03-29T16:40:52Z</time>
      </trkpt>
      <trkpt lat="37.677492900" lon="-1.718331300">
        <ele>531.000000</ele>
        <time>2014-03-29T16:40:53Z</time>
      </trkpt>
      <trkpt lat="37.677505100" lon="-1.718365500">
        <ele>531.000000</ele>
        <time>2014-03-29T16:40:54Z</time>
      </trkpt>
      <trkpt lat="37.677519200" lon="-1.718391300">
        <ele>532.000000</ele>
        <time>2014-03-29T16:40:55Z</time>
      </trkpt>
      <trkpt lat="37.677537200" lon="-1.718419700">
        <ele>532.000000</ele>
        <time>2014-03-29T16:40:56Z</time>
      </trkpt>
      <trkpt lat="37.677549300" lon="-1.718451000">
        <ele>533.000000</ele>
        <time>2014-03-29T16:40:57Z</time>
      </trkpt>
      <trkpt lat="37.677556600" lon="-1.718486300">
        <ele>533.000000</ele>
        <time>2014-03-29T16:40:58Z</time>
      </trkpt>
      <trkpt lat="37.677561500" lon="-1.718525000">
        <ele>534.000000</ele>
        <time>2014-03-29T16:40:59Z</time>
      </trkpt>
      <trkpt lat="37.677567000" lon="-1.718566600">
        <ele>534.000000</ele>
        <time>2014-03-29T16:41:00Z</time>
      </trkpt>
      <trkpt lat="37.677575500" lon="-1.718611600">
        <ele>535.000000</ele>
        <time>2014-03-29T16:41:01Z</time>
      </trkpt>
      <trkpt lat="37.677572900" lon="-1.718655300">
        <ele>535.000000</ele>
        <time>2014-03-29T16:41:02Z</time>
      </trkpt>
      <trkpt lat="37.677562500" lon="-1.718684700">
        <ele>536.000000</ele>
        <time>2014-03-29T16:41:03Z</time>
      </trkpt>
      <trkpt lat="37.677544700" lon="-1.718708600">
        <ele>536.000000</ele>
        <time>2014-03-29T16:41:04Z</time>
      </trkpt>
      <trkpt lat="37.677520900" lon="-1.718732400">
        <ele>537.000000</ele>
        <time>2014-03-29T16:41:05Z</time>
      </trkpt>
      <trkpt lat="37.677494100" lon="-1.718748900">
        <ele>537.000000</ele>
        <time>2014-03-29T16:41:06Z</time>
      </trkpt>
      <trkpt lat="37.677473800" lon="-1.718759700">
        <ele>538.000000</ele>
        <time>2014-03-29T16:41:07Z</time>
      </trkpt>
      <trkpt lat="37.677452700" lon="-1.718775000">
        <ele>538.000000</ele>
        <time>2014-03-29T16:41:08Z</time>
      </trkpt>
      <trkpt lat="37.677434600" lon="-1.718790100">
        <ele>539.000000</ele>
        <time>2014-03-29T16:41:09Z</time>
      </trkpt>
      <trkpt lat="37.677415000" lon="-1.718803000">
        <ele>539.000000</ele>
        <time>2014-03-29T16:41:10Z</time>
      </trkpt>
      <trkpt lat="37.677393800" lon="-1.718815300">
        <ele>540.000000</ele>
        <time>2014-03-29T16:41:11Z</time>
      </trkpt>
      <trkpt lat="37.677371300" lon="-1.718823800">
        <ele>540.000000</ele>
        <time>2014-03-29T16:41:12Z</time>
      </trkpt>
      <trkpt lat="37.677349400" lon="-1.718832600">
        <ele>541.000000</ele>
        <time>2014-03-29T16:41:13Z</time>
      </trkpt>
      <trkpt lat="37.677330400" lon="-1.718842400">
        <ele>541.000000</ele>
        <time>2014-03-29T16:41:14Z</time>
      </trkpt>
      <trkpt lat="37.677311800" lon="-1.718856500">
        <ele>542.000000</ele>
        <time>2014-03-29T16:41:15Z</time>
      </trkpt>
      <trkpt lat="37.677290000" lon="-1.718864000">
        <ele>542.000000</ele>
        <time>2014-03-29T16:41:16Z</time>
      </trkpt>
      <trkpt lat="37.677268300" lon="-1.718874900">
        <ele>543.000000</ele>
        <time>2014-03-29T16:41:17Z</time>
      </trkpt>
      <trkpt lat="37.677248300" lon="-1.718894700">
        <ele>543.000000</ele>
        <time>2014-03-29T16:41:18Z</time>
      </trkpt>
      <trkpt lat="37.677226300" lon="-1.718913400">
        <ele>543.000000</ele>
        <time>2014-03-29T16:41:19Z</time>
      </trkpt>
      <trkpt lat="37.677203700" lon="-1.718930000">
        <ele>544.000000</ele>
        <time>2014-03-29T16:41:20Z</time>
      </trkpt>
      <trkpt lat="37.677185200" lon="-1.718948400">
        <ele>544.000000</ele>
        <time>2014-03-29T16:41:21Z</time>
      </trkpt>
      <trkpt lat="37.677167800" lon="-1.718965700">
        <ele>545.000000</ele>
        <time>2014-03-29T16:41:22Z</time>
      </trkpt>
      <trkpt lat="37.677146200" lon="-1.718983500">
        <ele>546.000000</ele>
        <time>2014-03-29T16:41:23Z</time>
      </trkpt>
      <trkpt lat="37.677129000" lon="-1.719002400">
        <ele>546.000000</ele>
        <time>2014-03-29T16:41:24Z</time>
      </trkpt>
      <trkpt lat="37.677113400" lon="-1.719022200">
        <ele>547.000000</ele>
        <time>2014-03-29T16:41:25Z</time>
      </trkpt>
      <trkpt lat="37.677099200" lon="-1.719040800">
        <ele>547.000000</ele>
        <time>2014-03-29T16:41:26Z</time>
      </trkpt>
      <trkpt lat="37.677090800" lon="-1.719065100">
        <ele>548.000000</ele>
        <time>2014-03-29T16:41:27Z</time>
      </trkpt>
      <trkpt lat="37.677082000" lon="-1.719096100">
        <ele>548.000000</ele>
        <time>2014-03-29T16:41:28Z</time>
      </trkpt>
      <trkpt lat="37.677074200" lon="-1.719120900">
        <ele>549.000000</ele>
        <time>2014-03-29T16:41:29Z</time>
      </trkpt>
      <trkpt lat="37.677065000" lon="-1.719147100">
        <ele>549.000000</ele>
        <time>2014-03-29T16:41:30Z</time>
      </trkpt>
      <trkpt lat="37.677055000" lon="-1.719174000">
        <ele>550.000000</ele>
        <time>2014-03-29T16:41:31Z</time>
      </trkpt>
      <trkpt lat="37.677043900" lon="-1.719204300">
        <ele>550.000000</ele>
        <time>2014-03-29T16:41:32Z</time>
      </trkpt>
      <trkpt lat="37.677034500" lon="-1.719225700">
        <ele>550.000000</ele>
        <time>2014-03-29T16:41:33Z</time>
      </trkpt>
      <trkpt lat="37.677021400" lon="-1.719250700">
        <ele>551.000000</ele>
        <time>2014-03-29T16:41:34Z</time>
      </trkpt>
      <trkpt lat="37.677008800" lon="-1.719279700">
        <ele>551.000000</ele>
        <time>2014-03-29T16:41:35Z</time>
      </trkpt>
      <trkpt lat="37.676997100" lon="-1.719309500">
        <ele>552.000000</ele>
        <time>2014-03-29T16:41:36Z</time>
      </trkpt>
      <trkpt lat="37.676990700" lon="-1.719334600">
        <ele>552.000000</ele>
        <time>2014-03-29T16:41:37Z</time>
      </trkpt>
      <trkpt lat="37.676983500" lon="-1.719363400">
        <ele>552.000000</ele>
        <time>2014-03-29T16:41:38Z</time>
      </trkpt>
      <trkpt lat="37.676976700" lon="-1.719398300">
        <ele>553.000000</ele>
        <time>2014-03-29T16:41:39Z</time>
      </trkpt>
      <trkpt lat="37.676972500" lon="-1.719429800">
        <ele>553.000000</ele>
        <time>2014-03-29T16:41:40Z</time>
      </trkpt>
      <trkpt lat="37.676965900" lon="-1.719459900">
        <ele>553.000000</ele>
        <time>2014-03-29T16:41:41Z</time>
      </trkpt>
      <trkpt lat="37.676956600" lon="-1.719489500">
        <ele>554.000000</ele>
        <time>2014-03-29T16:41:42Z</time>
      </trkpt>
      <trkpt lat="37.676945400" lon="-1.719516300">
        <ele>554.000000</ele>
        <time>2014-03-29T16:41:43Z</time>
      </trkpt>
      <trkpt lat="37.676938400" lon="-1.719545700">
        <ele>555.000000</ele>
        <time>2014-03-29T16:41:44Z</time>
      </trkpt>
      <trkpt lat="37.676931300" lon="-1.719575100">
        <ele>555.000000</ele>
        <time>2014-03-29T16:41:45Z</time>
      </trkpt>
      <trkpt lat="37.676925100" lon="-1.719605400">
        <ele>555.000000</ele>
        <time>2014-03-29T16:41:46Z</time>
      </trkpt>
      <trkpt lat="37.676918300" lon="-1.719634000">
        <ele>556.000000</ele>
        <time>2014-03-29T16:41:47Z</time>
      </trkpt>
      <trkpt lat="37.676911700" lon="-1.719667100">
        <ele>556.000000</ele>
        <time>2014-03-29T16:41:48Z</time>
      </trkpt>
      <trkpt lat="37.676905900" lon="-1.719696300">
        <ele>556.000000</ele>
        <time>2014-03-29T16:41:49Z</time>
      </trkpt>
      <trkpt lat="37.676897500" lon="-1.719720300">
        <ele>557.000000</ele>
        <time>2014-03-29T16:41:50Z</time>
      </trkpt>
      <trkpt lat="37.676882800" lon="-1.719745800">
        <ele>557.000000</ele>
        <time>2014-03-29T16:41:51Z</time>
      </trkpt>
      <trkpt lat="37.676868800" lon="-1.719772500">
        <ele>558.000000</ele>
        <time>2014-03-29T16:41:52Z</time>
      </trkpt>
      <trkpt lat="37.676851900" lon="-1.719795000">
        <ele>558.000000</ele>
        <time>2014-03-29T16:41:53Z</time>
      </trkpt>
      <trkpt lat="37.676831400" lon="-1.719813200">
        <ele>558.000000</ele>
        <time>2014-03-29T16:41:54Z</time>
      </trkpt>
      <trkpt lat="37.676807900" lon="-1.719825200">
        <ele>559.000000</ele>
        <time>2014-03-29T16:41:55Z</time>
      </trkpt>
      <trkpt lat="37.676787000" lon="-1.719834900">
        <ele>559.000000</ele>
        <time>2014-03-29T16:41:56Z</time>
      </trkpt>
      <trkpt lat="37.676758800" lon="-1.719843300">
        <ele>560.000000</ele>
        <time>2014-03-29T16:41:57Z</time>
      </trkpt>
      <trkpt lat="37.676732000" lon="-1.719848700">
        <ele>560.000000</ele>
        <time>2014-03-29T16:41:58Z</time>
      </trkpt>
      <trkpt lat="37.676700100" lon="-1.719854600">
        <ele>560.000000</ele>
        <time>2014-03-29T16:41:59Z</time>
      </trkpt>
      <trkpt lat="37.676673700" lon="-1.719858300">
        <ele>561.000000</ele>
        <time>2014-03-29T16:42:00Z</time>
      </trkpt>
      <trkpt lat="37.676647900" lon="-1.719861300">
        <ele>561.000000</ele>
        <time>2014-03-29T16:42:01Z</time>
      </trkpt>
      <trkpt lat="37.676620600" lon="-1.719862600">
        <ele>562.000000</ele>
        <time>2014-03-29T16:42:02Z</time>
      </trkpt>
      <trkpt lat="37.676592500" lon="-1.719866500">
        <ele>562.000000</ele>
        <time>2014-03-29T16:42:03Z</time>
      </trkpt>
      <trkpt lat="37.676568400" lon="-1.719870200">
        <ele>562.000000</ele>
        <time>2014-03-29T16:42:04Z</time>
      </trkpt>
      <trkpt lat="37.676544300" lon="-1.719875300">
        <ele>563.000000</ele>
        <time>2014-03-29T16:42:05Z</time>
      </trkpt>
      <trkpt lat="37.676519200" lon="-1.719881100">
        <ele>563.000000</ele>
        <time>2014-03-29T16:42:06Z</time>
      </trkpt>
      <trkpt lat="37.676493300" lon="-1.719889400">
        <ele>564.000000</ele>
        <time>2014-03-29T16:42:07Z</time>
      </trkpt>
      <trkpt lat="37.676468200" lon="-1.719907800">
        <ele>564.000000</ele>
        <time>2014-03-29T16:42:08Z</time>
      </trkpt>
      <trkpt lat="37.676447300" lon="-1.719930900">
        <ele>565.000000</ele>
        <time>2014-03-29T16:42:09Z</time>
      </trkpt>
      <trkpt lat="37.676430000" lon="-1.719957200">
        <ele>565.000000</ele>
        <time>2014-03-29T16:42:10Z</time>
      </trkpt>
      <trkpt lat="37.676417900" lon="-1.719981700">
        <ele>565.000000</ele>
        <time>2014-03-29T16:42:11Z</time>
      </trkpt>
      <trkpt lat="37.676405500" lon="-1.720003600">
        <ele>566.000000</ele>
        <time>2014-03-29T16:42:12Z</time>
      </trkpt>
      <trkpt lat="37.676392400" lon="-1.720037100">
        <ele>566.000000</ele>
        <time>2014-03-29T16:42:13Z</time>
      </trkpt>
      <trkpt lat="37.676375400" lon="-1.720074400">
        <ele>567.000000</ele>
        <time>2014-03-29T16:42:14Z</time>
      </trkpt>
      <trkpt lat="37.676363500" lon="-1.720104400">
        <ele>567.000000</ele>
        <time>2014-03-29T16:42:15Z</time>
      </trkpt>
      <trkpt lat="37.676350600" lon="-1.720133800">
        <ele>567.000000</ele>
        <time>2014-03-29T16:42:16Z</time>
      </trkpt>
      <trkpt lat="37.676337600" lon="-1.720159100">
        <ele>568.000000</ele>
        <time>2014-03-29T16:42:17Z</time>
      </trkpt>
      <trkpt lat="37.676329900" lon="-1.720186600">
        <ele>568.000000</ele>
        <time>2014-03-29T16:42:18Z</time>
      </trkpt>
      <trkpt lat="37.676323100" lon="-1.720217200">
        <ele>568.000000</ele>
        <time>2014-03-29T16:42:19Z</time>
      </trkpt>
      <trkpt lat="37.676312200" lon="-1.720246900">
        <ele>569.000000</ele>
        <time>2014-03-29T16:42:20Z</time>
      </trkpt>
      <trkpt lat="37.676304000" lon="-1.720281500">
        <ele>569.000000</ele>
        <time>2014-03-29T16:42:21Z</time>
      </trkpt>
      <trkpt lat="37.676298400" lon="-1.720315000">
        <ele>569.000000</ele>
        <time>2014-03-29T16:42:22Z</time>
      </trkpt>
      <trkpt lat="37.676294000" lon="-1.720354400">
        <ele>570.000000</ele>
        <time>2014-03-29T16:42:23Z</time>
      </trkpt>
      <trkpt lat="37.676289800" lon="-1.720391600">
        <ele>570.000000</ele>
        <time>2014-03-29T16:42:24Z</time>
      </trkpt>
      <trkpt lat="37.676287500" lon="-1.720426700">
        <ele>570.000000</ele>
        <time>2014-03-29T16:42:25Z</time>
      </trkpt>
      <trkpt lat="37.676286500" lon="-1.720456000">
        <ele>571.000000</ele>
        <time>2014-03-29T16:42:26Z</time>
      </trkpt>
      <trkpt lat="37.676283000" lon="-1.720488700">
        <ele>571.000000</ele>
        <time>2014-03-29T16:42:27Z</time>
      </trkpt>
      <trkpt lat="37.676274900" lon="-1.720515700">
        <ele>571.000000</ele>
        <time>2014-03-29T16:42:28Z</time>
      </trkpt>
      <trkpt lat="37.676271500" lon="-1.720545800">
        <ele>572.000000</ele>
        <time>2014-03-29T16:42:29Z</time>
      </trkpt>
      <trkpt lat="37.676267100" lon="-1.720578200">
        <ele>572.000000</ele>
        <time>2014-03-29T16:42:30Z</time>
      </trkpt>
      <trkpt lat="37.676260500" lon="-1.720614200">
        <ele>572.000000</ele>
        <time>2014-03-29T16:42:31Z</time>
      </trkpt>
      <trkpt lat="37.676253300" lon="-1.720650500">
        <ele>573.000000</ele>
        <time>2014-03-29T16:42:32Z</time>
      </trkpt>
      <trkpt lat="37.676244000" lon="-1.720689300">
        <ele>573.000000</ele>
        <time>2014-03-29T16:42:33Z</time>
      </trkpt>
      <trkpt lat="37.676235800" lon="-1.720727900">
        <ele>573.000000</ele>
        <time>2014-03-29T16:42:34Z</time>
      </trkpt>
      <trkpt lat="37.676227700" lon="-1.720765200">
        <ele>574.000000</ele>
        <time>2014-03-29T16:42:35Z</time>
      </trkpt>
      <trkpt lat="37.676215800" lon="-1.720800800">
        <ele>574.000000</ele>
        <time>2014-03-29T16:42:36Z</time>
      </trkpt>
      <trkpt lat="37.676204200" lon="-1.720834800">
        <ele>575.000000</ele>
        <time>2014-03-29T16:42:37Z</time>
      </trkpt>
      <trkpt lat="37.676192000" lon="-1.720868600">
        <ele>575.000000</ele>
        <time>2014-03-29T16:42:38Z</time>
      </trkpt>
      <trkpt lat="37.676181500" lon="-1.720907800">
        <ele>575.000000</ele>
        <time>2014-03-29T16:42:39Z</time>
      </trkpt>
      <trkpt lat="37.676170600" lon="-1.720950400">
        <ele>576.000000</ele>
        <time>2014-03-29T16:42:40Z</time>
      </trkpt>
      <trkpt lat="37.676156700" lon="-1.720984400">
        <ele>576.000000</ele>
        <time>2014-03-29T16:42:41Z</time>
      </trkpt>
      <trkpt lat="37.676142200" lon="-1.721018700">
        <ele>576.000000</ele>
        <time>2014-03-29T16:42:42Z</time>
      </trkpt>
      <trkpt lat="37.676127200" lon="-1.721053200">
        <ele>577.000000</ele>
        <time>2014-03-29T16:42:43Z</time>
      </trkpt>
      <trkpt lat="37.676114400" lon="-1.721088700">
        <ele>577.000000</ele>
        <time>2014-03-29T16:42:44Z</time>
      </trkpt>
      <trkpt lat="37.676103700" lon="-1.721127700">
        <ele>577.000000</ele>
        <time>2014-03-29T16:42:45Z</time>
      </trkpt>
      <trkpt lat="37.676091200" lon="-1.721165400">
        <ele>578.000000</ele>
        <time>2014-03-29T16:42:46Z</time>
      </trkpt>
      <trkpt lat="37.676084200" lon="-1.721208500">
        <ele>578.000000</ele>
        <time>2014-03-29T16:42:47Z</time>
      </trkpt>
      <trkpt lat="37.676081800" lon="-1.721251700">
        <ele>578.000000</ele>
        <time>2014-03-29T16:42:48Z</time>
      </trkpt>
      <trkpt lat="37.676079200" lon="-1.721296700">
        <ele>579.000000</ele>
        <time>2014-03-29T16:42:49Z</time>
      </trkpt>
      <trkpt lat="37.676078200" lon="-1.721341900">
        <ele>579.000000</ele>
        <time>2014-03-29T16:42:50Z</time>
      </trkpt>
      <trkpt lat="37.676077500" lon="-1.721386000">
        <ele>579.000000</ele>
        <time>2014-03-29T16:42:51Z</time>
      </trkpt>
      <trkpt lat="37.676077700" lon="-1.721433600">
        <ele>580.000000</ele>
        <time>2014-03-29T16:42:52Z</time>
      </trkpt>
      <trkpt lat="37.676081600" lon="-1.721479500">
        <ele>580.000000</ele>
        <time>2014-03-29T16:42:53Z</time>
      </trkpt>
      <trkpt lat="37.676084300" lon="-1.721528900">
        <ele>580.000000</ele>
        <time>2014-03-29T16:42:54Z</time>
      </trkpt>
      <trkpt lat="37.676088100" lon="-1.721575800">
        <ele>581.000000</ele>
        <time>2014-03-29T16:42:55Z</time>
      </trkpt>
      <trkpt lat="37.676089600" lon="-1.721618900">
        <ele>581.000000</ele>
        <time>2014-03-29T16:42:56Z</time>
      </trkpt>
      <trkpt lat="37.676081500" lon="-1.721664800">
        <ele>581.000000</ele>
        <time>2014-03-29T16:42:57Z</time>
      </trkpt>
      <trkpt lat="37.676070500" lon="-1.721705900">
        <ele>582.000000</ele>
        <time>2014-03-29T16:42:58Z</time>
      </trkpt>
      <trkpt lat="37.676052700" lon="-1.721744500">
        <ele>582.000000</ele>
        <time>2014-03-29T16:42:59Z</time>
      </trkpt>
      <trkpt lat="37.676031500" lon="-1.721783200">
        <ele>582.000000</ele>
        <time>2014-03-29T16:43:00Z</time>
      </trkpt>
      <trkpt lat="37.676006400" lon="-1.721819900">
        <ele>583.000000</ele>
        <time>2014-03-29T16:43:01Z</time>
      </trkpt>
      <trkpt lat="37.675975500" lon="-1.721852900">
        <ele>583.000000</ele>
        <time>2014-03-29T16:43:02Z</time>
      </trkpt>
      <trkpt lat="37.675942900" lon="-1.721881600">
        <ele>583.000000</ele>
        <time>2014-03-29T16:43:03Z</time>
      </trkpt>
      <trkpt lat="37.675905400" lon="-1.721902200">
        <ele>583.000000</ele>
        <time>2014-03-29T16:43:04Z</time>
      </trkpt>
      <trkpt lat="37.675862400" lon="-1.721917500">
        <ele>584.000000</ele>
        <time>2014-03-29T16:43:05Z</time>
      </trkpt>
      <trkpt lat="37.675816000" lon="-1.721929400">
        <ele>584.000000</ele>
        <time>2014-03-29T16:43:06Z</time>
      </trkpt>
      <trkpt lat="37.675768900" lon="-1.721937100">
        <ele>584.000000</ele>
        <time>2014-03-29T16:43:07Z</time>
      </trkpt>
      <trkpt lat="37.675724500" lon="-1.721938200">
        <ele>585.000000</ele>
        <time>2014-03-29T16:43:08Z</time>
      </trkpt>
      <trkpt lat="37.675680200" lon="-1.721939300">
        <ele>585.000000</ele>
        <time>2014-03-29T16:43:09Z</time>
      </trkpt>
      <trkpt lat="37.675637800" lon="-1.721936100">
        <ele>585.000000</ele>
        <time>2014-03-29T16:43:10Z</time>
      </trkpt>
      <trkpt lat="37.675598300" lon="-1.721934100">
        <ele>586.000000</ele>
        <time>2014-03-29T16:43:11Z</time>
      </trkpt>
      <trkpt lat="37.675562600" lon="-1.721930300">
        <ele>586.000000</ele>
        <time>2014-03-29T16:43:12Z</time>
      </trkpt>
      <trkpt lat="37.675531600" lon="-1.721928000">
        <ele>586.000000</ele>
        <time>2014-03-29T16:43:13Z</time>
      </trkpt>
      <trkpt lat="37.675504900" lon="-1.721933500">
        <ele>587.000000</ele>
        <time>2014-03-29T16:43:14Z</time>
      </trkpt>
      <trkpt lat="37.675474900" lon="-1.721941300">
        <ele>587.000000</ele>
        <time>2014-03-29T16:43:15Z</time>
      </trkpt>
      <trkpt lat="37.675443600" lon="-1.721948600">
        <ele>587.000000</ele>
        <time>2014-03-29T16:43:16Z</time>
      </trkpt>
      <trkpt lat="37.675414600" lon="-1.721957500">
        <ele>588.000000</ele>
        <time>2014-03-29T16:43:17Z</time>
      </trkpt>
      <trkpt lat="37.675384200" lon="-1.721971600">
        <ele>588.000000</ele>
        <time>2014-03-29T16:43:18Z</time>
      </trkpt>
      <trkpt lat="37.675353000" lon="-1.721994500">
        <ele>589.000000</ele>
        <time>2014-03-29T16:43:19Z</time>
      </trkpt>
      <trkpt lat="37.675321400" lon="-1.722027300">
        <ele>589.000000</ele>
        <time>2014-03-29T16:43:20Z</time>
      </trkpt>
      <trkpt lat="37.675295500" lon="-1.722067300">
        <ele>590.000000</ele>
        <time>2014-03-29T16:43:21Z</time>
      </trkpt>
      <trkpt lat="37.675276000" lon="-1.722122500">
        <ele>590.000000</ele>
        <time>2014-03-29T16:43:22Z</time>
      </trkpt>
      <trkpt lat="37.675265300" lon="-1.722188900">
        <ele>591.000000</ele>
        <time>2014-03-29T16:43:23Z</time>
      </trkpt>
      <trkpt lat="37.675267500" lon="-1.722257400">
        <ele>591.000000</ele>
        <time>2014-03-29T16:43:24Z</time>
      </trkpt>
      <trkpt lat="37.675291400" lon="-1.722321200">
        <ele>591.000000</ele>
        <time>2014-03-29T16:43:25Z</time>
      </trkpt>
      <trkpt lat="37.675327600" lon="-1.722383400">
        <ele>592.000000</ele>
        <time>2014-03-29T16:43:26Z</time>
      </trkpt>
      <trkpt lat="37.675361900" lon="-1.722444900">
        <ele>592.000000</ele>
        <time>2014-03-29T16:43:27Z</time>
      </trkpt>
      <trkpt lat="37.675392100" lon="-1.722506600">
        <ele>592.000000</ele>
        <time>2014-03-29T16:43:28Z</time>
      </trkpt>
      <trkpt lat="37.675417800" lon="-1.722571500">
        <ele>593.000000</ele>
        <time>2014-03-29T16:43:29Z</time>
      </trkpt>
      <trkpt lat="37.675437900" lon="-1.722638000">
        <ele>593.000000</ele>
        <time>2014-03-29T16:43:30Z</time>
      </trkpt>
      <trkpt lat="37.675448100" lon="-1.722707000">
        <ele>593.000000</ele>
        <time>2014-03-29T16:43:31Z</time>
      </trkpt>
      <trkpt lat="37.675448700" lon="-1.722770900">
        <ele>593.000000</ele>
        <time>2014-03-29T16:43:32Z</time>
      </trkpt>
      <trkpt lat="37.675417100" lon="-1.722821000">
        <ele>594.000000</ele>
        <time>2014-03-29T16:43:33Z</time>
      </trkpt>
      <trkpt lat="37.675367100" lon="-1.722855100">
        <ele>594.000000</ele>
        <time>2014-03-29T16:43:34Z</time>
      </trkpt>
      <trkpt lat="37.675320100" lon="-1.722899100">
        <ele>594.000000</ele>
        <time>2014-03-29T16:43:35Z</time>
      </trkpt>
      <trkpt lat="37.675277400" lon="-1.722938100">
        <ele>594.000000</ele>
        <time>2014-03-29T16:43:36Z</time>
      </trkpt>
      <trkpt lat="37.675235600" lon="-1.722979600">
        <ele>595.000000</ele>
        <time>2014-03-29T16:43:37Z</time>
      </trkpt>
      <trkpt lat="37.675196200" lon="-1.723021300">
        <ele>595.000000</ele>
        <time>2014-03-29T16:43:38Z</time>
      </trkpt>
      <trkpt lat="37.675167000" lon="-1.723066600">
        <ele>595.000000</ele>
        <time>2014-03-29T16:43:39Z</time>
      </trkpt>
      <trkpt lat="37.675144900" lon="-1.723119200">
        <ele>595.000000</ele>
        <time>2014-03-29T16:43:40Z</time>
      </trkpt>
      <trkpt lat="37.675128900" lon="-1.723176700">
        <ele>595.000000</ele>
        <time>2014-03-29T16:43:41Z</time>
      </trkpt>
      <trkpt lat="37.675124200" lon="-1.723243300">
        <ele>596.000000</ele>
        <time>2014-03-29T16:43:42Z</time>
      </trkpt>
      <trkpt lat="37.675124700" lon="-1.723305300">
        <ele>596.000000</ele>
        <time>2014-03-29T16:43:43Z</time>
      </trkpt>
      <trkpt lat="37.675127200" lon="-1.723369100">
        <ele>596.000000</ele>
        <time>2014-03-29T16:43:44Z</time>
      </trkpt>
      <trkpt lat="37.675132000" lon="-1.723437800">
        <ele>597.000000</ele>
        <time>2014-03-29T16:43:45Z</time>
      </trkpt>
      <trkpt lat="37.675136900" lon="-1.723504000">
        <ele>597.000000</ele>
        <time>2014-03-29T16:43:46Z</time>
      </trkpt>
      <trkpt lat="37.675146600" lon="-1.723570800">
        <ele>597.000000</ele>
        <time>2014-03-29T16:43:47Z</time>
      </trkpt>
      <trkpt lat="37.675160200" lon="-1.723639200">
        <ele>598.000000</ele>
        <time>2014-03-29T16:43:48Z</time>
      </trkpt>
      <trkpt lat="37.675179900" lon="-1.723702000">
        <ele>598.000000</ele>
        <time>2014-03-29T16:43:49Z</time>
      </trkpt>
      <trkpt lat="37.675194900" lon="-1.723768500">
        <ele>598.000000</ele>
        <time>2014-03-29T16:43:50Z</time>
      </trkpt>
      <trkpt lat="37.675211200" lon="-1.723842200">
        <ele>598.000000</ele>
        <time>2014-03-29T16:43:51Z</time>
      </trkpt>
      <trkpt lat="37.675225700" lon="-1.723915400">
        <ele>598.000000</ele>
        <time>2014-03-29T16:43:52Z</time>
      </trkpt>
      <trkpt lat="37.675234100" lon="-1.723990300">
        <ele>599.000000</ele>
        <time>2014-03-29T16:43:53Z</time>
      </trkpt>
      <trkpt lat="37.675252500" lon="-1.724073400">
        <ele>599.000000</ele>
        <time>2014-03-29T16:43:54Z</time>
      </trkpt>
      <trkpt lat="37.675283900" lon="-1.724155800">
        <ele>599.000000</ele>
        <time>2014-03-29T16:43:55Z</time>
      </trkpt>
      <trkpt lat="37.675319200" lon="-1.724243300">
        <ele>599.000000</ele>
        <time>2014-03-29T16:43:56Z</time>
      </trkpt>
      <trkpt lat="37.675347200" lon="-1.724331600">
        <ele>599.000000</ele>
        <time>2014-03-29T16:43:57Z</time>
      </trkpt>
      <trkpt lat="37.675364000" lon="-1.724423600">
        <ele>600.000000</ele>
        <time>2014-03-29T16:43:58Z</time>
      </trkpt>
      <trkpt lat="37.675373500" lon="-1.724516200">
        <ele>600.000000</ele>
        <time>2014-03-29T16:43:59Z</time>
      </trkpt>
      <trkpt lat="37.675381600" lon="-1.724613800">
        <ele>600.000000</ele>
        <time>2014-03-29T16:44:00Z</time>
      </trkpt>
      <trkpt lat="37.675393600" lon="-1.724707800">
        <ele>600.000000</ele>
        <time>2014-03-29T16:44:01Z</time>
      </trkpt>
      <trkpt lat="37.675407700" lon="-1.724798500">
        <ele>600.000000</ele>
        <time>2014-03-29T16:44:02Z</time>
      </trkpt>
      <trkpt lat="37.675422900" lon="-1.724885600">
        <ele>600.000000</ele>
        <time>2014-03-29T16:44:03Z</time>
      </trkpt>
      <trkpt lat="37.675432000" lon="-1.724973700">
        <ele>600.000000</ele>
        <time>2014-03-29T16:44:04Z</time>
      </trkpt>
      <trkpt lat="37.675433100" lon="-1.725058600">
        <ele>601.000000</ele>
        <time>2014-03-29T16:44:05Z</time>
      </trkpt>
      <trkpt lat="37.675429200" lon="-1.725139700">
        <ele>601.000000</ele>
        <time>2014-03-29T16:44:06Z</time>
      </trkpt>
      <trkpt lat="37.675421300" lon="-1.725215800">
        <ele>601.000000</ele>
        <time>2014-03-29T16:44:07Z</time>
      </trkpt>
      <trkpt lat="37.675406800" lon="-1.725284600">
        <ele>601.000000</ele>
        <time>2014-03-29T16:44:08Z</time>
      </trkpt>
      <trkpt lat="37.675390800" lon="-1.725346200">
        <ele>601.000000</ele>
        <time>2014-03-29T16:44:09Z</time>
      </trkpt>
      <trkpt lat="37.675369800" lon="-1.725404300">
        <ele>602.000000</ele>
        <time>2014-03-29T16:44:10Z</time>
      </trkpt>
      <trkpt lat="37.675349600" lon="-1.725458000">
        <ele>602.000000</ele>
        <time>2014-03-29T16:44:11Z</time>
      </trkpt>
      <trkpt lat="37.675332700" lon="-1.725518100">
        <ele>602.000000</ele>
        <time>2014-03-29T16:44:12Z</time>
      </trkpt>
      <trkpt lat="37.675321400" lon="-1.725582500">
        <ele>602.000000</ele>
        <time>2014-03-29T16:44:13Z</time>
      </trkpt>
      <trkpt lat="37.675311600" lon="-1.725646200">
        <ele>603.000000</ele>
        <time>2014-03-29T16:44:14Z</time>
      </trkpt>
      <trkpt lat="37.675304700" lon="-1.725716300">
        <ele>603.000000</ele>
        <time>2014-03-29T16:44:15Z</time>
      </trkpt>
      <trkpt lat="37.675301000" lon="-1.725787200">
        <ele>604.000000</ele>
        <time>2014-03-29T16:44:16Z</time>
      </trkpt>
      <trkpt lat="37.675297600" lon="-1.725861000">
        <ele>604.000000</ele>
        <time>2014-03-29T16:44:17Z</time>
      </trkpt>
      <trkpt lat="37.675289000" lon="-1.725925600">
        <ele>604.000000</ele>
        <time>2014-03-29T16:44:18Z</time>
      </trkpt>
      <trkpt lat="37.675279900" lon="-1.725991300">
        <ele>605.000000</ele>
        <time>2014-03-29T16:44:19Z</time>
      </trkpt>
      <trkpt lat="37.675276100" lon="-1.726056800">
        <ele>605.000000</ele>
        <time>2014-03-29T16:44:20Z</time>
      </trkpt>
      <trkpt lat="37.675278300" lon="-1.726126100">
        <ele>605.000000</ele>
        <time>2014-03-29T16:44:21Z</time>
      </trkpt>
      <trkpt lat="37.675289700" lon="-1.726200400">
        <ele>606.000000</ele>
        <time>2014-03-29T16:44:22Z</time>
      </trkpt>
      <trkpt lat="37.675298200" lon="-1.726269000">
        <ele>606.000000</ele>
        <time>2014-03-29T16:44:23Z</time>
      </trkpt>
      <trkpt lat="37.675306700" lon="-1.726332300">
        <ele>607.000000</ele>
        <time>2014-03-29T16:44:24Z</time>
      </trkpt>
      <trkpt lat="37.675309300" lon="-1.726391200">
        <ele>607.000000</ele>
        <time>2014-03-29T16:44:25Z</time>
      </trkpt>
      <trkpt lat="37.675304200" lon="-1.726450200">
        <ele>607.000000</ele>
        <time>2014-03-29T16:44:26Z</time>
      </trkpt>
      <trkpt lat="37.675290000" lon="-1.726505500">
        <ele>607.000000</ele>
        <time>2014-03-29T16:44:27Z</time>
      </trkpt>
      <trkpt lat="37.675272900" lon="-1.726555900">
        <ele>608.000000</ele>
        <time>2014-03-29T16:44:28Z</time>
      </trkpt>
      <trkpt lat="37.675238700" lon="-1.726585300">
        <ele>608.000000</ele>
        <time>2014-03-29T16:44:29Z</time>
      </trkpt>
      <trkpt lat="37.675195400" lon="-1.726595100">
        <ele>608.000000</ele>
        <time>2014-03-29T16:44:30Z</time>
      </trkpt>
      <trkpt lat="37.675141600" lon="-1.726593000">
        <ele>609.000000</ele>
        <time>2014-03-29T16:44:31Z</time>
      </trkpt>
      <trkpt lat="37.675088800" lon="-1.726594500">
        <ele>609.000000</ele>
        <time>2014-03-29T16:44:32Z</time>
      </trkpt>
      <trkpt lat="37.675036500" lon="-1.726609100">
        <ele>609.000000</ele>
        <time>2014-03-29T16:44:33Z</time>
      </trkpt>
      <trkpt lat="37.674991900" lon="-1.726637300">
        <ele>610.000000</ele>
        <time>2014-03-29T16:44:34Z</time>
      </trkpt>
      <trkpt lat="37.674949300" lon="-1.726683500">
        <ele>610.000000</ele>
        <time>2014-03-29T16:44:35Z</time>
      </trkpt>
      <trkpt lat="37.674917100" lon="-1.726740500">
        <ele>610.000000</ele>
        <time>2014-03-29T16:44:36Z</time>
      </trkpt>
      <trkpt lat="37.674904400" lon="-1.726805600">
        <ele>611.000000</ele>
        <time>2014-03-29T16:44:37Z</time>
      </trkpt>
      <trkpt lat="37.674906000" lon="-1.726891400">
        <ele>611.000000</ele>
        <time>2014-03-29T16:44:38Z</time>
      </trkpt>
      <trkpt lat="37.674922500" lon="-1.726965000">
        <ele>612.000000</ele>
        <time>2014-03-29T16:44:39Z</time>
      </trkpt>
      <trkpt lat="37.674945500" lon="-1.727025000">
        <ele>612.000000</ele>
        <time>2014-03-29T16:44:40Z</time>
      </trkpt>
      <trkpt lat="37.674972000" lon="-1.727081300">
        <ele>612.000000</ele>
        <time>2014-03-29T16:44:41Z</time>
      </trkpt>
      <trkpt lat="37.674991600" lon="-1.727126600">
        <ele>613.000000</ele>
        <time>2014-03-29T16:44:42Z</time>
      </trkpt>
      <trkpt lat="37.675004200" lon="-1.727160600">
        <ele>613.000000</ele>
        <time>2014-03-29T16:44:43Z</time>
      </trkpt>
      <trkpt lat="37.675018000" lon="-1.727195800">
        <ele>614.000000</ele>
        <time>2014-03-29T16:44:44Z</time>
      </trkpt>
      <trkpt lat="37.675036000" lon="-1.727234200">
        <ele>614.000000</ele>
        <time>2014-03-29T16:44:45Z</time>
      </trkpt>
      <trkpt lat="37.675054100" lon="-1.727265300">
        <ele>615.000000</ele>
        <time>2014-03-29T16:44:46Z</time>
      </trkpt>
      <trkpt lat="37.675072600" lon="-1.727297100">
        <ele>615.000000</ele>
        <time>2014-03-29T16:44:47Z</time>
      </trkpt>
      <trkpt lat="37.675091400" lon="-1.727323200">
        <ele>615.000000</ele>
        <time>2014-03-29T16:44:48Z</time>
      </trkpt>
      <trkpt lat="37.675112200" lon="-1.727349500">
        <ele>616.000000</ele>
        <time>2014-03-29T16:44:49Z</time>
      </trkpt>
      <trkpt lat="37.675134800" lon="-1.727369800">
        <ele>616.000000</ele>
        <time>2014-03-29T16:44:50Z</time>
      </trkpt>
      <trkpt lat="37.675160600" lon="-1.727393500">
        <ele>617.000000</ele>
        <time>2014-03-29T16:44:51Z</time>
      </trkpt>
      <trkpt lat="37.675188700" lon="-1.727422300">
        <ele>617.000000</ele>
        <time>2014-03-29T16:44:52Z</time>
      </trkpt>
      <trkpt lat="37.675220700" lon="-1.727457000">
        <ele>618.000000</ele>
        <time>2014-03-29T16:44:53Z</time>
      </trkpt>
      <trkpt lat="37.675255100" lon="-1.727495000">
        <ele>618.000000</ele>
        <time>2014-03-29T16:44:54Z</time>
      </trkpt>
      <trkpt lat="37.675281300" lon="-1.727525900">
        <ele>619.000000</ele>
        <time>2014-03-29T16:44:55Z</time>
      </trkpt>
      <trkpt lat="37.675314500" lon="-1.727559700">
        <ele>619.000000</ele>
        <time>2014-03-29T16:44:56Z</time>
      </trkpt>
      <trkpt lat="37.675346800" lon="-1.727592300">
        <ele>620.000000</ele>
        <time>2014-03-29T16:44:57Z</time>
      </trkpt>
      <trkpt lat="37.675375400" lon="-1.727626700">
        <ele>620.000000</ele>
        <time>2014-03-29T16:44:58Z</time>
      </trkpt>
      <trkpt lat="37.675404300" lon="-1.727665000">
        <ele>621.000000</ele>
        <time>2014-03-29T16:44:59Z</time>
      </trkpt>
      <trkpt lat="37.675435300" lon="-1.727707800">
        <ele>621.000000</ele>
        <time>2014-03-29T16:45:00Z</time>
      </trkpt>
      <trkpt lat="37.675465800" lon="-1.727750400">
        <ele>622.000000</ele>
        <time>2014-03-29T16:45:01Z</time>
      </trkpt>
      <trkpt lat="37.675495500" lon="-1.727787500">
        <ele>622.000000</ele>
        <time>2014-03-29T16:45:02Z</time>
      </trkpt>
      <trkpt lat="37.675526100" lon="-1.727826600">
        <ele>623.000000</ele>
        <time>2014-03-29T16:45:03Z</time>
      </trkpt>
      <trkpt lat="37.675559800" lon="-1.727860700">
        <ele>623.000000</ele>
        <time>2014-03-29T16:45:04Z</time>
      </trkpt>
      <trkpt lat="37.675590100" lon="-1.727899700">
        <ele>623.000000</ele>
        <time>2014-03-29T16:45:05Z</time>
      </trkpt>
      <trkpt lat="37.675631800" lon="-1.727948000">
        <ele>624.000000</ele>
        <time>2014-03-29T16:45:06Z</time>
      </trkpt>
      <trkpt lat="37.675670500" lon="-1.727985900">
        <ele>624.000000</ele>
        <time>2014-03-29T16:45:07Z</time>
      </trkpt>
      <trkpt lat="37.675704800" lon="-1.728022400">
        <ele>625.000000</ele>
        <time>2014-03-29T16:45:08Z</time>
      </trkpt>
      <trkpt lat="37.675735000" lon="-1.728058900">
        <ele>625.000000</ele>
        <time>2014-03-29T16:45:09Z</time>
      </trkpt>
      <trkpt lat="37.675762500" lon="-1.728090200">
        <ele>625.000000</ele>
        <time>2014-03-29T16:45:10Z</time>
      </trkpt>
      <trkpt lat="37.675787800" lon="-1.728120200">
        <ele>626.000000</ele>
        <time>2014-03-29T16:45:11Z</time>
      </trkpt>
      <trkpt lat="37.675812000" lon="-1.728152400">
        <ele>626.000000</ele>
        <time>2014-03-29T16:45:12Z</time>
      </trkpt>
      <trkpt lat="37.675835500" lon="-1.728187700">
        <ele>627.000000</ele>
        <time>2014-03-29T16:45:13Z</time>
      </trkpt>
      <trkpt lat="37.675861000" lon="-1.728219200">
        <ele>627.000000</ele>
        <time>2014-03-29T16:45:14Z</time>
      </trkpt>
      <trkpt lat="37.675888000" lon="-1.728251700">
        <ele>627.000000</ele>
        <time>2014-03-29T16:45:15Z</time>
      </trkpt>
      <trkpt lat="37.675916400" lon="-1.728279600">
        <ele>628.000000</ele>
        <time>2014-03-29T16:45:16Z</time>
      </trkpt>
      <trkpt lat="37.675945300" lon="-1.728306700">
        <ele>628.000000</ele>
        <time>2014-03-29T16:45:17Z</time>
      </trkpt>
      <trkpt lat="37.675977100" lon="-1.728334200">
        <ele>628.000000</ele>
        <time>2014-03-29T16:45:18Z</time>
      </trkpt>
      <trkpt lat="37.676009600" lon="-1.728361200">
        <ele>629.000000</ele>
        <time>2014-03-29T16:45:19Z</time>
      </trkpt>
      <trkpt lat="37.676044800" lon="-1.728386500">
        <ele>629.000000</ele>
        <time>2014-03-29T16:45:20Z</time>
      </trkpt>
      <trkpt lat="37.676083900" lon="-1.728413500">
        <ele>629.000000</ele>
        <time>2014-03-29T16:45:21Z</time>
      </trkpt>
      <trkpt lat="37.676137500" lon="-1.728444500">
        <ele>630.000000</ele>
        <time>2014-03-29T16:45:22Z</time>
      </trkpt>
      <trkpt lat="37.676177500" lon="-1.728460900">
        <ele>630.000000</ele>
        <time>2014-03-29T16:45:23Z</time>
      </trkpt>
      <trkpt lat="37.676211300" lon="-1.728480700">
        <ele>630.000000</ele>
        <time>2014-03-29T16:45:24Z</time>
      </trkpt>
      <trkpt lat="37.676244500" lon="-1.728509800">
        <ele>631.000000</ele>
        <time>2014-03-29T16:45:25Z</time>
      </trkpt>
      <trkpt lat="37.676268100" lon="-1.728547500">
        <ele>631.000000</ele>
        <time>2014-03-29T16:45:26Z</time>
      </trkpt>
      <trkpt lat="37.676281100" lon="-1.728593800">
        <ele>631.000000</ele>
        <time>2014-03-29T16:45:27Z</time>
      </trkpt>
      <trkpt lat="37.676284700" lon="-1.728638300">
        <ele>632.000000</ele>
        <time>2014-03-29T16:45:28Z</time>
      </trkpt>
      <trkpt lat="37.676286000" lon="-1.728683800">
        <ele>632.000000</ele>
        <time>2014-03-29T16:45:29Z</time>
      </trkpt>
      <trkpt lat="37.676279300" lon="-1.728733400">
        <ele>632.000000</ele>
        <time>2014-03-29T16:45:30Z</time>
      </trkpt>
      <trkpt lat="37.676272300" lon="-1.728784600">
        <ele>633.000000</ele>
        <time>2014-03-29T16:45:31Z</time>
      </trkpt>
      <trkpt lat="37.676266400" lon="-1.728834800">
        <ele>633.000000</ele>
        <time>2014-03-29T16:45:32Z</time>
      </trkpt>
      <trkpt lat="37.676261700" lon="-1.728881000">
        <ele>633.000000</ele>
        <time>2014-03-29T16:45:33Z</time>
      </trkpt>
      <trkpt lat="37.676247700" lon="-1.728920400">
        <ele>634.000000</ele>
        <time>2014-03-29T16:45:34Z</time>
      </trkpt>
      <trkpt lat="37.676231200" lon="-1.728956300">
        <ele>634.000000</ele>
        <time>2014-03-29T16:45:35Z</time>
      </trkpt>
      <trkpt lat="37.676208100" lon="-1.728988400">
        <ele>635.000000</ele>
        <time>2014-03-29T16:45:36Z</time>
      </trkpt>
      <trkpt lat="37.676185400" lon="-1.729016200">
        <ele>635.000000</ele>
        <time>2014-03-29T16:45:37Z</time>
      </trkpt>
      <trkpt lat="37.676162500" lon="-1.729040900">
        <ele>635.000000</ele>
        <time>2014-03-29T16:45:38Z</time>
      </trkpt>
      <trkpt lat="37.676139200" lon="-1.729057100">
        <ele>636.000000</ele>
        <time>2014-03-29T16:45:39Z</time>
      </trkpt>
      <trkpt lat="37.676107000" lon="-1.729067700">
        <ele>636.000000</ele>
        <time>2014-03-29T16:45:40Z</time>
      </trkpt>
      <trkpt lat="37.676072300" lon="-1.729061700">
        <ele>636.000000</ele>
        <time>2014-03-29T16:45:41Z</time>
      </trkpt>
      <trkpt lat="37.676042000" lon="-1.729040500">
        <ele>637.000000</ele>
        <time>2014-03-29T16:45:42Z</time>
      </trkpt>
      <trkpt lat="37.676016500" lon="-1.729015100">
        <ele>637.000000</ele>
        <time>2014-03-29T16:45:43Z</time>
      </trkpt>
      <trkpt lat="37.675993600" lon="-1.728989000">
        <ele>637.000000</ele>
        <time>2014-03-29T16:45:44Z</time>
      </trkpt>
      <trkpt lat="37.675977100" lon="-1.728960100">
        <ele>638.000000</ele>
        <time>2014-03-29T16:45:45Z</time>
      </trkpt>
      <trkpt lat="37.675957600" lon="-1.728931500">
        <ele>638.000000</ele>
        <time>2014-03-29T16:45:46Z</time>
      </trkpt>
      <trkpt lat="37.675931600" lon="-1.728905100">
        <ele>638.000000</ele>
        <time>2014-03-29T16:45:47Z</time>
      </trkpt>
      <trkpt lat="37.675911900" lon="-1.728881200">
        <ele>639.000000</ele>
        <time>2014-03-29T16:45:48Z</time>
      </trkpt>
      <trkpt lat="37.675892300" lon="-1.728861600">
        <ele>639.000000</ele>
        <time>2014-03-29T16:45:49Z</time>
      </trkpt>
      <trkpt lat="37.675865100" lon="-1.728838000">
        <ele>640.000000</ele>
        <time>2014-03-29T16:45:50Z</time>
      </trkpt>
      <trkpt lat="37.675835700" lon="-1.728814700">
        <ele>640.000000</ele>
        <time>2014-03-29T16:45:51Z</time>
      </trkpt>
      <trkpt lat="37.675806000" lon="-1.728795800">
        <ele>641.000000</ele>
        <time>2014-03-29T16:45:52Z</time>
      </trkpt>
      <trkpt lat="37.675781200" lon="-1.728775000">
        <ele>641.000000</ele>
        <time>2014-03-29T16:45:53Z</time>
      </trkpt>
      <trkpt lat="37.675760700" lon="-1.728760500">
        <ele>641.000000</ele>
        <time>2014-03-29T16:45:54Z</time>
      </trkpt>
      <trkpt lat="37.675733600" lon="-1.728746600">
        <ele>642.000000</ele>
        <time>2014-03-29T16:45:55Z</time>
      </trkpt>
      <trkpt lat="37.675702500" lon="-1.728736300">
        <ele>642.000000</ele>
        <time>2014-03-29T16:45:56Z</time>
      </trkpt>
      <trkpt lat="37.675668100" lon="-1.728725900">
        <ele>643.000000</ele>
        <time>2014-03-29T16:45:57Z</time>
      </trkpt>
      <trkpt lat="37.675629900" lon="-1.728716300">
        <ele>643.000000</ele>
        <time>2014-03-29T16:45:58Z</time>
      </trkpt>
      <trkpt lat="37.675600400" lon="-1.728706000">
        <ele>643.000000</ele>
        <time>2014-03-29T16:45:59Z</time>
      </trkpt>
      <trkpt lat="37.675571800" lon="-1.728695300">
        <ele>644.000000</ele>
        <time>2014-03-29T16:46:00Z</time>
      </trkpt>
      <trkpt lat="37.675540500" lon="-1.728684100">
        <ele>644.000000</ele>
        <time>2014-03-29T16:46:01Z</time>
      </trkpt>
      <trkpt lat="37.675512000" lon="-1.728677400">
        <ele>644.000000</ele>
        <time>2014-03-29T16:46:02Z</time>
      </trkpt>
      <trkpt lat="37.675485900" lon="-1.728670300">
        <ele>645.000000</ele>
        <time>2014-03-29T16:46:03Z</time>
      </trkpt>
      <trkpt lat="37.675457200" lon="-1.728655900">
        <ele>645.000000</ele>
        <time>2014-03-29T16:46:04Z</time>
      </trkpt>
      <trkpt lat="37.675427800" lon="-1.728640700">
        <ele>645.000000</ele>
        <time>2014-03-29T16:46:05Z</time>
      </trkpt>
      <trkpt lat="37.675400800" lon="-1.728626600">
        <ele>646.000000</ele>
        <time>2014-03-29T16:46:06Z</time>
      </trkpt>
      <trkpt lat="37.675372800" lon="-1.728617000">
        <ele>646.000000</ele>
        <time>2014-03-29T16:46:07Z</time>
      </trkpt>
      <trkpt lat="37.675347100" lon="-1.728604300">
        <ele>646.000000</ele>
        <time>2014-03-29T16:46:08Z</time>
      </trkpt>
      <trkpt lat="37.675319800" lon="-1.728587900">
        <ele>647.000000</ele>
        <time>2014-03-29T16:46:09Z</time>
      </trkpt>
      <trkpt lat="37.675294200" lon="-1.728576900">
        <ele>647.000000</ele>
        <time>2014-03-29T16:46:10Z</time>
      </trkpt>
      <trkpt lat="37.675270800" lon="-1.728564400">
        <ele>648.000000</ele>
        <time>2014-03-29T16:46:11Z</time>
      </trkpt>
      <trkpt lat="37.675246000" lon="-1.728550600">
        <ele>648.000000</ele>
        <time>2014-03-29T16:46:12Z</time>
      </trkpt>
      <trkpt lat="37.675211900" lon="-1.728541400">
        <ele>648.000000</ele>
        <time>2014-03-29T16:46:13Z</time>
      </trkpt>
      <trkpt lat="37.675187600" lon="-1.728534900">
        <ele>649.000000</ele>
        <time>2014-03-29T16:46:14Z</time>
      </trkpt>
      <trkpt lat="37.675161600" lon="-1.728531100">
        <ele>649.000000</ele>
        <time>2014-03-29T16:46:15Z</time>
      </trkpt>
      <trkpt lat="37.675131200" lon="-1.728527500">
        <ele>650.000000</ele>
        <time>2014-03-29T16:46:16Z</time>
      </trkpt>
      <trkpt lat="37.675099200" lon="-1.728518900">
        <ele>650.000000</ele>
        <time>2014-03-29T16:46:17Z</time>
      </trkpt>
      <trkpt lat="37.675068400" lon="-1.728507600">
        <ele>651.000000</ele>
        <time>2014-03-29T16:46:18Z</time>
      </trkpt>
      <trkpt lat="37.675033100" lon="-1.728501900">
        <ele>651.000000</ele>
        <time>2014-03-29T16:46:19Z</time>
      </trkpt>
      <trkpt lat="37.674999700" lon="-1.728491600">
        <ele>651.000000</ele>
        <time>2014-03-29T16:46:20Z</time>
      </trkpt>
      <trkpt lat="37.674968200" lon="-1.728484000">
        <ele>652.000000</ele>
        <time>2014-03-29T16:46:21Z</time>
      </trkpt>
      <trkpt lat="37.674936700" lon="-1.728482600">
        <ele>652.000000</ele>
        <time>2014-03-29T16:46:22Z</time>
      </trkpt>
      <trkpt lat="37.674908400" lon="-1.728471900">
        <ele>653.000000</ele>
        <time>2014-03-29T16:46:23Z</time>
      </trkpt>
      <trkpt lat="37.674879100" lon="-1.728464100">
        <ele>653.000000</ele>
        <time>2014-03-29T16:46:24Z</time>
      </trkpt>
      <trkpt lat="37.674847000" lon="-1.728459400">
        <ele>654.000000</ele>
        <time>2014-03-29T16:46:25Z</time>
      </trkpt>
      <trkpt lat="37.674813600" lon="-1.728455800">
        <ele>654.000000</ele>
        <time>2014-03-29T16:46:26Z</time>
      </trkpt>
      <trkpt lat="37.674785000" lon="-1.728453300">
        <ele>654.000000</ele>
        <time>2014-03-29T16:46:27Z</time>
      </trkpt>
      <trkpt lat="37.674758000" lon="-1.728442700">
        <ele>654.000000</ele>
        <time>2014-03-29T16:46:28Z</time>
      </trkpt>
      <trkpt lat="37.674730400" lon="-1.728430800">
        <ele>655.000000</ele>
        <time>2014-03-29T16:46:29Z</time>
      </trkpt>
      <trkpt lat="37.674706000" lon="-1.728428700">
        <ele>655.000000</ele>
        <time>2014-03-29T16:46:30Z</time>
      </trkpt>
      <trkpt lat="37.674685200" lon="-1.728419100">
        <ele>656.000000</ele>
        <time>2014-03-29T16:46:31Z</time>
      </trkpt>
      <trkpt lat="37.674663300" lon="-1.728406200">
        <ele>656.000000</ele>
        <time>2014-03-29T16:46:32Z</time>
      </trkpt>
      <trkpt lat="37.674632400" lon="-1.728398600">
        <ele>656.000000</ele>
        <time>2014-03-29T16:46:33Z</time>
      </trkpt>
      <trkpt lat="37.674602400" lon="-1.728390300">
        <ele>657.000000</ele>
        <time>2014-03-29T16:46:34Z</time>
      </trkpt>
      <trkpt lat="37.674567500" lon="-1.728386100">
        <ele>657.000000</ele>
        <time>2014-03-29T16:46:35Z</time>
      </trkpt>
      <trkpt lat="37.674517400" lon="-1.728391600">
        <ele>658.000000</ele>
        <time>2014-03-29T16:46:36Z</time>
      </trkpt>
      <trkpt lat="37.674488000" lon="-1.728373800">
        <ele>658.000000</ele>
        <time>2014-03-29T16:46:37Z</time>
      </trkpt>
      <trkpt lat="37.674462700" lon="-1.728341200">
        <ele>658.000000</ele>
        <time>2014-03-29T16:46:38Z</time>
      </trkpt>
      <trkpt lat="37.674439600" lon="-1.728317500">
        <ele>659.000000</ele>
        <time>2014-03-29T16:46:39Z</time>
      </trkpt>
      <trkpt lat="37.674409600" lon="-1.728288000">
        <ele>659.000000</ele>
        <time>2014-03-29T16:46:40Z</time>
      </trkpt>
      <trkpt lat="37.674378400" lon="-1.728262200">
        <ele>659.000000</ele>
        <time>2014-03-29T16:46:41Z</time>
      </trkpt>
      <trkpt lat="37.674340900" lon="-1.728228400">
        <ele>660.000000</ele>
        <time>2014-03-29T16:46:42Z</time>
      </trkpt>
      <trkpt lat="37.674306900" lon="-1.728189800">
        <ele>660.000000</ele>
        <time>2014-03-29T16:46:43Z</time>
      </trkpt>
      <trkpt lat="37.674274900" lon="-1.728152700">
        <ele>661.000000</ele>
        <time>2014-03-29T16:46:44Z</time>
      </trkpt>
      <trkpt lat="37.674235600" lon="-1.728121200">
        <ele>661.000000</ele>
        <time>2014-03-29T16:46:45Z</time>
      </trkpt>
      <trkpt lat="37.674193900" lon="-1.728091900">
        <ele>661.000000</ele>
        <time>2014-03-29T16:46:46Z</time>
      </trkpt>
      <trkpt lat="37.674150900" lon="-1.728069400">
        <ele>662.000000</ele>
        <time>2014-03-29T16:46:47Z</time>
      </trkpt>
      <trkpt lat="37.674105800" lon="-1.728053900">
        <ele>662.000000</ele>
        <time>2014-03-29T16:46:48Z</time>
      </trkpt>
      <trkpt lat="37.674063300" lon="-1.728049200">
        <ele>662.000000</ele>
        <time>2014-03-29T16:46:49Z</time>
      </trkpt>
      <trkpt lat="37.674022100" lon="-1.728053200">
        <ele>663.000000</ele>
        <time>2014-03-29T16:46:50Z</time>
      </trkpt>
      <trkpt lat="37.673983300" lon="-1.728057200">
        <ele>663.000000</ele>
        <time>2014-03-29T16:46:51Z</time>
      </trkpt>
      <trkpt lat="37.673945800" lon="-1.728062800">
        <ele>663.000000</ele>
        <time>2014-03-29T16:46:52Z</time>
      </trkpt>
      <trkpt lat="37.673910900" lon="-1.728063800">
        <ele>663.000000</ele>
        <time>2014-03-29T16:46:53Z</time>
      </trkpt>
      <trkpt lat="37.673877100" lon="-1.728067800">
        <ele>663.000000</ele>
        <time>2014-03-29T16:46:54Z</time>
      </trkpt>
      <trkpt lat="37.673845300" lon="-1.728071100">
        <ele>664.000000</ele>
        <time>2014-03-29T16:46:55Z</time>
      </trkpt>
      <trkpt lat="37.673812200" lon="-1.728063500">
        <ele>664.000000</ele>
        <time>2014-03-29T16:46:56Z</time>
      </trkpt>
      <trkpt lat="37.673783700" lon="-1.728033400">
        <ele>664.000000</ele>
        <time>2014-03-29T16:46:57Z</time>
      </trkpt>
      <trkpt lat="37.673764800" lon="-1.727991000">
        <ele>665.000000</ele>
        <time>2014-03-29T16:46:58Z</time>
      </trkpt>
      <trkpt lat="37.673760800" lon="-1.727939100">
        <ele>665.000000</ele>
        <time>2014-03-29T16:46:59Z</time>
      </trkpt>
      <trkpt lat="37.673762300" lon="-1.727892500">
        <ele>665.000000</ele>
        <time>2014-03-29T16:47:00Z</time>
      </trkpt>
      <trkpt lat="37.673763900" lon="-1.727850600">
        <ele>665.000000</ele>
        <time>2014-03-29T16:47:01Z</time>
      </trkpt>
      <trkpt lat="37.673763600" lon="-1.727811300">
        <ele>666.000000</ele>
        <time>2014-03-29T16:47:02Z</time>
      </trkpt>
      <trkpt lat="37.673762700" lon="-1.727766900">
        <ele>666.000000</ele>
        <time>2014-03-29T16:47:03Z</time>
      </trkpt>
      <trkpt lat="37.673769200" lon="-1.727719200">
        <ele>666.000000</ele>
        <time>2014-03-29T16:47:04Z</time>
      </trkpt>
      <trkpt lat="37.673772300" lon="-1.727667600">
        <ele>667.000000</ele>
        <time>2014-03-29T16:47:05Z</time>
      </trkpt>
      <trkpt lat="37.673761500" lon="-1.727619100">
        <ele>667.000000</ele>
        <time>2014-03-29T16:47:06Z</time>
      </trkpt>
      <trkpt lat="37.673730000" lon="-1.727573300">
        <ele>667.000000</ele>
        <time>2014-03-29T16:47:07Z</time>
      </trkpt>
      <trkpt lat="37.673700200" lon="-1.727551700">
        <ele>668.000000</ele>
        <time>2014-03-29T16:47:08Z</time>
      </trkpt>
      <trkpt lat="37.673675100" lon="-1.727536400">
        <ele>668.000000</ele>
        <time>2014-03-29T16:47:09Z</time>
      </trkpt>
      <trkpt lat="37.673642400" lon="-1.727511100">
        <ele>668.000000</ele>
        <time>2014-03-29T16:47:10Z</time>
      </trkpt>
      <trkpt lat="37.673612000" lon="-1.727490200">
        <ele>669.000000</ele>
        <time>2014-03-29T16:47:11Z</time>
      </trkpt>
      <trkpt lat="37.673579300" lon="-1.727469100">
        <ele>669.000000</ele>
        <time>2014-03-29T16:47:12Z</time>
      </trkpt>
      <trkpt lat="37.673549000" lon="-1.727450000">
        <ele>669.000000</ele>
        <time>2014-03-29T16:47:13Z</time>
      </trkpt>
      <trkpt lat="37.673519500" lon="-1.727431200">
        <ele>670.000000</ele>
        <time>2014-03-29T16:47:14Z</time>
      </trkpt>
      <trkpt lat="37.673483400" lon="-1.727409200">
        <ele>670.000000</ele>
        <time>2014-03-29T16:47:15Z</time>
      </trkpt>
      <trkpt lat="37.673451700" lon="-1.727389800">
        <ele>670.000000</ele>
        <time>2014-03-29T16:47:16Z</time>
      </trkpt>
      <trkpt lat="37.673418600" lon="-1.727369000">
        <ele>671.000000</ele>
        <time>2014-03-29T16:47:17Z</time>
      </trkpt>
      <trkpt lat="37.673389000" lon="-1.727347100">
        <ele>671.000000</ele>
        <time>2014-03-29T16:47:18Z</time>
      </trkpt>
      <trkpt lat="37.673360700" lon="-1.727319700">
        <ele>672.000000</ele>
        <time>2014-03-29T16:47:19Z</time>
      </trkpt>
      <trkpt lat="37.673329800" lon="-1.727287400">
        <ele>672.000000</ele>
        <time>2014-03-29T16:47:20Z</time>
      </trkpt>
      <trkpt lat="37.673300300" lon="-1.727263100">
        <ele>673.000000</ele>
        <time>2014-03-29T16:47:21Z</time>
      </trkpt>
      <trkpt lat="37.673273200" lon="-1.727233700">
        <ele>673.000000</ele>
        <time>2014-03-29T16:47:22Z</time>
      </trkpt>
      <trkpt lat="37.673246500" lon="-1.727197500">
        <ele>673.000000</ele>
        <time>2014-03-29T16:47:23Z</time>
      </trkpt>
      <trkpt lat="37.673225000" lon="-1.727156800">
        <ele>674.000000</ele>
        <time>2014-03-29T16:47:24Z</time>
      </trkpt>
      <trkpt lat="37.673208900" lon="-1.727111600">
        <ele>674.000000</ele>
        <time>2014-03-29T16:47:25Z</time>
      </trkpt>
      <trkpt lat="37.673193700" lon="-1.727070200">
        <ele>674.000000</ele>
        <time>2014-03-29T16:47:26Z</time>
      </trkpt>
      <trkpt lat="37.673179600" lon="-1.727026000">
        <ele>675.000000</ele>
        <time>2014-03-29T16:47:27Z</time>
      </trkpt>
      <trkpt lat="37.673164100" lon="-1.726979900">
        <ele>675.000000</ele>
        <time>2014-03-29T16:47:28Z</time>
      </trkpt>
      <trkpt lat="37.673152000" lon="-1.726930100">
        <ele>676.000000</ele>
        <time>2014-03-29T16:47:29Z</time>
      </trkpt>
      <trkpt lat="37.673135300" lon="-1.726884700">
        <ele>676.000000</ele>
        <time>2014-03-29T16:47:30Z</time>
      </trkpt>
      <trkpt lat="37.673116800" lon="-1.726841800">
        <ele>676.000000</ele>
        <time>2014-03-29T16:47:31Z</time>
      </trkpt>
      <trkpt lat="37.673097000" lon="-1.726798300">
        <ele>677.000000</ele>
        <time>2014-03-29T16:47:32Z</time>
      </trkpt>
      <trkpt lat="37.673076400" lon="-1.726758700">
        <ele>677.000000</ele>
        <time>2014-03-29T16:47:33Z</time>
      </trkpt>
      <trkpt lat="37.673060400" lon="-1.726721600">
        <ele>678.000000</ele>
        <time>2014-03-29T16:47:34Z</time>
      </trkpt>
      <trkpt lat="37.673040400" lon="-1.726685800">
        <ele>678.000000</ele>
        <time>2014-03-29T16:47:35Z</time>
      </trkpt>
      <trkpt lat="37.673017200" lon="-1.726653800">
        <ele>678.000000</ele>
        <time>2014-03-29T16:47:36Z</time>
      </trkpt>
      <trkpt lat="37.672995100" lon="-1.726616900">
        <ele>679.000000</ele>
        <time>2014-03-29T16:47:37Z</time>
      </trkpt>
      <trkpt lat="37.672970400" lon="-1.726573200">
        <ele>679.000000</ele>
        <time>2014-03-29T16:47:38Z</time>
      </trkpt>
      <trkpt lat="37.672947400" lon="-1.726529500">
        <ele>679.000000</ele>
        <time>2014-03-29T16:47:39Z</time>
      </trkpt>
      <trkpt lat="37.672925200" lon="-1.726484400">
        <ele>680.000000</ele>
        <time>2014-03-29T16:47:40Z</time>
      </trkpt>
      <trkpt lat="37.672907500" lon="-1.726438400">
        <ele>680.000000</ele>
        <time>2014-03-29T16:47:41Z</time>
      </trkpt>
      <trkpt lat="37.672889500" lon="-1.726392700">
        <ele>680.000000</ele>
        <time>2014-03-29T16:47:42Z</time>
      </trkpt>
      <trkpt lat="37.672873900" lon="-1.726347400">
        <ele>681.000000</ele>
        <time>2014-03-29T16:47:43Z</time>
      </trkpt>
      <trkpt lat="37.672857700" lon="-1.726301000">
        <ele>681.000000</ele>
        <time>2014-03-29T16:47:44Z</time>
      </trkpt>
      <trkpt lat="37.672841000" lon="-1.726262600">
        <ele>681.000000</ele>
        <time>2014-03-29T16:47:45Z</time>
      </trkpt>
      <trkpt lat="37.672822700" lon="-1.726222300">
        <ele>682.000000</ele>
        <time>2014-03-29T16:47:46Z</time>
      </trkpt>
      <trkpt lat="37.672804000" lon="-1.726180900">
        <ele>682.000000</ele>
        <time>2014-03-29T16:47:47Z</time>
      </trkpt>
      <trkpt lat="37.672786400" lon="-1.726143600">
        <ele>682.000000</ele>
        <time>2014-03-29T16:47:48Z</time>
      </trkpt>
      <trkpt lat="37.672766200" lon="-1.726113200">
        <ele>683.000000</ele>
        <time>2014-03-29T16:47:49Z</time>
      </trkpt>
      <trkpt lat="37.672743700" lon="-1.726086100">
        <ele>683.000000</ele>
        <time>2014-03-29T16:47:50Z</time>
      </trkpt>
      <trkpt lat="37.672723500" lon="-1.726053800">
        <ele>683.000000</ele>
        <time>2014-03-29T16:47:51Z</time>
      </trkpt>
      <trkpt lat="37.672705200" lon="-1.726020500">
        <ele>683.000000</ele>
        <time>2014-03-29T16:47:52Z</time>
      </trkpt>
      <trkpt lat="37.672688100" lon="-1.725983200">
        <ele>684.000000</ele>
        <time>2014-03-29T16:47:53Z</time>
      </trkpt>
      <trkpt lat="37.672671200" lon="-1.725947100">
        <ele>684.000000</ele>
        <time>2014-03-29T16:47:54Z</time>
      </trkpt>
      <trkpt lat="37.672653500" lon="-1.725910100">
        <ele>684.000000</ele>
        <time>2014-03-29T16:47:55Z</time>
      </trkpt>
      <trkpt lat="37.672636700" lon="-1.725882200">
        <ele>685.000000</ele>
        <time>2014-03-29T16:47:56Z</time>
      </trkpt>
      <trkpt lat="37.672618200" lon="-1.725857500">
        <ele>685.000000</ele>
        <time>2014-03-29T16:47:57Z</time>
      </trkpt>
      <trkpt lat="37.672599700" lon="-1.725829700">
        <ele>686.000000</ele>
        <time>2014-03-29T16:47:58Z</time>
      </trkpt>
      <trkpt lat="37.672580100" lon="-1.725798100">
        <ele>686.000000</ele>
        <time>2014-03-29T16:47:59Z</time>
      </trkpt>
      <trkpt lat="37.672557700" lon="-1.725773800">
        <ele>687.000000</ele>
        <time>2014-03-29T16:48:00Z</time>
      </trkpt>
      <trkpt lat="37.672533600" lon="-1.725750100">
        <ele>687.000000</ele>
        <time>2014-03-29T16:48:01Z</time>
      </trkpt>
      <trkpt lat="37.672507700" lon="-1.725729000">
        <ele>688.000000</ele>
        <time>2014-03-29T16:48:02Z</time>
      </trkpt>
      <trkpt lat="37.672487100" lon="-1.725704800">
        <ele>688.000000</ele>
        <time>2014-03-29T16:48:03Z</time>
      </trkpt>
      <trkpt lat="37.672465400" lon="-1.725678800">
        <ele>689.000000</ele>
        <time>2014-03-29T16:48:04Z</time>
      </trkpt>
      <trkpt lat="37.672445100" lon="-1.725655100">
        <ele>689.000000</ele>
        <time>2014-03-29T16:48:05Z</time>
      </trkpt>
      <trkpt lat="37.672422900" lon="-1.725627700">
        <ele>690.000000</ele>
        <time>2014-03-29T16:48:06Z</time>
      </trkpt>
      <trkpt lat="37.672397700" lon="-1.725598700">
        <ele>690.000000</ele>
        <time>2014-03-29T16:48:07Z</time>
      </trkpt>
      <trkpt lat="37.672374200" lon="-1.725571200">
        <ele>691.000000</ele>
        <time>2014-03-29T16:48:08Z</time>
      </trkpt>
      <trkpt lat="37.672344300" lon="-1.725542500">
        <ele>691.000000</ele>
        <time>2014-03-29T16:48:09Z</time>
      </trkpt>
      <trkpt lat="37.672308900" lon="-1.725518700">
        <ele>692.000000</ele>
        <time>2014-03-29T16:48:10Z</time>
      </trkpt>
      <trkpt lat="37.672276400" lon="-1.725503600">
        <ele>692.000000</ele>
        <time>2014-03-29T16:48:11Z</time>
      </trkpt>
      <trkpt lat="37.672240600" lon="-1.725491800">
        <ele>693.000000</ele>
        <time>2014-03-29T16:48:12Z</time>
      </trkpt>
      <trkpt lat="37.672202300" lon="-1.725485400">
        <ele>693.000000</ele>
        <time>2014-03-29T16:48:13Z</time>
      </trkpt>
      <trkpt lat="37.672162300" lon="-1.725484300">
        <ele>694.000000</ele>
        <time>2014-03-29T16:48:14Z</time>
      </trkpt>
      <trkpt lat="37.672130000" lon="-1.725485500">
        <ele>694.000000</ele>
        <time>2014-03-29T16:48:15Z</time>
      </trkpt>
      <trkpt lat="37.672104000" lon="-1.725493600">
        <ele>695.000000</ele>
        <time>2014-03-29T16:48:16Z</time>
      </trkpt>
      <trkpt lat="37.672076400" lon="-1.725502200">
        <ele>695.000000</ele>
        <time>2014-03-29T16:48:17Z</time>
      </trkpt>
      <trkpt lat="37.672049800" lon="-1.725518900">
        <ele>695.000000</ele>
        <time>2014-03-29T16:48:18Z</time>
      </trkpt>
      <trkpt lat="37.672025400" lon="-1.725536100">
        <ele>696.000000</ele>
        <time>2014-03-29T16:48:19Z</time>
      </trkpt>
      <trkpt lat="37.672005400" lon="-1.725554900">
        <ele>696.000000</ele>
        <time>2014-03-29T16:48:20Z</time>
      </trkpt>
      <trkpt lat="37.671989700" lon="-1.725575400">
        <ele>697.000000</ele>
        <time>2014-03-29T16:48:21Z</time>
      </trkpt>
      <trkpt lat="37.671972600" lon="-1.725592800">
        <ele>697.000000</ele>
        <time>2014-03-29T16:48:22Z</time>
      </trkpt>
      <trkpt lat="37.671955700" lon="-1.725609600">
        <ele>698.000000</ele>
        <time>2014-03-29T16:48:23Z</time>
      </trkpt>
      <trkpt lat="37.671938000" lon="-1.725630000">
        <ele>698.000000</ele>
        <time>2014-03-29T16:48:24Z</time>
      </trkpt>
      <trkpt lat="37.671923700" lon="-1.725658500">
        <ele>699.000000</ele>
        <time>2014-03-29T16:48:25Z</time>
      </trkpt>
      <trkpt lat="37.671912400" lon="-1.725698700">
        <ele>699.000000</ele>
        <time>2014-03-29T16:48:26Z</time>
      </trkpt>
      <trkpt lat="37.671905100" lon="-1.725737500">
        <ele>700.000000</ele>
        <time>2014-03-29T16:48:27Z</time>
      </trkpt>
      <trkpt lat="37.671893600" lon="-1.725781800">
        <ele>700.000000</ele>
        <time>2014-03-29T16:48:28Z</time>
      </trkpt>
      <trkpt lat="37.671876500" lon="-1.725828200">
        <ele>701.000000</ele>
        <time>2014-03-29T16:48:29Z</time>
      </trkpt>
      <trkpt lat="37.671862500" lon="-1.725869500">
        <ele>701.000000</ele>
        <time>2014-03-29T16:48:30Z</time>
      </trkpt>
      <trkpt lat="37.671850600" lon="-1.725910400">
        <ele>702.000000</ele>
        <time>2014-03-29T16:48:31Z</time>
      </trkpt>
      <trkpt lat="37.671842000" lon="-1.725951100">
        <ele>702.000000</ele>
        <time>2014-03-29T16:48:32Z</time>
      </trkpt>
      <trkpt lat="37.671830900" lon="-1.725991100">
        <ele>703.000000</ele>
        <time>2014-03-29T16:48:33Z</time>
      </trkpt>
      <trkpt lat="37.671817600" lon="-1.726032300">
        <ele>703.000000</ele>
        <time>2014-03-29T16:48:34Z</time>
      </trkpt>
      <trkpt lat="37.671804000" lon="-1.726072500">
        <ele>704.000000</ele>
        <time>2014-03-29T16:48:35Z</time>
      </trkpt>
      <trkpt lat="37.671787400" lon="-1.726114900">
        <ele>704.000000</ele>
        <time>2014-03-29T16:48:36Z</time>
      </trkpt>
      <trkpt lat="37.671769000" lon="-1.726155500">
        <ele>705.000000</ele>
        <time>2014-03-29T16:48:37Z</time>
      </trkpt>
      <trkpt lat="37.671761200" lon="-1.726193500">
        <ele>705.000000</ele>
        <time>2014-03-29T16:48:38Z</time>
      </trkpt>
      <trkpt lat="37.671756200" lon="-1.726229200">
        <ele>706.000000</ele>
        <time>2014-03-29T16:48:39Z</time>
      </trkpt>
      <trkpt lat="37.671752100" lon="-1.726268800">
        <ele>706.000000</ele>
        <time>2014-03-29T16:48:40Z</time>
      </trkpt>
      <trkpt lat="37.671752400" lon="-1.726310800">
        <ele>707.000000</ele>
        <time>2014-03-29T16:48:41Z</time>
      </trkpt>
      <trkpt lat="37.671752900" lon="-1.726350100">
        <ele>707.000000</ele>
        <time>2014-03-29T16:48:42Z</time>
      </trkpt>
      <trkpt lat="37.671762800" lon="-1.726395700">
        <ele>708.000000</ele>
        <time>2014-03-29T16:48:43Z</time>
      </trkpt>
      <trkpt lat="37.671765000" lon="-1.726438600">
        <ele>708.000000</ele>
        <time>2014-03-29T16:48:44Z</time>
      </trkpt>
      <trkpt lat="37.671764900" lon="-1.726477900">
        <ele>709.000000</ele>
        <time>2014-03-29T16:48:45Z</time>
      </trkpt>
      <trkpt lat="37.671765500" lon="-1.726513700">
        <ele>709.000000</ele>
        <time>2014-03-29T16:48:46Z</time>
      </trkpt>
      <trkpt lat="37.671763400" lon="-1.726548400">
        <ele>709.000000</ele>
        <time>2014-03-29T16:48:47Z</time>
      </trkpt>
      <trkpt lat="37.671762600" lon="-1.726581500">
        <ele>710.000000</ele>
        <time>2014-03-29T16:48:48Z</time>
      </trkpt>
      <trkpt lat="37.671759300" lon="-1.726616600">
        <ele>710.000000</ele>
        <time>2014-03-29T16:48:49Z</time>
      </trkpt>
      <trkpt lat="37.671750200" lon="-1.726661700">
        <ele>711.000000</ele>
        <time>2014-03-29T16:48:50Z</time>
      </trkpt>
      <trkpt lat="37.671745700" lon="-1.726704600">
        <ele>711.000000</ele>
        <time>2014-03-29T16:48:51Z</time>
      </trkpt>
      <trkpt lat="37.671736600" lon="-1.726749300">
        <ele>711.000000</ele>
        <time>2014-03-29T16:48:52Z</time>
      </trkpt>
      <trkpt lat="37.671727700" lon="-1.726792200">
        <ele>712.000000</ele>
        <time>2014-03-29T16:48:53Z</time>
      </trkpt>
      <trkpt lat="37.671719800" lon="-1.726835100">
        <ele>712.000000</ele>
        <time>2014-03-29T16:48:54Z</time>
      </trkpt>
      <trkpt lat="37.671718700" lon="-1.726872900">
        <ele>713.000000</ele>
        <time>2014-03-29T16:48:55Z</time>
      </trkpt>
      <trkpt lat="37.671722000" lon="-1.726913300">
        <ele>713.000000</ele>
        <time>2014-03-29T16:48:56Z</time>
      </trkpt>
      <trkpt lat="37.671725200" lon="-1.726966100">
        <ele>713.000000</ele>
        <time>2014-03-29T16:48:57Z</time>
      </trkpt>
      <trkpt lat="37.671732500" lon="-1.727011100">
        <ele>714.000000</ele>
        <time>2014-03-29T16:48:58Z</time>
      </trkpt>
      <trkpt lat="37.671744300" lon="-1.727053900">
        <ele>714.000000</ele>
        <time>2014-03-29T16:48:59Z</time>
      </trkpt>
      <trkpt lat="37.671757700" lon="-1.727096200">
        <ele>714.000000</ele>
        <time>2014-03-29T16:49:00Z</time>
      </trkpt>
      <trkpt lat="37.671773200" lon="-1.727141400">
        <ele>715.000000</ele>
        <time>2014-03-29T16:49:01Z</time>
      </trkpt>
      <trkpt lat="37.671790100" lon="-1.727176700">
        <ele>715.000000</ele>
        <time>2014-03-29T16:49:02Z</time>
      </trkpt>
      <trkpt lat="37.671808000" lon="-1.727213200">
        <ele>716.000000</ele>
        <time>2014-03-29T16:49:03Z</time>
      </trkpt>
      <trkpt lat="37.671821500" lon="-1.727251800">
        <ele>716.000000</ele>
        <time>2014-03-29T16:49:04Z</time>
      </trkpt>
      <trkpt lat="37.671825100" lon="-1.727292200">
        <ele>716.000000</ele>
        <time>2014-03-29T16:49:05Z</time>
      </trkpt>
      <trkpt lat="37.671820500" lon="-1.727334700">
        <ele>717.000000</ele>
        <time>2014-03-29T16:49:06Z</time>
      </trkpt>
      <trkpt lat="37.671804600" lon="-1.727385900">
        <ele>717.000000</ele>
        <time>2014-03-29T16:49:07Z</time>
      </trkpt>
      <trkpt lat="37.671792100" lon="-1.727426700">
        <ele>718.000000</ele>
        <time>2014-03-29T16:49:08Z</time>
      </trkpt>
      <trkpt lat="37.671783600" lon="-1.727467200">
        <ele>718.000000</ele>
        <time>2014-03-29T16:49:09Z</time>
      </trkpt>
      <trkpt lat="37.671773800" lon="-1.727505900">
        <ele>718.000000</ele>
        <time>2014-03-29T16:49:10Z</time>
      </trkpt>
      <trkpt lat="37.671764300" lon="-1.727536000">
        <ele>719.000000</ele>
        <time>2014-03-29T16:49:11Z</time>
      </trkpt>
      <trkpt lat="37.671755000" lon="-1.727562000">
        <ele>719.000000</ele>
        <time>2014-03-29T16:49:12Z</time>
      </trkpt>
      <trkpt lat="37.671742600" lon="-1.727586800">
        <ele>719.000000</ele>
        <time>2014-03-29T16:49:13Z</time>
      </trkpt>
      <trkpt lat="37.671725900" lon="-1.727607300">
        <ele>720.000000</ele>
        <time>2014-03-29T16:49:14Z</time>
      </trkpt>
      <trkpt lat="37.671706500" lon="-1.727631800">
        <ele>720.000000</ele>
        <time>2014-03-29T16:49:15Z</time>
      </trkpt>
      <trkpt lat="37.671686100" lon="-1.727654800">
        <ele>720.000000</ele>
        <time>2014-03-29T16:49:16Z</time>
      </trkpt>
      <trkpt lat="37.671663200" lon="-1.727680000">
        <ele>721.000000</ele>
        <time>2014-03-29T16:49:17Z</time>
      </trkpt>
      <trkpt lat="37.671645000" lon="-1.727700400">
        <ele>721.000000</ele>
        <time>2014-03-29T16:49:18Z</time>
      </trkpt>
      <trkpt lat="37.671631400" lon="-1.727725600">
        <ele>721.000000</ele>
        <time>2014-03-29T16:49:19Z</time>
      </trkpt>
      <trkpt lat="37.671616900" lon="-1.727744600">
        <ele>721.000000</ele>
        <time>2014-03-29T16:49:20Z</time>
      </trkpt>
      <trkpt lat="37.671611400" lon="-1.727771700">
        <ele>722.000000</ele>
        <time>2014-03-29T16:49:21Z</time>
      </trkpt>
      <trkpt lat="37.671604800" lon="-1.727795400">
        <ele>722.000000</ele>
        <time>2014-03-29T16:49:22Z</time>
      </trkpt>
      <trkpt lat="37.671592600" lon="-1.727810900">
        <ele>722.000000</ele>
        <time>2014-03-29T16:49:23Z</time>
      </trkpt>
      <trkpt lat="37.671587400" lon="-1.727832100">
        <ele>722.000000</ele>
        <time>2014-03-29T16:49:24Z</time>
      </trkpt>
      <trkpt lat="37.671587100" lon="-1.727855200">
        <ele>723.000000</ele>
        <time>2014-03-29T16:49:25Z</time>
      </trkpt>
      <trkpt lat="37.671588100" lon="-1.727877800">
        <ele>723.000000</ele>
        <time>2014-03-29T16:49:26Z</time>
      </trkpt>
      <trkpt lat="37.671587200" lon="-1.727899700">
        <ele>723.000000</ele>
        <time>2014-03-29T16:49:27Z</time>
      </trkpt>
      <trkpt lat="37.671588600" lon="-1.727922600">
        <ele>723.000000</ele>
        <time>2014-03-29T16:49:28Z</time>
      </trkpt>
      <trkpt lat="37.671592600" lon="-1.727947800">
        <ele>723.000000</ele>
        <time>2014-03-29T16:49:29Z</time>
      </trkpt>
      <trkpt lat="37.671597200" lon="-1.727971800">
        <ele>724.000000</ele>
        <time>2014-03-29T16:49:30Z</time>
      </trkpt>
      <trkpt lat="37.671599100" lon="-1.727995500">
        <ele>724.000000</ele>
        <time>2014-03-29T16:49:31Z</time>
      </trkpt>
      <trkpt lat="37.671601800" lon="-1.728019200">
        <ele>724.000000</ele>
        <time>2014-03-29T16:49:32Z</time>
      </trkpt>
      <trkpt lat="37.671603000" lon="-1.728041600">
        <ele>724.000000</ele>
        <time>2014-03-29T16:49:33Z</time>
      </trkpt>
      <trkpt lat="37.671604700" lon="-1.728061600">
        <ele>724.000000</ele>
        <time>2014-03-29T16:49:34Z</time>
      </trkpt>
      <trkpt lat="37.671601700" lon="-1.728075900">
        <ele>724.000000</ele>
        <time>2014-03-29T16:49:35Z</time>
      </trkpt>
      <trkpt lat="37.671598200" lon="-1.728078000">
        <ele>724.000000</ele>
        <time>2014-03-29T16:49:36Z</time>
      </trkpt>
      <trkpt lat="37.671597200" lon="-1.728067000">
        <ele>724.000000</ele>
        <time>2014-03-29T16:49:37Z</time>
      </trkpt>
      <trkpt lat="37.671598200" lon="-1.728044700">
        <ele>724.000000</ele>
        <time>2014-03-29T16:49:38Z</time>
      </trkpt>
      <trkpt lat="37.671602600" lon="-1.728014300">
        <ele>724.000000</ele>
        <time>2014-03-29T16:49:39Z</time>
      </trkpt>
      <trkpt lat="37.671607900" lon="-1.727983400">
        <ele>724.000000</ele>
        <time>2014-03-29T16:49:40Z</time>
      </trkpt>
      <trkpt lat="37.671607700" lon="-1.727952600">
        <ele>724.000000</ele>
        <time>2014-03-29T16:49:41Z</time>
      </trkpt>
      <trkpt lat="37.671605300" lon="-1.727917700">
        <ele>724.000000</ele>
        <time>2014-03-29T16:49:42Z</time>
      </trkpt>
      <trkpt lat="37.671606500" lon="-1.727887000">
        <ele>724.000000</ele>
        <time>2014-03-29T16:49:43Z</time>
      </trkpt>
      <trkpt lat="37.671609000" lon="-1.727853200">
        <ele>724.000000</ele>
        <time>2014-03-29T16:49:44Z</time>
      </trkpt>
      <trkpt lat="37.671619600" lon="-1.727816900">
        <ele>724.000000</ele>
        <time>2014-03-29T16:49:45Z</time>
      </trkpt>
      <trkpt lat="37.671634100" lon="-1.727774200">
        <ele>724.000000</ele>
        <time>2014-03-29T16:49:46Z</time>
      </trkpt>
      <trkpt lat="37.671648500" lon="-1.727738100">
        <ele>724.000000</ele>
        <time>2014-03-29T16:49:47Z</time>
      </trkpt>
      <trkpt lat="37.671658900" lon="-1.727706300">
        <ele>724.000000</ele>
        <time>2014-03-29T16:49:48Z</time>
      </trkpt>
      <trkpt lat="37.671667400" lon="-1.727684000">
        <ele>724.000000</ele>
        <time>2014-03-29T16:49:49Z</time>
      </trkpt>
      <trkpt lat="37.671680400" lon="-1.727661800">
        <ele>724.000000</ele>
        <time>2014-03-29T16:49:50Z</time>
      </trkpt>
      <trkpt lat="37.671694800" lon="-1.727641000">
        <ele>724.000000</ele>
        <time>2014-03-29T16:49:51Z</time>
      </trkpt>
      <trkpt lat="37.671707100" lon="-1.727622500">
        <ele>724.000000</ele>
        <time>2014-03-29T16:49:52Z</time>
      </trkpt>
      <trkpt lat="37.671719900" lon="-1.727611800">
        <ele>724.000000</ele>
        <time>2014-03-29T16:49:53Z</time>
      </trkpt>
      <trkpt lat="37.671729600" lon="-1.727597600">
        <ele>724.000000</ele>
        <time>2014-03-29T16:49:54Z</time>
      </trkpt>
      <trkpt lat="37.671739600" lon="-1.727581000">
        <ele>723.000000</ele>
        <time>2014-03-29T16:49:55Z</time>
      </trkpt>
      <trkpt lat="37.671750700" lon="-1.727568700">
        <ele>723.000000</ele>
        <time>2014-03-29T16:49:56Z</time>
      </trkpt>
      <trkpt lat="37.671755000" lon="-1.727554700">
        <ele>723.000000</ele>
        <time>2014-03-29T16:49:57Z</time>
      </trkpt>
      <trkpt lat="37.671754900" lon="-1.727536700">
        <ele>723.000000</ele>
        <time>2014-03-29T16:49:58Z</time>
      </trkpt>
      <trkpt lat="37.671762900" lon="-1.727517600">
        <ele>723.000000</ele>
        <time>2014-03-29T16:49:59Z</time>
      </trkpt>
      <trkpt lat="37.671772000" lon="-1.727494900">
        <ele>723.000000</ele>
        <time>2014-03-29T16:50:00Z</time>
      </trkpt>
      <trkpt lat="37.671783400" lon="-1.727464800">
        <ele>723.000000</ele>
        <time>2014-03-29T16:50:01Z</time>
      </trkpt>
      <trkpt lat="37.671793400" lon="-1.727433800">
        <ele>722.000000</ele>
        <time>2014-03-29T16:50:02Z</time>
      </trkpt>
      <trkpt lat="37.671801400" lon="-1.727399700">
        <ele>722.000000</ele>
        <time>2014-03-29T16:50:03Z</time>
      </trkpt>
      <trkpt lat="37.671804000" lon="-1.727371300">
        <ele>722.000000</ele>
        <time>2014-03-29T16:50:04Z</time>
      </trkpt>
      <trkpt lat="37.671811500" lon="-1.727350700">
        <ele>722.000000</ele>
        <time>2014-03-29T16:50:05Z</time>
      </trkpt>
      <trkpt lat="37.671816000" lon="-1.727324100">
        <ele>722.000000</ele>
        <time>2014-03-29T16:50:06Z</time>
      </trkpt>
      <trkpt lat="37.671816500" lon="-1.727298500">
        <ele>722.000000</ele>
        <time>2014-03-29T16:50:07Z</time>
      </trkpt>
      <trkpt lat="37.671815200" lon="-1.727272200">
        <ele>721.000000</ele>
        <time>2014-03-29T16:50:08Z</time>
      </trkpt>
      <trkpt lat="37.671814500" lon="-1.727250600">
        <ele>721.000000</ele>
        <time>2014-03-29T16:50:09Z</time>
      </trkpt>
      <trkpt lat="37.671812300" lon="-1.727239800">
        <ele>721.000000</ele>
        <time>2014-03-29T16:50:10Z</time>
      </trkpt>
      <trkpt lat="37.671802500" lon="-1.727219300">
        <ele>721.000000</ele>
        <time>2014-03-29T16:50:11Z</time>
      </trkpt>
      <trkpt lat="37.671789300" lon="-1.727192900">
        <ele>721.000000</ele>
        <time>2014-03-29T16:50:12Z</time>
      </trkpt>
      <trkpt lat="37.671776900" lon="-1.727158400">
        <ele>720.000000</ele>
        <time>2014-03-29T16:50:13Z</time>
      </trkpt>
      <trkpt lat="37.671763300" lon="-1.727124600">
        <ele>720.000000</ele>
        <time>2014-03-29T16:50:14Z</time>
      </trkpt>
      <trkpt lat="37.671753800" lon="-1.727090000">
        <ele>720.000000</ele>
        <time>2014-03-29T16:50:15Z</time>
      </trkpt>
      <trkpt lat="37.671742700" lon="-1.727057300">
        <ele>720.000000</ele>
        <time>2014-03-29T16:50:16Z</time>
      </trkpt>
      <trkpt lat="37.671730800" lon="-1.727027300">
        <ele>720.000000</ele>
        <time>2014-03-29T16:50:17Z</time>
      </trkpt>
      <trkpt lat="37.671719800" lon="-1.726996000">
        <ele>720.000000</ele>
        <time>2014-03-29T16:50:18Z</time>
      </trkpt>
      <trkpt lat="37.671712600" lon="-1.726974700">
        <ele>719.000000</ele>
        <time>2014-03-29T16:50:19Z</time>
      </trkpt>
      <trkpt lat="37.671707900" lon="-1.726961400">
        <ele>719.000000</ele>
        <time>2014-03-29T16:50:20Z</time>
      </trkpt>
      <trkpt lat="37.671705900" lon="-1.726943000">
        <ele>719.000000</ele>
        <time>2014-03-29T16:50:21Z</time>
      </trkpt>
      <trkpt lat="37.671706000" lon="-1.726921600">
        <ele>719.000000</ele>
        <time>2014-03-29T16:50:22Z</time>
      </trkpt>
      <trkpt lat="37.671707300" lon="-1.726900000">
        <ele>718.000000</ele>
        <time>2014-03-29T16:50:23Z</time>
      </trkpt>
      <trkpt lat="37.671707300" lon="-1.726880100">
        <ele>718.000000</ele>
        <time>2014-03-29T16:50:24Z</time>
      </trkpt>
      <trkpt lat="37.671704700" lon="-1.726863000">
        <ele>718.000000</ele>
        <time>2014-03-29T16:50:25Z</time>
      </trkpt>
      <trkpt lat="37.671705100" lon="-1.726847800">
        <ele>718.000000</ele>
        <time>2014-03-29T16:50:26Z</time>
      </trkpt>
      <trkpt lat="37.671706000" lon="-1.726832700">
        <ele>717.000000</ele>
        <time>2014-03-29T16:50:27Z</time>
      </trkpt>
      <trkpt lat="37.671704000" lon="-1.726820600">
        <ele>717.000000</ele>
        <time>2014-03-29T16:50:28Z</time>
      </trkpt>
      <trkpt lat="37.671701900" lon="-1.726813300">
        <ele>717.000000</ele>
        <time>2014-03-29T16:50:29Z</time>
      </trkpt>
      <trkpt lat="37.671700700" lon="-1.726811100">
        <ele>717.000000</ele>
        <time>2014-03-29T16:50:30Z</time>
      </trkpt>
      <trkpt lat="37.671667900" lon="-1.726757800">
        <ele>715.000000</ele>
        <time>2014-03-29T16:51:00Z</time>
      </trkpt>
      <trkpt lat="37.671667900" lon="-1.726757800">
        <ele>715.000000</ele>
        <time>2014-03-29T16:51:01Z</time>
      </trkpt>
      <trkpt lat="37.671673100" lon="-1.726735200">
        <ele>715.000000</ele>
        <time>2014-03-29T16:51:02Z</time>
      </trkpt>
      <trkpt lat="37.671680100" lon="-1.726704000">
        <ele>715.000000</ele>
        <time>2014-03-29T16:51:03Z</time>
      </trkpt>
      <trkpt lat="37.671685200" lon="-1.726666700">
        <ele>715.000000</ele>
        <time>2014-03-29T16:51:04Z</time>
      </trkpt>
      <trkpt lat="37.671689300" lon="-1.726624700">
        <ele>715.000000</ele>
        <time>2014-03-29T16:51:05Z</time>
      </trkpt>
      <trkpt lat="37.671698000" lon="-1.726582800">
        <ele>715.000000</ele>
        <time>2014-03-29T16:51:06Z</time>
      </trkpt>
      <trkpt lat="37.671704700" lon="-1.726540200">
        <ele>715.000000</ele>
        <time>2014-03-29T16:51:07Z</time>
      </trkpt>
      <trkpt lat="37.671715000" lon="-1.726494800">
        <ele>714.000000</ele>
        <time>2014-03-29T16:51:08Z</time>
      </trkpt>
      <trkpt lat="37.671724800" lon="-1.726448600">
        <ele>714.000000</ele>
        <time>2014-03-29T16:51:09Z</time>
      </trkpt>
      <trkpt lat="37.671730600" lon="-1.726401800">
        <ele>714.000000</ele>
        <time>2014-03-29T16:51:10Z</time>
      </trkpt>
      <trkpt lat="37.671736900" lon="-1.726351600">
        <ele>714.000000</ele>
        <time>2014-03-29T16:51:11Z</time>
      </trkpt>
      <trkpt lat="37.671747800" lon="-1.726297200">
        <ele>714.000000</ele>
        <time>2014-03-29T16:51:12Z</time>
      </trkpt>
      <trkpt lat="37.671758200" lon="-1.726243400">
        <ele>713.000000</ele>
        <time>2014-03-29T16:51:13Z</time>
      </trkpt>
      <trkpt lat="37.671770000" lon="-1.726188600">
        <ele>713.000000</ele>
        <time>2014-03-29T16:51:14Z</time>
      </trkpt>
      <trkpt lat="37.671785600" lon="-1.726129900">
        <ele>713.000000</ele>
        <time>2014-03-29T16:51:15Z</time>
      </trkpt>
      <trkpt lat="37.671800000" lon="-1.726075600">
        <ele>713.000000</ele>
        <time>2014-03-29T16:51:16Z</time>
      </trkpt>
      <trkpt lat="37.671809700" lon="-1.726033100">
        <ele>712.000000</ele>
        <time>2014-03-29T16:51:17Z</time>
      </trkpt>
      <trkpt lat="37.671815800" lon="-1.725996800">
        <ele>712.000000</ele>
        <time>2014-03-29T16:51:18Z</time>
      </trkpt>
      <trkpt lat="37.671823600" lon="-1.725967000">
        <ele>711.000000</ele>
        <time>2014-03-29T16:51:19Z</time>
      </trkpt>
      <trkpt lat="37.671832600" lon="-1.725945700">
        <ele>711.000000</ele>
        <time>2014-03-29T16:51:20Z</time>
      </trkpt>
      <trkpt lat="37.671840300" lon="-1.725917200">
        <ele>710.000000</ele>
        <time>2014-03-29T16:51:21Z</time>
      </trkpt>
      <trkpt lat="37.671854600" lon="-1.725877700">
        <ele>710.000000</ele>
        <time>2014-03-29T16:51:22Z</time>
      </trkpt>
      <trkpt lat="37.671874400" lon="-1.725834100">
        <ele>709.000000</ele>
        <time>2014-03-29T16:51:23Z</time>
      </trkpt>
      <trkpt lat="37.671890900" lon="-1.725796300">
        <ele>709.000000</ele>
        <time>2014-03-29T16:51:24Z</time>
      </trkpt>
      <trkpt lat="37.671904000" lon="-1.725759000">
        <ele>709.000000</ele>
        <time>2014-03-29T16:51:25Z</time>
      </trkpt>
      <trkpt lat="37.671918800" lon="-1.725723800">
        <ele>708.000000</ele>
        <time>2014-03-29T16:51:26Z</time>
      </trkpt>
      <trkpt lat="37.671926400" lon="-1.725688400">
        <ele>708.000000</ele>
        <time>2014-03-29T16:51:27Z</time>
      </trkpt>
      <trkpt lat="37.671939800" lon="-1.725655400">
        <ele>707.000000</ele>
        <time>2014-03-29T16:51:28Z</time>
      </trkpt>
      <trkpt lat="37.671959300" lon="-1.725628600">
        <ele>706.000000</ele>
        <time>2014-03-29T16:51:29Z</time>
      </trkpt>
      <trkpt lat="37.671978900" lon="-1.725613400">
        <ele>706.000000</ele>
        <time>2014-03-29T16:51:30Z</time>
      </trkpt>
      <trkpt lat="37.671999200" lon="-1.725599300">
        <ele>705.000000</ele>
        <time>2014-03-29T16:51:31Z</time>
      </trkpt>
      <trkpt lat="37.672013800" lon="-1.725579100">
        <ele>705.000000</ele>
        <time>2014-03-29T16:51:32Z</time>
      </trkpt>
      <trkpt lat="37.672031100" lon="-1.725562600">
        <ele>704.000000</ele>
        <time>2014-03-29T16:51:33Z</time>
      </trkpt>
      <trkpt lat="37.672046300" lon="-1.725548800">
        <ele>704.000000</ele>
        <time>2014-03-29T16:51:34Z</time>
      </trkpt>
      <trkpt lat="37.672065100" lon="-1.725535300">
        <ele>703.000000</ele>
        <time>2014-03-29T16:51:35Z</time>
      </trkpt>
      <trkpt lat="37.672091400" lon="-1.725522900">
        <ele>703.000000</ele>
        <time>2014-03-29T16:51:36Z</time>
      </trkpt>
      <trkpt lat="37.672121400" lon="-1.725513100">
        <ele>703.000000</ele>
        <time>2014-03-29T16:51:37Z</time>
      </trkpt>
      <trkpt lat="37.672152700" lon="-1.725505400">
        <ele>702.000000</ele>
        <time>2014-03-29T16:51:38Z</time>
      </trkpt>
      <trkpt lat="37.672187400" lon="-1.725501500">
        <ele>702.000000</ele>
        <time>2014-03-29T16:51:39Z</time>
      </trkpt>
      <trkpt lat="37.672225100" lon="-1.725507500">
        <ele>701.000000</ele>
        <time>2014-03-29T16:51:40Z</time>
      </trkpt>
      <trkpt lat="37.672266300" lon="-1.725528500">
        <ele>701.000000</ele>
        <time>2014-03-29T16:51:41Z</time>
      </trkpt>
      <trkpt lat="37.672312800" lon="-1.725558200">
        <ele>700.000000</ele>
        <time>2014-03-29T16:51:42Z</time>
      </trkpt>
      <trkpt lat="37.672359300" lon="-1.725587800">
        <ele>700.000000</ele>
        <time>2014-03-29T16:51:43Z</time>
      </trkpt>
      <trkpt lat="37.672403500" lon="-1.725620700">
        <ele>699.000000</ele>
        <time>2014-03-29T16:51:44Z</time>
      </trkpt>
      <trkpt lat="37.672445900" lon="-1.725658400">
        <ele>699.000000</ele>
        <time>2014-03-29T16:51:45Z</time>
      </trkpt>
      <trkpt lat="37.672484100" lon="-1.725700100">
        <ele>698.000000</ele>
        <time>2014-03-29T16:51:46Z</time>
      </trkpt>
      <trkpt lat="37.672521100" lon="-1.725740200">
        <ele>698.000000</ele>
        <time>2014-03-29T16:51:47Z</time>
      </trkpt>
      <trkpt lat="37.672556800" lon="-1.725775200">
        <ele>697.000000</ele>
        <time>2014-03-29T16:51:48Z</time>
      </trkpt>
      <trkpt lat="37.672590500" lon="-1.725814400">
        <ele>697.000000</ele>
        <time>2014-03-29T16:51:49Z</time>
      </trkpt>
      <trkpt lat="37.672630400" lon="-1.725857000">
        <ele>696.000000</ele>
        <time>2014-03-29T16:51:50Z</time>
      </trkpt>
      <trkpt lat="37.672671600" lon="-1.725908000">
        <ele>696.000000</ele>
        <time>2014-03-29T16:51:51Z</time>
      </trkpt>
      <trkpt lat="37.672707700" lon="-1.725968300">
        <ele>695.000000</ele>
        <time>2014-03-29T16:51:52Z</time>
      </trkpt>
      <trkpt lat="37.672735600" lon="-1.726033700">
        <ele>695.000000</ele>
        <time>2014-03-29T16:51:53Z</time>
      </trkpt>
      <trkpt lat="37.672764000" lon="-1.726098600">
        <ele>694.000000</ele>
        <time>2014-03-29T16:51:54Z</time>
      </trkpt>
      <trkpt lat="37.672792000" lon="-1.726164300">
        <ele>693.000000</ele>
        <time>2014-03-29T16:51:55Z</time>
      </trkpt>
      <trkpt lat="37.672818400" lon="-1.726233600">
        <ele>693.000000</ele>
        <time>2014-03-29T16:51:56Z</time>
      </trkpt>
      <trkpt lat="37.672844100" lon="-1.726304700">
        <ele>692.000000</ele>
        <time>2014-03-29T16:51:57Z</time>
      </trkpt>
      <trkpt lat="37.672872000" lon="-1.726376900">
        <ele>691.000000</ele>
        <time>2014-03-29T16:51:58Z</time>
      </trkpt>
      <trkpt lat="37.672899500" lon="-1.726441400">
        <ele>690.000000</ele>
        <time>2014-03-29T16:51:59Z</time>
      </trkpt>
      <trkpt lat="37.672930400" lon="-1.726503700">
        <ele>690.000000</ele>
        <time>2014-03-29T16:52:00Z</time>
      </trkpt>
      <trkpt lat="37.672959600" lon="-1.726564100">
        <ele>689.000000</ele>
        <time>2014-03-29T16:52:01Z</time>
      </trkpt>
      <trkpt lat="37.672986900" lon="-1.726624000">
        <ele>688.000000</ele>
        <time>2014-03-29T16:52:02Z</time>
      </trkpt>
      <trkpt lat="37.673012600" lon="-1.726686800">
        <ele>688.000000</ele>
        <time>2014-03-29T16:52:03Z</time>
      </trkpt>
      <trkpt lat="37.673043400" lon="-1.726748400">
        <ele>687.000000</ele>
        <time>2014-03-29T16:52:04Z</time>
      </trkpt>
      <trkpt lat="37.673071400" lon="-1.726806800">
        <ele>686.000000</ele>
        <time>2014-03-29T16:52:05Z</time>
      </trkpt>
      <trkpt lat="37.673105100" lon="-1.726866300">
        <ele>686.000000</ele>
        <time>2014-03-29T16:52:06Z</time>
      </trkpt>
      <trkpt lat="37.673135300" lon="-1.726932300">
        <ele>685.000000</ele>
        <time>2014-03-29T16:52:07Z</time>
      </trkpt>
      <trkpt lat="37.673161500" lon="-1.726998200">
        <ele>685.000000</ele>
        <time>2014-03-29T16:52:08Z</time>
      </trkpt>
      <trkpt lat="37.673188100" lon="-1.727061200">
        <ele>684.000000</ele>
        <time>2014-03-29T16:52:09Z</time>
      </trkpt>
      <trkpt lat="37.673213500" lon="-1.727125500">
        <ele>683.000000</ele>
        <time>2014-03-29T16:52:10Z</time>
      </trkpt>
      <trkpt lat="37.673238800" lon="-1.727181600">
        <ele>683.000000</ele>
        <time>2014-03-29T16:52:11Z</time>
      </trkpt>
      <trkpt lat="37.673272400" lon="-1.727231100">
        <ele>682.000000</ele>
        <time>2014-03-29T16:52:12Z</time>
      </trkpt>
      <trkpt lat="37.673312100" lon="-1.727277300">
        <ele>682.000000</ele>
        <time>2014-03-29T16:52:13Z</time>
      </trkpt>
      <trkpt lat="37.673356800" lon="-1.727320000">
        <ele>682.000000</ele>
        <time>2014-03-29T16:52:14Z</time>
      </trkpt>
      <trkpt lat="37.673405000" lon="-1.727359900">
        <ele>681.000000</ele>
        <time>2014-03-29T16:52:15Z</time>
      </trkpt>
      <trkpt lat="37.673459900" lon="-1.727394600">
        <ele>681.000000</ele>
        <time>2014-03-29T16:52:16Z</time>
      </trkpt>
      <trkpt lat="37.673521600" lon="-1.727425900">
        <ele>680.000000</ele>
        <time>2014-03-29T16:52:17Z</time>
      </trkpt>
      <trkpt lat="37.673579500" lon="-1.727454900">
        <ele>680.000000</ele>
        <time>2014-03-29T16:52:18Z</time>
      </trkpt>
      <trkpt lat="37.673639500" lon="-1.727485300">
        <ele>679.000000</ele>
        <time>2014-03-29T16:52:19Z</time>
      </trkpt>
      <trkpt lat="37.673692800" lon="-1.727515600">
        <ele>679.000000</ele>
        <time>2014-03-29T16:52:20Z</time>
      </trkpt>
      <trkpt lat="37.673743900" lon="-1.727549800">
        <ele>678.000000</ele>
        <time>2014-03-29T16:52:21Z</time>
      </trkpt>
      <trkpt lat="37.673774600" lon="-1.727582200">
        <ele>678.000000</ele>
        <time>2014-03-29T16:52:22Z</time>
      </trkpt>
      <trkpt lat="37.673792900" lon="-1.727626500">
        <ele>677.000000</ele>
        <time>2014-03-29T16:52:23Z</time>
      </trkpt>
      <trkpt lat="37.673801500" lon="-1.727675800">
        <ele>677.000000</ele>
        <time>2014-03-29T16:52:24Z</time>
      </trkpt>
      <trkpt lat="37.673796100" lon="-1.727734300">
        <ele>676.000000</ele>
        <time>2014-03-29T16:52:25Z</time>
      </trkpt>
      <trkpt lat="37.673788000" lon="-1.727788200">
        <ele>676.000000</ele>
        <time>2014-03-29T16:52:26Z</time>
      </trkpt>
      <trkpt lat="37.673778600" lon="-1.727843900">
        <ele>675.000000</ele>
        <time>2014-03-29T16:52:27Z</time>
      </trkpt>
      <trkpt lat="37.673768900" lon="-1.727902800">
        <ele>674.000000</ele>
        <time>2014-03-29T16:52:28Z</time>
      </trkpt>
      <trkpt lat="37.673763200" lon="-1.727956900">
        <ele>674.000000</ele>
        <time>2014-03-29T16:52:29Z</time>
      </trkpt>
      <trkpt lat="37.673779500" lon="-1.728003000">
        <ele>673.000000</ele>
        <time>2014-03-29T16:52:30Z</time>
      </trkpt>
      <trkpt lat="37.673817400" lon="-1.728022700">
        <ele>673.000000</ele>
        <time>2014-03-29T16:52:31Z</time>
      </trkpt>
      <trkpt lat="37.673866100" lon="-1.728025600">
        <ele>672.000000</ele>
        <time>2014-03-29T16:52:32Z</time>
      </trkpt>
      <trkpt lat="37.673916600" lon="-1.728024000">
        <ele>672.000000</ele>
        <time>2014-03-29T16:52:33Z</time>
      </trkpt>
      <trkpt lat="37.673970900" lon="-1.728015600">
        <ele>671.000000</ele>
        <time>2014-03-29T16:52:34Z</time>
      </trkpt>
      <trkpt lat="37.674023600" lon="-1.728008200">
        <ele>670.000000</ele>
        <time>2014-03-29T16:52:35Z</time>
      </trkpt>
      <trkpt lat="37.674077600" lon="-1.728002900">
        <ele>670.000000</ele>
        <time>2014-03-29T16:52:36Z</time>
      </trkpt>
      <trkpt lat="37.674133000" lon="-1.728010700">
        <ele>669.000000</ele>
        <time>2014-03-29T16:52:37Z</time>
      </trkpt>
      <trkpt lat="37.674190100" lon="-1.728036000">
        <ele>669.000000</ele>
        <time>2014-03-29T16:52:38Z</time>
      </trkpt>
      <trkpt lat="37.674241600" lon="-1.728072200">
        <ele>669.000000</ele>
        <time>2014-03-29T16:52:39Z</time>
      </trkpt>
      <trkpt lat="37.674279900" lon="-1.728111700">
        <ele>668.000000</ele>
        <time>2014-03-29T16:52:40Z</time>
      </trkpt>
      <trkpt lat="37.674311000" lon="-1.728149500">
        <ele>668.000000</ele>
        <time>2014-03-29T16:52:41Z</time>
      </trkpt>
      <trkpt lat="37.674338600" lon="-1.728182800">
        <ele>667.000000</ele>
        <time>2014-03-29T16:52:42Z</time>
      </trkpt>
      <trkpt lat="37.674373600" lon="-1.728215300">
        <ele>667.000000</ele>
        <time>2014-03-29T16:52:43Z</time>
      </trkpt>
      <trkpt lat="37.674421500" lon="-1.728252600">
        <ele>666.000000</ele>
        <time>2014-03-29T16:52:44Z</time>
      </trkpt>
      <trkpt lat="37.674471300" lon="-1.728289500">
        <ele>666.000000</ele>
        <time>2014-03-29T16:52:45Z</time>
      </trkpt>
      <trkpt lat="37.674513600" lon="-1.728322500">
        <ele>665.000000</ele>
        <time>2014-03-29T16:52:46Z</time>
      </trkpt>
      <trkpt lat="37.674556200" lon="-1.728360200">
        <ele>665.000000</ele>
        <time>2014-03-29T16:52:47Z</time>
      </trkpt>
      <trkpt lat="37.674596900" lon="-1.728392000">
        <ele>664.000000</ele>
        <time>2014-03-29T16:52:48Z</time>
      </trkpt>
      <trkpt lat="37.674650000" lon="-1.728424400">
        <ele>664.000000</ele>
        <time>2014-03-29T16:52:49Z</time>
      </trkpt>
      <trkpt lat="37.674716200" lon="-1.728456000">
        <ele>663.000000</ele>
        <time>2014-03-29T16:52:50Z</time>
      </trkpt>
      <trkpt lat="37.674802400" lon="-1.728492400">
        <ele>663.000000</ele>
        <time>2014-03-29T16:52:51Z</time>
      </trkpt>
      <trkpt lat="37.674863700" lon="-1.728514300">
        <ele>663.000000</ele>
        <time>2014-03-29T16:52:52Z</time>
      </trkpt>
      <trkpt lat="37.674904400" lon="-1.728525600">
        <ele>662.000000</ele>
        <time>2014-03-29T16:52:53Z</time>
      </trkpt>
      <trkpt lat="37.674945200" lon="-1.728540800">
        <ele>662.000000</ele>
        <time>2014-03-29T16:52:54Z</time>
      </trkpt>
      <trkpt lat="37.674995900" lon="-1.728558400">
        <ele>661.000000</ele>
        <time>2014-03-29T16:52:55Z</time>
      </trkpt>
      <trkpt lat="37.675053600" lon="-1.728580300">
        <ele>660.000000</ele>
        <time>2014-03-29T16:52:56Z</time>
      </trkpt>
      <trkpt lat="37.675114500" lon="-1.728603700">
        <ele>660.000000</ele>
        <time>2014-03-29T16:52:57Z</time>
      </trkpt>
      <trkpt lat="37.675173600" lon="-1.728638400">
        <ele>659.000000</ele>
        <time>2014-03-29T16:52:58Z</time>
      </trkpt>
      <trkpt lat="37.675232100" lon="-1.728679300">
        <ele>659.000000</ele>
        <time>2014-03-29T16:52:59Z</time>
      </trkpt>
      <trkpt lat="37.675295800" lon="-1.728714200">
        <ele>658.000000</ele>
        <time>2014-03-29T16:53:00Z</time>
      </trkpt>
      <trkpt lat="37.675349300" lon="-1.728748500">
        <ele>658.000000</ele>
        <time>2014-03-29T16:53:01Z</time>
      </trkpt>
      <trkpt lat="37.675405200" lon="-1.728782000">
        <ele>657.000000</ele>
        <time>2014-03-29T16:53:02Z</time>
      </trkpt>
      <trkpt lat="37.675470600" lon="-1.728799700">
        <ele>656.000000</ele>
        <time>2014-03-29T16:53:03Z</time>
      </trkpt>
      <trkpt lat="37.675540200" lon="-1.728820000">
        <ele>656.000000</ele>
        <time>2014-03-29T16:53:04Z</time>
      </trkpt>
      <trkpt lat="37.675615700" lon="-1.728841700">
        <ele>655.000000</ele>
        <time>2014-03-29T16:53:05Z</time>
      </trkpt>
      <trkpt lat="37.675688300" lon="-1.728869500">
        <ele>654.000000</ele>
        <time>2014-03-29T16:53:06Z</time>
      </trkpt>
      <trkpt lat="37.675759800" lon="-1.728900400">
        <ele>653.000000</ele>
        <time>2014-03-29T16:53:07Z</time>
      </trkpt>
      <trkpt lat="37.675824000" lon="-1.728942100">
        <ele>652.000000</ele>
        <time>2014-03-29T16:53:08Z</time>
      </trkpt>
      <trkpt lat="37.675875200" lon="-1.728987500">
        <ele>651.000000</ele>
        <time>2014-03-29T16:53:09Z</time>
      </trkpt>
      <trkpt lat="37.675917400" lon="-1.729030700">
        <ele>651.000000</ele>
        <time>2014-03-29T16:53:10Z</time>
      </trkpt>
      <trkpt lat="37.675954600" lon="-1.729073500">
        <ele>650.000000</ele>
        <time>2014-03-29T16:53:11Z</time>
      </trkpt>
      <trkpt lat="37.676002400" lon="-1.729113700">
        <ele>649.000000</ele>
        <time>2014-03-29T16:53:12Z</time>
      </trkpt>
      <trkpt lat="37.676059700" lon="-1.729139600">
        <ele>648.000000</ele>
        <time>2014-03-29T16:53:13Z</time>
      </trkpt>
      <trkpt lat="37.676117100" lon="-1.729145900">
        <ele>647.000000</ele>
        <time>2014-03-29T16:53:14Z</time>
      </trkpt>
      <trkpt lat="37.676172800" lon="-1.729130700">
        <ele>646.000000</ele>
        <time>2014-03-29T16:53:15Z</time>
      </trkpt>
      <trkpt lat="37.676217000" lon="-1.729096400">
        <ele>646.000000</ele>
        <time>2014-03-29T16:53:16Z</time>
      </trkpt>
      <trkpt lat="37.676255500" lon="-1.729073800">
        <ele>645.000000</ele>
        <time>2014-03-29T16:53:17Z</time>
      </trkpt>
      <trkpt lat="37.676294200" lon="-1.729034500">
        <ele>644.000000</ele>
        <time>2014-03-29T16:53:18Z</time>
      </trkpt>
      <trkpt lat="37.676326500" lon="-1.728973900">
        <ele>643.000000</ele>
        <time>2014-03-29T16:53:19Z</time>
      </trkpt>
      <trkpt lat="37.676354500" lon="-1.728902200">
        <ele>642.000000</ele>
        <time>2014-03-29T16:53:20Z</time>
      </trkpt>
      <trkpt lat="37.676377700" lon="-1.728819000">
        <ele>641.000000</ele>
        <time>2014-03-29T16:53:21Z</time>
      </trkpt>
      <trkpt lat="37.676379300" lon="-1.728734300">
        <ele>641.000000</ele>
        <time>2014-03-29T16:53:22Z</time>
      </trkpt>
      <trkpt lat="37.676360500" lon="-1.728657500">
        <ele>640.000000</ele>
        <time>2014-03-29T16:53:23Z</time>
      </trkpt>
      <trkpt lat="37.676319200" lon="-1.728586500">
        <ele>639.000000</ele>
        <time>2014-03-29T16:53:24Z</time>
      </trkpt>
      <trkpt lat="37.676259600" lon="-1.728530900">
        <ele>639.000000</ele>
        <time>2014-03-29T16:53:25Z</time>
      </trkpt>
      <trkpt lat="37.676206400" lon="-1.728481900">
        <ele>638.000000</ele>
        <time>2014-03-29T16:53:26Z</time>
      </trkpt>
      <trkpt lat="37.676143500" lon="-1.728444700">
        <ele>638.000000</ele>
        <time>2014-03-29T16:53:27Z</time>
      </trkpt>
      <trkpt lat="37.676087000" lon="-1.728414700">
        <ele>637.000000</ele>
        <time>2014-03-29T16:53:28Z</time>
      </trkpt>
      <trkpt lat="37.676038200" lon="-1.728393900">
        <ele>637.000000</ele>
        <time>2014-03-29T16:53:29Z</time>
      </trkpt>
      <trkpt lat="37.675990900" lon="-1.728358400">
        <ele>636.000000</ele>
        <time>2014-03-29T16:53:30Z</time>
      </trkpt>
      <trkpt lat="37.675940200" lon="-1.728320500">
        <ele>635.000000</ele>
        <time>2014-03-29T16:53:31Z</time>
      </trkpt>
      <trkpt lat="37.675890400" lon="-1.728271700">
        <ele>635.000000</ele>
        <time>2014-03-29T16:53:32Z</time>
      </trkpt>
      <trkpt lat="37.675847400" lon="-1.728228600">
        <ele>635.000000</ele>
        <time>2014-03-29T16:53:33Z</time>
      </trkpt>
      <trkpt lat="37.675808300" lon="-1.728182000">
        <ele>634.000000</ele>
        <time>2014-03-29T16:53:34Z</time>
      </trkpt>
      <trkpt lat="37.675769200" lon="-1.728128000">
        <ele>634.000000</ele>
        <time>2014-03-29T16:53:35Z</time>
      </trkpt>
      <trkpt lat="37.675728600" lon="-1.728083800">
        <ele>633.000000</ele>
        <time>2014-03-29T16:53:36Z</time>
      </trkpt>
      <trkpt lat="37.675683900" lon="-1.728040800">
        <ele>633.000000</ele>
        <time>2014-03-29T16:53:37Z</time>
      </trkpt>
      <trkpt lat="37.675639900" lon="-1.727999100">
        <ele>632.000000</ele>
        <time>2014-03-29T16:53:38Z</time>
      </trkpt>
      <trkpt lat="37.675603200" lon="-1.727959900">
        <ele>632.000000</ele>
        <time>2014-03-29T16:53:39Z</time>
      </trkpt>
      <trkpt lat="37.675576000" lon="-1.727923000">
        <ele>632.000000</ele>
        <time>2014-03-29T16:53:40Z</time>
      </trkpt>
      <trkpt lat="37.675553100" lon="-1.727886800">
        <ele>631.000000</ele>
        <time>2014-03-29T16:53:41Z</time>
      </trkpt>
      <trkpt lat="37.675537900" lon="-1.727844000">
        <ele>631.000000</ele>
        <time>2014-03-29T16:53:42Z</time>
      </trkpt>
      <trkpt lat="37.675519000" lon="-1.727800600">
        <ele>630.000000</ele>
        <time>2014-03-29T16:53:43Z</time>
      </trkpt>
      <trkpt lat="37.675500400" lon="-1.727757400">
        <ele>630.000000</ele>
        <time>2014-03-29T16:53:44Z</time>
      </trkpt>
      <trkpt lat="37.675477600" lon="-1.727715000">
        <ele>629.000000</ele>
        <time>2014-03-29T16:53:45Z</time>
      </trkpt>
      <trkpt lat="37.675446300" lon="-1.727674700">
        <ele>629.000000</ele>
        <time>2014-03-29T16:53:46Z</time>
      </trkpt>
      <trkpt lat="37.675409800" lon="-1.727636000">
        <ele>628.000000</ele>
        <time>2014-03-29T16:53:47Z</time>
      </trkpt>
      <trkpt lat="37.675368600" lon="-1.727600900">
        <ele>628.000000</ele>
        <time>2014-03-29T16:53:48Z</time>
      </trkpt>
      <trkpt lat="37.675318700" lon="-1.727556700">
        <ele>627.000000</ele>
        <time>2014-03-29T16:53:49Z</time>
      </trkpt>
      <trkpt lat="37.675270000" lon="-1.727513500">
        <ele>626.000000</ele>
        <time>2014-03-29T16:53:50Z</time>
      </trkpt>
      <trkpt lat="37.675218500" lon="-1.727468400">
        <ele>626.000000</ele>
        <time>2014-03-29T16:53:51Z</time>
      </trkpt>
      <trkpt lat="37.675167400" lon="-1.727415800">
        <ele>625.000000</ele>
        <time>2014-03-29T16:53:52Z</time>
      </trkpt>
      <trkpt lat="37.675119000" lon="-1.727356700">
        <ele>625.000000</ele>
        <time>2014-03-29T16:53:53Z</time>
      </trkpt>
      <trkpt lat="37.675075000" lon="-1.727291100">
        <ele>624.000000</ele>
        <time>2014-03-29T16:53:54Z</time>
      </trkpt>
      <trkpt lat="37.675031900" lon="-1.727216100">
        <ele>624.000000</ele>
        <time>2014-03-29T16:53:55Z</time>
      </trkpt>
      <trkpt lat="37.674994300" lon="-1.727126500">
        <ele>623.000000</ele>
        <time>2014-03-29T16:53:56Z</time>
      </trkpt>
      <trkpt lat="37.674970700" lon="-1.727033000">
        <ele>622.000000</ele>
        <time>2014-03-29T16:53:57Z</time>
      </trkpt>
      <trkpt lat="37.674958100" lon="-1.726945000">
        <ele>622.000000</ele>
        <time>2014-03-29T16:53:58Z</time>
      </trkpt>
      <trkpt lat="37.674955500" lon="-1.726861800">
        <ele>621.000000</ele>
        <time>2014-03-29T16:53:59Z</time>
      </trkpt>
      <trkpt lat="37.674968400" lon="-1.726782400">
        <ele>620.000000</ele>
        <time>2014-03-29T16:54:00Z</time>
      </trkpt>
      <trkpt lat="37.674988200" lon="-1.726710900">
        <ele>620.000000</ele>
        <time>2014-03-29T16:54:01Z</time>
      </trkpt>
      <trkpt lat="37.675028300" lon="-1.726666000">
        <ele>619.000000</ele>
        <time>2014-03-29T16:54:02Z</time>
      </trkpt>
      <trkpt lat="37.675095300" lon="-1.726644300">
        <ele>618.000000</ele>
        <time>2014-03-29T16:54:03Z</time>
      </trkpt>
      <trkpt lat="37.675143700" lon="-1.726625300">
        <ele>618.000000</ele>
        <time>2014-03-29T16:54:04Z</time>
      </trkpt>
      <trkpt lat="37.675194000" lon="-1.726619200">
        <ele>617.000000</ele>
        <time>2014-03-29T16:54:05Z</time>
      </trkpt>
      <trkpt lat="37.675245200" lon="-1.726610400">
        <ele>617.000000</ele>
        <time>2014-03-29T16:54:06Z</time>
      </trkpt>
      <trkpt lat="37.675294400" lon="-1.726591700">
        <ele>616.000000</ele>
        <time>2014-03-29T16:54:07Z</time>
      </trkpt>
      <trkpt lat="37.675338500" lon="-1.726556000">
        <ele>615.000000</ele>
        <time>2014-03-29T16:54:08Z</time>
      </trkpt>
      <trkpt lat="37.675370900" lon="-1.726501300">
        <ele>615.000000</ele>
        <time>2014-03-29T16:54:09Z</time>
      </trkpt>
      <trkpt lat="37.675387400" lon="-1.726438500">
        <ele>614.000000</ele>
        <time>2014-03-29T16:54:10Z</time>
      </trkpt>
      <trkpt lat="37.675381800" lon="-1.726372700">
        <ele>614.000000</ele>
        <time>2014-03-29T16:54:11Z</time>
      </trkpt>
      <trkpt lat="37.675368500" lon="-1.726299400">
        <ele>613.000000</ele>
        <time>2014-03-29T16:54:12Z</time>
      </trkpt>
      <trkpt lat="37.675357400" lon="-1.726221300">
        <ele>613.000000</ele>
        <time>2014-03-29T16:54:13Z</time>
      </trkpt>
      <trkpt lat="37.675351100" lon="-1.726151500">
        <ele>612.000000</ele>
        <time>2014-03-29T16:54:14Z</time>
      </trkpt>
      <trkpt lat="37.675349600" lon="-1.726081300">
        <ele>612.000000</ele>
        <time>2014-03-29T16:54:15Z</time>
      </trkpt>
      <trkpt lat="37.675359200" lon="-1.726005700">
        <ele>611.000000</ele>
        <time>2014-03-29T16:54:16Z</time>
      </trkpt>
      <trkpt lat="37.675383200" lon="-1.725933000">
        <ele>611.000000</ele>
        <time>2014-03-29T16:54:17Z</time>
      </trkpt>
      <trkpt lat="37.675405500" lon="-1.725861700">
        <ele>611.000000</ele>
        <time>2014-03-29T16:54:18Z</time>
      </trkpt>
      <trkpt lat="37.675419500" lon="-1.725794800">
        <ele>610.000000</ele>
        <time>2014-03-29T16:54:19Z</time>
      </trkpt>
      <trkpt lat="37.675427100" lon="-1.725735100">
        <ele>610.000000</ele>
        <time>2014-03-29T16:54:20Z</time>
      </trkpt>
      <trkpt lat="37.675432000" lon="-1.725684900">
        <ele>609.000000</ele>
        <time>2014-03-29T16:54:21Z</time>
      </trkpt>
      <trkpt lat="37.675435300" lon="-1.725640700">
        <ele>609.000000</ele>
        <time>2014-03-29T16:54:22Z</time>
      </trkpt>
      <trkpt lat="37.675440400" lon="-1.725599500">
        <ele>609.000000</ele>
        <time>2014-03-29T16:54:23Z</time>
      </trkpt>
      <trkpt lat="37.675442100" lon="-1.725551400">
        <ele>608.000000</ele>
        <time>2014-03-29T16:54:24Z</time>
      </trkpt>
      <trkpt lat="37.675442900" lon="-1.725502100">
        <ele>608.000000</ele>
        <time>2014-03-29T16:54:25Z</time>
      </trkpt>
      <trkpt lat="37.675446900" lon="-1.725448300">
        <ele>608.000000</ele>
        <time>2014-03-29T16:54:26Z</time>
      </trkpt>
      <trkpt lat="37.675450400" lon="-1.725384500">
        <ele>607.000000</ele>
        <time>2014-03-29T16:54:27Z</time>
      </trkpt>
      <trkpt lat="37.675454900" lon="-1.725313500">
        <ele>607.000000</ele>
        <time>2014-03-29T16:54:28Z</time>
      </trkpt>
      <trkpt lat="37.675462500" lon="-1.725241800">
        <ele>607.000000</ele>
        <time>2014-03-29T16:54:29Z</time>
      </trkpt>
      <trkpt lat="37.675471700" lon="-1.725163700">
        <ele>606.000000</ele>
        <time>2014-03-29T16:54:30Z</time>
      </trkpt>
      <trkpt lat="37.675481600" lon="-1.725085100">
        <ele>606.000000</ele>
        <time>2014-03-29T16:54:31Z</time>
      </trkpt>
      <trkpt lat="37.675480900" lon="-1.725004000">
        <ele>606.000000</ele>
        <time>2014-03-29T16:54:32Z</time>
      </trkpt>
      <trkpt lat="37.675468400" lon="-1.724921200">
        <ele>606.000000</ele>
        <time>2014-03-29T16:54:33Z</time>
      </trkpt>
      <trkpt lat="37.675448900" lon="-1.724839600">
        <ele>605.000000</ele>
        <time>2014-03-29T16:54:34Z</time>
      </trkpt>
      <trkpt lat="37.675433600" lon="-1.724755500">
        <ele>605.000000</ele>
        <time>2014-03-29T16:54:35Z</time>
      </trkpt>
      <trkpt lat="37.675417300" lon="-1.724666000">
        <ele>605.000000</ele>
        <time>2014-03-29T16:54:36Z</time>
      </trkpt>
      <trkpt lat="37.675408100" lon="-1.724577800">
        <ele>604.000000</ele>
        <time>2014-03-29T16:54:37Z</time>
      </trkpt>
      <trkpt lat="37.675406800" lon="-1.724496800">
        <ele>604.000000</ele>
        <time>2014-03-29T16:54:38Z</time>
      </trkpt>
      <trkpt lat="37.675400800" lon="-1.724414300">
        <ele>604.000000</ele>
        <time>2014-03-29T16:54:39Z</time>
      </trkpt>
      <trkpt lat="37.675382500" lon="-1.724336900">
        <ele>603.000000</ele>
        <time>2014-03-29T16:54:40Z</time>
      </trkpt>
      <trkpt lat="37.675353000" lon="-1.724268300">
        <ele>603.000000</ele>
        <time>2014-03-29T16:54:41Z</time>
      </trkpt>
      <trkpt lat="37.675324600" lon="-1.724201200">
        <ele>603.000000</ele>
        <time>2014-03-29T16:54:42Z</time>
      </trkpt>
      <trkpt lat="37.675304700" lon="-1.724131400">
        <ele>603.000000</ele>
        <time>2014-03-29T16:54:43Z</time>
      </trkpt>
      <trkpt lat="37.675292900" lon="-1.724057300">
        <ele>602.000000</ele>
        <time>2014-03-29T16:54:44Z</time>
      </trkpt>
      <trkpt lat="37.675271000" lon="-1.723982000">
        <ele>602.000000</ele>
        <time>2014-03-29T16:54:45Z</time>
      </trkpt>
      <trkpt lat="37.675254100" lon="-1.723903700">
        <ele>602.000000</ele>
        <time>2014-03-29T16:54:46Z</time>
      </trkpt>
      <trkpt lat="37.675235400" lon="-1.723825600">
        <ele>602.000000</ele>
        <time>2014-03-29T16:54:47Z</time>
      </trkpt>
      <trkpt lat="37.675209500" lon="-1.723747000">
        <ele>601.000000</ele>
        <time>2014-03-29T16:54:48Z</time>
      </trkpt>
      <trkpt lat="37.675181600" lon="-1.723666300">
        <ele>601.000000</ele>
        <time>2014-03-29T16:54:49Z</time>
      </trkpt>
      <trkpt lat="37.675155700" lon="-1.723584400">
        <ele>601.000000</ele>
        <time>2014-03-29T16:54:50Z</time>
      </trkpt>
      <trkpt lat="37.675139000" lon="-1.723504600">
        <ele>601.000000</ele>
        <time>2014-03-29T16:54:51Z</time>
      </trkpt>
      <trkpt lat="37.675132800" lon="-1.723428400">
        <ele>601.000000</ele>
        <time>2014-03-29T16:54:52Z</time>
      </trkpt>
      <trkpt lat="37.675130400" lon="-1.723349600">
        <ele>601.000000</ele>
        <time>2014-03-29T16:54:53Z</time>
      </trkpt>
      <trkpt lat="37.675133400" lon="-1.723273200">
        <ele>601.000000</ele>
        <time>2014-03-29T16:54:54Z</time>
      </trkpt>
      <trkpt lat="37.675145000" lon="-1.723197100">
        <ele>600.000000</ele>
        <time>2014-03-29T16:54:55Z</time>
      </trkpt>
      <trkpt lat="37.675164600" lon="-1.723123700">
        <ele>600.000000</ele>
        <time>2014-03-29T16:54:56Z</time>
      </trkpt>
      <trkpt lat="37.675193700" lon="-1.723059100">
        <ele>600.000000</ele>
        <time>2014-03-29T16:54:57Z</time>
      </trkpt>
      <trkpt lat="37.675228500" lon="-1.723001900">
        <ele>600.000000</ele>
        <time>2014-03-29T16:54:58Z</time>
      </trkpt>
      <trkpt lat="37.675271600" lon="-1.722948300">
        <ele>600.000000</ele>
        <time>2014-03-29T16:54:59Z</time>
      </trkpt>
      <trkpt lat="37.675331100" lon="-1.722898400">
        <ele>599.000000</ele>
        <time>2014-03-29T16:55:00Z</time>
      </trkpt>
      <trkpt lat="37.675384500" lon="-1.722849200">
        <ele>599.000000</ele>
        <time>2014-03-29T16:55:01Z</time>
      </trkpt>
      <trkpt lat="37.675428900" lon="-1.722789800">
        <ele>599.000000</ele>
        <time>2014-03-29T16:55:02Z</time>
      </trkpt>
      <trkpt lat="37.675461300" lon="-1.722727400">
        <ele>599.000000</ele>
        <time>2014-03-29T16:55:03Z</time>
      </trkpt>
      <trkpt lat="37.675469700" lon="-1.722653900">
        <ele>598.000000</ele>
        <time>2014-03-29T16:55:04Z</time>
      </trkpt>
      <trkpt lat="37.675458200" lon="-1.722586600">
        <ele>598.000000</ele>
        <time>2014-03-29T16:55:05Z</time>
      </trkpt>
      <trkpt lat="37.675433100" lon="-1.722523200">
        <ele>598.000000</ele>
        <time>2014-03-29T16:55:06Z</time>
      </trkpt>
      <trkpt lat="37.675386000" lon="-1.722454600">
        <ele>597.000000</ele>
        <time>2014-03-29T16:55:07Z</time>
      </trkpt>
      <trkpt lat="37.675341700" lon="-1.722383000">
        <ele>597.000000</ele>
        <time>2014-03-29T16:55:08Z</time>
      </trkpt>
      <trkpt lat="37.675306500" lon="-1.722308300">
        <ele>597.000000</ele>
        <time>2014-03-29T16:55:09Z</time>
      </trkpt>
      <trkpt lat="37.675289700" lon="-1.722224100">
        <ele>596.000000</ele>
        <time>2014-03-29T16:55:10Z</time>
      </trkpt>
      <trkpt lat="37.675297200" lon="-1.722148700">
        <ele>596.000000</ele>
        <time>2014-03-29T16:55:11Z</time>
      </trkpt>
      <trkpt lat="37.675322100" lon="-1.722086400">
        <ele>596.000000</ele>
        <time>2014-03-29T16:55:12Z</time>
      </trkpt>
      <trkpt lat="37.675352300" lon="-1.722033500">
        <ele>595.000000</ele>
        <time>2014-03-29T16:55:13Z</time>
      </trkpt>
      <trkpt lat="37.675406100" lon="-1.722001400">
        <ele>595.000000</ele>
        <time>2014-03-29T16:55:14Z</time>
      </trkpt>
      <trkpt lat="37.675462400" lon="-1.721982100">
        <ele>595.000000</ele>
        <time>2014-03-29T16:55:15Z</time>
      </trkpt>
      <trkpt lat="37.675522800" lon="-1.721975600">
        <ele>594.000000</ele>
        <time>2014-03-29T16:55:16Z</time>
      </trkpt>
      <trkpt lat="37.675593900" lon="-1.721984400">
        <ele>594.000000</ele>
        <time>2014-03-29T16:55:17Z</time>
      </trkpt>
      <trkpt lat="37.675670700" lon="-1.721998200">
        <ele>594.000000</ele>
        <time>2014-03-29T16:55:18Z</time>
      </trkpt>
      <trkpt lat="37.675748800" lon="-1.722006900">
        <ele>593.000000</ele>
        <time>2014-03-29T16:55:19Z</time>
      </trkpt>
      <trkpt lat="37.675820600" lon="-1.721998300">
        <ele>593.000000</ele>
        <time>2014-03-29T16:55:20Z</time>
      </trkpt>
      <trkpt lat="37.675890400" lon="-1.721977800">
        <ele>592.000000</ele>
        <time>2014-03-29T16:55:21Z</time>
      </trkpt>
      <trkpt lat="37.675956500" lon="-1.721944200">
        <ele>592.000000</ele>
        <time>2014-03-29T16:55:22Z</time>
      </trkpt>
      <trkpt lat="37.676012900" lon="-1.721893300">
        <ele>592.000000</ele>
        <time>2014-03-29T16:55:23Z</time>
      </trkpt>
      <trkpt lat="37.676057400" lon="-1.721826300">
        <ele>591.000000</ele>
        <time>2014-03-29T16:55:24Z</time>
      </trkpt>
      <trkpt lat="37.676095700" lon="-1.721750500">
        <ele>591.000000</ele>
        <time>2014-03-29T16:55:25Z</time>
      </trkpt>
      <trkpt lat="37.676123800" lon="-1.721670200">
        <ele>590.000000</ele>
        <time>2014-03-29T16:55:26Z</time>
      </trkpt>
      <trkpt lat="37.676129600" lon="-1.721579100">
        <ele>590.000000</ele>
        <time>2014-03-29T16:55:27Z</time>
      </trkpt>
      <trkpt lat="37.676121100" lon="-1.721485100">
        <ele>589.000000</ele>
        <time>2014-03-29T16:55:28Z</time>
      </trkpt>
      <trkpt lat="37.676113200" lon="-1.721395200">
        <ele>589.000000</ele>
        <time>2014-03-29T16:55:29Z</time>
      </trkpt>
      <trkpt lat="37.676112300" lon="-1.721306500">
        <ele>588.000000</ele>
        <time>2014-03-29T16:55:30Z</time>
      </trkpt>
      <trkpt lat="37.676125300" lon="-1.721221300">
        <ele>587.000000</ele>
        <time>2014-03-29T16:55:31Z</time>
      </trkpt>
      <trkpt lat="37.676152100" lon="-1.721136800">
        <ele>587.000000</ele>
        <time>2014-03-29T16:55:32Z</time>
      </trkpt>
      <trkpt lat="37.676182300" lon="-1.721047700">
        <ele>586.000000</ele>
        <time>2014-03-29T16:55:33Z</time>
      </trkpt>
      <trkpt lat="37.676216300" lon="-1.720963100">
        <ele>585.000000</ele>
        <time>2014-03-29T16:55:34Z</time>
      </trkpt>
      <trkpt lat="37.676248400" lon="-1.720884000">
        <ele>585.000000</ele>
        <time>2014-03-29T16:55:35Z</time>
      </trkpt>
      <trkpt lat="37.676277500" lon="-1.720810400">
        <ele>584.000000</ele>
        <time>2014-03-29T16:55:36Z</time>
      </trkpt>
      <trkpt lat="37.676302700" lon="-1.720731800">
        <ele>584.000000</ele>
        <time>2014-03-29T16:55:37Z</time>
      </trkpt>
      <trkpt lat="37.676316000" lon="-1.720648600">
        <ele>583.000000</ele>
        <time>2014-03-29T16:55:38Z</time>
      </trkpt>
      <trkpt lat="37.676327300" lon="-1.720564800">
        <ele>582.000000</ele>
        <time>2014-03-29T16:55:39Z</time>
      </trkpt>
      <trkpt lat="37.676335000" lon="-1.720480700">
        <ele>582.000000</ele>
        <time>2014-03-29T16:55:40Z</time>
      </trkpt>
      <trkpt lat="37.676343600" lon="-1.720395500">
        <ele>581.000000</ele>
        <time>2014-03-29T16:55:41Z</time>
      </trkpt>
      <trkpt lat="37.676358300" lon="-1.720313200">
        <ele>580.000000</ele>
        <time>2014-03-29T16:55:42Z</time>
      </trkpt>
      <trkpt lat="37.676376300" lon="-1.720225200">
        <ele>580.000000</ele>
        <time>2014-03-29T16:55:43Z</time>
      </trkpt>
      <trkpt lat="37.676395900" lon="-1.720141400">
        <ele>579.000000</ele>
        <time>2014-03-29T16:55:44Z</time>
      </trkpt>
      <trkpt lat="37.676427800" lon="-1.720064000">
        <ele>578.000000</ele>
        <time>2014-03-29T16:55:45Z</time>
      </trkpt>
      <trkpt lat="37.676465800" lon="-1.719997700">
        <ele>578.000000</ele>
        <time>2014-03-29T16:55:46Z</time>
      </trkpt>
      <trkpt lat="37.676514500" lon="-1.719948500">
        <ele>577.000000</ele>
        <time>2014-03-29T16:55:47Z</time>
      </trkpt>
      <trkpt lat="37.676571100" lon="-1.719924300">
        <ele>576.000000</ele>
        <time>2014-03-29T16:55:48Z</time>
      </trkpt>
      <trkpt lat="37.676630400" lon="-1.719906800">
        <ele>575.000000</ele>
        <time>2014-03-29T16:55:49Z</time>
      </trkpt>
      <trkpt lat="37.676700500" lon="-1.719896700">
        <ele>574.000000</ele>
        <time>2014-03-29T16:55:50Z</time>
      </trkpt>
      <trkpt lat="37.676769600" lon="-1.719895900">
        <ele>573.000000</ele>
        <time>2014-03-29T16:55:51Z</time>
      </trkpt>
      <trkpt lat="37.676825400" lon="-1.719888000">
        <ele>572.000000</ele>
        <time>2014-03-29T16:55:52Z</time>
      </trkpt>
      <trkpt lat="37.676876900" lon="-1.719865800">
        <ele>571.000000</ele>
        <time>2014-03-29T16:55:53Z</time>
      </trkpt>
      <trkpt lat="37.676917200" lon="-1.719819000">
        <ele>570.000000</ele>
        <time>2014-03-29T16:55:54Z</time>
      </trkpt>
      <trkpt lat="37.676946500" lon="-1.719739600">
        <ele>569.000000</ele>
        <time>2014-03-29T16:55:55Z</time>
      </trkpt>
      <trkpt lat="37.676974700" lon="-1.719652600">
        <ele>568.000000</ele>
        <time>2014-03-29T16:55:56Z</time>
      </trkpt>
      <trkpt lat="37.677004200" lon="-1.719567100">
        <ele>568.000000</ele>
        <time>2014-03-29T16:55:57Z</time>
      </trkpt>
      <trkpt lat="37.677029600" lon="-1.719487000">
        <ele>567.000000</ele>
        <time>2014-03-29T16:55:58Z</time>
      </trkpt>
      <trkpt lat="37.677055000" lon="-1.719409800">
        <ele>566.000000</ele>
        <time>2014-03-29T16:55:59Z</time>
      </trkpt>
      <trkpt lat="37.677078800" lon="-1.719338200">
        <ele>565.000000</ele>
        <time>2014-03-29T16:56:00Z</time>
      </trkpt>
      <trkpt lat="37.677100300" lon="-1.719272200">
        <ele>564.000000</ele>
        <time>2014-03-29T16:56:01Z</time>
      </trkpt>
      <trkpt lat="37.677126300" lon="-1.719206600">
        <ele>563.000000</ele>
        <time>2014-03-29T16:56:02Z</time>
      </trkpt>
      <trkpt lat="37.677158300" lon="-1.719145800">
        <ele>562.000000</ele>
        <time>2014-03-29T16:56:03Z</time>
      </trkpt>
      <trkpt lat="37.677191700" lon="-1.719086400">
        <ele>561.000000</ele>
        <time>2014-03-29T16:56:04Z</time>
      </trkpt>
      <trkpt lat="37.677217400" lon="-1.719022300">
        <ele>560.000000</ele>
        <time>2014-03-29T16:56:05Z</time>
      </trkpt>
      <trkpt lat="37.677264100" lon="-1.718971700">
        <ele>559.000000</ele>
        <time>2014-03-29T16:56:06Z</time>
      </trkpt>
      <trkpt lat="37.677317700" lon="-1.718932300">
        <ele>557.000000</ele>
        <time>2014-03-29T16:56:07Z</time>
      </trkpt>
      <trkpt lat="37.677372700" lon="-1.718895400">
        <ele>556.000000</ele>
        <time>2014-03-29T16:56:08Z</time>
      </trkpt>
      <trkpt lat="37.677410700" lon="-1.718856900">
        <ele>555.000000</ele>
        <time>2014-03-29T16:56:09Z</time>
      </trkpt>
      <trkpt lat="37.677459600" lon="-1.718825100">
        <ele>554.000000</ele>
        <time>2014-03-29T16:56:10Z</time>
      </trkpt>
      <trkpt lat="37.677510400" lon="-1.718795800">
        <ele>553.000000</ele>
        <time>2014-03-29T16:56:11Z</time>
      </trkpt>
      <trkpt lat="37.677556000" lon="-1.718772900">
        <ele>552.000000</ele>
        <time>2014-03-29T16:56:12Z</time>
      </trkpt>
      <trkpt lat="37.677591200" lon="-1.718747600">
        <ele>551.000000</ele>
        <time>2014-03-29T16:56:13Z</time>
      </trkpt>
      <trkpt lat="37.677623000" lon="-1.718714100">
        <ele>550.000000</ele>
        <time>2014-03-29T16:56:14Z</time>
      </trkpt>
      <trkpt lat="37.677644500" lon="-1.718683700">
        <ele>548.000000</ele>
        <time>2014-03-29T16:56:15Z</time>
      </trkpt>
      <trkpt lat="37.677652400" lon="-1.718656400">
        <ele>547.000000</ele>
        <time>2014-03-29T16:56:16Z</time>
      </trkpt>
      <trkpt lat="37.677666500" lon="-1.718629200">
        <ele>546.000000</ele>
        <time>2014-03-29T16:56:17Z</time>
      </trkpt>
      <trkpt lat="37.677679100" lon="-1.718600900">
        <ele>545.000000</ele>
        <time>2014-03-29T16:56:18Z</time>
      </trkpt>
      <trkpt lat="37.677669700" lon="-1.718560300">
        <ele>544.000000</ele>
        <time>2014-03-29T16:56:19Z</time>
      </trkpt>
      <trkpt lat="37.677642600" lon="-1.718500600">
        <ele>544.000000</ele>
        <time>2014-03-29T16:56:20Z</time>
      </trkpt>
      <trkpt lat="37.677605600" lon="-1.718423600">
        <ele>543.000000</ele>
        <time>2014-03-29T16:56:21Z</time>
      </trkpt>
      <trkpt lat="37.677571300" lon="-1.718343000">
        <ele>542.000000</ele>
        <time>2014-03-29T16:56:22Z</time>
      </trkpt>
      <trkpt lat="37.677546100" lon="-1.718258100">
        <ele>541.000000</ele>
        <time>2014-03-29T16:56:23Z</time>
      </trkpt>
      <trkpt lat="37.677534600" lon="-1.718170900">
        <ele>540.000000</ele>
        <time>2014-03-29T16:56:24Z</time>
      </trkpt>
      <trkpt lat="37.677531800" lon="-1.718091400">
        <ele>539.000000</ele>
        <time>2014-03-29T16:56:25Z</time>
      </trkpt>
      <trkpt lat="37.677533900" lon="-1.718010000">
        <ele>538.000000</ele>
        <time>2014-03-29T16:56:26Z</time>
      </trkpt>
      <trkpt lat="37.677542100" lon="-1.717923900">
        <ele>538.000000</ele>
        <time>2014-03-29T16:56:27Z</time>
      </trkpt>
      <trkpt lat="37.677548100" lon="-1.717838800">
        <ele>537.000000</ele>
        <time>2014-03-29T16:56:28Z</time>
      </trkpt>
      <trkpt lat="37.677548500" lon="-1.717758900">
        <ele>536.000000</ele>
        <time>2014-03-29T16:56:29Z</time>
      </trkpt>
      <trkpt lat="37.677553800" lon="-1.717672400">
        <ele>535.000000</ele>
        <time>2014-03-29T16:56:30Z</time>
      </trkpt>
      <trkpt lat="37.677553200" lon="-1.717589300">
        <ele>534.000000</ele>
        <time>2014-03-29T16:56:31Z</time>
      </trkpt>
      <trkpt lat="37.677550600" lon="-1.717500100">
        <ele>534.000000</ele>
        <time>2014-03-29T16:56:32Z</time>
      </trkpt>
      <trkpt lat="37.677552400" lon="-1.717402900">
        <ele>533.000000</ele>
        <time>2014-03-29T16:56:33Z</time>
      </trkpt>
      <trkpt lat="37.677559900" lon="-1.717304000">
        <ele>532.000000</ele>
        <time>2014-03-29T16:56:34Z</time>
      </trkpt>
      <trkpt lat="37.677564500" lon="-1.717205700">
        <ele>531.000000</ele>
        <time>2014-03-29T16:56:35Z</time>
      </trkpt>
      <trkpt lat="37.677574200" lon="-1.717106500">
        <ele>530.000000</ele>
        <time>2014-03-29T16:56:36Z</time>
      </trkpt>
      <trkpt lat="37.677583100" lon="-1.717003400">
        <ele>529.000000</ele>
        <time>2014-03-29T16:56:37Z</time>
      </trkpt>
      <trkpt lat="37.677592000" lon="-1.716897200">
        <ele>528.000000</ele>
        <time>2014-03-29T16:56:38Z</time>
      </trkpt>
      <trkpt lat="37.677592900" lon="-1.716790100">
        <ele>527.000000</ele>
        <time>2014-03-29T16:56:39Z</time>
      </trkpt>
      <trkpt lat="37.677596100" lon="-1.716684500">
        <ele>526.000000</ele>
        <time>2014-03-29T16:56:40Z</time>
      </trkpt>
      <trkpt lat="37.677599600" lon="-1.716571600">
        <ele>525.000000</ele>
        <time>2014-03-29T16:56:41Z</time>
      </trkpt>
      <trkpt lat="37.677608300" lon="-1.716466700">
        <ele>524.000000</ele>
        <time>2014-03-29T16:56:42Z</time>
      </trkpt>
      <trkpt lat="37.677610200" lon="-1.716362800">
        <ele>523.000000</ele>
        <time>2014-03-29T16:56:43Z</time>
      </trkpt>
      <trkpt lat="37.677605500" lon="-1.716259100">
        <ele>522.000000</ele>
        <time>2014-03-29T16:56:44Z</time>
      </trkpt>
      <trkpt lat="37.677597300" lon="-1.716163500">
        <ele>522.000000</ele>
        <time>2014-03-29T16:56:45Z</time>
      </trkpt>
      <trkpt lat="37.677585700" lon="-1.716067800">
        <ele>521.000000</ele>
        <time>2014-03-29T16:56:46Z</time>
      </trkpt>
      <trkpt lat="37.677587500" lon="-1.715989100">
        <ele>520.000000</ele>
        <time>2014-03-29T16:56:47Z</time>
      </trkpt>
      <trkpt lat="37.677588500" lon="-1.715921900">
        <ele>520.000000</ele>
        <time>2014-03-29T16:56:48Z</time>
      </trkpt>
      <trkpt lat="37.677587600" lon="-1.715864400">
        <ele>519.000000</ele>
        <time>2014-03-29T16:56:49Z</time>
      </trkpt>
      <trkpt lat="37.677585900" lon="-1.715797800">
        <ele>519.000000</ele>
        <time>2014-03-29T16:56:50Z</time>
      </trkpt>
      <trkpt lat="37.677575200" lon="-1.715737800">
        <ele>518.000000</ele>
        <time>2014-03-29T16:56:51Z</time>
      </trkpt>
      <trkpt lat="37.677561700" lon="-1.715681600">
        <ele>518.000000</ele>
        <time>2014-03-29T16:56:52Z</time>
      </trkpt>
      <trkpt lat="37.677545500" lon="-1.715625800">
        <ele>518.000000</ele>
        <time>2014-03-29T16:56:53Z</time>
      </trkpt>
      <trkpt lat="37.677526800" lon="-1.715562600">
        <ele>518.000000</ele>
        <time>2014-03-29T16:56:54Z</time>
      </trkpt>
      <trkpt lat="37.677508200" lon="-1.715496400">
        <ele>517.000000</ele>
        <time>2014-03-29T16:56:55Z</time>
      </trkpt>
      <trkpt lat="37.677489100" lon="-1.715422700">
        <ele>517.000000</ele>
        <time>2014-03-29T16:56:56Z</time>
      </trkpt>
      <trkpt lat="37.677471400" lon="-1.715339400">
        <ele>517.000000</ele>
        <time>2014-03-29T16:56:57Z</time>
      </trkpt>
      <trkpt lat="37.677455900" lon="-1.715252100">
        <ele>517.000000</ele>
        <time>2014-03-29T16:56:58Z</time>
      </trkpt>
      <trkpt lat="37.677443400" lon="-1.715163900">
        <ele>517.000000</ele>
        <time>2014-03-29T16:56:59Z</time>
      </trkpt>
      <trkpt lat="37.677432300" lon="-1.715076600">
        <ele>517.000000</ele>
        <time>2014-03-29T16:57:00Z</time>
      </trkpt>
      <trkpt lat="37.677422500" lon="-1.714988700">
        <ele>517.000000</ele>
        <time>2014-03-29T16:57:01Z</time>
      </trkpt>
      <trkpt lat="37.677417600" lon="-1.714905600">
        <ele>517.000000</ele>
        <time>2014-03-29T16:57:02Z</time>
      </trkpt>
      <trkpt lat="37.677412100" lon="-1.714820900">
        <ele>517.000000</ele>
        <time>2014-03-29T16:57:03Z</time>
      </trkpt>
      <trkpt lat="37.677402100" lon="-1.714745800">
        <ele>517.000000</ele>
        <time>2014-03-29T16:57:04Z</time>
      </trkpt>
      <trkpt lat="37.677387000" lon="-1.714677300">
        <ele>516.000000</ele>
        <time>2014-03-29T16:57:05Z</time>
      </trkpt>
      <trkpt lat="37.677369400" lon="-1.714605900">
        <ele>516.000000</ele>
        <time>2014-03-29T16:57:06Z</time>
      </trkpt>
      <trkpt lat="37.677356000" lon="-1.714536600">
        <ele>516.000000</ele>
        <time>2014-03-29T16:57:07Z</time>
      </trkpt>
      <trkpt lat="37.677347300" lon="-1.714470100">
        <ele>516.000000</ele>
        <time>2014-03-29T16:57:08Z</time>
      </trkpt>
      <trkpt lat="37.677341400" lon="-1.714405700">
        <ele>516.000000</ele>
        <time>2014-03-29T16:57:09Z</time>
      </trkpt>
      <trkpt lat="37.677338500" lon="-1.714343200">
        <ele>515.000000</ele>
        <time>2014-03-29T16:57:10Z</time>
      </trkpt>
      <trkpt lat="37.677334700" lon="-1.714280100">
        <ele>515.000000</ele>
        <time>2014-03-29T16:57:11Z</time>
      </trkpt>
      <trkpt lat="37.677332100" lon="-1.714220900">
        <ele>515.000000</ele>
        <time>2014-03-29T16:57:12Z</time>
      </trkpt>
      <trkpt lat="37.677333000" lon="-1.714165500">
        <ele>515.000000</ele>
        <time>2014-03-29T16:57:13Z</time>
      </trkpt>
      <trkpt lat="37.677337000" lon="-1.714111000">
        <ele>515.000000</ele>
        <time>2014-03-29T16:57:14Z</time>
      </trkpt>
      <trkpt lat="37.677342100" lon="-1.714059900">
        <ele>515.000000</ele>
        <time>2014-03-29T16:57:15Z</time>
      </trkpt>
      <trkpt lat="37.677345500" lon="-1.714008600">
        <ele>515.000000</ele>
        <time>2014-03-29T16:57:16Z</time>
      </trkpt>
      <trkpt lat="37.677346500" lon="-1.713962100">
        <ele>515.000000</ele>
        <time>2014-03-29T16:57:17Z</time>
      </trkpt>
      <trkpt lat="37.677347900" lon="-1.713918300">
        <ele>516.000000</ele>
        <time>2014-03-29T16:57:18Z</time>
      </trkpt>
      <trkpt lat="37.677351400" lon="-1.713879200">
        <ele>516.000000</ele>
        <time>2014-03-29T16:57:19Z</time>
      </trkpt>
      <trkpt lat="37.677352700" lon="-1.713844000">
        <ele>516.000000</ele>
        <time>2014-03-29T16:57:20Z</time>
      </trkpt>
      <trkpt lat="37.677352000" lon="-1.713809100">
        <ele>517.000000</ele>
        <time>2014-03-29T16:57:21Z</time>
      </trkpt>
      <trkpt lat="37.677354700" lon="-1.713769900">
        <ele>517.000000</ele>
        <time>2014-03-29T16:57:22Z</time>
      </trkpt>
      <trkpt lat="37.677360100" lon="-1.713728000">
        <ele>517.000000</ele>
        <time>2014-03-29T16:57:23Z</time>
      </trkpt>
      <trkpt lat="37.677366800" lon="-1.713686800">
        <ele>517.000000</ele>
        <time>2014-03-29T16:57:24Z</time>
      </trkpt>
      <trkpt lat="37.677372400" lon="-1.713646000">
        <ele>518.000000</ele>
        <time>2014-03-29T16:57:25Z</time>
      </trkpt>
      <trkpt lat="37.677376200" lon="-1.713607600">
        <ele>518.000000</ele>
        <time>2014-03-29T16:57:26Z</time>
      </trkpt>
      <trkpt lat="37.677380000" lon="-1.713569300">
        <ele>518.000000</ele>
        <time>2014-03-29T16:57:27Z</time>
      </trkpt>
      <trkpt lat="37.677382100" lon="-1.713531300">
        <ele>519.000000</ele>
        <time>2014-03-29T16:57:28Z</time>
      </trkpt>
      <trkpt lat="37.677385100" lon="-1.713490400">
        <ele>519.000000</ele>
        <time>2014-03-29T16:57:29Z</time>
      </trkpt>
      <trkpt lat="37.677389400" lon="-1.713447600">
        <ele>519.000000</ele>
        <time>2014-03-29T16:57:30Z</time>
      </trkpt>
      <trkpt lat="37.677391600" lon="-1.713405500">
        <ele>520.000000</ele>
        <time>2014-03-29T16:57:31Z</time>
      </trkpt>
      <trkpt lat="37.677393500" lon="-1.713363900">
        <ele>520.000000</ele>
        <time>2014-03-29T16:57:32Z</time>
      </trkpt>
      <trkpt lat="37.677395400" lon="-1.713318100">
        <ele>520.000000</ele>
        <time>2014-03-29T16:57:33Z</time>
      </trkpt>
      <trkpt lat="37.677399300" lon="-1.713275700">
        <ele>520.000000</ele>
        <time>2014-03-29T16:57:34Z</time>
      </trkpt>
      <trkpt lat="37.677406300" lon="-1.713232700">
        <ele>521.000000</ele>
        <time>2014-03-29T16:57:35Z</time>
      </trkpt>
      <trkpt lat="37.677411900" lon="-1.713192500">
        <ele>521.000000</ele>
        <time>2014-03-29T16:57:36Z</time>
      </trkpt>
      <trkpt lat="37.677414800" lon="-1.713149700">
        <ele>521.000000</ele>
        <time>2014-03-29T16:57:37Z</time>
      </trkpt>
      <trkpt lat="37.677415200" lon="-1.713108100">
        <ele>522.000000</ele>
        <time>2014-03-29T16:57:38Z</time>
      </trkpt>
      <trkpt lat="37.677416600" lon="-1.713062800">
        <ele>522.000000</ele>
        <time>2014-03-29T16:57:39Z</time>
      </trkpt>
      <trkpt lat="37.677414100" lon="-1.713019700">
        <ele>522.000000</ele>
        <time>2014-03-29T16:57:40Z</time>
      </trkpt>
      <trkpt lat="37.677417800" lon="-1.712974600">
        <ele>522.000000</ele>
        <time>2014-03-29T16:57:41Z</time>
      </trkpt>
      <trkpt lat="37.677426800" lon="-1.712934400">
        <ele>523.000000</ele>
        <time>2014-03-29T16:57:42Z</time>
      </trkpt>
      <trkpt lat="37.677434500" lon="-1.712904800">
        <ele>523.000000</ele>
        <time>2014-03-29T16:57:43Z</time>
      </trkpt>
      <trkpt lat="37.677442600" lon="-1.712872200">
        <ele>523.000000</ele>
        <time>2014-03-29T16:57:44Z</time>
      </trkpt>
      <trkpt lat="37.677454700" lon="-1.712831200">
        <ele>524.000000</ele>
        <time>2014-03-29T16:57:45Z</time>
      </trkpt>
      <trkpt lat="37.677461000" lon="-1.712790200">
        <ele>524.000000</ele>
        <time>2014-03-29T16:57:46Z</time>
      </trkpt>
      <trkpt lat="37.677467000" lon="-1.712749900">
        <ele>524.000000</ele>
        <time>2014-03-29T16:57:47Z</time>
      </trkpt>
      <trkpt lat="37.677467700" lon="-1.712712400">
        <ele>525.000000</ele>
        <time>2014-03-29T16:57:48Z</time>
      </trkpt>
      <trkpt lat="37.677462600" lon="-1.712676500">
        <ele>525.000000</ele>
        <time>2014-03-29T16:57:49Z</time>
      </trkpt>
      <trkpt lat="37.677454000" lon="-1.712640300">
        <ele>525.000000</ele>
        <time>2014-03-29T16:57:50Z</time>
      </trkpt>
      <trkpt lat="37.677444300" lon="-1.712601700">
        <ele>526.000000</ele>
        <time>2014-03-29T16:57:51Z</time>
      </trkpt>
      <trkpt lat="37.677429700" lon="-1.712561500">
        <ele>526.000000</ele>
        <time>2014-03-29T16:57:52Z</time>
      </trkpt>
      <trkpt lat="37.677419300" lon="-1.712517000">
        <ele>526.000000</ele>
        <time>2014-03-29T16:57:53Z</time>
      </trkpt>
      <trkpt lat="37.677404000" lon="-1.712477800">
        <ele>527.000000</ele>
        <time>2014-03-29T16:57:54Z</time>
      </trkpt>
      <trkpt lat="37.677385600" lon="-1.712425900">
        <ele>527.000000</ele>
        <time>2014-03-29T16:57:55Z</time>
      </trkpt>
      <trkpt lat="37.677370300" lon="-1.712370700">
        <ele>527.000000</ele>
        <time>2014-03-29T16:57:56Z</time>
      </trkpt>
      <trkpt lat="37.677354500" lon="-1.712311500">
        <ele>527.000000</ele>
        <time>2014-03-29T16:57:57Z</time>
      </trkpt>
      <trkpt lat="37.677335800" lon="-1.712253200">
        <ele>528.000000</ele>
        <time>2014-03-29T16:57:58Z</time>
      </trkpt>
      <trkpt lat="37.677314300" lon="-1.712198500">
        <ele>528.000000</ele>
        <time>2014-03-29T16:57:59Z</time>
      </trkpt>
      <trkpt lat="37.677289800" lon="-1.712149200">
        <ele>528.000000</ele>
        <time>2014-03-29T16:58:00Z</time>
      </trkpt>
      <trkpt lat="37.677263300" lon="-1.712096300">
        <ele>528.000000</ele>
        <time>2014-03-29T16:58:01Z</time>
      </trkpt>
      <trkpt lat="37.677232400" lon="-1.712046800">
        <ele>528.000000</ele>
        <time>2014-03-29T16:58:02Z</time>
      </trkpt>
      <trkpt lat="37.677203700" lon="-1.711995700">
        <ele>528.000000</ele>
        <time>2014-03-29T16:58:03Z</time>
      </trkpt>
      <trkpt lat="37.677178900" lon="-1.711936200">
        <ele>528.000000</ele>
        <time>2014-03-29T16:58:04Z</time>
      </trkpt>
      <trkpt lat="37.677164600" lon="-1.711871900">
        <ele>528.000000</ele>
        <time>2014-03-29T16:58:05Z</time>
      </trkpt>
      <trkpt lat="37.677165100" lon="-1.711806900">
        <ele>528.000000</ele>
        <time>2014-03-29T16:58:06Z</time>
      </trkpt>
      <trkpt lat="37.677182600" lon="-1.711739800">
        <ele>528.000000</ele>
        <time>2014-03-29T16:58:07Z</time>
      </trkpt>
      <trkpt lat="37.677198400" lon="-1.711672700">
        <ele>528.000000</ele>
        <time>2014-03-29T16:58:08Z</time>
      </trkpt>
      <trkpt lat="37.677211400" lon="-1.711603400">
        <ele>528.000000</ele>
        <time>2014-03-29T16:58:09Z</time>
      </trkpt>
      <trkpt lat="37.677220900" lon="-1.711533100">
        <ele>528.000000</ele>
        <time>2014-03-29T16:58:10Z</time>
      </trkpt>
      <trkpt lat="37.677220000" lon="-1.711464000">
        <ele>528.000000</ele>
        <time>2014-03-29T16:58:11Z</time>
      </trkpt>
      <trkpt lat="37.677207500" lon="-1.711398100">
        <ele>528.000000</ele>
        <time>2014-03-29T16:58:12Z</time>
      </trkpt>
      <trkpt lat="37.677192500" lon="-1.711336300">
        <ele>528.000000</ele>
        <time>2014-03-29T16:58:13Z</time>
      </trkpt>
      <trkpt lat="37.677172800" lon="-1.711278100">
        <ele>528.000000</ele>
        <time>2014-03-29T16:58:14Z</time>
      </trkpt>
      <trkpt lat="37.677154200" lon="-1.711221600">
        <ele>528.000000</ele>
        <time>2014-03-29T16:58:15Z</time>
      </trkpt>
      <trkpt lat="37.677137600" lon="-1.711166600">
        <ele>528.000000</ele>
        <time>2014-03-29T16:58:16Z</time>
      </trkpt>
      <trkpt lat="37.677124000" lon="-1.711111500">
        <ele>528.000000</ele>
        <time>2014-03-29T16:58:17Z</time>
      </trkpt>
      <trkpt lat="37.677115700" lon="-1.711061200">
        <ele>528.000000</ele>
        <time>2014-03-29T16:58:18Z</time>
      </trkpt>
      <trkpt lat="37.677113800" lon="-1.711013000">
        <ele>528.000000</ele>
        <time>2014-03-29T16:58:19Z</time>
      </trkpt>
      <trkpt lat="37.677121500" lon="-1.710968300">
        <ele>527.000000</ele>
        <time>2014-03-29T16:58:20Z</time>
      </trkpt>
      <trkpt lat="37.677132300" lon="-1.710932400">
        <ele>527.000000</ele>
        <time>2014-03-29T16:58:21Z</time>
      </trkpt>
      <trkpt lat="37.677142000" lon="-1.710901600">
        <ele>527.000000</ele>
        <time>2014-03-29T16:58:22Z</time>
      </trkpt>
      <trkpt lat="37.677153900" lon="-1.710871500">
        <ele>527.000000</ele>
        <time>2014-03-29T16:58:23Z</time>
      </trkpt>
      <trkpt lat="37.677164800" lon="-1.710840200">
        <ele>527.000000</ele>
        <time>2014-03-29T16:58:24Z</time>
      </trkpt>
      <trkpt lat="37.677174700" lon="-1.710805700">
        <ele>527.000000</ele>
        <time>2014-03-29T16:58:25Z</time>
      </trkpt>
      <trkpt lat="37.677181200" lon="-1.710767400">
        <ele>527.000000</ele>
        <time>2014-03-29T16:58:26Z</time>
      </trkpt>
      <trkpt lat="37.677184200" lon="-1.710726700">
        <ele>527.000000</ele>
        <time>2014-03-29T16:58:27Z</time>
      </trkpt>
      <trkpt lat="37.677184900" lon="-1.710682500">
        <ele>527.000000</ele>
        <time>2014-03-29T16:58:28Z</time>
      </trkpt>
      <trkpt lat="37.677185300" lon="-1.710642800">
        <ele>527.000000</ele>
        <time>2014-03-29T16:58:29Z</time>
      </trkpt>
      <trkpt lat="37.677185000" lon="-1.710605300">
        <ele>527.000000</ele>
        <time>2014-03-29T16:58:30Z</time>
      </trkpt>
      <trkpt lat="37.677182200" lon="-1.710569400">
        <ele>527.000000</ele>
        <time>2014-03-29T16:58:31Z</time>
      </trkpt>
      <trkpt lat="37.677178100" lon="-1.710536700">
        <ele>527.000000</ele>
        <time>2014-03-29T16:58:32Z</time>
      </trkpt>
      <trkpt lat="37.677169300" lon="-1.710500200">
        <ele>527.000000</ele>
        <time>2014-03-29T16:58:33Z</time>
      </trkpt>
      <trkpt lat="37.677158400" lon="-1.710470300">
        <ele>527.000000</ele>
        <time>2014-03-29T16:58:34Z</time>
      </trkpt>
      <trkpt lat="37.677145200" lon="-1.710441300">
        <ele>527.000000</ele>
        <time>2014-03-29T16:58:35Z</time>
      </trkpt>
      <trkpt lat="37.677137100" lon="-1.710409700">
        <ele>527.000000</ele>
        <time>2014-03-29T16:58:36Z</time>
      </trkpt>
      <trkpt lat="37.677135100" lon="-1.710371800">
        <ele>528.000000</ele>
        <time>2014-03-29T16:58:37Z</time>
      </trkpt>
      <trkpt lat="37.677138400" lon="-1.710340300">
        <ele>528.000000</ele>
        <time>2014-03-29T16:58:38Z</time>
      </trkpt>
      <trkpt lat="37.677141600" lon="-1.710320300">
        <ele>528.000000</ele>
        <time>2014-03-29T16:58:39Z</time>
      </trkpt>
      <trkpt lat="37.677159100" lon="-1.710317800">
        <ele>528.000000</ele>
        <time>2014-03-29T16:58:40Z</time>
      </trkpt>
      <trkpt lat="37.677175800" lon="-1.710335300">
        <ele>528.000000</ele>
        <time>2014-03-29T16:58:41Z</time>
      </trkpt>
      <trkpt lat="37.677188100" lon="-1.710371200">
        <ele>528.000000</ele>
        <time>2014-03-29T16:58:42Z</time>
      </trkpt>
      <trkpt lat="37.677202000" lon="-1.710412200">
        <ele>528.000000</ele>
        <time>2014-03-29T16:58:43Z</time>
      </trkpt>
      <trkpt lat="37.677219000" lon="-1.710457200">
        <ele>528.000000</ele>
        <time>2014-03-29T16:58:44Z</time>
      </trkpt>
      <trkpt lat="37.677238900" lon="-1.710499700">
        <ele>528.000000</ele>
        <time>2014-03-29T16:58:45Z</time>
      </trkpt>
      <trkpt lat="37.677261100" lon="-1.710536700">
        <ele>528.000000</ele>
        <time>2014-03-29T16:58:46Z</time>
      </trkpt>
      <trkpt lat="37.677284500" lon="-1.710567800">
        <ele>528.000000</ele>
        <time>2014-03-29T16:58:47Z</time>
      </trkpt>
      <trkpt lat="37.677312400" lon="-1.710595300">
        <ele>528.000000</ele>
        <time>2014-03-29T16:58:48Z</time>
      </trkpt>
      <trkpt lat="37.677348500" lon="-1.710614800">
        <ele>528.000000</ele>
        <time>2014-03-29T16:58:49Z</time>
      </trkpt>
      <trkpt lat="37.677388300" lon="-1.710619500">
        <ele>527.000000</ele>
        <time>2014-03-29T16:58:50Z</time>
      </trkpt>
      <trkpt lat="37.677428200" lon="-1.710612300">
        <ele>527.000000</ele>
        <time>2014-03-29T16:58:51Z</time>
      </trkpt>
      <trkpt lat="37.677463300" lon="-1.710594000">
        <ele>527.000000</ele>
        <time>2014-03-29T16:58:52Z</time>
      </trkpt>
      <trkpt lat="37.677489500" lon="-1.710572200">
        <ele>527.000000</ele>
        <time>2014-03-29T16:58:53Z</time>
      </trkpt>
      <trkpt lat="37.677507500" lon="-1.710553200">
        <ele>526.000000</ele>
        <time>2014-03-29T16:58:54Z</time>
      </trkpt>
      <trkpt lat="37.677512400" lon="-1.710545400">
        <ele>526.000000</ele>
        <time>2014-03-29T16:58:55Z</time>
      </trkpt>
      <trkpt lat="37.677515300" lon="-1.710543600">
        <ele>526.000000</ele>
        <time>2014-03-29T16:58:56Z</time>
      </trkpt>
      <trkpt lat="37.677513100" lon="-1.710544100">
        <ele>526.000000</ele>
        <time>2014-03-29T16:58:57Z</time>
      </trkpt>
      <trkpt lat="37.677508200" lon="-1.710540900">
        <ele>525.000000</ele>
        <time>2014-03-29T16:58:58Z</time>
      </trkpt>
      <trkpt lat="37.677518800" lon="-1.710578100">
        <ele>524.000000</ele>
        <time>2014-03-29T17:00:36Z</time>
      </trkpt>
      <trkpt lat="37.677518800" lon="-1.710578100">
        <ele>524.000000</ele>
        <time>2014-03-29T17:00:37Z</time>
      </trkpt>
      <trkpt lat="37.677509500" lon="-1.710589200">
        <ele>524.000000</ele>
        <time>2014-03-29T17:00:38Z</time>
      </trkpt>
      <trkpt lat="37.677493800" lon="-1.710598400">
        <ele>524.000000</ele>
        <time>2014-03-29T17:00:39Z</time>
      </trkpt>
      <trkpt lat="37.677479100" lon="-1.710613500">
        <ele>524.000000</ele>
        <time>2014-03-29T17:00:40Z</time>
      </trkpt>
      <trkpt lat="37.677463000" lon="-1.710630600">
        <ele>524.000000</ele>
        <time>2014-03-29T17:00:41Z</time>
      </trkpt>
      <trkpt lat="37.677442900" lon="-1.710644100">
        <ele>524.000000</ele>
        <time>2014-03-29T17:00:42Z</time>
      </trkpt>
      <trkpt lat="37.677420500" lon="-1.710656700">
        <ele>524.000000</ele>
        <time>2014-03-29T17:00:43Z</time>
      </trkpt>
      <trkpt lat="37.677396700" lon="-1.710666900">
        <ele>524.000000</ele>
        <time>2014-03-29T17:00:44Z</time>
      </trkpt>
      <trkpt lat="37.677376900" lon="-1.710670900">
        <ele>524.000000</ele>
        <time>2014-03-29T17:00:45Z</time>
      </trkpt>
      <trkpt lat="37.677355700" lon="-1.710677800">
        <ele>524.000000</ele>
        <time>2014-03-29T17:00:46Z</time>
      </trkpt>
      <trkpt lat="37.677335600" lon="-1.710675300">
        <ele>524.000000</ele>
        <time>2014-03-29T17:00:47Z</time>
      </trkpt>
      <trkpt lat="37.677317800" lon="-1.710675600">
        <ele>524.000000</ele>
        <time>2014-03-29T17:00:48Z</time>
      </trkpt>
      <trkpt lat="37.677304900" lon="-1.710679600">
        <ele>524.000000</ele>
        <time>2014-03-29T17:00:49Z</time>
      </trkpt>
      <trkpt lat="37.677299000" lon="-1.710689900">
        <ele>523.000000</ele>
        <time>2014-03-29T17:00:50Z</time>
      </trkpt>
      <trkpt lat="37.677291100" lon="-1.710697000">
        <ele>523.000000</ele>
        <time>2014-03-29T17:00:51Z</time>
      </trkpt>
      <trkpt lat="37.677283800" lon="-1.710699500">
        <ele>523.000000</ele>
        <time>2014-03-29T17:00:52Z</time>
      </trkpt>
      <trkpt lat="37.677281600" lon="-1.710698500">
        <ele>523.000000</ele>
        <time>2014-03-29T17:00:53Z</time>
      </trkpt>
      <trkpt lat="37.677281600" lon="-1.710698800">
        <ele>523.000000</ele>
        <time>2014-03-29T17:00:54Z</time>
      </trkpt>
    </trkseg>
  </trk>
</gpx>
